<?xml version='1.0' encoding='UTF-8'?><gpx version="1.1" creator="JPX - https://github.com/jenetics/jpx" xmlns="http://www.topografix.com/GPX/1/1"><trk><trkseg><trkpt lat="44.048765" lon="12.586215"><ele>4.5</ele><time>2026-03-22T07:54:18.235Z</time></trkpt><trkpt lat="44.0488167" lon="12.5860767"><ele>5.0</ele><time>2026-03-22T07:54:20.235Z</time></trkpt><trkpt lat="44.049035" lon="12.5860883"><ele>5.5</ele><time>2026-03-22T07:54:28.235Z</time></trkpt><trkpt lat="44.0490967" lon="12.5860383"><ele>6.0</ele><time>2026-03-22T07:54:29.558Z</time></trkpt><trkpt lat="44.0490667" lon="12.5861617"><ele>5.666666666666667</ele><time>2026-03-22T07:54:40.557Z</time></trkpt><trkpt lat="44.04905" lon="12.5862567"><ele>5.333333333333333</ele><time>2026-03-22T07:54:44.557Z</time></trkpt><trkpt lat="44.0489483" lon="12.5863283"><ele>5.0</ele><time>2026-03-22T07:55:03.557Z</time></trkpt><trkpt lat="44.0488767" lon="12.586315"><ele>4.666666666666666</ele><time>2026-03-22T07:55:07.557Z</time></trkpt><trkpt lat="44.0487917" lon="12.5862733"><ele>4.333333333333333</ele><time>2026-03-22T07:55:18.483Z</time></trkpt><trkpt lat="44.0487167" lon="12.5862333"><ele>4.0</ele><time>2026-03-22T07:55:30.557Z</time></trkpt><trkpt lat="44.0486167" lon="12.586285"><ele>3.9999999999999996</ele><time>2026-03-22T07:55:32.558Z</time></trkpt><trkpt lat="44.0485583" lon="12.5863333"><ele>4.0</ele><time>2026-03-22T07:55:33.557Z</time></trkpt><trkpt lat="44.04849" lon="12.586445"><ele>4.0</ele><time>2026-03-22T07:55:35.557Z</time></trkpt><trkpt lat="44.0484867" lon="12.5865483"><ele>4.0</ele><time>2026-03-22T07:55:37.558Z</time></trkpt><trkpt lat="44.0485483" lon="12.58667"><ele>3.9999999999999996</ele><time>2026-03-22T07:55:39.558Z</time></trkpt><trkpt lat="44.0486033" lon="12.5867733"><ele>4.0</ele><time>2026-03-22T07:55:41.558Z</time></trkpt><trkpt lat="44.0486617" lon="12.5868383"><ele>4.0</ele><time>2026-03-22T07:55:44.557Z</time></trkpt><trkpt lat="44.0487617" lon="12.586745"><ele>4.0</ele><time>2026-03-22T07:55:46.557Z</time></trkpt><trkpt lat="44.0488367" lon="12.5866717"><ele>4.0</ele><time>2026-03-22T07:55:47.558Z</time></trkpt><trkpt lat="44.0489017" lon="12.5865933"><ele>4.0</ele><time>2026-03-22T07:55:48.558Z</time></trkpt><trkpt lat="44.04896" lon="12.5865117"><ele>4.0</ele><time>2026-03-22T07:55:49.558Z</time></trkpt><trkpt lat="44.049015" lon="12.5864417"><ele>3.9999999999999996</ele><time>2026-03-22T07:55:50.558Z</time></trkpt><trkpt lat="44.04907" lon="12.5863717"><ele>4.0</ele><time>2026-03-22T07:55:51.558Z</time></trkpt><trkpt lat="44.0491217" lon="12.5862967"><ele>4.0</ele><time>2026-03-22T07:55:52.558Z</time></trkpt><trkpt lat="44.0491733" lon="12.5862317"><ele>4.0</ele><time>2026-03-22T07:55:53.558Z</time></trkpt><trkpt lat="44.0492483" lon="12.5861517"><ele>3.9999999999999996</ele><time>2026-03-22T07:55:55.558Z</time></trkpt><trkpt lat="44.049275" lon="12.58607"><ele>4.0</ele><time>2026-03-22T07:56:00.558Z</time></trkpt><trkpt lat="44.04925" lon="12.5859533"><ele>4.4</ele><time>2026-03-22T07:56:02.558Z</time></trkpt><trkpt lat="44.0492117" lon="12.5858767"><ele>4.800000000000001</ele><time>2026-03-22T07:56:03.557Z</time></trkpt><trkpt lat="44.0491533" lon="12.58578"><ele>5.199999999999999</ele><time>2026-03-22T07:56:04.557Z</time></trkpt><trkpt lat="44.04908" lon="12.5856667"><ele>5.6</ele><time>2026-03-22T07:56:05.558Z</time></trkpt><trkpt lat="44.0490017" lon="12.5855433"><ele>6.0</ele><time>2026-03-22T07:56:06.558Z</time></trkpt><trkpt lat="44.04892" lon="12.5854267"><ele>6.199999999999999</ele><time>2026-03-22T07:56:07.558Z</time></trkpt><trkpt lat="44.0488433" lon="12.5853183"><ele>6.3999999999999995</ele><time>2026-03-22T07:56:08.558Z</time></trkpt><trkpt lat="44.0487733" lon="12.58521"><ele>6.6</ele><time>2026-03-22T07:56:09.557Z</time></trkpt><trkpt lat="44.0487" lon="12.5851033"><ele>6.8</ele><time>2026-03-22T07:56:10.558Z</time></trkpt><trkpt lat="44.048625" lon="12.5850017"><ele>7.0</ele><time>2026-03-22T07:56:11.557Z</time></trkpt><trkpt lat="44.0485467" lon="12.5849067"><ele>7.000000000000001</ele><time>2026-03-22T07:56:12.558Z</time></trkpt><trkpt lat="44.048475" lon="12.5848183"><ele>7.0</ele><time>2026-03-22T07:56:13.558Z</time></trkpt><trkpt lat="44.0484033" lon="12.5847367"><ele>7.0</ele><time>2026-03-22T07:56:14.558Z</time></trkpt><trkpt lat="44.0483433" lon="12.5846583"><ele>7.0</ele><time>2026-03-22T07:56:15.558Z</time></trkpt><trkpt lat="44.0482867" lon="12.584585"><ele>7.000000000000001</ele><time>2026-03-22T07:56:16.558Z</time></trkpt><trkpt lat="44.0482317" lon="12.58452"><ele>7.0</ele><time>2026-03-22T07:56:17.557Z</time></trkpt><trkpt lat="44.048175" lon="12.58445"><ele>7.333333333333334</ele><time>2026-03-22T07:56:18.558Z</time></trkpt><trkpt lat="44.0481233" lon="12.5843733"><ele>7.666666666666667</ele><time>2026-03-22T07:56:19.557Z</time></trkpt><trkpt lat="44.0480767" lon="12.584305"><ele>8.0</ele><time>2026-03-22T07:56:20.558Z</time></trkpt><trkpt lat="44.0480183" lon="12.5841767"><ele>8.333333333333334</ele><time>2026-03-22T07:56:22.558Z</time></trkpt><trkpt lat="44.0480367" lon="12.5840283"><ele>8.666666666666666</ele><time>2026-03-22T07:56:24.558Z</time></trkpt><trkpt lat="44.0480767" lon="12.58394"><ele>9.0</ele><time>2026-03-22T07:56:25.558Z</time></trkpt><trkpt lat="44.048145" lon="12.5838417"><ele>9.0</ele><time>2026-03-22T07:56:26.558Z</time></trkpt><trkpt lat="44.0482233" lon="12.5837383"><ele>9.0</ele><time>2026-03-22T07:56:27.558Z</time></trkpt><trkpt lat="44.0482967" lon="12.583645"><ele>9.0</ele><time>2026-03-22T07:56:28.557Z</time></trkpt><trkpt lat="44.0483567" lon="12.583575"><ele>9.0</ele><time>2026-03-22T07:56:29.558Z</time></trkpt><trkpt lat="44.0484067" lon="12.58352"><ele>9.0</ele><time>2026-03-22T07:56:30.557Z</time></trkpt><trkpt lat="44.0484667" lon="12.583425"><ele>9.0</ele><time>2026-03-22T07:56:32.557Z</time></trkpt><trkpt lat="44.0484817" lon="12.58333"><ele>8.6</ele><time>2026-03-22T07:56:34.558Z</time></trkpt><trkpt lat="44.04845" lon="12.5832317"><ele>8.2</ele><time>2026-03-22T07:56:36.558Z</time></trkpt><trkpt lat="44.0483733" lon="12.5831283"><ele>7.799999999999999</ele><time>2026-03-22T07:56:38.558Z</time></trkpt><trkpt lat="44.0483133" lon="12.58305"><ele>7.3999999999999995</ele><time>2026-03-22T07:56:40.558Z</time></trkpt><trkpt lat="44.048265" lon="12.5829817"><ele>7.0</ele><time>2026-03-22T07:56:42.558Z</time></trkpt><trkpt lat="44.0481767" lon="12.5828733"><ele>7.000000000000001</ele><time>2026-03-22T07:56:44.558Z</time></trkpt><trkpt lat="44.0481183" lon="12.5828083"><ele>7.0</ele><time>2026-03-22T07:56:45.558Z</time></trkpt><trkpt lat="44.0480567" lon="12.5827333"><ele>7.0</ele><time>2026-03-22T07:56:46.557Z</time></trkpt><trkpt lat="44.0479933" lon="12.5826517"><ele>7.0</ele><time>2026-03-22T07:56:47.557Z</time></trkpt><trkpt lat="44.0479267" lon="12.5825667"><ele>7.000000000000001</ele><time>2026-03-22T07:56:48.557Z</time></trkpt><trkpt lat="44.0478567" lon="12.5824767"><ele>7.0</ele><time>2026-03-22T07:56:49.557Z</time></trkpt><trkpt lat="44.0477783" lon="12.5823783"><ele>7.0</ele><time>2026-03-22T07:56:50.558Z</time></trkpt><trkpt lat="44.0476883" lon="12.5822667"><ele>7.0</ele><time>2026-03-22T07:56:51.558Z</time></trkpt><trkpt lat="44.0476033" lon="12.5821467"><ele>7.0</ele><time>2026-03-22T07:56:52.558Z</time></trkpt><trkpt lat="44.0475267" lon="12.5820383"><ele>7.0</ele><time>2026-03-22T07:56:53.558Z</time></trkpt><trkpt lat="44.0474517" lon="12.5819433"><ele>7.000000000000001</ele><time>2026-03-22T07:56:54.557Z</time></trkpt><trkpt lat="44.047385" lon="12.581865"><ele>7.0</ele><time>2026-03-22T07:56:55.558Z</time></trkpt><trkpt lat="44.04733" lon="12.5817967"><ele>7.0</ele><time>2026-03-22T07:56:56.557Z</time></trkpt><trkpt lat="44.0472567" lon="12.581705"><ele>7.0</ele><time>2026-03-22T07:56:58.558Z</time></trkpt><trkpt lat="44.0472067" lon="12.5816233"><ele>7.000000000000001</ele><time>2026-03-22T07:57:02.557Z</time></trkpt><trkpt lat="44.0472083" lon="12.5815317"><ele>7.0</ele><time>2026-03-22T07:57:04.558Z</time></trkpt><trkpt lat="44.047275" lon="12.5813717"><ele>7.0</ele><time>2026-03-22T07:57:06.558Z</time></trkpt><trkpt lat="44.0473417" lon="12.5812617"><ele>7.0</ele><time>2026-03-22T07:57:07.558Z</time></trkpt><trkpt lat="44.0474267" lon="12.5811267"><ele>7.0</ele><time>2026-03-22T07:57:08.558Z</time></trkpt><trkpt lat="44.0475233" lon="12.5809767"><ele>7.0</ele><time>2026-03-22T07:57:09.557Z</time></trkpt><trkpt lat="44.0476183" lon="12.5808283"><ele>7.0</ele><time>2026-03-22T07:57:10.557Z</time></trkpt><trkpt lat="44.047705" lon="12.5806917"><ele>6.999999999999999</ele><time>2026-03-22T07:57:11.557Z</time></trkpt><trkpt lat="44.0477817" lon="12.5805667"><ele>6.999999999999999</ele><time>2026-03-22T07:57:12.558Z</time></trkpt><trkpt lat="44.0478467" lon="12.5804667"><ele>7.0</ele><time>2026-03-22T07:57:13.558Z</time></trkpt><trkpt lat="44.0478983" lon="12.5803867"><ele>7.0</ele><time>2026-03-22T07:57:14.558Z</time></trkpt><trkpt lat="44.0479783" lon="12.5802733"><ele>7.0</ele><time>2026-03-22T07:57:16.558Z</time></trkpt><trkpt lat="44.0480767" lon="12.580165"><ele>6.999999999999999</ele><time>2026-03-22T07:57:18.558Z</time></trkpt><trkpt lat="44.0481383" lon="12.580055"><ele>6.999999999999999</ele><time>2026-03-22T07:57:20.558Z</time></trkpt><trkpt lat="44.04808" lon="12.57993"><ele>7.0</ele><time>2026-03-22T07:57:22.558Z</time></trkpt><trkpt lat="44.0480067" lon="12.579865"><ele>7.0</ele><time>2026-03-22T07:57:23.558Z</time></trkpt><trkpt lat="44.0479117" lon="12.57978"><ele>7.0</ele><time>2026-03-22T07:57:24.557Z</time></trkpt><trkpt lat="44.0477967" lon="12.579645"><ele>7.0</ele><time>2026-03-22T07:57:25.558Z</time></trkpt><trkpt lat="44.0476817" lon="12.5794933"><ele>7.0</ele><time>2026-03-22T07:57:26.558Z</time></trkpt><trkpt lat="44.0475583" lon="12.5793233"><ele>6.666666666666667</ele><time>2026-03-22T07:57:27.558Z</time></trkpt><trkpt lat="44.0474333" lon="12.579145"><ele>6.333333333333334</ele><time>2026-03-22T07:57:28.558Z</time></trkpt><trkpt lat="44.0473033" lon="12.578955"><ele>6.0</ele><time>2026-03-22T07:57:29.558Z</time></trkpt><trkpt lat="44.04717" lon="12.57876"><ele>6.0</ele><time>2026-03-22T07:57:30.558Z</time></trkpt><trkpt lat="44.047035" lon="12.5785633"><ele>6.0</ele><time>2026-03-22T07:57:31.558Z</time></trkpt><trkpt lat="44.0468917" lon="12.5783667"><ele>6.0</ele><time>2026-03-22T07:57:32.559Z</time></trkpt><trkpt lat="44.0467483" lon="12.5781633"><ele>6.0</ele><time>2026-03-22T07:57:33.558Z</time></trkpt><trkpt lat="44.0466067" lon="12.57796"><ele>6.0</ele><time>2026-03-22T07:57:34.559Z</time></trkpt><trkpt lat="44.0464717" lon="12.5777667"><ele>6.0</ele><time>2026-03-22T07:57:35.558Z</time></trkpt><trkpt lat="44.046345" lon="12.5775817"><ele>6.666666666666666</ele><time>2026-03-22T07:57:36.559Z</time></trkpt><trkpt lat="44.0462283" lon="12.5774067"><ele>7.333333333333333</ele><time>2026-03-22T07:57:37.559Z</time></trkpt><trkpt lat="44.0461117" lon="12.577235"><ele>8.0</ele><time>2026-03-22T07:57:38.558Z</time></trkpt><trkpt lat="44.04599" lon="12.5770617"><ele>8.0</ele><time>2026-03-22T07:57:39.559Z</time></trkpt><trkpt lat="44.0458767" lon="12.576895"><ele>8.0</ele><time>2026-03-22T07:57:40.558Z</time></trkpt><trkpt lat="44.0457733" lon="12.5767383"><ele>8.0</ele><time>2026-03-22T07:57:41.559Z</time></trkpt><trkpt lat="44.0456817" lon="12.5766"><ele>7.999999999999999</ele><time>2026-03-22T07:57:42.559Z</time></trkpt><trkpt lat="44.0456017" lon="12.5764867"><ele>8.0</ele><time>2026-03-22T07:57:43.559Z</time></trkpt><trkpt lat="44.045535" lon="12.5763917"><ele>8.0</ele><time>2026-03-22T07:57:44.559Z</time></trkpt><trkpt lat="44.0454833" lon="12.5763067"><ele>8.0</ele><time>2026-03-22T07:57:45.559Z</time></trkpt><trkpt lat="44.04545" lon="12.576225"><ele>7.999999999999999</ele><time>2026-03-22T07:57:46.558Z</time></trkpt><trkpt lat="44.04544" lon="12.576135"><ele>8.0</ele><time>2026-03-22T07:57:47.559Z</time></trkpt><trkpt lat="44.045445" lon="12.576035"><ele>7.999999999999999</ele><time>2026-03-22T07:57:48.559Z</time></trkpt><trkpt lat="44.045445" lon="12.57594"><ele>8.0</ele><time>2026-03-22T07:57:49.558Z</time></trkpt><trkpt lat="44.0454267" lon="12.5758517"><ele>8.0</ele><time>2026-03-22T07:57:50.559Z</time></trkpt><trkpt lat="44.04538" lon="12.5757783"><ele>8.0</ele><time>2026-03-22T07:57:51.559Z</time></trkpt><trkpt lat="44.0453017" lon="12.5757267"><ele>7.999999999999999</ele><time>2026-03-22T07:57:52.559Z</time></trkpt><trkpt lat="44.0452017" lon="12.5756867"><ele>8.0</ele><time>2026-03-22T07:57:53.558Z</time></trkpt><trkpt lat="44.045095" lon="12.57563"><ele>8.0</ele><time>2026-03-22T07:57:54.559Z</time></trkpt><trkpt lat="44.044995" lon="12.57554"><ele>8.0</ele><time>2026-03-22T07:57:55.559Z</time></trkpt><trkpt lat="44.0449017" lon="12.57542"><ele>8.0</ele><time>2026-03-22T07:57:56.559Z</time></trkpt><trkpt lat="44.0448033" lon="12.5752833"><ele>8.0</ele><time>2026-03-22T07:57:57.559Z</time></trkpt><trkpt lat="44.04471" lon="12.5751417"><ele>8.75</ele><time>2026-03-22T07:57:58.559Z</time></trkpt><trkpt lat="44.044615" lon="12.5750017"><ele>9.5</ele><time>2026-03-22T07:57:59.559Z</time></trkpt><trkpt lat="44.0445283" lon="12.574865"><ele>10.25</ele><time>2026-03-22T07:58:00.559Z</time></trkpt><trkpt lat="44.04444" lon="12.5747283"><ele>11.0</ele><time>2026-03-22T07:58:01.559Z</time></trkpt><trkpt lat="44.0443517" lon="12.574595"><ele>11.25</ele><time>2026-03-22T07:58:02.558Z</time></trkpt><trkpt lat="44.04426" lon="12.5744633"><ele>11.5</ele><time>2026-03-22T07:58:03.558Z</time></trkpt><trkpt lat="44.0441667" lon="12.574335"><ele>11.75</ele><time>2026-03-22T07:58:04.559Z</time></trkpt><trkpt lat="44.0440733" lon="12.574205"><ele>12.0</ele><time>2026-03-22T07:58:05.559Z</time></trkpt><trkpt lat="44.04398" lon="12.5740733"><ele>11.5</ele><time>2026-03-22T07:58:06.559Z</time></trkpt><trkpt lat="44.043885" lon="12.57394"><ele>11.0</ele><time>2026-03-22T07:58:07.558Z</time></trkpt><trkpt lat="44.0437867" lon="12.5738033"><ele>10.5</ele><time>2026-03-22T07:58:08.558Z</time></trkpt><trkpt lat="44.0436883" lon="12.5736667"><ele>10.0</ele><time>2026-03-22T07:58:09.558Z</time></trkpt><trkpt lat="44.0435867" lon="12.573525"><ele>10.0</ele><time>2026-03-22T07:58:10.558Z</time></trkpt><trkpt lat="44.0434833" lon="12.57338"><ele>10.0</ele><time>2026-03-22T07:58:11.558Z</time></trkpt><trkpt lat="44.043375" lon="12.5732267"><ele>10.0</ele><time>2026-03-22T07:58:12.559Z</time></trkpt><trkpt lat="44.043255" lon="12.5730617"><ele>10.0</ele><time>2026-03-22T07:58:13.559Z</time></trkpt><trkpt lat="44.043115" lon="12.5728717"><ele>10.0</ele><time>2026-03-22T07:58:14.559Z</time></trkpt><trkpt lat="44.0429683" lon="12.5726617"><ele>10.0</ele><time>2026-03-22T07:58:15.559Z</time></trkpt><trkpt lat="44.0428333" lon="12.572455"><ele>10.0</ele><time>2026-03-22T07:58:16.559Z</time></trkpt><trkpt lat="44.0427167" lon="12.5722617"><ele>10.0</ele><time>2026-03-22T07:58:17.559Z</time></trkpt><trkpt lat="44.0426267" lon="12.57209"><ele>10.0</ele><time>2026-03-22T07:58:18.558Z</time></trkpt><trkpt lat="44.0425517" lon="12.5719483"><ele>10.0</ele><time>2026-03-22T07:58:19.558Z</time></trkpt><trkpt lat="44.0424833" lon="12.5718367"><ele>10.0</ele><time>2026-03-22T07:58:20.558Z</time></trkpt><trkpt lat="44.0424133" lon="12.5717467"><ele>10.0</ele><time>2026-03-22T07:58:21.558Z</time></trkpt><trkpt lat="44.0423517" lon="12.5716633"><ele>10.0</ele><time>2026-03-22T07:58:22.559Z</time></trkpt><trkpt lat="44.0423067" lon="12.5715683"><ele>10.0</ele><time>2026-03-22T07:58:23.559Z</time></trkpt><trkpt lat="44.0422833" lon="12.57145"><ele>10.0</ele><time>2026-03-22T07:58:24.559Z</time></trkpt><trkpt lat="44.0422883" lon="12.5712933"><ele>10.0</ele><time>2026-03-22T07:58:25.559Z</time></trkpt><trkpt lat="44.0422933" lon="12.5710967"><ele>10.0</ele><time>2026-03-22T07:58:26.559Z</time></trkpt><trkpt lat="44.0422733" lon="12.5708933"><ele>10.0</ele><time>2026-03-22T07:58:27.559Z</time></trkpt><trkpt lat="44.042225" lon="12.5706833"><ele>10.0</ele><time>2026-03-22T07:58:28.559Z</time></trkpt><trkpt lat="44.042185" lon="12.57046"><ele>10.0</ele><time>2026-03-22T07:58:29.559Z</time></trkpt><trkpt lat="44.04217" lon="12.5702183"><ele>10.0</ele><time>2026-03-22T07:58:30.559Z</time></trkpt><trkpt lat="44.0421683" lon="12.5699667"><ele>9.666666666666668</ele><time>2026-03-22T07:58:31.559Z</time></trkpt><trkpt lat="44.0421767" lon="12.5696967"><ele>9.333333333333334</ele><time>2026-03-22T07:58:32.558Z</time></trkpt><trkpt lat="44.04219" lon="12.569405"><ele>9.0</ele><time>2026-03-22T07:58:33.558Z</time></trkpt><trkpt lat="44.0422033" lon="12.5690917"><ele>9.0</ele><time>2026-03-22T07:58:34.558Z</time></trkpt><trkpt lat="44.04222" lon="12.5687567"><ele>9.0</ele><time>2026-03-22T07:58:35.558Z</time></trkpt><trkpt lat="44.0422333" lon="12.5683983"><ele>10.5</ele><time>2026-03-22T07:58:36.559Z</time></trkpt><trkpt lat="44.042255" lon="12.5680383"><ele>12.0</ele><time>2026-03-22T07:58:37.558Z</time></trkpt><trkpt lat="44.0422867" lon="12.5676783"><ele>12.0</ele><time>2026-03-22T07:58:38.559Z</time></trkpt><trkpt lat="44.0423233" lon="12.5673317"><ele>12.0</ele><time>2026-03-22T07:58:39.559Z</time></trkpt><trkpt lat="44.0423683" lon="12.5670117"><ele>11.0</ele><time>2026-03-22T07:58:40.559Z</time></trkpt><trkpt lat="44.0424133" lon="12.56671"><ele>10.0</ele><time>2026-03-22T07:58:41.559Z</time></trkpt><trkpt lat="44.0424617" lon="12.56642"><ele>9.0</ele><time>2026-03-22T07:58:42.559Z</time></trkpt><trkpt lat="44.042515" lon="12.5661333"><ele>9.0</ele><time>2026-03-22T07:58:43.558Z</time></trkpt><trkpt lat="44.0425683" lon="12.5658567"><ele>9.0</ele><time>2026-03-22T07:58:44.558Z</time></trkpt><trkpt lat="44.0426217" lon="12.5655933"><ele>9.0</ele><time>2026-03-22T07:58:45.558Z</time></trkpt><trkpt lat="44.04268" lon="12.5653367"><ele>9.0</ele><time>2026-03-22T07:58:46.559Z</time></trkpt><trkpt lat="44.042745" lon="12.5650733"><ele>9.0</ele><time>2026-03-22T07:58:47.559Z</time></trkpt><trkpt lat="44.0428183" lon="12.564795"><ele>9.0</ele><time>2026-03-22T07:58:48.559Z</time></trkpt><trkpt lat="44.0428983" lon="12.5644983"><ele>8.5</ele><time>2026-03-22T07:58:49.559Z</time></trkpt><trkpt lat="44.0429817" lon="12.5641783"><ele>8.0</ele><time>2026-03-22T07:58:50.559Z</time></trkpt><trkpt lat="44.0430683" lon="12.5638383"><ele>8.0</ele><time>2026-03-22T07:58:51.558Z</time></trkpt><trkpt lat="44.043155" lon="12.5635"><ele>8.0</ele><time>2026-03-22T07:58:52.559Z</time></trkpt><trkpt lat="44.043235" lon="12.5631783"><ele>9.0</ele><time>2026-03-22T07:58:53.559Z</time></trkpt><trkpt lat="44.043315" lon="12.5628733"><ele>10.0</ele><time>2026-03-22T07:58:54.558Z</time></trkpt><trkpt lat="44.0433917" lon="12.56258"><ele>10.0</ele><time>2026-03-22T07:58:55.559Z</time></trkpt><trkpt lat="44.043465" lon="12.5623"><ele>10.0</ele><time>2026-03-22T07:58:56.558Z</time></trkpt><trkpt lat="44.0435333" lon="12.5620367"><ele>10.0</ele><time>2026-03-22T07:58:57.559Z</time></trkpt><trkpt lat="44.0436033" lon="12.5617817"><ele>10.666666666666668</ele><time>2026-03-22T07:58:58.558Z</time></trkpt><trkpt lat="44.0436667" lon="12.5615383"><ele>11.333333333333334</ele><time>2026-03-22T07:58:59.559Z</time></trkpt><trkpt lat="44.0437233" lon="12.56131"><ele>12.0</ele><time>2026-03-22T07:59:00.559Z</time></trkpt><trkpt lat="44.0437817" lon="12.56109"><ele>12.0</ele><time>2026-03-22T07:59:01.558Z</time></trkpt><trkpt lat="44.0438367" lon="12.5608783"><ele>12.0</ele><time>2026-03-22T07:59:02.558Z</time></trkpt><trkpt lat="44.0438883" lon="12.5606833"><ele>12.0</ele><time>2026-03-22T07:59:03.558Z</time></trkpt><trkpt lat="44.0439233" lon="12.5605117"><ele>12.0</ele><time>2026-03-22T07:59:04.559Z</time></trkpt><trkpt lat="44.04396" lon="12.5603733"><ele>12.0</ele><time>2026-03-22T07:59:05.558Z</time></trkpt><trkpt lat="44.0439917" lon="12.5602567"><ele>12.0</ele><time>2026-03-22T07:59:06.559Z</time></trkpt><trkpt lat="44.0440283" lon="12.5601583"><ele>12.0</ele><time>2026-03-22T07:59:08.559Z</time></trkpt><trkpt lat="44.0440683" lon="12.5600883"><ele>12.0</ele><time>2026-03-22T07:59:11.558Z</time></trkpt><trkpt lat="44.04412" lon="12.5600383"><ele>12.0</ele><time>2026-03-22T07:59:12.559Z</time></trkpt><trkpt lat="44.04419" lon="12.5599667"><ele>12.0</ele><time>2026-03-22T07:59:13.559Z</time></trkpt><trkpt lat="44.04425" lon="12.55986"><ele>12.25</ele><time>2026-03-22T07:59:14.558Z</time></trkpt><trkpt lat="44.0442833" lon="12.55972"><ele>12.5</ele><time>2026-03-22T07:59:15.559Z</time></trkpt><trkpt lat="44.0442833" lon="12.55954"><ele>12.75</ele><time>2026-03-22T07:59:16.558Z</time></trkpt><trkpt lat="44.04429" lon="12.5593333"><ele>13.0</ele><time>2026-03-22T07:59:17.559Z</time></trkpt><trkpt lat="44.04432" lon="12.5591033"><ele>12.333333333333332</ele><time>2026-03-22T07:59:18.559Z</time></trkpt><trkpt lat="44.0443717" lon="12.5588317"><ele>11.666666666666666</ele><time>2026-03-22T07:59:19.559Z</time></trkpt><trkpt lat="44.0444483" lon="12.5585283"><ele>11.0</ele><time>2026-03-22T07:59:20.559Z</time></trkpt><trkpt lat="44.04454" lon="12.5582"><ele>11.0</ele><time>2026-03-22T07:59:21.559Z</time></trkpt><trkpt lat="44.0446317" lon="12.5578733"><ele>11.0</ele><time>2026-03-22T07:59:22.558Z</time></trkpt><trkpt lat="44.04472" lon="12.5575483"><ele>11.0</ele><time>2026-03-22T07:59:23.559Z</time></trkpt><trkpt lat="44.0448033" lon="12.5572267"><ele>11.0</ele><time>2026-03-22T07:59:24.558Z</time></trkpt><trkpt lat="44.0448817" lon="12.55692"><ele>10.666666666666666</ele><time>2026-03-22T07:59:25.559Z</time></trkpt><trkpt lat="44.0449567" lon="12.556635"><ele>10.333333333333334</ele><time>2026-03-22T07:59:26.559Z</time></trkpt><trkpt lat="44.04503" lon="12.5563617"><ele>10.0</ele><time>2026-03-22T07:59:27.558Z</time></trkpt><trkpt lat="44.0451033" lon="12.5560883"><ele>10.0</ele><time>2026-03-22T07:59:28.559Z</time></trkpt><trkpt lat="44.04518" lon="12.5558083"><ele>10.0</ele><time>2026-03-22T07:59:29.559Z</time></trkpt><trkpt lat="44.045255" lon="12.555535"><ele>10.0</ele><time>2026-03-22T07:59:30.558Z</time></trkpt><trkpt lat="44.045325" lon="12.5552833"><ele>10.333333333333334</ele><time>2026-03-22T07:59:31.559Z</time></trkpt><trkpt lat="44.04539" lon="12.5550467"><ele>10.666666666666666</ele><time>2026-03-22T07:59:32.559Z</time></trkpt><trkpt lat="44.045455" lon="12.5548267"><ele>11.0</ele><time>2026-03-22T07:59:33.558Z</time></trkpt><trkpt lat="44.0455167" lon="12.5546033"><ele>11.5</ele><time>2026-03-22T07:59:34.558Z</time></trkpt><trkpt lat="44.0455783" lon="12.5543983"><ele>12.0</ele><time>2026-03-22T07:59:35.559Z</time></trkpt><trkpt lat="44.0456417" lon="12.5542083"><ele>12.5</ele><time>2026-03-22T07:59:36.559Z</time></trkpt><trkpt lat="44.0457033" lon="12.5540417"><ele>13.0</ele><time>2026-03-22T07:59:37.559Z</time></trkpt><trkpt lat="44.0457667" lon="12.553885"><ele>12.0</ele><time>2026-03-22T07:59:38.559Z</time></trkpt><trkpt lat="44.045825" lon="12.55373"><ele>11.0</ele><time>2026-03-22T07:59:39.559Z</time></trkpt><trkpt lat="44.0458833" lon="12.5535867"><ele>10.0</ele><time>2026-03-22T07:59:40.558Z</time></trkpt><trkpt lat="44.0459433" lon="12.5534533"><ele>9.0</ele><time>2026-03-22T07:59:41.559Z</time></trkpt><trkpt lat="44.0460067" lon="12.5533383"><ele>9.0</ele><time>2026-03-22T07:59:42.559Z</time></trkpt><trkpt lat="44.04608" lon="12.5532467"><ele>9.0</ele><time>2026-03-22T07:59:43.559Z</time></trkpt><trkpt lat="44.0461683" lon="12.553185"><ele>9.0</ele><time>2026-03-22T07:59:44.559Z</time></trkpt><trkpt lat="44.0462517" lon="12.553135"><ele>9.0</ele><time>2026-03-22T07:59:45.559Z</time></trkpt><trkpt lat="44.04633" lon="12.5530617"><ele>9.0</ele><time>2026-03-22T07:59:46.559Z</time></trkpt><trkpt lat="44.046375" lon="12.5529533"><ele>9.6</ele><time>2026-03-22T07:59:47.559Z</time></trkpt><trkpt lat="44.0463867" lon="12.55284"><ele>10.2</ele><time>2026-03-22T07:59:48.559Z</time></trkpt><trkpt lat="44.0463617" lon="12.552725"><ele>10.799999999999999</ele><time>2026-03-22T07:59:49.559Z</time></trkpt><trkpt lat="44.0463033" lon="12.552635"><ele>11.4</ele><time>2026-03-22T07:59:50.558Z</time></trkpt><trkpt lat="44.046215" lon="12.5525833"><ele>12.0</ele><time>2026-03-22T07:59:51.558Z</time></trkpt><trkpt lat="44.0461133" lon="12.5525517"><ele>12.0</ele><time>2026-03-22T07:59:52.558Z</time></trkpt><trkpt lat="44.046005" lon="12.55251"><ele>12.0</ele><time>2026-03-22T07:59:53.558Z</time></trkpt><trkpt lat="44.0459033" lon="12.5524167"><ele>12.0</ele><time>2026-03-22T07:59:54.559Z</time></trkpt><trkpt lat="44.0457983" lon="12.5522867"><ele>12.0</ele><time>2026-03-22T07:59:55.559Z</time></trkpt><trkpt lat="44.045675" lon="12.5521467"><ele>13.666666666666668</ele><time>2026-03-22T07:59:56.559Z</time></trkpt><trkpt lat="44.045545" lon="12.5519817"><ele>15.333333333333334</ele><time>2026-03-22T07:59:57.559Z</time></trkpt><trkpt lat="44.0453983" lon="12.5518367"><ele>17.0</ele><time>2026-03-22T07:59:58.559Z</time></trkpt><trkpt lat="44.0452733" lon="12.5517183"><ele>17.0</ele><time>2026-03-22T07:59:59.558Z</time></trkpt><trkpt lat="44.0451733" lon="12.5515967"><ele>17.0</ele><time>2026-03-22T08:00:00.558Z</time></trkpt><trkpt lat="44.045085" lon="12.551505"><ele>17.0</ele><time>2026-03-22T08:00:01.559Z</time></trkpt><trkpt lat="44.0450083" lon="12.5514167"><ele>17.0</ele><time>2026-03-22T08:00:02.559Z</time></trkpt><trkpt lat="44.04496" lon="12.55131"><ele>17.0</ele><time>2026-03-22T08:00:03.558Z</time></trkpt><trkpt lat="44.0449483" lon="12.5511883"><ele>18.2</ele><time>2026-03-22T08:00:04.559Z</time></trkpt><trkpt lat="44.0449633" lon="12.5510617"><ele>19.4</ele><time>2026-03-22T08:00:05.559Z</time></trkpt><trkpt lat="44.0449883" lon="12.5509317"><ele>20.599999999999998</ele><time>2026-03-22T08:00:06.558Z</time></trkpt><trkpt lat="44.0449833" lon="12.5508"><ele>21.799999999999997</ele><time>2026-03-22T08:00:07.558Z</time></trkpt><trkpt lat="44.0449317" lon="12.5506617"><ele>23.0</ele><time>2026-03-22T08:00:08.559Z</time></trkpt><trkpt lat="44.0448733" lon="12.5505"><ele>22.0</ele><time>2026-03-22T08:00:09.558Z</time></trkpt><trkpt lat="44.0448083" lon="12.5503233"><ele>21.0</ele><time>2026-03-22T08:00:10.559Z</time></trkpt><trkpt lat="44.04472" lon="12.5501517"><ele>20.0</ele><time>2026-03-22T08:00:11.559Z</time></trkpt><trkpt lat="44.0445917" lon="12.549995"><ele>20.0</ele><time>2026-03-22T08:00:12.559Z</time></trkpt><trkpt lat="44.04444" lon="12.5498417"><ele>20.0</ele><time>2026-03-22T08:00:13.559Z</time></trkpt><trkpt lat="44.0443117" lon="12.5496533"><ele>20.0</ele><time>2026-03-22T08:00:14.559Z</time></trkpt><trkpt lat="44.0441933" lon="12.5494317"><ele>19.333333333333336</ele><time>2026-03-22T08:00:15.558Z</time></trkpt><trkpt lat="44.0440867" lon="12.5491867"><ele>18.666666666666668</ele><time>2026-03-22T08:00:16.558Z</time></trkpt><trkpt lat="44.0439883" lon="12.548925"><ele>18.0</ele><time>2026-03-22T08:00:17.559Z</time></trkpt><trkpt lat="44.0439117" lon="12.54866"><ele>18.0</ele><time>2026-03-22T08:00:18.559Z</time></trkpt><trkpt lat="44.0438567" lon="12.5483783"><ele>18.0</ele><time>2026-03-22T08:00:19.559Z</time></trkpt><trkpt lat="44.04383" lon="12.5480783"><ele>18.0</ele><time>2026-03-22T08:00:20.559Z</time></trkpt><trkpt lat="44.043805" lon="12.54777"><ele>18.5</ele><time>2026-03-22T08:00:21.558Z</time></trkpt><trkpt lat="44.0437733" lon="12.5474517"><ele>19.0</ele><time>2026-03-22T08:00:22.559Z</time></trkpt><trkpt lat="44.0437283" lon="12.5471517"><ele>19.666666666666664</ele><time>2026-03-22T08:00:23.559Z</time></trkpt><trkpt lat="44.043675" lon="12.54688"><ele>20.333333333333332</ele><time>2026-03-22T08:00:24.559Z</time></trkpt><trkpt lat="44.0436217" lon="12.5466333"><ele>21.0</ele><time>2026-03-22T08:00:25.559Z</time></trkpt><trkpt lat="44.04355" lon="12.5464083"><ele>21.0</ele><time>2026-03-22T08:00:26.559Z</time></trkpt><trkpt lat="44.04345" lon="12.5462133"><ele>21.0</ele><time>2026-03-22T08:00:27.559Z</time></trkpt><trkpt lat="44.0433483" lon="12.546035"><ele>21.0</ele><time>2026-03-22T08:00:28.558Z</time></trkpt><trkpt lat="44.043255" lon="12.5458567"><ele>19.666666666666668</ele><time>2026-03-22T08:00:29.559Z</time></trkpt><trkpt lat="44.0432" lon="12.5456667"><ele>18.333333333333336</ele><time>2026-03-22T08:00:30.559Z</time></trkpt><trkpt lat="44.0431983" lon="12.54546"><ele>17.0</ele><time>2026-03-22T08:00:31.559Z</time></trkpt><trkpt lat="44.0432367" lon="12.5452317"><ele>15.0</ele><time>2026-03-22T08:00:32.558Z</time></trkpt><trkpt lat="44.04331" lon="12.544985"><ele>13.0</ele><time>2026-03-22T08:00:33.558Z</time></trkpt><trkpt lat="44.0434133" lon="12.5447083"><ele>11.0</ele><time>2026-03-22T08:00:34.559Z</time></trkpt><trkpt lat="44.04352" lon="12.5444083"><ele>11.0</ele><time>2026-03-22T08:00:35.559Z</time></trkpt><trkpt lat="44.04363" lon="12.5441283"><ele>11.0</ele><time>2026-03-22T08:00:36.559Z</time></trkpt><trkpt lat="44.043725" lon="12.543865"><ele>11.0</ele><time>2026-03-22T08:00:37.559Z</time></trkpt><trkpt lat="44.0438233" lon="12.5436133"><ele>10.333333333333332</ele><time>2026-03-22T08:00:38.559Z</time></trkpt><trkpt lat="44.0439317" lon="12.54338"><ele>9.666666666666666</ele><time>2026-03-22T08:00:39.558Z</time></trkpt><trkpt lat="44.0440483" lon="12.5431617"><ele>9.0</ele><time>2026-03-22T08:00:40.559Z</time></trkpt><trkpt lat="44.04416" lon="12.54296"><ele>9.666666666666666</ele><time>2026-03-22T08:00:41.558Z</time></trkpt><trkpt lat="44.0442517" lon="12.5427617"><ele>10.333333333333332</ele><time>2026-03-22T08:00:42.559Z</time></trkpt><trkpt lat="44.04432" lon="12.54256"><ele>11.0</ele><time>2026-03-22T08:00:43.558Z</time></trkpt><trkpt lat="44.04436" lon="12.5423517"><ele>11.0</ele><time>2026-03-22T08:00:44.559Z</time></trkpt><trkpt lat="44.0443733" lon="12.5421417"><ele>11.0</ele><time>2026-03-22T08:00:45.559Z</time></trkpt><trkpt lat="44.0443567" lon="12.54194"><ele>11.0</ele><time>2026-03-22T08:00:46.559Z</time></trkpt><trkpt lat="44.0443417" lon="12.54174"><ele>11.0</ele><time>2026-03-22T08:00:47.559Z</time></trkpt><trkpt lat="44.0443217" lon="12.541545"><ele>11.0</ele><time>2026-03-22T08:00:48.558Z</time></trkpt><trkpt lat="44.044295" lon="12.54134"><ele>11.0</ele><time>2026-03-22T08:00:49.559Z</time></trkpt><trkpt lat="44.0442667" lon="12.54113"><ele>11.0</ele><time>2026-03-22T08:00:50.559Z</time></trkpt><trkpt lat="44.044245" lon="12.5409333"><ele>11.0</ele><time>2026-03-22T08:00:51.559Z</time></trkpt><trkpt lat="44.0442317" lon="12.5407483"><ele>11.0</ele><time>2026-03-22T08:00:52.558Z</time></trkpt><trkpt lat="44.0442183" lon="12.5405783"><ele>11.0</ele><time>2026-03-22T08:00:53.559Z</time></trkpt><trkpt lat="44.0442067" lon="12.5404267"><ele>11.0</ele><time>2026-03-22T08:00:54.559Z</time></trkpt><trkpt lat="44.044205" lon="12.54028"><ele>11.0</ele><time>2026-03-22T08:00:55.558Z</time></trkpt><trkpt lat="44.0442033" lon="12.5401467"><ele>11.0</ele><time>2026-03-22T08:00:56.559Z</time></trkpt><trkpt lat="44.0441983" lon="12.5400233"><ele>11.0</ele><time>2026-03-22T08:00:57.558Z</time></trkpt><trkpt lat="44.0441967" lon="12.539905"><ele>11.0</ele><time>2026-03-22T08:00:58.559Z</time></trkpt><trkpt lat="44.0442017" lon="12.5397917"><ele>11.0</ele><time>2026-03-22T08:00:59.559Z</time></trkpt><trkpt lat="44.044215" lon="12.5396783"><ele>11.0</ele><time>2026-03-22T08:01:00.559Z</time></trkpt><trkpt lat="44.0442433" lon="12.53957"><ele>11.0</ele><time>2026-03-22T08:01:01.559Z</time></trkpt><trkpt lat="44.0442833" lon="12.53947"><ele>11.0</ele><time>2026-03-22T08:01:02.558Z</time></trkpt><trkpt lat="44.044335" lon="12.53938"><ele>12.5</ele><time>2026-03-22T08:01:03.559Z</time></trkpt><trkpt lat="44.0443967" lon="12.5392967"><ele>14.0</ele><time>2026-03-22T08:01:04.559Z</time></trkpt><trkpt lat="44.0444567" lon="12.5392217"><ele>15.5</ele><time>2026-03-22T08:01:05.558Z</time></trkpt><trkpt lat="44.0445167" lon="12.53915"><ele>17.0</ele><time>2026-03-22T08:01:06.558Z</time></trkpt><trkpt lat="44.0445817" lon="12.539085"><ele>18.5</ele><time>2026-03-22T08:01:07.559Z</time></trkpt><trkpt lat="44.0446267" lon="12.5390167"><ele>20.0</ele><time>2026-03-22T08:01:08.558Z</time></trkpt><trkpt lat="44.04466" lon="12.5389333"><ele>20.0</ele><time>2026-03-22T08:01:09.559Z</time></trkpt><trkpt lat="44.0446767" lon="12.53883"><ele>20.0</ele><time>2026-03-22T08:01:10.558Z</time></trkpt><trkpt lat="44.04466" lon="12.53871"><ele>20.0</ele><time>2026-03-22T08:01:11.558Z</time></trkpt><trkpt lat="44.0446183" lon="12.5385883"><ele>20.0</ele><time>2026-03-22T08:01:12.559Z</time></trkpt><trkpt lat="44.0445583" lon="12.538485"><ele>20.0</ele><time>2026-03-22T08:01:13.559Z</time></trkpt><trkpt lat="44.0444983" lon="12.538395"><ele>20.0</ele><time>2026-03-22T08:01:14.558Z</time></trkpt><trkpt lat="44.04444" lon="12.5383033"><ele>20.8</ele><time>2026-03-22T08:01:15.558Z</time></trkpt><trkpt lat="44.04438" lon="12.538205"><ele>21.6</ele><time>2026-03-22T08:01:16.559Z</time></trkpt><trkpt lat="44.0443217" lon="12.5380967"><ele>22.4</ele><time>2026-03-22T08:01:17.56Z</time></trkpt><trkpt lat="44.0442717" lon="12.5379617"><ele>23.2</ele><time>2026-03-22T08:01:18.56Z</time></trkpt><trkpt lat="44.04423" lon="12.5378167"><ele>24.0</ele><time>2026-03-22T08:01:19.56Z</time></trkpt><trkpt lat="44.0442017" lon="12.5376783"><ele>24.0</ele><time>2026-03-22T08:01:20.559Z</time></trkpt><trkpt lat="44.0441917" lon="12.537555"><ele>24.0</ele><time>2026-03-22T08:01:21.559Z</time></trkpt><trkpt lat="44.0441833" lon="12.5374383"><ele>24.0</ele><time>2026-03-22T08:01:22.56Z</time></trkpt><trkpt lat="44.0441633" lon="12.5373283"><ele>24.0</ele><time>2026-03-22T08:01:23.559Z</time></trkpt><trkpt lat="44.044125" lon="12.5372383"><ele>24.0</ele><time>2026-03-22T08:01:24.56Z</time></trkpt><trkpt lat="44.0440667" lon="12.5371783"><ele>24.0</ele><time>2026-03-22T08:01:25.559Z</time></trkpt><trkpt lat="44.0439917" lon="12.5371433"><ele>24.0</ele><time>2026-03-22T08:01:26.56Z</time></trkpt><trkpt lat="44.0439033" lon="12.537135"><ele>24.0</ele><time>2026-03-22T08:01:27.559Z</time></trkpt><trkpt lat="44.0438167" lon="12.53713"><ele>24.0</ele><time>2026-03-22T08:01:28.56Z</time></trkpt><trkpt lat="44.04374" lon="12.5371233"><ele>24.0</ele><time>2026-03-22T08:01:29.56Z</time></trkpt><trkpt lat="44.043665" lon="12.5370983"><ele>24.0</ele><time>2026-03-22T08:01:30.56Z</time></trkpt><trkpt lat="44.0435833" lon="12.5370633"><ele>24.0</ele><time>2026-03-22T08:01:31.559Z</time></trkpt><trkpt lat="44.0434783" lon="12.5370283"><ele>20.666666666666668</ele><time>2026-03-22T08:01:32.56Z</time></trkpt><trkpt lat="44.0433517" lon="12.5369333"><ele>17.333333333333336</ele><time>2026-03-22T08:01:33.559Z</time></trkpt><trkpt lat="44.0432283" lon="12.5368233"><ele>14.0</ele><time>2026-03-22T08:01:34.559Z</time></trkpt><trkpt lat="44.0430883" lon="12.536705"><ele>13.666666666666668</ele><time>2026-03-22T08:01:35.56Z</time></trkpt><trkpt lat="44.042945" lon="12.536565"><ele>13.333333333333332</ele><time>2026-03-22T08:01:36.56Z</time></trkpt><trkpt lat="44.0427983" lon="12.5364133"><ele>13.0</ele><time>2026-03-22T08:01:37.56Z</time></trkpt><trkpt lat="44.042655" lon="12.536235"><ele>13.0</ele><time>2026-03-22T08:01:38.559Z</time></trkpt><trkpt lat="44.0425233" lon="12.53607"><ele>13.0</ele><time>2026-03-22T08:01:39.56Z</time></trkpt><trkpt lat="44.0423967" lon="12.5359233"><ele>13.0</ele><time>2026-03-22T08:01:40.56Z</time></trkpt><trkpt lat="44.0422717" lon="12.535795"><ele>13.0</ele><time>2026-03-22T08:01:41.56Z</time></trkpt><trkpt lat="44.042155" lon="12.53566"><ele>13.0</ele><time>2026-03-22T08:01:42.56Z</time></trkpt><trkpt lat="44.0420417" lon="12.535515"><ele>13.0</ele><time>2026-03-22T08:01:43.56Z</time></trkpt><trkpt lat="44.04193" lon="12.5353617"><ele>13.333333333333332</ele><time>2026-03-22T08:01:44.559Z</time></trkpt><trkpt lat="44.0418183" lon="12.5351967"><ele>13.666666666666668</ele><time>2026-03-22T08:01:45.559Z</time></trkpt><trkpt lat="44.04171" lon="12.5350233"><ele>14.0</ele><time>2026-03-22T08:01:46.56Z</time></trkpt><trkpt lat="44.04161" lon="12.5348467"><ele>14.5</ele><time>2026-03-22T08:01:47.559Z</time></trkpt><trkpt lat="44.04152" lon="12.5346733"><ele>15.0</ele><time>2026-03-22T08:01:48.56Z</time></trkpt><trkpt lat="44.0414583" lon="12.534495"><ele>15.5</ele><time>2026-03-22T08:01:49.56Z</time></trkpt><trkpt lat="44.0414333" lon="12.53431"><ele>16.0</ele><time>2026-03-22T08:01:50.56Z</time></trkpt><trkpt lat="44.0414433" lon="12.5341167"><ele>17.0</ele><time>2026-03-22T08:01:51.56Z</time></trkpt><trkpt lat="44.0414833" lon="12.5339117"><ele>18.0</ele><time>2026-03-22T08:01:52.559Z</time></trkpt><trkpt lat="44.041555" lon="12.53368"><ele>19.0</ele><time>2026-03-22T08:01:53.56Z</time></trkpt><trkpt lat="44.0416433" lon="12.5334167"><ele>17.5</ele><time>2026-03-22T08:01:54.56Z</time></trkpt><trkpt lat="44.04174" lon="12.53314"><ele>16.0</ele><time>2026-03-22T08:01:55.56Z</time></trkpt><trkpt lat="44.0418367" lon="12.5328433"><ele>16.0</ele><time>2026-03-22T08:01:56.559Z</time></trkpt><trkpt lat="44.04194" lon="12.5325483"><ele>16.0</ele><time>2026-03-22T08:01:57.559Z</time></trkpt><trkpt lat="44.0420417" lon="12.53225"><ele>17.0</ele><time>2026-03-22T08:01:58.56Z</time></trkpt><trkpt lat="44.042145" lon="12.531945"><ele>18.0</ele><time>2026-03-22T08:01:59.559Z</time></trkpt><trkpt lat="44.0422467" lon="12.5316517"><ele>18.0</ele><time>2026-03-22T08:02:00.559Z</time></trkpt><trkpt lat="44.0423417" lon="12.5313833"><ele>18.0</ele><time>2026-03-22T08:02:01.56Z</time></trkpt><trkpt lat="44.0424233" lon="12.531145"><ele>18.0</ele><time>2026-03-22T08:02:02.56Z</time></trkpt><trkpt lat="44.0424983" lon="12.530945"><ele>18.0</ele><time>2026-03-22T08:02:03.56Z</time></trkpt><trkpt lat="44.0425583" lon="12.530785"><ele>18.0</ele><time>2026-03-22T08:02:04.56Z</time></trkpt><trkpt lat="44.0426067" lon="12.5306533"><ele>18.0</ele><time>2026-03-22T08:02:05.56Z</time></trkpt><trkpt lat="44.042645" lon="12.5305317"><ele>18.0</ele><time>2026-03-22T08:02:06.56Z</time></trkpt><trkpt lat="44.0426783" lon="12.530425"><ele>18.0</ele><time>2026-03-22T08:02:07.56Z</time></trkpt><trkpt lat="44.04271" lon="12.5303367"><ele>18.6</ele><time>2026-03-22T08:02:08.56Z</time></trkpt><trkpt lat="44.0427583" lon="12.53019"><ele>19.200000000000003</ele><time>2026-03-22T08:02:10.559Z</time></trkpt><trkpt lat="44.0427817" lon="12.5300733"><ele>19.8</ele><time>2026-03-22T08:02:12.559Z</time></trkpt><trkpt lat="44.0427983" lon="12.5299867"><ele>20.400000000000002</ele><time>2026-03-22T08:02:14.56Z</time></trkpt><trkpt lat="44.0428183" lon="12.5298967"><ele>21.0</ele><time>2026-03-22T08:02:55.56Z</time></trkpt><trkpt lat="44.042835" lon="12.5297"><ele>20.5</ele><time>2026-03-22T08:02:57.56Z</time></trkpt><trkpt lat="44.04281" lon="12.5295533"><ele>20.0</ele><time>2026-03-22T08:02:58.56Z</time></trkpt><trkpt lat="44.0427617" lon="12.5293967"><ele>19.5</ele><time>2026-03-22T08:02:59.559Z</time></trkpt><trkpt lat="44.0426867" lon="12.5292317"><ele>19.0</ele><time>2026-03-22T08:03:00.56Z</time></trkpt><trkpt lat="44.0425867" lon="12.5290533"><ele>19.0</ele><time>2026-03-22T08:03:01.56Z</time></trkpt><trkpt lat="44.042475" lon="12.5288433"><ele>19.0</ele><time>2026-03-22T08:03:02.559Z</time></trkpt><trkpt lat="44.042345" lon="12.52863"><ele>19.0</ele><time>2026-03-22T08:03:03.559Z</time></trkpt><trkpt lat="44.0422167" lon="12.528415"><ele>19.333333333333332</ele><time>2026-03-22T08:03:04.559Z</time></trkpt><trkpt lat="44.0420933" lon="12.5281967"><ele>19.666666666666668</ele><time>2026-03-22T08:03:05.559Z</time></trkpt><trkpt lat="44.041975" lon="12.5279767"><ele>20.0</ele><time>2026-03-22T08:03:06.56Z</time></trkpt><trkpt lat="44.0418733" lon="12.5277467"><ele>18.333333333333336</ele><time>2026-03-22T08:03:07.559Z</time></trkpt><trkpt lat="44.041785" lon="12.5274967"><ele>16.666666666666668</ele><time>2026-03-22T08:03:08.559Z</time></trkpt><trkpt lat="44.04171" lon="12.527215"><ele>15.0</ele><time>2026-03-22T08:03:09.56Z</time></trkpt><trkpt lat="44.0416417" lon="12.5269333"><ele>17.0</ele><time>2026-03-22T08:03:10.559Z</time></trkpt><trkpt lat="44.0415833" lon="12.5266583"><ele>19.0</ele><time>2026-03-22T08:03:11.559Z</time></trkpt><trkpt lat="44.0415333" lon="12.526395"><ele>21.0</ele><time>2026-03-22T08:03:12.559Z</time></trkpt><trkpt lat="44.0414967" lon="12.5261417"><ele>21.0</ele><time>2026-03-22T08:03:13.559Z</time></trkpt><trkpt lat="44.0414667" lon="12.5259033"><ele>21.0</ele><time>2026-03-22T08:03:14.559Z</time></trkpt><trkpt lat="44.041445" lon="12.5256767"><ele>21.0</ele><time>2026-03-22T08:03:15.559Z</time></trkpt><trkpt lat="44.04144" lon="12.5254483"><ele>20.0</ele><time>2026-03-22T08:03:16.56Z</time></trkpt><trkpt lat="44.0414667" lon="12.52523"><ele>19.0</ele><time>2026-03-22T08:03:17.56Z</time></trkpt><trkpt lat="44.0415283" lon="12.525"><ele>18.0</ele><time>2026-03-22T08:03:18.56Z</time></trkpt><trkpt lat="44.04161" lon="12.5247633"><ele>17.666666666666668</ele><time>2026-03-22T08:03:19.559Z</time></trkpt><trkpt lat="44.0417067" lon="12.52454"><ele>17.333333333333336</ele><time>2026-03-22T08:03:20.56Z</time></trkpt><trkpt lat="44.0417983" lon="12.524325"><ele>17.0</ele><time>2026-03-22T08:03:21.559Z</time></trkpt><trkpt lat="44.0418783" lon="12.5241"><ele>17.0</ele><time>2026-03-22T08:03:22.559Z</time></trkpt><trkpt lat="44.0419483" lon="12.52388"><ele>17.0</ele><time>2026-03-22T08:03:23.56Z</time></trkpt><trkpt lat="44.0419867" lon="12.5236383"><ele>17.0</ele><time>2026-03-22T08:03:24.559Z</time></trkpt><trkpt lat="44.042005" lon="12.5234067"><ele>15.666666666666668</ele><time>2026-03-22T08:03:25.559Z</time></trkpt><trkpt lat="44.0420017" lon="12.52319"><ele>14.333333333333332</ele><time>2026-03-22T08:03:26.56Z</time></trkpt><trkpt lat="44.0419683" lon="12.5229717"><ele>13.0</ele><time>2026-03-22T08:03:27.56Z</time></trkpt><trkpt lat="44.041895" lon="12.5227533"><ele>13.0</ele><time>2026-03-22T08:03:28.559Z</time></trkpt><trkpt lat="44.04178" lon="12.522525"><ele>13.0</ele><time>2026-03-22T08:03:29.559Z</time></trkpt><trkpt lat="44.0416383" lon="12.5222717"><ele>13.0</ele><time>2026-03-22T08:03:30.559Z</time></trkpt><trkpt lat="44.0414883" lon="12.5220083"><ele>13.5</ele><time>2026-03-22T08:03:31.56Z</time></trkpt><trkpt lat="44.0413383" lon="12.521735"><ele>14.0</ele><time>2026-03-22T08:03:32.56Z</time></trkpt><trkpt lat="44.0411917" lon="12.521465"><ele>13.5</ele><time>2026-03-22T08:03:33.56Z</time></trkpt><trkpt lat="44.0410533" lon="12.5212083"><ele>13.0</ele><time>2026-03-22T08:03:34.56Z</time></trkpt><trkpt lat="44.0409183" lon="12.520955"><ele>12.5</ele><time>2026-03-22T08:03:35.56Z</time></trkpt><trkpt lat="44.0407833" lon="12.5206983"><ele>12.0</ele><time>2026-03-22T08:03:36.559Z</time></trkpt><trkpt lat="44.0406567" lon="12.52043"><ele>12.0</ele><time>2026-03-22T08:03:37.56Z</time></trkpt><trkpt lat="44.0405267" lon="12.52017"><ele>12.0</ele><time>2026-03-22T08:03:38.56Z</time></trkpt><trkpt lat="44.0404083" lon="12.5199067"><ele>12.0</ele><time>2026-03-22T08:03:39.559Z</time></trkpt><trkpt lat="44.0402867" lon="12.519655"><ele>12.0</ele><time>2026-03-22T08:03:40.56Z</time></trkpt><trkpt lat="44.0401583" lon="12.519415"><ele>12.0</ele><time>2026-03-22T08:03:41.56Z</time></trkpt><trkpt lat="44.04002" lon="12.51918"><ele>12.333333333333332</ele><time>2026-03-22T08:03:42.56Z</time></trkpt><trkpt lat="44.0398733" lon="12.5189467"><ele>12.666666666666666</ele><time>2026-03-22T08:03:43.559Z</time></trkpt><trkpt lat="44.039715" lon="12.5187283"><ele>13.0</ele><time>2026-03-22T08:03:44.559Z</time></trkpt><trkpt lat="44.0395467" lon="12.5185167"><ele>13.0</ele><time>2026-03-22T08:03:45.56Z</time></trkpt><trkpt lat="44.0393733" lon="12.5183133"><ele>13.0</ele><time>2026-03-22T08:03:46.559Z</time></trkpt><trkpt lat="44.0391983" lon="12.51812"><ele>13.333333333333332</ele><time>2026-03-22T08:03:47.56Z</time></trkpt><trkpt lat="44.0390367" lon="12.517945"><ele>13.666666666666668</ele><time>2026-03-22T08:03:48.56Z</time></trkpt><trkpt lat="44.03887" lon="12.5177867"><ele>14.0</ele><time>2026-03-22T08:03:49.56Z</time></trkpt><trkpt lat="44.038705" lon="12.5176283"><ele>14.333333333333334</ele><time>2026-03-22T08:03:50.559Z</time></trkpt><trkpt lat="44.0385567" lon="12.5174633"><ele>14.666666666666668</ele><time>2026-03-22T08:03:51.56Z</time></trkpt><trkpt lat="44.0384217" lon="12.5172983"><ele>15.0</ele><time>2026-03-22T08:03:52.559Z</time></trkpt><trkpt lat="44.0383" lon="12.51713"><ele>16.666666666666668</ele><time>2026-03-22T08:03:53.56Z</time></trkpt><trkpt lat="44.0381817" lon="12.5169383"><ele>18.333333333333336</ele><time>2026-03-22T08:03:54.56Z</time></trkpt><trkpt lat="44.0380767" lon="12.5167083"><ele>20.0</ele><time>2026-03-22T08:03:55.559Z</time></trkpt><trkpt lat="44.0379683" lon="12.5164383"><ele>21.0</ele><time>2026-03-22T08:03:56.559Z</time></trkpt><trkpt lat="44.03786" lon="12.5161583"><ele>22.0</ele><time>2026-03-22T08:03:57.559Z</time></trkpt><trkpt lat="44.037755" lon="12.5158783"><ele>22.0</ele><time>2026-03-22T08:03:58.559Z</time></trkpt><trkpt lat="44.037665" lon="12.5156167"><ele>22.0</ele><time>2026-03-22T08:03:59.56Z</time></trkpt><trkpt lat="44.0375817" lon="12.51538"><ele>22.0</ele><time>2026-03-22T08:04:00.56Z</time></trkpt><trkpt lat="44.0375133" lon="12.5151867"><ele>24.200000000000003</ele><time>2026-03-22T08:04:01.559Z</time></trkpt><trkpt lat="44.0374583" lon="12.51503"><ele>26.4</ele><time>2026-03-22T08:04:02.56Z</time></trkpt><trkpt lat="44.0374033" lon="12.5149083"><ele>28.599999999999998</ele><time>2026-03-22T08:04:03.56Z</time></trkpt><trkpt lat="44.037325" lon="12.5148383"><ele>30.799999999999997</ele><time>2026-03-22T08:04:04.56Z</time></trkpt><trkpt lat="44.0372267" lon="12.5148233"><ele>33.0</ele><time>2026-03-22T08:04:05.56Z</time></trkpt><trkpt lat="44.0371367" lon="12.5148717"><ele>33.0</ele><time>2026-03-22T08:04:06.56Z</time></trkpt><trkpt lat="44.037075" lon="12.5149617"><ele>33.0</ele><time>2026-03-22T08:04:07.56Z</time></trkpt><trkpt lat="44.0370317" lon="12.515095"><ele>33.0</ele><time>2026-03-22T08:04:08.56Z</time></trkpt><trkpt lat="44.0369867" lon="12.5152233"><ele>33.0</ele><time>2026-03-22T08:04:09.56Z</time></trkpt><trkpt lat="44.0369317" lon="12.5153217"><ele>33.0</ele><time>2026-03-22T08:04:10.56Z</time></trkpt><trkpt lat="44.0368533" lon="12.5153883"><ele>32.4</ele><time>2026-03-22T08:04:11.559Z</time></trkpt><trkpt lat="44.0367583" lon="12.515425"><ele>31.799999999999997</ele><time>2026-03-22T08:04:12.56Z</time></trkpt><trkpt lat="44.0366683" lon="12.515415"><ele>31.2</ele><time>2026-03-22T08:04:13.56Z</time></trkpt><trkpt lat="44.036575" lon="12.5153783"><ele>30.6</ele><time>2026-03-22T08:04:14.559Z</time></trkpt><trkpt lat="44.0364717" lon="12.5153333"><ele>30.0</ele><time>2026-03-22T08:04:15.56Z</time></trkpt><trkpt lat="44.0363633" lon="12.5152817"><ele>33.0</ele><time>2026-03-22T08:04:16.559Z</time></trkpt><trkpt lat="44.0362267" lon="12.51523"><ele>36.0</ele><time>2026-03-22T08:04:17.56Z</time></trkpt><trkpt lat="44.0360783" lon="12.51515"><ele>39.0</ele><time>2026-03-22T08:04:18.56Z</time></trkpt><trkpt lat="44.0359233" lon="12.5150617"><ele>40.666666666666664</ele><time>2026-03-22T08:04:19.559Z</time></trkpt><trkpt lat="44.0357633" lon="12.5149883"><ele>42.33333333333333</ele><time>2026-03-22T08:04:20.559Z</time></trkpt><trkpt lat="44.0356017" lon="12.5149317"><ele>44.0</ele><time>2026-03-22T08:04:21.559Z</time></trkpt><trkpt lat="44.0354133" lon="12.5149067"><ele>44.0</ele><time>2026-03-22T08:04:22.56Z</time></trkpt><trkpt lat="44.035225" lon="12.51491"><ele>44.0</ele><time>2026-03-22T08:04:23.559Z</time></trkpt><trkpt lat="44.0350617" lon="12.5149333"><ele>44.0</ele><time>2026-03-22T08:04:24.56Z</time></trkpt><trkpt lat="44.0349167" lon="12.5149417"><ele>45.75</ele><time>2026-03-22T08:04:25.56Z</time></trkpt><trkpt lat="44.0347917" lon="12.5149217"><ele>47.5</ele><time>2026-03-22T08:04:26.559Z</time></trkpt><trkpt lat="44.0346833" lon="12.5148633"><ele>49.25</ele><time>2026-03-22T08:04:27.559Z</time></trkpt><trkpt lat="44.0345833" lon="12.5147733"><ele>51.0</ele><time>2026-03-22T08:04:28.56Z</time></trkpt><trkpt lat="44.0344833" lon="12.514665"><ele>50.599999999999994</ele><time>2026-03-22T08:04:29.56Z</time></trkpt><trkpt lat="44.03439" lon="12.5145583"><ele>50.2</ele><time>2026-03-22T08:04:30.56Z</time></trkpt><trkpt lat="44.0343067" lon="12.51446"><ele>49.8</ele><time>2026-03-22T08:04:31.56Z</time></trkpt><trkpt lat="44.034225" lon="12.514365"><ele>49.400000000000006</ele><time>2026-03-22T08:04:32.559Z</time></trkpt><trkpt lat="44.03414" lon="12.5142717"><ele>49.0</ele><time>2026-03-22T08:04:33.559Z</time></trkpt><trkpt lat="44.0340567" lon="12.5141917"><ele>49.666666666666664</ele><time>2026-03-22T08:04:34.56Z</time></trkpt><trkpt lat="44.0339833" lon="12.5141333"><ele>50.33333333333333</ele><time>2026-03-22T08:04:35.559Z</time></trkpt><trkpt lat="44.0339117" lon="12.51409"><ele>51.0</ele><time>2026-03-22T08:04:36.56Z</time></trkpt><trkpt lat="44.0338333" lon="12.51407"><ele>51.66666666666667</ele><time>2026-03-22T08:04:37.559Z</time></trkpt><trkpt lat="44.03375" lon="12.5140817"><ele>52.333333333333336</ele><time>2026-03-22T08:04:38.559Z</time></trkpt><trkpt lat="44.033675" lon="12.5141583"><ele>53.0</ele><time>2026-03-22T08:04:39.56Z</time></trkpt><trkpt lat="44.0336183" lon="12.5142667"><ele>53.0</ele><time>2026-03-22T08:04:40.559Z</time></trkpt><trkpt lat="44.033565" lon="12.5143817"><ele>53.0</ele><time>2026-03-22T08:04:41.56Z</time></trkpt><trkpt lat="44.0335" lon="12.5144917"><ele>53.0</ele><time>2026-03-22T08:04:42.56Z</time></trkpt><trkpt lat="44.0334317" lon="12.5145983"><ele>53.0</ele><time>2026-03-22T08:04:43.56Z</time></trkpt><trkpt lat="44.0333583" lon="12.514705"><ele>53.0</ele><time>2026-03-22T08:04:44.56Z</time></trkpt><trkpt lat="44.0332767" lon="12.51481"><ele>52.75</ele><time>2026-03-22T08:04:45.559Z</time></trkpt><trkpt lat="44.033175" lon="12.514895"><ele>52.5</ele><time>2026-03-22T08:04:46.56Z</time></trkpt><trkpt lat="44.0330567" lon="12.5149533"><ele>52.25</ele><time>2026-03-22T08:04:47.56Z</time></trkpt><trkpt lat="44.03292" lon="12.5150017"><ele>52.0</ele><time>2026-03-22T08:04:48.561Z</time></trkpt><trkpt lat="44.0327783" lon="12.51504"><ele>52.0</ele><time>2026-03-22T08:04:49.561Z</time></trkpt><trkpt lat="44.0326233" lon="12.5150633"><ele>52.0</ele><time>2026-03-22T08:04:50.561Z</time></trkpt><trkpt lat="44.0324633" lon="12.51507"><ele>52.0</ele><time>2026-03-22T08:04:51.561Z</time></trkpt><trkpt lat="44.03232" lon="12.51505"><ele>53.666666666666664</ele><time>2026-03-22T08:04:52.561Z</time></trkpt><trkpt lat="44.0321733" lon="12.515005"><ele>55.33333333333333</ele><time>2026-03-22T08:04:53.561Z</time></trkpt><trkpt lat="44.0320167" lon="12.51492"><ele>57.0</ele><time>2026-03-22T08:04:54.561Z</time></trkpt><trkpt lat="44.0318517" lon="12.51479"><ele>57.0</ele><time>2026-03-22T08:04:55.561Z</time></trkpt><trkpt lat="44.0316767" lon="12.5146533"><ele>57.0</ele><time>2026-03-22T08:04:56.561Z</time></trkpt><trkpt lat="44.0314917" lon="12.5145017"><ele>57.0</ele><time>2026-03-22T08:04:57.56Z</time></trkpt><trkpt lat="44.0313183" lon="12.514315"><ele>61.0</ele><time>2026-03-22T08:04:58.56Z</time></trkpt><trkpt lat="44.0311533" lon="12.5140933"><ele>65.0</ele><time>2026-03-22T08:04:59.561Z</time></trkpt><trkpt lat="44.031" lon="12.5138667"><ele>64.66666666666667</ele><time>2026-03-22T08:05:00.561Z</time></trkpt><trkpt lat="44.0308633" lon="12.5136583"><ele>64.33333333333333</ele><time>2026-03-22T08:05:01.561Z</time></trkpt><trkpt lat="44.030735" lon="12.513465"><ele>64.0</ele><time>2026-03-22T08:05:02.56Z</time></trkpt><trkpt lat="44.0306167" lon="12.5132883"><ele>66.66666666666666</ele><time>2026-03-22T08:05:03.561Z</time></trkpt><trkpt lat="44.0304867" lon="12.5131383"><ele>69.33333333333333</ele><time>2026-03-22T08:05:04.56Z</time></trkpt><trkpt lat="44.0303533" lon="12.512995"><ele>72.0</ele><time>2026-03-22T08:05:05.56Z</time></trkpt><trkpt lat="44.030185" lon="12.512865"><ele>72.33333333333333</ele><time>2026-03-22T08:05:06.56Z</time></trkpt><trkpt lat="44.0299983" lon="12.5127517"><ele>72.66666666666666</ele><time>2026-03-22T08:05:07.56Z</time></trkpt><trkpt lat="44.0298233" lon="12.51263"><ele>73.0</ele><time>2026-03-22T08:05:08.561Z</time></trkpt><trkpt lat="44.029665" lon="12.5125133"><ele>74.0</ele><time>2026-03-22T08:05:09.561Z</time></trkpt><trkpt lat="44.0295183" lon="12.5124083"><ele>75.0</ele><time>2026-03-22T08:05:10.56Z</time></trkpt><trkpt lat="44.0293817" lon="12.5123167"><ele>76.0</ele><time>2026-03-22T08:05:11.561Z</time></trkpt><trkpt lat="44.0292333" lon="12.5122683"><ele>75.33333333333333</ele><time>2026-03-22T08:05:12.56Z</time></trkpt><trkpt lat="44.0290733" lon="12.5122783"><ele>74.66666666666667</ele><time>2026-03-22T08:05:13.56Z</time></trkpt><trkpt lat="44.0288933" lon="12.512345"><ele>74.0</ele><time>2026-03-22T08:05:14.561Z</time></trkpt><trkpt lat="44.0286817" lon="12.512425"><ele>74.0</ele><time>2026-03-22T08:05:15.561Z</time></trkpt><trkpt lat="44.028445" lon="12.5125183"><ele>74.0</ele><time>2026-03-22T08:05:16.561Z</time></trkpt><trkpt lat="44.0281983" lon="12.5126217"><ele>75.0</ele><time>2026-03-22T08:05:17.561Z</time></trkpt><trkpt lat="44.027945" lon="12.5127283"><ele>76.0</ele><time>2026-03-22T08:05:18.561Z</time></trkpt><trkpt lat="44.0277067" lon="12.5128083"><ele>76.0</ele><time>2026-03-22T08:05:19.561Z</time></trkpt><trkpt lat="44.027485" lon="12.5128833"><ele>76.0</ele><time>2026-03-22T08:05:20.561Z</time></trkpt><trkpt lat="44.0272733" lon="12.5129567"><ele>76.0</ele><time>2026-03-22T08:05:21.561Z</time></trkpt><trkpt lat="44.0270883" lon="12.5130267"><ele>75.5</ele><time>2026-03-22T08:05:22.561Z</time></trkpt><trkpt lat="44.0269233" lon="12.5130833"><ele>75.0</ele><time>2026-03-22T08:05:23.56Z</time></trkpt><trkpt lat="44.0267783" lon="12.513125"><ele>74.5</ele><time>2026-03-22T08:05:24.561Z</time></trkpt><trkpt lat="44.02665" lon="12.513135"><ele>74.0</ele><time>2026-03-22T08:05:25.561Z</time></trkpt><trkpt lat="44.02653" lon="12.5130817"><ele>74.0</ele><time>2026-03-22T08:05:26.56Z</time></trkpt><trkpt lat="44.0264217" lon="12.5129567"><ele>74.0</ele><time>2026-03-22T08:05:27.56Z</time></trkpt><trkpt lat="44.0263217" lon="12.5127733"><ele>74.0</ele><time>2026-03-22T08:05:28.56Z</time></trkpt><trkpt lat="44.0262067" lon="12.512555"><ele>75.33333333333334</ele><time>2026-03-22T08:05:29.561Z</time></trkpt><trkpt lat="44.0260733" lon="12.5123267"><ele>76.66666666666667</ele><time>2026-03-22T08:05:30.561Z</time></trkpt><trkpt lat="44.0259167" lon="12.5120917"><ele>78.0</ele><time>2026-03-22T08:05:31.56Z</time></trkpt><trkpt lat="44.0257517" lon="12.5118433"><ele>83.0</ele><time>2026-03-22T08:05:32.56Z</time></trkpt><trkpt lat="44.0255733" lon="12.5116"><ele>88.0</ele><time>2026-03-22T08:05:33.561Z</time></trkpt><trkpt lat="44.0254067" lon="12.5113717"><ele>87.33333333333333</ele><time>2026-03-22T08:05:34.56Z</time></trkpt><trkpt lat="44.025245" lon="12.5111733"><ele>86.66666666666667</ele><time>2026-03-22T08:05:35.56Z</time></trkpt><trkpt lat="44.0250717" lon="12.5109983"><ele>86.0</ele><time>2026-03-22T08:05:36.561Z</time></trkpt><trkpt lat="44.0248817" lon="12.5108333"><ele>88.66666666666667</ele><time>2026-03-22T08:05:37.56Z</time></trkpt><trkpt lat="44.0247067" lon="12.5106583"><ele>91.33333333333333</ele><time>2026-03-22T08:05:38.56Z</time></trkpt><trkpt lat="44.0245667" lon="12.5104367"><ele>94.0</ele><time>2026-03-22T08:05:39.561Z</time></trkpt><trkpt lat="44.0244417" lon="12.5101717"><ele>95.0</ele><time>2026-03-22T08:05:40.561Z</time></trkpt><trkpt lat="44.0243183" lon="12.5098783"><ele>96.0</ele><time>2026-03-22T08:05:41.561Z</time></trkpt><trkpt lat="44.0242033" lon="12.50959"><ele>97.33333333333334</ele><time>2026-03-22T08:05:42.561Z</time></trkpt><trkpt lat="44.0241" lon="12.50932"><ele>98.66666666666667</ele><time>2026-03-22T08:05:43.561Z</time></trkpt><trkpt lat="44.023995" lon="12.5090683"><ele>100.0</ele><time>2026-03-22T08:05:44.561Z</time></trkpt><trkpt lat="44.0238917" lon="12.50883"><ele>99.66666666666667</ele><time>2026-03-22T08:05:45.561Z</time></trkpt><trkpt lat="44.0237867" lon="12.5086083"><ele>99.33333333333334</ele><time>2026-03-22T08:05:46.56Z</time></trkpt><trkpt lat="44.023695" lon="12.508375"><ele>99.0</ele><time>2026-03-22T08:05:47.561Z</time></trkpt><trkpt lat="44.0236267" lon="12.5081317"><ele>98.33333333333334</ele><time>2026-03-22T08:05:48.561Z</time></trkpt><trkpt lat="44.0235717" lon="12.50786"><ele>97.66666666666667</ele><time>2026-03-22T08:05:49.561Z</time></trkpt><trkpt lat="44.02351" lon="12.50757"><ele>97.0</ele><time>2026-03-22T08:05:50.561Z</time></trkpt><trkpt lat="44.023435" lon="12.5072617"><ele>96.5</ele><time>2026-03-22T08:05:51.561Z</time></trkpt><trkpt lat="44.0233567" lon="12.506935"><ele>96.0</ele><time>2026-03-22T08:05:52.561Z</time></trkpt><trkpt lat="44.0232817" lon="12.5066167"><ele>96.0</ele><time>2026-03-22T08:05:53.56Z</time></trkpt><trkpt lat="44.0232133" lon="12.50632"><ele>96.0</ele><time>2026-03-22T08:05:54.56Z</time></trkpt><trkpt lat="44.0231417" lon="12.5060333"><ele>96.0</ele><time>2026-03-22T08:05:55.561Z</time></trkpt><trkpt lat="44.0230733" lon="12.5057617"><ele>94.33333333333333</ele><time>2026-03-22T08:05:56.561Z</time></trkpt><trkpt lat="44.0230067" lon="12.505495"><ele>92.66666666666666</ele><time>2026-03-22T08:05:57.561Z</time></trkpt><trkpt lat="44.0229433" lon="12.505235"><ele>91.0</ele><time>2026-03-22T08:05:58.561Z</time></trkpt><trkpt lat="44.022895" lon="12.5049867"><ele>90.66666666666666</ele><time>2026-03-22T08:05:59.56Z</time></trkpt><trkpt lat="44.022865" lon="12.5047383"><ele>90.33333333333333</ele><time>2026-03-22T08:06:00.56Z</time></trkpt><trkpt lat="44.0228517" lon="12.5044767"><ele>90.0</ele><time>2026-03-22T08:06:01.56Z</time></trkpt><trkpt lat="44.0228567" lon="12.5042033"><ele>89.66666666666667</ele><time>2026-03-22T08:06:02.56Z</time></trkpt><trkpt lat="44.0228733" lon="12.50394"><ele>89.33333333333334</ele><time>2026-03-22T08:06:03.56Z</time></trkpt><trkpt lat="44.02288" lon="12.5036933"><ele>89.0</ele><time>2026-03-22T08:06:04.561Z</time></trkpt><trkpt lat="44.0228667" lon="12.5034483"><ele>89.66666666666667</ele><time>2026-03-22T08:06:05.561Z</time></trkpt><trkpt lat="44.02281" lon="12.5032"><ele>90.33333333333333</ele><time>2026-03-22T08:06:06.561Z</time></trkpt><trkpt lat="44.0227233" lon="12.5029617"><ele>91.0</ele><time>2026-03-22T08:06:07.561Z</time></trkpt><trkpt lat="44.0226283" lon="12.50273"><ele>90.66666666666666</ele><time>2026-03-22T08:06:08.56Z</time></trkpt><trkpt lat="44.0225483" lon="12.5025033"><ele>90.33333333333333</ele><time>2026-03-22T08:06:09.561Z</time></trkpt><trkpt lat="44.02246" lon="12.5022917"><ele>90.0</ele><time>2026-03-22T08:06:10.561Z</time></trkpt><trkpt lat="44.022355" lon="12.5020817"><ele>94.0</ele><time>2026-03-22T08:06:11.561Z</time></trkpt><trkpt lat="44.0222" lon="12.5018683"><ele>98.0</ele><time>2026-03-22T08:06:12.561Z</time></trkpt><trkpt lat="44.0220333" lon="12.5016417"><ele>98.0</ele><time>2026-03-22T08:06:13.56Z</time></trkpt><trkpt lat="44.021865" lon="12.501405"><ele>98.0</ele><time>2026-03-22T08:06:14.56Z</time></trkpt><trkpt lat="44.021695" lon="12.5011667"><ele>101.5</ele><time>2026-03-22T08:06:15.561Z</time></trkpt><trkpt lat="44.021525" lon="12.50094"><ele>105.0</ele><time>2026-03-22T08:06:16.561Z</time></trkpt><trkpt lat="44.02136" lon="12.5007017"><ele>105.0</ele><time>2026-03-22T08:06:17.561Z</time></trkpt><trkpt lat="44.021195" lon="12.5004583"><ele>105.0</ele><time>2026-03-22T08:06:18.56Z</time></trkpt><trkpt lat="44.0210233" lon="12.500215"><ele>104.5</ele><time>2026-03-22T08:06:19.561Z</time></trkpt><trkpt lat="44.020845" lon="12.4999917"><ele>104.0</ele><time>2026-03-22T08:06:20.561Z</time></trkpt><trkpt lat="44.0206733" lon="12.4997767"><ele>106.0</ele><time>2026-03-22T08:06:21.561Z</time></trkpt><trkpt lat="44.0205067" lon="12.4995733"><ele>108.0</ele><time>2026-03-22T08:06:22.561Z</time></trkpt><trkpt lat="44.020335" lon="12.499385"><ele>110.0</ele><time>2026-03-22T08:06:23.561Z</time></trkpt><trkpt lat="44.0201667" lon="12.4992033"><ele>110.0</ele><time>2026-03-22T08:06:24.561Z</time></trkpt><trkpt lat="44.0200133" lon="12.4990433"><ele>110.0</ele><time>2026-03-22T08:06:25.561Z</time></trkpt><trkpt lat="44.0198767" lon="12.4988967"><ele>110.0</ele><time>2026-03-22T08:06:26.561Z</time></trkpt><trkpt lat="44.01977" lon="12.4987633"><ele>110.75</ele><time>2026-03-22T08:06:27.561Z</time></trkpt><trkpt lat="44.0196717" lon="12.4986367"><ele>111.5</ele><time>2026-03-22T08:06:28.561Z</time></trkpt><trkpt lat="44.0195867" lon="12.498465"><ele>112.25</ele><time>2026-03-22T08:06:29.561Z</time></trkpt><trkpt lat="44.0194933" lon="12.4982783"><ele>113.0</ele><time>2026-03-22T08:06:30.56Z</time></trkpt><trkpt lat="44.019395" lon="12.4980667"><ele>115.0</ele><time>2026-03-22T08:06:31.561Z</time></trkpt><trkpt lat="44.019305" lon="12.4978767"><ele>117.0</ele><time>2026-03-22T08:06:32.561Z</time></trkpt><trkpt lat="44.0192067" lon="12.4977267"><ele>119.0</ele><time>2026-03-22T08:06:33.56Z</time></trkpt><trkpt lat="44.0190833" lon="12.497615"><ele>120.66666666666666</ele><time>2026-03-22T08:06:34.561Z</time></trkpt><trkpt lat="44.018945" lon="12.4975533"><ele>122.33333333333334</ele><time>2026-03-22T08:06:35.56Z</time></trkpt><trkpt lat="44.0187883" lon="12.49752"><ele>124.0</ele><time>2026-03-22T08:06:36.561Z</time></trkpt><trkpt lat="44.01863" lon="12.4974833"><ele>124.0</ele><time>2026-03-22T08:06:37.56Z</time></trkpt><trkpt lat="44.0185" lon="12.497445"><ele>124.0</ele><time>2026-03-22T08:06:38.56Z</time></trkpt><trkpt lat="44.0183983" lon="12.4974117"><ele>124.0</ele><time>2026-03-22T08:06:39.56Z</time></trkpt><trkpt lat="44.018335" lon="12.49739"><ele>124.0</ele><time>2026-03-22T08:06:40.561Z</time></trkpt><trkpt lat="44.0182467" lon="12.497325"><ele>124.0</ele><time>2026-03-22T08:06:43.561Z</time></trkpt><trkpt lat="44.01811" lon="12.4972517"><ele>124.0</ele><time>2026-03-22T08:06:45.561Z</time></trkpt><trkpt lat="44.0180067" lon="12.4971817"><ele>124.0</ele><time>2026-03-22T08:06:46.561Z</time></trkpt><trkpt lat="44.0179133" lon="12.49708"><ele>124.0</ele><time>2026-03-22T08:06:47.56Z</time></trkpt><trkpt lat="44.0178133" lon="12.49694"><ele>124.0</ele><time>2026-03-22T08:06:48.561Z</time></trkpt><trkpt lat="44.01771" lon="12.4967583"><ele>124.33333333333334</ele><time>2026-03-22T08:06:49.561Z</time></trkpt><trkpt lat="44.0176133" lon="12.4965567"><ele>124.66666666666666</ele><time>2026-03-22T08:06:50.56Z</time></trkpt><trkpt lat="44.0175267" lon="12.49636"><ele>125.0</ele><time>2026-03-22T08:06:51.56Z</time></trkpt><trkpt lat="44.01743" lon="12.4961733"><ele>122.33333333333333</ele><time>2026-03-22T08:06:52.56Z</time></trkpt><trkpt lat="44.0173133" lon="12.495975"><ele>119.66666666666666</ele><time>2026-03-22T08:06:53.561Z</time></trkpt><trkpt lat="44.0171833" lon="12.495765"><ele>117.0</ele><time>2026-03-22T08:06:54.561Z</time></trkpt><trkpt lat="44.0170617" lon="12.4955433"><ele>122.0</ele><time>2026-03-22T08:06:55.561Z</time></trkpt><trkpt lat="44.0169283" lon="12.4953083"><ele>127.0</ele><time>2026-03-22T08:06:56.56Z</time></trkpt><trkpt lat="44.0167567" lon="12.4950633"><ele>126.0</ele><time>2026-03-22T08:06:57.561Z</time></trkpt><trkpt lat="44.0165733" lon="12.4948167"><ele>125.0</ele><time>2026-03-22T08:06:58.561Z</time></trkpt><trkpt lat="44.016385" lon="12.4945667"><ele>125.0</ele><time>2026-03-22T08:06:59.56Z</time></trkpt><trkpt lat="44.0162017" lon="12.4943267"><ele>125.0</ele><time>2026-03-22T08:07:00.56Z</time></trkpt><trkpt lat="44.0160267" lon="12.4940983"><ele>125.0</ele><time>2026-03-22T08:07:01.56Z</time></trkpt><trkpt lat="44.0158667" lon="12.4938867"><ele>125.0</ele><time>2026-03-22T08:07:02.56Z</time></trkpt><trkpt lat="44.0157" lon="12.4936883"><ele>125.0</ele><time>2026-03-22T08:07:03.561Z</time></trkpt><trkpt lat="44.0155467" lon="12.4935033"><ele>127.0</ele><time>2026-03-22T08:07:04.56Z</time></trkpt><trkpt lat="44.01538" lon="12.493315"><ele>129.0</ele><time>2026-03-22T08:07:05.561Z</time></trkpt><trkpt lat="44.015205" lon="12.4931383"><ele>131.0</ele><time>2026-03-22T08:07:06.56Z</time></trkpt><trkpt lat="44.015025" lon="12.49296"><ele>133.0</ele><time>2026-03-22T08:07:07.561Z</time></trkpt><trkpt lat="44.01484" lon="12.492765"><ele>135.0</ele><time>2026-03-22T08:07:08.561Z</time></trkpt><trkpt lat="44.01465" lon="12.4925633"><ele>135.0</ele><time>2026-03-22T08:07:09.56Z</time></trkpt><trkpt lat="44.0144483" lon="12.492355"><ele>135.0</ele><time>2026-03-22T08:07:10.56Z</time></trkpt><trkpt lat="44.0142333" lon="12.4921367"><ele>133.0</ele><time>2026-03-22T08:07:11.56Z</time></trkpt><trkpt lat="44.0140083" lon="12.49191"><ele>131.0</ele><time>2026-03-22T08:07:12.56Z</time></trkpt><trkpt lat="44.01379" lon="12.491685"><ele>131.0</ele><time>2026-03-22T08:07:13.561Z</time></trkpt><trkpt lat="44.01358" lon="12.4914767"><ele>131.0</ele><time>2026-03-22T08:07:14.561Z</time></trkpt><trkpt lat="44.0133717" lon="12.4912833"><ele>132.0</ele><time>2026-03-22T08:07:15.561Z</time></trkpt><trkpt lat="44.0131467" lon="12.4910983"><ele>133.0</ele><time>2026-03-22T08:07:16.56Z</time></trkpt><trkpt lat="44.012915" lon="12.4909133"><ele>133.0</ele><time>2026-03-22T08:07:17.56Z</time></trkpt><trkpt lat="44.0126817" lon="12.4907383"><ele>133.0</ele><time>2026-03-22T08:07:18.561Z</time></trkpt><trkpt lat="44.012465" lon="12.4905733"><ele>136.5</ele><time>2026-03-22T08:07:19.56Z</time></trkpt><trkpt lat="44.0122617" lon="12.4904067"><ele>140.0</ele><time>2026-03-22T08:07:20.561Z</time></trkpt><trkpt lat="44.0120633" lon="12.4902483"><ele>140.0</ele><time>2026-03-22T08:07:21.561Z</time></trkpt><trkpt lat="44.0118617" lon="12.4900867"><ele>140.0</ele><time>2026-03-22T08:07:22.561Z</time></trkpt><trkpt lat="44.011655" lon="12.4899333"><ele>144.5</ele><time>2026-03-22T08:07:23.561Z</time></trkpt><trkpt lat="44.01145" lon="12.4897683"><ele>149.0</ele><time>2026-03-22T08:07:24.561Z</time></trkpt><trkpt lat="44.0112533" lon="12.4896083"><ele>148.66666666666666</ele><time>2026-03-22T08:07:25.56Z</time></trkpt><trkpt lat="44.0110767" lon="12.4894633"><ele>148.33333333333334</ele><time>2026-03-22T08:07:26.561Z</time></trkpt><trkpt lat="44.0109133" lon="12.48933"><ele>148.0</ele><time>2026-03-22T08:07:27.561Z</time></trkpt><trkpt lat="44.0107533" lon="12.4892017"><ele>148.66666666666669</ele><time>2026-03-22T08:07:28.56Z</time></trkpt><trkpt lat="44.01059" lon="12.4890683"><ele>149.33333333333334</ele><time>2026-03-22T08:07:29.561Z</time></trkpt><trkpt lat="44.0104233" lon="12.488925"><ele>150.0</ele><time>2026-03-22T08:07:30.56Z</time></trkpt><trkpt lat="44.0102567" lon="12.4887733"><ele>148.33333333333334</ele><time>2026-03-22T08:07:31.56Z</time></trkpt><trkpt lat="44.0100817" lon="12.48861"><ele>146.66666666666669</ele><time>2026-03-22T08:07:32.56Z</time></trkpt><trkpt lat="44.0098983" lon="12.4884233"><ele>145.0</ele><time>2026-03-22T08:07:33.561Z</time></trkpt><trkpt lat="44.0097167" lon="12.48824"><ele>144.0</ele><time>2026-03-22T08:07:34.561Z</time></trkpt><trkpt lat="44.0095483" lon="12.4880567"><ele>143.0</ele><time>2026-03-22T08:07:35.561Z</time></trkpt><trkpt lat="44.0093867" lon="12.487875"><ele>142.0</ele><time>2026-03-22T08:07:36.561Z</time></trkpt><trkpt lat="44.0092283" lon="12.487695"><ele>140.0</ele><time>2026-03-22T08:07:37.56Z</time></trkpt><trkpt lat="44.0090633" lon="12.4875117"><ele>138.0</ele><time>2026-03-22T08:07:38.561Z</time></trkpt><trkpt lat="44.0088967" lon="12.4873317"><ele>136.0</ele><time>2026-03-22T08:07:39.56Z</time></trkpt><trkpt lat="44.0087333" lon="12.4871667"><ele>136.33333333333334</ele><time>2026-03-22T08:07:40.561Z</time></trkpt><trkpt lat="44.0085617" lon="12.487005"><ele>136.66666666666666</ele><time>2026-03-22T08:07:41.561Z</time></trkpt><trkpt lat="44.0083783" lon="12.4868367"><ele>137.0</ele><time>2026-03-22T08:07:42.56Z</time></trkpt><trkpt lat="44.00818" lon="12.4866633"><ele>133.5</ele><time>2026-03-22T08:07:43.56Z</time></trkpt><trkpt lat="44.0079667" lon="12.4864967"><ele>130.0</ele><time>2026-03-22T08:07:44.561Z</time></trkpt><trkpt lat="44.0077633" lon="12.4863417"><ele>130.66666666666669</ele><time>2026-03-22T08:07:45.56Z</time></trkpt><trkpt lat="44.007565" lon="12.4862017"><ele>131.33333333333334</ele><time>2026-03-22T08:07:46.561Z</time></trkpt><trkpt lat="44.0073733" lon="12.4860883"><ele>132.0</ele><time>2026-03-22T08:07:47.56Z</time></trkpt><trkpt lat="44.0071867" lon="12.48599"><ele>133.33333333333334</ele><time>2026-03-22T08:07:48.561Z</time></trkpt><trkpt lat="44.00701" lon="12.4858983"><ele>134.66666666666669</ele><time>2026-03-22T08:07:49.561Z</time></trkpt><trkpt lat="44.006845" lon="12.485815"><ele>136.0</ele><time>2026-03-22T08:07:50.561Z</time></trkpt><trkpt lat="44.0066917" lon="12.4857167"><ele>137.33333333333334</ele><time>2026-03-22T08:07:51.561Z</time></trkpt><trkpt lat="44.0065483" lon="12.48559"><ele>138.66666666666666</ele><time>2026-03-22T08:07:52.56Z</time></trkpt><trkpt lat="44.00641" lon="12.4854133"><ele>140.0</ele><time>2026-03-22T08:07:53.561Z</time></trkpt><trkpt lat="44.0062717" lon="12.4852033"><ele>140.33333333333331</ele><time>2026-03-22T08:07:54.561Z</time></trkpt><trkpt lat="44.0061367" lon="12.4849783"><ele>140.66666666666666</ele><time>2026-03-22T08:07:55.56Z</time></trkpt><trkpt lat="44.0060117" lon="12.484775"><ele>141.0</ele><time>2026-03-22T08:07:56.561Z</time></trkpt><trkpt lat="44.00589" lon="12.4845917"><ele>140.0</ele><time>2026-03-22T08:07:57.56Z</time></trkpt><trkpt lat="44.0057867" lon="12.4844333"><ele>139.0</ele><time>2026-03-22T08:07:58.56Z</time></trkpt><trkpt lat="44.0057" lon="12.4843017"><ele>138.0</ele><time>2026-03-22T08:07:59.56Z</time></trkpt><trkpt lat="44.00562" lon="12.4841867"><ele>137.0</ele><time>2026-03-22T08:08:00.561Z</time></trkpt><trkpt lat="44.005555" lon="12.4840917"><ele>137.0</ele><time>2026-03-22T08:08:01.561Z</time></trkpt><trkpt lat="44.00551" lon="12.4840217"><ele>137.0</ele><time>2026-03-22T08:08:02.561Z</time></trkpt><trkpt lat="44.0054283" lon="12.4839583"><ele>137.0</ele><time>2026-03-22T08:08:04.561Z</time></trkpt><trkpt lat="44.0053683" lon="12.4840233"><ele>137.0</ele><time>2026-03-22T08:08:06.561Z</time></trkpt><trkpt lat="44.005375" lon="12.4842267"><ele>137.0</ele><time>2026-03-22T08:08:08.561Z</time></trkpt><trkpt lat="44.0054067" lon="12.4843917"><ele>137.0</ele><time>2026-03-22T08:08:09.562Z</time></trkpt><trkpt lat="44.0054433" lon="12.48457"><ele>137.0</ele><time>2026-03-22T08:08:10.562Z</time></trkpt><trkpt lat="44.0054683" lon="12.4847583"><ele>137.0</ele><time>2026-03-22T08:08:11.562Z</time></trkpt><trkpt lat="44.0054933" lon="12.4849533"><ele>137.0</ele><time>2026-03-22T08:08:12.562Z</time></trkpt><trkpt lat="44.0055017" lon="12.485155"><ele>135.33333333333331</ele><time>2026-03-22T08:08:13.561Z</time></trkpt><trkpt lat="44.0055" lon="12.4853683"><ele>133.66666666666666</ele><time>2026-03-22T08:08:14.561Z</time></trkpt><trkpt lat="44.0054967" lon="12.4855733"><ele>132.0</ele><time>2026-03-22T08:08:15.562Z</time></trkpt><trkpt lat="44.00548" lon="12.4857833"><ele>132.0</ele><time>2026-03-22T08:08:16.562Z</time></trkpt><trkpt lat="44.00544" lon="12.4860017"><ele>132.0</ele><time>2026-03-22T08:08:17.561Z</time></trkpt><trkpt lat="44.0053933" lon="12.4862267"><ele>132.0</ele><time>2026-03-22T08:08:18.561Z</time></trkpt><trkpt lat="44.00533" lon="12.4864733"><ele>132.66666666666666</ele><time>2026-03-22T08:08:19.562Z</time></trkpt><trkpt lat="44.00526" lon="12.4867167"><ele>133.33333333333331</ele><time>2026-03-22T08:08:20.561Z</time></trkpt><trkpt lat="44.005205" lon="12.4869617"><ele>134.0</ele><time>2026-03-22T08:08:21.562Z</time></trkpt><trkpt lat="44.0051467" lon="12.487195"><ele>134.0</ele><time>2026-03-22T08:08:22.562Z</time></trkpt><trkpt lat="44.0050783" lon="12.4874233"><ele>134.0</ele><time>2026-03-22T08:08:23.562Z</time></trkpt><trkpt lat="44.0049683" lon="12.48765"><ele>134.0</ele><time>2026-03-22T08:08:24.562Z</time></trkpt><trkpt lat="44.004835" lon="12.487875"><ele>131.0</ele><time>2026-03-22T08:08:25.561Z</time></trkpt><trkpt lat="44.0046817" lon="12.4881067"><ele>128.0</ele><time>2026-03-22T08:08:26.562Z</time></trkpt><trkpt lat="44.0045217" lon="12.48835"><ele>128.0</ele><time>2026-03-22T08:08:27.562Z</time></trkpt><trkpt lat="44.004355" lon="12.488605"><ele>128.0</ele><time>2026-03-22T08:08:28.562Z</time></trkpt><trkpt lat="44.004175" lon="12.4888617"><ele>127.5</ele><time>2026-03-22T08:08:29.562Z</time></trkpt><trkpt lat="44.0039417" lon="12.4892583"><ele>127.0</ele><time>2026-03-22T08:08:31.143Z</time></trkpt><trkpt lat="44.0037014" lon="12.4896351"><ele>127.0</ele><time>2026-03-22T08:08:32.558Z</time></trkpt><trkpt lat="44.0035597" lon="12.4898665"><ele>127.0</ele><time>2026-03-22T08:08:33.557Z</time></trkpt><trkpt lat="44.0033411" lon="12.4901819"><ele>126.5</ele><time>2026-03-22T08:08:35.057Z</time></trkpt><trkpt lat="44.0031382" lon="12.4905053"><ele>126.0</ele><time>2026-03-22T08:08:36.557Z</time></trkpt><trkpt lat="44.0030007" lon="12.4907063"><ele>126.0</ele><time>2026-03-22T08:08:37.558Z</time></trkpt><trkpt lat="44.002853" lon="12.4908918"><ele>126.0</ele><time>2026-03-22T08:08:38.558Z</time></trkpt><trkpt lat="44.0026891" lon="12.491077"><ele>126.0</ele><time>2026-03-22T08:08:39.557Z</time></trkpt><trkpt lat="44.0025106" lon="12.4912641"><ele>124.0</ele><time>2026-03-22T08:08:40.558Z</time></trkpt><trkpt lat="44.0023274" lon="12.4914627"><ele>122.0</ele><time>2026-03-22T08:08:41.558Z</time></trkpt><trkpt lat="44.0021426" lon="12.4916671"><ele>122.0</ele><time>2026-03-22T08:08:42.558Z</time></trkpt><trkpt lat="44.0019512" lon="12.4918822"><ele>122.0</ele><time>2026-03-22T08:08:43.558Z</time></trkpt><trkpt lat="44.0017621" lon="12.4920924"><ele>122.33333333333333</ele><time>2026-03-22T08:08:44.557Z</time></trkpt><trkpt lat="44.0015837" lon="12.4922876"><ele>122.66666666666666</ele><time>2026-03-22T08:08:45.558Z</time></trkpt><trkpt lat="44.0014082" lon="12.4924772"><ele>123.0</ele><time>2026-03-22T08:08:46.558Z</time></trkpt><trkpt lat="44.0012373" lon="12.4926649"><ele>123.0</ele><time>2026-03-22T08:08:47.558Z</time></trkpt><trkpt lat="44.0010729" lon="12.4928494"><ele>123.0</ele><time>2026-03-22T08:08:48.558Z</time></trkpt><trkpt lat="44.0009101" lon="12.4930259"><ele>123.0</ele><time>2026-03-22T08:08:49.557Z</time></trkpt><trkpt lat="44.0007384" lon="12.4932024"><ele>126.0</ele><time>2026-03-22T08:08:50.557Z</time></trkpt><trkpt lat="44.0005538" lon="12.4933801"><ele>129.0</ele><time>2026-03-22T08:08:51.559Z</time></trkpt><trkpt lat="44.0003528" lon="12.4935646"><ele>129.0</ele><time>2026-03-22T08:08:52.558Z</time></trkpt><trkpt lat="44.0001393" lon="12.493749"><ele>129.0</ele><time>2026-03-22T08:08:53.559Z</time></trkpt><trkpt lat="43.9999309" lon="12.4939374"><ele>127.0</ele><time>2026-03-22T08:08:54.558Z</time></trkpt><trkpt lat="43.9997337" lon="12.4941153"><ele>125.0</ele><time>2026-03-22T08:08:55.558Z</time></trkpt><trkpt lat="43.999563" lon="12.4943032"><ele>125.0</ele><time>2026-03-22T08:08:56.559Z</time></trkpt><trkpt lat="43.9994269" lon="12.4945151"><ele>125.0</ele><time>2026-03-22T08:08:57.558Z</time></trkpt><trkpt lat="43.9993119" lon="12.4947513"><ele>125.0</ele><time>2026-03-22T08:08:58.558Z</time></trkpt><trkpt lat="43.99921" lon="12.4950106"><ele>125.33333333333333</ele><time>2026-03-22T08:08:59.559Z</time></trkpt><trkpt lat="43.9991219" lon="12.4952751"><ele>125.66666666666666</ele><time>2026-03-22T08:09:00.559Z</time></trkpt><trkpt lat="43.9990403" lon="12.4955542"><ele>126.0</ele><time>2026-03-22T08:09:01.559Z</time></trkpt><trkpt lat="43.9989635" lon="12.4958224"><ele>123.33333333333334</ele><time>2026-03-22T08:09:02.558Z</time></trkpt><trkpt lat="43.9988901" lon="12.4960659"><ele>120.66666666666667</ele><time>2026-03-22T08:09:03.559Z</time></trkpt><trkpt lat="43.9988167" lon="12.4962633"><ele>118.0</ele><time>2026-03-22T08:09:04.559Z</time></trkpt><trkpt lat="43.9987383" lon="12.4964417"><ele>119.25</ele><time>2026-03-22T08:09:05.559Z</time></trkpt><trkpt lat="43.99865" lon="12.4965983"><ele>120.5</ele><time>2026-03-22T08:09:06.559Z</time></trkpt><trkpt lat="43.9985467" lon="12.4967317"><ele>121.75</ele><time>2026-03-22T08:09:07.558Z</time></trkpt><trkpt lat="43.9984233" lon="12.4968167"><ele>123.0</ele><time>2026-03-22T08:09:08.559Z</time></trkpt><trkpt lat="43.998295" lon="12.4968517"><ele>123.0</ele><time>2026-03-22T08:09:09.558Z</time></trkpt><trkpt lat="43.9981483" lon="12.4968217"><ele>123.0</ele><time>2026-03-22T08:09:10.559Z</time></trkpt><trkpt lat="43.9979817" lon="12.4967267"><ele>123.0</ele><time>2026-03-22T08:09:11.559Z</time></trkpt><trkpt lat="43.9977817" lon="12.4966133"><ele>123.0</ele><time>2026-03-22T08:09:12.558Z</time></trkpt><trkpt lat="43.9975733" lon="12.496485"><ele>123.0</ele><time>2026-03-22T08:09:13.559Z</time></trkpt><trkpt lat="43.9973383" lon="12.4963533"><ele>120.0</ele><time>2026-03-22T08:09:14.559Z</time></trkpt><trkpt lat="43.9971" lon="12.4962067"><ele>117.0</ele><time>2026-03-22T08:09:15.559Z</time></trkpt><trkpt lat="43.9968617" lon="12.49606"><ele>113.0</ele><time>2026-03-22T08:09:16.559Z</time></trkpt><trkpt lat="43.996635" lon="12.495915"><ele>109.0</ele><time>2026-03-22T08:09:17.559Z</time></trkpt><trkpt lat="43.9964183" lon="12.49577"><ele>109.0</ele><time>2026-03-22T08:09:18.558Z</time></trkpt><trkpt lat="43.9962067" lon="12.4956233"><ele>109.0</ele><time>2026-03-22T08:09:19.559Z</time></trkpt><trkpt lat="43.996005" lon="12.4954667"><ele>106.0</ele><time>2026-03-22T08:09:20.559Z</time></trkpt><trkpt lat="43.99581" lon="12.49528"><ele>103.0</ele><time>2026-03-22T08:09:21.558Z</time></trkpt><trkpt lat="43.9956133" lon="12.4950833"><ele>103.0</ele><time>2026-03-22T08:09:22.558Z</time></trkpt><trkpt lat="43.9954117" lon="12.4949"><ele>103.0</ele><time>2026-03-22T08:09:23.559Z</time></trkpt><trkpt lat="43.99521" lon="12.4947283"><ele>100.5</ele><time>2026-03-22T08:09:24.559Z</time></trkpt><trkpt lat="43.9949967" lon="12.4945817"><ele>98.0</ele><time>2026-03-22T08:09:25.559Z</time></trkpt><trkpt lat="43.99479" lon="12.494445"><ele>98.0</ele><time>2026-03-22T08:09:26.558Z</time></trkpt><trkpt lat="43.99458" lon="12.4943217"><ele>98.0</ele><time>2026-03-22T08:09:27.559Z</time></trkpt><trkpt lat="43.9943767" lon="12.494195"><ele>98.0</ele><time>2026-03-22T08:09:28.559Z</time></trkpt><trkpt lat="43.9941733" lon="12.49407"><ele>98.0</ele><time>2026-03-22T08:09:29.558Z</time></trkpt><trkpt lat="43.9939583" lon="12.493955"><ele>97.5</ele><time>2026-03-22T08:09:30.559Z</time></trkpt><trkpt lat="43.993735" lon="12.4938433"><ele>97.0</ele><time>2026-03-22T08:09:31.558Z</time></trkpt><trkpt lat="43.9934867" lon="12.4937367"><ele>91.0</ele><time>2026-03-22T08:09:32.559Z</time></trkpt><trkpt lat="43.993235" lon="12.49363"><ele>85.0</ele><time>2026-03-22T08:09:33.559Z</time></trkpt><trkpt lat="43.9929883" lon="12.4935333"><ele>85.0</ele><time>2026-03-22T08:09:34.559Z</time></trkpt><trkpt lat="43.9927533" lon="12.493435"><ele>85.0</ele><time>2026-03-22T08:09:35.559Z</time></trkpt><trkpt lat="43.9925267" lon="12.4933367"><ele>81.5</ele><time>2026-03-22T08:09:36.559Z</time></trkpt><trkpt lat="43.9923033" lon="12.4932433"><ele>78.0</ele><time>2026-03-22T08:09:37.558Z</time></trkpt><trkpt lat="43.99209" lon="12.4931517"><ele>78.0</ele><time>2026-03-22T08:09:38.559Z</time></trkpt><trkpt lat="43.991885" lon="12.4930617"><ele>78.0</ele><time>2026-03-22T08:09:39.558Z</time></trkpt><trkpt lat="43.9916833" lon="12.4929833"><ele>78.0</ele><time>2026-03-22T08:09:40.559Z</time></trkpt><trkpt lat="43.9914883" lon="12.4929"><ele>77.66666666666667</ele><time>2026-03-22T08:09:41.559Z</time></trkpt><trkpt lat="43.9913067" lon="12.4928167"><ele>77.33333333333334</ele><time>2026-03-22T08:09:42.558Z</time></trkpt><trkpt lat="43.9911383" lon="12.49274"><ele>77.0</ele><time>2026-03-22T08:09:43.559Z</time></trkpt><trkpt lat="43.99098" lon="12.4926717"><ele>74.33333333333334</ele><time>2026-03-22T08:09:44.559Z</time></trkpt><trkpt lat="43.990825" lon="12.4926267"><ele>71.66666666666667</ele><time>2026-03-22T08:09:45.558Z</time></trkpt><trkpt lat="43.9906633" lon="12.4926217"><ele>69.0</ele><time>2026-03-22T08:09:46.558Z</time></trkpt><trkpt lat="43.990505" lon="12.492675"><ele>69.0</ele><time>2026-03-22T08:09:47.559Z</time></trkpt><trkpt lat="43.9903483" lon="12.4927983"><ele>69.0</ele><time>2026-03-22T08:09:48.559Z</time></trkpt><trkpt lat="43.9902133" lon="12.4929667"><ele>69.0</ele><time>2026-03-22T08:09:49.558Z</time></trkpt><trkpt lat="43.990095" lon="12.49318"><ele>67.0</ele><time>2026-03-22T08:09:50.559Z</time></trkpt><trkpt lat="43.9899883" lon="12.4934417"><ele>65.0</ele><time>2026-03-22T08:09:51.558Z</time></trkpt><trkpt lat="43.9898867" lon="12.4937317"><ele>63.0</ele><time>2026-03-22T08:09:52.558Z</time></trkpt><trkpt lat="43.9897917" lon="12.4940533"><ele>63.0</ele><time>2026-03-22T08:09:53.558Z</time></trkpt><trkpt lat="43.9896983" lon="12.4943783"><ele>63.0</ele><time>2026-03-22T08:09:54.558Z</time></trkpt><trkpt lat="43.9896167" lon="12.4946833"><ele>65.0</ele><time>2026-03-22T08:09:55.559Z</time></trkpt><trkpt lat="43.9895367" lon="12.4949667"><ele>67.0</ele><time>2026-03-22T08:09:56.559Z</time></trkpt><trkpt lat="43.9894617" lon="12.495235"><ele>69.0</ele><time>2026-03-22T08:09:57.558Z</time></trkpt><trkpt lat="43.9893833" lon="12.495485"><ele>69.33333333333333</ele><time>2026-03-22T08:09:58.559Z</time></trkpt><trkpt lat="43.989295" lon="12.4957133"><ele>69.66666666666666</ele><time>2026-03-22T08:09:59.559Z</time></trkpt><trkpt lat="43.9891967" lon="12.4959317"><ele>70.0</ele><time>2026-03-22T08:10:00.558Z</time></trkpt><trkpt lat="43.9890883" lon="12.49613"><ele>66.66666666666666</ele><time>2026-03-22T08:10:01.559Z</time></trkpt><trkpt lat="43.988965" lon="12.4962933"><ele>63.33333333333333</ele><time>2026-03-22T08:10:02.559Z</time></trkpt><trkpt lat="43.988815" lon="12.4964283"><ele>60.0</ele><time>2026-03-22T08:10:03.558Z</time></trkpt><trkpt lat="43.9886283" lon="12.49654"><ele>60.0</ele><time>2026-03-22T08:10:04.559Z</time></trkpt><trkpt lat="43.9884533" lon="12.4966233"><ele>60.0</ele><time>2026-03-22T08:10:05.559Z</time></trkpt><trkpt lat="43.9883033" lon="12.4966833"><ele>60.0</ele><time>2026-03-22T08:10:06.558Z</time></trkpt><trkpt lat="43.988195" lon="12.496725"><ele>60.833333333333336</ele><time>2026-03-22T08:10:07.558Z</time></trkpt><trkpt lat="43.9881267" lon="12.4967433"><ele>61.66666666666667</ele><time>2026-03-22T08:10:08.559Z</time></trkpt><trkpt lat="43.98804" lon="12.4967517"><ele>62.5</ele><time>2026-03-22T08:10:10.559Z</time></trkpt><trkpt lat="43.98797" lon="12.4967317"><ele>63.333333333333336</ele><time>2026-03-22T08:10:11.559Z</time></trkpt><trkpt lat="43.9878867" lon="12.496675"><ele>64.16666666666667</ele><time>2026-03-22T08:10:12.559Z</time></trkpt><trkpt lat="43.987795" lon="12.49657"><ele>65.0</ele><time>2026-03-22T08:10:13.559Z</time></trkpt><trkpt lat="43.9876867" lon="12.496445"><ele>65.0</ele><time>2026-03-22T08:10:14.559Z</time></trkpt><trkpt lat="43.98756" lon="12.496325"><ele>65.0</ele><time>2026-03-22T08:10:15.559Z</time></trkpt><trkpt lat="43.9874233" lon="12.4962083"><ele>65.0</ele><time>2026-03-22T08:10:16.559Z</time></trkpt><trkpt lat="43.987295" lon="12.4961117"><ele>66.25</ele><time>2026-03-22T08:10:17.559Z</time></trkpt><trkpt lat="43.9871767" lon="12.4960267"><ele>67.5</ele><time>2026-03-22T08:10:18.559Z</time></trkpt><trkpt lat="43.9870517" lon="12.49593"><ele>68.75</ele><time>2026-03-22T08:10:19.559Z</time></trkpt><trkpt lat="43.9869217" lon="12.4958233"><ele>70.0</ele><time>2026-03-22T08:10:20.558Z</time></trkpt><trkpt lat="43.9867783" lon="12.495685"><ele>70.33333333333333</ele><time>2026-03-22T08:10:21.559Z</time></trkpt><trkpt lat="43.98663" lon="12.4955167"><ele>70.66666666666667</ele><time>2026-03-22T08:10:22.559Z</time></trkpt><trkpt lat="43.9864767" lon="12.4953333"><ele>71.0</ele><time>2026-03-22T08:10:23.559Z</time></trkpt><trkpt lat="43.986305" lon="12.49515"><ele>71.0</ele><time>2026-03-22T08:10:24.559Z</time></trkpt><trkpt lat="43.9861317" lon="12.4949617"><ele>71.0</ele><time>2026-03-22T08:10:25.559Z</time></trkpt><trkpt lat="43.9859667" lon="12.4947667"><ele>71.0</ele><time>2026-03-22T08:10:26.558Z</time></trkpt><trkpt lat="43.9857933" lon="12.4945733"><ele>73.0</ele><time>2026-03-22T08:10:27.559Z</time></trkpt><trkpt lat="43.9856067" lon="12.4943667"><ele>75.0</ele><time>2026-03-22T08:10:28.558Z</time></trkpt><trkpt lat="43.9854217" lon="12.4941517"><ele>75.0</ele><time>2026-03-22T08:10:29.559Z</time></trkpt><trkpt lat="43.9852417" lon="12.4939367"><ele>75.0</ele><time>2026-03-22T08:10:30.559Z</time></trkpt><trkpt lat="43.9850667" lon="12.4937217"><ele>75.66666666666667</ele><time>2026-03-22T08:10:31.559Z</time></trkpt><trkpt lat="43.9849033" lon="12.4935133"><ele>76.33333333333334</ele><time>2026-03-22T08:10:32.559Z</time></trkpt><trkpt lat="43.98475" lon="12.493315"><ele>77.0</ele><time>2026-03-22T08:10:33.559Z</time></trkpt><trkpt lat="43.9846" lon="12.49313"><ele>77.0</ele><time>2026-03-22T08:10:34.559Z</time></trkpt><trkpt lat="43.9844533" lon="12.492965"><ele>77.0</ele><time>2026-03-22T08:10:35.559Z</time></trkpt><trkpt lat="43.9843167" lon="12.4928067"><ele>77.0</ele><time>2026-03-22T08:10:36.559Z</time></trkpt><trkpt lat="43.984185" lon="12.492645"><ele>77.66666666666667</ele><time>2026-03-22T08:10:37.559Z</time></trkpt><trkpt lat="43.9840583" lon="12.4924883"><ele>78.33333333333333</ele><time>2026-03-22T08:10:38.559Z</time></trkpt><trkpt lat="43.9839317" lon="12.4923433"><ele>79.0</ele><time>2026-03-22T08:10:39.559Z</time></trkpt><trkpt lat="43.9838083" lon="12.4922083"><ele>80.25</ele><time>2026-03-22T08:10:40.559Z</time></trkpt><trkpt lat="43.9836983" lon="12.4920817"><ele>81.5</ele><time>2026-03-22T08:10:41.558Z</time></trkpt><trkpt lat="43.98359" lon="12.4919567"><ele>82.75</ele><time>2026-03-22T08:10:42.559Z</time></trkpt><trkpt lat="43.983485" lon="12.49184"><ele>84.0</ele><time>2026-03-22T08:10:43.559Z</time></trkpt><trkpt lat="43.9833817" lon="12.4917167"><ele>83.25</ele><time>2026-03-22T08:10:44.559Z</time></trkpt><trkpt lat="43.9832833" lon="12.4916017"><ele>82.5</ele><time>2026-03-22T08:10:45.559Z</time></trkpt><trkpt lat="43.9831933" lon="12.4914917"><ele>81.75</ele><time>2026-03-22T08:10:46.558Z</time></trkpt><trkpt lat="43.9831017" lon="12.4913917"><ele>81.0</ele><time>2026-03-22T08:10:47.558Z</time></trkpt><trkpt lat="43.9830167" lon="12.4912867"><ele>81.5</ele><time>2026-03-22T08:10:48.559Z</time></trkpt><trkpt lat="43.9829333" lon="12.4911833"><ele>82.0</ele><time>2026-03-22T08:10:49.558Z</time></trkpt><trkpt lat="43.982845" lon="12.4910817"><ele>82.5</ele><time>2026-03-22T08:10:50.559Z</time></trkpt><trkpt lat="43.9827517" lon="12.4909817"><ele>83.0</ele><time>2026-03-22T08:10:51.558Z</time></trkpt><trkpt lat="43.982645" lon="12.4908867"><ele>83.0</ele><time>2026-03-22T08:10:52.559Z</time></trkpt><trkpt lat="43.98253" lon="12.49079"><ele>83.0</ele><time>2026-03-22T08:10:53.559Z</time></trkpt><trkpt lat="43.9824117" lon="12.49069"><ele>83.0</ele><time>2026-03-22T08:10:54.559Z</time></trkpt><trkpt lat="43.9822917" lon="12.4905933"><ele>83.0</ele><time>2026-03-22T08:10:55.558Z</time></trkpt><trkpt lat="43.9821717" lon="12.4905017"><ele>84.25</ele><time>2026-03-22T08:10:56.558Z</time></trkpt><trkpt lat="43.9820517" lon="12.490405"><ele>85.5</ele><time>2026-03-22T08:10:57.559Z</time></trkpt><trkpt lat="43.9819217" lon="12.490305"><ele>86.75</ele><time>2026-03-22T08:10:58.559Z</time></trkpt><trkpt lat="43.981785" lon="12.4901983"><ele>88.0</ele><time>2026-03-22T08:10:59.559Z</time></trkpt><trkpt lat="43.9816417" lon="12.490095"><ele>88.0</ele><time>2026-03-22T08:11:00.558Z</time></trkpt><trkpt lat="43.9814983" lon="12.4899883"><ele>88.0</ele><time>2026-03-22T08:11:01.559Z</time></trkpt><trkpt lat="43.98136" lon="12.4898733"><ele>88.0</ele><time>2026-03-22T08:11:02.559Z</time></trkpt><trkpt lat="43.9812217" lon="12.4897533"><ele>88.0</ele><time>2026-03-22T08:11:03.559Z</time></trkpt><trkpt lat="43.9810833" lon="12.4896433"><ele>88.0</ele><time>2026-03-22T08:11:04.559Z</time></trkpt><trkpt lat="43.9809467" lon="12.4895383"><ele>88.0</ele><time>2026-03-22T08:11:05.559Z</time></trkpt><trkpt lat="43.9808183" lon="12.48943"><ele>89.0</ele><time>2026-03-22T08:11:06.559Z</time></trkpt><trkpt lat="43.9806917" lon="12.4893133"><ele>90.0</ele><time>2026-03-22T08:11:07.558Z</time></trkpt><trkpt lat="43.9805683" lon="12.4891717"><ele>91.0</ele><time>2026-03-22T08:11:08.558Z</time></trkpt><trkpt lat="43.9804283" lon="12.4890233"><ele>91.0</ele><time>2026-03-22T08:11:09.559Z</time></trkpt><trkpt lat="43.9802883" lon="12.4888717"><ele>91.0</ele><time>2026-03-22T08:11:10.558Z</time></trkpt><trkpt lat="43.9801517" lon="12.4887167"><ele>91.0</ele><time>2026-03-22T08:11:11.558Z</time></trkpt><trkpt lat="43.9800117" lon="12.4885733"><ele>92.33333333333333</ele><time>2026-03-22T08:11:12.559Z</time></trkpt><trkpt lat="43.9798633" lon="12.4884567"><ele>93.66666666666667</ele><time>2026-03-22T08:11:13.558Z</time></trkpt><trkpt lat="43.9797083" lon="12.4883517"><ele>95.0</ele><time>2026-03-22T08:11:14.558Z</time></trkpt><trkpt lat="43.9795483" lon="12.4882683"><ele>95.0</ele><time>2026-03-22T08:11:15.559Z</time></trkpt><trkpt lat="43.9793833" lon="12.4881983"><ele>95.0</ele><time>2026-03-22T08:11:16.558Z</time></trkpt><trkpt lat="43.97921" lon="12.4881317"><ele>95.0</ele><time>2026-03-22T08:11:17.559Z</time></trkpt><trkpt lat="43.97904" lon="12.488075"><ele>93.33333333333334</ele><time>2026-03-22T08:11:18.559Z</time></trkpt><trkpt lat="43.9788733" lon="12.4880167"><ele>91.66666666666667</ele><time>2026-03-22T08:11:19.559Z</time></trkpt><trkpt lat="43.978705" lon="12.4879617"><ele>90.0</ele><time>2026-03-22T08:11:20.558Z</time></trkpt><trkpt lat="43.9785367" lon="12.487905"><ele>90.0</ele><time>2026-03-22T08:11:21.559Z</time></trkpt><trkpt lat="43.9783667" lon="12.4878533"><ele>90.0</ele><time>2026-03-22T08:11:22.559Z</time></trkpt><trkpt lat="43.9781933" lon="12.487805"><ele>90.0</ele><time>2026-03-22T08:11:23.559Z</time></trkpt><trkpt lat="43.978025" lon="12.4877433"><ele>88.0</ele><time>2026-03-22T08:11:24.559Z</time></trkpt><trkpt lat="43.9778617" lon="12.4876667"><ele>86.0</ele><time>2026-03-22T08:11:25.559Z</time></trkpt><trkpt lat="43.9776967" lon="12.487565"><ele>84.0</ele><time>2026-03-22T08:11:26.558Z</time></trkpt><trkpt lat="43.97753" lon="12.487445"><ele>84.0</ele><time>2026-03-22T08:11:27.558Z</time></trkpt><trkpt lat="43.9773733" lon="12.4873117"><ele>84.0</ele><time>2026-03-22T08:11:28.558Z</time></trkpt><trkpt lat="43.9772133" lon="12.4871817"><ele>84.0</ele><time>2026-03-22T08:11:29.559Z</time></trkpt><trkpt lat="43.9770483" lon="12.4870583"><ele>84.0</ele><time>2026-03-22T08:11:30.559Z</time></trkpt><trkpt lat="43.9768833" lon="12.486925"><ele>84.0</ele><time>2026-03-22T08:11:31.558Z</time></trkpt><trkpt lat="43.97673" lon="12.4867717"><ele>84.0</ele><time>2026-03-22T08:11:32.559Z</time></trkpt><trkpt lat="43.9765533" lon="12.486655"><ele>81.66666666666667</ele><time>2026-03-22T08:11:33.559Z</time></trkpt><trkpt lat="43.9763733" lon="12.4865467"><ele>79.33333333333334</ele><time>2026-03-22T08:11:34.558Z</time></trkpt><trkpt lat="43.976195" lon="12.48646"><ele>77.0</ele><time>2026-03-22T08:11:35.559Z</time></trkpt><trkpt lat="43.976015" lon="12.4863683"><ele>76.33333333333334</ele><time>2026-03-22T08:11:36.559Z</time></trkpt><trkpt lat="43.9758317" lon="12.486275"><ele>75.66666666666667</ele><time>2026-03-22T08:11:37.559Z</time></trkpt><trkpt lat="43.97564" lon="12.4861817"><ele>75.0</ele><time>2026-03-22T08:11:38.559Z</time></trkpt><trkpt lat="43.9754383" lon="12.4860967"><ele>76.66666666666667</ele><time>2026-03-22T08:11:39.559Z</time></trkpt><trkpt lat="43.9752333" lon="12.4860083"><ele>78.33333333333334</ele><time>2026-03-22T08:11:40.559Z</time></trkpt><trkpt lat="43.97504" lon="12.4859217"><ele>80.0</ele><time>2026-03-22T08:11:41.559Z</time></trkpt><trkpt lat="43.9748617" lon="12.4858283"><ele>80.0</ele><time>2026-03-22T08:11:42.558Z</time></trkpt><trkpt lat="43.9746917" lon="12.4857283"><ele>80.0</ele><time>2026-03-22T08:11:43.559Z</time></trkpt><trkpt lat="43.97454" lon="12.4856033"><ele>80.0</ele><time>2026-03-22T08:11:44.558Z</time></trkpt><trkpt lat="43.9744067" lon="12.48545"><ele>80.0</ele><time>2026-03-22T08:11:45.559Z</time></trkpt><trkpt lat="43.9742767" lon="12.4852767"><ele>80.0</ele><time>2026-03-22T08:11:46.559Z</time></trkpt><trkpt lat="43.9741467" lon="12.4851033"><ele>80.0</ele><time>2026-03-22T08:11:47.559Z</time></trkpt><trkpt lat="43.9740167" lon="12.484935"><ele>80.0</ele><time>2026-03-22T08:11:48.558Z</time></trkpt><trkpt lat="43.97389" lon="12.4847617"><ele>80.0</ele><time>2026-03-22T08:11:49.558Z</time></trkpt><trkpt lat="43.9737583" lon="12.48459"><ele>80.0</ele><time>2026-03-22T08:11:50.559Z</time></trkpt><trkpt lat="43.9736233" lon="12.4844183"><ele>80.33333333333334</ele><time>2026-03-22T08:11:51.559Z</time></trkpt><trkpt lat="43.9734867" lon="12.4842367"><ele>80.66666666666667</ele><time>2026-03-22T08:11:52.559Z</time></trkpt><trkpt lat="43.9733417" lon="12.4840633"><ele>81.0</ele><time>2026-03-22T08:11:53.559Z</time></trkpt><trkpt lat="43.9731917" lon="12.483875"><ele>80.33333333333333</ele><time>2026-03-22T08:11:54.559Z</time></trkpt><trkpt lat="43.9730483" lon="12.4836833"><ele>79.66666666666666</ele><time>2026-03-22T08:11:55.558Z</time></trkpt><trkpt lat="43.9729017" lon="12.4835017"><ele>79.0</ele><time>2026-03-22T08:11:56.559Z</time></trkpt><trkpt lat="43.9727683" lon="12.4833317"><ele>79.0</ele><time>2026-03-22T08:11:57.559Z</time></trkpt><trkpt lat="43.9726383" lon="12.4831567"><ele>79.0</ele><time>2026-03-22T08:11:58.559Z</time></trkpt><trkpt lat="43.9725033" lon="12.4829833"><ele>79.0</ele><time>2026-03-22T08:11:59.558Z</time></trkpt><trkpt lat="43.9723467" lon="12.4828333"><ele>81.33333333333333</ele><time>2026-03-22T08:12:00.559Z</time></trkpt><trkpt lat="43.9721633" lon="12.4827417"><ele>83.66666666666667</ele><time>2026-03-22T08:12:01.559Z</time></trkpt><trkpt lat="43.9719633" lon="12.48269"><ele>86.0</ele><time>2026-03-22T08:12:02.559Z</time></trkpt><trkpt lat="43.971765" lon="12.4826933"><ele>88.33333333333334</ele><time>2026-03-22T08:12:03.559Z</time></trkpt><trkpt lat="43.9715717" lon="12.4827417"><ele>90.66666666666667</ele><time>2026-03-22T08:12:04.559Z</time></trkpt><trkpt lat="43.9713967" lon="12.48279"><ele>93.0</ele><time>2026-03-22T08:12:05.559Z</time></trkpt><trkpt lat="43.97124" lon="12.482845"><ele>93.0</ele><time>2026-03-22T08:12:06.558Z</time></trkpt><trkpt lat="43.9711" lon="12.4828917"><ele>93.0</ele><time>2026-03-22T08:12:07.559Z</time></trkpt><trkpt lat="43.9709833" lon="12.4829367"><ele>93.0</ele><time>2026-03-22T08:12:08.559Z</time></trkpt><trkpt lat="43.9708767" lon="12.4829433"><ele>93.0</ele><time>2026-03-22T08:12:09.559Z</time></trkpt><trkpt lat="43.970785" lon="12.48291"><ele>93.0</ele><time>2026-03-22T08:12:10.559Z</time></trkpt><trkpt lat="43.970715" lon="12.4828267"><ele>93.0</ele><time>2026-03-22T08:12:11.558Z</time></trkpt><trkpt lat="43.970685" lon="12.4827033"><ele>93.0</ele><time>2026-03-22T08:12:12.558Z</time></trkpt><trkpt lat="43.9707083" lon="12.482565"><ele>93.0</ele><time>2026-03-22T08:12:13.559Z</time></trkpt><trkpt lat="43.9707733" lon="12.48244"><ele>93.0</ele><time>2026-03-22T08:12:14.558Z</time></trkpt><trkpt lat="43.9708717" lon="12.4823317"><ele>93.0</ele><time>2026-03-22T08:12:15.56Z</time></trkpt><trkpt lat="43.971" lon="12.482225"><ele>93.0</ele><time>2026-03-22T08:12:16.56Z</time></trkpt><trkpt lat="43.9711433" lon="12.4821083"><ele>93.0</ele><time>2026-03-22T08:12:17.56Z</time></trkpt><trkpt lat="43.971285" lon="12.48198"><ele>94.5</ele><time>2026-03-22T08:12:18.56Z</time></trkpt><trkpt lat="43.9714083" lon="12.481865"><ele>96.0</ele><time>2026-03-22T08:12:19.559Z</time></trkpt><trkpt lat="43.971515" lon="12.4817583"><ele>97.5</ele><time>2026-03-22T08:12:20.56Z</time></trkpt><trkpt lat="43.9715967" lon="12.48167"><ele>99.0</ele><time>2026-03-22T08:12:21.56Z</time></trkpt><trkpt lat="43.9716483" lon="12.4815617"><ele>99.0</ele><time>2026-03-22T08:12:22.56Z</time></trkpt><trkpt lat="43.971675" lon="12.48142"><ele>99.0</ele><time>2026-03-22T08:12:23.559Z</time></trkpt><trkpt lat="43.9716417" lon="12.48128"><ele>99.0</ele><time>2026-03-22T08:12:24.559Z</time></trkpt><trkpt lat="43.9715633" lon="12.4811383"><ele>99.0</ele><time>2026-03-22T08:12:25.56Z</time></trkpt><trkpt lat="43.9714567" lon="12.480985"><ele>99.33333333333334</ele><time>2026-03-22T08:12:26.559Z</time></trkpt><trkpt lat="43.9713333" lon="12.480815"><ele>99.66666666666667</ele><time>2026-03-22T08:12:27.559Z</time></trkpt><trkpt lat="43.9712" lon="12.4806117"><ele>100.0</ele><time>2026-03-22T08:12:28.56Z</time></trkpt><trkpt lat="43.9710533" lon="12.4803967"><ele>97.66666666666667</ele><time>2026-03-22T08:12:29.56Z</time></trkpt><trkpt lat="43.9709117" lon="12.48018"><ele>95.33333333333334</ele><time>2026-03-22T08:12:30.56Z</time></trkpt><trkpt lat="43.9707833" lon="12.4799867"><ele>93.0</ele><time>2026-03-22T08:12:31.56Z</time></trkpt><trkpt lat="43.97066" lon="12.4798133"><ele>96.75</ele><time>2026-03-22T08:12:32.56Z</time></trkpt><trkpt lat="43.9705433" lon="12.4796567"><ele>100.5</ele><time>2026-03-22T08:12:33.56Z</time></trkpt><trkpt lat="43.9704333" lon="12.4795167"><ele>104.25</ele><time>2026-03-22T08:12:34.56Z</time></trkpt><trkpt lat="43.9703383" lon="12.479395"><ele>108.0</ele><time>2026-03-22T08:12:35.56Z</time></trkpt><trkpt lat="43.9702533" lon="12.47928"><ele>108.0</ele><time>2026-03-22T08:12:36.56Z</time></trkpt><trkpt lat="43.97019" lon="12.4791533"><ele>108.00000000000001</ele><time>2026-03-22T08:12:37.56Z</time></trkpt><trkpt lat="43.9701483" lon="12.4790267"><ele>108.00000000000001</ele><time>2026-03-22T08:12:38.56Z</time></trkpt><trkpt lat="43.9701217" lon="12.4788917"><ele>108.0</ele><time>2026-03-22T08:12:39.559Z</time></trkpt><trkpt lat="43.970075" lon="12.47878"><ele>108.0</ele><time>2026-03-22T08:12:40.56Z</time></trkpt><trkpt lat="43.9699967" lon="12.47871"><ele>111.0</ele><time>2026-03-22T08:12:41.559Z</time></trkpt><trkpt lat="43.9698917" lon="12.4786617"><ele>114.0</ele><time>2026-03-22T08:12:42.56Z</time></trkpt><trkpt lat="43.9697783" lon="12.4785817"><ele>117.0</ele><time>2026-03-22T08:12:43.56Z</time></trkpt><trkpt lat="43.9696733" lon="12.4784517"><ele>120.0</ele><time>2026-03-22T08:12:44.56Z</time></trkpt><trkpt lat="43.96957" lon="12.47828"><ele>120.0</ele><time>2026-03-22T08:12:45.56Z</time></trkpt><trkpt lat="43.9694567" lon="12.4780767"><ele>120.0</ele><time>2026-03-22T08:12:46.56Z</time></trkpt><trkpt lat="43.969335" lon="12.4778567"><ele>120.0</ele><time>2026-03-22T08:12:47.559Z</time></trkpt><trkpt lat="43.9692067" lon="12.4776317"><ele>121.0</ele><time>2026-03-22T08:12:48.559Z</time></trkpt><trkpt lat="43.96907" lon="12.47741"><ele>122.0</ele><time>2026-03-22T08:12:49.56Z</time></trkpt><trkpt lat="43.9689417" lon="12.477195"><ele>123.0</ele><time>2026-03-22T08:12:50.559Z</time></trkpt><trkpt lat="43.9688033" lon="12.477"><ele>123.0</ele><time>2026-03-22T08:12:51.56Z</time></trkpt><trkpt lat="43.96865" lon="12.476835"><ele>123.0</ele><time>2026-03-22T08:12:52.56Z</time></trkpt><trkpt lat="43.9684883" lon="12.47669"><ele>123.0</ele><time>2026-03-22T08:12:53.56Z</time></trkpt><trkpt lat="43.9683383" lon="12.4765433"><ele>126.33333333333334</ele><time>2026-03-22T08:12:54.559Z</time></trkpt><trkpt lat="43.9682" lon="12.4764117"><ele>129.66666666666669</ele><time>2026-03-22T08:12:55.559Z</time></trkpt><trkpt lat="43.968075" lon="12.4762733"><ele>133.0</ele><time>2026-03-22T08:12:56.559Z</time></trkpt><trkpt lat="43.967955" lon="12.4761433"><ele>133.0</ele><time>2026-03-22T08:12:57.56Z</time></trkpt><trkpt lat="43.9678333" lon="12.4760083"><ele>133.0</ele><time>2026-03-22T08:12:58.56Z</time></trkpt><trkpt lat="43.9677267" lon="12.4758583"><ele>133.0</ele><time>2026-03-22T08:12:59.56Z</time></trkpt><trkpt lat="43.9676167" lon="12.4757017"><ele>136.0</ele><time>2026-03-22T08:13:00.56Z</time></trkpt><trkpt lat="43.9675183" lon="12.4755417"><ele>139.0</ele><time>2026-03-22T08:13:01.559Z</time></trkpt><trkpt lat="43.9674233" lon="12.4753833"><ele>142.0</ele><time>2026-03-22T08:13:02.56Z</time></trkpt><trkpt lat="43.96725" lon="12.4751283"><ele>142.33333333333334</ele><time>2026-03-22T08:13:04.074Z</time></trkpt><trkpt lat="43.96716" lon="12.4749633"><ele>142.66666666666666</ele><time>2026-03-22T08:13:05.242Z</time></trkpt><trkpt lat="43.967055" lon="12.4747883"><ele>143.0</ele><time>2026-03-22T08:13:06.558Z</time></trkpt><trkpt lat="43.9669883" lon="12.4746067"><ele>138.66666666666666</ele><time>2026-03-22T08:13:07.559Z</time></trkpt><trkpt lat="43.966895" lon="12.47444"><ele>134.33333333333334</ele><time>2026-03-22T08:13:08.559Z</time></trkpt><trkpt lat="43.9668" lon="12.47426"><ele>130.0</ele><time>2026-03-22T08:13:09.559Z</time></trkpt><trkpt lat="43.9666983" lon="12.4740933"><ele>133.66666666666669</ele><time>2026-03-22T08:13:10.558Z</time></trkpt><trkpt lat="43.9666" lon="12.47392"><ele>137.33333333333334</ele><time>2026-03-22T08:13:11.559Z</time></trkpt><trkpt lat="43.9665033" lon="12.4737483"><ele>141.0</ele><time>2026-03-22T08:13:12.559Z</time></trkpt><trkpt lat="43.9664083" lon="12.4735883"><ele>141.0</ele><time>2026-03-22T08:13:13.559Z</time></trkpt><trkpt lat="43.9663183" lon="12.4734217"><ele>141.0</ele><time>2026-03-22T08:13:14.559Z</time></trkpt><trkpt lat="43.966225" lon="12.473255"><ele>141.0</ele><time>2026-03-22T08:13:15.559Z</time></trkpt><trkpt lat="43.9661317" lon="12.4730867"><ele>142.33333333333334</ele><time>2026-03-22T08:13:16.558Z</time></trkpt><trkpt lat="43.9660367" lon="12.4729167"><ele>143.66666666666669</ele><time>2026-03-22T08:13:17.558Z</time></trkpt><trkpt lat="43.9659367" lon="12.47274"><ele>145.0</ele><time>2026-03-22T08:13:18.559Z</time></trkpt><trkpt lat="43.9658183" lon="12.47255"><ele>145.0</ele><time>2026-03-22T08:13:19.558Z</time></trkpt><trkpt lat="43.9656983" lon="12.47234"><ele>145.0</ele><time>2026-03-22T08:13:20.559Z</time></trkpt><trkpt lat="43.965565" lon="12.4721067"><ele>145.0</ele><time>2026-03-22T08:13:21.559Z</time></trkpt><trkpt lat="43.965425" lon="12.471855"><ele>140.5</ele><time>2026-03-22T08:13:22.559Z</time></trkpt><trkpt lat="43.9652833" lon="12.471595"><ele>136.0</ele><time>2026-03-22T08:13:23.559Z</time></trkpt><trkpt lat="43.965135" lon="12.47135"><ele>140.5</ele><time>2026-03-22T08:13:24.559Z</time></trkpt><trkpt lat="43.9649667" lon="12.4711317"><ele>145.0</ele><time>2026-03-22T08:13:25.559Z</time></trkpt><trkpt lat="43.9647733" lon="12.47095"><ele>145.0</ele><time>2026-03-22T08:13:26.558Z</time></trkpt><trkpt lat="43.96455" lon="12.4708017"><ele>145.0</ele><time>2026-03-22T08:13:27.558Z</time></trkpt><trkpt lat="43.96431" lon="12.470685"><ele>150.0</ele><time>2026-03-22T08:13:28.559Z</time></trkpt><trkpt lat="43.96405" lon="12.4706"><ele>155.0</ele><time>2026-03-22T08:13:29.559Z</time></trkpt><trkpt lat="43.963795" lon="12.47054"><ele>155.0</ele><time>2026-03-22T08:13:30.558Z</time></trkpt><trkpt lat="43.9635317" lon="12.4705067"><ele>155.0</ele><time>2026-03-22T08:13:31.559Z</time></trkpt><trkpt lat="43.96328" lon="12.4705"><ele>159.5</ele><time>2026-03-22T08:13:32.558Z</time></trkpt><trkpt lat="43.9630283" lon="12.4705233"><ele>164.0</ele><time>2026-03-22T08:13:33.559Z</time></trkpt><trkpt lat="43.9627783" lon="12.4705833"><ele>164.0</ele><time>2026-03-22T08:13:34.558Z</time></trkpt><trkpt lat="43.9625433" lon="12.470675"><ele>164.0</ele><time>2026-03-22T08:13:35.558Z</time></trkpt><trkpt lat="43.96233" lon="12.470775"><ele>166.66666666666666</ele><time>2026-03-22T08:13:36.558Z</time></trkpt><trkpt lat="43.962135" lon="12.4708683"><ele>169.33333333333334</ele><time>2026-03-22T08:13:37.558Z</time></trkpt><trkpt lat="43.9619467" lon="12.470955"><ele>172.0</ele><time>2026-03-22T08:13:38.558Z</time></trkpt><trkpt lat="43.9617617" lon="12.4710383"><ele>172.66666666666669</ele><time>2026-03-22T08:13:39.559Z</time></trkpt><trkpt lat="43.9615767" lon="12.47112"><ele>173.33333333333334</ele><time>2026-03-22T08:13:40.559Z</time></trkpt><trkpt lat="43.96139" lon="12.4712083"><ele>174.0</ele><time>2026-03-22T08:13:41.559Z</time></trkpt><trkpt lat="43.96119" lon="12.4713033"><ele>174.0</ele><time>2026-03-22T08:13:42.559Z</time></trkpt><trkpt lat="43.960965" lon="12.471395"><ele>174.0</ele><time>2026-03-22T08:13:43.559Z</time></trkpt><trkpt lat="43.9607383" lon="12.4714867"><ele>177.66666666666666</ele><time>2026-03-22T08:13:44.559Z</time></trkpt><trkpt lat="43.9605217" lon="12.471575"><ele>181.33333333333331</ele><time>2026-03-22T08:13:45.559Z</time></trkpt><trkpt lat="43.9603233" lon="12.471655"><ele>185.0</ele><time>2026-03-22T08:13:46.558Z</time></trkpt><trkpt lat="43.960145" lon="12.47175"><ele>187.66666666666666</ele><time>2026-03-22T08:13:47.558Z</time></trkpt><trkpt lat="43.95997" lon="12.4718867"><ele>190.33333333333331</ele><time>2026-03-22T08:13:48.559Z</time></trkpt><trkpt lat="43.9598167" lon="12.4720683"><ele>193.0</ele><time>2026-03-22T08:13:49.559Z</time></trkpt><trkpt lat="43.9597" lon="12.4722883"><ele>193.0</ele><time>2026-03-22T08:13:50.559Z</time></trkpt><trkpt lat="43.9596133" lon="12.47253"><ele>193.0</ele><time>2026-03-22T08:13:51.559Z</time></trkpt><trkpt lat="43.9595667" lon="12.4727633"><ele>193.0</ele><time>2026-03-22T08:13:52.559Z</time></trkpt><trkpt lat="43.959565" lon="12.4730033"><ele>194.33333333333331</ele><time>2026-03-22T08:13:53.559Z</time></trkpt><trkpt lat="43.9596017" lon="12.473245"><ele>195.66666666666669</ele><time>2026-03-22T08:13:54.559Z</time></trkpt><trkpt lat="43.95968" lon="12.47347"><ele>197.0</ele><time>2026-03-22T08:13:55.559Z</time></trkpt><trkpt lat="43.9597617" lon="12.473675"><ele>198.25</ele><time>2026-03-22T08:13:56.559Z</time></trkpt><trkpt lat="43.959825" lon="12.4738717"><ele>199.5</ele><time>2026-03-22T08:13:57.559Z</time></trkpt><trkpt lat="43.959865" lon="12.4740633"><ele>200.75</ele><time>2026-03-22T08:13:58.559Z</time></trkpt><trkpt lat="43.9598683" lon="12.4742633"><ele>202.0</ele><time>2026-03-22T08:13:59.558Z</time></trkpt><trkpt lat="43.959835" lon="12.4744633"><ele>201.66666666666666</ele><time>2026-03-22T08:14:00.559Z</time></trkpt><trkpt lat="43.95977" lon="12.474645"><ele>201.33333333333331</ele><time>2026-03-22T08:14:01.558Z</time></trkpt><trkpt lat="43.9596583" lon="12.4747983"><ele>201.0</ele><time>2026-03-22T08:14:02.559Z</time></trkpt><trkpt lat="43.9595083" lon="12.4749417"><ele>201.0</ele><time>2026-03-22T08:14:03.559Z</time></trkpt><trkpt lat="43.959345" lon="12.4750833"><ele>201.0</ele><time>2026-03-22T08:14:04.558Z</time></trkpt><trkpt lat="43.9591667" lon="12.47523"><ele>201.0</ele><time>2026-03-22T08:14:05.559Z</time></trkpt><trkpt lat="43.9589833" lon="12.475375"><ele>203.0</ele><time>2026-03-22T08:14:06.559Z</time></trkpt><trkpt lat="43.958815" lon="12.4755017"><ele>205.0</ele><time>2026-03-22T08:14:07.558Z</time></trkpt><trkpt lat="43.9586633" lon="12.4756283"><ele>207.0</ele><time>2026-03-22T08:14:08.558Z</time></trkpt><trkpt lat="43.9585233" lon="12.4757483"><ele>207.0</ele><time>2026-03-22T08:14:09.559Z</time></trkpt><trkpt lat="43.9584067" lon="12.47585"><ele>207.0</ele><time>2026-03-22T08:14:10.558Z</time></trkpt><trkpt lat="43.9582983" lon="12.4759283"><ele>207.0</ele><time>2026-03-22T08:14:11.559Z</time></trkpt><trkpt lat="43.9581883" lon="12.4759567"><ele>207.0</ele><time>2026-03-22T08:14:12.559Z</time></trkpt><trkpt lat="43.9580917" lon="12.4759333"><ele>209.5</ele><time>2026-03-22T08:14:13.558Z</time></trkpt><trkpt lat="43.9579967" lon="12.4758617"><ele>212.0</ele><time>2026-03-22T08:14:14.559Z</time></trkpt><trkpt lat="43.9579217" lon="12.475755"><ele>214.5</ele><time>2026-03-22T08:14:15.559Z</time></trkpt><trkpt lat="43.9578817" lon="12.4756067"><ele>217.0</ele><time>2026-03-22T08:14:16.559Z</time></trkpt><trkpt lat="43.9578733" lon="12.475415"><ele>218.0</ele><time>2026-03-22T08:14:17.559Z</time></trkpt><trkpt lat="43.9578783" lon="12.4751917"><ele>219.0</ele><time>2026-03-22T08:14:18.558Z</time></trkpt><trkpt lat="43.9578733" lon="12.4749633"><ele>220.0</ele><time>2026-03-22T08:14:19.558Z</time></trkpt><trkpt lat="43.957835" lon="12.47473"><ele>219.66666666666666</ele><time>2026-03-22T08:14:20.559Z</time></trkpt><trkpt lat="43.95776" lon="12.4745167"><ele>219.33333333333331</ele><time>2026-03-22T08:14:21.558Z</time></trkpt><trkpt lat="43.9576383" lon="12.4743383"><ele>219.0</ele><time>2026-03-22T08:14:22.558Z</time></trkpt><trkpt lat="43.9574733" lon="12.4741867"><ele>222.66666666666669</ele><time>2026-03-22T08:14:23.559Z</time></trkpt><trkpt lat="43.957285" lon="12.47405"><ele>226.33333333333334</ele><time>2026-03-22T08:14:24.559Z</time></trkpt><trkpt lat="43.95709" lon="12.47392"><ele>230.0</ele><time>2026-03-22T08:14:25.559Z</time></trkpt><trkpt lat="43.956915" lon="12.4737983"><ele>228.33333333333334</ele><time>2026-03-22T08:14:26.559Z</time></trkpt><trkpt lat="43.9567667" lon="12.4736567"><ele>226.66666666666669</ele><time>2026-03-22T08:14:27.559Z</time></trkpt><trkpt lat="43.9566567" lon="12.4734767"><ele>225.0</ele><time>2026-03-22T08:14:28.559Z</time></trkpt><trkpt lat="43.9565883" lon="12.4732567"><ele>229.33333333333331</ele><time>2026-03-22T08:14:29.559Z</time></trkpt><trkpt lat="43.9565683" lon="12.4730183"><ele>233.66666666666666</ele><time>2026-03-22T08:14:30.559Z</time></trkpt><trkpt lat="43.956585" lon="12.4727533"><ele>238.0</ele><time>2026-03-22T08:14:31.559Z</time></trkpt><trkpt lat="43.9566217" lon="12.47246"><ele>239.66666666666666</ele><time>2026-03-22T08:14:32.559Z</time></trkpt><trkpt lat="43.9566467" lon="12.4721833"><ele>241.33333333333331</ele><time>2026-03-22T08:14:33.559Z</time></trkpt><trkpt lat="43.956645" lon="12.4719117"><ele>243.0</ele><time>2026-03-22T08:14:34.559Z</time></trkpt><trkpt lat="43.956625" lon="12.4716433"><ele>244.0</ele><time>2026-03-22T08:14:35.559Z</time></trkpt><trkpt lat="43.9565833" lon="12.4713733"><ele>245.0</ele><time>2026-03-22T08:14:36.558Z</time></trkpt><trkpt lat="43.956535" lon="12.471095"><ele>246.0</ele><time>2026-03-22T08:14:37.558Z</time></trkpt><trkpt lat="43.95648" lon="12.4708017"><ele>246.33333333333331</ele><time>2026-03-22T08:14:38.558Z</time></trkpt><trkpt lat="43.9564317" lon="12.4705017"><ele>246.66666666666666</ele><time>2026-03-22T08:14:39.559Z</time></trkpt><trkpt lat="43.9563817" lon="12.4701967"><ele>247.0</ele><time>2026-03-22T08:14:40.559Z</time></trkpt><trkpt lat="43.9563233" lon="12.4698883"><ele>250.5</ele><time>2026-03-22T08:14:41.559Z</time></trkpt><trkpt lat="43.9562667" lon="12.469575"><ele>254.0</ele><time>2026-03-22T08:14:42.558Z</time></trkpt><trkpt lat="43.9562067" lon="12.4692617"><ele>254.0</ele><time>2026-03-22T08:14:43.559Z</time></trkpt><trkpt lat="43.9561567" lon="12.4689517"><ele>254.0</ele><time>2026-03-22T08:14:44.558Z</time></trkpt><trkpt lat="43.956115" lon="12.4686633"><ele>254.0</ele><time>2026-03-22T08:14:45.559Z</time></trkpt><trkpt lat="43.9560683" lon="12.46839"><ele>255.33333333333334</ele><time>2026-03-22T08:14:46.558Z</time></trkpt><trkpt lat="43.9560217" lon="12.46812"><ele>256.6666666666667</ele><time>2026-03-22T08:14:47.558Z</time></trkpt><trkpt lat="43.95597" lon="12.4678533"><ele>258.0</ele><time>2026-03-22T08:14:48.559Z</time></trkpt><trkpt lat="43.9559217" lon="12.467605"><ele>258.3333333333333</ele><time>2026-03-22T08:14:49.559Z</time></trkpt><trkpt lat="43.955875" lon="12.46737"><ele>258.66666666666663</ele><time>2026-03-22T08:14:50.559Z</time></trkpt><trkpt lat="43.9558267" lon="12.4671567"><ele>259.0</ele><time>2026-03-22T08:14:51.559Z</time></trkpt><trkpt lat="43.9557567" lon="12.466965"><ele>263.0</ele><time>2026-03-22T08:14:52.558Z</time></trkpt><trkpt lat="43.955635" lon="12.4668067"><ele>267.0</ele><time>2026-03-22T08:14:53.558Z</time></trkpt><trkpt lat="43.95548" lon="12.4666767"><ele>271.0</ele><time>2026-03-22T08:14:54.558Z</time></trkpt><trkpt lat="43.955285" lon="12.466575"><ele>271.0</ele><time>2026-03-22T08:14:55.559Z</time></trkpt><trkpt lat="43.95508" lon="12.466495"><ele>271.0</ele><time>2026-03-22T08:14:56.559Z</time></trkpt><trkpt lat="43.9549" lon="12.4664217"><ele>271.0</ele><time>2026-03-22T08:14:57.558Z</time></trkpt><trkpt lat="43.954735" lon="12.466345"><ele>272.3333333333333</ele><time>2026-03-22T08:14:58.559Z</time></trkpt><trkpt lat="43.95459" lon="12.4662533"><ele>273.6666666666667</ele><time>2026-03-22T08:14:59.559Z</time></trkpt><trkpt lat="43.954475" lon="12.4661283"><ele>275.0</ele><time>2026-03-22T08:15:00.559Z</time></trkpt><trkpt lat="43.9543733" lon="12.4659833"><ele>275.0</ele><time>2026-03-22T08:15:01.558Z</time></trkpt><trkpt lat="43.9542917" lon="12.4657867"><ele>275.0</ele><time>2026-03-22T08:15:02.559Z</time></trkpt><trkpt lat="43.9542333" lon="12.465585"><ele>275.0</ele><time>2026-03-22T08:15:03.558Z</time></trkpt><trkpt lat="43.9541867" lon="12.4654083"><ele>276.75</ele><time>2026-03-22T08:15:04.559Z</time></trkpt><trkpt lat="43.954135" lon="12.4652617"><ele>278.5</ele><time>2026-03-22T08:15:05.559Z</time></trkpt><trkpt lat="43.9540633" lon="12.4651517"><ele>280.25</ele><time>2026-03-22T08:15:06.559Z</time></trkpt><trkpt lat="43.9539583" lon="12.465075"><ele>282.0</ele><time>2026-03-22T08:15:07.559Z</time></trkpt><trkpt lat="43.9538333" lon="12.4650567"><ele>282.0</ele><time>2026-03-22T08:15:08.559Z</time></trkpt><trkpt lat="43.9537067" lon="12.46509"><ele>282.0</ele><time>2026-03-22T08:15:09.559Z</time></trkpt><trkpt lat="43.953595" lon="12.4651783"><ele>282.0</ele><time>2026-03-22T08:15:10.558Z</time></trkpt><trkpt lat="43.9535183" lon="12.4653217"><ele>282.0</ele><time>2026-03-22T08:15:11.559Z</time></trkpt><trkpt lat="43.953475" lon="12.4655067"><ele>284.0</ele><time>2026-03-22T08:15:12.559Z</time></trkpt><trkpt lat="43.9534617" lon="12.465715"><ele>286.0</ele><time>2026-03-22T08:15:13.558Z</time></trkpt><trkpt lat="43.9534783" lon="12.4659517"><ele>288.0</ele><time>2026-03-22T08:15:14.559Z</time></trkpt><trkpt lat="43.9534917" lon="12.466195"><ele>289.3333333333333</ele><time>2026-03-22T08:15:15.559Z</time></trkpt><trkpt lat="43.9535033" lon="12.4664117"><ele>290.66666666666663</ele><time>2026-03-22T08:15:16.559Z</time></trkpt><trkpt lat="43.9535017" lon="12.4666333"><ele>292.0</ele><time>2026-03-22T08:15:17.558Z</time></trkpt><trkpt lat="43.9534933" lon="12.4668617"><ele>292.0</ele><time>2026-03-22T08:15:18.558Z</time></trkpt><trkpt lat="43.9534817" lon="12.4670833"><ele>292.0</ele><time>2026-03-22T08:15:19.559Z</time></trkpt><trkpt lat="43.9534783" lon="12.4673117"><ele>292.0</ele><time>2026-03-22T08:15:20.558Z</time></trkpt><trkpt lat="43.9534883" lon="12.4675217"><ele>292.25</ele><time>2026-03-22T08:15:21.559Z</time></trkpt><trkpt lat="43.95349" lon="12.4677133"><ele>292.5</ele><time>2026-03-22T08:15:22.559Z</time></trkpt><trkpt lat="43.95349" lon="12.4678933"><ele>292.75</ele><time>2026-03-22T08:15:23.559Z</time></trkpt><trkpt lat="43.9534933" lon="12.4680683"><ele>293.0</ele><time>2026-03-22T08:15:24.559Z</time></trkpt><trkpt lat="43.953495" lon="12.4682467"><ele>293.2</ele><time>2026-03-22T08:15:25.558Z</time></trkpt><trkpt lat="43.953495" lon="12.4684117"><ele>293.4</ele><time>2026-03-22T08:15:26.559Z</time></trkpt><trkpt lat="43.9534967" lon="12.468565"><ele>293.59999999999997</ele><time>2026-03-22T08:15:27.558Z</time></trkpt><trkpt lat="43.9534917" lon="12.4686983"><ele>293.8</ele><time>2026-03-22T08:15:28.559Z</time></trkpt><trkpt lat="43.9534733" lon="12.4688083"><ele>294.0</ele><time>2026-03-22T08:15:29.559Z</time></trkpt><trkpt lat="43.9534383" lon="12.468945"><ele>293.59999999999997</ele><time>2026-03-22T08:15:31.559Z</time></trkpt><trkpt lat="43.9534417" lon="12.4690383"><ele>293.2</ele><time>2026-03-22T08:15:36.559Z</time></trkpt><trkpt lat="43.953345" lon="12.4691183"><ele>292.79999999999995</ele><time>2026-03-22T08:25:17.558Z</time></trkpt><trkpt lat="43.9534567" lon="12.469165"><ele>292.4</ele><time>2026-03-22T08:28:24.56Z</time></trkpt><trkpt lat="43.9534917" lon="12.4692667"><ele>292.0</ele><time>2026-03-22T08:28:27.56Z</time></trkpt><trkpt lat="43.95343" lon="12.4694283"><ele>294.0</ele><time>2026-03-22T08:28:29.56Z</time></trkpt><trkpt lat="43.953365" lon="12.4694983"><ele>296.0</ele><time>2026-03-22T08:28:30.56Z</time></trkpt><trkpt lat="43.9532867" lon="12.46954"><ele>298.0</ele><time>2026-03-22T08:28:31.56Z</time></trkpt><trkpt lat="43.9532017" lon="12.4695533"><ele>300.0</ele><time>2026-03-22T08:28:32.559Z</time></trkpt><trkpt lat="43.9531083" lon="12.4695267"><ele>302.0</ele><time>2026-03-22T08:28:33.56Z</time></trkpt><trkpt lat="43.9530167" lon="12.4694667"><ele>304.0</ele><time>2026-03-22T08:28:34.56Z</time></trkpt><trkpt lat="43.9529383" lon="12.46936"><ele>304.0</ele><time>2026-03-22T08:28:35.56Z</time></trkpt><trkpt lat="43.952885" lon="12.4692017"><ele>304.0</ele><time>2026-03-22T08:28:36.56Z</time></trkpt><trkpt lat="43.9528417" lon="12.4690217"><ele>304.0</ele><time>2026-03-22T08:28:37.56Z</time></trkpt><trkpt lat="43.9528183" lon="12.468815"><ele>304.0</ele><time>2026-03-22T08:28:38.56Z</time></trkpt><trkpt lat="43.9528017" lon="12.4686067"><ele>304.25</ele><time>2026-03-22T08:28:39.56Z</time></trkpt><trkpt lat="43.95278" lon="12.4684033"><ele>304.5</ele><time>2026-03-22T08:28:40.56Z</time></trkpt><trkpt lat="43.9527583" lon="12.4682167"><ele>304.75</ele><time>2026-03-22T08:28:41.56Z</time></trkpt><trkpt lat="43.952725" lon="12.4680467"><ele>305.0</ele><time>2026-03-22T08:28:42.56Z</time></trkpt><trkpt lat="43.95267" lon="12.467905"><ele>304.5</ele><time>2026-03-22T08:28:43.56Z</time></trkpt><trkpt lat="43.9525917" lon="12.467785"><ele>304.0</ele><time>2026-03-22T08:28:44.56Z</time></trkpt><trkpt lat="43.95249" lon="12.4676883"><ele>303.5</ele><time>2026-03-22T08:28:45.56Z</time></trkpt><trkpt lat="43.9523733" lon="12.4675817"><ele>303.0</ele><time>2026-03-22T08:28:46.559Z</time></trkpt><trkpt lat="43.9522317" lon="12.4674833"><ele>307.0</ele><time>2026-03-22T08:28:47.559Z</time></trkpt><trkpt lat="43.952075" lon="12.4673867"><ele>311.0</ele><time>2026-03-22T08:28:48.559Z</time></trkpt><trkpt lat="43.9519133" lon="12.4672717"><ele>315.0</ele><time>2026-03-22T08:28:49.56Z</time></trkpt><trkpt lat="43.9517533" lon="12.4671533"><ele>316.6666666666667</ele><time>2026-03-22T08:28:50.56Z</time></trkpt><trkpt lat="43.9515883" lon="12.4670333"><ele>318.33333333333337</ele><time>2026-03-22T08:28:51.559Z</time></trkpt><trkpt lat="43.95142" lon="12.4669133"><ele>320.0</ele><time>2026-03-22T08:28:52.56Z</time></trkpt><trkpt lat="43.9512567" lon="12.4667983"><ele>320.0</ele><time>2026-03-22T08:28:53.559Z</time></trkpt><trkpt lat="43.9511183" lon="12.46667"><ele>320.0</ele><time>2026-03-22T08:28:54.559Z</time></trkpt><trkpt lat="43.95099" lon="12.4665467"><ele>320.0</ele><time>2026-03-22T08:28:55.559Z</time></trkpt><trkpt lat="43.9508617" lon="12.466395"><ele>322.33333333333337</ele><time>2026-03-22T08:28:56.56Z</time></trkpt><trkpt lat="43.9507267" lon="12.4662283"><ele>324.6666666666667</ele><time>2026-03-22T08:28:57.56Z</time></trkpt><trkpt lat="43.9505833" lon="12.4660433"><ele>327.0</ele><time>2026-03-22T08:28:58.559Z</time></trkpt><trkpt lat="43.950435" lon="12.4658567"><ele>327.0</ele><time>2026-03-22T08:28:59.56Z</time></trkpt><trkpt lat="43.9502683" lon="12.4656883"><ele>327.0</ele><time>2026-03-22T08:29:00.56Z</time></trkpt><trkpt lat="43.950085" lon="12.4655483"><ele>327.0</ele><time>2026-03-22T08:29:01.56Z</time></trkpt><trkpt lat="43.9498867" lon="12.4654283"><ele>328.6666666666667</ele><time>2026-03-22T08:29:02.56Z</time></trkpt><trkpt lat="43.9496833" lon="12.4653383"><ele>330.33333333333337</ele><time>2026-03-22T08:29:03.56Z</time></trkpt><trkpt lat="43.9494933" lon="12.4652633"><ele>332.0</ele><time>2026-03-22T08:29:04.559Z</time></trkpt><trkpt lat="43.9493133" lon="12.465185"><ele>335.0</ele><time>2026-03-22T08:29:05.56Z</time></trkpt><trkpt lat="43.9491433" lon="12.4651"><ele>338.0</ele><time>2026-03-22T08:29:06.559Z</time></trkpt><trkpt lat="43.9489883" lon="12.4649933"><ele>341.0</ele><time>2026-03-22T08:29:07.56Z</time></trkpt><trkpt lat="43.9488383" lon="12.4648617"><ele>341.0</ele><time>2026-03-22T08:29:08.56Z</time></trkpt><trkpt lat="43.9487117" lon="12.4647067"><ele>341.0</ele><time>2026-03-22T08:29:09.559Z</time></trkpt><trkpt lat="43.94861" lon="12.464555"><ele>341.0</ele><time>2026-03-22T08:29:10.559Z</time></trkpt><trkpt lat="43.9485317" lon="12.4643933"><ele>340.25</ele><time>2026-03-22T08:29:11.56Z</time></trkpt><trkpt lat="43.9484683" lon="12.4642333"><ele>339.5</ele><time>2026-03-22T08:29:12.559Z</time></trkpt><trkpt lat="43.9484267" lon="12.464075"><ele>338.75</ele><time>2026-03-22T08:29:13.559Z</time></trkpt><trkpt lat="43.9483967" lon="12.4639117"><ele>338.0</ele><time>2026-03-22T08:29:14.56Z</time></trkpt><trkpt lat="43.9483767" lon="12.4637283"><ele>340.0</ele><time>2026-03-22T08:29:15.559Z</time></trkpt><trkpt lat="43.948355" lon="12.46354"><ele>342.0</ele><time>2026-03-22T08:29:16.56Z</time></trkpt><trkpt lat="43.94836" lon="12.4633467"><ele>344.0</ele><time>2026-03-22T08:29:17.559Z</time></trkpt><trkpt lat="43.9484" lon="12.4631467"><ele>346.0</ele><time>2026-03-22T08:29:18.56Z</time></trkpt><trkpt lat="43.9484633" lon="12.4629467"><ele>348.3333333333333</ele><time>2026-03-22T08:29:19.56Z</time></trkpt><trkpt lat="43.9485433" lon="12.4627417"><ele>350.6666666666667</ele><time>2026-03-22T08:29:20.56Z</time></trkpt><trkpt lat="43.94864" lon="12.4625417"><ele>353.0</ele><time>2026-03-22T08:29:21.56Z</time></trkpt><trkpt lat="43.9487233" lon="12.4623417"><ele>353.0</ele><time>2026-03-22T08:29:22.559Z</time></trkpt><trkpt lat="43.948785" lon="12.4621467"><ele>353.0</ele><time>2026-03-22T08:29:23.559Z</time></trkpt><trkpt lat="43.94883" lon="12.4619333"><ele>353.0</ele><time>2026-03-22T08:29:24.559Z</time></trkpt><trkpt lat="43.9488483" lon="12.461715"><ele>355.0</ele><time>2026-03-22T08:29:25.56Z</time></trkpt><trkpt lat="43.9488383" lon="12.4614883"><ele>357.0</ele><time>2026-03-22T08:29:26.56Z</time></trkpt><trkpt lat="43.9487983" lon="12.4612567"><ele>359.0</ele><time>2026-03-22T08:29:27.559Z</time></trkpt><trkpt lat="43.948735" lon="12.4610383"><ele>359.6666666666667</ele><time>2026-03-22T08:29:28.56Z</time></trkpt><trkpt lat="43.948645" lon="12.4608367"><ele>360.3333333333333</ele><time>2026-03-22T08:29:29.56Z</time></trkpt><trkpt lat="43.9485233" lon="12.4606533"><ele>361.0</ele><time>2026-03-22T08:29:30.559Z</time></trkpt><trkpt lat="43.9483767" lon="12.4604883"><ele>362.66666666666663</ele><time>2026-03-22T08:29:31.56Z</time></trkpt><trkpt lat="43.9482033" lon="12.4603483"><ele>364.3333333333333</ele><time>2026-03-22T08:29:32.559Z</time></trkpt><trkpt lat="43.9480083" lon="12.460205"><ele>366.0</ele><time>2026-03-22T08:29:33.56Z</time></trkpt><trkpt lat="43.9478133" lon="12.46006"><ele>366.0</ele><time>2026-03-22T08:29:34.56Z</time></trkpt><trkpt lat="43.947615" lon="12.4599133"><ele>366.0</ele><time>2026-03-22T08:29:35.56Z</time></trkpt><trkpt lat="43.94743" lon="12.4597683"><ele>366.0</ele><time>2026-03-22T08:29:36.56Z</time></trkpt><trkpt lat="43.9472533" lon="12.4596317"><ele>367.6666666666667</ele><time>2026-03-22T08:29:37.56Z</time></trkpt><trkpt lat="43.9470867" lon="12.45951"><ele>369.33333333333337</ele><time>2026-03-22T08:29:38.559Z</time></trkpt><trkpt lat="43.946925" lon="12.4593933"><ele>371.0</ele><time>2026-03-22T08:29:39.559Z</time></trkpt><trkpt lat="43.94678" lon="12.45927"><ele>372.25</ele><time>2026-03-22T08:29:40.56Z</time></trkpt><trkpt lat="43.9466533" lon="12.4591417"><ele>373.5</ele><time>2026-03-22T08:29:41.559Z</time></trkpt><trkpt lat="43.9465683" lon="12.45897"><ele>374.75</ele><time>2026-03-22T08:29:42.559Z</time></trkpt><trkpt lat="43.9465117" lon="12.458795"><ele>376.0</ele><time>2026-03-22T08:29:43.559Z</time></trkpt><trkpt lat="43.946495" lon="12.4585883"><ele>377.3333333333333</ele><time>2026-03-22T08:29:44.56Z</time></trkpt><trkpt lat="43.9465183" lon="12.4583683"><ele>378.6666666666667</ele><time>2026-03-22T08:29:45.56Z</time></trkpt><trkpt lat="43.94658" lon="12.4581317"><ele>380.0</ele><time>2026-03-22T08:29:46.56Z</time></trkpt><trkpt lat="43.9466483" lon="12.457885"><ele>376.6666666666667</ele><time>2026-03-22T08:29:47.559Z</time></trkpt><trkpt lat="43.9467133" lon="12.4576267"><ele>373.3333333333333</ele><time>2026-03-22T08:29:48.56Z</time></trkpt><trkpt lat="43.946775" lon="12.457395"><ele>370.0</ele><time>2026-03-22T08:29:49.559Z</time></trkpt><trkpt lat="43.946815" lon="12.45716"><ele>370.66666666666663</ele><time>2026-03-22T08:29:50.56Z</time></trkpt><trkpt lat="43.9468267" lon="12.4569267"><ele>371.3333333333333</ele><time>2026-03-22T08:29:51.559Z</time></trkpt><trkpt lat="43.9468" lon="12.4566933"><ele>372.0</ele><time>2026-03-22T08:29:52.56Z</time></trkpt><trkpt lat="43.9467367" lon="12.45649"><ele>376.25</ele><time>2026-03-22T08:29:53.559Z</time></trkpt><trkpt lat="43.9466617" lon="12.4563217"><ele>380.5</ele><time>2026-03-22T08:29:54.56Z</time></trkpt><trkpt lat="43.946565" lon="12.4561783"><ele>384.75</ele><time>2026-03-22T08:29:55.56Z</time></trkpt><trkpt lat="43.9464683" lon="12.4560567"><ele>389.0</ele><time>2026-03-22T08:29:56.559Z</time></trkpt><trkpt lat="43.946375" lon="12.455955"><ele>389.5</ele><time>2026-03-22T08:29:57.559Z</time></trkpt><trkpt lat="43.9462817" lon="12.4558583"><ele>390.0</ele><time>2026-03-22T08:29:58.559Z</time></trkpt><trkpt lat="43.9461917" lon="12.4557583"><ele>390.5</ele><time>2026-03-22T08:29:59.56Z</time></trkpt><trkpt lat="43.9460933" lon="12.4556517"><ele>391.0</ele><time>2026-03-22T08:30:00.56Z</time></trkpt><trkpt lat="43.94598" lon="12.4555367"><ele>393.6666666666667</ele><time>2026-03-22T08:30:01.56Z</time></trkpt><trkpt lat="43.945855" lon="12.4554017"><ele>396.33333333333337</ele><time>2026-03-22T08:30:02.56Z</time></trkpt><trkpt lat="43.9457367" lon="12.45525"><ele>399.0</ele><time>2026-03-22T08:30:03.56Z</time></trkpt><trkpt lat="43.94563" lon="12.4550667"><ele>399.0</ele><time>2026-03-22T08:30:04.559Z</time></trkpt><trkpt lat="43.9455367" lon="12.4548567"><ele>399.0</ele><time>2026-03-22T08:30:05.559Z</time></trkpt><trkpt lat="43.9454667" lon="12.4546167"><ele>399.0</ele><time>2026-03-22T08:30:06.56Z</time></trkpt><trkpt lat="43.94542" lon="12.4543517"><ele>401.0</ele><time>2026-03-22T08:30:07.56Z</time></trkpt><trkpt lat="43.945375" lon="12.4540717"><ele>403.0</ele><time>2026-03-22T08:30:08.56Z</time></trkpt><trkpt lat="43.9453467" lon="12.453775"><ele>405.0</ele><time>2026-03-22T08:30:09.559Z</time></trkpt><trkpt lat="43.94532" lon="12.4535117"><ele>405.33333333333337</ele><time>2026-03-22T08:30:10.559Z</time></trkpt><trkpt lat="43.9452917" lon="12.4532683"><ele>405.6666666666667</ele><time>2026-03-22T08:30:11.56Z</time></trkpt><trkpt lat="43.9452667" lon="12.4530517"><ele>406.0</ele><time>2026-03-22T08:30:12.56Z</time></trkpt><trkpt lat="43.94524" lon="12.4528733"><ele>406.6</ele><time>2026-03-22T08:30:13.56Z</time></trkpt><trkpt lat="43.94522" lon="12.452705"><ele>407.20000000000005</ele><time>2026-03-22T08:30:14.56Z</time></trkpt><trkpt lat="43.9451783" lon="12.45257"><ele>407.79999999999995</ele><time>2026-03-22T08:30:15.559Z</time></trkpt><trkpt lat="43.94514" lon="12.452445"><ele>408.4</ele><time>2026-03-22T08:30:16.559Z</time></trkpt><trkpt lat="43.9451133" lon="12.452315"><ele>409.0</ele><time>2026-03-22T08:30:17.559Z</time></trkpt><trkpt lat="43.9451017" lon="12.45219"><ele>409.79999999999995</ele><time>2026-03-22T08:30:18.559Z</time></trkpt><trkpt lat="43.9451067" lon="12.4520533"><ele>410.59999999999997</ele><time>2026-03-22T08:30:19.56Z</time></trkpt><trkpt lat="43.9451133" lon="12.45191"><ele>411.4</ele><time>2026-03-22T08:30:20.56Z</time></trkpt><trkpt lat="43.9451133" lon="12.45176"><ele>412.2</ele><time>2026-03-22T08:30:21.56Z</time></trkpt><trkpt lat="43.9451033" lon="12.4516"><ele>413.0</ele><time>2026-03-22T08:30:22.56Z</time></trkpt><trkpt lat="43.94508" lon="12.45141"><ele>413.3333333333333</ele><time>2026-03-22T08:30:23.56Z</time></trkpt><trkpt lat="43.9450633" lon="12.4511967"><ele>413.66666666666663</ele><time>2026-03-22T08:30:24.56Z</time></trkpt><trkpt lat="43.94505" lon="12.4509583"><ele>414.0</ele><time>2026-03-22T08:30:25.56Z</time></trkpt><trkpt lat="43.94507" lon="12.4506933"><ele>415.66666666666663</ele><time>2026-03-22T08:30:26.56Z</time></trkpt><trkpt lat="43.9451083" lon="12.4504217"><ele>417.3333333333333</ele><time>2026-03-22T08:30:27.56Z</time></trkpt><trkpt lat="43.9451617" lon="12.4501383"><ele>419.0</ele><time>2026-03-22T08:30:28.56Z</time></trkpt><trkpt lat="43.94522" lon="12.4498867"><ele>419.0</ele><time>2026-03-22T08:30:29.56Z</time></trkpt><trkpt lat="43.9452767" lon="12.4496483"><ele>419.0</ele><time>2026-03-22T08:30:30.56Z</time></trkpt><trkpt lat="43.9453217" lon="12.4494233"><ele>419.0</ele><time>2026-03-22T08:30:31.56Z</time></trkpt><trkpt lat="43.9453333" lon="12.4492067"><ele>419.0</ele><time>2026-03-22T08:30:32.559Z</time></trkpt><trkpt lat="43.94531" lon="12.44899"><ele>419.0</ele><time>2026-03-22T08:30:33.559Z</time></trkpt><trkpt lat="43.945245" lon="12.4487783"><ele>419.0</ele><time>2026-03-22T08:30:34.56Z</time></trkpt><trkpt lat="43.94514" lon="12.44859"><ele>424.3333333333333</ele><time>2026-03-22T08:30:35.56Z</time></trkpt><trkpt lat="43.945005" lon="12.4484283"><ele>429.66666666666663</ele><time>2026-03-22T08:30:36.56Z</time></trkpt><trkpt lat="43.9448433" lon="12.4482667"><ele>435.0</ele><time>2026-03-22T08:30:37.559Z</time></trkpt><trkpt lat="43.944685" lon="12.44812"><ele>435.0</ele><time>2026-03-22T08:30:38.56Z</time></trkpt><trkpt lat="43.9445333" lon="12.4479833"><ele>435.0</ele><time>2026-03-22T08:30:39.559Z</time></trkpt><trkpt lat="43.94436" lon="12.4478767"><ele>435.0</ele><time>2026-03-22T08:30:40.56Z</time></trkpt><trkpt lat="43.9441733" lon="12.4477883"><ele>436.0</ele><time>2026-03-22T08:30:41.56Z</time></trkpt><trkpt lat="43.943975" lon="12.4477283"><ele>437.0</ele><time>2026-03-22T08:30:42.56Z</time></trkpt><trkpt lat="43.9437933" lon="12.4476783"><ele>438.0</ele><time>2026-03-22T08:30:43.559Z</time></trkpt><trkpt lat="43.943635" lon="12.4476333"><ele>438.0</ele><time>2026-03-22T08:30:44.56Z</time></trkpt><trkpt lat="43.9435017" lon="12.4475733"><ele>438.0</ele><time>2026-03-22T08:30:45.56Z</time></trkpt><trkpt lat="43.9433867" lon="12.4475083"><ele>438.0</ele><time>2026-03-22T08:30:46.56Z</time></trkpt><trkpt lat="43.9432867" lon="12.447405"><ele>438.0</ele><time>2026-03-22T08:30:47.559Z</time></trkpt><trkpt lat="43.9432217" lon="12.4472567"><ele>440.75</ele><time>2026-03-22T08:30:48.56Z</time></trkpt><trkpt lat="43.9432017" lon="12.4470833"><ele>443.5</ele><time>2026-03-22T08:30:49.559Z</time></trkpt><trkpt lat="43.9432133" lon="12.446885"><ele>446.25</ele><time>2026-03-22T08:30:50.559Z</time></trkpt><trkpt lat="43.94325" lon="12.4466667"><ele>449.0</ele><time>2026-03-22T08:30:51.56Z</time></trkpt><trkpt lat="43.9432833" lon="12.4464683"><ele>449.0</ele><time>2026-03-22T08:30:52.56Z</time></trkpt><trkpt lat="43.94333" lon="12.4463067"><ele>449.0</ele><time>2026-03-22T08:30:53.56Z</time></trkpt><trkpt lat="43.9433983" lon="12.4461767"><ele>449.0</ele><time>2026-03-22T08:30:54.559Z</time></trkpt><trkpt lat="43.9434833" lon="12.446055"><ele>449.0</ele><time>2026-03-22T08:30:55.559Z</time></trkpt><trkpt lat="43.9435567" lon="12.4459333"><ele>447.25</ele><time>2026-03-22T08:30:56.56Z</time></trkpt><trkpt lat="43.943605" lon="12.44579"><ele>445.5</ele><time>2026-03-22T08:30:57.56Z</time></trkpt><trkpt lat="43.943625" lon="12.445615"><ele>443.75</ele><time>2026-03-22T08:30:58.56Z</time></trkpt><trkpt lat="43.94363" lon="12.44541"><ele>442.0</ele><time>2026-03-22T08:30:59.56Z</time></trkpt><trkpt lat="43.9436117" lon="12.4451833"><ele>441.6666666666667</ele><time>2026-03-22T08:31:00.56Z</time></trkpt><trkpt lat="43.9436067" lon="12.4449417"><ele>441.33333333333337</ele><time>2026-03-22T08:31:01.56Z</time></trkpt><trkpt lat="43.9435917" lon="12.4447117"><ele>441.0</ele><time>2026-03-22T08:31:02.56Z</time></trkpt><trkpt lat="43.9435733" lon="12.4444817"><ele>440.0</ele><time>2026-03-22T08:31:03.56Z</time></trkpt><trkpt lat="43.9435467" lon="12.4442317"><ele>439.0</ele><time>2026-03-22T08:31:04.56Z</time></trkpt><trkpt lat="43.943525" lon="12.443985"><ele>438.0</ele><time>2026-03-22T08:31:05.559Z</time></trkpt><trkpt lat="43.94351" lon="12.443755"><ele>436.75</ele><time>2026-03-22T08:31:06.559Z</time></trkpt><trkpt lat="43.94349" lon="12.4435383"><ele>435.5</ele><time>2026-03-22T08:31:07.56Z</time></trkpt><trkpt lat="43.9434733" lon="12.4433333"><ele>434.25</ele><time>2026-03-22T08:31:08.56Z</time></trkpt><trkpt lat="43.94347" lon="12.4431433"><ele>433.0</ele><time>2026-03-22T08:31:09.56Z</time></trkpt><trkpt lat="43.9434883" lon="12.4429667"><ele>433.5</ele><time>2026-03-22T08:31:10.559Z</time></trkpt><trkpt lat="43.943545" lon="12.442805"><ele>434.0</ele><time>2026-03-22T08:31:11.559Z</time></trkpt><trkpt lat="43.9436367" lon="12.4426467"><ele>434.5</ele><time>2026-03-22T08:31:12.56Z</time></trkpt><trkpt lat="43.9437467" lon="12.4424767"><ele>435.0</ele><time>2026-03-22T08:31:13.559Z</time></trkpt><trkpt lat="43.9438783" lon="12.442305"><ele>435.0</ele><time>2026-03-22T08:31:14.56Z</time></trkpt><trkpt lat="43.9440083" lon="12.44215"><ele>435.0</ele><time>2026-03-22T08:31:15.56Z</time></trkpt><trkpt lat="43.9441233" lon="12.4419883"><ele>435.0</ele><time>2026-03-22T08:31:16.56Z</time></trkpt><trkpt lat="43.944235" lon="12.44183"><ele>433.25</ele><time>2026-03-22T08:31:17.56Z</time></trkpt><trkpt lat="43.9443517" lon="12.4416783"><ele>431.5</ele><time>2026-03-22T08:31:18.559Z</time></trkpt><trkpt lat="43.94447" lon="12.4415483"><ele>429.75</ele><time>2026-03-22T08:31:19.559Z</time></trkpt><trkpt lat="43.9445783" lon="12.4414283"><ele>428.0</ele><time>2026-03-22T08:31:20.56Z</time></trkpt><trkpt lat="43.9447033" lon="12.441335"><ele>426.75</ele><time>2026-03-22T08:31:21.56Z</time></trkpt><trkpt lat="43.9448367" lon="12.4412867"><ele>425.5</ele><time>2026-03-22T08:31:22.559Z</time></trkpt><trkpt lat="43.9449783" lon="12.4412883"><ele>424.25</ele><time>2026-03-22T08:31:23.56Z</time></trkpt><trkpt lat="43.945125" lon="12.4413383"><ele>423.0</ele><time>2026-03-22T08:31:24.56Z</time></trkpt><trkpt lat="43.9452817" lon="12.4414133"><ele>421.66666666666663</ele><time>2026-03-22T08:31:25.56Z</time></trkpt><trkpt lat="43.9454317" lon="12.4414967"><ele>420.3333333333333</ele><time>2026-03-22T08:31:26.56Z</time></trkpt><trkpt lat="43.9455767" lon="12.44157"><ele>419.0</ele><time>2026-03-22T08:31:27.56Z</time></trkpt><trkpt lat="43.945715" lon="12.44164"><ele>419.0</ele><time>2026-03-22T08:31:28.56Z</time></trkpt><trkpt lat="43.945865" lon="12.44168"><ele>419.0</ele><time>2026-03-22T08:31:29.56Z</time></trkpt><trkpt lat="43.9460183" lon="12.4417083"><ele>419.0</ele><time>2026-03-22T08:31:30.56Z</time></trkpt><trkpt lat="43.9461633" lon="12.4417133"><ele>417.25</ele><time>2026-03-22T08:31:31.561Z</time></trkpt><trkpt lat="43.9463" lon="12.4417"><ele>415.5</ele><time>2026-03-22T08:31:32.561Z</time></trkpt><trkpt lat="43.9464317" lon="12.441645"><ele>413.75</ele><time>2026-03-22T08:31:33.561Z</time></trkpt><trkpt lat="43.946545" lon="12.4415467"><ele>412.0</ele><time>2026-03-22T08:31:34.56Z</time></trkpt><trkpt lat="43.9466367" lon="12.4414167"><ele>411.25</ele><time>2026-03-22T08:31:35.561Z</time></trkpt><trkpt lat="43.9467017" lon="12.4412417"><ele>410.5</ele><time>2026-03-22T08:31:36.56Z</time></trkpt><trkpt lat="43.94674" lon="12.4410567"><ele>409.75</ele><time>2026-03-22T08:31:37.561Z</time></trkpt><trkpt lat="43.9467433" lon="12.4408367"><ele>409.0</ele><time>2026-03-22T08:31:38.561Z</time></trkpt><trkpt lat="43.9467117" lon="12.4406083"><ele>405.33333333333337</ele><time>2026-03-22T08:31:39.561Z</time></trkpt><trkpt lat="43.9466617" lon="12.4403933"><ele>401.66666666666663</ele><time>2026-03-22T08:31:40.561Z</time></trkpt><trkpt lat="43.9466117" lon="12.44019"><ele>398.0</ele><time>2026-03-22T08:31:41.56Z</time></trkpt><trkpt lat="43.946555" lon="12.4399783"><ele>398.0</ele><time>2026-03-22T08:31:42.561Z</time></trkpt><trkpt lat="43.9465033" lon="12.4397617"><ele>398.0</ele><time>2026-03-22T08:31:43.561Z</time></trkpt><trkpt lat="43.9464517" lon="12.4395417"><ele>398.0</ele><time>2026-03-22T08:31:44.56Z</time></trkpt><trkpt lat="43.9463967" lon="12.4393283"><ele>395.0</ele><time>2026-03-22T08:31:45.56Z</time></trkpt><trkpt lat="43.9463383" lon="12.4391183"><ele>392.0</ele><time>2026-03-22T08:31:46.561Z</time></trkpt><trkpt lat="43.9462883" lon="12.4389167"><ele>389.0</ele><time>2026-03-22T08:31:47.56Z</time></trkpt><trkpt lat="43.9462433" lon="12.438715"><ele>386.75</ele><time>2026-03-22T08:31:48.56Z</time></trkpt><trkpt lat="43.9461967" lon="12.438525"><ele>384.5</ele><time>2026-03-22T08:31:49.561Z</time></trkpt><trkpt lat="43.946155" lon="12.438345"><ele>382.25</ele><time>2026-03-22T08:31:50.561Z</time></trkpt><trkpt lat="43.94611" lon="12.438195"><ele>380.0</ele><time>2026-03-22T08:31:51.56Z</time></trkpt><trkpt lat="43.9460567" lon="12.4380733"><ele>380.0</ele><time>2026-03-22T08:31:52.56Z</time></trkpt><trkpt lat="43.9459767" lon="12.4379833"><ele>380.0</ele><time>2026-03-22T08:31:53.561Z</time></trkpt><trkpt lat="43.9458617" lon="12.437945"><ele>380.0</ele><time>2026-03-22T08:31:54.561Z</time></trkpt><trkpt lat="43.9457267" lon="12.437955"><ele>380.0</ele><time>2026-03-22T08:31:55.56Z</time></trkpt><trkpt lat="43.9455933" lon="12.438"><ele>382.25</ele><time>2026-03-22T08:31:56.561Z</time></trkpt><trkpt lat="43.9454667" lon="12.4380433"><ele>384.5</ele><time>2026-03-22T08:31:57.561Z</time></trkpt><trkpt lat="43.9453483" lon="12.43808"><ele>386.75</ele><time>2026-03-22T08:31:58.561Z</time></trkpt><trkpt lat="43.9452333" lon="12.438105"><ele>389.0</ele><time>2026-03-22T08:31:59.561Z</time></trkpt><trkpt lat="43.9451317" lon="12.4381067"><ele>387.79999999999995</ele><time>2026-03-22T08:32:00.561Z</time></trkpt><trkpt lat="43.94503" lon="12.4380717"><ele>386.59999999999997</ele><time>2026-03-22T08:32:01.561Z</time></trkpt><trkpt lat="43.944945" lon="12.4380033"><ele>385.4</ele><time>2026-03-22T08:32:02.561Z</time></trkpt><trkpt lat="43.9448683" lon="12.437895"><ele>384.2</ele><time>2026-03-22T08:32:03.56Z</time></trkpt><trkpt lat="43.9448267" lon="12.43776"><ele>383.0</ele><time>2026-03-22T08:32:04.561Z</time></trkpt><trkpt lat="43.9448117" lon="12.4376017"><ele>380.5</ele><time>2026-03-22T08:32:05.56Z</time></trkpt><trkpt lat="43.9448217" lon="12.4374467"><ele>378.0</ele><time>2026-03-22T08:32:06.561Z</time></trkpt><trkpt lat="43.9448717" lon="12.4373017"><ele>375.5</ele><time>2026-03-22T08:32:07.561Z</time></trkpt><trkpt lat="43.9449467" lon="12.43718"><ele>373.0</ele><time>2026-03-22T08:32:08.561Z</time></trkpt><trkpt lat="43.94505" lon="12.43709"><ele>371.79999999999995</ele><time>2026-03-22T08:32:09.561Z</time></trkpt><trkpt lat="43.9451517" lon="12.43704"><ele>370.6</ele><time>2026-03-22T08:32:10.56Z</time></trkpt><trkpt lat="43.945245" lon="12.4370067"><ele>369.4</ele><time>2026-03-22T08:32:11.561Z</time></trkpt><trkpt lat="43.9453333" lon="12.436955"><ele>368.20000000000005</ele><time>2026-03-22T08:32:12.561Z</time></trkpt><trkpt lat="43.9454067" lon="12.436885"><ele>367.0</ele><time>2026-03-22T08:32:13.56Z</time></trkpt><trkpt lat="43.9454617" lon="12.4368"><ele>367.0</ele><time>2026-03-22T08:32:14.561Z</time></trkpt><trkpt lat="43.9454983" lon="12.4366783"><ele>367.0</ele><time>2026-03-22T08:32:15.561Z</time></trkpt><trkpt lat="43.94552" lon="12.4365367"><ele>367.0</ele><time>2026-03-22T08:32:16.56Z</time></trkpt><trkpt lat="43.9455167" lon="12.4363617"><ele>367.0</ele><time>2026-03-22T08:32:17.561Z</time></trkpt><trkpt lat="43.9454983" lon="12.43618"><ele>363.75</ele><time>2026-03-22T08:32:18.561Z</time></trkpt><trkpt lat="43.94548" lon="12.436005"><ele>360.5</ele><time>2026-03-22T08:32:19.561Z</time></trkpt><trkpt lat="43.94547" lon="12.4358383"><ele>357.25</ele><time>2026-03-22T08:32:20.56Z</time></trkpt><trkpt lat="43.94546" lon="12.4356683"><ele>354.0</ele><time>2026-03-22T08:32:21.56Z</time></trkpt><trkpt lat="43.9454483" lon="12.4354983"><ele>352.4</ele><time>2026-03-22T08:32:22.561Z</time></trkpt><trkpt lat="43.94544" lon="12.4353417"><ele>350.79999999999995</ele><time>2026-03-22T08:32:23.561Z</time></trkpt><trkpt lat="43.94543" lon="12.435195"><ele>349.20000000000005</ele><time>2026-03-22T08:32:24.561Z</time></trkpt><trkpt lat="43.9454017" lon="12.435055"><ele>347.6</ele><time>2026-03-22T08:32:25.561Z</time></trkpt><trkpt lat="43.9453567" lon="12.4349383"><ele>346.0</ele><time>2026-03-22T08:32:26.561Z</time></trkpt><trkpt lat="43.9452917" lon="12.43486"><ele>346.0</ele><time>2026-03-22T08:32:27.56Z</time></trkpt><trkpt lat="43.9452117" lon="12.43481"><ele>346.0</ele><time>2026-03-22T08:32:28.56Z</time></trkpt><trkpt lat="43.945125" lon="12.4347983"><ele>346.0</ele><time>2026-03-22T08:32:29.56Z</time></trkpt><trkpt lat="43.945035" lon="12.4348167"><ele>346.0</ele><time>2026-03-22T08:32:30.561Z</time></trkpt><trkpt lat="43.944945" lon="12.4348767"><ele>346.0</ele><time>2026-03-22T08:32:31.56Z</time></trkpt><trkpt lat="43.944855" lon="12.43496"><ele>347.20000000000005</ele><time>2026-03-22T08:32:32.561Z</time></trkpt><trkpt lat="43.94477" lon="12.435045"><ele>348.40000000000003</ele><time>2026-03-22T08:32:33.561Z</time></trkpt><trkpt lat="43.94468" lon="12.43513"><ele>349.6</ele><time>2026-03-22T08:32:34.561Z</time></trkpt><trkpt lat="43.9445933" lon="12.4352017"><ele>350.8</ele><time>2026-03-22T08:32:35.56Z</time></trkpt><trkpt lat="43.9444917" lon="12.4352417"><ele>352.0</ele><time>2026-03-22T08:32:36.56Z</time></trkpt><trkpt lat="43.9443833" lon="12.4352367"><ele>352.0</ele><time>2026-03-22T08:32:37.561Z</time></trkpt><trkpt lat="43.9442733" lon="12.4351867"><ele>352.0</ele><time>2026-03-22T08:32:38.561Z</time></trkpt><trkpt lat="43.9441817" lon="12.43511"><ele>352.0</ele><time>2026-03-22T08:32:39.561Z</time></trkpt><trkpt lat="43.9441033" lon="12.434985"><ele>352.0</ele><time>2026-03-22T08:32:40.561Z</time></trkpt><trkpt lat="43.9440433" lon="12.4348333"><ele>350.25</ele><time>2026-03-22T08:32:41.561Z</time></trkpt><trkpt lat="43.944" lon="12.4346583"><ele>348.5</ele><time>2026-03-22T08:32:42.561Z</time></trkpt><trkpt lat="43.9439733" lon="12.434475"><ele>346.75</ele><time>2026-03-22T08:32:43.561Z</time></trkpt><trkpt lat="43.94396" lon="12.4342983"><ele>345.0</ele><time>2026-03-22T08:32:44.561Z</time></trkpt><trkpt lat="43.9439433" lon="12.4341283"><ele>344.2</ele><time>2026-03-22T08:32:45.561Z</time></trkpt><trkpt lat="43.94393" lon="12.4339783"><ele>343.4</ele><time>2026-03-22T08:32:46.561Z</time></trkpt><trkpt lat="43.94392" lon="12.43383"><ele>342.6</ele><time>2026-03-22T08:32:47.56Z</time></trkpt><trkpt lat="43.9439" lon="12.4336817"><ele>341.8</ele><time>2026-03-22T08:32:48.561Z</time></trkpt><trkpt lat="43.943845" lon="12.433545"><ele>341.0</ele><time>2026-03-22T08:32:49.561Z</time></trkpt><trkpt lat="43.94377" lon="12.4334267"><ele>340.5</ele><time>2026-03-22T08:32:50.561Z</time></trkpt><trkpt lat="43.9436783" lon="12.43332"><ele>340.0</ele><time>2026-03-22T08:32:51.56Z</time></trkpt><trkpt lat="43.9435817" lon="12.4332317"><ele>339.5</ele><time>2026-03-22T08:32:52.561Z</time></trkpt><trkpt lat="43.943485" lon="12.4331533"><ele>339.0</ele><time>2026-03-22T08:32:53.561Z</time></trkpt><trkpt lat="43.9433933" lon="12.4330767"><ele>338.5</ele><time>2026-03-22T08:32:54.56Z</time></trkpt><trkpt lat="43.9433033" lon="12.4330067"><ele>338.0</ele><time>2026-03-22T08:32:55.56Z</time></trkpt><trkpt lat="43.9432233" lon="12.4329367"><ele>337.5</ele><time>2026-03-22T08:32:56.561Z</time></trkpt><trkpt lat="43.9431583" lon="12.43288"><ele>337.0</ele><time>2026-03-22T08:32:57.561Z</time></trkpt><trkpt lat="43.9431" lon="12.4328283"><ele>336.5</ele><time>2026-03-22T08:32:58.561Z</time></trkpt><trkpt lat="43.9430433" lon="12.432775"><ele>336.0</ele><time>2026-03-22T08:32:59.561Z</time></trkpt><trkpt lat="43.9430017" lon="12.4327017"><ele>336.0</ele><time>2026-03-22T08:33:00.561Z</time></trkpt><trkpt lat="43.9429683" lon="12.4326133"><ele>336.0</ele><time>2026-03-22T08:33:01.561Z</time></trkpt><trkpt lat="43.9429467" lon="12.4325067"><ele>336.0</ele><time>2026-03-22T08:33:02.56Z</time></trkpt><trkpt lat="43.9429233" lon="12.4324"><ele>336.0</ele><time>2026-03-22T08:33:03.561Z</time></trkpt><trkpt lat="43.9428867" lon="12.4322883"><ele>336.0</ele><time>2026-03-22T08:33:04.56Z</time></trkpt><trkpt lat="43.9428317" lon="12.4321767"><ele>336.0</ele><time>2026-03-22T08:33:05.561Z</time></trkpt><trkpt lat="43.9427917" lon="12.432055"><ele>336.75</ele><time>2026-03-22T08:33:06.561Z</time></trkpt><trkpt lat="43.9427933" lon="12.4319133"><ele>337.5</ele><time>2026-03-22T08:33:07.561Z</time></trkpt><trkpt lat="43.94283" lon="12.4317517"><ele>338.25</ele><time>2026-03-22T08:33:08.561Z</time></trkpt><trkpt lat="43.9428933" lon="12.4315933"><ele>339.0</ele><time>2026-03-22T08:33:09.56Z</time></trkpt><trkpt lat="43.9429867" lon="12.4314433"><ele>339.0</ele><time>2026-03-22T08:33:10.561Z</time></trkpt><trkpt lat="43.943105" lon="12.4313183"><ele>339.0</ele><time>2026-03-22T08:33:11.561Z</time></trkpt><trkpt lat="43.9432517" lon="12.4312167"><ele>339.0</ele><time>2026-03-22T08:33:12.561Z</time></trkpt><trkpt lat="43.943425" lon="12.4311233"><ele>337.6666666666667</ele><time>2026-03-22T08:33:13.561Z</time></trkpt><trkpt lat="43.9436333" lon="12.431035"><ele>336.33333333333337</ele><time>2026-03-22T08:33:14.56Z</time></trkpt><trkpt lat="43.9438383" lon="12.4309467"><ele>335.0</ele><time>2026-03-22T08:33:15.56Z</time></trkpt><trkpt lat="43.9440283" lon="12.4308733"><ele>332.33333333333337</ele><time>2026-03-22T08:33:16.561Z</time></trkpt><trkpt lat="43.944215" lon="12.4307917"><ele>329.6666666666667</ele><time>2026-03-22T08:33:17.561Z</time></trkpt><trkpt lat="43.9443883" lon="12.4306567"><ele>327.0</ele><time>2026-03-22T08:33:18.56Z</time></trkpt><trkpt lat="43.944565" lon="12.430475"><ele>328.0</ele><time>2026-03-22T08:33:19.561Z</time></trkpt><trkpt lat="43.94475" lon="12.4302817"><ele>329.0</ele><time>2026-03-22T08:33:20.561Z</time></trkpt><trkpt lat="43.94492" lon="12.4300967"><ele>330.0</ele><time>2026-03-22T08:33:21.561Z</time></trkpt><trkpt lat="43.94508" lon="12.4299217"><ele>327.6666666666667</ele><time>2026-03-22T08:33:22.56Z</time></trkpt><trkpt lat="43.945225" lon="12.4297467"><ele>325.33333333333337</ele><time>2026-03-22T08:33:23.56Z</time></trkpt><trkpt lat="43.9453617" lon="12.4295733"><ele>323.0</ele><time>2026-03-22T08:33:24.561Z</time></trkpt><trkpt lat="43.94548" lon="12.4293833"><ele>323.0</ele><time>2026-03-22T08:33:25.56Z</time></trkpt><trkpt lat="43.9455833" lon="12.4291817"><ele>323.0</ele><time>2026-03-22T08:33:26.561Z</time></trkpt><trkpt lat="43.9456817" lon="12.4289667"><ele>323.0</ele><time>2026-03-22T08:33:27.56Z</time></trkpt><trkpt lat="43.9457733" lon="12.4287583"><ele>322.6666666666667</ele><time>2026-03-22T08:33:28.56Z</time></trkpt><trkpt lat="43.9458617" lon="12.4285583"><ele>322.3333333333333</ele><time>2026-03-22T08:33:29.56Z</time></trkpt><trkpt lat="43.945945" lon="12.4283567"><ele>322.0</ele><time>2026-03-22T08:33:30.561Z</time></trkpt><trkpt lat="43.9460333" lon="12.4281617"><ele>320.0</ele><time>2026-03-22T08:33:31.561Z</time></trkpt><trkpt lat="43.9461267" lon="12.4279633"><ele>318.0</ele><time>2026-03-22T08:33:32.561Z</time></trkpt><trkpt lat="43.9462167" lon="12.4277767"><ele>316.0</ele><time>2026-03-22T08:33:33.561Z</time></trkpt><trkpt lat="43.9463" lon="12.4275883"><ele>316.0</ele><time>2026-03-22T08:33:34.561Z</time></trkpt><trkpt lat="43.9463867" lon="12.4273933"><ele>316.0</ele><time>2026-03-22T08:33:35.56Z</time></trkpt><trkpt lat="43.946475" lon="12.4271983"><ele>316.0</ele><time>2026-03-22T08:33:36.56Z</time></trkpt><trkpt lat="43.9465733" lon="12.4270067"><ele>317.3333333333333</ele><time>2026-03-22T08:33:37.56Z</time></trkpt><trkpt lat="43.9466617" lon="12.4268117"><ele>318.6666666666667</ele><time>2026-03-22T08:33:38.561Z</time></trkpt><trkpt lat="43.94676" lon="12.42661"><ele>320.0</ele><time>2026-03-22T08:33:39.561Z</time></trkpt><trkpt lat="43.9468167" lon="12.4264083"><ele>316.6666666666667</ele><time>2026-03-22T08:33:40.617Z</time></trkpt><trkpt lat="43.9468617" lon="12.426135"><ele>313.3333333333333</ele><time>2026-03-22T08:33:41.986Z</time></trkpt><trkpt lat="43.9469183" lon="12.4259117"><ele>310.0</ele><time>2026-03-22T08:33:43.058Z</time></trkpt><trkpt lat="43.946965" lon="12.4256483"><ele>310.66666666666663</ele><time>2026-03-22T08:33:44.058Z</time></trkpt><trkpt lat="43.9469917" lon="12.4254117"><ele>311.3333333333333</ele><time>2026-03-22T08:33:45.058Z</time></trkpt><trkpt lat="43.9470033" lon="12.4250617"><ele>312.0</ele><time>2026-03-22T08:33:46.558Z</time></trkpt><trkpt lat="43.94701" lon="12.42485"><ele>312.25</ele><time>2026-03-22T08:33:47.557Z</time></trkpt><trkpt lat="43.9470167" lon="12.4246383"><ele>312.5</ele><time>2026-03-22T08:33:48.558Z</time></trkpt><trkpt lat="43.94702" lon="12.42444"><ele>312.75</ele><time>2026-03-22T08:33:49.557Z</time></trkpt><trkpt lat="43.947015" lon="12.424235"><ele>313.0</ele><time>2026-03-22T08:33:50.558Z</time></trkpt><trkpt lat="43.947015" lon="12.4240317"><ele>313.0</ele><time>2026-03-22T08:33:51.558Z</time></trkpt><trkpt lat="43.9470067" lon="12.4238283"><ele>313.0</ele><time>2026-03-22T08:33:52.558Z</time></trkpt><trkpt lat="43.946995" lon="12.4236317"><ele>313.0</ele><time>2026-03-22T08:33:53.558Z</time></trkpt><trkpt lat="43.9469817" lon="12.4234317"><ele>313.0</ele><time>2026-03-22T08:33:54.557Z</time></trkpt><trkpt lat="43.94696" lon="12.42323"><ele>312.25</ele><time>2026-03-22T08:33:55.558Z</time></trkpt><trkpt lat="43.946925" lon="12.4230433"><ele>311.5</ele><time>2026-03-22T08:33:56.558Z</time></trkpt><trkpt lat="43.94688" lon="12.4228583"><ele>310.75</ele><time>2026-03-22T08:33:57.558Z</time></trkpt><trkpt lat="43.9468217" lon="12.4226833"><ele>310.0</ele><time>2026-03-22T08:33:58.558Z</time></trkpt><trkpt lat="43.9467467" lon="12.4225067"><ele>311.5</ele><time>2026-03-22T08:33:59.557Z</time></trkpt><trkpt lat="43.9466667" lon="12.4223417"><ele>313.0</ele><time>2026-03-22T08:34:00.558Z</time></trkpt><trkpt lat="43.9465917" lon="12.4221783"><ele>314.5</ele><time>2026-03-22T08:34:01.558Z</time></trkpt><trkpt lat="43.9465217" lon="12.4220217"><ele>316.0</ele><time>2026-03-22T08:34:02.558Z</time></trkpt><trkpt lat="43.946455" lon="12.4218533"><ele>316.0</ele><time>2026-03-22T08:34:03.558Z</time></trkpt><trkpt lat="43.94639" lon="12.4216933"><ele>316.0</ele><time>2026-03-22T08:34:04.557Z</time></trkpt><trkpt lat="43.9463233" lon="12.4215417"><ele>316.0</ele><time>2026-03-22T08:34:05.558Z</time></trkpt><trkpt lat="43.9462483" lon="12.4213967"><ele>316.0</ele><time>2026-03-22T08:34:06.558Z</time></trkpt><trkpt lat="43.9461883" lon="12.421245"><ele>314.25</ele><time>2026-03-22T08:34:07.557Z</time></trkpt><trkpt lat="43.9461283" lon="12.4211017"><ele>312.5</ele><time>2026-03-22T08:34:08.558Z</time></trkpt><trkpt lat="43.946065" lon="12.4209733"><ele>310.75</ele><time>2026-03-22T08:34:09.557Z</time></trkpt><trkpt lat="43.9460033" lon="12.42084"><ele>309.0</ele><time>2026-03-22T08:34:10.558Z</time></trkpt><trkpt lat="43.9459433" lon="12.420705"><ele>309.0</ele><time>2026-03-22T08:34:11.557Z</time></trkpt><trkpt lat="43.945885" lon="12.4205733"><ele>309.0</ele><time>2026-03-22T08:34:12.558Z</time></trkpt><trkpt lat="43.945825" lon="12.420435"><ele>309.0</ele><time>2026-03-22T08:34:13.557Z</time></trkpt><trkpt lat="43.9457633" lon="12.4202817"><ele>309.0</ele><time>2026-03-22T08:34:14.558Z</time></trkpt><trkpt lat="43.9457" lon="12.4201283"><ele>308.75</ele><time>2026-03-22T08:34:15.557Z</time></trkpt><trkpt lat="43.9456317" lon="12.419975"><ele>308.5</ele><time>2026-03-22T08:34:16.558Z</time></trkpt><trkpt lat="43.9455633" lon="12.4198133"><ele>308.25</ele><time>2026-03-22T08:34:17.558Z</time></trkpt><trkpt lat="43.9454817" lon="12.41965"><ele>308.0</ele><time>2026-03-22T08:34:18.558Z</time></trkpt><trkpt lat="43.9454033" lon="12.4194817"><ele>305.75</ele><time>2026-03-22T08:34:19.558Z</time></trkpt><trkpt lat="43.9453267" lon="12.4193017"><ele>303.5</ele><time>2026-03-22T08:34:20.557Z</time></trkpt><trkpt lat="43.9452517" lon="12.4191417"><ele>301.25</ele><time>2026-03-22T08:34:21.558Z</time></trkpt><trkpt lat="43.9451733" lon="12.4189867"><ele>299.0</ele><time>2026-03-22T08:34:22.558Z</time></trkpt><trkpt lat="43.9451083" lon="12.4188433"><ele>298.8</ele><time>2026-03-22T08:34:23.557Z</time></trkpt><trkpt lat="43.9450517" lon="12.4187017"><ele>298.59999999999997</ele><time>2026-03-22T08:34:24.557Z</time></trkpt><trkpt lat="43.9450067" lon="12.4185767"><ele>298.4</ele><time>2026-03-22T08:34:25.557Z</time></trkpt><trkpt lat="43.9449717" lon="12.4184633"><ele>298.2</ele><time>2026-03-22T08:34:26.557Z</time></trkpt><trkpt lat="43.9449633" lon="12.4183383"><ele>298.0</ele><time>2026-03-22T08:34:27.558Z</time></trkpt><trkpt lat="43.944975" lon="12.4182117"><ele>298.0</ele><time>2026-03-22T08:34:28.558Z</time></trkpt><trkpt lat="43.945025" lon="12.41809"><ele>298.0</ele><time>2026-03-22T08:34:29.557Z</time></trkpt><trkpt lat="43.9450983" lon="12.4179933"><ele>298.0</ele><time>2026-03-22T08:34:30.558Z</time></trkpt><trkpt lat="43.9451833" lon="12.41793"><ele>298.0</ele><time>2026-03-22T08:34:31.558Z</time></trkpt><trkpt lat="43.9452867" lon="12.4179267"><ele>298.0</ele><time>2026-03-22T08:34:32.558Z</time></trkpt><trkpt lat="43.9453983" lon="12.4179767"><ele>295.75</ele><time>2026-03-22T08:34:33.558Z</time></trkpt><trkpt lat="43.9455117" lon="12.4180683"><ele>293.5</ele><time>2026-03-22T08:34:34.558Z</time></trkpt><trkpt lat="43.94563" lon="12.418175"><ele>291.25</ele><time>2026-03-22T08:34:35.557Z</time></trkpt><trkpt lat="43.9457583" lon="12.4183083"><ele>289.0</ele><time>2026-03-22T08:34:36.557Z</time></trkpt><trkpt lat="43.9458967" lon="12.4184367"><ele>289.5</ele><time>2026-03-22T08:34:37.558Z</time></trkpt><trkpt lat="43.9460283" lon="12.4185583"><ele>290.0</ele><time>2026-03-22T08:34:38.558Z</time></trkpt><trkpt lat="43.9461483" lon="12.4186717"><ele>290.5</ele><time>2026-03-22T08:34:39.558Z</time></trkpt><trkpt lat="43.946255" lon="12.4187817"><ele>291.0</ele><time>2026-03-22T08:34:40.558Z</time></trkpt><trkpt lat="43.9463567" lon="12.4188667"><ele>291.0</ele><time>2026-03-22T08:34:41.558Z</time></trkpt><trkpt lat="43.9464583" lon="12.4189067"><ele>291.0</ele><time>2026-03-22T08:34:42.557Z</time></trkpt><trkpt lat="43.9465683" lon="12.4189183"><ele>291.0</ele><time>2026-03-22T08:34:43.557Z</time></trkpt><trkpt lat="43.9466833" lon="12.41886"><ele>291.0</ele><time>2026-03-22T08:34:44.557Z</time></trkpt><trkpt lat="43.9467883" lon="12.4187267"><ele>288.0</ele><time>2026-03-22T08:34:45.558Z</time></trkpt><trkpt lat="43.946895" lon="12.4185533"><ele>285.0</ele><time>2026-03-22T08:34:46.558Z</time></trkpt><trkpt lat="43.9470133" lon="12.4183783"><ele>282.0</ele><time>2026-03-22T08:34:47.557Z</time></trkpt><trkpt lat="43.94712" lon="12.4182117"><ele>282.0</ele><time>2026-03-22T08:34:48.558Z</time></trkpt><trkpt lat="43.947215" lon="12.4180517"><ele>282.0</ele><time>2026-03-22T08:34:49.558Z</time></trkpt><trkpt lat="43.94729" lon="12.4178767"><ele>282.0</ele><time>2026-03-22T08:34:50.557Z</time></trkpt><trkpt lat="43.9473417" lon="12.4176733"><ele>278.3333333333333</ele><time>2026-03-22T08:34:51.557Z</time></trkpt><trkpt lat="43.94737" lon="12.4174433"><ele>274.66666666666663</ele><time>2026-03-22T08:34:52.558Z</time></trkpt><trkpt lat="43.94739" lon="12.4172183"><ele>271.0</ele><time>2026-03-22T08:34:53.557Z</time></trkpt><trkpt lat="43.9474117" lon="12.417"><ele>269.0</ele><time>2026-03-22T08:34:54.557Z</time></trkpt><trkpt lat="43.9474383" lon="12.4167867"><ele>267.0</ele><time>2026-03-22T08:34:55.558Z</time></trkpt><trkpt lat="43.94746" lon="12.416575"><ele>265.0</ele><time>2026-03-22T08:34:56.557Z</time></trkpt><trkpt lat="43.947485" lon="12.4163533"><ele>264.66666666666663</ele><time>2026-03-22T08:34:57.557Z</time></trkpt><trkpt lat="43.94751" lon="12.4161183"><ele>264.3333333333333</ele><time>2026-03-22T08:34:58.558Z</time></trkpt><trkpt lat="43.9475317" lon="12.41587"><ele>264.0</ele><time>2026-03-22T08:34:59.558Z</time></trkpt><trkpt lat="43.9475533" lon="12.4156283"><ele>261.3333333333333</ele><time>2026-03-22T08:35:00.557Z</time></trkpt><trkpt lat="43.9475817" lon="12.41539"><ele>258.66666666666663</ele><time>2026-03-22T08:35:01.558Z</time></trkpt><trkpt lat="43.9476067" lon="12.4151667"><ele>256.0</ele><time>2026-03-22T08:35:02.557Z</time></trkpt><trkpt lat="43.9476333" lon="12.4149517"><ele>256.0</ele><time>2026-03-22T08:35:03.558Z</time></trkpt><trkpt lat="43.947655" lon="12.414745"><ele>256.0</ele><time>2026-03-22T08:35:04.558Z</time></trkpt><trkpt lat="43.9476917" lon="12.414555"><ele>256.0</ele><time>2026-03-22T08:35:05.558Z</time></trkpt><trkpt lat="43.94774" lon="12.4143733"><ele>256.0</ele><time>2026-03-22T08:35:06.557Z</time></trkpt><trkpt lat="43.9478167" lon="12.4141983"><ele>252.66666666666666</ele><time>2026-03-22T08:35:07.558Z</time></trkpt><trkpt lat="43.9479283" lon="12.414035"><ele>249.33333333333331</ele><time>2026-03-22T08:35:08.558Z</time></trkpt><trkpt lat="43.9480583" lon="12.4138917"><ele>246.0</ele><time>2026-03-22T08:35:09.558Z</time></trkpt><trkpt lat="43.9481633" lon="12.413725"><ele>243.66666666666669</ele><time>2026-03-22T08:35:10.558Z</time></trkpt><trkpt lat="43.9482483" lon="12.4135367"><ele>241.33333333333334</ele><time>2026-03-22T08:35:11.558Z</time></trkpt><trkpt lat="43.9483033" lon="12.4133167"><ele>239.0</ele><time>2026-03-22T08:35:12.558Z</time></trkpt><trkpt lat="43.9483433" lon="12.4130917"><ele>237.66666666666669</ele><time>2026-03-22T08:35:13.558Z</time></trkpt><trkpt lat="43.9483717" lon="12.4128683"><ele>236.33333333333331</ele><time>2026-03-22T08:35:14.558Z</time></trkpt><trkpt lat="43.948385" lon="12.412655"><ele>235.0</ele><time>2026-03-22T08:35:15.557Z</time></trkpt><trkpt lat="43.9483617" lon="12.4124283"><ele>235.0</ele><time>2026-03-22T08:35:16.557Z</time></trkpt><trkpt lat="43.9483083" lon="12.4122033"><ele>235.0</ele><time>2026-03-22T08:35:17.557Z</time></trkpt><trkpt lat="43.94825" lon="12.4120067"><ele>235.0</ele><time>2026-03-22T08:35:18.557Z</time></trkpt><trkpt lat="43.948205" lon="12.4118433"><ele>233.25</ele><time>2026-03-22T08:35:19.557Z</time></trkpt><trkpt lat="43.9481883" lon="12.411685"><ele>231.5</ele><time>2026-03-22T08:35:20.557Z</time></trkpt><trkpt lat="43.9482033" lon="12.4115333"><ele>229.75</ele><time>2026-03-22T08:35:21.558Z</time></trkpt><trkpt lat="43.9482567" lon="12.4114017"><ele>228.0</ele><time>2026-03-22T08:35:22.558Z</time></trkpt><trkpt lat="43.9483467" lon="12.4112983"><ele>223.0</ele><time>2026-03-22T08:35:23.558Z</time></trkpt><trkpt lat="43.9484667" lon="12.4112133"><ele>218.0</ele><time>2026-03-22T08:35:24.557Z</time></trkpt><trkpt lat="43.9486083" lon="12.411135"><ele>213.0</ele><time>2026-03-22T08:35:25.558Z</time></trkpt><trkpt lat="43.9487667" lon="12.4110683"><ele>213.0</ele><time>2026-03-22T08:35:26.558Z</time></trkpt><trkpt lat="43.948925" lon="12.4110183"><ele>213.0</ele><time>2026-03-22T08:35:27.557Z</time></trkpt><trkpt lat="43.9490833" lon="12.4109783"><ele>213.0</ele><time>2026-03-22T08:35:28.557Z</time></trkpt><trkpt lat="43.9492567" lon="12.4109583"><ele>211.33333333333331</ele><time>2026-03-22T08:35:29.558Z</time></trkpt><trkpt lat="43.94943" lon="12.4109467"><ele>209.66666666666666</ele><time>2026-03-22T08:35:30.557Z</time></trkpt><trkpt lat="43.9495967" lon="12.41095"><ele>208.0</ele><time>2026-03-22T08:35:31.557Z</time></trkpt><trkpt lat="43.9497633" lon="12.410975"><ele>208.0</ele><time>2026-03-22T08:35:32.558Z</time></trkpt><trkpt lat="43.9499233" lon="12.41104"><ele>208.0</ele><time>2026-03-22T08:35:33.557Z</time></trkpt><trkpt lat="43.95006" lon="12.4111017"><ele>208.0</ele><time>2026-03-22T08:35:34.558Z</time></trkpt><trkpt lat="43.9501783" lon="12.4111533"><ele>208.0</ele><time>2026-03-22T08:35:35.558Z</time></trkpt><trkpt lat="43.9502783" lon="12.41115"><ele>205.4</ele><time>2026-03-22T08:35:36.557Z</time></trkpt><trkpt lat="43.9503767" lon="12.4110933"><ele>202.8</ele><time>2026-03-22T08:35:37.557Z</time></trkpt><trkpt lat="43.950445" lon="12.4109883"><ele>200.2</ele><time>2026-03-22T08:35:38.558Z</time></trkpt><trkpt lat="43.950485" lon="12.4108417"><ele>197.6</ele><time>2026-03-22T08:35:39.558Z</time></trkpt><trkpt lat="43.950485" lon="12.410675"><ele>195.0</ele><time>2026-03-22T08:35:40.557Z</time></trkpt><trkpt lat="43.95046" lon="12.4105067"><ele>194.5</ele><time>2026-03-22T08:35:41.558Z</time></trkpt><trkpt lat="43.9504" lon="12.4103533"><ele>194.0</ele><time>2026-03-22T08:35:42.557Z</time></trkpt><trkpt lat="43.9503067" lon="12.4102183"><ele>193.5</ele><time>2026-03-22T08:35:43.558Z</time></trkpt><trkpt lat="43.95018" lon="12.4100917"><ele>193.0</ele><time>2026-03-22T08:35:44.558Z</time></trkpt><trkpt lat="43.9500483" lon="12.4099683"><ele>191.66666666666666</ele><time>2026-03-22T08:35:45.558Z</time></trkpt><trkpt lat="43.9499233" lon="12.4098467"><ele>190.33333333333331</ele><time>2026-03-22T08:35:46.558Z</time></trkpt><trkpt lat="43.9498" lon="12.4097283"><ele>189.0</ele><time>2026-03-22T08:35:47.558Z</time></trkpt><trkpt lat="43.949675" lon="12.40962"><ele>189.0</ele><time>2026-03-22T08:35:48.557Z</time></trkpt><trkpt lat="43.9495467" lon="12.4095333"><ele>189.0</ele><time>2026-03-22T08:35:49.557Z</time></trkpt><trkpt lat="43.9494117" lon="12.4094617"><ele>189.0</ele><time>2026-03-22T08:35:50.558Z</time></trkpt><trkpt lat="43.9492883" lon="12.4093767"><ele>189.0</ele><time>2026-03-22T08:35:51.558Z</time></trkpt><trkpt lat="43.9491817" lon="12.4092533"><ele>189.25</ele><time>2026-03-22T08:35:52.558Z</time></trkpt><trkpt lat="43.9490783" lon="12.4091033"><ele>189.5</ele><time>2026-03-22T08:35:53.558Z</time></trkpt><trkpt lat="43.94898" lon="12.4089467"><ele>189.75</ele><time>2026-03-22T08:35:54.558Z</time></trkpt><trkpt lat="43.94887" lon="12.4088117"><ele>190.0</ele><time>2026-03-22T08:35:55.557Z</time></trkpt><trkpt lat="43.94874" lon="12.4087033"><ele>188.25</ele><time>2026-03-22T08:35:56.557Z</time></trkpt><trkpt lat="43.9486033" lon="12.4086217"><ele>186.5</ele><time>2026-03-22T08:35:57.558Z</time></trkpt><trkpt lat="43.9484667" lon="12.4085383"><ele>184.75</ele><time>2026-03-22T08:35:58.558Z</time></trkpt><trkpt lat="43.9483467" lon="12.408465"><ele>183.0</ele><time>2026-03-22T08:35:59.558Z</time></trkpt><trkpt lat="43.94824" lon="12.4083917"><ele>183.0</ele><time>2026-03-22T08:36:00.557Z</time></trkpt><trkpt lat="43.94815" lon="12.4083233"><ele>183.0</ele><time>2026-03-22T08:36:01.558Z</time></trkpt><trkpt lat="43.9480683" lon="12.40826"><ele>183.0</ele><time>2026-03-22T08:36:02.558Z</time></trkpt><trkpt lat="43.9480233" lon="12.40817"><ele>183.0</ele><time>2026-03-22T08:36:03.558Z</time></trkpt><trkpt lat="43.9480233" lon="12.408055"><ele>183.0</ele><time>2026-03-22T08:36:04.557Z</time></trkpt><trkpt lat="43.9480667" lon="12.4079383"><ele>179.0</ele><time>2026-03-22T08:36:05.558Z</time></trkpt><trkpt lat="43.948145" lon="12.4078717"><ele>175.0</ele><time>2026-03-22T08:36:06.557Z</time></trkpt><trkpt lat="43.9482433" lon="12.407855"><ele>171.0</ele><time>2026-03-22T08:36:07.558Z</time></trkpt><trkpt lat="43.948365" lon="12.4078817"><ele>167.0</ele><time>2026-03-22T08:36:08.558Z</time></trkpt><trkpt lat="43.94851" lon="12.4079383"><ele>166.5</ele><time>2026-03-22T08:36:09.557Z</time></trkpt><trkpt lat="43.948665" lon="12.4079867"><ele>166.0</ele><time>2026-03-22T08:36:10.558Z</time></trkpt><trkpt lat="43.9488017" lon="12.408"><ele>165.5</ele><time>2026-03-22T08:36:11.558Z</time></trkpt><trkpt lat="43.9489417" lon="12.407985"><ele>165.0</ele><time>2026-03-22T08:36:12.558Z</time></trkpt><trkpt lat="43.94908" lon="12.4079433"><ele>165.5</ele><time>2026-03-22T08:36:13.557Z</time></trkpt><trkpt lat="43.9492133" lon="12.407875"><ele>166.0</ele><time>2026-03-22T08:36:14.558Z</time></trkpt><trkpt lat="43.9493417" lon="12.4077783"><ele>166.5</ele><time>2026-03-22T08:36:15.557Z</time></trkpt><trkpt lat="43.9494733" lon="12.4076783"><ele>167.0</ele><time>2026-03-22T08:36:16.558Z</time></trkpt><trkpt lat="43.949595" lon="12.4075717"><ele>167.0</ele><time>2026-03-22T08:36:17.558Z</time></trkpt><trkpt lat="43.9497067" lon="12.4074667"><ele>167.0</ele><time>2026-03-22T08:36:18.558Z</time></trkpt><trkpt lat="43.9498033" lon="12.40736"><ele>167.0</ele><time>2026-03-22T08:36:19.557Z</time></trkpt><trkpt lat="43.9499067" lon="12.4072567"><ele>167.0</ele><time>2026-03-22T08:36:20.558Z</time></trkpt><trkpt lat="43.9500117" lon="12.4071567"><ele>164.6</ele><time>2026-03-22T08:36:21.558Z</time></trkpt><trkpt lat="43.950105" lon="12.4070617"><ele>162.2</ele><time>2026-03-22T08:36:22.557Z</time></trkpt><trkpt lat="43.9501983" lon="12.4069683"><ele>159.8</ele><time>2026-03-22T08:36:23.558Z</time></trkpt><trkpt lat="43.9502917" lon="12.40689"><ele>157.4</ele><time>2026-03-22T08:36:24.558Z</time></trkpt><trkpt lat="43.950375" lon="12.4068067"><ele>155.0</ele><time>2026-03-22T08:36:25.558Z</time></trkpt><trkpt lat="43.950465" lon="12.406735"><ele>155.0</ele><time>2026-03-22T08:36:26.557Z</time></trkpt><trkpt lat="43.9505683" lon="12.4066717"><ele>155.0</ele><time>2026-03-22T08:36:27.558Z</time></trkpt><trkpt lat="43.9506833" lon="12.4066083"><ele>155.0</ele><time>2026-03-22T08:36:28.558Z</time></trkpt><trkpt lat="43.9508033" lon="12.4065417"><ele>155.0</ele><time>2026-03-22T08:36:29.558Z</time></trkpt><trkpt lat="43.9509317" lon="12.4064733"><ele>154.5</ele><time>2026-03-22T08:36:30.558Z</time></trkpt><trkpt lat="43.9510683" lon="12.4064167"><ele>154.0</ele><time>2026-03-22T08:36:31.558Z</time></trkpt><trkpt lat="43.9512017" lon="12.4063533"><ele>153.5</ele><time>2026-03-22T08:36:32.558Z</time></trkpt><trkpt lat="43.9513283" lon="12.406295"><ele>153.0</ele><time>2026-03-22T08:36:33.557Z</time></trkpt><trkpt lat="43.9514517" lon="12.40623"><ele>151.5</ele><time>2026-03-22T08:36:34.558Z</time></trkpt><trkpt lat="43.951575" lon="12.406165"><ele>150.0</ele><time>2026-03-22T08:36:35.557Z</time></trkpt><trkpt lat="43.951685" lon="12.406095"><ele>148.5</ele><time>2026-03-22T08:36:36.558Z</time></trkpt><trkpt lat="43.951795" lon="12.406025"><ele>147.0</ele><time>2026-03-22T08:36:37.558Z</time></trkpt><trkpt lat="43.9519017" lon="12.4059633"><ele>146.25</ele><time>2026-03-22T08:36:38.557Z</time></trkpt><trkpt lat="43.9520083" lon="12.405915"><ele>145.5</ele><time>2026-03-22T08:36:39.557Z</time></trkpt><trkpt lat="43.9521217" lon="12.405865"><ele>144.75</ele><time>2026-03-22T08:36:40.557Z</time></trkpt><trkpt lat="43.9522517" lon="12.405835"><ele>144.0</ele><time>2026-03-22T08:36:41.558Z</time></trkpt><trkpt lat="43.9523917" lon="12.4058167"><ele>144.0</ele><time>2026-03-22T08:36:42.557Z</time></trkpt><trkpt lat="43.95253" lon="12.40578"><ele>144.0</ele><time>2026-03-22T08:36:43.558Z</time></trkpt><trkpt lat="43.9526833" lon="12.40574"><ele>144.0</ele><time>2026-03-22T08:36:44.558Z</time></trkpt><trkpt lat="43.9528383" lon="12.4056967"><ele>144.0</ele><time>2026-03-22T08:36:45.558Z</time></trkpt><trkpt lat="43.9529933" lon="12.4056567"><ele>144.0</ele><time>2026-03-22T08:36:46.557Z</time></trkpt><trkpt lat="43.953145" lon="12.4056183"><ele>144.0</ele><time>2026-03-22T08:36:47.558Z</time></trkpt><trkpt lat="43.9532983" lon="12.40559"><ele>143.0</ele><time>2026-03-22T08:36:48.558Z</time></trkpt><trkpt lat="43.9534433" lon="12.405555"><ele>142.0</ele><time>2026-03-22T08:36:49.557Z</time></trkpt><trkpt lat="43.95359" lon="12.4055233"><ele>141.0</ele><time>2026-03-22T08:36:50.558Z</time></trkpt><trkpt lat="43.953745" lon="12.4054983"><ele>140.75</ele><time>2026-03-22T08:36:51.558Z</time></trkpt><trkpt lat="43.95389" lon="12.405465"><ele>140.5</ele><time>2026-03-22T08:36:52.558Z</time></trkpt><trkpt lat="43.954035" lon="12.4054383"><ele>140.25</ele><time>2026-03-22T08:36:53.558Z</time></trkpt><trkpt lat="43.9541717" lon="12.4054117"><ele>140.0</ele><time>2026-03-22T08:36:54.559Z</time></trkpt><trkpt lat="43.9543033" lon="12.4053817"><ele>139.75</ele><time>2026-03-22T08:36:55.559Z</time></trkpt><trkpt lat="43.9544317" lon="12.4053467"><ele>139.5</ele><time>2026-03-22T08:36:56.558Z</time></trkpt><trkpt lat="43.9545683" lon="12.4053233"><ele>139.25</ele><time>2026-03-22T08:36:57.559Z</time></trkpt><trkpt lat="43.95471" lon="12.4053033"><ele>139.0</ele><time>2026-03-22T08:36:58.559Z</time></trkpt><trkpt lat="43.9548533" lon="12.405285"><ele>139.0</ele><time>2026-03-22T08:36:59.559Z</time></trkpt><trkpt lat="43.9550017" lon="12.40526"><ele>139.0</ele><time>2026-03-22T08:37:00.559Z</time></trkpt><trkpt lat="43.9551617" lon="12.4052333"><ele>139.0</ele><time>2026-03-22T08:37:01.559Z</time></trkpt><trkpt lat="43.9553267" lon="12.4052067"><ele>137.66666666666669</ele><time>2026-03-22T08:37:02.559Z</time></trkpt><trkpt lat="43.9555017" lon="12.4051817"><ele>136.33333333333334</ele><time>2026-03-22T08:37:03.559Z</time></trkpt><trkpt lat="43.9556933" lon="12.4051583"><ele>135.0</ele><time>2026-03-22T08:37:04.559Z</time></trkpt><trkpt lat="43.95589" lon="12.4051283"><ele>134.33333333333334</ele><time>2026-03-22T08:37:05.559Z</time></trkpt><trkpt lat="43.9560917" lon="12.4050933"><ele>133.66666666666669</ele><time>2026-03-22T08:37:06.559Z</time></trkpt><trkpt lat="43.9562983" lon="12.4050617"><ele>133.0</ele><time>2026-03-22T08:37:07.558Z</time></trkpt><trkpt lat="43.9565183" lon="12.405015"><ele>132.5</ele><time>2026-03-22T08:37:08.558Z</time></trkpt><trkpt lat="43.956755" lon="12.40496"><ele>132.0</ele><time>2026-03-22T08:37:09.558Z</time></trkpt><trkpt lat="43.9569917" lon="12.40492"><ele>132.0</ele><time>2026-03-22T08:37:10.559Z</time></trkpt><trkpt lat="43.95721" lon="12.4048967"><ele>132.0</ele><time>2026-03-22T08:37:11.558Z</time></trkpt><trkpt lat="43.9574183" lon="12.40486"><ele>132.0</ele><time>2026-03-22T08:37:12.559Z</time></trkpt><trkpt lat="43.9576333" lon="12.4048083"><ele>132.0</ele><time>2026-03-22T08:37:13.558Z</time></trkpt><trkpt lat="43.9578533" lon="12.4046983"><ele>132.0</ele><time>2026-03-22T08:37:14.558Z</time></trkpt><trkpt lat="43.9580617" lon="12.404545"><ele>132.0</ele><time>2026-03-22T08:37:15.559Z</time></trkpt><trkpt lat="43.9582667" lon="12.4043517"><ele>132.0</ele><time>2026-03-22T08:37:16.558Z</time></trkpt><trkpt lat="43.9584617" lon="12.40412"><ele>135.5</ele><time>2026-03-22T08:37:17.558Z</time></trkpt><trkpt lat="43.9586333" lon="12.4038583"><ele>139.0</ele><time>2026-03-22T08:37:18.559Z</time></trkpt><trkpt lat="43.9587667" lon="12.403595"><ele>139.0</ele><time>2026-03-22T08:37:19.558Z</time></trkpt><trkpt lat="43.95888" lon="12.4033333"><ele>139.0</ele><time>2026-03-22T08:37:20.558Z</time></trkpt><trkpt lat="43.9589683" lon="12.4030867"><ele>139.0</ele><time>2026-03-22T08:37:21.559Z</time></trkpt><trkpt lat="43.959035" lon="12.40285"><ele>138.66666666666669</ele><time>2026-03-22T08:37:22.559Z</time></trkpt><trkpt lat="43.9591067" lon="12.4026333"><ele>138.33333333333334</ele><time>2026-03-22T08:37:23.558Z</time></trkpt><trkpt lat="43.9591767" lon="12.40245"><ele>138.0</ele><time>2026-03-22T08:37:24.559Z</time></trkpt><trkpt lat="43.9592483" lon="12.4022967"><ele>138.0</ele><time>2026-03-22T08:37:25.559Z</time></trkpt><trkpt lat="43.95933" lon="12.4021783"><ele>138.0</ele><time>2026-03-22T08:37:26.559Z</time></trkpt><trkpt lat="43.9594183" lon="12.4021033"><ele>138.0</ele><time>2026-03-22T08:37:27.559Z</time></trkpt><trkpt lat="43.9595183" lon="12.4020883"><ele>138.0</ele><time>2026-03-22T08:37:28.559Z</time></trkpt><trkpt lat="43.9596333" lon="12.4021117"><ele>138.0</ele><time>2026-03-22T08:37:29.559Z</time></trkpt><trkpt lat="43.9597667" lon="12.4021533"><ele>138.0</ele><time>2026-03-22T08:37:30.558Z</time></trkpt><trkpt lat="43.959915" lon="12.4022"><ele>138.0</ele><time>2026-03-22T08:37:31.558Z</time></trkpt><trkpt lat="43.9600683" lon="12.402225"><ele>138.0</ele><time>2026-03-22T08:37:32.559Z</time></trkpt><trkpt lat="43.9602317" lon="12.4022333"><ele>138.66666666666666</ele><time>2026-03-22T08:37:33.559Z</time></trkpt><trkpt lat="43.9604133" lon="12.402205"><ele>139.33333333333331</ele><time>2026-03-22T08:37:34.559Z</time></trkpt><trkpt lat="43.9605917" lon="12.4021517"><ele>140.0</ele><time>2026-03-22T08:37:35.559Z</time></trkpt><trkpt lat="43.9607483" lon="12.4020867"><ele>137.75</ele><time>2026-03-22T08:37:36.559Z</time></trkpt><trkpt lat="43.9608883" lon="12.402015"><ele>135.5</ele><time>2026-03-22T08:37:37.559Z</time></trkpt><trkpt lat="43.9610133" lon="12.4019567"><ele>133.25</ele><time>2026-03-22T08:37:38.559Z</time></trkpt><trkpt lat="43.9611183" lon="12.40191"><ele>131.0</ele><time>2026-03-22T08:37:39.559Z</time></trkpt><trkpt lat="43.96121" lon="12.4018817"><ele>131.0</ele><time>2026-03-22T08:37:40.558Z</time></trkpt><trkpt lat="43.9612883" lon="12.401865"><ele>131.0</ele><time>2026-03-22T08:37:41.559Z</time></trkpt><trkpt lat="43.96136" lon="12.4018533"><ele>131.0</ele><time>2026-03-22T08:37:42.559Z</time></trkpt><trkpt lat="43.96143" lon="12.401835"><ele>131.0</ele><time>2026-03-22T08:37:43.559Z</time></trkpt><trkpt lat="43.9614883" lon="12.4017867"><ele>131.0</ele><time>2026-03-22T08:37:44.558Z</time></trkpt><trkpt lat="43.9615217" lon="12.4017117"><ele>131.0</ele><time>2026-03-22T08:37:45.559Z</time></trkpt><trkpt lat="43.961515" lon="12.4016217"><ele>131.0</ele><time>2026-03-22T08:37:46.559Z</time></trkpt><trkpt lat="43.96146" lon="12.4015433"><ele>131.0</ele><time>2026-03-22T08:37:47.558Z</time></trkpt><trkpt lat="43.96138" lon="12.401475"><ele>131.0</ele><time>2026-03-22T08:37:48.559Z</time></trkpt><trkpt lat="43.9612717" lon="12.4014017"><ele>131.0</ele><time>2026-03-22T08:37:49.559Z</time></trkpt><trkpt lat="43.96115" lon="12.401295"><ele>131.0</ele><time>2026-03-22T08:37:50.559Z</time></trkpt><trkpt lat="43.961025" lon="12.4011583"><ele>130.33333333333331</ele><time>2026-03-22T08:37:51.558Z</time></trkpt><trkpt lat="43.9608933" lon="12.40099"><ele>129.66666666666666</ele><time>2026-03-22T08:37:52.559Z</time></trkpt><trkpt lat="43.960755" lon="12.4008017"><ele>129.0</ele><time>2026-03-22T08:37:53.559Z</time></trkpt><trkpt lat="43.9606217" lon="12.400595"><ele>127.66666666666666</ele><time>2026-03-22T08:37:54.559Z</time></trkpt><trkpt lat="43.9604933" lon="12.400365"><ele>126.33333333333333</ele><time>2026-03-22T08:37:55.558Z</time></trkpt><trkpt lat="43.9603567" lon="12.4001217"><ele>125.0</ele><time>2026-03-22T08:37:56.558Z</time></trkpt><trkpt lat="43.96024" lon="12.3998817"><ele>125.0</ele><time>2026-03-22T08:37:57.559Z</time></trkpt><trkpt lat="43.9601217" lon="12.39966"><ele>125.0</ele><time>2026-03-22T08:37:58.559Z</time></trkpt><trkpt lat="43.9600067" lon="12.3994383"><ele>125.0</ele><time>2026-03-22T08:37:59.559Z</time></trkpt><trkpt lat="43.9598917" lon="12.3992217"><ele>125.0</ele><time>2026-03-22T08:38:00.559Z</time></trkpt><trkpt lat="43.9597783" lon="12.399005"><ele>125.0</ele><time>2026-03-22T08:38:01.559Z</time></trkpt><trkpt lat="43.9596633" lon="12.398795"><ele>125.0</ele><time>2026-03-22T08:38:02.558Z</time></trkpt><trkpt lat="43.9595467" lon="12.3985783"><ele>127.33333333333333</ele><time>2026-03-22T08:38:03.559Z</time></trkpt><trkpt lat="43.959425" lon="12.3983467"><ele>129.66666666666666</ele><time>2026-03-22T08:38:04.558Z</time></trkpt><trkpt lat="43.9593" lon="12.3981"><ele>132.0</ele><time>2026-03-22T08:38:05.559Z</time></trkpt><trkpt lat="43.9591883" lon="12.3978383"><ele>134.5</ele><time>2026-03-22T08:38:06.558Z</time></trkpt><trkpt lat="43.9590817" lon="12.3975733"><ele>137.0</ele><time>2026-03-22T08:38:07.559Z</time></trkpt><trkpt lat="43.9589633" lon="12.3972917"><ele>133.5</ele><time>2026-03-22T08:38:08.559Z</time></trkpt><trkpt lat="43.9588433" lon="12.3969883"><ele>130.0</ele><time>2026-03-22T08:38:09.559Z</time></trkpt><trkpt lat="43.9587217" lon="12.39666"><ele>128.5</ele><time>2026-03-22T08:38:10.559Z</time></trkpt><trkpt lat="43.9585933" lon="12.39632"><ele>127.0</ele><time>2026-03-22T08:38:11.559Z</time></trkpt><trkpt lat="43.9584633" lon="12.39596"><ele>129.5</ele><time>2026-03-22T08:38:12.559Z</time></trkpt><trkpt lat="43.9583317" lon="12.395595"><ele>132.0</ele><time>2026-03-22T08:38:13.559Z</time></trkpt><trkpt lat="43.9582033" lon="12.39525"><ele>132.0</ele><time>2026-03-22T08:38:14.559Z</time></trkpt><trkpt lat="43.9580933" lon="12.39492"><ele>132.0</ele><time>2026-03-22T08:38:15.559Z</time></trkpt><trkpt lat="43.9579883" lon="12.394605"><ele>130.0</ele><time>2026-03-22T08:38:16.559Z</time></trkpt><trkpt lat="43.9578833" lon="12.39429"><ele>128.0</ele><time>2026-03-22T08:38:17.559Z</time></trkpt><trkpt lat="43.9577717" lon="12.3939767"><ele>127.5</ele><time>2026-03-22T08:38:18.559Z</time></trkpt><trkpt lat="43.9576617" lon="12.39368"><ele>127.0</ele><time>2026-03-22T08:38:19.559Z</time></trkpt><trkpt lat="43.9575633" lon="12.3934033"><ele>128.33333333333334</ele><time>2026-03-22T08:38:20.559Z</time></trkpt><trkpt lat="43.95747" lon="12.39313"><ele>129.66666666666666</ele><time>2026-03-22T08:38:21.558Z</time></trkpt><trkpt lat="43.9573783" lon="12.392855"><ele>131.0</ele><time>2026-03-22T08:38:22.558Z</time></trkpt><trkpt lat="43.9572833" lon="12.3925817"><ele>131.0</ele><time>2026-03-22T08:38:23.558Z</time></trkpt><trkpt lat="43.9572017" lon="12.3923133"><ele>131.0</ele><time>2026-03-22T08:38:24.558Z</time></trkpt><trkpt lat="43.957135" lon="12.3920583"><ele>131.0</ele><time>2026-03-22T08:38:25.558Z</time></trkpt><trkpt lat="43.9570733" lon="12.3918067"><ele>130.66666666666666</ele><time>2026-03-22T08:38:26.559Z</time></trkpt><trkpt lat="43.9570233" lon="12.391545"><ele>130.33333333333334</ele><time>2026-03-22T08:38:27.558Z</time></trkpt><trkpt lat="43.956995" lon="12.39126"><ele>130.0</ele><time>2026-03-22T08:38:28.558Z</time></trkpt><trkpt lat="43.9569767" lon="12.3909617"><ele>130.0</ele><time>2026-03-22T08:38:29.559Z</time></trkpt><trkpt lat="43.9569767" lon="12.39067"><ele>130.0</ele><time>2026-03-22T08:38:30.559Z</time></trkpt><trkpt lat="43.956985" lon="12.3903883"><ele>130.0</ele><time>2026-03-22T08:38:31.559Z</time></trkpt><trkpt lat="43.9570017" lon="12.3901133"><ele>130.0</ele><time>2026-03-22T08:38:32.559Z</time></trkpt><trkpt lat="43.957025" lon="12.3898467"><ele>130.0</ele><time>2026-03-22T08:38:33.558Z</time></trkpt><trkpt lat="43.9570517" lon="12.389605"><ele>130.0</ele><time>2026-03-22T08:38:34.559Z</time></trkpt><trkpt lat="43.95709" lon="12.3893733"><ele>130.0</ele><time>2026-03-22T08:38:35.558Z</time></trkpt><trkpt lat="43.9571433" lon="12.38914"><ele>130.0</ele><time>2026-03-22T08:38:36.558Z</time></trkpt><trkpt lat="43.9571983" lon="12.3888867"><ele>130.0</ele><time>2026-03-22T08:38:37.558Z</time></trkpt><trkpt lat="43.9572683" lon="12.3885983"><ele>132.0</ele><time>2026-03-22T08:38:38.558Z</time></trkpt><trkpt lat="43.9573567" lon="12.3882917"><ele>134.0</ele><time>2026-03-22T08:38:39.559Z</time></trkpt><trkpt lat="43.957455" lon="12.387965"><ele>131.5</ele><time>2026-03-22T08:38:40.559Z</time></trkpt><trkpt lat="43.957545" lon="12.3876283"><ele>129.0</ele><time>2026-03-22T08:38:41.559Z</time></trkpt><trkpt lat="43.9576383" lon="12.3872867"><ele>131.5</ele><time>2026-03-22T08:38:42.558Z</time></trkpt><trkpt lat="43.957725" lon="12.386965"><ele>134.0</ele><time>2026-03-22T08:38:43.559Z</time></trkpt><trkpt lat="43.9578017" lon="12.38664"><ele>134.5</ele><time>2026-03-22T08:38:44.559Z</time></trkpt><trkpt lat="43.9578683" lon="12.3862967"><ele>135.0</ele><time>2026-03-22T08:38:45.559Z</time></trkpt><trkpt lat="43.9578967" lon="12.3859433"><ele>135.0</ele><time>2026-03-22T08:38:46.559Z</time></trkpt><trkpt lat="43.957905" lon="12.3855883"><ele>135.0</ele><time>2026-03-22T08:38:47.558Z</time></trkpt><trkpt lat="43.95787" lon="12.3852317"><ele>134.5</ele><time>2026-03-22T08:38:48.559Z</time></trkpt><trkpt lat="43.9578133" lon="12.38489"><ele>134.0</ele><time>2026-03-22T08:38:49.558Z</time></trkpt><trkpt lat="43.957735" lon="12.3845683"><ele>134.0</ele><time>2026-03-22T08:38:50.559Z</time></trkpt><trkpt lat="43.957635" lon="12.3842633"><ele>134.0</ele><time>2026-03-22T08:38:51.559Z</time></trkpt><trkpt lat="43.95751" lon="12.38395"><ele>140.5</ele><time>2026-03-22T08:38:52.559Z</time></trkpt><trkpt lat="43.9573733" lon="12.3836433"><ele>147.0</ele><time>2026-03-22T08:38:53.559Z</time></trkpt><trkpt lat="43.9572533" lon="12.3833483"><ele>147.0</ele><time>2026-03-22T08:38:54.558Z</time></trkpt><trkpt lat="43.95714" lon="12.3830617"><ele>147.0</ele><time>2026-03-22T08:38:55.558Z</time></trkpt><trkpt lat="43.9570217" lon="12.3827817"><ele>143.5</ele><time>2026-03-22T08:38:56.558Z</time></trkpt><trkpt lat="43.9569067" lon="12.3825083"><ele>140.0</ele><time>2026-03-22T08:38:57.558Z</time></trkpt><trkpt lat="43.9567933" lon="12.3822383"><ele>146.0</ele><time>2026-03-22T08:38:58.559Z</time></trkpt><trkpt lat="43.9566833" lon="12.3819683"><ele>152.0</ele><time>2026-03-22T08:38:59.559Z</time></trkpt><trkpt lat="43.9565733" lon="12.3816933"><ele>152.0</ele><time>2026-03-22T08:39:00.559Z</time></trkpt><trkpt lat="43.9564667" lon="12.3814083"><ele>152.0</ele><time>2026-03-22T08:39:01.559Z</time></trkpt><trkpt lat="43.956345" lon="12.3811083"><ele>149.5</ele><time>2026-03-22T08:39:02.559Z</time></trkpt><trkpt lat="43.9562217" lon="12.3808133"><ele>147.0</ele><time>2026-03-22T08:39:03.559Z</time></trkpt><trkpt lat="43.9561017" lon="12.3805367"><ele>143.5</ele><time>2026-03-22T08:39:04.559Z</time></trkpt><trkpt lat="43.9559883" lon="12.38026"><ele>140.0</ele><time>2026-03-22T08:39:05.559Z</time></trkpt><trkpt lat="43.955875" lon="12.3799833"><ele>146.5</ele><time>2026-03-22T08:39:06.559Z</time></trkpt><trkpt lat="43.95576" lon="12.3797083"><ele>153.0</ele><time>2026-03-22T08:39:07.558Z</time></trkpt><trkpt lat="43.955645" lon="12.37944"><ele>153.0</ele><time>2026-03-22T08:39:08.559Z</time></trkpt><trkpt lat="43.9555333" lon="12.37916"><ele>153.0</ele><time>2026-03-22T08:39:09.559Z</time></trkpt><trkpt lat="43.9554217" lon="12.3788783"><ele>152.0</ele><time>2026-03-22T08:39:10.559Z</time></trkpt><trkpt lat="43.9553083" lon="12.378605"><ele>151.0</ele><time>2026-03-22T08:39:11.558Z</time></trkpt><trkpt lat="43.955195" lon="12.3783317"><ele>151.0</ele><time>2026-03-22T08:39:12.558Z</time></trkpt><trkpt lat="43.9550867" lon="12.3780567"><ele>151.0</ele><time>2026-03-22T08:39:13.558Z</time></trkpt><trkpt lat="43.9549733" lon="12.37778"><ele>153.0</ele><time>2026-03-22T08:39:14.558Z</time></trkpt><trkpt lat="43.9548683" lon="12.3775117"><ele>155.0</ele><time>2026-03-22T08:39:15.558Z</time></trkpt><trkpt lat="43.95476" lon="12.3772533"><ele>157.0</ele><time>2026-03-22T08:39:16.559Z</time></trkpt><trkpt lat="43.9546567" lon="12.37699"><ele>157.0</ele><time>2026-03-22T08:39:17.559Z</time></trkpt><trkpt lat="43.9545533" lon="12.37672"><ele>157.0</ele><time>2026-03-22T08:39:18.558Z</time></trkpt><trkpt lat="43.9544583" lon="12.3764367"><ele>157.0</ele><time>2026-03-22T08:39:19.559Z</time></trkpt><trkpt lat="43.954365" lon="12.3761517"><ele>156.66666666666669</ele><time>2026-03-22T08:39:20.558Z</time></trkpt><trkpt lat="43.9542833" lon="12.3758817"><ele>156.33333333333334</ele><time>2026-03-22T08:39:21.558Z</time></trkpt><trkpt lat="43.9542033" lon="12.3756217"><ele>156.0</ele><time>2026-03-22T08:39:22.559Z</time></trkpt><trkpt lat="43.954135" lon="12.3753633"><ele>158.0</ele><time>2026-03-22T08:39:23.558Z</time></trkpt><trkpt lat="43.9540667" lon="12.3751117"><ele>160.0</ele><time>2026-03-22T08:39:24.559Z</time></trkpt><trkpt lat="43.953995" lon="12.3748733"><ele>162.0</ele><time>2026-03-22T08:39:25.559Z</time></trkpt><trkpt lat="43.9539317" lon="12.3746533"><ele>162.0</ele><time>2026-03-22T08:39:26.559Z</time></trkpt><trkpt lat="43.9538667" lon="12.37444"><ele>162.0</ele><time>2026-03-22T08:39:27.559Z</time></trkpt><trkpt lat="43.9538117" lon="12.3742483"><ele>162.0</ele><time>2026-03-22T08:39:28.559Z</time></trkpt><trkpt lat="43.9537617" lon="12.37408"><ele>162.0</ele><time>2026-03-22T08:39:29.559Z</time></trkpt><trkpt lat="43.9537167" lon="12.3739433"><ele>161.8</ele><time>2026-03-22T08:39:30.558Z</time></trkpt><trkpt lat="43.95368" lon="12.37382"><ele>161.6</ele><time>2026-03-22T08:39:31.559Z</time></trkpt><trkpt lat="43.9536517" lon="12.3737117"><ele>161.4</ele><time>2026-03-22T08:39:32.559Z</time></trkpt><trkpt lat="43.9536217" lon="12.37362"><ele>161.20000000000002</ele><time>2026-03-22T08:39:33.558Z</time></trkpt><trkpt lat="43.9535733" lon="12.37348"><ele>161.0</ele><time>2026-03-22T08:39:35.559Z</time></trkpt><trkpt lat="43.9535367" lon="12.373335"><ele>161.0</ele><time>2026-03-22T08:39:37.559Z</time></trkpt><trkpt lat="43.953485" lon="12.3731783"><ele>161.0</ele><time>2026-03-22T08:39:39.559Z</time></trkpt><trkpt lat="43.95346" lon="12.3730683"><ele>161.0</ele><time>2026-03-22T08:39:40.559Z</time></trkpt><trkpt lat="43.953425" lon="12.3729417"><ele>161.0</ele><time>2026-03-22T08:39:41.559Z</time></trkpt><trkpt lat="43.953385" lon="12.3728117"><ele>161.0</ele><time>2026-03-22T08:39:42.559Z</time></trkpt><trkpt lat="43.9533417" lon="12.372665"><ele>161.60000000000002</ele><time>2026-03-22T08:39:43.559Z</time></trkpt><trkpt lat="43.9532967" lon="12.372515"><ele>162.2</ele><time>2026-03-22T08:39:44.559Z</time></trkpt><trkpt lat="43.95326" lon="12.3723717"><ele>162.8</ele><time>2026-03-22T08:39:45.559Z</time></trkpt><trkpt lat="43.9532217" lon="12.3722383"><ele>163.39999999999998</ele><time>2026-03-22T08:39:46.559Z</time></trkpt><trkpt lat="43.9531817" lon="12.372095"><ele>164.0</ele><time>2026-03-22T08:39:47.558Z</time></trkpt><trkpt lat="43.9531333" lon="12.3719317"><ele>164.0</ele><time>2026-03-22T08:39:48.559Z</time></trkpt><trkpt lat="43.9530767" lon="12.3717517"><ele>164.0</ele><time>2026-03-22T08:39:49.559Z</time></trkpt><trkpt lat="43.9530183" lon="12.3715717"><ele>164.0</ele><time>2026-03-22T08:39:50.558Z</time></trkpt><trkpt lat="43.9529667" lon="12.3713967"><ele>164.0</ele><time>2026-03-22T08:39:51.559Z</time></trkpt><trkpt lat="43.9529183" lon="12.37123"><ele>164.0</ele><time>2026-03-22T08:39:52.559Z</time></trkpt><trkpt lat="43.9528717" lon="12.3710633"><ele>164.0</ele><time>2026-03-22T08:39:53.559Z</time></trkpt><trkpt lat="43.9528183" lon="12.370885"><ele>164.0</ele><time>2026-03-22T08:39:54.559Z</time></trkpt><trkpt lat="43.9527617" lon="12.3706933"><ele>164.0</ele><time>2026-03-22T08:39:55.559Z</time></trkpt><trkpt lat="43.9527083" lon="12.3705017"><ele>163.33333333333331</ele><time>2026-03-22T08:39:56.558Z</time></trkpt><trkpt lat="43.952645" lon="12.3703067"><ele>162.66666666666666</ele><time>2026-03-22T08:39:57.559Z</time></trkpt><trkpt lat="43.952585" lon="12.3701117"><ele>162.0</ele><time>2026-03-22T08:39:58.559Z</time></trkpt><trkpt lat="43.9525267" lon="12.369915"><ele>163.25</ele><time>2026-03-22T08:39:59.558Z</time></trkpt><trkpt lat="43.95247" lon="12.3697233"><ele>164.5</ele><time>2026-03-22T08:40:00.559Z</time></trkpt><trkpt lat="43.9524033" lon="12.3695417"><ele>165.75</ele><time>2026-03-22T08:40:01.559Z</time></trkpt><trkpt lat="43.9523317" lon="12.3693583"><ele>167.0</ele><time>2026-03-22T08:40:02.558Z</time></trkpt><trkpt lat="43.95226" lon="12.3691883"><ele>167.0</ele><time>2026-03-22T08:40:03.558Z</time></trkpt><trkpt lat="43.9521833" lon="12.3690283"><ele>167.0</ele><time>2026-03-22T08:40:04.559Z</time></trkpt><trkpt lat="43.9520967" lon="12.3688667"><ele>167.0</ele><time>2026-03-22T08:40:05.558Z</time></trkpt><trkpt lat="43.9520033" lon="12.368705"><ele>167.0</ele><time>2026-03-22T08:40:06.559Z</time></trkpt><trkpt lat="43.9519067" lon="12.368545"><ele>167.33333333333331</ele><time>2026-03-22T08:40:07.558Z</time></trkpt><trkpt lat="43.9518083" lon="12.36838"><ele>167.66666666666666</ele><time>2026-03-22T08:40:08.559Z</time></trkpt><trkpt lat="43.9516967" lon="12.3682167"><ele>168.0</ele><time>2026-03-22T08:40:09.558Z</time></trkpt><trkpt lat="43.9515667" lon="12.3680633"><ele>165.33333333333334</ele><time>2026-03-22T08:40:10.559Z</time></trkpt><trkpt lat="43.9514183" lon="12.36791"><ele>162.66666666666669</ele><time>2026-03-22T08:40:11.559Z</time></trkpt><trkpt lat="43.95126" lon="12.36774"><ele>160.0</ele><time>2026-03-22T08:40:12.559Z</time></trkpt><trkpt lat="43.9510917" lon="12.3675517"><ele>160.0</ele><time>2026-03-22T08:40:13.559Z</time></trkpt><trkpt lat="43.9509333" lon="12.3673683"><ele>160.0</ele><time>2026-03-22T08:40:14.559Z</time></trkpt><trkpt lat="43.950785" lon="12.3671983"><ele>160.0</ele><time>2026-03-22T08:40:15.559Z</time></trkpt><trkpt lat="43.9506417" lon="12.36705"><ele>159.0</ele><time>2026-03-22T08:40:16.559Z</time></trkpt><trkpt lat="43.9505083" lon="12.3668983"><ele>158.0</ele><time>2026-03-22T08:40:17.559Z</time></trkpt><trkpt lat="43.95038" lon="12.366745"><ele>157.0</ele><time>2026-03-22T08:40:18.559Z</time></trkpt><trkpt lat="43.950265" lon="12.366605"><ele>157.0</ele><time>2026-03-22T08:40:19.558Z</time></trkpt><trkpt lat="43.9501533" lon="12.3664667"><ele>157.0</ele><time>2026-03-22T08:40:20.558Z</time></trkpt><trkpt lat="43.9500333" lon="12.3663333"><ele>157.0</ele><time>2026-03-22T08:40:21.559Z</time></trkpt><trkpt lat="43.94991" lon="12.3661867"><ele>160.33333333333334</ele><time>2026-03-22T08:40:22.559Z</time></trkpt><trkpt lat="43.94978" lon="12.3660217"><ele>163.66666666666666</ele><time>2026-03-22T08:40:23.559Z</time></trkpt><trkpt lat="43.94964" lon="12.365855"><ele>167.0</ele><time>2026-03-22T08:40:24.559Z</time></trkpt><trkpt lat="43.949495" lon="12.3656783"><ele>167.0</ele><time>2026-03-22T08:40:25.558Z</time></trkpt><trkpt lat="43.94936" lon="12.3654983"><ele>167.0</ele><time>2026-03-22T08:40:26.558Z</time></trkpt><trkpt lat="43.9492333" lon="12.36531"><ele>167.0</ele><time>2026-03-22T08:40:27.559Z</time></trkpt><trkpt lat="43.94911" lon="12.3651"><ele>167.0</ele><time>2026-03-22T08:40:28.559Z</time></trkpt><trkpt lat="43.9489983" lon="12.3648817"><ele>167.0</ele><time>2026-03-22T08:40:29.558Z</time></trkpt><trkpt lat="43.94889" lon="12.3646583"><ele>167.0</ele><time>2026-03-22T08:40:30.559Z</time></trkpt><trkpt lat="43.94879" lon="12.3644133"><ele>165.0</ele><time>2026-03-22T08:40:31.559Z</time></trkpt><trkpt lat="43.9486833" lon="12.3641517"><ele>163.0</ele><time>2026-03-22T08:40:32.559Z</time></trkpt><trkpt lat="43.9485817" lon="12.3638783"><ele>161.0</ele><time>2026-03-22T08:40:33.558Z</time></trkpt><trkpt lat="43.94848" lon="12.3635967"><ele>161.0</ele><time>2026-03-22T08:40:34.559Z</time></trkpt><trkpt lat="43.9483783" lon="12.36332"><ele>161.0</ele><time>2026-03-22T08:40:35.558Z</time></trkpt><trkpt lat="43.9482583" lon="12.3630567"><ele>161.0</ele><time>2026-03-22T08:40:36.558Z</time></trkpt><trkpt lat="43.9481217" lon="12.3627983"><ele>162.0</ele><time>2026-03-22T08:40:37.558Z</time></trkpt><trkpt lat="43.9479617" lon="12.3625517"><ele>163.0</ele><time>2026-03-22T08:40:38.559Z</time></trkpt><trkpt lat="43.94779" lon="12.362315"><ele>163.0</ele><time>2026-03-22T08:40:39.56Z</time></trkpt><trkpt lat="43.9476" lon="12.362095"><ele>163.0</ele><time>2026-03-22T08:40:40.56Z</time></trkpt><trkpt lat="43.947405" lon="12.3618867"><ele>163.0</ele><time>2026-03-22T08:40:41.56Z</time></trkpt><trkpt lat="43.9472117" lon="12.3616867"><ele>163.0</ele><time>2026-03-22T08:40:42.559Z</time></trkpt><trkpt lat="43.9470217" lon="12.36149"><ele>162.0</ele><time>2026-03-22T08:40:43.559Z</time></trkpt><trkpt lat="43.9468283" lon="12.3613033"><ele>161.0</ele><time>2026-03-22T08:40:44.56Z</time></trkpt><trkpt lat="43.946625" lon="12.361125"><ele>161.0</ele><time>2026-03-22T08:40:45.56Z</time></trkpt><trkpt lat="43.946415" lon="12.3609617"><ele>161.0</ele><time>2026-03-22T08:40:46.56Z</time></trkpt><trkpt lat="43.9461983" lon="12.3608067"><ele>161.0</ele><time>2026-03-22T08:40:47.56Z</time></trkpt><trkpt lat="43.94598" lon="12.3606483"><ele>161.0</ele><time>2026-03-22T08:40:48.56Z</time></trkpt><trkpt lat="43.9457683" lon="12.36047"><ele>160.5</ele><time>2026-03-22T08:40:49.559Z</time></trkpt><trkpt lat="43.9455633" lon="12.360295"><ele>160.0</ele><time>2026-03-22T08:40:50.559Z</time></trkpt><trkpt lat="43.9453883" lon="12.360095"><ele>160.0</ele><time>2026-03-22T08:40:51.56Z</time></trkpt><trkpt lat="43.9452383" lon="12.3598633"><ele>160.0</ele><time>2026-03-22T08:40:52.559Z</time></trkpt><trkpt lat="43.94509" lon="12.3596233"><ele>160.0</ele><time>2026-03-22T08:40:53.56Z</time></trkpt><trkpt lat="43.9449533" lon="12.3593967"><ele>160.0</ele><time>2026-03-22T08:40:54.56Z</time></trkpt><trkpt lat="43.9448167" lon="12.3591833"><ele>160.0</ele><time>2026-03-22T08:40:55.56Z</time></trkpt><trkpt lat="43.944685" lon="12.3589767"><ele>159.33333333333334</ele><time>2026-03-22T08:40:56.56Z</time></trkpt><trkpt lat="43.9445467" lon="12.3587567"><ele>158.66666666666666</ele><time>2026-03-22T08:40:57.559Z</time></trkpt><trkpt lat="43.9444117" lon="12.3585433"><ele>158.0</ele><time>2026-03-22T08:40:58.56Z</time></trkpt><trkpt lat="43.9442817" lon="12.3583283"><ele>158.66666666666666</ele><time>2026-03-22T08:40:59.56Z</time></trkpt><trkpt lat="43.9441483" lon="12.358115"><ele>159.33333333333334</ele><time>2026-03-22T08:41:00.559Z</time></trkpt><trkpt lat="43.9440117" lon="12.3579017"><ele>160.0</ele><time>2026-03-22T08:41:01.56Z</time></trkpt><trkpt lat="43.9438733" lon="12.35768"><ele>160.0</ele><time>2026-03-22T08:41:02.56Z</time></trkpt><trkpt lat="43.9437417" lon="12.3574667"><ele>160.0</ele><time>2026-03-22T08:41:03.559Z</time></trkpt><trkpt lat="43.94362" lon="12.3572683"><ele>160.0</ele><time>2026-03-22T08:41:04.559Z</time></trkpt><trkpt lat="43.94349" lon="12.3570683"><ele>160.66666666666669</ele><time>2026-03-22T08:41:05.56Z</time></trkpt><trkpt lat="43.9433483" lon="12.3568633"><ele>161.33333333333334</ele><time>2026-03-22T08:41:06.56Z</time></trkpt><trkpt lat="43.9432067" lon="12.356665"><ele>162.0</ele><time>2026-03-22T08:41:07.559Z</time></trkpt><trkpt lat="43.9430583" lon="12.3564917"><ele>161.66666666666666</ele><time>2026-03-22T08:41:08.56Z</time></trkpt><trkpt lat="43.9429083" lon="12.3563367"><ele>161.33333333333331</ele><time>2026-03-22T08:41:09.559Z</time></trkpt><trkpt lat="43.9427617" lon="12.356195"><ele>161.0</ele><time>2026-03-22T08:41:10.56Z</time></trkpt><trkpt lat="43.942615" lon="12.3560667"><ele>160.66666666666666</ele><time>2026-03-22T08:41:11.56Z</time></trkpt><trkpt lat="43.94247" lon="12.355935"><ele>160.33333333333334</ele><time>2026-03-22T08:41:12.56Z</time></trkpt><trkpt lat="43.9423233" lon="12.355805"><ele>160.0</ele><time>2026-03-22T08:41:13.56Z</time></trkpt><trkpt lat="43.94217" lon="12.3556783"><ele>160.33333333333334</ele><time>2026-03-22T08:41:14.56Z</time></trkpt><trkpt lat="43.9420033" lon="12.3555367"><ele>160.66666666666666</ele><time>2026-03-22T08:41:15.56Z</time></trkpt><trkpt lat="43.9418317" lon="12.3553683"><ele>161.0</ele><time>2026-03-22T08:41:16.56Z</time></trkpt><trkpt lat="43.9416617" lon="12.355215"><ele>161.66666666666666</ele><time>2026-03-22T08:41:17.56Z</time></trkpt><trkpt lat="43.941505" lon="12.3550783"><ele>162.33333333333334</ele><time>2026-03-22T08:41:18.559Z</time></trkpt><trkpt lat="43.9413583" lon="12.3549383"><ele>163.0</ele><time>2026-03-22T08:41:19.559Z</time></trkpt><trkpt lat="43.9412117" lon="12.3548033"><ele>163.0</ele><time>2026-03-22T08:41:20.559Z</time></trkpt><trkpt lat="43.941055" lon="12.354665"><ele>163.0</ele><time>2026-03-22T08:41:21.56Z</time></trkpt><trkpt lat="43.940885" lon="12.3545233"><ele>163.0</ele><time>2026-03-22T08:41:22.56Z</time></trkpt><trkpt lat="43.9407017" lon="12.3543617"><ele>163.0</ele><time>2026-03-22T08:41:23.559Z</time></trkpt><trkpt lat="43.9405117" lon="12.354175"><ele>163.0</ele><time>2026-03-22T08:41:24.559Z</time></trkpt><trkpt lat="43.9403083" lon="12.3539783"><ele>162.5</ele><time>2026-03-22T08:41:25.559Z</time></trkpt><trkpt lat="43.9401133" lon="12.3537883"><ele>162.0</ele><time>2026-03-22T08:41:26.56Z</time></trkpt><trkpt lat="43.939905" lon="12.3535983"><ele>164.0</ele><time>2026-03-22T08:41:27.559Z</time></trkpt><trkpt lat="43.939705" lon="12.353385"><ele>166.0</ele><time>2026-03-22T08:41:28.56Z</time></trkpt><trkpt lat="43.9395183" lon="12.35317"><ele>164.5</ele><time>2026-03-22T08:41:29.56Z</time></trkpt><trkpt lat="43.939345" lon="12.3529583"><ele>163.0</ele><time>2026-03-22T08:41:30.56Z</time></trkpt><trkpt lat="43.939175" lon="12.3527367"><ele>167.0</ele><time>2026-03-22T08:41:31.56Z</time></trkpt><trkpt lat="43.9390117" lon="12.3524967"><ele>171.0</ele><time>2026-03-22T08:41:32.56Z</time></trkpt><trkpt lat="43.9388583" lon="12.3522767"><ele>169.66666666666666</ele><time>2026-03-22T08:41:33.56Z</time></trkpt><trkpt lat="43.9387267" lon="12.35206"><ele>168.33333333333331</ele><time>2026-03-22T08:41:34.56Z</time></trkpt><trkpt lat="43.9385933" lon="12.3518633"><ele>167.0</ele><time>2026-03-22T08:41:35.559Z</time></trkpt><trkpt lat="43.9384717" lon="12.351675"><ele>170.0</ele><time>2026-03-22T08:41:36.56Z</time></trkpt><trkpt lat="43.9383583" lon="12.35148"><ele>173.0</ele><time>2026-03-22T08:41:37.559Z</time></trkpt><trkpt lat="43.9382667" lon="12.3512633"><ele>176.0</ele><time>2026-03-22T08:41:38.56Z</time></trkpt><trkpt lat="43.93821" lon="12.3510183"><ele>176.0</ele><time>2026-03-22T08:41:39.56Z</time></trkpt><trkpt lat="43.9381917" lon="12.350735"><ele>176.0</ele><time>2026-03-22T08:41:40.56Z</time></trkpt><trkpt lat="43.9382117" lon="12.3504267"><ele>176.0</ele><time>2026-03-22T08:41:41.56Z</time></trkpt><trkpt lat="43.9382517" lon="12.35012"><ele>177.0</ele><time>2026-03-22T08:41:42.56Z</time></trkpt><trkpt lat="43.9382783" lon="12.34984"><ele>178.0</ele><time>2026-03-22T08:41:43.56Z</time></trkpt><trkpt lat="43.9383033" lon="12.3495817"><ele>179.0</ele><time>2026-03-22T08:41:44.56Z</time></trkpt><trkpt lat="43.93833" lon="12.34933"><ele>180.0</ele><time>2026-03-22T08:41:45.56Z</time></trkpt><trkpt lat="43.9383417" lon="12.34906"><ele>181.0</ele><time>2026-03-22T08:41:46.56Z</time></trkpt><trkpt lat="43.9383117" lon="12.348785"><ele>182.0</ele><time>2026-03-22T08:41:47.559Z</time></trkpt><trkpt lat="43.9382617" lon="12.3485183"><ele>182.0</ele><time>2026-03-22T08:41:48.56Z</time></trkpt><trkpt lat="43.93818" lon="12.3482717"><ele>182.0</ele><time>2026-03-22T08:41:49.56Z</time></trkpt><trkpt lat="43.9380567" lon="12.3480467"><ele>182.0</ele><time>2026-03-22T08:41:50.559Z</time></trkpt><trkpt lat="43.9378933" lon="12.3478433"><ele>183.0</ele><time>2026-03-22T08:41:51.56Z</time></trkpt><trkpt lat="43.937705" lon="12.34765"><ele>184.0</ele><time>2026-03-22T08:41:52.56Z</time></trkpt><trkpt lat="43.9375017" lon="12.3474667"><ele>184.0</ele><time>2026-03-22T08:41:53.559Z</time></trkpt><trkpt lat="43.9372917" lon="12.34728"><ele>184.0</ele><time>2026-03-22T08:41:54.56Z</time></trkpt><trkpt lat="43.9370683" lon="12.3471067"><ele>183.5</ele><time>2026-03-22T08:41:55.56Z</time></trkpt><trkpt lat="43.9368333" lon="12.3469417"><ele>183.0</ele><time>2026-03-22T08:41:56.56Z</time></trkpt><trkpt lat="43.9365967" lon="12.3468017"><ele>183.0</ele><time>2026-03-22T08:41:57.56Z</time></trkpt><trkpt lat="43.9363633" lon="12.3466867"><ele>183.0</ele><time>2026-03-22T08:41:58.56Z</time></trkpt><trkpt lat="43.9361467" lon="12.3465867"><ele>183.0</ele><time>2026-03-22T08:41:59.559Z</time></trkpt><trkpt lat="43.9359433" lon="12.34648"><ele>183.0</ele><time>2026-03-22T08:42:00.56Z</time></trkpt><trkpt lat="43.9357467" lon="12.3463717"><ele>183.0</ele><time>2026-03-22T08:42:01.56Z</time></trkpt><trkpt lat="43.935565" lon="12.3462767"><ele>181.33333333333334</ele><time>2026-03-22T08:42:02.559Z</time></trkpt><trkpt lat="43.9353917" lon="12.3461733"><ele>179.66666666666669</ele><time>2026-03-22T08:42:03.56Z</time></trkpt><trkpt lat="43.9352367" lon="12.3460617"><ele>178.0</ele><time>2026-03-22T08:42:04.56Z</time></trkpt><trkpt lat="43.935105" lon="12.3459"><ele>179.33333333333334</ele><time>2026-03-22T08:42:05.56Z</time></trkpt><trkpt lat="43.93499" lon="12.345705"><ele>180.66666666666666</ele><time>2026-03-22T08:42:06.56Z</time></trkpt><trkpt lat="43.93489" lon="12.3454917"><ele>182.0</ele><time>2026-03-22T08:42:07.56Z</time></trkpt><trkpt lat="43.9348033" lon="12.3452883"><ele>182.0</ele><time>2026-03-22T08:42:08.56Z</time></trkpt><trkpt lat="43.9347117" lon="12.345105"><ele>182.0</ele><time>2026-03-22T08:42:09.56Z</time></trkpt><trkpt lat="43.9346283" lon="12.3449267"><ele>182.0</ele><time>2026-03-22T08:42:10.56Z</time></trkpt><trkpt lat="43.9345633" lon="12.3447417"><ele>181.0</ele><time>2026-03-22T08:42:11.56Z</time></trkpt><trkpt lat="43.934525" lon="12.3445367"><ele>180.0</ele><time>2026-03-22T08:42:12.56Z</time></trkpt><trkpt lat="43.934525" lon="12.34433"><ele>179.0</ele><time>2026-03-22T08:42:13.56Z</time></trkpt><trkpt lat="43.9345483" lon="12.344125"><ele>179.0</ele><time>2026-03-22T08:42:14.56Z</time></trkpt><trkpt lat="43.9345867" lon="12.3439183"><ele>179.0</ele><time>2026-03-22T08:42:15.559Z</time></trkpt><trkpt lat="43.9346333" lon="12.34372"><ele>179.0</ele><time>2026-03-22T08:42:16.559Z</time></trkpt><trkpt lat="43.93469" lon="12.343545"><ele>179.0</ele><time>2026-03-22T08:42:17.56Z</time></trkpt><trkpt lat="43.9347683" lon="12.3433933"><ele>179.0</ele><time>2026-03-22T08:42:18.56Z</time></trkpt><trkpt lat="43.9348683" lon="12.3432683"><ele>179.0</ele><time>2026-03-22T08:42:19.56Z</time></trkpt><trkpt lat="43.935" lon="12.343165"><ele>179.0</ele><time>2026-03-22T08:42:20.56Z</time></trkpt><trkpt lat="43.9351517" lon="12.3430717"><ele>180.0</ele><time>2026-03-22T08:42:21.56Z</time></trkpt><trkpt lat="43.9353033" lon="12.3429867"><ele>181.0</ele><time>2026-03-22T08:42:22.56Z</time></trkpt><trkpt lat="43.9354417" lon="12.3429"><ele>182.0</ele><time>2026-03-22T08:42:23.56Z</time></trkpt><trkpt lat="43.935575" lon="12.3428217"><ele>182.0</ele><time>2026-03-22T08:42:24.559Z</time></trkpt><trkpt lat="43.935715" lon="12.34274"><ele>182.0</ele><time>2026-03-22T08:42:25.559Z</time></trkpt><trkpt lat="43.9358483" lon="12.342645"><ele>182.0</ele><time>2026-03-22T08:42:26.56Z</time></trkpt><trkpt lat="43.9359733" lon="12.3425183"><ele>186.0</ele><time>2026-03-22T08:42:27.56Z</time></trkpt><trkpt lat="43.936075" lon="12.3423483"><ele>190.0</ele><time>2026-03-22T08:42:28.56Z</time></trkpt><trkpt lat="43.9361617" lon="12.3421667"><ele>194.0</ele><time>2026-03-22T08:42:29.56Z</time></trkpt><trkpt lat="43.9362083" lon="12.3419383"><ele>194.0</ele><time>2026-03-22T08:42:30.559Z</time></trkpt><trkpt lat="43.9362217" lon="12.3417033"><ele>194.0</ele><time>2026-03-22T08:42:31.56Z</time></trkpt><trkpt lat="43.936195" lon="12.34146"><ele>194.0</ele><time>2026-03-22T08:42:32.56Z</time></trkpt><trkpt lat="43.9361467" lon="12.341215"><ele>194.66666666666669</ele><time>2026-03-22T08:42:33.56Z</time></trkpt><trkpt lat="43.9360867" lon="12.34096"><ele>195.33333333333331</ele><time>2026-03-22T08:42:34.559Z</time></trkpt><trkpt lat="43.9360267" lon="12.3406917"><ele>196.0</ele><time>2026-03-22T08:42:35.559Z</time></trkpt><trkpt lat="43.9359783" lon="12.340425"><ele>193.33333333333331</ele><time>2026-03-22T08:42:36.56Z</time></trkpt><trkpt lat="43.9359233" lon="12.3401717"><ele>190.66666666666666</ele><time>2026-03-22T08:42:37.559Z</time></trkpt><trkpt lat="43.9358667" lon="12.339935"><ele>188.0</ele><time>2026-03-22T08:42:38.559Z</time></trkpt><trkpt lat="43.9358167" lon="12.33971"><ele>187.33333333333331</ele><time>2026-03-22T08:42:39.56Z</time></trkpt><trkpt lat="43.935795" lon="12.3394833"><ele>186.66666666666666</ele><time>2026-03-22T08:42:40.559Z</time></trkpt><trkpt lat="43.9357783" lon="12.3392733"><ele>186.0</ele><time>2026-03-22T08:42:41.559Z</time></trkpt><trkpt lat="43.9357817" lon="12.3390633"><ele>185.66666666666666</ele><time>2026-03-22T08:42:42.559Z</time></trkpt><trkpt lat="43.93579" lon="12.3388517"><ele>185.33333333333331</ele><time>2026-03-22T08:42:43.56Z</time></trkpt><trkpt lat="43.9358033" lon="12.33863"><ele>185.0</ele><time>2026-03-22T08:42:44.56Z</time></trkpt><trkpt lat="43.9358217" lon="12.3384017"><ele>185.0</ele><time>2026-03-22T08:42:45.56Z</time></trkpt><trkpt lat="43.935825" lon="12.33817"><ele>185.0</ele><time>2026-03-22T08:42:46.56Z</time></trkpt><trkpt lat="43.9358083" lon="12.33793"><ele>185.0</ele><time>2026-03-22T08:42:47.56Z</time></trkpt><trkpt lat="43.9357767" lon="12.337695"><ele>186.33333333333331</ele><time>2026-03-22T08:42:48.56Z</time></trkpt><trkpt lat="43.93572" lon="12.337475"><ele>187.66666666666666</ele><time>2026-03-22T08:42:49.56Z</time></trkpt><trkpt lat="43.9356333" lon="12.337265"><ele>189.0</ele><time>2026-03-22T08:42:50.56Z</time></trkpt><trkpt lat="43.9355333" lon="12.3370817"><ele>191.33333333333331</ele><time>2026-03-22T08:42:51.56Z</time></trkpt><trkpt lat="43.9354233" lon="12.3369167"><ele>193.66666666666666</ele><time>2026-03-22T08:42:52.559Z</time></trkpt><trkpt lat="43.9353133" lon="12.3367567"><ele>196.0</ele><time>2026-03-22T08:42:53.56Z</time></trkpt><trkpt lat="43.9351933" lon="12.3365917"><ele>196.0</ele><time>2026-03-22T08:42:54.56Z</time></trkpt><trkpt lat="43.9350567" lon="12.3364033"><ele>196.0</ele><time>2026-03-22T08:42:55.56Z</time></trkpt><trkpt lat="43.9349017" lon="12.336185"><ele>196.0</ele><time>2026-03-22T08:42:56.559Z</time></trkpt><trkpt lat="43.9347333" lon="12.335945"><ele>191.5</ele><time>2026-03-22T08:42:57.56Z</time></trkpt><trkpt lat="43.934555" lon="12.3356983"><ele>187.0</ele><time>2026-03-22T08:42:58.559Z</time></trkpt><trkpt lat="43.9343683" lon="12.3354383"><ele>184.0</ele><time>2026-03-22T08:42:59.56Z</time></trkpt><trkpt lat="43.9341783" lon="12.3351583"><ele>181.0</ele><time>2026-03-22T08:43:00.56Z</time></trkpt><trkpt lat="43.9339883" lon="12.3348717"><ele>181.5</ele><time>2026-03-22T08:43:01.56Z</time></trkpt><trkpt lat="43.9338133" lon="12.3345983"><ele>182.0</ele><time>2026-03-22T08:43:02.559Z</time></trkpt><trkpt lat="43.9336467" lon="12.3343417"><ele>182.0</ele><time>2026-03-22T08:43:03.559Z</time></trkpt><trkpt lat="43.9334833" lon="12.334095"><ele>182.0</ele><time>2026-03-22T08:43:04.56Z</time></trkpt><trkpt lat="43.93332" lon="12.3338517"><ele>184.0</ele><time>2026-03-22T08:43:05.56Z</time></trkpt><trkpt lat="43.9331517" lon="12.33361"><ele>186.0</ele><time>2026-03-22T08:43:06.56Z</time></trkpt><trkpt lat="43.9329817" lon="12.3333733"><ele>186.0</ele><time>2026-03-22T08:43:07.56Z</time></trkpt><trkpt lat="43.932815" lon="12.3331383"><ele>186.0</ele><time>2026-03-22T08:43:08.559Z</time></trkpt><trkpt lat="43.9326583" lon="12.3329183"><ele>185.0</ele><time>2026-03-22T08:43:09.56Z</time></trkpt><trkpt lat="43.9324967" lon="12.332705"><ele>184.0</ele><time>2026-03-22T08:43:10.559Z</time></trkpt><trkpt lat="43.932345" lon="12.3325017"><ele>183.0</ele><time>2026-03-22T08:43:11.56Z</time></trkpt><trkpt lat="43.9321983" lon="12.332295"><ele>183.0</ele><time>2026-03-22T08:43:12.56Z</time></trkpt><trkpt lat="43.9320583" lon="12.3320967"><ele>183.0</ele><time>2026-03-22T08:43:13.56Z</time></trkpt><trkpt lat="43.9319317" lon="12.3318933"><ele>183.0</ele><time>2026-03-22T08:43:14.56Z</time></trkpt><trkpt lat="43.93183" lon="12.3316733"><ele>183.0</ele><time>2026-03-22T08:43:15.56Z</time></trkpt><trkpt lat="43.9317633" lon="12.3314383"><ele>183.0</ele><time>2026-03-22T08:43:16.56Z</time></trkpt><trkpt lat="43.93171" lon="12.33119"><ele>183.0</ele><time>2026-03-22T08:43:17.559Z</time></trkpt><trkpt lat="43.9316533" lon="12.3309233"><ele>185.0</ele><time>2026-03-22T08:43:18.56Z</time></trkpt><trkpt lat="43.931595" lon="12.3306233"><ele>187.0</ele><time>2026-03-22T08:43:19.56Z</time></trkpt><trkpt lat="43.9315433" lon="12.33029"><ele>189.5</ele><time>2026-03-22T08:43:20.559Z</time></trkpt><trkpt lat="43.93149" lon="12.329955"><ele>192.0</ele><time>2026-03-22T08:43:21.56Z</time></trkpt><trkpt lat="43.9314417" lon="12.329615"><ele>193.0</ele><time>2026-03-22T08:43:22.56Z</time></trkpt><trkpt lat="43.9313783" lon="12.3292667"><ele>194.0</ele><time>2026-03-22T08:43:23.559Z</time></trkpt><trkpt lat="43.9313133" lon="12.32891"><ele>194.5</ele><time>2026-03-22T08:43:24.56Z</time></trkpt><trkpt lat="43.9312567" lon="12.3285733"><ele>195.0</ele><time>2026-03-22T08:43:25.56Z</time></trkpt><trkpt lat="43.9312167" lon="12.32825"><ele>195.66666666666669</ele><time>2026-03-22T08:43:26.56Z</time></trkpt><trkpt lat="43.9311667" lon="12.3279617"><ele>196.33333333333334</ele><time>2026-03-22T08:43:27.56Z</time></trkpt><trkpt lat="43.9311183" lon="12.3276767"><ele>197.0</ele><time>2026-03-22T08:43:28.56Z</time></trkpt><trkpt lat="43.9310717" lon="12.3274083"><ele>196.66666666666669</ele><time>2026-03-22T08:43:29.56Z</time></trkpt><trkpt lat="43.9310283" lon="12.327155"><ele>196.33333333333331</ele><time>2026-03-22T08:43:30.56Z</time></trkpt><trkpt lat="43.9309867" lon="12.326915"><ele>196.0</ele><time>2026-03-22T08:43:31.56Z</time></trkpt><trkpt lat="43.9309283" lon="12.3266833"><ele>196.0</ele><time>2026-03-22T08:43:32.559Z</time></trkpt><trkpt lat="43.9308417" lon="12.3264583"><ele>196.0</ele><time>2026-03-22T08:43:33.56Z</time></trkpt><trkpt lat="43.9307333" lon="12.32624"><ele>196.0</ele><time>2026-03-22T08:43:34.56Z</time></trkpt><trkpt lat="43.930625" lon="12.326025"><ele>197.0</ele><time>2026-03-22T08:43:35.56Z</time></trkpt><trkpt lat="43.9305133" lon="12.32581"><ele>198.0</ele><time>2026-03-22T08:43:36.56Z</time></trkpt><trkpt lat="43.9304017" lon="12.325595"><ele>199.0</ele><time>2026-03-22T08:43:37.559Z</time></trkpt><trkpt lat="43.93029" lon="12.3253833"><ele>198.66666666666666</ele><time>2026-03-22T08:43:38.56Z</time></trkpt><trkpt lat="43.93018" lon="12.32517"><ele>198.33333333333331</ele><time>2026-03-22T08:43:39.559Z</time></trkpt><trkpt lat="43.9300533" lon="12.3249683"><ele>198.0</ele><time>2026-03-22T08:43:40.559Z</time></trkpt><trkpt lat="43.9299167" lon="12.3247583"><ele>199.0</ele><time>2026-03-22T08:43:41.559Z</time></trkpt><trkpt lat="43.9297533" lon="12.32456"><ele>200.0</ele><time>2026-03-22T08:43:42.559Z</time></trkpt><trkpt lat="43.92959" lon="12.3243667"><ele>201.0</ele><time>2026-03-22T08:43:43.56Z</time></trkpt><trkpt lat="43.9294417" lon="12.3241867"><ele>201.0</ele><time>2026-03-22T08:43:44.56Z</time></trkpt><trkpt lat="43.92931" lon="12.32402"><ele>201.0</ele><time>2026-03-22T08:43:45.56Z</time></trkpt><trkpt lat="43.929175" lon="12.323865"><ele>201.0</ele><time>2026-03-22T08:43:46.559Z</time></trkpt><trkpt lat="43.92905" lon="12.323725"><ele>201.5</ele><time>2026-03-22T08:43:47.56Z</time></trkpt><trkpt lat="43.9289433" lon="12.3235917"><ele>202.0</ele><time>2026-03-22T08:43:48.56Z</time></trkpt><trkpt lat="43.928855" lon="12.323455"><ele>202.5</ele><time>2026-03-22T08:43:49.56Z</time></trkpt><trkpt lat="43.9287883" lon="12.3233133"><ele>203.0</ele><time>2026-03-22T08:43:50.559Z</time></trkpt><trkpt lat="43.9287233" lon="12.3231767"><ele>203.0</ele><time>2026-03-22T08:43:51.559Z</time></trkpt><trkpt lat="43.9286433" lon="12.32308"><ele>203.0</ele><time>2026-03-22T08:43:52.56Z</time></trkpt><trkpt lat="43.92854" lon="12.3230033"><ele>203.0</ele><time>2026-03-22T08:43:53.559Z</time></trkpt><trkpt lat="43.9284217" lon="12.3229233"><ele>203.0</ele><time>2026-03-22T08:43:54.559Z</time></trkpt><trkpt lat="43.9283067" lon="12.322805"><ele>202.66666666666669</ele><time>2026-03-22T08:43:55.559Z</time></trkpt><trkpt lat="43.928175" lon="12.322655"><ele>202.33333333333331</ele><time>2026-03-22T08:43:56.559Z</time></trkpt><trkpt lat="43.9280367" lon="12.3225"><ele>202.0</ele><time>2026-03-22T08:43:57.56Z</time></trkpt><trkpt lat="43.9279167" lon="12.3223567"><ele>202.0</ele><time>2026-03-22T08:43:58.56Z</time></trkpt><trkpt lat="43.9278067" lon="12.3222317"><ele>202.0</ele><time>2026-03-22T08:43:59.56Z</time></trkpt><trkpt lat="43.9277117" lon="12.3221117"><ele>202.0</ele><time>2026-03-22T08:44:00.56Z</time></trkpt><trkpt lat="43.9276333" lon="12.3220033"><ele>202.0</ele><time>2026-03-22T08:44:01.559Z</time></trkpt><trkpt lat="43.9275567" lon="12.3218967"><ele>203.0</ele><time>2026-03-22T08:44:02.56Z</time></trkpt><trkpt lat="43.9274833" lon="12.321785"><ele>204.0</ele><time>2026-03-22T08:44:03.559Z</time></trkpt><trkpt lat="43.9274083" lon="12.3216617"><ele>205.0</ele><time>2026-03-22T08:44:04.56Z</time></trkpt><trkpt lat="43.9273333" lon="12.3215283"><ele>206.0</ele><time>2026-03-22T08:44:05.559Z</time></trkpt><trkpt lat="43.9272517" lon="12.3214"><ele>206.5</ele><time>2026-03-22T08:44:06.56Z</time></trkpt><trkpt lat="43.9271717" lon="12.3212667"><ele>207.0</ele><time>2026-03-22T08:44:07.559Z</time></trkpt><trkpt lat="43.9270883" lon="12.321125"><ele>207.5</ele><time>2026-03-22T08:44:08.56Z</time></trkpt><trkpt lat="43.927015" lon="12.32098"><ele>208.0</ele><time>2026-03-22T08:44:09.561Z</time></trkpt><trkpt lat="43.9269383" lon="12.3208333"><ele>208.0</ele><time>2026-03-22T08:44:10.561Z</time></trkpt><trkpt lat="43.92685" lon="12.3206933"><ele>208.0</ele><time>2026-03-22T08:44:11.56Z</time></trkpt><trkpt lat="43.9267733" lon="12.32056"><ele>208.0</ele><time>2026-03-22T08:44:12.561Z</time></trkpt><trkpt lat="43.9267033" lon="12.3204233"><ele>208.0</ele><time>2026-03-22T08:44:13.561Z</time></trkpt><trkpt lat="43.9266283" lon="12.320295"><ele>208.75</ele><time>2026-03-22T08:44:14.561Z</time></trkpt><trkpt lat="43.9265633" lon="12.320165"><ele>209.5</ele><time>2026-03-22T08:44:15.561Z</time></trkpt><trkpt lat="43.9264883" lon="12.3200283"><ele>210.25</ele><time>2026-03-22T08:44:16.561Z</time></trkpt><trkpt lat="43.9263983" lon="12.31988"><ele>211.0</ele><time>2026-03-22T08:44:17.56Z</time></trkpt><trkpt lat="43.9263083" lon="12.31972"><ele>212.25</ele><time>2026-03-22T08:44:18.561Z</time></trkpt><trkpt lat="43.926215" lon="12.3195683"><ele>213.5</ele><time>2026-03-22T08:44:19.56Z</time></trkpt><trkpt lat="43.92613" lon="12.319415"><ele>214.75</ele><time>2026-03-22T08:44:20.561Z</time></trkpt><trkpt lat="43.926045" lon="12.3192733"><ele>216.0</ele><time>2026-03-22T08:44:21.561Z</time></trkpt><trkpt lat="43.9259567" lon="12.3191167"><ele>214.66666666666669</ele><time>2026-03-22T08:44:22.561Z</time></trkpt><trkpt lat="43.9258683" lon="12.3189583"><ele>213.33333333333334</ele><time>2026-03-22T08:44:23.561Z</time></trkpt><trkpt lat="43.92577" lon="12.3187983"><ele>212.0</ele><time>2026-03-22T08:44:24.561Z</time></trkpt><trkpt lat="43.9256733" lon="12.3186317"><ele>212.0</ele><time>2026-03-22T08:44:25.56Z</time></trkpt><trkpt lat="43.92558" lon="12.3184733"><ele>212.0</ele><time>2026-03-22T08:44:26.561Z</time></trkpt><trkpt lat="43.9254783" lon="12.318335"><ele>212.0</ele><time>2026-03-22T08:44:27.561Z</time></trkpt><trkpt lat="43.92537" lon="12.3182183"><ele>212.0</ele><time>2026-03-22T08:44:28.561Z</time></trkpt><trkpt lat="43.9252483" lon="12.318125"><ele>212.0</ele><time>2026-03-22T08:44:29.561Z</time></trkpt><trkpt lat="43.9251183" lon="12.31807"><ele>212.0</ele><time>2026-03-22T08:44:30.561Z</time></trkpt><trkpt lat="43.925" lon="12.31803"><ele>212.0</ele><time>2026-03-22T08:44:31.56Z</time></trkpt><trkpt lat="43.9248983" lon="12.3179817"><ele>212.0</ele><time>2026-03-22T08:44:32.56Z</time></trkpt><trkpt lat="43.924805" lon="12.3179317"><ele>212.6</ele><time>2026-03-22T08:44:33.56Z</time></trkpt><trkpt lat="43.9247083" lon="12.31788"><ele>213.2</ele><time>2026-03-22T08:44:34.561Z</time></trkpt><trkpt lat="43.9246167" lon="12.3178233"><ele>213.8</ele><time>2026-03-22T08:44:35.56Z</time></trkpt><trkpt lat="43.9245283" lon="12.31778"><ele>214.4</ele><time>2026-03-22T08:44:36.561Z</time></trkpt><trkpt lat="43.92444" lon="12.3177217"><ele>215.0</ele><time>2026-03-22T08:44:37.561Z</time></trkpt><trkpt lat="43.92435" lon="12.3176433"><ele>215.0</ele><time>2026-03-22T08:44:38.56Z</time></trkpt><trkpt lat="43.92426" lon="12.3175483"><ele>215.0</ele><time>2026-03-22T08:44:39.561Z</time></trkpt><trkpt lat="43.9241717" lon="12.31744"><ele>215.0</ele><time>2026-03-22T08:44:40.56Z</time></trkpt><trkpt lat="43.9240867" lon="12.3173317"><ele>215.0</ele><time>2026-03-22T08:44:41.56Z</time></trkpt><trkpt lat="43.9240083" lon="12.3172283"><ele>214.5</ele><time>2026-03-22T08:44:42.56Z</time></trkpt><trkpt lat="43.9239317" lon="12.3171233"><ele>214.0</ele><time>2026-03-22T08:44:43.56Z</time></trkpt><trkpt lat="43.923845" lon="12.3170133"><ele>213.5</ele><time>2026-03-22T08:44:44.56Z</time></trkpt><trkpt lat="43.9237617" lon="12.316905"><ele>213.0</ele><time>2026-03-22T08:44:45.561Z</time></trkpt><trkpt lat="43.92367" lon="12.316795"><ele>213.0</ele><time>2026-03-22T08:44:46.561Z</time></trkpt><trkpt lat="43.9235817" lon="12.3166683"><ele>213.0</ele><time>2026-03-22T08:44:47.561Z</time></trkpt><trkpt lat="43.9234933" lon="12.3165467"><ele>213.0</ele><time>2026-03-22T08:44:48.561Z</time></trkpt><trkpt lat="43.9234133" lon="12.3164233"><ele>213.0</ele><time>2026-03-22T08:44:49.561Z</time></trkpt><trkpt lat="43.9233317" lon="12.3163067"><ele>214.0</ele><time>2026-03-22T08:44:50.561Z</time></trkpt><trkpt lat="43.92326" lon="12.3161633"><ele>215.0</ele><time>2026-03-22T08:44:51.561Z</time></trkpt><trkpt lat="43.9231933" lon="12.316"><ele>216.0</ele><time>2026-03-22T08:44:52.56Z</time></trkpt><trkpt lat="43.9231367" lon="12.3158167"><ele>217.0</ele><time>2026-03-22T08:44:53.561Z</time></trkpt><trkpt lat="43.9230867" lon="12.3156383"><ele>217.0</ele><time>2026-03-22T08:44:54.561Z</time></trkpt><trkpt lat="43.92304" lon="12.3154583"><ele>217.0</ele><time>2026-03-22T08:44:55.561Z</time></trkpt><trkpt lat="43.92299" lon="12.315275"><ele>217.0</ele><time>2026-03-22T08:44:56.56Z</time></trkpt><trkpt lat="43.9229183" lon="12.3151"><ele>217.0</ele><time>2026-03-22T08:44:57.56Z</time></trkpt><trkpt lat="43.9228317" lon="12.3149333"><ele>217.0</ele><time>2026-03-22T08:44:58.561Z</time></trkpt><trkpt lat="43.92274" lon="12.3147667"><ele>217.0</ele><time>2026-03-22T08:44:59.56Z</time></trkpt><trkpt lat="43.9226433" lon="12.3146033"><ele>217.0</ele><time>2026-03-22T08:45:00.56Z</time></trkpt><trkpt lat="43.9225417" lon="12.3144383"><ele>215.33333333333331</ele><time>2026-03-22T08:45:01.561Z</time></trkpt><trkpt lat="43.922435" lon="12.3142683"><ele>213.66666666666669</ele><time>2026-03-22T08:45:02.56Z</time></trkpt><trkpt lat="43.9223317" lon="12.3140983"><ele>212.0</ele><time>2026-03-22T08:45:03.56Z</time></trkpt><trkpt lat="43.922225" lon="12.3139317"><ele>212.33333333333334</ele><time>2026-03-22T08:45:04.561Z</time></trkpt><trkpt lat="43.9221167" lon="12.31375"><ele>212.66666666666669</ele><time>2026-03-22T08:45:05.561Z</time></trkpt><trkpt lat="43.922" lon="12.313565"><ele>213.0</ele><time>2026-03-22T08:45:06.561Z</time></trkpt><trkpt lat="43.9218783" lon="12.3133933"><ele>213.0</ele><time>2026-03-22T08:45:07.561Z</time></trkpt><trkpt lat="43.9217567" lon="12.3132267"><ele>213.0</ele><time>2026-03-22T08:45:08.561Z</time></trkpt><trkpt lat="43.921625" lon="12.3130733"><ele>213.0</ele><time>2026-03-22T08:45:09.561Z</time></trkpt><trkpt lat="43.921495" lon="12.31295"><ele>211.75</ele><time>2026-03-22T08:45:10.561Z</time></trkpt><trkpt lat="43.9213733" lon="12.31283"><ele>210.5</ele><time>2026-03-22T08:45:11.561Z</time></trkpt><trkpt lat="43.9212567" lon="12.3127267"><ele>209.25</ele><time>2026-03-22T08:45:12.561Z</time></trkpt><trkpt lat="43.921145" lon="12.312625"><ele>208.0</ele><time>2026-03-22T08:45:13.561Z</time></trkpt><trkpt lat="43.92105" lon="12.31253"><ele>208.0</ele><time>2026-03-22T08:45:14.561Z</time></trkpt><trkpt lat="43.920955" lon="12.3124467"><ele>208.0</ele><time>2026-03-22T08:45:15.561Z</time></trkpt><trkpt lat="43.9208583" lon="12.31236"><ele>208.0</ele><time>2026-03-22T08:45:16.561Z</time></trkpt><trkpt lat="43.9207633" lon="12.312275"><ele>208.0</ele><time>2026-03-22T08:45:17.561Z</time></trkpt><trkpt lat="43.9206817" lon="12.312195"><ele>208.0</ele><time>2026-03-22T08:45:18.56Z</time></trkpt><trkpt lat="43.9205933" lon="12.3121217"><ele>209.8</ele><time>2026-03-22T08:45:19.561Z</time></trkpt><trkpt lat="43.9205033" lon="12.3120383"><ele>211.60000000000002</ele><time>2026-03-22T08:45:20.561Z</time></trkpt><trkpt lat="43.9204067" lon="12.3119517"><ele>213.39999999999998</ele><time>2026-03-22T08:45:21.56Z</time></trkpt><trkpt lat="43.9203167" lon="12.311865"><ele>215.2</ele><time>2026-03-22T08:45:22.561Z</time></trkpt><trkpt lat="43.9202283" lon="12.31177"><ele>217.0</ele><time>2026-03-22T08:45:23.561Z</time></trkpt><trkpt lat="43.9201383" lon="12.3116617"><ele>217.25</ele><time>2026-03-22T08:45:24.56Z</time></trkpt><trkpt lat="43.9200583" lon="12.3115333"><ele>217.5</ele><time>2026-03-22T08:45:25.56Z</time></trkpt><trkpt lat="43.91998" lon="12.3113633"><ele>217.75</ele><time>2026-03-22T08:45:26.56Z</time></trkpt><trkpt lat="43.9198983" lon="12.3111683"><ele>218.0</ele><time>2026-03-22T08:45:27.56Z</time></trkpt><trkpt lat="43.9198217" lon="12.310945"><ele>218.0</ele><time>2026-03-22T08:45:28.56Z</time></trkpt><trkpt lat="43.9197417" lon="12.3107383"><ele>218.0</ele><time>2026-03-22T08:45:29.561Z</time></trkpt><trkpt lat="43.9196567" lon="12.3105483"><ele>218.0</ele><time>2026-03-22T08:45:30.561Z</time></trkpt><trkpt lat="43.9195583" lon="12.3103767"><ele>219.0</ele><time>2026-03-22T08:45:31.561Z</time></trkpt><trkpt lat="43.919445" lon="12.3102117"><ele>220.0</ele><time>2026-03-22T08:45:32.56Z</time></trkpt><trkpt lat="43.9193317" lon="12.31004"><ele>221.0</ele><time>2026-03-22T08:45:33.56Z</time></trkpt><trkpt lat="43.9192067" lon="12.309855"><ele>222.0</ele><time>2026-03-22T08:45:34.56Z</time></trkpt><trkpt lat="43.919065" lon="12.3096617"><ele>223.0</ele><time>2026-03-22T08:45:35.561Z</time></trkpt><trkpt lat="43.9189167" lon="12.3094567"><ele>224.0</ele><time>2026-03-22T08:45:36.561Z</time></trkpt><trkpt lat="43.918765" lon="12.3092433"><ele>224.0</ele><time>2026-03-22T08:45:37.561Z</time></trkpt><trkpt lat="43.918615" lon="12.3090383"><ele>224.0</ele><time>2026-03-22T08:45:38.561Z</time></trkpt><trkpt lat="43.9184733" lon="12.308845"><ele>224.0</ele><time>2026-03-22T08:45:39.56Z</time></trkpt><trkpt lat="43.9183383" lon="12.308655"><ele>224.66666666666669</ele><time>2026-03-22T08:45:40.56Z</time></trkpt><trkpt lat="43.9181967" lon="12.308465"><ele>225.33333333333331</ele><time>2026-03-22T08:45:41.56Z</time></trkpt><trkpt lat="43.9180617" lon="12.30828"><ele>226.0</ele><time>2026-03-22T08:45:42.56Z</time></trkpt><trkpt lat="43.9179317" lon="12.3081"><ele>227.0</ele><time>2026-03-22T08:45:43.56Z</time></trkpt><trkpt lat="43.917805" lon="12.3079267"><ele>228.0</ele><time>2026-03-22T08:45:44.561Z</time></trkpt><trkpt lat="43.9176867" lon="12.3077617"><ele>229.0</ele><time>2026-03-22T08:45:45.561Z</time></trkpt><trkpt lat="43.917575" lon="12.3075983"><ele>229.25</ele><time>2026-03-22T08:45:46.561Z</time></trkpt><trkpt lat="43.91747" lon="12.3074483"><ele>229.5</ele><time>2026-03-22T08:45:47.561Z</time></trkpt><trkpt lat="43.9173717" lon="12.3073083"><ele>229.75</ele><time>2026-03-22T08:45:48.56Z</time></trkpt><trkpt lat="43.917265" lon="12.30716"><ele>230.0</ele><time>2026-03-22T08:45:49.561Z</time></trkpt><trkpt lat="43.9171583" lon="12.3070117"><ele>230.0</ele><time>2026-03-22T08:45:50.561Z</time></trkpt><trkpt lat="43.9170583" lon="12.3068683"><ele>230.0</ele><time>2026-03-22T08:45:51.56Z</time></trkpt><trkpt lat="43.91696" lon="12.30673"><ele>230.0</ele><time>2026-03-22T08:45:52.561Z</time></trkpt><trkpt lat="43.9168633" lon="12.3065983"><ele>230.0</ele><time>2026-03-22T08:45:53.561Z</time></trkpt><trkpt lat="43.9167633" lon="12.30647"><ele>231.0</ele><time>2026-03-22T08:45:54.561Z</time></trkpt><trkpt lat="43.9166583" lon="12.30636"><ele>232.0</ele><time>2026-03-22T08:45:55.561Z</time></trkpt><trkpt lat="43.9165467" lon="12.3062717"><ele>233.0</ele><time>2026-03-22T08:45:56.561Z</time></trkpt><trkpt lat="43.9164283" lon="12.3062033"><ele>234.0</ele><time>2026-03-22T08:45:57.56Z</time></trkpt><trkpt lat="43.9163033" lon="12.3061517"><ele>234.0</ele><time>2026-03-22T08:45:58.561Z</time></trkpt><trkpt lat="43.916165" lon="12.3061083"><ele>234.0</ele><time>2026-03-22T08:45:59.561Z</time></trkpt><trkpt lat="43.9160033" lon="12.3060683"><ele>234.0</ele><time>2026-03-22T08:46:00.56Z</time></trkpt><trkpt lat="43.9158217" lon="12.30601"><ele>233.33333333333331</ele><time>2026-03-22T08:46:01.56Z</time></trkpt><trkpt lat="43.91563" lon="12.3059267"><ele>232.66666666666666</ele><time>2026-03-22T08:46:02.561Z</time></trkpt><trkpt lat="43.9154283" lon="12.3058217"><ele>232.0</ele><time>2026-03-22T08:46:03.561Z</time></trkpt><trkpt lat="43.9151983" lon="12.305705"><ele>232.0</ele><time>2026-03-22T08:46:04.561Z</time></trkpt><trkpt lat="43.9149533" lon="12.305575"><ele>232.0</ele><time>2026-03-22T08:46:05.56Z</time></trkpt><trkpt lat="43.914695" lon="12.3054433"><ele>232.0</ele><time>2026-03-22T08:46:06.56Z</time></trkpt><trkpt lat="43.9144317" lon="12.3053083"><ele>232.0</ele><time>2026-03-22T08:46:07.561Z</time></trkpt><trkpt lat="43.9141683" lon="12.3051683"><ele>231.5</ele><time>2026-03-22T08:46:08.56Z</time></trkpt><trkpt lat="43.91392" lon="12.3050383"><ele>231.0</ele><time>2026-03-22T08:46:09.561Z</time></trkpt><trkpt lat="43.9136917" lon="12.3049183"><ele>231.0</ele><time>2026-03-22T08:46:10.561Z</time></trkpt><trkpt lat="43.913475" lon="12.3048017"><ele>231.0</ele><time>2026-03-22T08:46:11.561Z</time></trkpt><trkpt lat="43.9132667" lon="12.304695"><ele>230.0</ele><time>2026-03-22T08:46:12.561Z</time></trkpt><trkpt lat="43.9130733" lon="12.3045883"><ele>229.0</ele><time>2026-03-22T08:46:13.561Z</time></trkpt><trkpt lat="43.9128867" lon="12.304485"><ele>228.0</ele><time>2026-03-22T08:46:14.56Z</time></trkpt><trkpt lat="43.9126967" lon="12.3043967"><ele>229.0</ele><time>2026-03-22T08:46:15.56Z</time></trkpt><trkpt lat="43.9124967" lon="12.3043167"><ele>230.0</ele><time>2026-03-22T08:46:16.56Z</time></trkpt><trkpt lat="43.9122883" lon="12.3042567"><ele>231.0</ele><time>2026-03-22T08:46:17.56Z</time></trkpt><trkpt lat="43.9120717" lon="12.304215"><ele>231.0</ele><time>2026-03-22T08:46:18.561Z</time></trkpt><trkpt lat="43.9118617" lon="12.3041817"><ele>231.0</ele><time>2026-03-22T08:46:19.561Z</time></trkpt><trkpt lat="43.911665" lon="12.3041667"><ele>231.0</ele><time>2026-03-22T08:46:20.561Z</time></trkpt><trkpt lat="43.91147" lon="12.3041517"><ele>231.0</ele><time>2026-03-22T08:46:21.56Z</time></trkpt><trkpt lat="43.9112867" lon="12.3041167"><ele>231.0</ele><time>2026-03-22T08:46:22.561Z</time></trkpt><trkpt lat="43.9111067" lon="12.3040767"><ele>231.0</ele><time>2026-03-22T08:46:23.561Z</time></trkpt><trkpt lat="43.9109367" lon="12.3040033"><ele>234.33333333333331</ele><time>2026-03-22T08:46:24.56Z</time></trkpt><trkpt lat="43.910785" lon="12.3038883"><ele>237.66666666666666</ele><time>2026-03-22T08:46:25.561Z</time></trkpt><trkpt lat="43.9106367" lon="12.3037433"><ele>241.0</ele><time>2026-03-22T08:46:26.561Z</time></trkpt><trkpt lat="43.9104917" lon="12.3035767"><ele>241.0</ele><time>2026-03-22T08:46:27.56Z</time></trkpt><trkpt lat="43.9103567" lon="12.3034267"><ele>241.0</ele><time>2026-03-22T08:46:28.561Z</time></trkpt><trkpt lat="43.9102483" lon="12.3032883"><ele>241.0</ele><time>2026-03-22T08:46:29.56Z</time></trkpt><trkpt lat="43.9101583" lon="12.30317"><ele>241.0</ele><time>2026-03-22T08:46:30.561Z</time></trkpt><trkpt lat="43.9100883" lon="12.3030433"><ele>242.0</ele><time>2026-03-22T08:46:31.56Z</time></trkpt><trkpt lat="43.9100617" lon="12.3028917"><ele>243.0</ele><time>2026-03-22T08:46:32.561Z</time></trkpt><trkpt lat="43.9100767" lon="12.3027317"><ele>244.0</ele><time>2026-03-22T08:46:33.561Z</time></trkpt><trkpt lat="43.9101367" lon="12.3025633"><ele>245.0</ele><time>2026-03-22T08:46:34.561Z</time></trkpt><trkpt lat="43.9102117" lon="12.30237"><ele>246.66666666666669</ele><time>2026-03-22T08:46:35.561Z</time></trkpt><trkpt lat="43.91027" lon="12.3021517"><ele>248.33333333333331</ele><time>2026-03-22T08:46:36.561Z</time></trkpt><trkpt lat="43.9102933" lon="12.30193"><ele>250.0</ele><time>2026-03-22T08:46:37.561Z</time></trkpt><trkpt lat="43.9103117" lon="12.3017117"><ele>250.0</ele><time>2026-03-22T08:46:38.561Z</time></trkpt><trkpt lat="43.9103367" lon="12.301485"><ele>250.0</ele><time>2026-03-22T08:46:39.561Z</time></trkpt><trkpt lat="43.910385" lon="12.3012333"><ele>250.0</ele><time>2026-03-22T08:46:40.56Z</time></trkpt><trkpt lat="43.91045" lon="12.3009717"><ele>249.5</ele><time>2026-03-22T08:46:41.561Z</time></trkpt><trkpt lat="43.9105017" lon="12.300675"><ele>249.0</ele><time>2026-03-22T08:46:42.561Z</time></trkpt><trkpt lat="43.910545" lon="12.30036"><ele>248.0</ele><time>2026-03-22T08:46:43.561Z</time></trkpt><trkpt lat="43.910575" lon="12.3000617"><ele>247.0</ele><time>2026-03-22T08:46:44.56Z</time></trkpt><trkpt lat="43.9105933" lon="12.2997817"><ele>246.0</ele><time>2026-03-22T08:46:45.561Z</time></trkpt><trkpt lat="43.9106033" lon="12.29952"><ele>246.0</ele><time>2026-03-22T08:46:46.561Z</time></trkpt><trkpt lat="43.9105967" lon="12.29927"><ele>246.0</ele><time>2026-03-22T08:46:47.56Z</time></trkpt><trkpt lat="43.9105767" lon="12.29905"><ele>246.0</ele><time>2026-03-22T08:46:48.561Z</time></trkpt><trkpt lat="43.9105417" lon="12.2988383"><ele>246.66666666666669</ele><time>2026-03-22T08:46:49.56Z</time></trkpt><trkpt lat="43.91046" lon="12.2986467"><ele>247.33333333333334</ele><time>2026-03-22T08:46:50.561Z</time></trkpt><trkpt lat="43.9103417" lon="12.298495"><ele>248.0</ele><time>2026-03-22T08:46:51.561Z</time></trkpt><trkpt lat="43.9101867" lon="12.2983683"><ele>247.33333333333334</ele><time>2026-03-22T08:46:52.561Z</time></trkpt><trkpt lat="43.9100283" lon="12.29824"><ele>246.66666666666669</ele><time>2026-03-22T08:46:53.561Z</time></trkpt><trkpt lat="43.9098767" lon="12.298125"><ele>246.0</ele><time>2026-03-22T08:46:54.561Z</time></trkpt><trkpt lat="43.9097417" lon="12.29799"><ele>246.0</ele><time>2026-03-22T08:46:55.56Z</time></trkpt><trkpt lat="43.90961" lon="12.2978183"><ele>246.0</ele><time>2026-03-22T08:46:56.561Z</time></trkpt><trkpt lat="43.9094867" lon="12.2976317"><ele>246.0</ele><time>2026-03-22T08:46:57.561Z</time></trkpt><trkpt lat="43.9093767" lon="12.2974283"><ele>247.0</ele><time>2026-03-22T08:46:58.561Z</time></trkpt><trkpt lat="43.9092783" lon="12.29724"><ele>248.0</ele><time>2026-03-22T08:46:59.561Z</time></trkpt><trkpt lat="43.9091917" lon="12.297065"><ele>249.0</ele><time>2026-03-22T08:47:00.561Z</time></trkpt><trkpt lat="43.9091267" lon="12.29687"><ele>247.25</ele><time>2026-03-22T08:47:01.561Z</time></trkpt><trkpt lat="43.9090783" lon="12.2966567"><ele>245.5</ele><time>2026-03-22T08:47:02.561Z</time></trkpt><trkpt lat="43.9090467" lon="12.2964733"><ele>243.75</ele><time>2026-03-22T08:47:03.561Z</time></trkpt><trkpt lat="43.909015" lon="12.2963433"><ele>242.0</ele><time>2026-03-22T08:47:04.56Z</time></trkpt><trkpt lat="43.9089883" lon="12.296235"><ele>242.0</ele><time>2026-03-22T08:47:05.561Z</time></trkpt><trkpt lat="43.9089483" lon="12.2961033"><ele>242.0</ele><time>2026-03-22T08:47:06.561Z</time></trkpt><trkpt lat="43.9088983" lon="12.2959533"><ele>242.0</ele><time>2026-03-22T08:47:07.561Z</time></trkpt><trkpt lat="43.9088383" lon="12.295785"><ele>242.0</ele><time>2026-03-22T08:47:08.561Z</time></trkpt><trkpt lat="43.908775" lon="12.295605"><ele>242.66666666666669</ele><time>2026-03-22T08:47:09.561Z</time></trkpt><trkpt lat="43.9087067" lon="12.295415"><ele>243.33333333333331</ele><time>2026-03-22T08:47:10.561Z</time></trkpt><trkpt lat="43.9086417" lon="12.295225"><ele>244.0</ele><time>2026-03-22T08:47:11.561Z</time></trkpt><trkpt lat="43.9085817" lon="12.295035"><ele>244.0</ele><time>2026-03-22T08:47:12.56Z</time></trkpt><trkpt lat="43.9085217" lon="12.2948517"><ele>244.0</ele><time>2026-03-22T08:47:13.561Z</time></trkpt><trkpt lat="43.90847" lon="12.2946733"><ele>244.0</ele><time>2026-03-22T08:47:14.561Z</time></trkpt><trkpt lat="43.9084183" lon="12.2945083"><ele>244.0</ele><time>2026-03-22T08:47:15.561Z</time></trkpt><trkpt lat="43.9083467" lon="12.2943667"><ele>242.75</ele><time>2026-03-22T08:47:16.561Z</time></trkpt><trkpt lat="43.9082483" lon="12.29424"><ele>241.5</ele><time>2026-03-22T08:47:17.561Z</time></trkpt><trkpt lat="43.9081183" lon="12.2941483"><ele>240.25</ele><time>2026-03-22T08:47:18.561Z</time></trkpt><trkpt lat="43.9079717" lon="12.294085"><ele>239.0</ele><time>2026-03-22T08:47:19.561Z</time></trkpt><trkpt lat="43.90781" lon="12.2940417"><ele>239.0</ele><time>2026-03-22T08:47:20.561Z</time></trkpt><trkpt lat="43.9076417" lon="12.294005"><ele>239.0</ele><time>2026-03-22T08:47:21.56Z</time></trkpt><trkpt lat="43.90748" lon="12.2939683"><ele>239.0</ele><time>2026-03-22T08:47:22.561Z</time></trkpt><trkpt lat="43.9073183" lon="12.29393"><ele>238.66666666666669</ele><time>2026-03-22T08:47:23.561Z</time></trkpt><trkpt lat="43.9071617" lon="12.29389"><ele>238.33333333333331</ele><time>2026-03-22T08:47:24.56Z</time></trkpt><trkpt lat="43.9070017" lon="12.293855"><ele>238.0</ele><time>2026-03-22T08:47:25.56Z</time></trkpt><trkpt lat="43.9068467" lon="12.293825"><ele>239.0</ele><time>2026-03-22T08:47:26.561Z</time></trkpt><trkpt lat="43.9067" lon="12.2938017"><ele>240.0</ele><time>2026-03-22T08:47:27.561Z</time></trkpt><trkpt lat="43.9065483" lon="12.2937817"><ele>241.0</ele><time>2026-03-22T08:47:28.561Z</time></trkpt><trkpt lat="43.90639" lon="12.2937617"><ele>241.0</ele><time>2026-03-22T08:47:29.56Z</time></trkpt><trkpt lat="43.9062167" lon="12.29373"><ele>241.0</ele><time>2026-03-22T08:47:30.56Z</time></trkpt><trkpt lat="43.90604" lon="12.2936933"><ele>241.0</ele><time>2026-03-22T08:47:31.561Z</time></trkpt><trkpt lat="43.9058583" lon="12.2936417"><ele>241.33333333333331</ele><time>2026-03-22T08:47:32.561Z</time></trkpt><trkpt lat="43.9056633" lon="12.2935917"><ele>241.66666666666669</ele><time>2026-03-22T08:47:33.56Z</time></trkpt><trkpt lat="43.9054567" lon="12.2935383"><ele>242.0</ele><time>2026-03-22T08:47:34.561Z</time></trkpt><trkpt lat="43.9052633" lon="12.29348"><ele>242.0</ele><time>2026-03-22T08:47:35.562Z</time></trkpt><trkpt lat="43.9050883" lon="12.29343"><ele>242.0</ele><time>2026-03-22T08:47:36.562Z</time></trkpt><trkpt lat="43.904915" lon="12.293385"><ele>242.0</ele><time>2026-03-22T08:47:37.562Z</time></trkpt><trkpt lat="43.9047433" lon="12.2933467"><ele>241.33333333333334</ele><time>2026-03-22T08:47:38.562Z</time></trkpt><trkpt lat="43.904565" lon="12.2933317"><ele>240.66666666666669</ele><time>2026-03-22T08:47:39.562Z</time></trkpt><trkpt lat="43.90439" lon="12.2933717"><ele>240.0</ele><time>2026-03-22T08:47:40.562Z</time></trkpt><trkpt lat="43.90421" lon="12.2934667"><ele>239.0</ele><time>2026-03-22T08:47:41.562Z</time></trkpt><trkpt lat="43.90403" lon="12.29364"><ele>238.0</ele><time>2026-03-22T08:47:42.561Z</time></trkpt><trkpt lat="43.9038617" lon="12.293825"><ele>237.0</ele><time>2026-03-22T08:47:43.562Z</time></trkpt><trkpt lat="43.90371" lon="12.29403"><ele>237.0</ele><time>2026-03-22T08:47:44.561Z</time></trkpt><trkpt lat="43.9035767" lon="12.29422"><ele>237.0</ele><time>2026-03-22T08:47:45.561Z</time></trkpt><trkpt lat="43.9034683" lon="12.2944067"><ele>237.0</ele><time>2026-03-22T08:47:46.562Z</time></trkpt><trkpt lat="43.903385" lon="12.2946017"><ele>237.25</ele><time>2026-03-22T08:47:47.561Z</time></trkpt><trkpt lat="43.9033017" lon="12.2947817"><ele>237.5</ele><time>2026-03-22T08:47:48.561Z</time></trkpt><trkpt lat="43.903205" lon="12.294925"><ele>237.75</ele><time>2026-03-22T08:47:49.562Z</time></trkpt><trkpt lat="43.903095" lon="12.2950217"><ele>238.0</ele><time>2026-03-22T08:47:50.562Z</time></trkpt><trkpt lat="43.9029583" lon="12.295085"><ele>238.0</ele><time>2026-03-22T08:47:51.562Z</time></trkpt><trkpt lat="43.9028017" lon="12.29511"><ele>238.0</ele><time>2026-03-22T08:47:52.561Z</time></trkpt><trkpt lat="43.90263" lon="12.295095"><ele>238.0</ele><time>2026-03-22T08:47:53.562Z</time></trkpt><trkpt lat="43.90245" lon="12.295065"><ele>238.66666666666666</ele><time>2026-03-22T08:47:54.561Z</time></trkpt><trkpt lat="43.9022633" lon="12.295015"><ele>239.33333333333331</ele><time>2026-03-22T08:47:55.561Z</time></trkpt><trkpt lat="43.9020933" lon="12.2949667"><ele>240.0</ele><time>2026-03-22T08:47:56.561Z</time></trkpt><trkpt lat="43.9019333" lon="12.2949217"><ele>240.0</ele><time>2026-03-22T08:47:57.561Z</time></trkpt><trkpt lat="43.9017733" lon="12.2948617"><ele>240.0</ele><time>2026-03-22T08:47:58.562Z</time></trkpt><trkpt lat="43.9016183" lon="12.2947817"><ele>240.0</ele><time>2026-03-22T08:47:59.562Z</time></trkpt><trkpt lat="43.901465" lon="12.29467"><ele>242.33333333333331</ele><time>2026-03-22T08:48:00.562Z</time></trkpt><trkpt lat="43.9013183" lon="12.2945233"><ele>244.66666666666666</ele><time>2026-03-22T08:48:01.561Z</time></trkpt><trkpt lat="43.9011667" lon="12.2943483"><ele>247.0</ele><time>2026-03-22T08:48:02.562Z</time></trkpt><trkpt lat="43.9010083" lon="12.29418"><ele>246.33333333333331</ele><time>2026-03-22T08:48:03.562Z</time></trkpt><trkpt lat="43.9008617" lon="12.294025"><ele>245.66666666666669</ele><time>2026-03-22T08:48:04.562Z</time></trkpt><trkpt lat="43.900725" lon="12.2938833"><ele>245.0</ele><time>2026-03-22T08:48:05.561Z</time></trkpt><trkpt lat="43.9006" lon="12.2937667"><ele>246.75</ele><time>2026-03-22T08:48:06.561Z</time></trkpt><trkpt lat="43.9004933" lon="12.29363"><ele>248.5</ele><time>2026-03-22T08:48:07.562Z</time></trkpt><trkpt lat="43.9003917" lon="12.2934867"><ele>250.25</ele><time>2026-03-22T08:48:08.561Z</time></trkpt><trkpt lat="43.9003183" lon="12.2933"><ele>252.0</ele><time>2026-03-22T08:48:09.562Z</time></trkpt><trkpt lat="43.90028" lon="12.2930867"><ele>253.33333333333331</ele><time>2026-03-22T08:48:10.562Z</time></trkpt><trkpt lat="43.9002533" lon="12.2928517"><ele>254.66666666666666</ele><time>2026-03-22T08:48:11.562Z</time></trkpt><trkpt lat="43.900245" lon="12.2926033"><ele>256.0</ele><time>2026-03-22T08:48:12.561Z</time></trkpt><trkpt lat="43.900245" lon="12.292355"><ele>257.3333333333333</ele><time>2026-03-22T08:48:13.562Z</time></trkpt><trkpt lat="43.9002333" lon="12.29211"><ele>258.6666666666667</ele><time>2026-03-22T08:48:14.561Z</time></trkpt><trkpt lat="43.9002183" lon="12.2918817"><ele>260.0</ele><time>2026-03-22T08:48:15.562Z</time></trkpt><trkpt lat="43.9002067" lon="12.29166"><ele>260.0</ele><time>2026-03-22T08:48:16.561Z</time></trkpt><trkpt lat="43.90018" lon="12.2914583"><ele>260.0</ele><time>2026-03-22T08:48:17.562Z</time></trkpt><trkpt lat="43.90014" lon="12.2912533"><ele>260.0</ele><time>2026-03-22T08:48:18.561Z</time></trkpt><trkpt lat="43.90007" lon="12.2910483"><ele>259.6666666666667</ele><time>2026-03-22T08:48:19.562Z</time></trkpt><trkpt lat="43.8999633" lon="12.2908417"><ele>259.3333333333333</ele><time>2026-03-22T08:48:20.562Z</time></trkpt><trkpt lat="43.899845" lon="12.2906217"><ele>259.0</ele><time>2026-03-22T08:48:21.562Z</time></trkpt><trkpt lat="43.8997233" lon="12.290415"><ele>260.66666666666663</ele><time>2026-03-22T08:48:22.561Z</time></trkpt><trkpt lat="43.899615" lon="12.2902283"><ele>262.3333333333333</ele><time>2026-03-22T08:48:23.562Z</time></trkpt><trkpt lat="43.899515" lon="12.2900433"><ele>264.0</ele><time>2026-03-22T08:48:24.561Z</time></trkpt><trkpt lat="43.8994133" lon="12.2898717"><ele>263.75</ele><time>2026-03-22T08:48:25.562Z</time></trkpt><trkpt lat="43.8993167" lon="12.2897067"><ele>263.5</ele><time>2026-03-22T08:48:26.562Z</time></trkpt><trkpt lat="43.8992333" lon="12.2895533"><ele>263.25</ele><time>2026-03-22T08:48:27.561Z</time></trkpt><trkpt lat="43.8991483" lon="12.2894133"><ele>263.0</ele><time>2026-03-22T08:48:28.561Z</time></trkpt><trkpt lat="43.8990483" lon="12.2892883"><ele>263.0</ele><time>2026-03-22T08:48:29.561Z</time></trkpt><trkpt lat="43.8989317" lon="12.289175"><ele>263.0</ele><time>2026-03-22T08:48:30.561Z</time></trkpt><trkpt lat="43.8988067" lon="12.28908"><ele>263.0</ele><time>2026-03-22T08:48:31.561Z</time></trkpt><trkpt lat="43.898685" lon="12.2890083"><ele>263.0</ele><time>2026-03-22T08:48:32.562Z</time></trkpt><trkpt lat="43.89857" lon="12.28896"><ele>265.2</ele><time>2026-03-22T08:48:33.561Z</time></trkpt><trkpt lat="43.8984617" lon="12.28892"><ele>267.4</ele><time>2026-03-22T08:48:34.562Z</time></trkpt><trkpt lat="43.8983667" lon="12.2888967"><ele>269.59999999999997</ele><time>2026-03-22T08:48:35.561Z</time></trkpt><trkpt lat="43.8982817" lon="12.2888867"><ele>271.8</ele><time>2026-03-22T08:48:36.562Z</time></trkpt><trkpt lat="43.8982" lon="12.2888917"><ele>274.0</ele><time>2026-03-22T08:48:37.562Z</time></trkpt><trkpt lat="43.8981233" lon="12.28889"><ele>274.0</ele><time>2026-03-22T08:48:38.562Z</time></trkpt><trkpt lat="43.89806" lon="12.2888917"><ele>274.0</ele><time>2026-03-22T08:48:39.562Z</time></trkpt><trkpt lat="43.8979333" lon="12.2889"><ele>274.0</ele><time>2026-03-22T08:48:41.562Z</time></trkpt><trkpt lat="43.8978667" lon="12.2889167"><ele>274.0</ele><time>2026-03-22T08:48:42.562Z</time></trkpt><trkpt lat="43.897755" lon="12.288985"><ele>274.0</ele><time>2026-03-22T08:48:44.561Z</time></trkpt><trkpt lat="43.8976983" lon="12.2890233"><ele>274.0</ele><time>2026-03-22T08:48:45.562Z</time></trkpt><trkpt lat="43.897565" lon="12.2890233"><ele>275.0</ele><time>2026-03-22T08:48:47.561Z</time></trkpt><trkpt lat="43.89748" lon="12.2889717"><ele>276.0</ele><time>2026-03-22T08:48:48.561Z</time></trkpt><trkpt lat="43.89739" lon="12.2888817"><ele>277.0</ele><time>2026-03-22T08:48:49.561Z</time></trkpt><trkpt lat="43.8972617" lon="12.2887817"><ele>278.0</ele><time>2026-03-22T08:48:50.562Z</time></trkpt><trkpt lat="43.89713" lon="12.2886633"><ele>278.0</ele><time>2026-03-22T08:48:51.562Z</time></trkpt><trkpt lat="43.89699" lon="12.28854"><ele>278.0</ele><time>2026-03-22T08:48:52.562Z</time></trkpt><trkpt lat="43.89685" lon="12.288425"><ele>278.0</ele><time>2026-03-22T08:48:53.562Z</time></trkpt><trkpt lat="43.896715" lon="12.2883067"><ele>277.0</ele><time>2026-03-22T08:48:54.562Z</time></trkpt><trkpt lat="43.896585" lon="12.2881867"><ele>276.0</ele><time>2026-03-22T08:48:55.561Z</time></trkpt><trkpt lat="43.8964467" lon="12.2880717"><ele>275.0</ele><time>2026-03-22T08:48:56.562Z</time></trkpt><trkpt lat="43.8963233" lon="12.2879517"><ele>276.5</ele><time>2026-03-22T08:48:57.562Z</time></trkpt><trkpt lat="43.8962183" lon="12.2878467"><ele>278.0</ele><time>2026-03-22T08:48:58.562Z</time></trkpt><trkpt lat="43.896105" lon="12.2877433"><ele>279.5</ele><time>2026-03-22T08:48:59.562Z</time></trkpt><trkpt lat="43.8959917" lon="12.287665"><ele>281.0</ele><time>2026-03-22T08:49:00.561Z</time></trkpt><trkpt lat="43.89589" lon="12.2875917"><ele>281.25</ele><time>2026-03-22T08:49:01.561Z</time></trkpt><trkpt lat="43.8957833" lon="12.287565"><ele>281.5</ele><time>2026-03-22T08:49:02.562Z</time></trkpt><trkpt lat="43.8956683" lon="12.287615"><ele>281.75</ele><time>2026-03-22T08:49:03.562Z</time></trkpt><trkpt lat="43.8955517" lon="12.2876967"><ele>282.0</ele><time>2026-03-22T08:49:04.562Z</time></trkpt><trkpt lat="43.895445" lon="12.2878067"><ele>282.0</ele><time>2026-03-22T08:49:05.562Z</time></trkpt><trkpt lat="43.8953483" lon="12.2879033"><ele>282.0</ele><time>2026-03-22T08:49:06.562Z</time></trkpt><trkpt lat="43.8952683" lon="12.2880033"><ele>282.0</ele><time>2026-03-22T08:49:07.562Z</time></trkpt><trkpt lat="43.8952067" lon="12.2881067"><ele>282.0</ele><time>2026-03-22T08:49:08.562Z</time></trkpt><trkpt lat="43.8951517" lon="12.2882233"><ele>282.0</ele><time>2026-03-22T08:49:09.562Z</time></trkpt><trkpt lat="43.8951117" lon="12.28835"><ele>283.0</ele><time>2026-03-22T08:49:10.562Z</time></trkpt><trkpt lat="43.8950767" lon="12.2884533"><ele>284.0</ele><time>2026-03-22T08:49:11.561Z</time></trkpt><trkpt lat="43.89505" lon="12.2885383"><ele>285.0</ele><time>2026-03-22T08:49:12.562Z</time></trkpt><trkpt lat="43.895005" lon="12.2886617"><ele>286.0</ele><time>2026-03-22T08:49:14.562Z</time></trkpt><trkpt lat="43.894895" lon="12.2886033"><ele>287.0</ele><time>2026-03-22T08:49:17.562Z</time></trkpt><trkpt lat="43.8948683" lon="12.2885067"><ele>288.0</ele><time>2026-03-22T08:49:18.561Z</time></trkpt><trkpt lat="43.8948467" lon="12.288375"><ele>288.0</ele><time>2026-03-22T08:49:19.561Z</time></trkpt><trkpt lat="43.8948283" lon="12.288225"><ele>288.0</ele><time>2026-03-22T08:49:20.562Z</time></trkpt><trkpt lat="43.8948267" lon="12.28806"><ele>288.0</ele><time>2026-03-22T08:49:21.561Z</time></trkpt><trkpt lat="43.89482" lon="12.2878933"><ele>288.0</ele><time>2026-03-22T08:49:22.561Z</time></trkpt><trkpt lat="43.8948117" lon="12.28775"><ele>289.0</ele><time>2026-03-22T08:49:23.562Z</time></trkpt><trkpt lat="43.89478" lon="12.28761"><ele>290.0</ele><time>2026-03-22T08:49:24.562Z</time></trkpt><trkpt lat="43.894725" lon="12.287495"><ele>291.0</ele><time>2026-03-22T08:49:25.561Z</time></trkpt><trkpt lat="43.89464" lon="12.2874083"><ele>292.0</ele><time>2026-03-22T08:49:26.561Z</time></trkpt><trkpt lat="43.8945417" lon="12.28737"><ele>293.0</ele><time>2026-03-22T08:49:27.562Z</time></trkpt><trkpt lat="43.8944417" lon="12.28738"><ele>293.0</ele><time>2026-03-22T08:49:28.562Z</time></trkpt><trkpt lat="43.8943617" lon="12.2874383"><ele>293.0</ele><time>2026-03-22T08:49:29.561Z</time></trkpt><trkpt lat="43.8942883" lon="12.2875517"><ele>293.0</ele><time>2026-03-22T08:49:30.561Z</time></trkpt><trkpt lat="43.8942267" lon="12.2877067"><ele>293.0</ele><time>2026-03-22T08:49:31.561Z</time></trkpt><trkpt lat="43.89419" lon="12.28789"><ele>293.8</ele><time>2026-03-22T08:49:32.562Z</time></trkpt><trkpt lat="43.894165" lon="12.28804"><ele>294.6</ele><time>2026-03-22T08:49:33.562Z</time></trkpt><trkpt lat="43.89413" lon="12.28817"><ele>295.4</ele><time>2026-03-22T08:49:34.562Z</time></trkpt><trkpt lat="43.8940833" lon="12.2882917"><ele>296.2</ele><time>2026-03-22T08:49:35.562Z</time></trkpt><trkpt lat="43.8940117" lon="12.2883783"><ele>297.0</ele><time>2026-03-22T08:49:36.562Z</time></trkpt><trkpt lat="43.8939217" lon="12.28842"><ele>297.0</ele><time>2026-03-22T08:49:37.561Z</time></trkpt><trkpt lat="43.8938317" lon="12.28841"><ele>297.0</ele><time>2026-03-22T08:49:38.562Z</time></trkpt><trkpt lat="43.8937467" lon="12.2883533"><ele>297.0</ele><time>2026-03-22T08:49:39.561Z</time></trkpt><trkpt lat="43.8936767" lon="12.288265"><ele>297.0</ele><time>2026-03-22T08:49:40.562Z</time></trkpt><trkpt lat="43.89363" lon="12.288145"><ele>297.0</ele><time>2026-03-22T08:49:41.562Z</time></trkpt><trkpt lat="43.89361" lon="12.2879883"><ele>299.6</ele><time>2026-03-22T08:49:42.562Z</time></trkpt><trkpt lat="43.89359" lon="12.2878483"><ele>302.2</ele><time>2026-03-22T08:49:43.562Z</time></trkpt><trkpt lat="43.8935617" lon="12.2877183"><ele>304.8</ele><time>2026-03-22T08:49:44.562Z</time></trkpt><trkpt lat="43.8934917" lon="12.2876033"><ele>307.4</ele><time>2026-03-22T08:49:45.562Z</time></trkpt><trkpt lat="43.8934033" lon="12.2875233"><ele>310.0</ele><time>2026-03-22T08:49:46.561Z</time></trkpt><trkpt lat="43.8932983" lon="12.2874883"><ele>310.25</ele><time>2026-03-22T08:49:47.562Z</time></trkpt><trkpt lat="43.8931733" lon="12.2875117"><ele>310.5</ele><time>2026-03-22T08:49:48.562Z</time></trkpt><trkpt lat="43.8930483" lon="12.2875767"><ele>310.75</ele><time>2026-03-22T08:49:49.562Z</time></trkpt><trkpt lat="43.8929333" lon="12.2876483"><ele>311.0</ele><time>2026-03-22T08:49:50.561Z</time></trkpt><trkpt lat="43.8928267" lon="12.287695"><ele>311.0</ele><time>2026-03-22T08:49:51.562Z</time></trkpt><trkpt lat="43.8927167" lon="12.2876967"><ele>311.0</ele><time>2026-03-22T08:49:52.562Z</time></trkpt><trkpt lat="43.8926117" lon="12.2876383"><ele>311.0</ele><time>2026-03-22T08:49:53.562Z</time></trkpt><trkpt lat="43.89251" lon="12.2875283"><ele>311.0</ele><time>2026-03-22T08:49:54.562Z</time></trkpt><trkpt lat="43.8924083" lon="12.28739"><ele>314.75</ele><time>2026-03-22T08:49:55.562Z</time></trkpt><trkpt lat="43.89231" lon="12.2872483"><ele>318.5</ele><time>2026-03-22T08:49:56.561Z</time></trkpt><trkpt lat="43.8922183" lon="12.2871017"><ele>322.25</ele><time>2026-03-22T08:49:57.562Z</time></trkpt><trkpt lat="43.892135" lon="12.2869333"><ele>326.0</ele><time>2026-03-22T08:49:58.562Z</time></trkpt><trkpt lat="43.8920617" lon="12.2867383"><ele>326.0</ele><time>2026-03-22T08:49:59.562Z</time></trkpt><trkpt lat="43.891995" lon="12.2865067"><ele>326.0</ele><time>2026-03-22T08:50:00.562Z</time></trkpt><trkpt lat="43.8919483" lon="12.28625"><ele>326.0</ele><time>2026-03-22T08:50:01.562Z</time></trkpt><trkpt lat="43.891905" lon="12.2860217"><ele>327.75</ele><time>2026-03-22T08:50:02.561Z</time></trkpt><trkpt lat="43.89187" lon="12.2858083"><ele>329.5</ele><time>2026-03-22T08:50:03.562Z</time></trkpt><trkpt lat="43.891845" lon="12.2856333"><ele>331.25</ele><time>2026-03-22T08:50:04.562Z</time></trkpt><trkpt lat="43.8918383" lon="12.2854883"><ele>333.0</ele><time>2026-03-22T08:50:05.561Z</time></trkpt><trkpt lat="43.8918617" lon="12.2853583"><ele>334.0</ele><time>2026-03-22T08:50:06.562Z</time></trkpt><trkpt lat="43.8919233" lon="12.2852517"><ele>335.0</ele><time>2026-03-22T08:50:07.562Z</time></trkpt><trkpt lat="43.892" lon="12.2851817"><ele>336.0</ele><time>2026-03-22T08:50:08.561Z</time></trkpt><trkpt lat="43.8921067" lon="12.2851667"><ele>337.0</ele><time>2026-03-22T08:50:09.562Z</time></trkpt><trkpt lat="43.8922133" lon="12.285205"><ele>338.0</ele><time>2026-03-22T08:50:10.562Z</time></trkpt><trkpt lat="43.8923217" lon="12.2852983"><ele>338.0</ele><time>2026-03-22T08:50:11.562Z</time></trkpt><trkpt lat="43.89243" lon="12.2854183"><ele>338.0</ele><time>2026-03-22T08:50:12.562Z</time></trkpt><trkpt lat="43.8925383" lon="12.285525"><ele>338.0</ele><time>2026-03-22T08:50:13.562Z</time></trkpt><trkpt lat="43.8926533" lon="12.2856083"><ele>338.0</ele><time>2026-03-22T08:50:14.561Z</time></trkpt><trkpt lat="43.8927817" lon="12.2856633"><ele>337.25</ele><time>2026-03-22T08:50:15.562Z</time></trkpt><trkpt lat="43.8929117" lon="12.285665"><ele>336.5</ele><time>2026-03-22T08:50:16.562Z</time></trkpt><trkpt lat="43.89305" lon="12.285625"><ele>335.75</ele><time>2026-03-22T08:50:17.562Z</time></trkpt><trkpt lat="43.8931667" lon="12.2855167"><ele>335.0</ele><time>2026-03-22T08:50:18.561Z</time></trkpt><trkpt lat="43.8932667" lon="12.285365"><ele>337.6666666666667</ele><time>2026-03-22T08:50:19.562Z</time></trkpt><trkpt lat="43.89336" lon="12.2851917"><ele>340.3333333333333</ele><time>2026-03-22T08:50:20.562Z</time></trkpt><trkpt lat="43.89346" lon="12.28497"><ele>343.0</ele><time>2026-03-22T08:50:21.562Z</time></trkpt><trkpt lat="43.8935767" lon="12.2847317"><ele>345.3333333333333</ele><time>2026-03-22T08:50:22.562Z</time></trkpt><trkpt lat="43.8937" lon="12.2844883"><ele>347.6666666666667</ele><time>2026-03-22T08:50:23.562Z</time></trkpt><trkpt lat="43.8938183" lon="12.284265"><ele>350.0</ele><time>2026-03-22T08:50:24.562Z</time></trkpt><trkpt lat="43.893925" lon="12.2840617"><ele>352.6666666666667</ele><time>2026-03-22T08:50:25.561Z</time></trkpt><trkpt lat="43.8940267" lon="12.2838567"><ele>355.3333333333333</ele><time>2026-03-22T08:50:26.561Z</time></trkpt><trkpt lat="43.8941317" lon="12.2836433"><ele>358.0</ele><time>2026-03-22T08:50:27.562Z</time></trkpt><trkpt lat="43.89422" lon="12.2834233"><ele>356.3333333333333</ele><time>2026-03-22T08:50:28.562Z</time></trkpt><trkpt lat="43.894295" lon="12.283175"><ele>354.6666666666667</ele><time>2026-03-22T08:50:29.562Z</time></trkpt><trkpt lat="43.894355" lon="12.28289"><ele>353.0</ele><time>2026-03-22T08:50:30.561Z</time></trkpt><trkpt lat="43.894405" lon="12.28258"><ele>353.0</ele><time>2026-03-22T08:50:31.562Z</time></trkpt><trkpt lat="43.8944517" lon="12.2822733"><ele>353.0</ele><time>2026-03-22T08:50:32.562Z</time></trkpt><trkpt lat="43.8944933" lon="12.28199"><ele>353.0</ele><time>2026-03-22T08:50:33.562Z</time></trkpt><trkpt lat="43.8945417" lon="12.2817067"><ele>355.33333333333337</ele><time>2026-03-22T08:50:34.561Z</time></trkpt><trkpt lat="43.8945883" lon="12.2814217"><ele>357.6666666666667</ele><time>2026-03-22T08:50:35.562Z</time></trkpt><trkpt lat="43.8946333" lon="12.2811483"><ele>360.0</ele><time>2026-03-22T08:50:36.561Z</time></trkpt><trkpt lat="43.8946867" lon="12.28088"><ele>360.0</ele><time>2026-03-22T08:50:37.562Z</time></trkpt><trkpt lat="43.8947433" lon="12.280615"><ele>360.0</ele><time>2026-03-22T08:50:38.562Z</time></trkpt><trkpt lat="43.8947867" lon="12.2803467"><ele>360.0</ele><time>2026-03-22T08:50:39.562Z</time></trkpt><trkpt lat="43.8948217" lon="12.2800983"><ele>361.6666666666667</ele><time>2026-03-22T08:50:40.562Z</time></trkpt><trkpt lat="43.89485" lon="12.2798617"><ele>363.33333333333337</ele><time>2026-03-22T08:50:41.561Z</time></trkpt><trkpt lat="43.8948583" lon="12.279635"><ele>365.0</ele><time>2026-03-22T08:50:42.562Z</time></trkpt><trkpt lat="43.89486" lon="12.2794183"><ele>366.5</ele><time>2026-03-22T08:50:43.561Z</time></trkpt><trkpt lat="43.8948467" lon="12.27922"><ele>368.0</ele><time>2026-03-22T08:50:44.561Z</time></trkpt><trkpt lat="43.8948383" lon="12.2790383"><ele>369.5</ele><time>2026-03-22T08:50:45.561Z</time></trkpt><trkpt lat="43.8948317" lon="12.27887"><ele>371.0</ele><time>2026-03-22T08:50:46.561Z</time></trkpt><trkpt lat="43.89483" lon="12.2787133"><ele>372.25</ele><time>2026-03-22T08:50:47.562Z</time></trkpt><trkpt lat="43.8948583" lon="12.2785683"><ele>373.5</ele><time>2026-03-22T08:50:48.561Z</time></trkpt><trkpt lat="43.89492" lon="12.2784383"><ele>374.75</ele><time>2026-03-22T08:50:49.561Z</time></trkpt><trkpt lat="43.8950067" lon="12.2783383"><ele>376.0</ele><time>2026-03-22T08:50:50.562Z</time></trkpt><trkpt lat="43.89512" lon="12.278285"><ele>378.0</ele><time>2026-03-22T08:50:51.561Z</time></trkpt><trkpt lat="43.8952467" lon="12.2782867"><ele>380.0</ele><time>2026-03-22T08:50:52.561Z</time></trkpt><trkpt lat="43.89538" lon="12.2783417"><ele>382.0</ele><time>2026-03-22T08:50:53.562Z</time></trkpt><trkpt lat="43.89552" lon="12.2784267"><ele>384.0</ele><time>2026-03-22T08:50:54.562Z</time></trkpt><trkpt lat="43.8956683" lon="12.2785283"><ele>384.0</ele><time>2026-03-22T08:50:55.562Z</time></trkpt><trkpt lat="43.8958217" lon="12.2786317"><ele>384.0</ele><time>2026-03-22T08:50:56.561Z</time></trkpt><trkpt lat="43.8959683" lon="12.278715"><ele>384.0</ele><time>2026-03-22T08:50:57.561Z</time></trkpt><trkpt lat="43.8961133" lon="12.27876"><ele>385.33333333333337</ele><time>2026-03-22T08:50:58.561Z</time></trkpt><trkpt lat="43.896265" lon="12.2787633"><ele>386.6666666666667</ele><time>2026-03-22T08:50:59.562Z</time></trkpt><trkpt lat="43.8964267" lon="12.2787317"><ele>388.0</ele><time>2026-03-22T08:51:00.563Z</time></trkpt><trkpt lat="43.8965683" lon="12.2786283"><ele>388.0</ele><time>2026-03-22T08:51:01.563Z</time></trkpt><trkpt lat="43.8966967" lon="12.278505"><ele>388.0</ele><time>2026-03-22T08:51:02.563Z</time></trkpt><trkpt lat="43.8968117" lon="12.2784083"><ele>388.0</ele><time>2026-03-22T08:51:03.562Z</time></trkpt><trkpt lat="43.8969367" lon="12.2783717"><ele>388.0</ele><time>2026-03-22T08:51:04.563Z</time></trkpt><trkpt lat="43.8970583" lon="12.278375"><ele>391.0</ele><time>2026-03-22T08:51:05.562Z</time></trkpt><trkpt lat="43.8971883" lon="12.27844"><ele>394.0</ele><time>2026-03-22T08:51:06.563Z</time></trkpt><trkpt lat="43.8973167" lon="12.2785533"><ele>397.0</ele><time>2026-03-22T08:51:07.562Z</time></trkpt><trkpt lat="43.8974383" lon="12.2787117"><ele>397.0</ele><time>2026-03-22T08:51:08.563Z</time></trkpt><trkpt lat="43.8975317" lon="12.2788967"><ele>397.0</ele><time>2026-03-22T08:51:09.563Z</time></trkpt><trkpt lat="43.8976017" lon="12.2790683"><ele>397.0</ele><time>2026-03-22T08:51:10.562Z</time></trkpt><trkpt lat="43.897695" lon="12.279215"><ele>397.0</ele><time>2026-03-22T08:51:11.562Z</time></trkpt><trkpt lat="43.89781" lon="12.279345"><ele>396.75</ele><time>2026-03-22T08:51:12.563Z</time></trkpt><trkpt lat="43.8979467" lon="12.279425"><ele>396.5</ele><time>2026-03-22T08:51:13.563Z</time></trkpt><trkpt lat="43.8980867" lon="12.2794683"><ele>396.25</ele><time>2026-03-22T08:51:14.563Z</time></trkpt><trkpt lat="43.8982117" lon="12.2795083"><ele>396.0</ele><time>2026-03-22T08:51:15.563Z</time></trkpt><trkpt lat="43.8983217" lon="12.27952"><ele>397.20000000000005</ele><time>2026-03-22T08:51:16.562Z</time></trkpt><trkpt lat="43.8984283" lon="12.2795033"><ele>398.40000000000003</ele><time>2026-03-22T08:51:17.562Z</time></trkpt><trkpt lat="43.8985133" lon="12.2794467"><ele>399.6</ele><time>2026-03-22T08:51:18.563Z</time></trkpt><trkpt lat="43.898575" lon="12.27936"><ele>400.8</ele><time>2026-03-22T08:51:19.563Z</time></trkpt><trkpt lat="43.898615" lon="12.2792517"><ele>402.0</ele><time>2026-03-22T08:51:20.563Z</time></trkpt><trkpt lat="43.89862" lon="12.2791267"><ele>402.0</ele><time>2026-03-22T08:51:21.563Z</time></trkpt><trkpt lat="43.89859" lon="12.2789967"><ele>402.0</ele><time>2026-03-22T08:51:22.563Z</time></trkpt><trkpt lat="43.8985183" lon="12.2788817"><ele>402.0</ele><time>2026-03-22T08:51:23.563Z</time></trkpt><trkpt lat="43.8984283" lon="12.2788083"><ele>402.0</ele><time>2026-03-22T08:51:24.562Z</time></trkpt><trkpt lat="43.8983333" lon="12.2787683"><ele>402.0</ele><time>2026-03-22T08:51:25.563Z</time></trkpt><trkpt lat="43.898235" lon="12.2787567"><ele>405.40000000000003</ele><time>2026-03-22T08:51:26.563Z</time></trkpt><trkpt lat="43.8981483" lon="12.27873"><ele>408.8</ele><time>2026-03-22T08:51:27.562Z</time></trkpt><trkpt lat="43.89807" lon="12.2786817"><ele>412.2</ele><time>2026-03-22T08:51:28.563Z</time></trkpt><trkpt lat="43.8980033" lon="12.2785717"><ele>415.6</ele><time>2026-03-22T08:51:29.563Z</time></trkpt><trkpt lat="43.8979567" lon="12.27844"><ele>419.0</ele><time>2026-03-22T08:51:30.563Z</time></trkpt><trkpt lat="43.89793" lon="12.278275"><ele>425.66666666666663</ele><time>2026-03-22T08:51:31.563Z</time></trkpt><trkpt lat="43.897905" lon="12.2780817"><ele>432.33333333333337</ele><time>2026-03-22T08:51:32.563Z</time></trkpt><trkpt lat="43.89786" lon="12.2778583"><ele>439.0</ele><time>2026-03-22T08:51:33.563Z</time></trkpt><trkpt lat="43.8977983" lon="12.2776233"><ele>439.0</ele><time>2026-03-22T08:51:34.562Z</time></trkpt><trkpt lat="43.8977217" lon="12.27739"><ele>439.0</ele><time>2026-03-22T08:51:35.562Z</time></trkpt><trkpt lat="43.8976567" lon="12.2771733"><ele>439.0</ele><time>2026-03-22T08:51:36.563Z</time></trkpt><trkpt lat="43.8975767" lon="12.27697"><ele>439.33333333333337</ele><time>2026-03-22T08:51:37.563Z</time></trkpt><trkpt lat="43.8974717" lon="12.2767533"><ele>439.66666666666663</ele><time>2026-03-22T08:51:38.563Z</time></trkpt><trkpt lat="43.8973383" lon="12.2765383"><ele>440.0</ele><time>2026-03-22T08:51:39.563Z</time></trkpt><trkpt lat="43.8972017" lon="12.27636"><ele>440.0</ele><time>2026-03-22T08:51:40.563Z</time></trkpt><trkpt lat="43.8970767" lon="12.2762283"><ele>440.0</ele><time>2026-03-22T08:51:41.563Z</time></trkpt><trkpt lat="43.896975" lon="12.2761167"><ele>440.0</ele><time>2026-03-22T08:51:42.563Z</time></trkpt><trkpt lat="43.8968917" lon="12.276005"><ele>440.0</ele><time>2026-03-22T08:51:43.563Z</time></trkpt><trkpt lat="43.896845" lon="12.2758617"><ele>440.0</ele><time>2026-03-22T08:51:44.563Z</time></trkpt><trkpt lat="43.896825" lon="12.275705"><ele>440.0</ele><time>2026-03-22T08:51:45.563Z</time></trkpt><trkpt lat="43.8968533" lon="12.2755183"><ele>440.0</ele><time>2026-03-22T08:51:46.563Z</time></trkpt><trkpt lat="43.8969133" lon="12.27533"><ele>440.0</ele><time>2026-03-22T08:51:47.563Z</time></trkpt><trkpt lat="43.89698" lon="12.2751333"><ele>445.3333333333333</ele><time>2026-03-22T08:51:48.563Z</time></trkpt><trkpt lat="43.8970433" lon="12.274905"><ele>450.66666666666663</ele><time>2026-03-22T08:51:49.562Z</time></trkpt><trkpt lat="43.8970667" lon="12.274635"><ele>456.0</ele><time>2026-03-22T08:51:50.563Z</time></trkpt><trkpt lat="43.8970683" lon="12.2743667"><ele>459.33333333333337</ele><time>2026-03-22T08:51:51.563Z</time></trkpt><trkpt lat="43.8970717" lon="12.2741267"><ele>462.6666666666667</ele><time>2026-03-22T08:51:52.563Z</time></trkpt><trkpt lat="43.89707" lon="12.2739117"><ele>466.0</ele><time>2026-03-22T08:51:53.563Z</time></trkpt><trkpt lat="43.897055" lon="12.2737067"><ele>467.0</ele><time>2026-03-22T08:51:54.563Z</time></trkpt><trkpt lat="43.89703" lon="12.2735083"><ele>468.0</ele><time>2026-03-22T08:51:55.562Z</time></trkpt><trkpt lat="43.89698" lon="12.273325"><ele>469.0</ele><time>2026-03-22T08:51:56.562Z</time></trkpt><trkpt lat="43.896925" lon="12.273155"><ele>470.0</ele><time>2026-03-22T08:51:57.563Z</time></trkpt><trkpt lat="43.89687" lon="12.2730083"><ele>470.75</ele><time>2026-03-22T08:51:58.562Z</time></trkpt><trkpt lat="43.8968183" lon="12.2728733"><ele>471.5</ele><time>2026-03-22T08:51:59.563Z</time></trkpt><trkpt lat="43.8967717" lon="12.272735"><ele>472.25</ele><time>2026-03-22T08:52:00.563Z</time></trkpt><trkpt lat="43.8967367" lon="12.2725767"><ele>473.0</ele><time>2026-03-22T08:52:01.562Z</time></trkpt><trkpt lat="43.896715" lon="12.2724033"><ele>467.0</ele><time>2026-03-22T08:52:02.563Z</time></trkpt><trkpt lat="43.8967067" lon="12.27221"><ele>461.0</ele><time>2026-03-22T08:52:03.563Z</time></trkpt><trkpt lat="43.89671" lon="12.2719867"><ele>455.0</ele><time>2026-03-22T08:52:04.563Z</time></trkpt><trkpt lat="43.8967333" lon="12.271725"><ele>462.0</ele><time>2026-03-22T08:52:05.562Z</time></trkpt><trkpt lat="43.8967733" lon="12.271435"><ele>469.0</ele><time>2026-03-22T08:52:06.563Z</time></trkpt><trkpt lat="43.896815" lon="12.2711367"><ele>476.0</ele><time>2026-03-22T08:52:07.562Z</time></trkpt><trkpt lat="43.8968567" lon="12.27082"><ele>479.5</ele><time>2026-03-22T08:52:08.563Z</time></trkpt><trkpt lat="43.8968933" lon="12.2705"><ele>483.0</ele><time>2026-03-22T08:52:09.563Z</time></trkpt><trkpt lat="43.8969217" lon="12.2701983"><ele>483.0</ele><time>2026-03-22T08:52:10.562Z</time></trkpt><trkpt lat="43.8969383" lon="12.2699267"><ele>483.0</ele><time>2026-03-22T08:52:11.562Z</time></trkpt><trkpt lat="43.8969617" lon="12.2696733"><ele>483.0</ele><time>2026-03-22T08:52:12.563Z</time></trkpt><trkpt lat="43.8969567" lon="12.2694017"><ele>486.66666666666663</ele><time>2026-03-22T08:52:13.563Z</time></trkpt><trkpt lat="43.8969417" lon="12.269125"><ele>490.3333333333333</ele><time>2026-03-22T08:52:14.563Z</time></trkpt><trkpt lat="43.8969017" lon="12.268835"><ele>494.0</ele><time>2026-03-22T08:52:15.563Z</time></trkpt><trkpt lat="43.8968517" lon="12.2685317"><ele>496.66666666666663</ele><time>2026-03-22T08:52:16.563Z</time></trkpt><trkpt lat="43.8968133" lon="12.268235"><ele>499.33333333333337</ele><time>2026-03-22T08:52:17.562Z</time></trkpt><trkpt lat="43.8967767" lon="12.2679467"><ele>502.0</ele><time>2026-03-22T08:52:18.563Z</time></trkpt><trkpt lat="43.8967317" lon="12.2676617"><ele>498.6666666666667</ele><time>2026-03-22T08:52:19.562Z</time></trkpt><trkpt lat="43.8966883" lon="12.2673817"><ele>495.33333333333337</ele><time>2026-03-22T08:52:20.563Z</time></trkpt><trkpt lat="43.8966483" lon="12.2671067"><ele>492.0</ele><time>2026-03-22T08:52:21.563Z</time></trkpt><trkpt lat="43.8966117" lon="12.2668467"><ele>492.0</ele><time>2026-03-22T08:52:22.563Z</time></trkpt><trkpt lat="43.8965733" lon="12.2666167"><ele>492.0</ele><time>2026-03-22T08:52:23.563Z</time></trkpt><trkpt lat="43.896545" lon="12.2663967"><ele>492.0</ele><time>2026-03-22T08:52:24.563Z</time></trkpt><trkpt lat="43.8965183" lon="12.266195"><ele>493.0</ele><time>2026-03-22T08:52:25.562Z</time></trkpt><trkpt lat="43.8965067" lon="12.2659867"><ele>494.0</ele><time>2026-03-22T08:52:26.563Z</time></trkpt><trkpt lat="43.8965067" lon="12.265775"><ele>495.0</ele><time>2026-03-22T08:52:27.563Z</time></trkpt><trkpt lat="43.896525" lon="12.2655517"><ele>495.0</ele><time>2026-03-22T08:52:28.563Z</time></trkpt><trkpt lat="43.89657" lon="12.26532"><ele>495.0</ele><time>2026-03-22T08:52:29.563Z</time></trkpt><trkpt lat="43.89663" lon="12.26508"><ele>495.0</ele><time>2026-03-22T08:52:30.562Z</time></trkpt><trkpt lat="43.8966867" lon="12.2648533"><ele>494.0</ele><time>2026-03-22T08:52:31.563Z</time></trkpt><trkpt lat="43.8967417" lon="12.2646533"><ele>493.0</ele><time>2026-03-22T08:52:32.563Z</time></trkpt><trkpt lat="43.8967617" lon="12.2644633"><ele>492.0</ele><time>2026-03-22T08:52:33.563Z</time></trkpt><trkpt lat="43.8967983" lon="12.264285"><ele>491.0</ele><time>2026-03-22T08:52:34.562Z</time></trkpt><trkpt lat="43.896875" lon="12.2641217"><ele>496.5</ele><time>2026-03-22T08:52:35.563Z</time></trkpt><trkpt lat="43.89698" lon="12.26399"><ele>502.0</ele><time>2026-03-22T08:52:36.563Z</time></trkpt><trkpt lat="43.8970967" lon="12.2638583"><ele>507.5</ele><time>2026-03-22T08:52:37.562Z</time></trkpt><trkpt lat="43.897175" lon="12.2636917"><ele>513.0</ele><time>2026-03-22T08:52:38.562Z</time></trkpt><trkpt lat="43.897235" lon="12.263485"><ele>513.0</ele><time>2026-03-22T08:52:39.563Z</time></trkpt><trkpt lat="43.8972683" lon="12.2632617"><ele>513.0</ele><time>2026-03-22T08:52:40.563Z</time></trkpt><trkpt lat="43.8972967" lon="12.2630217"><ele>513.0</ele><time>2026-03-22T08:52:41.563Z</time></trkpt><trkpt lat="43.8973383" lon="12.2627767"><ele>513.0</ele><time>2026-03-22T08:52:42.562Z</time></trkpt><trkpt lat="43.8973883" lon="12.2625333"><ele>513.0</ele><time>2026-03-22T08:52:43.563Z</time></trkpt><trkpt lat="43.8974583" lon="12.2622967"><ele>513.0</ele><time>2026-03-22T08:52:44.563Z</time></trkpt><trkpt lat="43.8975467" lon="12.2620533"><ele>517.3333333333334</ele><time>2026-03-22T08:52:45.563Z</time></trkpt><trkpt lat="43.8976467" lon="12.26181"><ele>521.6666666666667</ele><time>2026-03-22T08:52:46.563Z</time></trkpt><trkpt lat="43.8977617" lon="12.2615733"><ele>526.0</ele><time>2026-03-22T08:52:47.563Z</time></trkpt><trkpt lat="43.8979033" lon="12.2613583"><ele>526.0</ele><time>2026-03-22T08:52:48.562Z</time></trkpt><trkpt lat="43.8980433" lon="12.2611683"><ele>526.0</ele><time>2026-03-22T08:52:49.563Z</time></trkpt><trkpt lat="43.898175" lon="12.26101"><ele>526.0</ele><time>2026-03-22T08:52:50.563Z</time></trkpt><trkpt lat="43.8982883" lon="12.26085"><ele>526.0</ele><time>2026-03-22T08:52:51.563Z</time></trkpt><trkpt lat="43.8983933" lon="12.2606867"><ele>526.0</ele><time>2026-03-22T08:52:52.563Z</time></trkpt><trkpt lat="43.8984867" lon="12.2604967"><ele>526.0</ele><time>2026-03-22T08:52:53.562Z</time></trkpt><trkpt lat="43.8985483" lon="12.2602883"><ele>530.3333333333334</ele><time>2026-03-22T08:52:54.563Z</time></trkpt><trkpt lat="43.8985867" lon="12.26006"><ele>534.6666666666666</ele><time>2026-03-22T08:52:55.562Z</time></trkpt><trkpt lat="43.8986167" lon="12.25982"><ele>539.0</ele><time>2026-03-22T08:52:56.562Z</time></trkpt><trkpt lat="43.89864" lon="12.2596033"><ele>539.75</ele><time>2026-03-22T08:52:57.562Z</time></trkpt><trkpt lat="43.8986633" lon="12.2594083"><ele>540.5</ele><time>2026-03-22T08:52:58.563Z</time></trkpt><trkpt lat="43.89868" lon="12.25923"><ele>541.25</ele><time>2026-03-22T08:52:59.562Z</time></trkpt><trkpt lat="43.898695" lon="12.2590617"><ele>542.0</ele><time>2026-03-22T08:53:00.562Z</time></trkpt><trkpt lat="43.8987117" lon="12.2589033"><ele>542.0</ele><time>2026-03-22T08:53:01.563Z</time></trkpt><trkpt lat="43.8987317" lon="12.25873"><ele>542.0</ele><time>2026-03-22T08:53:02.562Z</time></trkpt><trkpt lat="43.89876" lon="12.258545"><ele>542.0</ele><time>2026-03-22T08:53:03.563Z</time></trkpt><trkpt lat="43.8987833" lon="12.2583617"><ele>542.0</ele><time>2026-03-22T08:53:04.563Z</time></trkpt><trkpt lat="43.8988017" lon="12.258195"><ele>542.5</ele><time>2026-03-22T08:53:05.562Z</time></trkpt><trkpt lat="43.8988133" lon="12.2580217"><ele>543.0</ele><time>2026-03-22T08:53:06.563Z</time></trkpt><trkpt lat="43.8987967" lon="12.2578133"><ele>543.5</ele><time>2026-03-22T08:53:07.563Z</time></trkpt><trkpt lat="43.8987567" lon="12.257595"><ele>544.0</ele><time>2026-03-22T08:53:08.562Z</time></trkpt><trkpt lat="43.8987083" lon="12.2573517"><ele>545.0</ele><time>2026-03-22T08:53:09.562Z</time></trkpt><trkpt lat="43.8986433" lon="12.2570983"><ele>546.0</ele><time>2026-03-22T08:53:10.562Z</time></trkpt><trkpt lat="43.898585" lon="12.2568483"><ele>547.0</ele><time>2026-03-22T08:53:11.563Z</time></trkpt><trkpt lat="43.8985317" lon="12.2566067"><ele>547.0</ele><time>2026-03-22T08:53:12.563Z</time></trkpt><trkpt lat="43.89848" lon="12.256375"><ele>547.0</ele><time>2026-03-22T08:53:13.563Z</time></trkpt><trkpt lat="43.898435" lon="12.25617"><ele>547.0</ele><time>2026-03-22T08:53:14.563Z</time></trkpt><trkpt lat="43.8983883" lon="12.2559967"><ele>545.25</ele><time>2026-03-22T08:53:15.562Z</time></trkpt><trkpt lat="43.8983367" lon="12.255855"><ele>543.5</ele><time>2026-03-22T08:53:16.563Z</time></trkpt><trkpt lat="43.898255" lon="12.255745"><ele>541.75</ele><time>2026-03-22T08:53:17.563Z</time></trkpt><trkpt lat="43.8981517" lon="12.255665"><ele>540.0</ele><time>2026-03-22T08:53:18.563Z</time></trkpt><trkpt lat="43.898025" lon="12.2556467"><ele>540.0</ele><time>2026-03-22T08:53:19.563Z</time></trkpt><trkpt lat="43.8978983" lon="12.2556833"><ele>540.0</ele><time>2026-03-22T08:53:20.563Z</time></trkpt><trkpt lat="43.8977983" lon="12.2557517"><ele>540.0</ele><time>2026-03-22T08:53:21.562Z</time></trkpt><trkpt lat="43.8977067" lon="12.2558017"><ele>540.0</ele><time>2026-03-22T08:53:22.562Z</time></trkpt><trkpt lat="43.89761" lon="12.2558"><ele>540.0</ele><time>2026-03-22T08:53:23.563Z</time></trkpt><trkpt lat="43.897525" lon="12.2557467"><ele>540.4</ele><time>2026-03-22T08:53:24.563Z</time></trkpt><trkpt lat="43.897455" lon="12.255655"><ele>540.8</ele><time>2026-03-22T08:53:25.563Z</time></trkpt><trkpt lat="43.8974233" lon="12.2555367"><ele>541.2</ele><time>2026-03-22T08:53:26.562Z</time></trkpt><trkpt lat="43.8974267" lon="12.2554033"><ele>541.6</ele><time>2026-03-22T08:53:27.563Z</time></trkpt><trkpt lat="43.8974733" lon="12.2552833"><ele>542.0</ele><time>2026-03-22T08:53:28.563Z</time></trkpt><trkpt lat="43.897555" lon="12.255195"><ele>544.0</ele><time>2026-03-22T08:53:29.562Z</time></trkpt><trkpt lat="43.8976617" lon="12.2551517"><ele>546.0</ele><time>2026-03-22T08:53:30.562Z</time></trkpt><trkpt lat="43.8977917" lon="12.2551383"><ele>548.0</ele><time>2026-03-22T08:53:31.563Z</time></trkpt><trkpt lat="43.89794" lon="12.25516"><ele>550.0</ele><time>2026-03-22T08:53:32.563Z</time></trkpt><trkpt lat="43.8981" lon="12.255185"><ele>550.0</ele><time>2026-03-22T08:53:33.563Z</time></trkpt><trkpt lat="43.8982817" lon="12.255185"><ele>550.0</ele><time>2026-03-22T08:53:34.562Z</time></trkpt><trkpt lat="43.8984767" lon="12.2551467"><ele>550.0</ele><time>2026-03-22T08:53:35.563Z</time></trkpt><trkpt lat="43.89867" lon="12.25508"><ele>550.3333333333334</ele><time>2026-03-22T08:53:36.563Z</time></trkpt><trkpt lat="43.898855" lon="12.2549717"><ele>550.6666666666666</ele><time>2026-03-22T08:53:37.562Z</time></trkpt><trkpt lat="43.8990433" lon="12.2548083"><ele>551.0</ele><time>2026-03-22T08:53:38.563Z</time></trkpt><trkpt lat="43.899235" lon="12.25463"><ele>555.6666666666666</ele><time>2026-03-22T08:53:39.563Z</time></trkpt><trkpt lat="43.89942" lon="12.2544633"><ele>560.3333333333334</ele><time>2026-03-22T08:53:40.562Z</time></trkpt><trkpt lat="43.8995833" lon="12.2543233"><ele>565.0</ele><time>2026-03-22T08:53:41.562Z</time></trkpt><trkpt lat="43.8997367" lon="12.254195"><ele>565.0</ele><time>2026-03-22T08:53:42.563Z</time></trkpt><trkpt lat="43.8998667" lon="12.2540683"><ele>565.0</ele><time>2026-03-22T08:53:43.563Z</time></trkpt><trkpt lat="43.899995" lon="12.2539467"><ele>565.0</ele><time>2026-03-22T08:53:44.563Z</time></trkpt><trkpt lat="43.900115" lon="12.2538433"><ele>568.5</ele><time>2026-03-22T08:53:45.562Z</time></trkpt><trkpt lat="43.900255" lon="12.2537833"><ele>572.0</ele><time>2026-03-22T08:53:46.563Z</time></trkpt><trkpt lat="43.900405" lon="12.253765"><ele>575.5</ele><time>2026-03-22T08:53:47.563Z</time></trkpt><trkpt lat="43.9005417" lon="12.253785"><ele>579.0</ele><time>2026-03-22T08:53:48.562Z</time></trkpt><trkpt lat="43.900665" lon="12.2537983"><ele>579.0</ele><time>2026-03-22T08:53:49.562Z</time></trkpt><trkpt lat="43.9007867" lon="12.2537833"><ele>579.0</ele><time>2026-03-22T08:53:50.563Z</time></trkpt><trkpt lat="43.9008933" lon="12.2537183"><ele>579.0</ele><time>2026-03-22T08:53:51.562Z</time></trkpt><trkpt lat="43.9009683" lon="12.253615"><ele>579.0</ele><time>2026-03-22T08:53:52.562Z</time></trkpt><trkpt lat="43.901005" lon="12.2534717"><ele>580.0</ele><time>2026-03-22T08:53:53.563Z</time></trkpt><trkpt lat="43.90101" lon="12.2533017"><ele>581.0</ele><time>2026-03-22T08:53:54.562Z</time></trkpt><trkpt lat="43.9009767" lon="12.25312"><ele>582.0</ele><time>2026-03-22T08:53:55.563Z</time></trkpt><trkpt lat="43.9009183" lon="12.252945"><ele>583.0</ele><time>2026-03-22T08:53:56.563Z</time></trkpt><trkpt lat="43.90085" lon="12.252805"><ele>583.0</ele><time>2026-03-22T08:53:57.562Z</time></trkpt><trkpt lat="43.9007667" lon="12.2527033"><ele>583.0</ele><time>2026-03-22T08:53:58.563Z</time></trkpt><trkpt lat="43.9006517" lon="12.2526533"><ele>583.0</ele><time>2026-03-22T08:53:59.563Z</time></trkpt><trkpt lat="43.9005233" lon="12.2526683"><ele>583.0</ele><time>2026-03-22T08:54:00.563Z</time></trkpt><trkpt lat="43.90038" lon="12.252685"><ele>583.0</ele><time>2026-03-22T08:54:01.563Z</time></trkpt><trkpt lat="43.9002383" lon="12.2526733"><ele>583.0</ele><time>2026-03-22T08:54:02.562Z</time></trkpt><trkpt lat="43.9000883" lon="12.2526183"><ele>583.0</ele><time>2026-03-22T08:54:03.563Z</time></trkpt><trkpt lat="43.8999383" lon="12.2525283"><ele>582.0</ele><time>2026-03-22T08:54:04.563Z</time></trkpt><trkpt lat="43.8997733" lon="12.2524217"><ele>581.0</ele><time>2026-03-22T08:54:05.562Z</time></trkpt><trkpt lat="43.8995917" lon="12.2523333"><ele>580.0</ele><time>2026-03-22T08:54:06.562Z</time></trkpt><trkpt lat="43.8994183" lon="12.2522633"><ele>582.5</ele><time>2026-03-22T08:54:07.563Z</time></trkpt><trkpt lat="43.89926" lon="12.2522133"><ele>585.0</ele><time>2026-03-22T08:54:08.563Z</time></trkpt><trkpt lat="43.8991233" lon="12.2521667"><ele>587.5</ele><time>2026-03-22T08:54:09.562Z</time></trkpt><trkpt lat="43.8990183" lon="12.2521167"><ele>590.0</ele><time>2026-03-22T08:54:10.563Z</time></trkpt><trkpt lat="43.8989383" lon="12.252035"><ele>591.0</ele><time>2026-03-22T08:54:11.563Z</time></trkpt><trkpt lat="43.8988783" lon="12.2519217"><ele>592.0</ele><time>2026-03-22T08:54:12.562Z</time></trkpt><trkpt lat="43.898855" lon="12.251805"><ele>593.0</ele><time>2026-03-22T08:54:13.562Z</time></trkpt><trkpt lat="43.89887" lon="12.2516833"><ele>594.0</ele><time>2026-03-22T08:54:14.563Z</time></trkpt><trkpt lat="43.8989167" lon="12.251575"><ele>595.0</ele><time>2026-03-22T08:54:15.563Z</time></trkpt><trkpt lat="43.89901" lon="12.251475"><ele>596.3333333333334</ele><time>2026-03-22T08:54:16.563Z</time></trkpt><trkpt lat="43.8991267" lon="12.251365"><ele>597.6666666666666</ele><time>2026-03-22T08:54:17.563Z</time></trkpt><trkpt lat="43.89926" lon="12.2512467"><ele>599.0</ele><time>2026-03-22T08:54:18.563Z</time></trkpt><trkpt lat="43.8994033" lon="12.2511217"><ele>599.0</ele><time>2026-03-22T08:54:19.562Z</time></trkpt><trkpt lat="43.899555" lon="12.2509883"><ele>599.0</ele><time>2026-03-22T08:54:20.562Z</time></trkpt><trkpt lat="43.8997117" lon="12.2508483"><ele>599.0</ele><time>2026-03-22T08:54:21.563Z</time></trkpt><trkpt lat="43.8998567" lon="12.2507117"><ele>601.5</ele><time>2026-03-22T08:54:22.563Z</time></trkpt><trkpt lat="43.8999867" lon="12.250585"><ele>604.0</ele><time>2026-03-22T08:54:23.562Z</time></trkpt><trkpt lat="43.9001033" lon="12.25047"><ele>606.5</ele><time>2026-03-22T08:54:24.563Z</time></trkpt><trkpt lat="43.900205" lon="12.250365"><ele>609.0</ele><time>2026-03-22T08:54:25.564Z</time></trkpt><trkpt lat="43.9002933" lon="12.25026"><ele>609.0</ele><time>2026-03-22T08:54:26.563Z</time></trkpt><trkpt lat="43.900355" lon="12.25014"><ele>609.0</ele><time>2026-03-22T08:54:27.563Z</time></trkpt><trkpt lat="43.9003983" lon="12.249995"><ele>609.0</ele><time>2026-03-22T08:54:28.564Z</time></trkpt><trkpt lat="43.9004017" lon="12.24984"><ele>609.0</ele><time>2026-03-22T08:54:29.563Z</time></trkpt><trkpt lat="43.90036" lon="12.2496833"><ele>612.0</ele><time>2026-03-22T08:54:30.564Z</time></trkpt><trkpt lat="43.900285" lon="12.249545"><ele>615.0</ele><time>2026-03-22T08:54:31.564Z</time></trkpt><trkpt lat="43.900175" lon="12.249445"><ele>618.0</ele><time>2026-03-22T08:54:32.563Z</time></trkpt><trkpt lat="43.9000633" lon="12.2494"><ele>621.0</ele><time>2026-03-22T08:54:33.564Z</time></trkpt><trkpt lat="43.899935" lon="12.2493967"><ele>622.0</ele><time>2026-03-22T08:54:34.564Z</time></trkpt><trkpt lat="43.8997967" lon="12.2494533"><ele>623.0</ele><time>2026-03-22T08:54:35.564Z</time></trkpt><trkpt lat="43.899635" lon="12.2495267"><ele>624.0</ele><time>2026-03-22T08:54:36.563Z</time></trkpt><trkpt lat="43.899455" lon="12.2495967"><ele>624.0</ele><time>2026-03-22T08:54:37.563Z</time></trkpt><trkpt lat="43.8992567" lon="12.249675"><ele>624.0</ele><time>2026-03-22T08:54:38.564Z</time></trkpt><trkpt lat="43.8990733" lon="12.2497367"><ele>624.0</ele><time>2026-03-22T08:54:39.563Z</time></trkpt><trkpt lat="43.8989083" lon="12.2497867"><ele>622.25</ele><time>2026-03-22T08:54:40.564Z</time></trkpt><trkpt lat="43.8987667" lon="12.2498267"><ele>620.5</ele><time>2026-03-22T08:54:41.563Z</time></trkpt><trkpt lat="43.8986383" lon="12.2498617"><ele>618.75</ele><time>2026-03-22T08:54:42.564Z</time></trkpt><trkpt lat="43.898525" lon="12.249895"><ele>617.0</ele><time>2026-03-22T08:54:43.563Z</time></trkpt><trkpt lat="43.8984217" lon="12.2498933"><ele>619.0</ele><time>2026-03-22T08:54:44.564Z</time></trkpt><trkpt lat="43.8983333" lon="12.2498467"><ele>621.0</ele><time>2026-03-22T08:54:45.564Z</time></trkpt><trkpt lat="43.898265" lon="12.249745"><ele>623.0</ele><time>2026-03-22T08:54:46.564Z</time></trkpt><trkpt lat="43.898225" lon="12.2496233"><ele>625.0</ele><time>2026-03-22T08:54:47.563Z</time></trkpt><trkpt lat="43.8982233" lon="12.2494983"><ele>627.0</ele><time>2026-03-22T08:54:48.564Z</time></trkpt><trkpt lat="43.8982617" lon="12.2493733"><ele>628.25</ele><time>2026-03-22T08:54:49.564Z</time></trkpt><trkpt lat="43.898335" lon="12.2492717"><ele>629.5</ele><time>2026-03-22T08:54:50.563Z</time></trkpt><trkpt lat="43.8984383" lon="12.2492033"><ele>630.75</ele><time>2026-03-22T08:54:51.564Z</time></trkpt><trkpt lat="43.8985617" lon="12.24917"><ele>632.0</ele><time>2026-03-22T08:54:52.564Z</time></trkpt><trkpt lat="43.89869" lon="12.249175"><ele>632.0</ele><time>2026-03-22T08:54:53.564Z</time></trkpt><trkpt lat="43.8988083" lon="12.249185"><ele>632.0</ele><time>2026-03-22T08:54:54.563Z</time></trkpt><trkpt lat="43.898915" lon="12.24919"><ele>632.0</ele><time>2026-03-22T08:54:55.564Z</time></trkpt><trkpt lat="43.8990167" lon="12.2491417"><ele>632.0</ele><time>2026-03-22T08:54:56.564Z</time></trkpt><trkpt lat="43.8990967" lon="12.24906"><ele>632.0</ele><time>2026-03-22T08:54:57.564Z</time></trkpt><trkpt lat="43.8991517" lon="12.24895"><ele>633.6</ele><time>2026-03-22T08:54:58.564Z</time></trkpt><trkpt lat="43.8991733" lon="12.24882"><ele>635.2</ele><time>2026-03-22T08:54:59.563Z</time></trkpt><trkpt lat="43.8991517" lon="12.24868"><ele>636.8</ele><time>2026-03-22T08:55:00.564Z</time></trkpt><trkpt lat="43.8991" lon="12.2485667"><ele>638.4</ele><time>2026-03-22T08:55:01.564Z</time></trkpt><trkpt lat="43.8990167" lon="12.2484833"><ele>640.0</ele><time>2026-03-22T08:55:02.564Z</time></trkpt><trkpt lat="43.89891" lon="12.24845"><ele>640.0</ele><time>2026-03-22T08:55:03.564Z</time></trkpt><trkpt lat="43.8987967" lon="12.2484767"><ele>640.0</ele><time>2026-03-22T08:55:04.563Z</time></trkpt><trkpt lat="43.89871" lon="12.24855"><ele>640.0</ele><time>2026-03-22T08:55:05.564Z</time></trkpt><trkpt lat="43.8986417" lon="12.248645"><ele>640.0</ele><time>2026-03-22T08:55:06.563Z</time></trkpt><trkpt lat="43.898575" lon="12.24874"><ele>640.0</ele><time>2026-03-22T08:55:07.563Z</time></trkpt><trkpt lat="43.8984933" lon="12.248805"><ele>641.6</ele><time>2026-03-22T08:55:08.564Z</time></trkpt><trkpt lat="43.8984" lon="12.2488183"><ele>643.2</ele><time>2026-03-22T08:55:09.563Z</time></trkpt><trkpt lat="43.8983083" lon="12.24878"><ele>644.8</ele><time>2026-03-22T08:55:10.563Z</time></trkpt><trkpt lat="43.8982333" lon="12.2487"><ele>646.4</ele><time>2026-03-22T08:55:11.563Z</time></trkpt><trkpt lat="43.898185" lon="12.2485767"><ele>648.0</ele><time>2026-03-22T08:55:12.564Z</time></trkpt><trkpt lat="43.8981733" lon="12.24845"><ele>648.0</ele><time>2026-03-22T08:55:13.564Z</time></trkpt><trkpt lat="43.898195" lon="12.2483267"><ele>648.0</ele><time>2026-03-22T08:55:14.563Z</time></trkpt><trkpt lat="43.898255" lon="12.2482233"><ele>648.0</ele><time>2026-03-22T08:55:15.564Z</time></trkpt><trkpt lat="43.8983367" lon="12.24815"><ele>648.0</ele><time>2026-03-22T08:55:16.564Z</time></trkpt><trkpt lat="43.89844" lon="12.248125"><ele>648.0</ele><time>2026-03-22T08:55:17.564Z</time></trkpt><trkpt lat="43.8985467" lon="12.2481383"><ele>649.0</ele><time>2026-03-22T08:55:18.564Z</time></trkpt><trkpt lat="43.8986533" lon="12.2481467"><ele>650.0</ele><time>2026-03-22T08:55:19.564Z</time></trkpt><trkpt lat="43.8987483" lon="12.248105"><ele>651.0</ele><time>2026-03-22T08:55:20.564Z</time></trkpt><trkpt lat="43.8988267" lon="12.24802"><ele>652.0</ele><time>2026-03-22T08:55:21.564Z</time></trkpt><trkpt lat="43.8988817" lon="12.2479017"><ele>653.0</ele><time>2026-03-22T08:55:22.564Z</time></trkpt><trkpt lat="43.8989033" lon="12.247765"><ele>653.0</ele><time>2026-03-22T08:55:23.564Z</time></trkpt><trkpt lat="43.8988867" lon="12.2476317"><ele>653.0</ele><time>2026-03-22T08:55:24.564Z</time></trkpt><trkpt lat="43.8988333" lon="12.247515"><ele>653.0</ele><time>2026-03-22T08:55:25.564Z</time></trkpt><trkpt lat="43.8987333" lon="12.2474417"><ele>653.0</ele><time>2026-03-22T08:55:26.564Z</time></trkpt><trkpt lat="43.898625" lon="12.247415"><ele>653.0</ele><time>2026-03-22T08:55:27.564Z</time></trkpt><trkpt lat="43.8985117" lon="12.2474183"><ele>653.5999999999999</ele><time>2026-03-22T08:55:28.564Z</time></trkpt><trkpt lat="43.8984117" lon="12.247425"><ele>654.1999999999999</ele><time>2026-03-22T08:55:29.564Z</time></trkpt><trkpt lat="43.8983267" lon="12.2473833"><ele>654.8</ele><time>2026-03-22T08:55:30.564Z</time></trkpt><trkpt lat="43.8982383" lon="12.247305"><ele>655.4</ele><time>2026-03-22T08:55:31.563Z</time></trkpt><trkpt lat="43.89814" lon="12.2472"><ele>656.0</ele><time>2026-03-22T08:55:32.564Z</time></trkpt><trkpt lat="43.8980317" lon="12.2470917"><ele>656.0</ele><time>2026-03-22T08:55:33.564Z</time></trkpt><trkpt lat="43.8978967" lon="12.2469867"><ele>656.0</ele><time>2026-03-22T08:55:34.564Z</time></trkpt><trkpt lat="43.89774" lon="12.2469033"><ele>656.0</ele><time>2026-03-22T08:55:35.564Z</time></trkpt><trkpt lat="43.8975667" lon="12.2468367"><ele>655.6666666666666</ele><time>2026-03-22T08:55:36.564Z</time></trkpt><trkpt lat="43.8973833" lon="12.2467683"><ele>655.3333333333334</ele><time>2026-03-22T08:55:37.564Z</time></trkpt><trkpt lat="43.89719" lon="12.2466967"><ele>655.0</ele><time>2026-03-22T08:55:38.564Z</time></trkpt><trkpt lat="43.8969867" lon="12.246615"><ele>655.0</ele><time>2026-03-22T08:55:39.564Z</time></trkpt><trkpt lat="43.8967767" lon="12.24653"><ele>655.0</ele><time>2026-03-22T08:55:40.564Z</time></trkpt><trkpt lat="43.89658" lon="12.24643"><ele>655.0</ele><time>2026-03-22T08:55:41.563Z</time></trkpt><trkpt lat="43.89639" lon="12.2463167"><ele>656.6666666666667</ele><time>2026-03-22T08:55:42.564Z</time></trkpt><trkpt lat="43.89621" lon="12.2462017"><ele>658.3333333333334</ele><time>2026-03-22T08:55:43.563Z</time></trkpt><trkpt lat="43.8960483" lon="12.2460883"><ele>660.0</ele><time>2026-03-22T08:55:44.564Z</time></trkpt><trkpt lat="43.8958817" lon="12.245985"><ele>662.6666666666666</ele><time>2026-03-22T08:55:45.564Z</time></trkpt><trkpt lat="43.8957117" lon="12.2458783"><ele>665.3333333333333</ele><time>2026-03-22T08:55:46.563Z</time></trkpt><trkpt lat="43.895525" lon="12.2457867"><ele>668.0</ele><time>2026-03-22T08:55:47.564Z</time></trkpt><trkpt lat="43.8953367" lon="12.2456933"><ele>666.6666666666666</ele><time>2026-03-22T08:55:48.564Z</time></trkpt><trkpt lat="43.8951417" lon="12.2456183"><ele>665.3333333333334</ele><time>2026-03-22T08:55:49.564Z</time></trkpt><trkpt lat="43.894955" lon="12.2455467"><ele>664.0</ele><time>2026-03-22T08:55:50.563Z</time></trkpt><trkpt lat="43.8947833" lon="12.2454767"><ele>670.3333333333334</ele><time>2026-03-22T08:55:51.564Z</time></trkpt><trkpt lat="43.8946167" lon="12.245425"><ele>676.6666666666666</ele><time>2026-03-22T08:55:52.564Z</time></trkpt><trkpt lat="43.8944517" lon="12.2453667"><ele>683.0</ele><time>2026-03-22T08:55:53.564Z</time></trkpt><trkpt lat="43.89427" lon="12.2453433"><ele>685.0</ele><time>2026-03-22T08:55:54.563Z</time></trkpt><trkpt lat="43.8940833" lon="12.2453433"><ele>687.0</ele><time>2026-03-22T08:55:55.564Z</time></trkpt><trkpt lat="43.893895" lon="12.2453633"><ele>689.0</ele><time>2026-03-22T08:55:56.563Z</time></trkpt><trkpt lat="43.8937117" lon="12.245385"><ele>689.0</ele><time>2026-03-22T08:55:57.564Z</time></trkpt><trkpt lat="43.8935483" lon="12.2454117"><ele>689.0</ele><time>2026-03-22T08:55:58.563Z</time></trkpt><trkpt lat="43.89339" lon="12.2454367"><ele>689.0</ele><time>2026-03-22T08:55:59.564Z</time></trkpt><trkpt lat="43.89323" lon="12.2454433"><ele>691.0</ele><time>2026-03-22T08:56:00.564Z</time></trkpt><trkpt lat="43.8930683" lon="12.245435"><ele>693.0</ele><time>2026-03-22T08:56:01.564Z</time></trkpt><trkpt lat="43.892905" lon="12.2454033"><ele>695.0</ele><time>2026-03-22T08:56:02.564Z</time></trkpt><trkpt lat="43.892755" lon="12.2453683"><ele>695.0</ele><time>2026-03-22T08:56:03.564Z</time></trkpt><trkpt lat="43.8926133" lon="12.2453467"><ele>695.0</ele><time>2026-03-22T08:56:04.564Z</time></trkpt><trkpt lat="43.8924717" lon="12.2453633"><ele>695.0</ele><time>2026-03-22T08:56:05.563Z</time></trkpt><trkpt lat="43.8923367" lon="12.2454167"><ele>695.0</ele><time>2026-03-22T08:56:06.564Z</time></trkpt><trkpt lat="43.8922067" lon="12.2454817"><ele>696.75</ele><time>2026-03-22T08:56:07.563Z</time></trkpt><trkpt lat="43.892065" lon="12.2455317"><ele>698.5</ele><time>2026-03-22T08:56:08.564Z</time></trkpt><trkpt lat="43.891925" lon="12.2455633"><ele>700.25</ele><time>2026-03-22T08:56:09.564Z</time></trkpt><trkpt lat="43.89178" lon="12.245585"><ele>702.0</ele><time>2026-03-22T08:56:10.564Z</time></trkpt><trkpt lat="43.8916417" lon="12.2455817"><ele>704.0</ele><time>2026-03-22T08:56:11.564Z</time></trkpt><trkpt lat="43.8915017" lon="12.2455433"><ele>706.0</ele><time>2026-03-22T08:56:12.563Z</time></trkpt><trkpt lat="43.8913717" lon="12.2454667"><ele>708.0</ele><time>2026-03-22T08:56:13.563Z</time></trkpt><trkpt lat="43.891245" lon="12.2453567"><ele>710.0</ele><time>2026-03-22T08:56:14.564Z</time></trkpt><trkpt lat="43.8911117" lon="12.2452767"><ele>710.0</ele><time>2026-03-22T08:56:15.563Z</time></trkpt><trkpt lat="43.8909817" lon="12.2452217"><ele>710.0</ele><time>2026-03-22T08:56:16.563Z</time></trkpt><trkpt lat="43.8908617" lon="12.245205"><ele>710.0</ele><time>2026-03-22T08:56:17.564Z</time></trkpt><trkpt lat="43.890745" lon="12.2452433"><ele>710.0</ele><time>2026-03-22T08:56:18.563Z</time></trkpt><trkpt lat="43.8906383" lon="12.2453367"><ele>710.75</ele><time>2026-03-22T08:56:19.564Z</time></trkpt><trkpt lat="43.8905333" lon="12.24547"><ele>711.5</ele><time>2026-03-22T08:56:20.564Z</time></trkpt><trkpt lat="43.890435" lon="12.245615"><ele>712.25</ele><time>2026-03-22T08:56:21.564Z</time></trkpt><trkpt lat="43.8903317" lon="12.245765"><ele>713.0</ele><time>2026-03-22T08:56:22.564Z</time></trkpt><trkpt lat="43.8902083" lon="12.2459117"><ele>713.6666666666666</ele><time>2026-03-22T08:56:23.564Z</time></trkpt><trkpt lat="43.8900667" lon="12.2460483"><ele>714.3333333333334</ele><time>2026-03-22T08:56:24.563Z</time></trkpt><trkpt lat="43.8899083" lon="12.246175"><ele>715.0</ele><time>2026-03-22T08:56:25.564Z</time></trkpt><trkpt lat="43.8897317" lon="12.24629"><ele>715.0</ele><time>2026-03-22T08:56:26.563Z</time></trkpt><trkpt lat="43.8895533" lon="12.246395"><ele>715.0</ele><time>2026-03-22T08:56:27.563Z</time></trkpt><trkpt lat="43.8893867" lon="12.2464833"><ele>715.0</ele><time>2026-03-22T08:56:28.564Z</time></trkpt><trkpt lat="43.8892267" lon="12.24657"><ele>716.6666666666667</ele><time>2026-03-22T08:56:29.564Z</time></trkpt><trkpt lat="43.88906" lon="12.246655"><ele>718.3333333333334</ele><time>2026-03-22T08:56:30.564Z</time></trkpt><trkpt lat="43.8888883" lon="12.2467233"><ele>720.0</ele><time>2026-03-22T08:56:31.563Z</time></trkpt><trkpt lat="43.888705" lon="12.2467733"><ele>720.0</ele><time>2026-03-22T08:56:32.564Z</time></trkpt><trkpt lat="43.888515" lon="12.2468217"><ele>720.0</ele><time>2026-03-22T08:56:33.564Z</time></trkpt><trkpt lat="43.8887283" lon="12.24635"><ele>731.0</ele><time>2026-03-22T08:56:34.664Z</time></trkpt><trkpt lat="43.887965" lon="12.2468533"><ele>731.0</ele><time>2026-03-22T08:56:36.033Z</time></trkpt><trkpt lat="43.8878633" lon="12.2469167"><ele>731.0</ele><time>2026-03-22T08:56:37.059Z</time></trkpt><trkpt lat="43.88771" lon="12.247005"><ele>731.0</ele><time>2026-03-22T08:56:38.059Z</time></trkpt><trkpt lat="43.887505" lon="12.2470817"><ele>728.5</ele><time>2026-03-22T08:56:39.06Z</time></trkpt><trkpt lat="43.8872017" lon="12.247255"><ele>726.0</ele><time>2026-03-22T08:56:40.559Z</time></trkpt><trkpt lat="43.8870117" lon="12.24737"><ele>725.6666666666666</ele><time>2026-03-22T08:56:41.56Z</time></trkpt><trkpt lat="43.88682" lon="12.247465"><ele>725.3333333333333</ele><time>2026-03-22T08:56:42.559Z</time></trkpt><trkpt lat="43.8866233" lon="12.2475383"><ele>725.0</ele><time>2026-03-22T08:56:43.56Z</time></trkpt><trkpt lat="43.88643" lon="12.247585"><ele>725.0</ele><time>2026-03-22T08:56:44.56Z</time></trkpt><trkpt lat="43.8862533" lon="12.24762"><ele>725.0</ele><time>2026-03-22T08:56:45.56Z</time></trkpt><trkpt lat="43.8860917" lon="12.247655"><ele>725.0</ele><time>2026-03-22T08:56:46.559Z</time></trkpt><trkpt lat="43.8859567" lon="12.2476983"><ele>727.25</ele><time>2026-03-22T08:56:47.559Z</time></trkpt><trkpt lat="43.8858233" lon="12.2477783"><ele>729.5</ele><time>2026-03-22T08:56:48.56Z</time></trkpt><trkpt lat="43.885705" lon="12.2479017"><ele>731.75</ele><time>2026-03-22T08:56:49.559Z</time></trkpt><trkpt lat="43.8856067" lon="12.2480367"><ele>734.0</ele><time>2026-03-22T08:56:50.56Z</time></trkpt><trkpt lat="43.8855083" lon="12.24816"><ele>734.5</ele><time>2026-03-22T08:56:51.56Z</time></trkpt><trkpt lat="43.8854033" lon="12.2482483"><ele>735.0</ele><time>2026-03-22T08:56:52.56Z</time></trkpt><trkpt lat="43.885285" lon="12.2482933"><ele>735.5</ele><time>2026-03-22T08:56:53.56Z</time></trkpt><trkpt lat="43.8851567" lon="12.2483083"><ele>736.0</ele><time>2026-03-22T08:56:54.559Z</time></trkpt><trkpt lat="43.88504" lon="12.2482667"><ele>737.5</ele><time>2026-03-22T08:56:55.56Z</time></trkpt><trkpt lat="43.884935" lon="12.2481767"><ele>739.0</ele><time>2026-03-22T08:56:56.56Z</time></trkpt><trkpt lat="43.8848217" lon="12.2480383"><ele>740.5</ele><time>2026-03-22T08:56:57.56Z</time></trkpt><trkpt lat="43.88471" lon="12.24786"><ele>742.0</ele><time>2026-03-22T08:56:58.56Z</time></trkpt><trkpt lat="43.8846033" lon="12.2476783"><ele>743.0</ele><time>2026-03-22T08:56:59.56Z</time></trkpt><trkpt lat="43.884515" lon="12.247525"><ele>744.0</ele><time>2026-03-22T08:57:00.56Z</time></trkpt><trkpt lat="43.8844283" lon="12.2474133"><ele>745.0</ele><time>2026-03-22T08:57:01.559Z</time></trkpt><trkpt lat="43.8843417" lon="12.2473267"><ele>746.0</ele><time>2026-03-22T08:57:02.559Z</time></trkpt><trkpt lat="43.8842483" lon="12.24727"><ele>747.0</ele><time>2026-03-22T08:57:03.56Z</time></trkpt><trkpt lat="43.8841517" lon="12.247255"><ele>748.0</ele><time>2026-03-22T08:57:04.56Z</time></trkpt><trkpt lat="43.8840383" lon="12.2472967"><ele>749.0</ele><time>2026-03-22T08:57:05.56Z</time></trkpt><trkpt lat="43.8839267" lon="12.24738"><ele>750.0</ele><time>2026-03-22T08:57:06.56Z</time></trkpt><trkpt lat="43.8838183" lon="12.247495"><ele>751.0</ele><time>2026-03-22T08:57:07.56Z</time></trkpt><trkpt lat="43.8836967" lon="12.2476033"><ele>752.0</ele><time>2026-03-22T08:57:08.56Z</time></trkpt><trkpt lat="43.8835817" lon="12.2476917"><ele>753.0</ele><time>2026-03-22T08:57:09.56Z</time></trkpt><trkpt lat="43.883475" lon="12.247755"><ele>754.0</ele><time>2026-03-22T08:57:10.559Z</time></trkpt><trkpt lat="43.8833817" lon="12.247805"><ele>756.0</ele><time>2026-03-22T08:57:11.56Z</time></trkpt><trkpt lat="43.8833" lon="12.2478483"><ele>758.0</ele><time>2026-03-22T08:57:12.559Z</time></trkpt><trkpt lat="43.8832317" lon="12.2478883"><ele>760.0</ele><time>2026-03-22T08:57:13.559Z</time></trkpt><trkpt lat="43.883165" lon="12.247895"><ele>762.0</ele><time>2026-03-22T08:57:14.56Z</time></trkpt><trkpt lat="43.8830983" lon="12.2478517"><ele>764.0</ele><time>2026-03-22T08:57:15.56Z</time></trkpt><trkpt lat="43.883025" lon="12.2477783"><ele>766.0</ele><time>2026-03-22T08:57:16.56Z</time></trkpt><trkpt lat="43.8829533" lon="12.2476517"><ele>766.0</ele><time>2026-03-22T08:57:17.56Z</time></trkpt><trkpt lat="43.88288" lon="12.2474967"><ele>766.0</ele><time>2026-03-22T08:57:18.56Z</time></trkpt><trkpt lat="43.8827983" lon="12.24732"><ele>766.0</ele><time>2026-03-22T08:57:19.559Z</time></trkpt><trkpt lat="43.8827133" lon="12.247125"><ele>766.0</ele><time>2026-03-22T08:57:20.559Z</time></trkpt><trkpt lat="43.8826317" lon="12.24695"><ele>764.75</ele><time>2026-03-22T08:57:21.56Z</time></trkpt><trkpt lat="43.88254" lon="12.2468083"><ele>763.5</ele><time>2026-03-22T08:57:22.56Z</time></trkpt><trkpt lat="43.882435" lon="12.246695"><ele>762.25</ele><time>2026-03-22T08:57:23.559Z</time></trkpt><trkpt lat="43.8823083" lon="12.2466017"><ele>761.0</ele><time>2026-03-22T08:57:24.559Z</time></trkpt><trkpt lat="43.882165" lon="12.246535"><ele>761.0</ele><time>2026-03-22T08:57:25.56Z</time></trkpt><trkpt lat="43.8819917" lon="12.2464983"><ele>761.0</ele><time>2026-03-22T08:57:26.56Z</time></trkpt><trkpt lat="43.881825" lon="12.2464917"><ele>761.0</ele><time>2026-03-22T08:57:27.559Z</time></trkpt><trkpt lat="43.881665" lon="12.2464867"><ele>759.0</ele><time>2026-03-22T08:57:28.56Z</time></trkpt><trkpt lat="43.8815067" lon="12.2464567"><ele>757.0</ele><time>2026-03-22T08:57:29.56Z</time></trkpt><trkpt lat="43.8813467" lon="12.2463883"><ele>755.0</ele><time>2026-03-22T08:57:30.56Z</time></trkpt><trkpt lat="43.8811833" lon="12.2462867"><ele>755.0</ele><time>2026-03-22T08:57:31.559Z</time></trkpt><trkpt lat="43.8810067" lon="12.2461483"><ele>755.0</ele><time>2026-03-22T08:57:32.56Z</time></trkpt><trkpt lat="43.8808183" lon="12.2459783"><ele>755.0</ele><time>2026-03-22T08:57:33.56Z</time></trkpt><trkpt lat="43.88062" lon="12.2458"><ele>754.0</ele><time>2026-03-22T08:57:34.56Z</time></trkpt><trkpt lat="43.880415" lon="12.2456367"><ele>753.0</ele><time>2026-03-22T08:57:35.559Z</time></trkpt><trkpt lat="43.8802133" lon="12.2454633"><ele>752.6666666666666</ele><time>2026-03-22T08:57:36.56Z</time></trkpt><trkpt lat="43.88002" lon="12.2453033"><ele>752.3333333333333</ele><time>2026-03-22T08:57:37.56Z</time></trkpt><trkpt lat="43.8798367" lon="12.2451417"><ele>752.0</ele><time>2026-03-22T08:57:38.561Z</time></trkpt><trkpt lat="43.8796433" lon="12.2449833"><ele>752.0</ele><time>2026-03-22T08:57:39.561Z</time></trkpt><trkpt lat="43.8794533" lon="12.2448233"><ele>752.0</ele><time>2026-03-22T08:57:40.561Z</time></trkpt><trkpt lat="43.8792667" lon="12.2446633"><ele>752.0</ele><time>2026-03-22T08:57:41.561Z</time></trkpt><trkpt lat="43.8790867" lon="12.24451"><ele>751.0</ele><time>2026-03-22T08:57:42.561Z</time></trkpt><trkpt lat="43.8789167" lon="12.244365"><ele>750.0</ele><time>2026-03-22T08:57:43.56Z</time></trkpt><trkpt lat="43.87876" lon="12.2442367"><ele>749.0</ele><time>2026-03-22T08:57:44.56Z</time></trkpt><trkpt lat="43.8786167" lon="12.2441133"><ele>749.0</ele><time>2026-03-22T08:57:45.561Z</time></trkpt><trkpt lat="43.8784783" lon="12.244"><ele>749.0</ele><time>2026-03-22T08:57:46.561Z</time></trkpt><trkpt lat="43.878335" lon="12.2439117"><ele>749.0</ele><time>2026-03-22T08:57:47.56Z</time></trkpt><trkpt lat="43.8781633" lon="12.2438533"><ele>747.3333333333333</ele><time>2026-03-22T08:57:48.561Z</time></trkpt><trkpt lat="43.8779867" lon="12.243835"><ele>745.6666666666666</ele><time>2026-03-22T08:57:49.561Z</time></trkpt><trkpt lat="43.877805" lon="12.2438383"><ele>744.0</ele><time>2026-03-22T08:57:50.561Z</time></trkpt><trkpt lat="43.8776367" lon="12.2438633"><ele>742.6666666666666</ele><time>2026-03-22T08:57:51.561Z</time></trkpt><trkpt lat="43.8774617" lon="12.2438933"><ele>741.3333333333333</ele><time>2026-03-22T08:57:52.561Z</time></trkpt><trkpt lat="43.8772783" lon="12.2438867"><ele>740.0</ele><time>2026-03-22T08:57:53.561Z</time></trkpt><trkpt lat="43.8770967" lon="12.243855"><ele>740.0</ele><time>2026-03-22T08:57:54.561Z</time></trkpt><trkpt lat="43.8769083" lon="12.2437983"><ele>740.0</ele><time>2026-03-22T08:57:55.56Z</time></trkpt><trkpt lat="43.8767267" lon="12.2437183"><ele>740.0</ele><time>2026-03-22T08:57:56.56Z</time></trkpt><trkpt lat="43.8765617" lon="12.2436133"><ele>742.3333333333333</ele><time>2026-03-22T08:57:57.561Z</time></trkpt><trkpt lat="43.8764" lon="12.243475"><ele>744.6666666666666</ele><time>2026-03-22T08:57:58.561Z</time></trkpt><trkpt lat="43.8762417" lon="12.2433067"><ele>747.0</ele><time>2026-03-22T08:57:59.56Z</time></trkpt><trkpt lat="43.8760867" lon="12.2431333"><ele>748.0</ele><time>2026-03-22T08:58:00.56Z</time></trkpt><trkpt lat="43.8759467" lon="12.2429483"><ele>749.0</ele><time>2026-03-22T08:58:01.561Z</time></trkpt><trkpt lat="43.87582" lon="12.2427417"><ele>750.0</ele><time>2026-03-22T08:58:02.56Z</time></trkpt><trkpt lat="43.8757083" lon="12.2425133"><ele>750.0</ele><time>2026-03-22T08:58:03.56Z</time></trkpt><trkpt lat="43.8756083" lon="12.242275"><ele>750.0</ele><time>2026-03-22T08:58:04.561Z</time></trkpt><trkpt lat="43.875515" lon="12.2420167"><ele>750.0</ele><time>2026-03-22T08:58:05.561Z</time></trkpt><trkpt lat="43.87544" lon="12.2417467"><ele>749.6666666666666</ele><time>2026-03-22T08:58:06.561Z</time></trkpt><trkpt lat="43.8753717" lon="12.2414633"><ele>749.3333333333333</ele><time>2026-03-22T08:58:07.561Z</time></trkpt><trkpt lat="43.8753" lon="12.2411667"><ele>749.0</ele><time>2026-03-22T08:58:08.561Z</time></trkpt><trkpt lat="43.87522" lon="12.24088"><ele>747.6666666666666</ele><time>2026-03-22T08:58:09.56Z</time></trkpt><trkpt lat="43.8751467" lon="12.2406067"><ele>746.3333333333334</ele><time>2026-03-22T08:58:10.561Z</time></trkpt><trkpt lat="43.8750717" lon="12.2403417"><ele>745.0</ele><time>2026-03-22T08:58:11.561Z</time></trkpt><trkpt lat="43.8749733" lon="12.2400867"><ele>750.0</ele><time>2026-03-22T08:58:12.56Z</time></trkpt><trkpt lat="43.87485" lon="12.2398433"><ele>755.0</ele><time>2026-03-22T08:58:13.561Z</time></trkpt><trkpt lat="43.8747217" lon="12.2396117"><ele>760.0</ele><time>2026-03-22T08:58:14.56Z</time></trkpt><trkpt lat="43.8745983" lon="12.23939"><ele>760.0</ele><time>2026-03-22T08:58:15.56Z</time></trkpt><trkpt lat="43.8744833" lon="12.23917"><ele>760.0</ele><time>2026-03-22T08:58:16.561Z</time></trkpt><trkpt lat="43.8743517" lon="12.2389633"><ele>760.0</ele><time>2026-03-22T08:58:17.561Z</time></trkpt><trkpt lat="43.8742033" lon="12.2387717"><ele>762.6666666666667</ele><time>2026-03-22T08:58:18.56Z</time></trkpt><trkpt lat="43.874035" lon="12.2386017"><ele>765.3333333333334</ele><time>2026-03-22T08:58:19.561Z</time></trkpt><trkpt lat="43.873875" lon="12.2384633"><ele>768.0</ele><time>2026-03-22T08:58:20.56Z</time></trkpt><trkpt lat="43.87372" lon="12.238335"><ele>768.0</ele><time>2026-03-22T08:58:21.561Z</time></trkpt><trkpt lat="43.873565" lon="12.2381917"><ele>768.0</ele><time>2026-03-22T08:58:22.56Z</time></trkpt><trkpt lat="43.873415" lon="12.2380267"><ele>768.0</ele><time>2026-03-22T08:58:23.56Z</time></trkpt><trkpt lat="43.8732617" lon="12.2378367"><ele>766.6666666666666</ele><time>2026-03-22T08:58:24.561Z</time></trkpt><trkpt lat="43.8731117" lon="12.2376333"><ele>765.3333333333333</ele><time>2026-03-22T08:58:25.561Z</time></trkpt><trkpt lat="43.8729783" lon="12.23743"><ele>764.0</ele><time>2026-03-22T08:58:26.561Z</time></trkpt><trkpt lat="43.872855" lon="12.2372383"><ele>764.0</ele><time>2026-03-22T08:58:27.561Z</time></trkpt><trkpt lat="43.8727233" lon="12.23707"><ele>764.0</ele><time>2026-03-22T08:58:28.561Z</time></trkpt><trkpt lat="43.87258" lon="12.23692"><ele>764.0</ele><time>2026-03-22T08:58:29.561Z</time></trkpt><trkpt lat="43.8724367" lon="12.2367883"><ele>769.5</ele><time>2026-03-22T08:58:30.561Z</time></trkpt><trkpt lat="43.87231" lon="12.2366783"><ele>775.0</ele><time>2026-03-22T08:58:31.561Z</time></trkpt><trkpt lat="43.8721967" lon="12.236575"><ele>780.5</ele><time>2026-03-22T08:58:32.561Z</time></trkpt><trkpt lat="43.8721033" lon="12.23648"><ele>786.0</ele><time>2026-03-22T08:58:33.56Z</time></trkpt><trkpt lat="43.87203" lon="12.2363617"><ele>787.75</ele><time>2026-03-22T08:58:34.56Z</time></trkpt><trkpt lat="43.8719883" lon="12.2362133"><ele>789.5</ele><time>2026-03-22T08:58:35.561Z</time></trkpt><trkpt lat="43.871975" lon="12.236045"><ele>791.25</ele><time>2026-03-22T08:58:36.561Z</time></trkpt><trkpt lat="43.871965" lon="12.2358567"><ele>793.0</ele><time>2026-03-22T08:58:37.561Z</time></trkpt><trkpt lat="43.871935" lon="12.2356617"><ele>795.0</ele><time>2026-03-22T08:58:38.561Z</time></trkpt><trkpt lat="43.871875" lon="12.235445"><ele>797.0</ele><time>2026-03-22T08:58:39.561Z</time></trkpt><trkpt lat="43.8717833" lon="12.2351967"><ele>799.0</ele><time>2026-03-22T08:58:40.56Z</time></trkpt><trkpt lat="43.8716883" lon="12.23494"><ele>799.6666666666666</ele><time>2026-03-22T08:58:41.561Z</time></trkpt><trkpt lat="43.8716" lon="12.23469"><ele>800.3333333333333</ele><time>2026-03-22T08:58:42.561Z</time></trkpt><trkpt lat="43.8715283" lon="12.234445"><ele>801.0</ele><time>2026-03-22T08:58:43.561Z</time></trkpt><trkpt lat="43.8714767" lon="12.2342067"><ele>801.0</ele><time>2026-03-22T08:58:44.561Z</time></trkpt><trkpt lat="43.8714367" lon="12.2339767"><ele>801.0</ele><time>2026-03-22T08:58:45.561Z</time></trkpt><trkpt lat="43.8713917" lon="12.2337533"><ele>801.0</ele><time>2026-03-22T08:58:46.56Z</time></trkpt><trkpt lat="43.8713183" lon="12.2335267"><ele>800.3333333333333</ele><time>2026-03-22T08:58:47.561Z</time></trkpt><trkpt lat="43.8712283" lon="12.2333017"><ele>799.6666666666666</ele><time>2026-03-22T08:58:48.56Z</time></trkpt><trkpt lat="43.8711217" lon="12.2330783"><ele>799.0</ele><time>2026-03-22T08:58:49.561Z</time></trkpt><trkpt lat="43.8710183" lon="12.23286"><ele>799.0</ele><time>2026-03-22T08:58:50.561Z</time></trkpt><trkpt lat="43.8709267" lon="12.2326533"><ele>799.0</ele><time>2026-03-22T08:58:51.56Z</time></trkpt><trkpt lat="43.8708217" lon="12.2324283"><ele>799.0</ele><time>2026-03-22T08:58:52.561Z</time></trkpt><trkpt lat="43.8707183" lon="12.2322067"><ele>799.0</ele><time>2026-03-22T08:58:53.561Z</time></trkpt><trkpt lat="43.870615" lon="12.231995"><ele>799.0</ele><time>2026-03-22T08:58:54.561Z</time></trkpt><trkpt lat="43.8705067" lon="12.231795"><ele>799.0</ele><time>2026-03-22T08:58:55.561Z</time></trkpt><trkpt lat="43.8704217" lon="12.2316033"><ele>795.3333333333333</ele><time>2026-03-22T08:58:56.561Z</time></trkpt><trkpt lat="43.8703317" lon="12.2314167"><ele>791.6666666666667</ele><time>2026-03-22T08:58:57.56Z</time></trkpt><trkpt lat="43.8702483" lon="12.231225"><ele>788.0</ele><time>2026-03-22T08:58:58.561Z</time></trkpt><trkpt lat="43.8701833" lon="12.231005"><ele>788.0</ele><time>2026-03-22T08:58:59.561Z</time></trkpt><trkpt lat="43.87013" lon="12.2307667"><ele>788.0</ele><time>2026-03-22T08:59:00.561Z</time></trkpt><trkpt lat="43.8700867" lon="12.2305033"><ele>788.0</ele><time>2026-03-22T08:59:01.561Z</time></trkpt><trkpt lat="43.8700367" lon="12.230225"><ele>789.3333333333334</ele><time>2026-03-22T08:59:02.561Z</time></trkpt><trkpt lat="43.86999" lon="12.22995"><ele>790.6666666666667</ele><time>2026-03-22T08:59:03.561Z</time></trkpt><trkpt lat="43.8699533" lon="12.229685"><ele>792.0</ele><time>2026-03-22T08:59:04.561Z</time></trkpt><trkpt lat="43.869905" lon="12.2294067"><ele>792.0</ele><time>2026-03-22T08:59:05.56Z</time></trkpt><trkpt lat="43.8698617" lon="12.2291283"><ele>792.0</ele><time>2026-03-22T08:59:06.561Z</time></trkpt><trkpt lat="43.8698133" lon="12.2288517"><ele>792.0</ele><time>2026-03-22T08:59:07.56Z</time></trkpt><trkpt lat="43.8697733" lon="12.2285817"><ele>789.0</ele><time>2026-03-22T08:59:08.56Z</time></trkpt><trkpt lat="43.869735" lon="12.2283183"><ele>786.0</ele><time>2026-03-22T08:59:09.56Z</time></trkpt><trkpt lat="43.8697" lon="12.228055"><ele>783.0</ele><time>2026-03-22T08:59:10.561Z</time></trkpt><trkpt lat="43.8696583" lon="12.2277883"><ele>780.6666666666667</ele><time>2026-03-22T08:59:11.561Z</time></trkpt><trkpt lat="43.8696167" lon="12.2275333"><ele>778.3333333333334</ele><time>2026-03-22T08:59:12.561Z</time></trkpt><trkpt lat="43.869575" lon="12.2272867"><ele>776.0</ele><time>2026-03-22T08:59:13.561Z</time></trkpt><trkpt lat="43.8695333" lon="12.227055"><ele>775.0</ele><time>2026-03-22T08:59:14.56Z</time></trkpt><trkpt lat="43.8694817" lon="12.2268133"><ele>774.0</ele><time>2026-03-22T08:59:15.561Z</time></trkpt><trkpt lat="43.8694217" lon="12.22657"><ele>773.0</ele><time>2026-03-22T08:59:16.561Z</time></trkpt><trkpt lat="43.8693483" lon="12.22632"><ele>776.0</ele><time>2026-03-22T08:59:17.56Z</time></trkpt><trkpt lat="43.8692583" lon="12.2260817"><ele>779.0</ele><time>2026-03-22T08:59:18.56Z</time></trkpt><trkpt lat="43.869165" lon="12.225855"><ele>782.0</ele><time>2026-03-22T08:59:19.561Z</time></trkpt><trkpt lat="43.8690783" lon="12.2256483"><ele>780.0</ele><time>2026-03-22T08:59:20.56Z</time></trkpt><trkpt lat="43.8689983" lon="12.2254567"><ele>778.0</ele><time>2026-03-22T08:59:21.56Z</time></trkpt><trkpt lat="43.8689283" lon="12.2252767"><ele>776.0</ele><time>2026-03-22T08:59:22.561Z</time></trkpt><trkpt lat="43.8688567" lon="12.2251167"><ele>774.0</ele><time>2026-03-22T08:59:23.56Z</time></trkpt><trkpt lat="43.8687767" lon="12.2249667"><ele>774.0</ele><time>2026-03-22T08:59:24.56Z</time></trkpt><trkpt lat="43.8686767" lon="12.2248383"><ele>774.0</ele><time>2026-03-22T08:59:25.56Z</time></trkpt><trkpt lat="43.8685583" lon="12.2247283"><ele>774.0</ele><time>2026-03-22T08:59:26.561Z</time></trkpt><trkpt lat="43.8684133" lon="12.2246533"><ele>774.0</ele><time>2026-03-22T08:59:27.561Z</time></trkpt><trkpt lat="43.8682517" lon="12.2245983"><ele>772.25</ele><time>2026-03-22T08:59:28.561Z</time></trkpt><trkpt lat="43.8680917" lon="12.2245633"><ele>770.5</ele><time>2026-03-22T08:59:29.56Z</time></trkpt><trkpt lat="43.8679467" lon="12.2245283"><ele>768.75</ele><time>2026-03-22T08:59:30.56Z</time></trkpt><trkpt lat="43.8678233" lon="12.2244933"><ele>767.0</ele><time>2026-03-22T08:59:31.561Z</time></trkpt><trkpt lat="43.8677133" lon="12.224465"><ele>767.0</ele><time>2026-03-22T08:59:32.56Z</time></trkpt><trkpt lat="43.8676283" lon="12.224445"><ele>767.0</ele><time>2026-03-22T08:59:33.561Z</time></trkpt><trkpt lat="43.8675517" lon="12.224415"><ele>767.0</ele><time>2026-03-22T08:59:34.561Z</time></trkpt><trkpt lat="43.8674933" lon="12.22436"><ele>767.0</ele><time>2026-03-22T08:59:35.561Z</time></trkpt><trkpt lat="43.8674583" lon="12.2242867"><ele>767.0</ele><time>2026-03-22T08:59:36.561Z</time></trkpt><trkpt lat="43.8674517" lon="12.2241917"><ele>767.0</ele><time>2026-03-22T08:59:37.56Z</time></trkpt><trkpt lat="43.8674733" lon="12.2240933"><ele>767.0</ele><time>2026-03-22T08:59:38.561Z</time></trkpt><trkpt lat="43.86752" lon="12.2240117"><ele>764.4000000000001</ele><time>2026-03-22T08:59:39.561Z</time></trkpt><trkpt lat="43.8676" lon="12.2239567"><ele>761.8000000000001</ele><time>2026-03-22T08:59:40.56Z</time></trkpt><trkpt lat="43.8677017" lon="12.22394"><ele>759.2</ele><time>2026-03-22T08:59:41.56Z</time></trkpt><trkpt lat="43.8678017" lon="12.223915"><ele>756.6</ele><time>2026-03-22T08:59:42.56Z</time></trkpt><trkpt lat="43.8678983" lon="12.22387"><ele>754.0</ele><time>2026-03-22T08:59:43.56Z</time></trkpt><trkpt lat="43.867965" lon="12.22378"><ele>754.0</ele><time>2026-03-22T08:59:44.56Z</time></trkpt><trkpt lat="43.8679867" lon="12.2236617"><ele>754.0</ele><time>2026-03-22T08:59:45.561Z</time></trkpt><trkpt lat="43.8679683" lon="12.2235267"><ele>754.0</ele><time>2026-03-22T08:59:46.561Z</time></trkpt><trkpt lat="43.8679" lon="12.22341"><ele>754.0</ele><time>2026-03-22T08:59:47.561Z</time></trkpt><trkpt lat="43.8677933" lon="12.2233233"><ele>754.0</ele><time>2026-03-22T08:59:48.561Z</time></trkpt><trkpt lat="43.867675" lon="12.2232717"><ele>754.0</ele><time>2026-03-22T08:59:49.561Z</time></trkpt><trkpt lat="43.867535" lon="12.2232317"><ele>754.0</ele><time>2026-03-22T08:59:50.56Z</time></trkpt><trkpt lat="43.8673867" lon="12.2231883"><ele>754.0</ele><time>2026-03-22T08:59:51.56Z</time></trkpt><trkpt lat="43.8672433" lon="12.2231417"><ele>754.0</ele><time>2026-03-22T08:59:52.561Z</time></trkpt><trkpt lat="43.86711" lon="12.2231"><ele>752.2</ele><time>2026-03-22T08:59:53.56Z</time></trkpt><trkpt lat="43.8669917" lon="12.2230583"><ele>750.4000000000001</ele><time>2026-03-22T08:59:54.561Z</time></trkpt><trkpt lat="43.8668917" lon="12.2230233"><ele>748.6</ele><time>2026-03-22T08:59:55.561Z</time></trkpt><trkpt lat="43.8668017" lon="12.222985"><ele>746.8</ele><time>2026-03-22T08:59:56.561Z</time></trkpt><trkpt lat="43.8667333" lon="12.2229183"><ele>745.0</ele><time>2026-03-22T08:59:57.561Z</time></trkpt><trkpt lat="43.8666867" lon="12.222825"><ele>745.0</ele><time>2026-03-22T08:59:58.561Z</time></trkpt><trkpt lat="43.8666833" lon="12.2227217"><ele>745.0</ele><time>2026-03-22T08:59:59.56Z</time></trkpt><trkpt lat="43.866725" lon="12.2226"><ele>745.0</ele><time>2026-03-22T09:00:00.561Z</time></trkpt><trkpt lat="43.866805" lon="12.2225"><ele>745.0</ele><time>2026-03-22T09:00:01.561Z</time></trkpt><trkpt lat="43.8669167" lon="12.2224183"><ele>745.0</ele><time>2026-03-22T09:00:02.561Z</time></trkpt><trkpt lat="43.86706" lon="12.2223833"><ele>744.0</ele><time>2026-03-22T09:00:03.56Z</time></trkpt><trkpt lat="43.867185" lon="12.222345"><ele>743.0</ele><time>2026-03-22T09:00:04.561Z</time></trkpt><trkpt lat="43.8672983" lon="12.2222583"><ele>742.0</ele><time>2026-03-22T09:00:05.561Z</time></trkpt><trkpt lat="43.8673933" lon="12.2221283"><ele>741.0</ele><time>2026-03-22T09:00:06.561Z</time></trkpt><trkpt lat="43.8674567" lon="12.221975"><ele>738.75</ele><time>2026-03-22T09:00:07.561Z</time></trkpt><trkpt lat="43.8674883" lon="12.22181"><ele>736.5</ele><time>2026-03-22T09:00:08.561Z</time></trkpt><trkpt lat="43.8674933" lon="12.2216483"><ele>734.25</ele><time>2026-03-22T09:00:09.561Z</time></trkpt><trkpt lat="43.8674617" lon="12.2214767"><ele>732.0</ele><time>2026-03-22T09:00:10.561Z</time></trkpt><trkpt lat="43.8673883" lon="12.2213233"><ele>729.25</ele><time>2026-03-22T09:00:11.561Z</time></trkpt><trkpt lat="43.8672883" lon="12.2211933"><ele>726.5</ele><time>2026-03-22T09:00:12.56Z</time></trkpt><trkpt lat="43.86716" lon="12.2211017"><ele>723.75</ele><time>2026-03-22T09:00:13.561Z</time></trkpt><trkpt lat="43.8669967" lon="12.221055"><ele>721.0</ele><time>2026-03-22T09:00:14.56Z</time></trkpt><trkpt lat="43.8668083" lon="12.2210367"><ele>721.3333333333334</ele><time>2026-03-22T09:00:15.561Z</time></trkpt><trkpt lat="43.866625" lon="12.22103"><ele>721.6666666666666</ele><time>2026-03-22T09:00:16.561Z</time></trkpt><trkpt lat="43.8664533" lon="12.221015"><ele>722.0</ele><time>2026-03-22T09:00:17.56Z</time></trkpt><trkpt lat="43.8662833" lon="12.2210017"><ele>722.0</ele><time>2026-03-22T09:00:18.561Z</time></trkpt><trkpt lat="43.8661217" lon="12.2209733"><ele>722.0</ele><time>2026-03-22T09:00:19.561Z</time></trkpt><trkpt lat="43.86597" lon="12.22091"><ele>722.0</ele><time>2026-03-22T09:00:20.56Z</time></trkpt><trkpt lat="43.8658467" lon="12.2208167"><ele>722.75</ele><time>2026-03-22T09:00:21.56Z</time></trkpt><trkpt lat="43.8657333" lon="12.2207433"><ele>723.5</ele><time>2026-03-22T09:00:22.561Z</time></trkpt><trkpt lat="43.8656283" lon="12.2207033"><ele>724.25</ele><time>2026-03-22T09:00:23.561Z</time></trkpt><trkpt lat="43.8655133" lon="12.2207067"><ele>725.0</ele><time>2026-03-22T09:00:24.56Z</time></trkpt><trkpt lat="43.8654083" lon="12.2207567"><ele>725.0</ele><time>2026-03-22T09:00:25.56Z</time></trkpt><trkpt lat="43.865305" lon="12.2208167"><ele>725.0</ele><time>2026-03-22T09:00:26.561Z</time></trkpt><trkpt lat="43.86519" lon="12.2208467"><ele>725.0</ele><time>2026-03-22T09:00:27.561Z</time></trkpt><trkpt lat="43.865065" lon="12.220815"><ele>725.0</ele><time>2026-03-22T09:00:28.561Z</time></trkpt><trkpt lat="43.864935" lon="12.2207417"><ele>718.6666666666666</ele><time>2026-03-22T09:00:29.561Z</time></trkpt><trkpt lat="43.864785" lon="12.220635"><ele>712.3333333333334</ele><time>2026-03-22T09:00:30.561Z</time></trkpt><trkpt lat="43.8646417" lon="12.2205183"><ele>706.0</ele><time>2026-03-22T09:00:31.561Z</time></trkpt><trkpt lat="43.8645167" lon="12.220425"><ele>706.0</ele><time>2026-03-22T09:00:32.56Z</time></trkpt><trkpt lat="43.8644133" lon="12.2203467"><ele>706.0</ele><time>2026-03-22T09:00:33.561Z</time></trkpt><trkpt lat="43.864325" lon="12.2202733"><ele>706.0</ele><time>2026-03-22T09:00:34.561Z</time></trkpt><trkpt lat="43.8642583" lon="12.220185"><ele>706.0</ele><time>2026-03-22T09:00:35.561Z</time></trkpt><trkpt lat="43.864225" lon="12.2200583"><ele>706.0</ele><time>2026-03-22T09:00:36.561Z</time></trkpt><trkpt lat="43.86424" lon="12.2199267"><ele>703.0</ele><time>2026-03-22T09:00:37.56Z</time></trkpt><trkpt lat="43.8642967" lon="12.21981"><ele>700.0</ele><time>2026-03-22T09:00:38.561Z</time></trkpt><trkpt lat="43.8643833" lon="12.219705"><ele>697.0</ele><time>2026-03-22T09:00:39.561Z</time></trkpt><trkpt lat="43.8644817" lon="12.2196133"><ele>694.0</ele><time>2026-03-22T09:00:40.56Z</time></trkpt><trkpt lat="43.86458" lon="12.2195267"><ele>694.0</ele><time>2026-03-22T09:00:41.561Z</time></trkpt><trkpt lat="43.8646467" lon="12.2194183"><ele>694.0</ele><time>2026-03-22T09:00:42.56Z</time></trkpt><trkpt lat="43.8646817" lon="12.2192833"><ele>694.0</ele><time>2026-03-22T09:00:43.561Z</time></trkpt><trkpt lat="43.8646683" lon="12.2191133"><ele>694.0</ele><time>2026-03-22T09:00:44.56Z</time></trkpt><trkpt lat="43.86462" lon="12.2189267"><ele>691.3333333333334</ele><time>2026-03-22T09:00:45.561Z</time></trkpt><trkpt lat="43.8645667" lon="12.218735"><ele>688.6666666666666</ele><time>2026-03-22T09:00:46.561Z</time></trkpt><trkpt lat="43.8645333" lon="12.2185217"><ele>686.0</ele><time>2026-03-22T09:00:47.56Z</time></trkpt><trkpt lat="43.8645317" lon="12.2182983"><ele>683.3333333333333</ele><time>2026-03-22T09:00:48.562Z</time></trkpt><trkpt lat="43.864555" lon="12.2180733"><ele>680.6666666666666</ele><time>2026-03-22T09:00:49.562Z</time></trkpt><trkpt lat="43.8645867" lon="12.2178533"><ele>678.0</ele><time>2026-03-22T09:00:50.562Z</time></trkpt><trkpt lat="43.8646167" lon="12.2176467"><ele>678.0</ele><time>2026-03-22T09:00:51.562Z</time></trkpt><trkpt lat="43.8646467" lon="12.21746"><ele>678.0</ele><time>2026-03-22T09:00:52.562Z</time></trkpt><trkpt lat="43.86466" lon="12.2172983"><ele>678.0</ele><time>2026-03-22T09:00:53.562Z</time></trkpt><trkpt lat="43.86465" lon="12.2171367"><ele>678.0</ele><time>2026-03-22T09:00:54.562Z</time></trkpt><trkpt lat="43.864615" lon="12.21697"><ele>676.5</ele><time>2026-03-22T09:00:55.561Z</time></trkpt><trkpt lat="43.8645583" lon="12.2168133"><ele>675.0</ele><time>2026-03-22T09:00:56.561Z</time></trkpt><trkpt lat="43.8644917" lon="12.2166683"><ele>673.5</ele><time>2026-03-22T09:00:57.561Z</time></trkpt><trkpt lat="43.8644217" lon="12.2165533"><ele>672.0</ele><time>2026-03-22T09:00:58.562Z</time></trkpt><trkpt lat="43.8643367" lon="12.2164683"><ele>670.0</ele><time>2026-03-22T09:00:59.561Z</time></trkpt><trkpt lat="43.8642283" lon="12.216415"><ele>668.0</ele><time>2026-03-22T09:01:00.561Z</time></trkpt><trkpt lat="43.8641033" lon="12.216405"><ele>666.0</ele><time>2026-03-22T09:01:01.562Z</time></trkpt><trkpt lat="43.8639567" lon="12.2164267"><ele>664.0</ele><time>2026-03-22T09:01:02.562Z</time></trkpt><trkpt lat="43.8637883" lon="12.2164767"><ele>665.0</ele><time>2026-03-22T09:01:03.561Z</time></trkpt><trkpt lat="43.86362" lon="12.2165233"><ele>666.0</ele><time>2026-03-22T09:01:04.562Z</time></trkpt><trkpt lat="43.8634683" lon="12.2165683"><ele>667.0</ele><time>2026-03-22T09:01:05.561Z</time></trkpt><trkpt lat="43.8633367" lon="12.2166217"><ele>667.0</ele><time>2026-03-22T09:01:06.562Z</time></trkpt><trkpt lat="43.86323" lon="12.2166617"><ele>667.0</ele><time>2026-03-22T09:01:07.562Z</time></trkpt><trkpt lat="43.8631433" lon="12.216695"><ele>667.0</ele><time>2026-03-22T09:01:08.562Z</time></trkpt><trkpt lat="43.8630767" lon="12.2167083"><ele>667.0</ele><time>2026-03-22T09:01:09.562Z</time></trkpt><trkpt lat="43.862975" lon="12.2166583"><ele>667.0</ele><time>2026-03-22T09:01:11.562Z</time></trkpt><trkpt lat="43.86296" lon="12.2165733"><ele>667.0</ele><time>2026-03-22T09:01:12.562Z</time></trkpt><trkpt lat="43.8629733" lon="12.21647"><ele>664.8</ele><time>2026-03-22T09:01:13.562Z</time></trkpt><trkpt lat="43.8630117" lon="12.2163483"><ele>662.6</ele><time>2026-03-22T09:01:14.561Z</time></trkpt><trkpt lat="43.863055" lon="12.2162"><ele>660.4</ele><time>2026-03-22T09:01:15.561Z</time></trkpt><trkpt lat="43.8630717" lon="12.2160367"><ele>658.1999999999999</ele><time>2026-03-22T09:01:16.562Z</time></trkpt><trkpt lat="43.863085" lon="12.21588"><ele>656.0</ele><time>2026-03-22T09:01:17.562Z</time></trkpt><trkpt lat="43.863115" lon="12.2157317"><ele>655.0</ele><time>2026-03-22T09:01:18.561Z</time></trkpt><trkpt lat="43.8631867" lon="12.2155833"><ele>654.0</ele><time>2026-03-22T09:01:19.562Z</time></trkpt><trkpt lat="43.8632883" lon="12.215435"><ele>653.0</ele><time>2026-03-22T09:01:20.562Z</time></trkpt><trkpt lat="43.8633867" lon="12.2152883"><ele>652.0</ele><time>2026-03-22T09:01:21.562Z</time></trkpt><trkpt lat="43.863475" lon="12.21512"><ele>652.0</ele><time>2026-03-22T09:01:22.561Z</time></trkpt><trkpt lat="43.8635417" lon="12.2149183"><ele>652.0</ele><time>2026-03-22T09:01:23.562Z</time></trkpt><trkpt lat="43.8635833" lon="12.2147017"><ele>652.0</ele><time>2026-03-22T09:01:24.562Z</time></trkpt><trkpt lat="43.8636067" lon="12.2144917"><ele>649.5</ele><time>2026-03-22T09:01:25.561Z</time></trkpt><trkpt lat="43.8636167" lon="12.2142817"><ele>647.0</ele><time>2026-03-22T09:01:26.562Z</time></trkpt><trkpt lat="43.8636133" lon="12.2140817"><ele>644.5</ele><time>2026-03-22T09:01:27.562Z</time></trkpt><trkpt lat="43.8635917" lon="12.2139033"><ele>642.0</ele><time>2026-03-22T09:01:28.562Z</time></trkpt><trkpt lat="43.8635667" lon="12.2137567"><ele>639.6</ele><time>2026-03-22T09:01:29.562Z</time></trkpt><trkpt lat="43.86354" lon="12.2136283"><ele>637.2</ele><time>2026-03-22T09:01:30.561Z</time></trkpt><trkpt lat="43.8635333" lon="12.2135133"><ele>634.8</ele><time>2026-03-22T09:01:31.562Z</time></trkpt><trkpt lat="43.8635567" lon="12.2134"><ele>632.4</ele><time>2026-03-22T09:01:32.562Z</time></trkpt><trkpt lat="43.8636233" lon="12.2132917"><ele>630.0</ele><time>2026-03-22T09:01:33.562Z</time></trkpt><trkpt lat="43.8637317" lon="12.2132017"><ele>628.0</ele><time>2026-03-22T09:01:34.561Z</time></trkpt><trkpt lat="43.8638533" lon="12.2131233"><ele>626.0</ele><time>2026-03-22T09:01:35.561Z</time></trkpt><trkpt lat="43.8639667" lon="12.2130517"><ele>624.0</ele><time>2026-03-22T09:01:36.562Z</time></trkpt><trkpt lat="43.864055" lon="12.2129933"><ele>622.0</ele><time>2026-03-22T09:01:37.562Z</time></trkpt><trkpt lat="43.8641333" lon="12.2129417"><ele>620.0</ele><time>2026-03-22T09:01:38.562Z</time></trkpt><trkpt lat="43.8641817" lon="12.212875"><ele>620.0</ele><time>2026-03-22T09:01:39.562Z</time></trkpt><trkpt lat="43.8641567" lon="12.2127033"><ele>620.0</ele><time>2026-03-22T09:01:41.562Z</time></trkpt><trkpt lat="43.8640833" lon="12.21264"><ele>620.0</ele><time>2026-03-22T09:01:42.561Z</time></trkpt><trkpt lat="43.86399" lon="12.2126383"><ele>620.0</ele><time>2026-03-22T09:01:43.561Z</time></trkpt><trkpt lat="43.8638833" lon="12.2126767"><ele>620.0</ele><time>2026-03-22T09:01:44.562Z</time></trkpt><trkpt lat="43.863775" lon="12.2127283"><ele>620.0</ele><time>2026-03-22T09:01:45.561Z</time></trkpt><trkpt lat="43.8636833" lon="12.2127667"><ele>620.0</ele><time>2026-03-22T09:01:46.561Z</time></trkpt><trkpt lat="43.8636133" lon="12.2127967"><ele>620.0</ele><time>2026-03-22T09:01:47.562Z</time></trkpt><trkpt lat="43.8635033" lon="12.2127933"><ele>620.0</ele><time>2026-03-22T09:01:49.562Z</time></trkpt><trkpt lat="43.86345" lon="12.21266"><ele>620.0</ele><time>2026-03-22T09:01:51.562Z</time></trkpt><trkpt lat="43.863475" lon="12.2125533"><ele>620.0</ele><time>2026-03-22T09:01:52.562Z</time></trkpt><trkpt lat="43.8635183" lon="12.2124317"><ele>620.0</ele><time>2026-03-22T09:01:53.561Z</time></trkpt><trkpt lat="43.8635633" lon="12.2123183"><ele>620.0</ele><time>2026-03-22T09:01:54.562Z</time></trkpt><trkpt lat="43.8636083" lon="12.2122067"><ele>620.0</ele><time>2026-03-22T09:01:55.561Z</time></trkpt><trkpt lat="43.8636533" lon="12.2120933"><ele>620.0</ele><time>2026-03-22T09:01:56.562Z</time></trkpt><trkpt lat="43.8636967" lon="12.2119717"><ele>617.8</ele><time>2026-03-22T09:01:57.562Z</time></trkpt><trkpt lat="43.8637333" lon="12.21185"><ele>615.6</ele><time>2026-03-22T09:01:58.562Z</time></trkpt><trkpt lat="43.8637683" lon="12.2117283"><ele>613.4</ele><time>2026-03-22T09:01:59.561Z</time></trkpt><trkpt lat="43.8638117" lon="12.211605"><ele>611.2</ele><time>2026-03-22T09:02:00.562Z</time></trkpt><trkpt lat="43.8638567" lon="12.2114717"><ele>609.0</ele><time>2026-03-22T09:02:01.562Z</time></trkpt><trkpt lat="43.86389" lon="12.211345"><ele>608.4</ele><time>2026-03-22T09:02:02.561Z</time></trkpt><trkpt lat="43.863905" lon="12.21121"><ele>607.8</ele><time>2026-03-22T09:02:03.562Z</time></trkpt><trkpt lat="43.8639067" lon="12.2110733"><ele>607.2</ele><time>2026-03-22T09:02:04.562Z</time></trkpt><trkpt lat="43.8638967" lon="12.2109467"><ele>606.6</ele><time>2026-03-22T09:02:05.561Z</time></trkpt><trkpt lat="43.8638783" lon="12.2108217"><ele>606.0</ele><time>2026-03-22T09:02:06.562Z</time></trkpt><trkpt lat="43.863855" lon="12.2106983"><ele>605.0</ele><time>2026-03-22T09:02:07.562Z</time></trkpt><trkpt lat="43.8638233" lon="12.2105667"><ele>604.0</ele><time>2026-03-22T09:02:08.562Z</time></trkpt><trkpt lat="43.8637967" lon="12.210425"><ele>603.0</ele><time>2026-03-22T09:02:09.562Z</time></trkpt><trkpt lat="43.8637667" lon="12.2102817"><ele>602.0</ele><time>2026-03-22T09:02:10.562Z</time></trkpt><trkpt lat="43.86374" lon="12.2101383"><ele>601.0</ele><time>2026-03-22T09:02:11.562Z</time></trkpt><trkpt lat="43.8637283" lon="12.21"><ele>601.0</ele><time>2026-03-22T09:02:12.561Z</time></trkpt><trkpt lat="43.8637133" lon="12.2098667"><ele>601.0</ele><time>2026-03-22T09:02:13.562Z</time></trkpt><trkpt lat="43.8637" lon="12.2097333"><ele>601.0</ele><time>2026-03-22T09:02:14.561Z</time></trkpt><trkpt lat="43.8636833" lon="12.2096"><ele>601.0</ele><time>2026-03-22T09:02:15.561Z</time></trkpt><trkpt lat="43.863665" lon="12.2094717"><ele>601.0</ele><time>2026-03-22T09:02:16.561Z</time></trkpt><trkpt lat="43.8636467" lon="12.2093467"><ele>599.2</ele><time>2026-03-22T09:02:17.562Z</time></trkpt><trkpt lat="43.8636167" lon="12.20921"><ele>597.4000000000001</ele><time>2026-03-22T09:02:18.562Z</time></trkpt><trkpt lat="43.8635633" lon="12.20909"><ele>595.6</ele><time>2026-03-22T09:02:19.561Z</time></trkpt><trkpt lat="43.8634883" lon="12.2089767"><ele>593.8000000000001</ele><time>2026-03-22T09:02:20.562Z</time></trkpt><trkpt lat="43.8634083" lon="12.2088717"><ele>592.0</ele><time>2026-03-22T09:02:21.562Z</time></trkpt><trkpt lat="43.8633183" lon="12.20878"><ele>590.0</ele><time>2026-03-22T09:02:22.562Z</time></trkpt><trkpt lat="43.8632283" lon="12.2087"><ele>588.0</ele><time>2026-03-22T09:02:23.562Z</time></trkpt><trkpt lat="43.86314" lon="12.2086333"><ele>586.0</ele><time>2026-03-22T09:02:24.562Z</time></trkpt><trkpt lat="43.8630567" lon="12.208575"><ele>584.0</ele><time>2026-03-22T09:02:25.562Z</time></trkpt><trkpt lat="43.8629817" lon="12.20851"><ele>582.0</ele><time>2026-03-22T09:02:26.562Z</time></trkpt><trkpt lat="43.86291" lon="12.2084417"><ele>582.0</ele><time>2026-03-22T09:02:27.561Z</time></trkpt><trkpt lat="43.8628367" lon="12.2083967"><ele>582.0</ele><time>2026-03-22T09:02:28.561Z</time></trkpt><trkpt lat="43.8627467" lon="12.208375"><ele>582.0</ele><time>2026-03-22T09:02:29.561Z</time></trkpt><trkpt lat="43.8626367" lon="12.2083717"><ele>582.0</ele><time>2026-03-22T09:02:30.562Z</time></trkpt><trkpt lat="43.8625083" lon="12.2083667"><ele>582.0</ele><time>2026-03-22T09:02:31.561Z</time></trkpt><trkpt lat="43.8623733" lon="12.20836"><ele>583.3333333333334</ele><time>2026-03-22T09:02:32.561Z</time></trkpt><trkpt lat="43.8622383" lon="12.2083467"><ele>584.6666666666667</ele><time>2026-03-22T09:02:33.562Z</time></trkpt><trkpt lat="43.86208" lon="12.2083317"><ele>586.0</ele><time>2026-03-22T09:02:34.562Z</time></trkpt><trkpt lat="43.8619183" lon="12.2083117"><ele>588.5</ele><time>2026-03-22T09:02:35.561Z</time></trkpt><trkpt lat="43.86177" lon="12.2083017"><ele>591.0</ele><time>2026-03-22T09:02:36.562Z</time></trkpt><trkpt lat="43.8616283" lon="12.208295"><ele>593.5</ele><time>2026-03-22T09:02:37.562Z</time></trkpt><trkpt lat="43.8614967" lon="12.20829"><ele>596.0</ele><time>2026-03-22T09:02:38.561Z</time></trkpt><trkpt lat="43.8613633" lon="12.208285"><ele>596.0</ele><time>2026-03-22T09:02:39.562Z</time></trkpt><trkpt lat="43.86124" lon="12.2082767"><ele>596.0</ele><time>2026-03-22T09:02:40.562Z</time></trkpt><trkpt lat="43.86111" lon="12.2082433"><ele>596.0</ele><time>2026-03-22T09:02:41.561Z</time></trkpt><trkpt lat="43.8609867" lon="12.2081833"><ele>596.0</ele><time>2026-03-22T09:02:42.562Z</time></trkpt><trkpt lat="43.8608733" lon="12.20811"><ele>595.8</ele><time>2026-03-22T09:02:43.562Z</time></trkpt><trkpt lat="43.8607717" lon="12.20804"><ele>595.6</ele><time>2026-03-22T09:02:44.561Z</time></trkpt><trkpt lat="43.8606767" lon="12.207995"><ele>595.4</ele><time>2026-03-22T09:02:45.562Z</time></trkpt><trkpt lat="43.86058" lon="12.20798"><ele>595.2</ele><time>2026-03-22T09:02:46.561Z</time></trkpt><trkpt lat="43.8604783" lon="12.2080083"><ele>595.0</ele><time>2026-03-22T09:02:47.562Z</time></trkpt><trkpt lat="43.8603967" lon="12.20808"><ele>598.2</ele><time>2026-03-22T09:02:48.562Z</time></trkpt><trkpt lat="43.8603217" lon="12.2081633"><ele>601.4</ele><time>2026-03-22T09:02:49.562Z</time></trkpt><trkpt lat="43.8602683" lon="12.20826"><ele>604.6</ele><time>2026-03-22T09:02:50.561Z</time></trkpt><trkpt lat="43.8602383" lon="12.208375"><ele>607.8</ele><time>2026-03-22T09:02:51.562Z</time></trkpt><trkpt lat="43.86023" lon="12.2085133"><ele>611.0</ele><time>2026-03-22T09:02:52.561Z</time></trkpt><trkpt lat="43.8602417" lon="12.2086717"><ele>611.0</ele><time>2026-03-22T09:02:53.562Z</time></trkpt><trkpt lat="43.8602733" lon="12.20885"><ele>611.0</ele><time>2026-03-22T09:02:54.562Z</time></trkpt><trkpt lat="43.8603033" lon="12.20904"><ele>611.0</ele><time>2026-03-22T09:02:55.562Z</time></trkpt><trkpt lat="43.8603317" lon="12.2092217"><ele>611.0</ele><time>2026-03-22T09:02:56.562Z</time></trkpt><trkpt lat="43.860345" lon="12.2093867"><ele>610.8</ele><time>2026-03-22T09:02:57.562Z</time></trkpt><trkpt lat="43.8603433" lon="12.20955"><ele>610.6</ele><time>2026-03-22T09:02:58.562Z</time></trkpt><trkpt lat="43.86033" lon="12.209685"><ele>610.4</ele><time>2026-03-22T09:02:59.562Z</time></trkpt><trkpt lat="43.8603033" lon="12.2098017"><ele>610.2</ele><time>2026-03-22T09:03:00.562Z</time></trkpt><trkpt lat="43.8602517" lon="12.2099083"><ele>610.0</ele><time>2026-03-22T09:03:01.562Z</time></trkpt><trkpt lat="43.86018" lon="12.2100067"><ele>613.0</ele><time>2026-03-22T09:03:02.562Z</time></trkpt><trkpt lat="43.860095" lon="12.2100833"><ele>616.0</ele><time>2026-03-22T09:03:03.562Z</time></trkpt><trkpt lat="43.8600067" lon="12.210135"><ele>619.0</ele><time>2026-03-22T09:03:04.562Z</time></trkpt><trkpt lat="43.8599117" lon="12.2101517"><ele>622.0</ele><time>2026-03-22T09:03:05.562Z</time></trkpt><trkpt lat="43.85982" lon="12.2101317"><ele>625.0</ele><time>2026-03-22T09:03:06.561Z</time></trkpt><trkpt lat="43.8597367" lon="12.210065"><ele>625.0</ele><time>2026-03-22T09:03:07.561Z</time></trkpt><trkpt lat="43.8596667" lon="12.2099783"><ele>625.0</ele><time>2026-03-22T09:03:08.562Z</time></trkpt><trkpt lat="43.8596183" lon="12.2098817"><ele>625.0</ele><time>2026-03-22T09:03:09.562Z</time></trkpt><trkpt lat="43.8595617" lon="12.209815"><ele>625.0</ele><time>2026-03-22T09:03:10.562Z</time></trkpt><trkpt lat="43.85949" lon="12.2097833"><ele>625.0</ele><time>2026-03-22T09:03:11.561Z</time></trkpt><trkpt lat="43.85941" lon="12.2097783"><ele>625.0</ele><time>2026-03-22T09:03:12.561Z</time></trkpt><trkpt lat="43.8593317" lon="12.2098317"><ele>626.8333333333334</ele><time>2026-03-22T09:03:13.561Z</time></trkpt><trkpt lat="43.859265" lon="12.2099183"><ele>628.6666666666667</ele><time>2026-03-22T09:03:14.561Z</time></trkpt><trkpt lat="43.8592117" lon="12.2100217"><ele>630.5</ele><time>2026-03-22T09:03:15.561Z</time></trkpt><trkpt lat="43.8591717" lon="12.210135"><ele>632.3333333333334</ele><time>2026-03-22T09:03:16.562Z</time></trkpt><trkpt lat="43.8591467" lon="12.210245"><ele>634.1666666666666</ele><time>2026-03-22T09:03:17.562Z</time></trkpt><trkpt lat="43.859115" lon="12.2103333"><ele>636.0</ele><time>2026-03-22T09:03:18.562Z</time></trkpt><trkpt lat="43.8590533" lon="12.2103967"><ele>636.0</ele><time>2026-03-22T09:03:19.561Z</time></trkpt><trkpt lat="43.8589817" lon="12.2104167"><ele>636.0</ele><time>2026-03-22T09:03:20.561Z</time></trkpt><trkpt lat="43.8589" lon="12.2103817"><ele>636.0</ele><time>2026-03-22T09:03:21.561Z</time></trkpt><trkpt lat="43.8588083" lon="12.2103117"><ele>636.0</ele><time>2026-03-22T09:03:22.562Z</time></trkpt><trkpt lat="43.858705" lon="12.210215"><ele>636.0</ele><time>2026-03-22T09:03:23.562Z</time></trkpt><trkpt lat="43.858605" lon="12.2101083"><ele>636.0</ele><time>2026-03-22T09:03:24.562Z</time></trkpt><trkpt lat="43.858525" lon="12.21"><ele>636.0</ele><time>2026-03-22T09:03:25.562Z</time></trkpt><trkpt lat="43.858465" lon="12.2098983"><ele>636.0</ele><time>2026-03-22T09:03:26.562Z</time></trkpt><trkpt lat="43.858415" lon="12.2098183"><ele>636.0</ele><time>2026-03-22T09:03:27.562Z</time></trkpt><trkpt lat="43.8583567" lon="12.2097617"><ele>636.0</ele><time>2026-03-22T09:03:28.561Z</time></trkpt><trkpt lat="43.8582917" lon="12.209735"><ele>636.0</ele><time>2026-03-22T09:03:29.562Z</time></trkpt><trkpt lat="43.858225" lon="12.2097667"><ele>638.2857142857142</ele><time>2026-03-22T09:03:30.562Z</time></trkpt><trkpt lat="43.8581767" lon="12.2098417"><ele>640.5714285714287</ele><time>2026-03-22T09:03:31.561Z</time></trkpt><trkpt lat="43.8581567" lon="12.2099333"><ele>642.8571428571429</ele><time>2026-03-22T09:03:32.562Z</time></trkpt><trkpt lat="43.858155" lon="12.2100383"><ele>645.1428571428571</ele><time>2026-03-22T09:03:33.562Z</time></trkpt><trkpt lat="43.8581617" lon="12.210145"><ele>647.4285714285713</ele><time>2026-03-22T09:03:34.561Z</time></trkpt><trkpt lat="43.8581367" lon="12.2102417"><ele>649.7142857142858</ele><time>2026-03-22T09:03:35.561Z</time></trkpt><trkpt lat="43.858085" lon="12.2103217"><ele>652.0</ele><time>2026-03-22T09:03:36.561Z</time></trkpt><trkpt lat="43.8580117" lon="12.210395"><ele>652.0</ele><time>2026-03-22T09:03:37.562Z</time></trkpt><trkpt lat="43.8579217" lon="12.210455"><ele>652.0</ele><time>2026-03-22T09:03:38.562Z</time></trkpt><trkpt lat="43.857815" lon="12.210505"><ele>652.0</ele><time>2026-03-22T09:03:39.562Z</time></trkpt><trkpt lat="43.8576917" lon="12.2105417"><ele>652.0</ele><time>2026-03-22T09:03:40.562Z</time></trkpt><trkpt lat="43.857565" lon="12.2105483"><ele>655.0</ele><time>2026-03-22T09:03:41.561Z</time></trkpt><trkpt lat="43.8574367" lon="12.2105233"><ele>658.0</ele><time>2026-03-22T09:03:42.561Z</time></trkpt><trkpt lat="43.8573067" lon="12.210455"><ele>661.0</ele><time>2026-03-22T09:03:43.562Z</time></trkpt><trkpt lat="43.8571783" lon="12.210385"><ele>664.0</ele><time>2026-03-22T09:03:44.561Z</time></trkpt><trkpt lat="43.85707" lon="12.2103183"><ele>664.0</ele><time>2026-03-22T09:03:45.562Z</time></trkpt><trkpt lat="43.85698" lon="12.2102617"><ele>664.0</ele><time>2026-03-22T09:03:46.561Z</time></trkpt><trkpt lat="43.8569117" lon="12.2102333"><ele>664.0</ele><time>2026-03-22T09:03:47.561Z</time></trkpt><trkpt lat="43.85685" lon="12.2102533"><ele>664.0</ele><time>2026-03-22T09:03:48.562Z</time></trkpt><trkpt lat="43.8567983" lon="12.2103117"><ele>664.0</ele><time>2026-03-22T09:03:49.561Z</time></trkpt><trkpt lat="43.856765" lon="12.2104"><ele>664.0</ele><time>2026-03-22T09:03:50.562Z</time></trkpt><trkpt lat="43.85676" lon="12.2105183"><ele>665.8333333333334</ele><time>2026-03-22T09:03:51.562Z</time></trkpt><trkpt lat="43.8567733" lon="12.21064"><ele>667.6666666666667</ele><time>2026-03-22T09:03:52.561Z</time></trkpt><trkpt lat="43.85677" lon="12.2107517"><ele>669.5</ele><time>2026-03-22T09:03:53.562Z</time></trkpt><trkpt lat="43.8567383" lon="12.2108467"><ele>671.3333333333334</ele><time>2026-03-22T09:03:54.561Z</time></trkpt><trkpt lat="43.8566783" lon="12.21092"><ele>673.1666666666666</ele><time>2026-03-22T09:03:55.561Z</time></trkpt><trkpt lat="43.8565983" lon="12.2109833"><ele>675.0</ele><time>2026-03-22T09:03:56.563Z</time></trkpt><trkpt lat="43.8565233" lon="12.211025"><ele>677.1666666666666</ele><time>2026-03-22T09:03:57.563Z</time></trkpt><trkpt lat="43.8564583" lon="12.2110633"><ele>679.3333333333334</ele><time>2026-03-22T09:03:58.562Z</time></trkpt><trkpt lat="43.8564" lon="12.211175"><ele>681.5</ele><time>2026-03-22T09:04:00.563Z</time></trkpt><trkpt lat="43.856445" lon="12.2113083"><ele>683.6666666666667</ele><time>2026-03-22T09:04:02.563Z</time></trkpt><trkpt lat="43.8565083" lon="12.2113667"><ele>685.8333333333334</ele><time>2026-03-22T09:04:03.562Z</time></trkpt><trkpt lat="43.8565883" lon="12.2114117"><ele>688.0</ele><time>2026-03-22T09:04:04.563Z</time></trkpt><trkpt lat="43.8566667" lon="12.21146"><ele>690.1666666666667</ele><time>2026-03-22T09:04:05.563Z</time></trkpt><trkpt lat="43.8567217" lon="12.211535"><ele>692.3333333333334</ele><time>2026-03-22T09:04:06.563Z</time></trkpt><trkpt lat="43.8567583" lon="12.2116283"><ele>694.5</ele><time>2026-03-22T09:04:07.563Z</time></trkpt><trkpt lat="43.85677" lon="12.2117367"><ele>696.6666666666666</ele><time>2026-03-22T09:04:08.563Z</time></trkpt><trkpt lat="43.8567583" lon="12.211865"><ele>698.8333333333333</ele><time>2026-03-22T09:04:09.563Z</time></trkpt><trkpt lat="43.8567317" lon="12.212015"><ele>701.0</ele><time>2026-03-22T09:04:10.562Z</time></trkpt><trkpt lat="43.8566933" lon="12.2121683"><ele>701.0</ele><time>2026-03-22T09:04:11.562Z</time></trkpt><trkpt lat="43.85664" lon="12.2123083"><ele>701.0</ele><time>2026-03-22T09:04:12.563Z</time></trkpt><trkpt lat="43.8565617" lon="12.21244"><ele>701.0</ele><time>2026-03-22T09:04:13.562Z</time></trkpt><trkpt lat="43.85647" lon="12.2125683"><ele>701.0</ele><time>2026-03-22T09:04:14.563Z</time></trkpt><trkpt lat="43.85637" lon="12.21268"><ele>702.0</ele><time>2026-03-22T09:04:15.563Z</time></trkpt><trkpt lat="43.8562767" lon="12.2127717"><ele>703.0</ele><time>2026-03-22T09:04:16.563Z</time></trkpt><trkpt lat="43.8562017" lon="12.2128433"><ele>704.0</ele><time>2026-03-22T09:04:17.563Z</time></trkpt><trkpt lat="43.85613" lon="12.21289"><ele>705.0</ele><time>2026-03-22T09:04:18.562Z</time></trkpt><trkpt lat="43.8560517" lon="12.2129067"><ele>706.0</ele><time>2026-03-22T09:04:19.562Z</time></trkpt><trkpt lat="43.85598" lon="12.21289"><ele>707.0</ele><time>2026-03-22T09:04:20.562Z</time></trkpt><trkpt lat="43.855925" lon="12.212815"><ele>709.0</ele><time>2026-03-22T09:04:21.563Z</time></trkpt><trkpt lat="43.8558833" lon="12.2127217"><ele>711.0</ele><time>2026-03-22T09:04:22.563Z</time></trkpt><trkpt lat="43.8558467" lon="12.212645"><ele>713.0</ele><time>2026-03-22T09:04:23.563Z</time></trkpt><trkpt lat="43.8557883" lon="12.2125833"><ele>715.0</ele><time>2026-03-22T09:04:24.563Z</time></trkpt><trkpt lat="43.8557167" lon="12.2125567"><ele>717.0</ele><time>2026-03-22T09:04:25.563Z</time></trkpt><trkpt lat="43.8556417" lon="12.21258"><ele>719.0</ele><time>2026-03-22T09:04:26.562Z</time></trkpt><trkpt lat="43.8555783" lon="12.21264"><ele>721.0</ele><time>2026-03-22T09:04:27.563Z</time></trkpt><trkpt lat="43.855525" lon="12.2127467"><ele>721.0</ele><time>2026-03-22T09:04:28.563Z</time></trkpt><trkpt lat="43.8555083" lon="12.2128933"><ele>721.0</ele><time>2026-03-22T09:04:29.563Z</time></trkpt><trkpt lat="43.8555167" lon="12.2130533"><ele>721.0</ele><time>2026-03-22T09:04:30.563Z</time></trkpt><trkpt lat="43.8555533" lon="12.2132333"><ele>721.0</ele><time>2026-03-22T09:04:31.563Z</time></trkpt><trkpt lat="43.8555917" lon="12.2134117"><ele>721.5</ele><time>2026-03-22T09:04:32.563Z</time></trkpt><trkpt lat="43.8556033" lon="12.2135683"><ele>722.0</ele><time>2026-03-22T09:04:33.562Z</time></trkpt><trkpt lat="43.855595" lon="12.2137183"><ele>722.5</ele><time>2026-03-22T09:04:34.563Z</time></trkpt><trkpt lat="43.85557" lon="12.2138783"><ele>723.0</ele><time>2026-03-22T09:04:35.563Z</time></trkpt><trkpt lat="43.8555383" lon="12.2140517"><ele>723.0</ele><time>2026-03-22T09:04:36.563Z</time></trkpt><trkpt lat="43.8555067" lon="12.214235"><ele>723.0</ele><time>2026-03-22T09:04:37.563Z</time></trkpt><trkpt lat="43.8554983" lon="12.2144167"><ele>723.0</ele><time>2026-03-22T09:04:38.563Z</time></trkpt><trkpt lat="43.85552" lon="12.214595"><ele>723.0</ele><time>2026-03-22T09:04:39.562Z</time></trkpt><trkpt lat="43.855555" lon="12.21475"><ele>724.4</ele><time>2026-03-22T09:04:40.562Z</time></trkpt><trkpt lat="43.8555967" lon="12.2148783"><ele>725.8</ele><time>2026-03-22T09:04:41.562Z</time></trkpt><trkpt lat="43.85562" lon="12.21499"><ele>727.2</ele><time>2026-03-22T09:04:42.563Z</time></trkpt><trkpt lat="43.85562" lon="12.215115"><ele>728.6</ele><time>2026-03-22T09:04:43.562Z</time></trkpt><trkpt lat="43.8555917" lon="12.21524"><ele>730.0</ele><time>2026-03-22T09:04:44.562Z</time></trkpt><trkpt lat="43.8555267" lon="12.215375"><ele>730.0</ele><time>2026-03-22T09:04:45.563Z</time></trkpt><trkpt lat="43.8554367" lon="12.215515"><ele>730.0</ele><time>2026-03-22T09:04:46.563Z</time></trkpt><trkpt lat="43.8553783" lon="12.2156367"><ele>730.0</ele><time>2026-03-22T09:04:47.563Z</time></trkpt><trkpt lat="43.8553583" lon="12.2157567"><ele>730.0</ele><time>2026-03-22T09:04:48.562Z</time></trkpt><trkpt lat="43.855365" lon="12.2158733"><ele>730.0</ele><time>2026-03-22T09:04:49.563Z</time></trkpt><trkpt lat="43.85541" lon="12.21599"><ele>731.6666666666667</ele><time>2026-03-22T09:04:50.562Z</time></trkpt><trkpt lat="43.8554683" lon="12.2160917"><ele>733.3333333333334</ele><time>2026-03-22T09:04:51.563Z</time></trkpt><trkpt lat="43.85551" lon="12.2161833"><ele>735.0</ele><time>2026-03-22T09:04:52.563Z</time></trkpt><trkpt lat="43.8555167" lon="12.21628"><ele>736.6666666666666</ele><time>2026-03-22T09:04:53.563Z</time></trkpt><trkpt lat="43.8554983" lon="12.2163667"><ele>738.3333333333333</ele><time>2026-03-22T09:04:54.563Z</time></trkpt><trkpt lat="43.8554467" lon="12.21644"><ele>740.0</ele><time>2026-03-22T09:04:55.563Z</time></trkpt><trkpt lat="43.8553717" lon="12.2164917"><ele>739.5</ele><time>2026-03-22T09:04:56.563Z</time></trkpt><trkpt lat="43.8552733" lon="12.2165167"><ele>739.0</ele><time>2026-03-22T09:04:57.562Z</time></trkpt><trkpt lat="43.8551467" lon="12.2165033"><ele>738.5</ele><time>2026-03-22T09:04:58.563Z</time></trkpt><trkpt lat="43.85501" lon="12.2164617"><ele>738.0</ele><time>2026-03-22T09:04:59.563Z</time></trkpt><trkpt lat="43.8548617" lon="12.2164133"><ele>738.0</ele><time>2026-03-22T09:05:00.563Z</time></trkpt><trkpt lat="43.8547067" lon="12.2163633"><ele>738.0</ele><time>2026-03-22T09:05:01.562Z</time></trkpt><trkpt lat="43.8545517" lon="12.216315"><ele>738.0</ele><time>2026-03-22T09:05:02.563Z</time></trkpt><trkpt lat="43.8544033" lon="12.2162467"><ele>740.0</ele><time>2026-03-22T09:05:03.563Z</time></trkpt><trkpt lat="43.8542617" lon="12.2161933"><ele>742.0</ele><time>2026-03-22T09:05:04.563Z</time></trkpt><trkpt lat="43.854125" lon="12.2161583"><ele>744.0</ele><time>2026-03-22T09:05:05.563Z</time></trkpt><trkpt lat="43.8539933" lon="12.21611"><ele>746.0</ele><time>2026-03-22T09:05:06.563Z</time></trkpt><trkpt lat="43.8538583" lon="12.2160533"><ele>746.0</ele><time>2026-03-22T09:05:07.562Z</time></trkpt><trkpt lat="43.8537217" lon="12.2159783"><ele>746.0</ele><time>2026-03-22T09:05:08.563Z</time></trkpt><trkpt lat="43.8535867" lon="12.2158717"><ele>746.0</ele><time>2026-03-22T09:05:09.563Z</time></trkpt><trkpt lat="43.853455" lon="12.2157333"><ele>747.0</ele><time>2026-03-22T09:05:10.563Z</time></trkpt><trkpt lat="43.8533333" lon="12.215585"><ele>748.0</ele><time>2026-03-22T09:05:11.563Z</time></trkpt><trkpt lat="43.8532217" lon="12.21544"><ele>749.0</ele><time>2026-03-22T09:05:12.562Z</time></trkpt><trkpt lat="43.8531233" lon="12.2153183"><ele>750.0</ele><time>2026-03-22T09:05:13.563Z</time></trkpt><trkpt lat="43.8530283" lon="12.21521"><ele>750.0</ele><time>2026-03-22T09:05:14.562Z</time></trkpt><trkpt lat="43.8529283" lon="12.2151317"><ele>750.0</ele><time>2026-03-22T09:05:15.562Z</time></trkpt><trkpt lat="43.852815" lon="12.2150933"><ele>750.0</ele><time>2026-03-22T09:05:16.562Z</time></trkpt><trkpt lat="43.8526917" lon="12.2151017"><ele>750.0</ele><time>2026-03-22T09:05:17.563Z</time></trkpt><trkpt lat="43.852565" lon="12.2151367"><ele>750.0</ele><time>2026-03-22T09:05:18.562Z</time></trkpt><trkpt lat="43.8524517" lon="12.2151717"><ele>750.0</ele><time>2026-03-22T09:05:19.562Z</time></trkpt><trkpt lat="43.8523567" lon="12.2151917"><ele>750.0</ele><time>2026-03-22T09:05:20.563Z</time></trkpt><trkpt lat="43.8522717" lon="12.2151783"><ele>750.0</ele><time>2026-03-22T09:05:21.563Z</time></trkpt><trkpt lat="43.85219" lon="12.21513"><ele>750.0</ele><time>2026-03-22T09:05:22.562Z</time></trkpt><trkpt lat="43.85212" lon="12.2150183"><ele>750.0</ele><time>2026-03-22T09:05:23.563Z</time></trkpt><trkpt lat="43.852065" lon="12.2148667"><ele>750.0</ele><time>2026-03-22T09:05:24.563Z</time></trkpt><trkpt lat="43.8520183" lon="12.2147217"><ele>750.0</ele><time>2026-03-22T09:05:25.563Z</time></trkpt><trkpt lat="43.8519667" lon="12.2145883"><ele>750.0</ele><time>2026-03-22T09:05:26.562Z</time></trkpt><trkpt lat="43.8518933" lon="12.2144683"><ele>748.25</ele><time>2026-03-22T09:05:27.563Z</time></trkpt><trkpt lat="43.85179" lon="12.2143717"><ele>746.5</ele><time>2026-03-22T09:05:28.563Z</time></trkpt><trkpt lat="43.85166" lon="12.214305"><ele>744.75</ele><time>2026-03-22T09:05:29.563Z</time></trkpt><trkpt lat="43.8515317" lon="12.2142533"><ele>743.0</ele><time>2026-03-22T09:05:30.562Z</time></trkpt><trkpt lat="43.851415" lon="12.21421"><ele>743.0</ele><time>2026-03-22T09:05:31.563Z</time></trkpt><trkpt lat="43.8513" lon="12.214165"><ele>743.0</ele><time>2026-03-22T09:05:32.562Z</time></trkpt><trkpt lat="43.851195" lon="12.2140883"><ele>743.0</ele><time>2026-03-22T09:05:33.562Z</time></trkpt><trkpt lat="43.8511017" lon="12.21399"><ele>743.0</ele><time>2026-03-22T09:05:34.562Z</time></trkpt><trkpt lat="43.8510283" lon="12.213845"><ele>741.25</ele><time>2026-03-22T09:05:35.563Z</time></trkpt><trkpt lat="43.8509733" lon="12.2136683"><ele>739.5</ele><time>2026-03-22T09:05:36.562Z</time></trkpt><trkpt lat="43.8509333" lon="12.213465"><ele>737.75</ele><time>2026-03-22T09:05:37.562Z</time></trkpt><trkpt lat="43.85091" lon="12.2132517"><ele>736.0</ele><time>2026-03-22T09:05:38.563Z</time></trkpt><trkpt lat="43.8508933" lon="12.2130417"><ele>734.0</ele><time>2026-03-22T09:05:39.563Z</time></trkpt><trkpt lat="43.850865" lon="12.21282"><ele>732.0</ele><time>2026-03-22T09:05:40.563Z</time></trkpt><trkpt lat="43.85083" lon="12.2126133"><ele>730.0</ele><time>2026-03-22T09:05:41.562Z</time></trkpt><trkpt lat="43.8507933" lon="12.21242"><ele>727.5</ele><time>2026-03-22T09:05:42.562Z</time></trkpt><trkpt lat="43.8507683" lon="12.2122517"><ele>725.0</ele><time>2026-03-22T09:05:43.563Z</time></trkpt><trkpt lat="43.8507283" lon="12.2121083"><ele>722.5</ele><time>2026-03-22T09:05:44.563Z</time></trkpt><trkpt lat="43.8506717" lon="12.2119633"><ele>720.0</ele><time>2026-03-22T09:05:45.563Z</time></trkpt><trkpt lat="43.8505833" lon="12.2118183"><ele>720.0</ele><time>2026-03-22T09:05:46.562Z</time></trkpt><trkpt lat="43.8504783" lon="12.2117083"><ele>720.0</ele><time>2026-03-22T09:05:47.562Z</time></trkpt><trkpt lat="43.8503817" lon="12.2116133"><ele>720.0</ele><time>2026-03-22T09:05:48.563Z</time></trkpt><trkpt lat="43.8503083" lon="12.2115067"><ele>720.0</ele><time>2026-03-22T09:05:49.563Z</time></trkpt><trkpt lat="43.8502483" lon="12.2113817"><ele>717.2</ele><time>2026-03-22T09:05:50.563Z</time></trkpt><trkpt lat="43.8502133" lon="12.21125"><ele>714.4</ele><time>2026-03-22T09:05:51.563Z</time></trkpt><trkpt lat="43.850195" lon="12.2111067"><ele>711.5999999999999</ele><time>2026-03-22T09:05:52.563Z</time></trkpt><trkpt lat="43.850215" lon="12.2109633"><ele>708.8</ele><time>2026-03-22T09:05:53.563Z</time></trkpt><trkpt lat="43.85025" lon="12.2108367"><ele>706.0</ele><time>2026-03-22T09:05:54.563Z</time></trkpt><trkpt lat="43.850275" lon="12.21072"><ele>704.5999999999999</ele><time>2026-03-22T09:05:55.563Z</time></trkpt><trkpt lat="43.8502917" lon="12.2106083"><ele>703.2</ele><time>2026-03-22T09:05:56.563Z</time></trkpt><trkpt lat="43.85028" lon="12.2105067"><ele>701.8</ele><time>2026-03-22T09:05:57.563Z</time></trkpt><trkpt lat="43.8502033" lon="12.210405"><ele>700.4000000000001</ele><time>2026-03-22T09:05:58.563Z</time></trkpt><trkpt lat="43.8500833" lon="12.21033"><ele>699.0</ele><time>2026-03-22T09:05:59.563Z</time></trkpt><trkpt lat="43.8499383" lon="12.2102867"><ele>699.0</ele><time>2026-03-22T09:06:00.562Z</time></trkpt><trkpt lat="43.8497667" lon="12.2102667"><ele>699.0</ele><time>2026-03-22T09:06:01.563Z</time></trkpt><trkpt lat="43.8496" lon="12.2102367"><ele>699.0</ele><time>2026-03-22T09:06:02.563Z</time></trkpt><trkpt lat="43.84944" lon="12.2102117"><ele>699.0</ele><time>2026-03-22T09:06:03.563Z</time></trkpt><trkpt lat="43.8492933" lon="12.2101933"><ele>699.0</ele><time>2026-03-22T09:06:04.562Z</time></trkpt><trkpt lat="43.849165" lon="12.21018"><ele>699.0</ele><time>2026-03-22T09:06:05.562Z</time></trkpt><trkpt lat="43.84904" lon="12.210145"><ele>699.0</ele><time>2026-03-22T09:06:06.563Z</time></trkpt><trkpt lat="43.84893" lon="12.2101117"><ele>698.6</ele><time>2026-03-22T09:06:07.562Z</time></trkpt><trkpt lat="43.8488333" lon="12.2100833"><ele>698.2</ele><time>2026-03-22T09:06:08.563Z</time></trkpt><trkpt lat="43.8487317" lon="12.21007"><ele>697.8000000000001</ele><time>2026-03-22T09:06:09.563Z</time></trkpt><trkpt lat="43.8486383" lon="12.210095"><ele>697.4000000000001</ele><time>2026-03-22T09:06:10.563Z</time></trkpt><trkpt lat="43.8485583" lon="12.2101667"><ele>697.0</ele><time>2026-03-22T09:06:11.562Z</time></trkpt><trkpt lat="43.8484817" lon="12.2102783"><ele>697.25</ele><time>2026-03-22T09:06:12.563Z</time></trkpt><trkpt lat="43.8484283" lon="12.2104217"><ele>697.5</ele><time>2026-03-22T09:06:13.562Z</time></trkpt><trkpt lat="43.8483867" lon="12.2105867"><ele>697.75</ele><time>2026-03-22T09:06:14.563Z</time></trkpt><trkpt lat="43.848325" lon="12.2107667"><ele>698.0</ele><time>2026-03-22T09:06:15.563Z</time></trkpt><trkpt lat="43.848255" lon="12.21097"><ele>698.0</ele><time>2026-03-22T09:06:16.563Z</time></trkpt><trkpt lat="43.848185" lon="12.21116"><ele>698.0</ele><time>2026-03-22T09:06:17.563Z</time></trkpt><trkpt lat="43.84812" lon="12.2113517"><ele>698.0</ele><time>2026-03-22T09:06:18.563Z</time></trkpt><trkpt lat="43.8480667" lon="12.2115367"><ele>699.75</ele><time>2026-03-22T09:06:19.563Z</time></trkpt><trkpt lat="43.8480083" lon="12.2117183"><ele>701.5</ele><time>2026-03-22T09:06:20.563Z</time></trkpt><trkpt lat="43.847935" lon="12.2118783"><ele>703.25</ele><time>2026-03-22T09:06:21.562Z</time></trkpt><trkpt lat="43.84784" lon="12.21201"><ele>705.0</ele><time>2026-03-22T09:06:22.563Z</time></trkpt><trkpt lat="43.8477367" lon="12.212115"><ele>700.5</ele><time>2026-03-22T09:06:23.562Z</time></trkpt><trkpt lat="43.8476267" lon="12.2121967"><ele>696.0</ele><time>2026-03-22T09:06:24.562Z</time></trkpt><trkpt lat="43.8475117" lon="12.21226"><ele>691.5</ele><time>2026-03-22T09:06:25.563Z</time></trkpt><trkpt lat="43.8473817" lon="12.2123017"><ele>687.0</ele><time>2026-03-22T09:06:26.563Z</time></trkpt><trkpt lat="43.8472433" lon="12.2123267"><ele>687.0</ele><time>2026-03-22T09:06:27.563Z</time></trkpt><trkpt lat="43.8471033" lon="12.2123483"><ele>687.0</ele><time>2026-03-22T09:06:28.563Z</time></trkpt><trkpt lat="43.8469633" lon="12.2123817"><ele>687.0</ele><time>2026-03-22T09:06:29.563Z</time></trkpt><trkpt lat="43.8468283" lon="12.212415"><ele>687.0</ele><time>2026-03-22T09:06:30.563Z</time></trkpt><trkpt lat="43.8466917" lon="12.2124567"><ele>683.0</ele><time>2026-03-22T09:06:31.562Z</time></trkpt><trkpt lat="43.8465433" lon="12.2124867"><ele>679.0</ele><time>2026-03-22T09:06:32.563Z</time></trkpt><trkpt lat="43.8463967" lon="12.212495"><ele>675.0</ele><time>2026-03-22T09:06:33.563Z</time></trkpt><trkpt lat="43.8462483" lon="12.2124933"><ele>671.0</ele><time>2026-03-22T09:06:34.562Z</time></trkpt><trkpt lat="43.8460983" lon="12.2125083"><ele>667.5</ele><time>2026-03-22T09:06:35.563Z</time></trkpt><trkpt lat="43.84596" lon="12.2125317"><ele>664.0</ele><time>2026-03-22T09:06:36.563Z</time></trkpt><trkpt lat="43.8458317" lon="12.2125667"><ele>660.5</ele><time>2026-03-22T09:06:37.563Z</time></trkpt><trkpt lat="43.845715" lon="12.2126"><ele>657.0</ele><time>2026-03-22T09:06:38.563Z</time></trkpt><trkpt lat="43.8456017" lon="12.212605"><ele>657.0</ele><time>2026-03-22T09:06:39.562Z</time></trkpt><trkpt lat="43.845485" lon="12.212585"><ele>657.0</ele><time>2026-03-22T09:06:40.563Z</time></trkpt><trkpt lat="43.845365" lon="12.2125333"><ele>657.0</ele><time>2026-03-22T09:06:41.563Z</time></trkpt><trkpt lat="43.8452483" lon="12.212465"><ele>657.0</ele><time>2026-03-22T09:06:42.563Z</time></trkpt><trkpt lat="43.8451283" lon="12.21241"><ele>655.5</ele><time>2026-03-22T09:06:43.563Z</time></trkpt><trkpt lat="43.8450067" lon="12.212395"><ele>654.0</ele><time>2026-03-22T09:06:44.563Z</time></trkpt><trkpt lat="43.8448917" lon="12.212425"><ele>652.5</ele><time>2026-03-22T09:06:45.563Z</time></trkpt><trkpt lat="43.844765" lon="12.2124867"><ele>651.0</ele><time>2026-03-22T09:06:46.563Z</time></trkpt><trkpt lat="43.8446233" lon="12.2125533"><ele>651.0</ele><time>2026-03-22T09:06:47.563Z</time></trkpt><trkpt lat="43.8444683" lon="12.2125917"><ele>651.0</ele><time>2026-03-22T09:06:48.563Z</time></trkpt><trkpt lat="43.84432" lon="12.2125983"><ele>651.0</ele><time>2026-03-22T09:06:49.563Z</time></trkpt><trkpt lat="43.844175" lon="12.2126133"><ele>648.3333333333334</ele><time>2026-03-22T09:06:50.562Z</time></trkpt><trkpt lat="43.844015" lon="12.2126483"><ele>645.6666666666667</ele><time>2026-03-22T09:06:51.563Z</time></trkpt><trkpt lat="43.8438633" lon="12.2126917"><ele>643.0</ele><time>2026-03-22T09:06:52.563Z</time></trkpt><trkpt lat="43.84372" lon="12.2127317"><ele>643.0</ele><time>2026-03-22T09:06:53.562Z</time></trkpt><trkpt lat="43.8435783" lon="12.2127533"><ele>643.0</ele><time>2026-03-22T09:06:54.563Z</time></trkpt><trkpt lat="43.843445" lon="12.2127683"><ele>643.0</ele><time>2026-03-22T09:06:55.563Z</time></trkpt><trkpt lat="43.84332" lon="12.21278"><ele>643.0</ele><time>2026-03-22T09:06:56.562Z</time></trkpt><trkpt lat="43.8432117" lon="12.2127983"><ele>641.8333333333334</ele><time>2026-03-22T09:06:57.563Z</time></trkpt><trkpt lat="43.8431233" lon="12.2128283"><ele>640.6666666666667</ele><time>2026-03-22T09:06:58.562Z</time></trkpt><trkpt lat="43.84305" lon="12.2128783"><ele>639.5</ele><time>2026-03-22T09:06:59.563Z</time></trkpt><trkpt lat="43.8429933" lon="12.2129533"><ele>638.3333333333334</ele><time>2026-03-22T09:07:00.563Z</time></trkpt><trkpt lat="43.842965" lon="12.2130617"><ele>637.1666666666666</ele><time>2026-03-22T09:07:01.563Z</time></trkpt><trkpt lat="43.8429683" lon="12.2131933"><ele>636.0</ele><time>2026-03-22T09:07:02.563Z</time></trkpt><trkpt lat="43.8430017" lon="12.2133467"><ele>636.0</ele><time>2026-03-22T09:07:03.563Z</time></trkpt><trkpt lat="43.843045" lon="12.2134917"><ele>636.0</ele><time>2026-03-22T09:07:04.563Z</time></trkpt><trkpt lat="43.843085" lon="12.2136017"><ele>636.0</ele><time>2026-03-22T09:07:05.563Z</time></trkpt><trkpt lat="43.8430983" lon="12.2137417"><ele>636.0</ele><time>2026-03-22T09:07:07.564Z</time></trkpt><trkpt lat="43.843035" lon="12.2138033"><ele>636.0</ele><time>2026-03-22T09:07:09.564Z</time></trkpt><trkpt lat="43.8429383" lon="12.2137233"><ele>636.0</ele><time>2026-03-22T09:07:11.563Z</time></trkpt><trkpt lat="43.84288" lon="12.21362"><ele>636.0</ele><time>2026-03-22T09:07:12.564Z</time></trkpt><trkpt lat="43.8428067" lon="12.21349"><ele>636.0</ele><time>2026-03-22T09:07:13.563Z</time></trkpt><trkpt lat="43.8427283" lon="12.2133817"><ele>636.0</ele><time>2026-03-22T09:07:14.564Z</time></trkpt><trkpt lat="43.8426567" lon="12.2133"><ele>636.0</ele><time>2026-03-22T09:07:15.564Z</time></trkpt><trkpt lat="43.8425933" lon="12.2132433"><ele>634.0</ele><time>2026-03-22T09:07:16.564Z</time></trkpt><trkpt lat="43.84253" lon="12.2132183"><ele>632.0</ele><time>2026-03-22T09:07:17.564Z</time></trkpt><trkpt lat="43.8424333" lon="12.21329"><ele>630.0</ele><time>2026-03-22T09:07:19.563Z</time></trkpt><trkpt lat="43.842415" lon="12.213375"><ele>628.0</ele><time>2026-03-22T09:07:20.564Z</time></trkpt><trkpt lat="43.8424217" lon="12.2134883"><ele>626.0</ele><time>2026-03-22T09:07:21.564Z</time></trkpt><trkpt lat="43.84246" lon="12.2136333"><ele>624.0</ele><time>2026-03-22T09:07:22.564Z</time></trkpt><trkpt lat="43.8425317" lon="12.213805"><ele>624.5</ele><time>2026-03-22T09:07:23.564Z</time></trkpt><trkpt lat="43.8426033" lon="12.21399"><ele>625.0</ele><time>2026-03-22T09:07:24.564Z</time></trkpt><trkpt lat="43.84267" lon="12.2141633"><ele>625.5</ele><time>2026-03-22T09:07:25.564Z</time></trkpt><trkpt lat="43.8427233" lon="12.21431"><ele>626.0</ele><time>2026-03-22T09:07:26.564Z</time></trkpt><trkpt lat="43.8427633" lon="12.2144183"><ele>626.0</ele><time>2026-03-22T09:07:27.564Z</time></trkpt><trkpt lat="43.8427983" lon="12.214495"><ele>626.0</ele><time>2026-03-22T09:07:28.564Z</time></trkpt><trkpt lat="43.84282" lon="12.2146183"><ele>626.0</ele><time>2026-03-22T09:07:30.564Z</time></trkpt><trkpt lat="43.8427467" lon="12.2146883"><ele>626.0</ele><time>2026-03-22T09:07:32.564Z</time></trkpt><trkpt lat="43.8426317" lon="12.2146"><ele>626.0</ele><time>2026-03-22T09:07:34.563Z</time></trkpt><trkpt lat="43.84257" lon="12.2144967"><ele>624.0</ele><time>2026-03-22T09:07:35.564Z</time></trkpt><trkpt lat="43.8425083" lon="12.214355"><ele>622.0</ele><time>2026-03-22T09:07:36.564Z</time></trkpt><trkpt lat="43.84244" lon="12.214225"><ele>620.0</ele><time>2026-03-22T09:07:37.564Z</time></trkpt><trkpt lat="43.84235" lon="12.2141183"><ele>618.0</ele><time>2026-03-22T09:07:38.563Z</time></trkpt><trkpt lat="43.8422383" lon="12.2140383"><ele>619.5</ele><time>2026-03-22T09:07:39.564Z</time></trkpt><trkpt lat="43.8421233" lon="12.2139667"><ele>621.0</ele><time>2026-03-22T09:07:40.564Z</time></trkpt><trkpt lat="43.8420067" lon="12.213895"><ele>622.5</ele><time>2026-03-22T09:07:41.563Z</time></trkpt><trkpt lat="43.84189" lon="12.2138017"><ele>624.0</ele><time>2026-03-22T09:07:42.563Z</time></trkpt><trkpt lat="43.84178" lon="12.2136933"><ele>620.0</ele><time>2026-03-22T09:07:43.563Z</time></trkpt><trkpt lat="43.8416833" lon="12.2135733"><ele>616.0</ele><time>2026-03-22T09:07:44.564Z</time></trkpt><trkpt lat="43.8415883" lon="12.2134567"><ele>612.0</ele><time>2026-03-22T09:07:45.564Z</time></trkpt><trkpt lat="43.841495" lon="12.21337"><ele>608.0</ele><time>2026-03-22T09:07:46.564Z</time></trkpt><trkpt lat="43.841415" lon="12.2132983"><ele>608.0</ele><time>2026-03-22T09:07:47.563Z</time></trkpt><trkpt lat="43.8413417" lon="12.2132417"><ele>608.0</ele><time>2026-03-22T09:07:48.563Z</time></trkpt><trkpt lat="43.8412733" lon="12.21321"><ele>608.0</ele><time>2026-03-22T09:07:49.564Z</time></trkpt><trkpt lat="43.8411983" lon="12.21322"><ele>608.0</ele><time>2026-03-22T09:07:50.563Z</time></trkpt><trkpt lat="43.8411283" lon="12.213265"><ele>608.0</ele><time>2026-03-22T09:07:51.563Z</time></trkpt><trkpt lat="43.8410717" lon="12.2133317"><ele>608.0</ele><time>2026-03-22T09:07:52.563Z</time></trkpt><trkpt lat="43.8410417" lon="12.2134217"><ele>608.0</ele><time>2026-03-22T09:07:53.563Z</time></trkpt><trkpt lat="43.84103" lon="12.2135333"><ele>608.0</ele><time>2026-03-22T09:07:54.564Z</time></trkpt><trkpt lat="43.8410333" lon="12.2136633"><ele>608.0</ele><time>2026-03-22T09:07:55.564Z</time></trkpt><trkpt lat="43.84108" lon="12.2138217"><ele>608.0</ele><time>2026-03-22T09:07:56.564Z</time></trkpt><trkpt lat="43.84115" lon="12.21401"><ele>606.25</ele><time>2026-03-22T09:07:57.563Z</time></trkpt><trkpt lat="43.841225" lon="12.2141983"><ele>604.5</ele><time>2026-03-22T09:07:58.563Z</time></trkpt><trkpt lat="43.8412883" lon="12.2143667"><ele>602.75</ele><time>2026-03-22T09:07:59.564Z</time></trkpt><trkpt lat="43.8413433" lon="12.214505"><ele>601.0</ele><time>2026-03-22T09:08:00.564Z</time></trkpt><trkpt lat="43.841385" lon="12.2146217"><ele>601.0</ele><time>2026-03-22T09:08:01.563Z</time></trkpt><trkpt lat="43.84142" lon="12.21471"><ele>601.0</ele><time>2026-03-22T09:08:02.564Z</time></trkpt><trkpt lat="43.8414383" lon="12.2148817"><ele>601.0</ele><time>2026-03-22T09:08:04.564Z</time></trkpt><trkpt lat="43.8414183" lon="12.2149667"><ele>601.0</ele><time>2026-03-22T09:08:05.564Z</time></trkpt><trkpt lat="43.8413717" lon="12.2150333"><ele>601.0</ele><time>2026-03-22T09:08:06.564Z</time></trkpt><trkpt lat="43.8412933" lon="12.2150667"><ele>601.0</ele><time>2026-03-22T09:08:07.564Z</time></trkpt><trkpt lat="43.8411983" lon="12.2150583"><ele>598.5</ele><time>2026-03-22T09:08:08.564Z</time></trkpt><trkpt lat="43.8410917" lon="12.21501"><ele>596.0</ele><time>2026-03-22T09:08:09.564Z</time></trkpt><trkpt lat="43.8409817" lon="12.21492"><ele>593.5</ele><time>2026-03-22T09:08:10.564Z</time></trkpt><trkpt lat="43.84088" lon="12.21481"><ele>591.0</ele><time>2026-03-22T09:08:11.564Z</time></trkpt><trkpt lat="43.8407783" lon="12.2147083"><ele>591.0</ele><time>2026-03-22T09:08:12.564Z</time></trkpt><trkpt lat="43.84067" lon="12.2146333"><ele>591.0</ele><time>2026-03-22T09:08:13.564Z</time></trkpt><trkpt lat="43.8405433" lon="12.214595"><ele>591.0</ele><time>2026-03-22T09:08:14.564Z</time></trkpt><trkpt lat="43.8404133" lon="12.2145783"><ele>591.0</ele><time>2026-03-22T09:08:15.564Z</time></trkpt><trkpt lat="43.8402833" lon="12.2145683"><ele>591.0</ele><time>2026-03-22T09:08:16.564Z</time></trkpt><trkpt lat="43.840155" lon="12.214535"><ele>591.0</ele><time>2026-03-22T09:08:17.564Z</time></trkpt><trkpt lat="43.84002" lon="12.21447"><ele>591.0</ele><time>2026-03-22T09:08:18.563Z</time></trkpt><trkpt lat="43.8398833" lon="12.2143933"><ele>591.0</ele><time>2026-03-22T09:08:19.564Z</time></trkpt><trkpt lat="43.839755" lon="12.214305"><ele>589.0</ele><time>2026-03-22T09:08:20.564Z</time></trkpt><trkpt lat="43.8396433" lon="12.2142267"><ele>587.0</ele><time>2026-03-22T09:08:21.563Z</time></trkpt><trkpt lat="43.8395517" lon="12.2141633"><ele>585.0</ele><time>2026-03-22T09:08:22.563Z</time></trkpt><trkpt lat="43.83948" lon="12.2141133"><ele>583.0</ele><time>2026-03-22T09:08:23.564Z</time></trkpt><trkpt lat="43.8393717" lon="12.2140967"><ele>581.0</ele><time>2026-03-22T09:08:25.563Z</time></trkpt><trkpt lat="43.83932" lon="12.21426"><ele>581.0</ele><time>2026-03-22T09:08:27.564Z</time></trkpt><trkpt lat="43.8393367" lon="12.2144083"><ele>581.0</ele><time>2026-03-22T09:08:28.564Z</time></trkpt><trkpt lat="43.8393667" lon="12.2145833"><ele>581.0</ele><time>2026-03-22T09:08:29.564Z</time></trkpt><trkpt lat="43.8394" lon="12.2147683"><ele>581.0</ele><time>2026-03-22T09:08:30.563Z</time></trkpt><trkpt lat="43.8394333" lon="12.2149317"><ele>578.25</ele><time>2026-03-22T09:08:31.563Z</time></trkpt><trkpt lat="43.839465" lon="12.21509"><ele>575.5</ele><time>2026-03-22T09:08:32.564Z</time></trkpt><trkpt lat="43.8395233" lon="12.2152317"><ele>572.75</ele><time>2026-03-22T09:08:33.564Z</time></trkpt><trkpt lat="43.839595" lon="12.215355"><ele>570.0</ele><time>2026-03-22T09:08:34.564Z</time></trkpt><trkpt lat="43.839665" lon="12.215475"><ele>570.0</ele><time>2026-03-22T09:08:35.563Z</time></trkpt><trkpt lat="43.839725" lon="12.21559"><ele>570.0</ele><time>2026-03-22T09:08:36.563Z</time></trkpt><trkpt lat="43.8397467" lon="12.2157217"><ele>570.0</ele><time>2026-03-22T09:08:37.564Z</time></trkpt><trkpt lat="43.8397517" lon="12.2158767"><ele>570.0</ele><time>2026-03-22T09:08:38.563Z</time></trkpt><trkpt lat="43.8397367" lon="12.21602"><ele>570.0</ele><time>2026-03-22T09:08:39.564Z</time></trkpt><trkpt lat="43.8397667" lon="12.21622"><ele>568.0</ele><time>2026-03-22T09:08:41.115Z</time></trkpt><trkpt lat="43.8396433" lon="12.21636"><ele>566.0</ele><time>2026-03-22T09:08:42.558Z</time></trkpt><trkpt lat="43.8395433" lon="12.2164533"><ele>564.0</ele><time>2026-03-22T09:08:43.558Z</time></trkpt><trkpt lat="43.8393683" lon="12.2165317"><ele>561.6666666666666</ele><time>2026-03-22T09:08:45.058Z</time></trkpt><trkpt lat="43.8391533" lon="12.216555"><ele>559.3333333333333</ele><time>2026-03-22T09:08:46.559Z</time></trkpt><trkpt lat="43.838995" lon="12.21652"><ele>557.0</ele><time>2026-03-22T09:08:47.559Z</time></trkpt><trkpt lat="43.838835" lon="12.2164733"><ele>557.0</ele><time>2026-03-22T09:08:48.558Z</time></trkpt><trkpt lat="43.8386683" lon="12.2164167"><ele>557.0</ele><time>2026-03-22T09:08:49.558Z</time></trkpt><trkpt lat="43.8383817" lon="12.2162583"><ele>554.6666666666666</ele><time>2026-03-22T09:08:51.093Z</time></trkpt><trkpt lat="43.83817" lon="12.2162167"><ele>552.3333333333334</ele><time>2026-03-22T09:08:52.559Z</time></trkpt><trkpt lat="43.8379933" lon="12.2161633"><ele>550.0</ele><time>2026-03-22T09:08:53.559Z</time></trkpt><trkpt lat="43.8377483" lon="12.21608"><ele>548.0</ele><time>2026-03-22T09:08:55.058Z</time></trkpt><trkpt lat="43.837525" lon="12.2160133"><ele>546.0</ele><time>2026-03-22T09:08:56.558Z</time></trkpt><trkpt lat="43.83739" lon="12.215965"><ele>544.0</ele><time>2026-03-22T09:08:57.558Z</time></trkpt><trkpt lat="43.8372567" lon="12.2159333"><ele>544.0</ele><time>2026-03-22T09:08:58.559Z</time></trkpt><trkpt lat="43.83711" lon="12.21591"><ele>544.0</ele><time>2026-03-22T09:08:59.559Z</time></trkpt><trkpt lat="43.8369567" lon="12.2159117"><ele>544.0</ele><time>2026-03-22T09:09:00.559Z</time></trkpt><trkpt lat="43.8367983" lon="12.2159367"><ele>541.0</ele><time>2026-03-22T09:09:01.559Z</time></trkpt><trkpt lat="43.8366333" lon="12.2159617"><ele>538.0</ele><time>2026-03-22T09:09:02.558Z</time></trkpt><trkpt lat="43.8364517" lon="12.2160117"><ele>535.0</ele><time>2026-03-22T09:09:03.558Z</time></trkpt><trkpt lat="43.8362733" lon="12.216065"><ele>535.0</ele><time>2026-03-22T09:09:04.558Z</time></trkpt><trkpt lat="43.8361217" lon="12.21611"><ele>535.0</ele><time>2026-03-22T09:09:05.558Z</time></trkpt><trkpt lat="43.835955" lon="12.21616"><ele>535.0</ele><time>2026-03-22T09:09:06.558Z</time></trkpt><trkpt lat="43.8357967" lon="12.216205"><ele>533.0</ele><time>2026-03-22T09:09:07.559Z</time></trkpt><trkpt lat="43.835635" lon="12.2162383"><ele>531.0</ele><time>2026-03-22T09:09:08.559Z</time></trkpt><trkpt lat="43.8354817" lon="12.2162533"><ele>529.0</ele><time>2026-03-22T09:09:09.559Z</time></trkpt><trkpt lat="43.835315" lon="12.2162533"><ele>529.0</ele><time>2026-03-22T09:09:10.559Z</time></trkpt><trkpt lat="43.8351417" lon="12.216235"><ele>529.0</ele><time>2026-03-22T09:09:11.559Z</time></trkpt><trkpt lat="43.8349683" lon="12.2162217"><ele>529.0</ele><time>2026-03-22T09:09:12.559Z</time></trkpt><trkpt lat="43.8347967" lon="12.2162033"><ele>527.0</ele><time>2026-03-22T09:09:13.559Z</time></trkpt><trkpt lat="43.8346233" lon="12.2161867"><ele>525.0</ele><time>2026-03-22T09:09:14.559Z</time></trkpt><trkpt lat="43.8344433" lon="12.21617"><ele>523.0</ele><time>2026-03-22T09:09:15.559Z</time></trkpt><trkpt lat="43.8342533" lon="12.21616"><ele>521.0</ele><time>2026-03-22T09:09:16.559Z</time></trkpt><trkpt lat="43.8340633" lon="12.216145"><ele>519.0</ele><time>2026-03-22T09:09:17.559Z</time></trkpt><trkpt lat="43.8338783" lon="12.2161233"><ele>517.0</ele><time>2026-03-22T09:09:18.559Z</time></trkpt><trkpt lat="43.8336933" lon="12.2160967"><ele>517.0</ele><time>2026-03-22T09:09:19.558Z</time></trkpt><trkpt lat="43.8335133" lon="12.216085"><ele>517.0</ele><time>2026-03-22T09:09:20.559Z</time></trkpt><trkpt lat="43.8333367" lon="12.2160617"><ele>517.0</ele><time>2026-03-22T09:09:21.559Z</time></trkpt><trkpt lat="43.83316" lon="12.2160433"><ele>515.0</ele><time>2026-03-22T09:09:22.559Z</time></trkpt><trkpt lat="43.8329967" lon="12.2160167"><ele>513.0</ele><time>2026-03-22T09:09:23.559Z</time></trkpt><trkpt lat="43.83285" lon="12.215995"><ele>511.0</ele><time>2026-03-22T09:09:24.558Z</time></trkpt><trkpt lat="43.8327167" lon="12.2159933"><ele>509.0</ele><time>2026-03-22T09:09:25.558Z</time></trkpt><trkpt lat="43.83259" lon="12.21602"><ele>507.3333333333333</ele><time>2026-03-22T09:09:26.559Z</time></trkpt><trkpt lat="43.8324517" lon="12.2160883"><ele>505.66666666666663</ele><time>2026-03-22T09:09:27.559Z</time></trkpt><trkpt lat="43.83232" lon="12.2162"><ele>504.0</ele><time>2026-03-22T09:09:28.558Z</time></trkpt><trkpt lat="43.832185" lon="12.2163233"><ele>504.0</ele><time>2026-03-22T09:09:29.558Z</time></trkpt><trkpt lat="43.8320367" lon="12.216425"><ele>504.0</ele><time>2026-03-22T09:09:30.559Z</time></trkpt><trkpt lat="43.8318783" lon="12.2165217"><ele>504.0</ele><time>2026-03-22T09:09:31.559Z</time></trkpt><trkpt lat="43.8317167" lon="12.2166017"><ele>503.5</ele><time>2026-03-22T09:09:32.558Z</time></trkpt><trkpt lat="43.83157" lon="12.216675"><ele>503.0</ele><time>2026-03-22T09:09:33.559Z</time></trkpt><trkpt lat="43.8314367" lon="12.21674"><ele>502.5</ele><time>2026-03-22T09:09:34.559Z</time></trkpt><trkpt lat="43.8313133" lon="12.2168083"><ele>502.0</ele><time>2026-03-22T09:09:35.558Z</time></trkpt><trkpt lat="43.83121" lon="12.2168917"><ele>502.0</ele><time>2026-03-22T09:09:36.558Z</time></trkpt><trkpt lat="43.8311083" lon="12.217015"><ele>502.0</ele><time>2026-03-22T09:09:37.559Z</time></trkpt><trkpt lat="43.8310033" lon="12.217165"><ele>502.0</ele><time>2026-03-22T09:09:38.558Z</time></trkpt><trkpt lat="43.8308933" lon="12.2173383"><ele>500.33333333333337</ele><time>2026-03-22T09:09:39.559Z</time></trkpt><trkpt lat="43.8307817" lon="12.2175183"><ele>498.66666666666663</ele><time>2026-03-22T09:09:40.559Z</time></trkpt><trkpt lat="43.83068" lon="12.2177033"><ele>497.0</ele><time>2026-03-22T09:09:41.559Z</time></trkpt><trkpt lat="43.83057" lon="12.2178783"><ele>497.0</ele><time>2026-03-22T09:09:42.559Z</time></trkpt><trkpt lat="43.83046" lon="12.2180617"><ele>497.0</ele><time>2026-03-22T09:09:43.558Z</time></trkpt><trkpt lat="43.8303483" lon="12.2182467"><ele>497.0</ele><time>2026-03-22T09:09:44.559Z</time></trkpt><trkpt lat="43.8302683" lon="12.2184183"><ele>496.6</ele><time>2026-03-22T09:09:45.559Z</time></trkpt><trkpt lat="43.830195" lon="12.2185567"><ele>496.20000000000005</ele><time>2026-03-22T09:09:46.559Z</time></trkpt><trkpt lat="43.8301333" lon="12.2186917"><ele>495.8</ele><time>2026-03-22T09:09:47.558Z</time></trkpt><trkpt lat="43.8301" lon="12.2188233"><ele>495.4</ele><time>2026-03-22T09:09:48.558Z</time></trkpt><trkpt lat="43.8300767" lon="12.218945"><ele>495.0</ele><time>2026-03-22T09:09:49.559Z</time></trkpt><trkpt lat="43.8300867" lon="12.21908"><ele>493.25</ele><time>2026-03-22T09:09:50.559Z</time></trkpt><trkpt lat="43.8301233" lon="12.219215"><ele>491.5</ele><time>2026-03-22T09:09:51.559Z</time></trkpt><trkpt lat="43.8301967" lon="12.2193267"><ele>489.75</ele><time>2026-03-22T09:09:52.559Z</time></trkpt><trkpt lat="43.8303083" lon="12.21943"><ele>488.0</ele><time>2026-03-22T09:09:53.558Z</time></trkpt><trkpt lat="43.8304433" lon="12.2195317"><ele>488.0</ele><time>2026-03-22T09:09:54.559Z</time></trkpt><trkpt lat="43.8305917" lon="12.21963"><ele>488.0</ele><time>2026-03-22T09:09:55.558Z</time></trkpt><trkpt lat="43.830725" lon="12.2197283"><ele>488.0</ele><time>2026-03-22T09:09:56.558Z</time></trkpt><trkpt lat="43.83084" lon="12.2198283"><ele>488.0</ele><time>2026-03-22T09:09:57.558Z</time></trkpt><trkpt lat="43.8309417" lon="12.2199317"><ele>488.0</ele><time>2026-03-22T09:09:58.559Z</time></trkpt><trkpt lat="43.8310283" lon="12.220045"><ele>488.0</ele><time>2026-03-22T09:09:59.559Z</time></trkpt><trkpt lat="43.8310967" lon="12.2201667"><ele>488.0</ele><time>2026-03-22T09:10:00.558Z</time></trkpt><trkpt lat="43.8311433" lon="12.22029"><ele>488.0</ele><time>2026-03-22T09:10:01.558Z</time></trkpt><trkpt lat="43.8311617" lon="12.2204083"><ele>487.99999999999994</ele><time>2026-03-22T09:10:02.559Z</time></trkpt><trkpt lat="43.8311567" lon="12.2205333"><ele>487.99999999999994</ele><time>2026-03-22T09:10:03.559Z</time></trkpt><trkpt lat="43.83112" lon="12.2206517"><ele>488.0</ele><time>2026-03-22T09:10:04.558Z</time></trkpt><trkpt lat="43.831055" lon="12.2207467"><ele>488.0</ele><time>2026-03-22T09:10:05.559Z</time></trkpt><trkpt lat="43.8309433" lon="12.2208217"><ele>484.66666666666663</ele><time>2026-03-22T09:10:06.559Z</time></trkpt><trkpt lat="43.830805" lon="12.2208867"><ele>481.33333333333337</ele><time>2026-03-22T09:10:07.558Z</time></trkpt><trkpt lat="43.83065" lon="12.2209517"><ele>478.0</ele><time>2026-03-22T09:10:08.559Z</time></trkpt><trkpt lat="43.8304983" lon="12.2210167"><ele>478.0</ele><time>2026-03-22T09:10:09.559Z</time></trkpt><trkpt lat="43.8303533" lon="12.221085"><ele>478.0</ele><time>2026-03-22T09:10:10.558Z</time></trkpt><trkpt lat="43.8302183" lon="12.221155"><ele>478.0</ele><time>2026-03-22T09:10:11.559Z</time></trkpt><trkpt lat="43.8300933" lon="12.2212283"><ele>478.0</ele><time>2026-03-22T09:10:12.559Z</time></trkpt><trkpt lat="43.8299683" lon="12.2213283"><ele>477.5</ele><time>2026-03-22T09:10:13.558Z</time></trkpt><trkpt lat="43.829855" lon="12.2214617"><ele>477.0</ele><time>2026-03-22T09:10:14.559Z</time></trkpt><trkpt lat="43.8297483" lon="12.2216117"><ele>476.5</ele><time>2026-03-22T09:10:15.558Z</time></trkpt><trkpt lat="43.8296517" lon="12.2217567"><ele>476.0</ele><time>2026-03-22T09:10:16.559Z</time></trkpt><trkpt lat="43.82956" lon="12.2218883"><ele>475.25</ele><time>2026-03-22T09:10:17.558Z</time></trkpt><trkpt lat="43.8294733" lon="12.2220133"><ele>474.5</ele><time>2026-03-22T09:10:18.559Z</time></trkpt><trkpt lat="43.829385" lon="12.222125"><ele>473.75</ele><time>2026-03-22T09:10:19.559Z</time></trkpt><trkpt lat="43.8292783" lon="12.2222083"><ele>473.0</ele><time>2026-03-22T09:10:20.558Z</time></trkpt><trkpt lat="43.82916" lon="12.222265"><ele>472.5</ele><time>2026-03-22T09:10:21.559Z</time></trkpt><trkpt lat="43.8290267" lon="12.2222967"><ele>472.0</ele><time>2026-03-22T09:10:22.559Z</time></trkpt><trkpt lat="43.8288883" lon="12.222285"><ele>471.5</ele><time>2026-03-22T09:10:23.559Z</time></trkpt><trkpt lat="43.8287483" lon="12.2222283"><ele>471.0</ele><time>2026-03-22T09:10:24.559Z</time></trkpt><trkpt lat="43.828615" lon="12.222155"><ele>471.0</ele><time>2026-03-22T09:10:25.559Z</time></trkpt><trkpt lat="43.8285017" lon="12.2220817"><ele>471.0</ele><time>2026-03-22T09:10:26.558Z</time></trkpt><trkpt lat="43.8284067" lon="12.2220283"><ele>471.0</ele><time>2026-03-22T09:10:27.559Z</time></trkpt><trkpt lat="43.8283217" lon="12.2220083"><ele>471.0</ele><time>2026-03-22T09:10:28.559Z</time></trkpt><trkpt lat="43.8282417" lon="12.22204"><ele>471.0</ele><time>2026-03-22T09:10:29.559Z</time></trkpt><trkpt lat="43.8281517" lon="12.2221217"><ele>469.0</ele><time>2026-03-22T09:10:30.559Z</time></trkpt><trkpt lat="43.8280533" lon="12.2222683"><ele>467.0</ele><time>2026-03-22T09:10:31.559Z</time></trkpt><trkpt lat="43.8279333" lon="12.2224583"><ele>465.0</ele><time>2026-03-22T09:10:32.559Z</time></trkpt><trkpt lat="43.827805" lon="12.2226533"><ele>465.0</ele><time>2026-03-22T09:10:33.559Z</time></trkpt><trkpt lat="43.827685" lon="12.22283"><ele>465.0</ele><time>2026-03-22T09:10:34.559Z</time></trkpt><trkpt lat="43.827565" lon="12.2230017"><ele>465.0</ele><time>2026-03-22T09:10:35.558Z</time></trkpt><trkpt lat="43.8274517" lon="12.22317"><ele>462.66666666666663</ele><time>2026-03-22T09:10:36.558Z</time></trkpt><trkpt lat="43.82734" lon="12.2233367"><ele>460.3333333333333</ele><time>2026-03-22T09:10:37.558Z</time></trkpt><trkpt lat="43.827235" lon="12.2234917"><ele>458.0</ele><time>2026-03-22T09:10:38.559Z</time></trkpt><trkpt lat="43.8271367" lon="12.22364"><ele>458.0</ele><time>2026-03-22T09:10:39.559Z</time></trkpt><trkpt lat="43.8270483" lon="12.22378"><ele>458.0</ele><time>2026-03-22T09:10:40.559Z</time></trkpt><trkpt lat="43.8269767" lon="12.2239133"><ele>458.0</ele><time>2026-03-22T09:10:41.558Z</time></trkpt><trkpt lat="43.8269267" lon="12.2240417"><ele>458.0</ele><time>2026-03-22T09:10:42.559Z</time></trkpt><trkpt lat="43.826895" lon="12.2241767"><ele>456.59999999999997</ele><time>2026-03-22T09:10:43.559Z</time></trkpt><trkpt lat="43.8268917" lon="12.2243217"><ele>455.19999999999993</ele><time>2026-03-22T09:10:44.559Z</time></trkpt><trkpt lat="43.8269183" lon="12.2244883"><ele>453.8</ele><time>2026-03-22T09:10:45.558Z</time></trkpt><trkpt lat="43.8269583" lon="12.224645"><ele>452.4</ele><time>2026-03-22T09:10:46.558Z</time></trkpt><trkpt lat="43.8269967" lon="12.224775"><ele>451.0</ele><time>2026-03-22T09:10:47.56Z</time></trkpt><trkpt lat="43.8270067" lon="12.2249133"><ele>450.0</ele><time>2026-03-22T09:10:48.56Z</time></trkpt><trkpt lat="43.8269733" lon="12.2250633"><ele>449.0</ele><time>2026-03-22T09:10:49.56Z</time></trkpt><trkpt lat="43.8269033" lon="12.2252083"><ele>448.0</ele><time>2026-03-22T09:10:50.559Z</time></trkpt><trkpt lat="43.8268117" lon="12.2253717"><ele>447.0</ele><time>2026-03-22T09:10:51.56Z</time></trkpt><trkpt lat="43.82671" lon="12.22554"><ele>445.5</ele><time>2026-03-22T09:10:52.559Z</time></trkpt><trkpt lat="43.8266167" lon="12.2257033"><ele>444.0</ele><time>2026-03-22T09:10:53.559Z</time></trkpt><trkpt lat="43.8265317" lon="12.22585"><ele>442.5</ele><time>2026-03-22T09:10:54.559Z</time></trkpt><trkpt lat="43.8264567" lon="12.2259917"><ele>441.0</ele><time>2026-03-22T09:10:55.56Z</time></trkpt><trkpt lat="43.8264033" lon="12.2261517"><ele>441.0</ele><time>2026-03-22T09:10:56.56Z</time></trkpt><trkpt lat="43.8263667" lon="12.226345"><ele>441.0</ele><time>2026-03-22T09:10:57.559Z</time></trkpt><trkpt lat="43.8263383" lon="12.2265683"><ele>441.0</ele><time>2026-03-22T09:10:58.56Z</time></trkpt><trkpt lat="43.82631" lon="12.22679"><ele>439.66666666666663</ele><time>2026-03-22T09:10:59.56Z</time></trkpt><trkpt lat="43.8262683" lon="12.2270133"><ele>438.3333333333333</ele><time>2026-03-22T09:11:00.559Z</time></trkpt><trkpt lat="43.8262033" lon="12.2272267"><ele>437.0</ele><time>2026-03-22T09:11:01.559Z</time></trkpt><trkpt lat="43.8261217" lon="12.227455"><ele>435.66666666666663</ele><time>2026-03-22T09:11:02.56Z</time></trkpt><trkpt lat="43.8260417" lon="12.2276717"><ele>434.33333333333337</ele><time>2026-03-22T09:11:03.56Z</time></trkpt><trkpt lat="43.8259583" lon="12.227875"><ele>433.0</ele><time>2026-03-22T09:11:04.56Z</time></trkpt><trkpt lat="43.8258717" lon="12.2280767"><ele>431.0</ele><time>2026-03-22T09:11:05.559Z</time></trkpt><trkpt lat="43.82578" lon="12.2282633"><ele>429.0</ele><time>2026-03-22T09:11:06.559Z</time></trkpt><trkpt lat="43.82569" lon="12.2284383"><ele>427.0</ele><time>2026-03-22T09:11:07.56Z</time></trkpt><trkpt lat="43.8256083" lon="12.2286067"><ele>427.0</ele><time>2026-03-22T09:11:08.559Z</time></trkpt><trkpt lat="43.8255333" lon="12.2287517"><ele>427.00000000000006</ele><time>2026-03-22T09:11:09.56Z</time></trkpt><trkpt lat="43.8254667" lon="12.2288683"><ele>427.00000000000006</ele><time>2026-03-22T09:11:10.56Z</time></trkpt><trkpt lat="43.8254117" lon="12.2289617"><ele>427.0</ele><time>2026-03-22T09:11:11.56Z</time></trkpt><trkpt lat="43.825345" lon="12.2290183"><ele>427.0</ele><time>2026-03-22T09:11:12.559Z</time></trkpt><trkpt lat="43.8252667" lon="12.2290283"><ele>426.0</ele><time>2026-03-22T09:11:13.56Z</time></trkpt><trkpt lat="43.8251983" lon="12.2289883"><ele>425.00000000000006</ele><time>2026-03-22T09:11:14.559Z</time></trkpt><trkpt lat="43.825135" lon="12.2289"><ele>424.0</ele><time>2026-03-22T09:11:15.559Z</time></trkpt><trkpt lat="43.825085" lon="12.22878"><ele>423.0</ele><time>2026-03-22T09:11:16.56Z</time></trkpt><trkpt lat="43.8250533" lon="12.2286383"><ele>422.0</ele><time>2026-03-22T09:11:17.56Z</time></trkpt><trkpt lat="43.8250433" lon="12.2284967"><ele>421.0</ele><time>2026-03-22T09:11:18.56Z</time></trkpt><trkpt lat="43.8250433" lon="12.2283583"><ele>420.0</ele><time>2026-03-22T09:11:19.559Z</time></trkpt><trkpt lat="43.8250583" lon="12.2282183"><ele>419.0</ele><time>2026-03-22T09:11:20.56Z</time></trkpt><trkpt lat="43.8250767" lon="12.22809"><ele>418.0</ele><time>2026-03-22T09:11:21.56Z</time></trkpt><trkpt lat="43.82509" lon="12.22798"><ele>417.0</ele><time>2026-03-22T09:11:22.559Z</time></trkpt><trkpt lat="43.825075" lon="12.2278767"><ele>416.6</ele><time>2026-03-22T09:11:23.559Z</time></trkpt><trkpt lat="43.8250317" lon="12.2277867"><ele>416.20000000000005</ele><time>2026-03-22T09:11:24.56Z</time></trkpt><trkpt lat="43.824965" lon="12.2277267"><ele>415.8</ele><time>2026-03-22T09:11:25.56Z</time></trkpt><trkpt lat="43.8248783" lon="12.2277167"><ele>415.4</ele><time>2026-03-22T09:11:26.56Z</time></trkpt><trkpt lat="43.8247667" lon="12.2277817"><ele>415.0</ele><time>2026-03-22T09:11:27.559Z</time></trkpt><trkpt lat="43.82466" lon="12.2278833"><ele>415.0</ele><time>2026-03-22T09:11:28.56Z</time></trkpt><trkpt lat="43.82457" lon="12.2279933"><ele>415.0</ele><time>2026-03-22T09:11:29.559Z</time></trkpt><trkpt lat="43.8244883" lon="12.228135"><ele>415.0</ele><time>2026-03-22T09:11:30.559Z</time></trkpt><trkpt lat="43.82442" lon="12.2283233"><ele>415.0</ele><time>2026-03-22T09:11:31.56Z</time></trkpt><trkpt lat="43.8243517" lon="12.2285633"><ele>411.6666666666667</ele><time>2026-03-22T09:11:32.56Z</time></trkpt><trkpt lat="43.824285" lon="12.2288033"><ele>408.33333333333337</ele><time>2026-03-22T09:11:33.559Z</time></trkpt><trkpt lat="43.82422" lon="12.2290233"><ele>405.0</ele><time>2026-03-22T09:11:34.56Z</time></trkpt><trkpt lat="43.824155" lon="12.2292333"><ele>405.0</ele><time>2026-03-22T09:11:35.56Z</time></trkpt><trkpt lat="43.824085" lon="12.2294233"><ele>405.0</ele><time>2026-03-22T09:11:36.56Z</time></trkpt><trkpt lat="43.8240017" lon="12.229585"><ele>405.0</ele><time>2026-03-22T09:11:37.559Z</time></trkpt><trkpt lat="43.8239067" lon="12.22971"><ele>405.0</ele><time>2026-03-22T09:11:38.56Z</time></trkpt><trkpt lat="43.8238017" lon="12.2298133"><ele>403.5</ele><time>2026-03-22T09:11:39.559Z</time></trkpt><trkpt lat="43.8236867" lon="12.229895"><ele>402.0</ele><time>2026-03-22T09:11:40.559Z</time></trkpt><trkpt lat="43.8235683" lon="12.2299483"><ele>400.5</ele><time>2026-03-22T09:11:41.56Z</time></trkpt><trkpt lat="43.82345" lon="12.2299917"><ele>399.0</ele><time>2026-03-22T09:11:43.558Z</time></trkpt><trkpt lat="43.82333" lon="12.2300317"><ele>399.0</ele><time>2026-03-22T09:11:44.558Z</time></trkpt><trkpt lat="43.823185" lon="12.2299767"><ele>399.0</ele><time>2026-03-22T09:11:46.058Z</time></trkpt><trkpt lat="43.823045" lon="12.2298983"><ele>399.0</ele><time>2026-03-22T09:11:47.56Z</time></trkpt><trkpt lat="43.823015" lon="12.2297417"><ele>399.0</ele><time>2026-03-22T09:11:48.56Z</time></trkpt><trkpt lat="43.8229933" lon="12.229555"><ele>398.33333333333337</ele><time>2026-03-22T09:11:49.56Z</time></trkpt><trkpt lat="43.823005" lon="12.2293217"><ele>397.6666666666667</ele><time>2026-03-22T09:11:50.56Z</time></trkpt><trkpt lat="43.8230167" lon="12.2290717"><ele>397.0</ele><time>2026-03-22T09:11:51.56Z</time></trkpt><trkpt lat="43.8230433" lon="12.2287767"><ele>397.0</ele><time>2026-03-22T09:11:52.541Z</time></trkpt><trkpt lat="43.8230583" lon="12.2286267"><ele>397.0</ele><time>2026-03-22T09:11:53.561Z</time></trkpt><trkpt lat="43.823045" lon="12.2284717"><ele>397.0</ele><time>2026-03-22T09:11:54.56Z</time></trkpt><trkpt lat="43.823035" lon="12.2282567"><ele>397.0</ele><time>2026-03-22T09:11:56.061Z</time></trkpt><trkpt lat="43.82297" lon="12.2281133"><ele>397.0</ele><time>2026-03-22T09:11:57.561Z</time></trkpt><trkpt lat="43.8228817" lon="12.22805"><ele>397.0</ele><time>2026-03-22T09:11:58.561Z</time></trkpt><trkpt lat="43.8227583" lon="12.2280283"><ele>397.0</ele><time>2026-03-22T09:11:59.561Z</time></trkpt><trkpt lat="43.8226183" lon="12.2280333"><ele>397.0</ele><time>2026-03-22T09:12:00.56Z</time></trkpt><trkpt lat="43.822475" lon="12.2280383"><ele>394.25</ele><time>2026-03-22T09:12:01.56Z</time></trkpt><trkpt lat="43.82234" lon="12.228015"><ele>391.5</ele><time>2026-03-22T09:12:02.56Z</time></trkpt><trkpt lat="43.8222083" lon="12.2279533"><ele>388.75</ele><time>2026-03-22T09:12:03.561Z</time></trkpt><trkpt lat="43.8220867" lon="12.2278483"><ele>386.0</ele><time>2026-03-22T09:12:04.561Z</time></trkpt><trkpt lat="43.821975" lon="12.2277"><ele>386.0</ele><time>2026-03-22T09:12:05.561Z</time></trkpt><trkpt lat="43.8218717" lon="12.2275433"><ele>386.0</ele><time>2026-03-22T09:12:06.561Z</time></trkpt><trkpt lat="43.8217617" lon="12.2274067"><ele>386.0</ele><time>2026-03-22T09:12:07.561Z</time></trkpt><trkpt lat="43.8216533" lon="12.22729"><ele>386.0</ele><time>2026-03-22T09:12:08.561Z</time></trkpt><trkpt lat="43.82156" lon="12.2272033"><ele>384.75</ele><time>2026-03-22T09:12:09.56Z</time></trkpt><trkpt lat="43.8214667" lon="12.2271467"><ele>383.5</ele><time>2026-03-22T09:12:10.56Z</time></trkpt><trkpt lat="43.8213517" lon="12.2271267"><ele>382.25</ele><time>2026-03-22T09:12:11.56Z</time></trkpt><trkpt lat="43.82122" lon="12.2271317"><ele>381.0</ele><time>2026-03-22T09:12:12.56Z</time></trkpt><trkpt lat="43.8211083" lon="12.22715"><ele>381.0</ele><time>2026-03-22T09:12:13.56Z</time></trkpt><trkpt lat="43.821005" lon="12.2271783"><ele>381.0</ele><time>2026-03-22T09:12:14.561Z</time></trkpt><trkpt lat="43.8209233" lon="12.2272383"><ele>381.0</ele><time>2026-03-22T09:12:15.561Z</time></trkpt><trkpt lat="43.8208617" lon="12.2273333"><ele>381.0</ele><time>2026-03-22T09:12:16.56Z</time></trkpt><trkpt lat="43.8208233" lon="12.22745"><ele>381.0</ele><time>2026-03-22T09:12:17.561Z</time></trkpt><trkpt lat="43.8208067" lon="12.2276"><ele>378.75</ele><time>2026-03-22T09:12:18.56Z</time></trkpt><trkpt lat="43.82082" lon="12.22778"><ele>376.5</ele><time>2026-03-22T09:12:19.561Z</time></trkpt><trkpt lat="43.820825" lon="12.2279667"><ele>374.25</ele><time>2026-03-22T09:12:20.561Z</time></trkpt><trkpt lat="43.820815" lon="12.228125"><ele>372.0</ele><time>2026-03-22T09:12:21.561Z</time></trkpt><trkpt lat="43.8207833" lon="12.2282683"><ele>371.25</ele><time>2026-03-22T09:12:22.561Z</time></trkpt><trkpt lat="43.8207267" lon="12.228395"><ele>370.5</ele><time>2026-03-22T09:12:23.56Z</time></trkpt><trkpt lat="43.82064" lon="12.2284817"><ele>369.75</ele><time>2026-03-22T09:12:24.561Z</time></trkpt><trkpt lat="43.82053" lon="12.2285317"><ele>369.0</ele><time>2026-03-22T09:12:25.56Z</time></trkpt><trkpt lat="43.82041" lon="12.2285583"><ele>369.0</ele><time>2026-03-22T09:12:26.561Z</time></trkpt><trkpt lat="43.8202917" lon="12.22859"><ele>369.0</ele><time>2026-03-22T09:12:27.561Z</time></trkpt><trkpt lat="43.8201767" lon="12.22866"><ele>369.0</ele><time>2026-03-22T09:12:28.56Z</time></trkpt><trkpt lat="43.820065" lon="12.228755"><ele>369.0</ele><time>2026-03-22T09:12:29.561Z</time></trkpt><trkpt lat="43.81995" lon="12.2288783"><ele>366.0</ele><time>2026-03-22T09:12:30.561Z</time></trkpt><trkpt lat="43.8198483" lon="12.2290017"><ele>363.0</ele><time>2026-03-22T09:12:31.561Z</time></trkpt><trkpt lat="43.81977" lon="12.229125"><ele>360.0</ele><time>2026-03-22T09:12:32.561Z</time></trkpt><trkpt lat="43.8197183" lon="12.2292567"><ele>357.0</ele><time>2026-03-22T09:12:33.561Z</time></trkpt><trkpt lat="43.8197067" lon="12.2294267"><ele>357.0</ele><time>2026-03-22T09:12:34.561Z</time></trkpt><trkpt lat="43.8197117" lon="12.229585"><ele>357.0</ele><time>2026-03-22T09:12:35.561Z</time></trkpt><trkpt lat="43.8197033" lon="12.2297033"><ele>357.0</ele><time>2026-03-22T09:12:36.561Z</time></trkpt><trkpt lat="43.819675" lon="12.229835"><ele>357.0</ele><time>2026-03-22T09:12:38.56Z</time></trkpt><trkpt lat="43.8196633" lon="12.22996"><ele>357.0</ele><time>2026-03-22T09:12:41.561Z</time></trkpt><trkpt lat="43.8196933" lon="12.23004"><ele>356.5</ele><time>2026-03-22T09:12:42.561Z</time></trkpt><trkpt lat="43.819745" lon="12.2301317"><ele>356.0</ele><time>2026-03-22T09:12:43.561Z</time></trkpt><trkpt lat="43.8198283" lon="12.2302467"><ele>355.5</ele><time>2026-03-22T09:12:44.56Z</time></trkpt><trkpt lat="43.8199333" lon="12.2303883"><ele>355.0</ele><time>2026-03-22T09:12:45.561Z</time></trkpt><trkpt lat="43.820045" lon="12.23056"><ele>356.0</ele><time>2026-03-22T09:12:46.561Z</time></trkpt><trkpt lat="43.82017" lon="12.2307533"><ele>357.0</ele><time>2026-03-22T09:12:47.56Z</time></trkpt><trkpt lat="43.820325" lon="12.23098"><ele>358.0</ele><time>2026-03-22T09:12:48.561Z</time></trkpt><trkpt lat="43.8204883" lon="12.231225"><ele>355.5</ele><time>2026-03-22T09:12:49.561Z</time></trkpt><trkpt lat="43.8206633" lon="12.2314817"><ele>353.0</ele><time>2026-03-22T09:12:50.561Z</time></trkpt><trkpt lat="43.8208133" lon="12.2317033"><ele>353.0</ele><time>2026-03-22T09:12:51.56Z</time></trkpt><trkpt lat="43.820955" lon="12.2318917"><ele>353.0</ele><time>2026-03-22T09:12:52.56Z</time></trkpt><trkpt lat="43.82108" lon="12.2320617"><ele>353.0</ele><time>2026-03-22T09:12:53.56Z</time></trkpt><trkpt lat="43.8211817" lon="12.2322283"><ele>354.25</ele><time>2026-03-22T09:12:54.56Z</time></trkpt><trkpt lat="43.8212567" lon="12.232395"><ele>355.5</ele><time>2026-03-22T09:12:55.56Z</time></trkpt><trkpt lat="43.8212933" lon="12.232575"><ele>356.75</ele><time>2026-03-22T09:12:56.561Z</time></trkpt><trkpt lat="43.8212967" lon="12.23276"><ele>358.0</ele><time>2026-03-22T09:12:57.56Z</time></trkpt><trkpt lat="43.8212667" lon="12.2329317"><ele>358.0</ele><time>2026-03-22T09:12:58.56Z</time></trkpt><trkpt lat="43.8212133" lon="12.23309"><ele>358.0</ele><time>2026-03-22T09:12:59.56Z</time></trkpt><trkpt lat="43.8211517" lon="12.2332567"><ele>358.0</ele><time>2026-03-22T09:13:00.561Z</time></trkpt><trkpt lat="43.8210717" lon="12.2334533"><ele>358.0</ele><time>2026-03-22T09:13:01.561Z</time></trkpt><trkpt lat="43.8209733" lon="12.2336917"><ele>353.0</ele><time>2026-03-22T09:13:02.56Z</time></trkpt><trkpt lat="43.820865" lon="12.2339633"><ele>348.0</ele><time>2026-03-22T09:13:03.561Z</time></trkpt><trkpt lat="43.8207433" lon="12.2342367"><ele>347.0</ele><time>2026-03-22T09:13:04.561Z</time></trkpt><trkpt lat="43.8206183" lon="12.2345067"><ele>346.0</ele><time>2026-03-22T09:13:05.561Z</time></trkpt><trkpt lat="43.8204983" lon="12.2347583"><ele>345.0</ele><time>2026-03-22T09:13:06.561Z</time></trkpt><trkpt lat="43.82039" lon="12.2349917"><ele>344.6666666666667</ele><time>2026-03-22T09:13:07.561Z</time></trkpt><trkpt lat="43.8202833" lon="12.2352283"><ele>344.33333333333337</ele><time>2026-03-22T09:13:08.561Z</time></trkpt><trkpt lat="43.8201817" lon="12.2354667"><ele>344.0</ele><time>2026-03-22T09:13:09.56Z</time></trkpt><trkpt lat="43.8200767" lon="12.2357017"><ele>345.0</ele><time>2026-03-22T09:13:10.56Z</time></trkpt><trkpt lat="43.8199717" lon="12.23593"><ele>346.0</ele><time>2026-03-22T09:13:11.561Z</time></trkpt><trkpt lat="43.81986" lon="12.236165"><ele>347.0</ele><time>2026-03-22T09:13:12.561Z</time></trkpt><trkpt lat="43.819745" lon="12.236405"><ele>347.6666666666667</ele><time>2026-03-22T09:13:13.56Z</time></trkpt><trkpt lat="43.81963" lon="12.236655"><ele>348.3333333333333</ele><time>2026-03-22T09:13:14.561Z</time></trkpt><trkpt lat="43.819525" lon="12.2369117"><ele>349.0</ele><time>2026-03-22T09:13:15.561Z</time></trkpt><trkpt lat="43.8194317" lon="12.237185"><ele>348.5</ele><time>2026-03-22T09:13:16.561Z</time></trkpt><trkpt lat="43.8193633" lon="12.2374783"><ele>348.0</ele><time>2026-03-22T09:13:17.56Z</time></trkpt><trkpt lat="43.8193183" lon="12.237815"><ele>349.0</ele><time>2026-03-22T09:13:18.561Z</time></trkpt><trkpt lat="43.8192783" lon="12.238175"><ele>350.0</ele><time>2026-03-22T09:13:19.56Z</time></trkpt><trkpt lat="43.81924" lon="12.2385517"><ele>350.0</ele><time>2026-03-22T09:13:20.561Z</time></trkpt><trkpt lat="43.8191967" lon="12.238915"><ele>350.0</ele><time>2026-03-22T09:13:21.561Z</time></trkpt><trkpt lat="43.8191583" lon="12.2392583"><ele>349.5</ele><time>2026-03-22T09:13:22.561Z</time></trkpt><trkpt lat="43.8191217" lon="12.2395883"><ele>349.0</ele><time>2026-03-22T09:13:23.561Z</time></trkpt><trkpt lat="43.8190867" lon="12.239905"><ele>349.0</ele><time>2026-03-22T09:13:24.561Z</time></trkpt><trkpt lat="43.8190583" lon="12.2402033"><ele>349.0</ele><time>2026-03-22T09:13:25.561Z</time></trkpt><trkpt lat="43.819035" lon="12.2404933"><ele>349.0</ele><time>2026-03-22T09:13:26.561Z</time></trkpt><trkpt lat="43.81901" lon="12.2407667"><ele>349.3333333333333</ele><time>2026-03-22T09:13:27.561Z</time></trkpt><trkpt lat="43.8189867" lon="12.24102"><ele>349.6666666666667</ele><time>2026-03-22T09:13:28.561Z</time></trkpt><trkpt lat="43.8189883" lon="12.2412583"><ele>350.0</ele><time>2026-03-22T09:13:29.561Z</time></trkpt><trkpt lat="43.819035" lon="12.241495"><ele>350.33333333333337</ele><time>2026-03-22T09:13:30.56Z</time></trkpt><trkpt lat="43.819115" lon="12.2417117"><ele>350.6666666666667</ele><time>2026-03-22T09:13:31.561Z</time></trkpt><trkpt lat="43.81921" lon="12.2419"><ele>351.0</ele><time>2026-03-22T09:13:32.56Z</time></trkpt><trkpt lat="43.8192983" lon="12.2420733"><ele>350.5</ele><time>2026-03-22T09:13:33.56Z</time></trkpt><trkpt lat="43.81937" lon="12.2422483"><ele>350.0</ele><time>2026-03-22T09:13:34.561Z</time></trkpt><trkpt lat="43.8194183" lon="12.24243"><ele>349.5</ele><time>2026-03-22T09:13:35.56Z</time></trkpt><trkpt lat="43.81943" lon="12.242635"><ele>349.0</ele><time>2026-03-22T09:13:36.561Z</time></trkpt><trkpt lat="43.8194117" lon="12.242865"><ele>350.66666666666663</ele><time>2026-03-22T09:13:37.56Z</time></trkpt><trkpt lat="43.81937" lon="12.24311"><ele>352.3333333333333</ele><time>2026-03-22T09:13:38.561Z</time></trkpt><trkpt lat="43.8193217" lon="12.2433733"><ele>354.0</ele><time>2026-03-22T09:13:39.56Z</time></trkpt><trkpt lat="43.8192633" lon="12.243645"><ele>354.3333333333333</ele><time>2026-03-22T09:13:40.561Z</time></trkpt><trkpt lat="43.8192067" lon="12.24391"><ele>354.66666666666663</ele><time>2026-03-22T09:13:41.56Z</time></trkpt><trkpt lat="43.8191583" lon="12.2441483"><ele>355.0</ele><time>2026-03-22T09:13:42.561Z</time></trkpt><trkpt lat="43.8191133" lon="12.2443683"><ele>356.25</ele><time>2026-03-22T09:13:43.561Z</time></trkpt><trkpt lat="43.81907" lon="12.24457"><ele>357.5</ele><time>2026-03-22T09:13:44.561Z</time></trkpt><trkpt lat="43.81903" lon="12.244765"><ele>358.75</ele><time>2026-03-22T09:13:45.561Z</time></trkpt><trkpt lat="43.8189917" lon="12.2449383"><ele>360.0</ele><time>2026-03-22T09:13:46.56Z</time></trkpt><trkpt lat="43.818955" lon="12.2450867"><ele>360.8</ele><time>2026-03-22T09:13:47.56Z</time></trkpt><trkpt lat="43.8189233" lon="12.2452083"><ele>361.6</ele><time>2026-03-22T09:13:48.561Z</time></trkpt><trkpt lat="43.81888" lon="12.2453"><ele>362.4</ele><time>2026-03-22T09:13:49.56Z</time></trkpt><trkpt lat="43.8188083" lon="12.245405"><ele>363.2</ele><time>2026-03-22T09:13:51.561Z</time></trkpt><trkpt lat="43.8187783" lon="12.24553"><ele>364.0</ele><time>2026-03-22T09:13:54.561Z</time></trkpt><trkpt lat="43.8188483" lon="12.245725"><ele>365.0</ele><time>2026-03-22T09:13:56.56Z</time></trkpt><trkpt lat="43.8189217" lon="12.2458667"><ele>366.0</ele><time>2026-03-22T09:13:57.562Z</time></trkpt><trkpt lat="43.8189983" lon="12.24602"><ele>367.0</ele><time>2026-03-22T09:13:58.561Z</time></trkpt><trkpt lat="43.8190833" lon="12.2461783"><ele>368.0</ele><time>2026-03-22T09:13:59.562Z</time></trkpt><trkpt lat="43.819165" lon="12.2463367"><ele>367.5</ele><time>2026-03-22T09:14:00.562Z</time></trkpt><trkpt lat="43.8192467" lon="12.2464917"><ele>367.0</ele><time>2026-03-22T09:14:01.562Z</time></trkpt><trkpt lat="43.81933" lon="12.24665"><ele>366.5</ele><time>2026-03-22T09:14:02.561Z</time></trkpt><trkpt lat="43.8194083" lon="12.2468133"><ele>366.0</ele><time>2026-03-22T09:14:03.562Z</time></trkpt><trkpt lat="43.8194833" lon="12.2469683"><ele>365.75</ele><time>2026-03-22T09:14:04.561Z</time></trkpt><trkpt lat="43.8195667" lon="12.2471233"><ele>365.5</ele><time>2026-03-22T09:14:05.562Z</time></trkpt><trkpt lat="43.8196467" lon="12.2472833"><ele>365.25</ele><time>2026-03-22T09:14:06.561Z</time></trkpt><trkpt lat="43.8197233" lon="12.247435"><ele>365.0</ele><time>2026-03-22T09:14:07.561Z</time></trkpt><trkpt lat="43.8197967" lon="12.2475783"><ele>365.0</ele><time>2026-03-22T09:14:08.561Z</time></trkpt><trkpt lat="43.8198683" lon="12.2477117"><ele>365.0</ele><time>2026-03-22T09:14:09.562Z</time></trkpt><trkpt lat="43.81993" lon="12.2478267"><ele>365.0</ele><time>2026-03-22T09:14:10.562Z</time></trkpt><trkpt lat="43.8199783" lon="12.2479267"><ele>365.0</ele><time>2026-03-22T09:14:11.562Z</time></trkpt><trkpt lat="43.8200167" lon="12.2479967"><ele>365.0</ele><time>2026-03-22T09:14:12.562Z</time></trkpt><trkpt lat="43.8200467" lon="12.248145"><ele>366.6</ele><time>2026-03-22T09:14:14.562Z</time></trkpt><trkpt lat="43.820025" lon="12.24823"><ele>368.2</ele><time>2026-03-22T09:14:15.562Z</time></trkpt><trkpt lat="43.8199717" lon="12.24832"><ele>369.79999999999995</ele><time>2026-03-22T09:14:16.562Z</time></trkpt><trkpt lat="43.8198883" lon="12.248425"><ele>371.4</ele><time>2026-03-22T09:14:17.562Z</time></trkpt><trkpt lat="43.819785" lon="12.2485667"><ele>373.0</ele><time>2026-03-22T09:14:18.561Z</time></trkpt><trkpt lat="43.8196833" lon="12.2487317"><ele>373.0</ele><time>2026-03-22T09:14:19.562Z</time></trkpt><trkpt lat="43.8195883" lon="12.248905"><ele>373.0</ele><time>2026-03-22T09:14:20.562Z</time></trkpt><trkpt lat="43.819505" lon="12.2491167"><ele>373.0</ele><time>2026-03-22T09:14:21.562Z</time></trkpt><trkpt lat="43.8194333" lon="12.249355"><ele>376.66666666666663</ele><time>2026-03-22T09:14:22.562Z</time></trkpt><trkpt lat="43.8193633" lon="12.2496067"><ele>380.3333333333333</ele><time>2026-03-22T09:14:23.562Z</time></trkpt><trkpt lat="43.81928" lon="12.2498617"><ele>384.0</ele><time>2026-03-22T09:14:24.562Z</time></trkpt><trkpt lat="43.8191883" lon="12.2501117"><ele>385.0</ele><time>2026-03-22T09:14:25.562Z</time></trkpt><trkpt lat="43.8190833" lon="12.2503583"><ele>386.0</ele><time>2026-03-22T09:14:26.561Z</time></trkpt><trkpt lat="43.818965" lon="12.2505933"><ele>387.0</ele><time>2026-03-22T09:14:27.562Z</time></trkpt><trkpt lat="43.818845" lon="12.2508133"><ele>389.33333333333337</ele><time>2026-03-22T09:14:28.562Z</time></trkpt><trkpt lat="43.8187317" lon="12.2510117"><ele>391.6666666666667</ele><time>2026-03-22T09:14:29.561Z</time></trkpt><trkpt lat="43.8186217" lon="12.2512233"><ele>394.0</ele><time>2026-03-22T09:14:30.561Z</time></trkpt><trkpt lat="43.8185117" lon="12.251435"><ele>394.33333333333337</ele><time>2026-03-22T09:14:31.562Z</time></trkpt><trkpt lat="43.8184033" lon="12.251635"><ele>394.66666666666663</ele><time>2026-03-22T09:14:32.561Z</time></trkpt><trkpt lat="43.8183067" lon="12.2518183"><ele>395.0</ele><time>2026-03-22T09:14:33.561Z</time></trkpt><trkpt lat="43.81822" lon="12.2519683"><ele>395.0</ele><time>2026-03-22T09:14:34.561Z</time></trkpt><trkpt lat="43.8181717" lon="12.2521017"><ele>395.0</ele><time>2026-03-22T09:14:35.562Z</time></trkpt><trkpt lat="43.8181567" lon="12.2522283"><ele>395.0</ele><time>2026-03-22T09:14:36.562Z</time></trkpt><trkpt lat="43.8181833" lon="12.2523533"><ele>395.0</ele><time>2026-03-22T09:14:37.562Z</time></trkpt><trkpt lat="43.8182517" lon="12.2524483"><ele>395.0</ele><time>2026-03-22T09:14:38.561Z</time></trkpt><trkpt lat="43.8183583" lon="12.2524983"><ele>397.25</ele><time>2026-03-22T09:14:39.561Z</time></trkpt><trkpt lat="43.818475" lon="12.25248"><ele>399.5</ele><time>2026-03-22T09:14:40.562Z</time></trkpt><trkpt lat="43.8186017" lon="12.2523917"><ele>401.75</ele><time>2026-03-22T09:14:41.561Z</time></trkpt><trkpt lat="43.8187267" lon="12.2522467"><ele>404.0</ele><time>2026-03-22T09:14:42.561Z</time></trkpt><trkpt lat="43.8188333" lon="12.2520967"><ele>404.0</ele><time>2026-03-22T09:14:43.562Z</time></trkpt><trkpt lat="43.8189467" lon="12.2520117"><ele>404.0</ele><time>2026-03-22T09:14:44.561Z</time></trkpt><trkpt lat="43.8190717" lon="12.251965"><ele>404.0</ele><time>2026-03-22T09:14:45.562Z</time></trkpt><trkpt lat="43.8192083" lon="12.2519733"><ele>404.0</ele><time>2026-03-22T09:14:46.562Z</time></trkpt><trkpt lat="43.819355" lon="12.2520017"><ele>406.3333333333333</ele><time>2026-03-22T09:14:47.561Z</time></trkpt><trkpt lat="43.8195133" lon="12.2520217"><ele>408.66666666666663</ele><time>2026-03-22T09:14:48.561Z</time></trkpt><trkpt lat="43.8196767" lon="12.2519833"><ele>411.0</ele><time>2026-03-22T09:14:49.562Z</time></trkpt><trkpt lat="43.8198367" lon="12.2518817"><ele>411.0</ele><time>2026-03-22T09:14:50.561Z</time></trkpt><trkpt lat="43.8199967" lon="12.251725"><ele>411.0</ele><time>2026-03-22T09:14:51.562Z</time></trkpt><trkpt lat="43.820145" lon="12.2515367"><ele>411.0</ele><time>2026-03-22T09:14:52.561Z</time></trkpt><trkpt lat="43.820275" lon="12.2513533"><ele>410.0</ele><time>2026-03-22T09:14:53.562Z</time></trkpt><trkpt lat="43.8203833" lon="12.251195"><ele>409.0</ele><time>2026-03-22T09:14:54.561Z</time></trkpt><trkpt lat="43.820475" lon="12.2510683"><ele>408.0</ele><time>2026-03-22T09:14:55.561Z</time></trkpt><trkpt lat="43.82055" lon="12.2509717"><ele>407.0</ele><time>2026-03-22T09:14:56.562Z</time></trkpt><trkpt lat="43.820625" lon="12.25092"><ele>407.0</ele><time>2026-03-22T09:14:57.561Z</time></trkpt><trkpt lat="43.8207" lon="12.25092"><ele>407.0</ele><time>2026-03-22T09:14:58.561Z</time></trkpt><trkpt lat="43.82077" lon="12.2509817"><ele>407.0</ele><time>2026-03-22T09:14:59.561Z</time></trkpt><trkpt lat="43.8208133" lon="12.2510867"><ele>407.0</ele><time>2026-03-22T09:15:00.561Z</time></trkpt><trkpt lat="43.8208083" lon="12.251225"><ele>407.0</ele><time>2026-03-22T09:15:01.562Z</time></trkpt><trkpt lat="43.8207633" lon="12.2513717"><ele>409.66666666666663</ele><time>2026-03-22T09:15:02.562Z</time></trkpt><trkpt lat="43.82069" lon="12.251555"><ele>412.33333333333337</ele><time>2026-03-22T09:15:03.561Z</time></trkpt><trkpt lat="43.820615" lon="12.2517733"><ele>415.0</ele><time>2026-03-22T09:15:04.562Z</time></trkpt><trkpt lat="43.8205367" lon="12.2520183"><ele>415.0</ele><time>2026-03-22T09:15:05.562Z</time></trkpt><trkpt lat="43.8204533" lon="12.2522733"><ele>415.0</ele><time>2026-03-22T09:15:06.561Z</time></trkpt><trkpt lat="43.8203683" lon="12.25253"><ele>415.0</ele><time>2026-03-22T09:15:07.562Z</time></trkpt><trkpt lat="43.8202833" lon="12.25278"><ele>418.6666666666667</ele><time>2026-03-22T09:15:08.562Z</time></trkpt><trkpt lat="43.8202133" lon="12.25302"><ele>422.33333333333337</ele><time>2026-03-22T09:15:09.562Z</time></trkpt><trkpt lat="43.8201367" lon="12.2532233"><ele>426.0</ele><time>2026-03-22T09:15:10.562Z</time></trkpt><trkpt lat="43.8200433" lon="12.2534"><ele>426.75</ele><time>2026-03-22T09:15:11.562Z</time></trkpt><trkpt lat="43.819925" lon="12.253525"><ele>427.5</ele><time>2026-03-22T09:15:12.562Z</time></trkpt><trkpt lat="43.8197983" lon="12.25362"><ele>428.25</ele><time>2026-03-22T09:15:13.562Z</time></trkpt><trkpt lat="43.81968" lon="12.2537217"><ele>429.0</ele><time>2026-03-22T09:15:14.562Z</time></trkpt><trkpt lat="43.8195783" lon="12.25383"><ele>431.25</ele><time>2026-03-22T09:15:15.561Z</time></trkpt><trkpt lat="43.8195" lon="12.25396"><ele>433.5</ele><time>2026-03-22T09:15:16.562Z</time></trkpt><trkpt lat="43.819455" lon="12.25413"><ele>435.75</ele><time>2026-03-22T09:15:17.561Z</time></trkpt><trkpt lat="43.819435" lon="12.2543417"><ele>438.0</ele><time>2026-03-22T09:15:18.561Z</time></trkpt><trkpt lat="43.819435" lon="12.25456"><ele>438.0</ele><time>2026-03-22T09:15:19.562Z</time></trkpt><trkpt lat="43.8194467" lon="12.2547633"><ele>438.0</ele><time>2026-03-22T09:15:20.562Z</time></trkpt><trkpt lat="43.819415" lon="12.2549683"><ele>438.0</ele><time>2026-03-22T09:15:21.562Z</time></trkpt><trkpt lat="43.819345" lon="12.255165"><ele>439.0</ele><time>2026-03-22T09:15:22.561Z</time></trkpt><trkpt lat="43.819245" lon="12.2553583"><ele>440.0</ele><time>2026-03-22T09:15:23.562Z</time></trkpt><trkpt lat="43.8191283" lon="12.2555267"><ele>441.0</ele><time>2026-03-22T09:15:24.562Z</time></trkpt><trkpt lat="43.819015" lon="12.2556683"><ele>445.0</ele><time>2026-03-22T09:15:25.562Z</time></trkpt><trkpt lat="43.8188783" lon="12.2557683"><ele>449.0</ele><time>2026-03-22T09:15:26.562Z</time></trkpt><trkpt lat="43.8187167" lon="12.2558467"><ele>453.0</ele><time>2026-03-22T09:15:27.561Z</time></trkpt><trkpt lat="43.8185317" lon="12.25591"><ele>453.0</ele><time>2026-03-22T09:15:28.562Z</time></trkpt><trkpt lat="43.8183583" lon="12.25598"><ele>453.0</ele><time>2026-03-22T09:15:29.562Z</time></trkpt><trkpt lat="43.8181933" lon="12.2560283"><ele>453.0</ele><time>2026-03-22T09:15:30.562Z</time></trkpt><trkpt lat="43.818035" lon="12.2560367"><ele>453.0</ele><time>2026-03-22T09:15:31.561Z</time></trkpt><trkpt lat="43.8179" lon="12.2560283"><ele>453.0</ele><time>2026-03-22T09:15:32.562Z</time></trkpt><trkpt lat="43.8177733" lon="12.2560167"><ele>453.0</ele><time>2026-03-22T09:15:33.562Z</time></trkpt><trkpt lat="43.8176583" lon="12.2560317"><ele>453.0</ele><time>2026-03-22T09:15:34.561Z</time></trkpt><trkpt lat="43.8175483" lon="12.2561"><ele>453.33333333333337</ele><time>2026-03-22T09:15:35.562Z</time></trkpt><trkpt lat="43.8174467" lon="12.2562417"><ele>453.6666666666667</ele><time>2026-03-22T09:15:36.561Z</time></trkpt><trkpt lat="43.81736" lon="12.25643"><ele>454.0</ele><time>2026-03-22T09:15:37.562Z</time></trkpt><trkpt lat="43.8172783" lon="12.25666"><ele>457.6666666666667</ele><time>2026-03-22T09:15:38.562Z</time></trkpt><trkpt lat="43.8172133" lon="12.25691"><ele>461.33333333333337</ele><time>2026-03-22T09:15:39.562Z</time></trkpt><trkpt lat="43.8171667" lon="12.25714"><ele>465.0</ele><time>2026-03-22T09:15:40.561Z</time></trkpt><trkpt lat="43.81711" lon="12.25737"><ele>468.33333333333337</ele><time>2026-03-22T09:15:41.561Z</time></trkpt><trkpt lat="43.81703" lon="12.257595"><ele>471.6666666666667</ele><time>2026-03-22T09:15:42.562Z</time></trkpt><trkpt lat="43.81695" lon="12.257795"><ele>475.0</ele><time>2026-03-22T09:15:43.562Z</time></trkpt><trkpt lat="43.816865" lon="12.257965"><ele>475.0</ele><time>2026-03-22T09:15:44.562Z</time></trkpt><trkpt lat="43.81676" lon="12.2581233"><ele>475.0</ele><time>2026-03-22T09:15:45.562Z</time></trkpt><trkpt lat="43.81663" lon="12.2582583"><ele>475.0</ele><time>2026-03-22T09:15:46.561Z</time></trkpt><trkpt lat="43.8164967" lon="12.2583767"><ele>475.0</ele><time>2026-03-22T09:15:47.562Z</time></trkpt><trkpt lat="43.8163683" lon="12.2584567"><ele>475.0</ele><time>2026-03-22T09:15:48.562Z</time></trkpt><trkpt lat="43.8162317" lon="12.2585017"><ele>475.0</ele><time>2026-03-22T09:15:49.561Z</time></trkpt><trkpt lat="43.8160917" lon="12.258505"><ele>475.0</ele><time>2026-03-22T09:15:50.562Z</time></trkpt><trkpt lat="43.81593" lon="12.2584767"><ele>475.6666666666667</ele><time>2026-03-22T09:15:51.562Z</time></trkpt><trkpt lat="43.8157467" lon="12.258415"><ele>476.33333333333337</ele><time>2026-03-22T09:15:52.562Z</time></trkpt><trkpt lat="43.815555" lon="12.258355"><ele>477.0</ele><time>2026-03-22T09:15:53.561Z</time></trkpt><trkpt lat="43.8153617" lon="12.2583133"><ele>477.0</ele><time>2026-03-22T09:15:54.562Z</time></trkpt><trkpt lat="43.8151733" lon="12.258295"><ele>477.0</ele><time>2026-03-22T09:15:55.562Z</time></trkpt><trkpt lat="43.8150117" lon="12.2583017"><ele>477.0</ele><time>2026-03-22T09:15:56.562Z</time></trkpt><trkpt lat="43.8148783" lon="12.2583067"><ele>477.6</ele><time>2026-03-22T09:15:57.562Z</time></trkpt><trkpt lat="43.81477" lon="12.258335"><ele>478.20000000000005</ele><time>2026-03-22T09:15:58.562Z</time></trkpt><trkpt lat="43.8146933" lon="12.258405"><ele>478.8</ele><time>2026-03-22T09:15:59.561Z</time></trkpt><trkpt lat="43.814655" lon="12.258515"><ele>479.4</ele><time>2026-03-22T09:16:00.562Z</time></trkpt><trkpt lat="43.8146683" lon="12.258625"><ele>480.0</ele><time>2026-03-22T09:16:01.562Z</time></trkpt><trkpt lat="43.8147433" lon="12.2587333"><ele>480.0</ele><time>2026-03-22T09:16:02.562Z</time></trkpt><trkpt lat="43.8148633" lon="12.258815"><ele>480.0</ele><time>2026-03-22T09:16:03.561Z</time></trkpt><trkpt lat="43.81498" lon="12.2588983"><ele>480.0</ele><time>2026-03-22T09:16:04.561Z</time></trkpt><trkpt lat="43.8150917" lon="12.2589967"><ele>480.0</ele><time>2026-03-22T09:16:05.562Z</time></trkpt><trkpt lat="43.8151767" lon="12.25913"><ele>482.25</ele><time>2026-03-22T09:16:06.562Z</time></trkpt><trkpt lat="43.8152267" lon="12.2592983"><ele>484.5</ele><time>2026-03-22T09:16:07.562Z</time></trkpt><trkpt lat="43.8152283" lon="12.25947"><ele>486.75</ele><time>2026-03-22T09:16:08.561Z</time></trkpt><trkpt lat="43.8151833" lon="12.259645"><ele>489.0</ele><time>2026-03-22T09:16:09.561Z</time></trkpt><trkpt lat="43.8150983" lon="12.2598267"><ele>492.66666666666663</ele><time>2026-03-22T09:16:10.561Z</time></trkpt><trkpt lat="43.814975" lon="12.2599917"><ele>496.3333333333333</ele><time>2026-03-22T09:16:11.562Z</time></trkpt><trkpt lat="43.814835" lon="12.2601467"><ele>500.0</ele><time>2026-03-22T09:16:12.562Z</time></trkpt><trkpt lat="43.8146967" lon="12.260315"><ele>500.0</ele><time>2026-03-22T09:16:13.562Z</time></trkpt><trkpt lat="43.814575" lon="12.260505"><ele>500.0</ele><time>2026-03-22T09:16:14.562Z</time></trkpt><trkpt lat="43.8144583" lon="12.2607267"><ele>500.0</ele><time>2026-03-22T09:16:15.562Z</time></trkpt><trkpt lat="43.814355" lon="12.2609483"><ele>501.25</ele><time>2026-03-22T09:16:16.562Z</time></trkpt><trkpt lat="43.81426" lon="12.2611433"><ele>502.5</ele><time>2026-03-22T09:16:17.562Z</time></trkpt><trkpt lat="43.8141767" lon="12.2613083"><ele>503.75</ele><time>2026-03-22T09:16:18.561Z</time></trkpt><trkpt lat="43.8141083" lon="12.26145"><ele>505.0</ele><time>2026-03-22T09:16:19.562Z</time></trkpt><trkpt lat="43.8140633" lon="12.26157"><ele>506.2</ele><time>2026-03-22T09:16:20.561Z</time></trkpt><trkpt lat="43.8140533" lon="12.2616933"><ele>507.4</ele><time>2026-03-22T09:16:21.562Z</time></trkpt><trkpt lat="43.8140833" lon="12.2618067"><ele>508.6</ele><time>2026-03-22T09:16:22.562Z</time></trkpt><trkpt lat="43.8141317" lon="12.26189"><ele>509.8</ele><time>2026-03-22T09:16:23.562Z</time></trkpt><trkpt lat="43.81423" lon="12.2619517"><ele>511.0</ele><time>2026-03-22T09:16:24.562Z</time></trkpt><trkpt lat="43.8143633" lon="12.2619583"><ele>516.0</ele><time>2026-03-22T09:16:25.562Z</time></trkpt><trkpt lat="43.81453" lon="12.2618983"><ele>521.0</ele><time>2026-03-22T09:16:26.562Z</time></trkpt><trkpt lat="43.8147017" lon="12.2618067"><ele>526.0</ele><time>2026-03-22T09:16:27.562Z</time></trkpt><trkpt lat="43.81485" lon="12.2617333"><ele>526.0</ele><time>2026-03-22T09:16:28.562Z</time></trkpt><trkpt lat="43.814985" lon="12.26165"><ele>526.0</ele><time>2026-03-22T09:16:29.561Z</time></trkpt><trkpt lat="43.8151133" lon="12.261555"><ele>526.0</ele><time>2026-03-22T09:16:30.562Z</time></trkpt><trkpt lat="43.8152267" lon="12.26146"><ele>526.0</ele><time>2026-03-22T09:16:31.562Z</time></trkpt><trkpt lat="43.81532" lon="12.2613767"><ele>524.6666666666667</ele><time>2026-03-22T09:16:32.562Z</time></trkpt><trkpt lat="43.8153933" lon="12.261315"><ele>523.3333333333334</ele><time>2026-03-22T09:16:33.561Z</time></trkpt><trkpt lat="43.8154483" lon="12.26126"><ele>522.0</ele><time>2026-03-22T09:16:34.561Z</time></trkpt><trkpt lat="43.81554" lon="12.2612"><ele>520.6666666666666</ele><time>2026-03-22T09:16:36.562Z</time></trkpt><trkpt lat="43.8155933" lon="12.26126"><ele>519.3333333333333</ele><time>2026-03-22T09:16:38.562Z</time></trkpt><trkpt lat="43.8155417" lon="12.2613867"><ele>518.0</ele><time>2026-03-22T09:16:41.562Z</time></trkpt><trkpt lat="43.8154667" lon="12.2614567"><ele>520.0</ele><time>2026-03-22T09:16:42.562Z</time></trkpt><trkpt lat="43.8153767" lon="12.2615467"><ele>522.0</ele><time>2026-03-22T09:16:43.562Z</time></trkpt><trkpt lat="43.815275" lon="12.2616717"><ele>524.0</ele><time>2026-03-22T09:16:44.561Z</time></trkpt><trkpt lat="43.815165" lon="12.2618083"><ele>526.0</ele><time>2026-03-22T09:16:45.561Z</time></trkpt><trkpt lat="43.815065" lon="12.2619517"><ele>526.0</ele><time>2026-03-22T09:16:46.561Z</time></trkpt><trkpt lat="43.8149817" lon="12.2620733"><ele>526.0</ele><time>2026-03-22T09:16:47.562Z</time></trkpt><trkpt lat="43.814905" lon="12.2621883"><ele>526.0</ele><time>2026-03-22T09:16:48.562Z</time></trkpt><trkpt lat="43.8148433" lon="12.2622883"><ele>526.0</ele><time>2026-03-22T09:16:49.562Z</time></trkpt><trkpt lat="43.8148117" lon="12.2624083"><ele>526.0</ele><time>2026-03-22T09:16:50.561Z</time></trkpt><trkpt lat="43.8147917" lon="12.2625433"><ele>530.0</ele><time>2026-03-22T09:16:51.562Z</time></trkpt><trkpt lat="43.8147817" lon="12.2627167"><ele>534.0</ele><time>2026-03-22T09:16:52.562Z</time></trkpt><trkpt lat="43.81478" lon="12.2629167"><ele>538.0</ele><time>2026-03-22T09:16:53.562Z</time></trkpt><trkpt lat="43.8147833" lon="12.2631483"><ele>542.0</ele><time>2026-03-22T09:16:54.561Z</time></trkpt><trkpt lat="43.8147917" lon="12.2633933"><ele>542.6666666666666</ele><time>2026-03-22T09:16:55.562Z</time></trkpt><trkpt lat="43.8147883" lon="12.2636233"><ele>543.3333333333334</ele><time>2026-03-22T09:16:56.562Z</time></trkpt><trkpt lat="43.8147867" lon="12.2638517"><ele>544.0</ele><time>2026-03-22T09:16:57.561Z</time></trkpt><trkpt lat="43.8147817" lon="12.2640717"><ele>541.75</ele><time>2026-03-22T09:16:58.561Z</time></trkpt><trkpt lat="43.8147717" lon="12.2642833"><ele>539.5</ele><time>2026-03-22T09:16:59.562Z</time></trkpt><trkpt lat="43.8147683" lon="12.2644817"><ele>537.25</ele><time>2026-03-22T09:17:00.562Z</time></trkpt><trkpt lat="43.8147683" lon="12.264665"><ele>535.0</ele><time>2026-03-22T09:17:01.562Z</time></trkpt><trkpt lat="43.814785" lon="12.2648383"><ele>532.75</ele><time>2026-03-22T09:17:02.562Z</time></trkpt><trkpt lat="43.8148217" lon="12.2650167"><ele>530.5</ele><time>2026-03-22T09:17:03.562Z</time></trkpt><trkpt lat="43.8148783" lon="12.2651883"><ele>528.25</ele><time>2026-03-22T09:17:04.562Z</time></trkpt><trkpt lat="43.8149167" lon="12.2653667"><ele>526.0</ele><time>2026-03-22T09:17:05.562Z</time></trkpt><trkpt lat="43.8149233" lon="12.265545"><ele>526.0</ele><time>2026-03-22T09:17:06.562Z</time></trkpt><trkpt lat="43.8149" lon="12.2657367"><ele>526.0</ele><time>2026-03-22T09:17:07.562Z</time></trkpt><trkpt lat="43.8148533" lon="12.265945"><ele>526.0</ele><time>2026-03-22T09:17:08.562Z</time></trkpt><trkpt lat="43.8147967" lon="12.26617"><ele>526.0</ele><time>2026-03-22T09:17:09.562Z</time></trkpt><trkpt lat="43.81474" lon="12.26639"><ele>526.0</ele><time>2026-03-22T09:17:10.561Z</time></trkpt><trkpt lat="43.8146767" lon="12.2666083"><ele>526.0</ele><time>2026-03-22T09:17:11.562Z</time></trkpt><trkpt lat="43.81461" lon="12.2668217"><ele>527.6666666666667</ele><time>2026-03-22T09:17:12.562Z</time></trkpt><trkpt lat="43.81454" lon="12.267035"><ele>529.3333333333334</ele><time>2026-03-22T09:17:13.561Z</time></trkpt><trkpt lat="43.8144567" lon="12.2672517"><ele>531.0</ele><time>2026-03-22T09:17:14.562Z</time></trkpt><trkpt lat="43.8143667" lon="12.26746"><ele>525.6666666666666</ele><time>2026-03-22T09:17:15.562Z</time></trkpt><trkpt lat="43.8142733" lon="12.267645"><ele>520.3333333333333</ele><time>2026-03-22T09:17:16.562Z</time></trkpt><trkpt lat="43.81418" lon="12.267825"><ele>515.0</ele><time>2026-03-22T09:17:17.562Z</time></trkpt><trkpt lat="43.8140833" lon="12.268015"><ele>515.3333333333333</ele><time>2026-03-22T09:17:18.562Z</time></trkpt><trkpt lat="43.813975" lon="12.2682117"><ele>515.6666666666666</ele><time>2026-03-22T09:17:19.562Z</time></trkpt><trkpt lat="43.8138767" lon="12.268405"><ele>516.0</ele><time>2026-03-22T09:17:20.562Z</time></trkpt><trkpt lat="43.81378" lon="12.2685917"><ele>516.0</ele><time>2026-03-22T09:17:21.562Z</time></trkpt><trkpt lat="43.81368" lon="12.268755"><ele>516.0</ele><time>2026-03-22T09:17:22.563Z</time></trkpt><trkpt lat="43.8135833" lon="12.2689"><ele>516.0</ele><time>2026-03-22T09:17:23.563Z</time></trkpt><trkpt lat="43.8134683" lon="12.2690183"><ele>516.0</ele><time>2026-03-22T09:17:24.563Z</time></trkpt><trkpt lat="43.8133333" lon="12.2691033"><ele>513.3333333333334</ele><time>2026-03-22T09:17:25.563Z</time></trkpt><trkpt lat="43.8131683" lon="12.2691583"><ele>510.6666666666667</ele><time>2026-03-22T09:17:26.563Z</time></trkpt><trkpt lat="43.8129917" lon="12.2691967"><ele>508.0</ele><time>2026-03-22T09:17:27.563Z</time></trkpt><trkpt lat="43.812805" lon="12.2692233"><ele>505.33333333333337</ele><time>2026-03-22T09:17:28.562Z</time></trkpt><trkpt lat="43.8126117" lon="12.2692117"><ele>502.66666666666663</ele><time>2026-03-22T09:17:29.562Z</time></trkpt><trkpt lat="43.8124167" lon="12.26918"><ele>500.0</ele><time>2026-03-22T09:17:30.563Z</time></trkpt><trkpt lat="43.812225" lon="12.2691433"><ele>500.0</ele><time>2026-03-22T09:17:31.563Z</time></trkpt><trkpt lat="43.81203" lon="12.2691117"><ele>500.0</ele><time>2026-03-22T09:17:32.562Z</time></trkpt><trkpt lat="43.81182" lon="12.2690917"><ele>500.0</ele><time>2026-03-22T09:17:33.563Z</time></trkpt><trkpt lat="43.8116067" lon="12.2690767"><ele>498.66666666666663</ele><time>2026-03-22T09:17:34.563Z</time></trkpt><trkpt lat="43.8114017" lon="12.2690733"><ele>497.33333333333337</ele><time>2026-03-22T09:17:35.563Z</time></trkpt><trkpt lat="43.811205" lon="12.2690767"><ele>496.0</ele><time>2026-03-22T09:17:36.563Z</time></trkpt><trkpt lat="43.8109967" lon="12.2690933"><ele>494.6666666666667</ele><time>2026-03-22T09:17:37.563Z</time></trkpt><trkpt lat="43.8107833" lon="12.2691117"><ele>493.33333333333337</ele><time>2026-03-22T09:17:38.562Z</time></trkpt><trkpt lat="43.810565" lon="12.26913"><ele>492.0</ele><time>2026-03-22T09:17:39.562Z</time></trkpt><trkpt lat="43.81034" lon="12.2691433"><ele>491.0</ele><time>2026-03-22T09:17:40.562Z</time></trkpt><trkpt lat="43.8101167" lon="12.269165"><ele>490.0</ele><time>2026-03-22T09:17:41.563Z</time></trkpt><trkpt lat="43.8099033" lon="12.269185"><ele>489.0</ele><time>2026-03-22T09:17:42.563Z</time></trkpt><trkpt lat="43.809705" lon="12.2692083"><ele>489.0</ele><time>2026-03-22T09:17:43.563Z</time></trkpt><trkpt lat="43.809515" lon="12.269225"><ele>489.0</ele><time>2026-03-22T09:17:44.563Z</time></trkpt><trkpt lat="43.8093333" lon="12.269245"><ele>489.0</ele><time>2026-03-22T09:17:45.563Z</time></trkpt><trkpt lat="43.8091717" lon="12.2692683"><ele>488.33333333333337</ele><time>2026-03-22T09:17:46.562Z</time></trkpt><trkpt lat="43.8090117" lon="12.2693133"><ele>487.6666666666667</ele><time>2026-03-22T09:17:47.563Z</time></trkpt><trkpt lat="43.808855" lon="12.2693933"><ele>487.0</ele><time>2026-03-22T09:17:48.563Z</time></trkpt><trkpt lat="43.8086883" lon="12.269505"><ele>487.0</ele><time>2026-03-22T09:17:49.563Z</time></trkpt><trkpt lat="43.80851" lon="12.2696467"><ele>487.0</ele><time>2026-03-22T09:17:50.563Z</time></trkpt><trkpt lat="43.8083317" lon="12.2698117"><ele>487.0</ele><time>2026-03-22T09:17:51.563Z</time></trkpt><trkpt lat="43.808165" lon="12.2699783"><ele>488.33333333333337</ele><time>2026-03-22T09:17:52.562Z</time></trkpt><trkpt lat="43.808015" lon="12.27014"><ele>489.66666666666663</ele><time>2026-03-22T09:17:53.562Z</time></trkpt><trkpt lat="43.8078683" lon="12.2702883"><ele>491.0</ele><time>2026-03-22T09:17:54.562Z</time></trkpt><trkpt lat="43.8077267" lon="12.270425"><ele>492.66666666666663</ele><time>2026-03-22T09:17:55.563Z</time></trkpt><trkpt lat="43.80759" lon="12.270565"><ele>494.33333333333337</ele><time>2026-03-22T09:17:56.563Z</time></trkpt><trkpt lat="43.80746" lon="12.2706933"><ele>496.0</ele><time>2026-03-22T09:17:57.563Z</time></trkpt><trkpt lat="43.80734" lon="12.2708133"><ele>496.25</ele><time>2026-03-22T09:17:58.563Z</time></trkpt><trkpt lat="43.807225" lon="12.2709217"><ele>496.5</ele><time>2026-03-22T09:17:59.563Z</time></trkpt><trkpt lat="43.8071033" lon="12.2709983"><ele>496.75</ele><time>2026-03-22T09:18:00.563Z</time></trkpt><trkpt lat="43.8069783" lon="12.27103"><ele>497.0</ele><time>2026-03-22T09:18:01.563Z</time></trkpt><trkpt lat="43.8068467" lon="12.270995"><ele>498.5</ele><time>2026-03-22T09:18:02.563Z</time></trkpt><trkpt lat="43.8067267" lon="12.2709017"><ele>500.0</ele><time>2026-03-22T09:18:03.563Z</time></trkpt><trkpt lat="43.8066233" lon="12.2707583"><ele>501.5</ele><time>2026-03-22T09:18:04.563Z</time></trkpt><trkpt lat="43.8065217" lon="12.2705883"><ele>503.0</ele><time>2026-03-22T09:18:05.563Z</time></trkpt><trkpt lat="43.8063883" lon="12.27043"><ele>503.3333333333333</ele><time>2026-03-22T09:18:06.563Z</time></trkpt><trkpt lat="43.8062133" lon="12.2702833"><ele>503.66666666666663</ele><time>2026-03-22T09:18:07.562Z</time></trkpt><trkpt lat="43.80602" lon="12.2701283"><ele>504.0</ele><time>2026-03-22T09:18:08.563Z</time></trkpt><trkpt lat="43.805835" lon="12.2699917"><ele>506.66666666666663</ele><time>2026-03-22T09:18:09.562Z</time></trkpt><trkpt lat="43.8056783" lon="12.269875"><ele>509.3333333333333</ele><time>2026-03-22T09:18:10.563Z</time></trkpt><trkpt lat="43.8055383" lon="12.2697867"><ele>512.0</ele><time>2026-03-22T09:18:11.563Z</time></trkpt><trkpt lat="43.80541" lon="12.269745"><ele>512.0</ele><time>2026-03-22T09:18:12.562Z</time></trkpt><trkpt lat="43.8052733" lon="12.26975"><ele>512.0</ele><time>2026-03-22T09:18:13.562Z</time></trkpt><trkpt lat="43.8051233" lon="12.269805"><ele>512.0</ele><time>2026-03-22T09:18:14.563Z</time></trkpt><trkpt lat="43.8049833" lon="12.2698733"><ele>512.0</ele><time>2026-03-22T09:18:15.562Z</time></trkpt><trkpt lat="43.80486" lon="12.2699267"><ele>513.4</ele><time>2026-03-22T09:18:16.563Z</time></trkpt><trkpt lat="43.804745" lon="12.269955"><ele>514.8000000000001</ele><time>2026-03-22T09:18:17.562Z</time></trkpt><trkpt lat="43.80464" lon="12.2699317"><ele>516.2</ele><time>2026-03-22T09:18:18.562Z</time></trkpt><trkpt lat="43.8045533" lon="12.2698467"><ele>517.6</ele><time>2026-03-22T09:18:19.563Z</time></trkpt><trkpt lat="43.804505" lon="12.26972"><ele>519.0</ele><time>2026-03-22T09:18:20.562Z</time></trkpt><trkpt lat="43.8044967" lon="12.2695667"><ele>519.0</ele><time>2026-03-22T09:18:21.562Z</time></trkpt><trkpt lat="43.8045183" lon="12.269395"><ele>519.0</ele><time>2026-03-22T09:18:22.563Z</time></trkpt><trkpt lat="43.8045233" lon="12.269205"><ele>519.0</ele><time>2026-03-22T09:18:23.563Z</time></trkpt><trkpt lat="43.8045067" lon="12.269005"><ele>519.0</ele><time>2026-03-22T09:18:24.562Z</time></trkpt><trkpt lat="43.8044633" lon="12.2688067"><ele>519.25</ele><time>2026-03-22T09:18:25.563Z</time></trkpt><trkpt lat="43.804415" lon="12.268645"><ele>519.5</ele><time>2026-03-22T09:18:26.563Z</time></trkpt><trkpt lat="43.8043533" lon="12.2685083"><ele>519.75</ele><time>2026-03-22T09:18:27.563Z</time></trkpt><trkpt lat="43.8042617" lon="12.26839"><ele>520.0</ele><time>2026-03-22T09:18:28.563Z</time></trkpt><trkpt lat="43.8041383" lon="12.2682817"><ele>521.0</ele><time>2026-03-22T09:18:29.563Z</time></trkpt><trkpt lat="43.8039917" lon="12.268165"><ele>522.0</ele><time>2026-03-22T09:18:30.563Z</time></trkpt><trkpt lat="43.8038517" lon="12.2680533"><ele>523.0</ele><time>2026-03-22T09:18:31.563Z</time></trkpt><trkpt lat="43.8037283" lon="12.2679467"><ele>523.0</ele><time>2026-03-22T09:18:32.563Z</time></trkpt><trkpt lat="43.80361" lon="12.2678433"><ele>523.0</ele><time>2026-03-22T09:18:33.562Z</time></trkpt><trkpt lat="43.8035067" lon="12.2677267"><ele>523.0</ele><time>2026-03-22T09:18:34.563Z</time></trkpt><trkpt lat="43.8034217" lon="12.2675967"><ele>523.0</ele><time>2026-03-22T09:18:35.562Z</time></trkpt><trkpt lat="43.803365" lon="12.2674417"><ele>525.25</ele><time>2026-03-22T09:18:36.563Z</time></trkpt><trkpt lat="43.8033367" lon="12.26726"><ele>527.5</ele><time>2026-03-22T09:18:37.562Z</time></trkpt><trkpt lat="43.8033167" lon="12.2670583"><ele>529.75</ele><time>2026-03-22T09:18:38.563Z</time></trkpt><trkpt lat="43.8033017" lon="12.26686"><ele>532.0</ele><time>2026-03-22T09:18:39.563Z</time></trkpt><trkpt lat="43.8032933" lon="12.26667"><ele>532.0</ele><time>2026-03-22T09:18:40.563Z</time></trkpt><trkpt lat="43.803285" lon="12.2664983"><ele>532.0</ele><time>2026-03-22T09:18:41.563Z</time></trkpt><trkpt lat="43.8032617" lon="12.266335"><ele>532.0</ele><time>2026-03-22T09:18:42.562Z</time></trkpt><trkpt lat="43.8032233" lon="12.26616"><ele>532.0</ele><time>2026-03-22T09:18:43.563Z</time></trkpt><trkpt lat="43.803165" lon="12.2659817"><ele>530.75</ele><time>2026-03-22T09:18:44.563Z</time></trkpt><trkpt lat="43.8031033" lon="12.2658233"><ele>529.5</ele><time>2026-03-22T09:18:45.563Z</time></trkpt><trkpt lat="43.8030417" lon="12.2656817"><ele>528.25</ele><time>2026-03-22T09:18:46.563Z</time></trkpt><trkpt lat="43.8029817" lon="12.2655683"><ele>527.0</ele><time>2026-03-22T09:18:47.562Z</time></trkpt><trkpt lat="43.8029017" lon="12.2654783"><ele>526.75</ele><time>2026-03-22T09:18:48.563Z</time></trkpt><trkpt lat="43.802795" lon="12.2654233"><ele>526.5</ele><time>2026-03-22T09:18:49.563Z</time></trkpt><trkpt lat="43.80268" lon="12.2654133"><ele>526.25</ele><time>2026-03-22T09:18:50.563Z</time></trkpt><trkpt lat="43.8025433" lon="12.2654533"><ele>526.0</ele><time>2026-03-22T09:18:51.563Z</time></trkpt><trkpt lat="43.8023917" lon="12.2655267"><ele>528.3333333333334</ele><time>2026-03-22T09:18:52.563Z</time></trkpt><trkpt lat="43.8022433" lon="12.2656183"><ele>530.6666666666666</ele><time>2026-03-22T09:18:53.563Z</time></trkpt><trkpt lat="43.802105" lon="12.2657083"><ele>533.0</ele><time>2026-03-22T09:18:54.563Z</time></trkpt><trkpt lat="43.8019733" lon="12.2657867"><ele>533.0</ele><time>2026-03-22T09:18:55.563Z</time></trkpt><trkpt lat="43.8018333" lon="12.26583"><ele>533.0</ele><time>2026-03-22T09:18:56.563Z</time></trkpt><trkpt lat="43.80169" lon="12.26581"><ele>533.0</ele><time>2026-03-22T09:18:57.562Z</time></trkpt><trkpt lat="43.80155" lon="12.2657267"><ele>533.0</ele><time>2026-03-22T09:18:58.563Z</time></trkpt><trkpt lat="43.801405" lon="12.2656"><ele>533.3333333333333</ele><time>2026-03-22T09:18:59.563Z</time></trkpt><trkpt lat="43.801255" lon="12.2654467"><ele>533.6666666666666</ele><time>2026-03-22T09:19:00.563Z</time></trkpt><trkpt lat="43.8011117" lon="12.265305"><ele>534.0</ele><time>2026-03-22T09:19:01.563Z</time></trkpt><trkpt lat="43.8009967" lon="12.2651783"><ele>536.5</ele><time>2026-03-22T09:19:02.563Z</time></trkpt><trkpt lat="43.8009083" lon="12.2650433"><ele>539.0</ele><time>2026-03-22T09:19:03.563Z</time></trkpt><trkpt lat="43.80086" lon="12.2648833"><ele>541.5</ele><time>2026-03-22T09:19:04.562Z</time></trkpt><trkpt lat="43.8008483" lon="12.2647133"><ele>544.0</ele><time>2026-03-22T09:19:05.562Z</time></trkpt><trkpt lat="43.8008567" lon="12.264535"><ele>544.25</ele><time>2026-03-22T09:19:06.563Z</time></trkpt><trkpt lat="43.80086" lon="12.264375"><ele>544.5</ele><time>2026-03-22T09:19:07.562Z</time></trkpt><trkpt lat="43.8008183" lon="12.264195"><ele>544.75</ele><time>2026-03-22T09:19:08.562Z</time></trkpt><trkpt lat="43.8007367" lon="12.2640167"><ele>545.0</ele><time>2026-03-22T09:19:09.563Z</time></trkpt><trkpt lat="43.8006367" lon="12.2638233"><ele>545.0</ele><time>2026-03-22T09:19:10.563Z</time></trkpt><trkpt lat="43.8005417" lon="12.2636417"><ele>545.0</ele><time>2026-03-22T09:19:11.563Z</time></trkpt><trkpt lat="43.8004567" lon="12.263455"><ele>545.0</ele><time>2026-03-22T09:19:12.562Z</time></trkpt><trkpt lat="43.80039" lon="12.263255"><ele>544.0</ele><time>2026-03-22T09:19:13.562Z</time></trkpt><trkpt lat="43.8003433" lon="12.263045"><ele>543.0</ele><time>2026-03-22T09:19:14.563Z</time></trkpt><trkpt lat="43.80031" lon="12.262825"><ele>542.0</ele><time>2026-03-22T09:19:15.563Z</time></trkpt><trkpt lat="43.800275" lon="12.2626133"><ele>542.0</ele><time>2026-03-22T09:19:16.563Z</time></trkpt><trkpt lat="43.8002333" lon="12.2624017"><ele>542.0</ele><time>2026-03-22T09:19:17.562Z</time></trkpt><trkpt lat="43.8001783" lon="12.262185"><ele>542.0</ele><time>2026-03-22T09:19:18.562Z</time></trkpt><trkpt lat="43.800105" lon="12.2619667"><ele>546.3333333333333</ele><time>2026-03-22T09:19:19.563Z</time></trkpt><trkpt lat="43.80002" lon="12.2617317"><ele>550.6666666666666</ele><time>2026-03-22T09:19:20.563Z</time></trkpt><trkpt lat="43.7999283" lon="12.2615"><ele>555.0</ele><time>2026-03-22T09:19:21.563Z</time></trkpt><trkpt lat="43.7998467" lon="12.2612817"><ele>555.0</ele><time>2026-03-22T09:19:22.563Z</time></trkpt><trkpt lat="43.79978" lon="12.26109"><ele>555.0</ele><time>2026-03-22T09:19:23.562Z</time></trkpt><trkpt lat="43.79972" lon="12.2609233"><ele>555.0</ele><time>2026-03-22T09:19:24.562Z</time></trkpt><trkpt lat="43.79969" lon="12.260755"><ele>555.0</ele><time>2026-03-22T09:19:25.562Z</time></trkpt><trkpt lat="43.7996983" lon="12.260575"><ele>557.3333333333334</ele><time>2026-03-22T09:19:26.563Z</time></trkpt><trkpt lat="43.7997517" lon="12.2603883"><ele>559.6666666666667</ele><time>2026-03-22T09:19:27.563Z</time></trkpt><trkpt lat="43.79983" lon="12.2601733"><ele>562.0</ele><time>2026-03-22T09:19:28.563Z</time></trkpt><trkpt lat="43.7999183" lon="12.25992"><ele>564.6666666666667</ele><time>2026-03-22T09:19:29.562Z</time></trkpt><trkpt lat="43.8000083" lon="12.25965"><ele>567.3333333333334</ele><time>2026-03-22T09:19:30.562Z</time></trkpt><trkpt lat="43.8001017" lon="12.259365"><ele>570.0</ele><time>2026-03-22T09:19:31.563Z</time></trkpt><trkpt lat="43.8001933" lon="12.2590967"><ele>569.0</ele><time>2026-03-22T09:19:32.562Z</time></trkpt><trkpt lat="43.800275" lon="12.25885"><ele>568.0</ele><time>2026-03-22T09:19:33.563Z</time></trkpt><trkpt lat="43.80035" lon="12.25862"><ele>567.0</ele><time>2026-03-22T09:19:34.563Z</time></trkpt><trkpt lat="43.8004317" lon="12.2584183"><ele>567.0</ele><time>2026-03-22T09:19:35.563Z</time></trkpt><trkpt lat="43.80052" lon="12.258245"><ele>567.0</ele><time>2026-03-22T09:19:36.563Z</time></trkpt><trkpt lat="43.8006083" lon="12.2581"><ele>567.0</ele><time>2026-03-22T09:19:37.562Z</time></trkpt><trkpt lat="43.80069" lon="12.2579833"><ele>567.0</ele><time>2026-03-22T09:19:38.562Z</time></trkpt><trkpt lat="43.80075" lon="12.2578567"><ele>568.5</ele><time>2026-03-22T09:19:39.563Z</time></trkpt><trkpt lat="43.8007917" lon="12.2577083"><ele>570.0</ele><time>2026-03-22T09:19:40.562Z</time></trkpt><trkpt lat="43.8007917" lon="12.2575167"><ele>571.5</ele><time>2026-03-22T09:19:41.562Z</time></trkpt><trkpt lat="43.800765" lon="12.2572817"><ele>573.0</ele><time>2026-03-22T09:19:42.563Z</time></trkpt><trkpt lat="43.8007383" lon="12.2570467"><ele>573.0</ele><time>2026-03-22T09:19:43.563Z</time></trkpt><trkpt lat="43.8007117" lon="12.256845"><ele>573.0</ele><time>2026-03-22T09:19:44.563Z</time></trkpt><trkpt lat="43.8006783" lon="12.2566717"><ele>573.0</ele><time>2026-03-22T09:19:45.563Z</time></trkpt><trkpt lat="43.80062" lon="12.2565217"><ele>573.0</ele><time>2026-03-22T09:19:46.563Z</time></trkpt><trkpt lat="43.8005267" lon="12.2563933"><ele>574.6666666666666</ele><time>2026-03-22T09:19:47.562Z</time></trkpt><trkpt lat="43.8004033" lon="12.256305"><ele>576.3333333333333</ele><time>2026-03-22T09:19:48.562Z</time></trkpt><trkpt lat="43.800245" lon="12.25626"><ele>578.0</ele><time>2026-03-22T09:19:49.563Z</time></trkpt><trkpt lat="43.8000667" lon="12.25622"><ele>578.0</ele><time>2026-03-22T09:19:50.563Z</time></trkpt><trkpt lat="43.7998783" lon="12.2561767"><ele>578.0</ele><time>2026-03-22T09:19:51.563Z</time></trkpt><trkpt lat="43.7996867" lon="12.256095"><ele>578.0</ele><time>2026-03-22T09:19:52.562Z</time></trkpt><trkpt lat="43.7994933" lon="12.2559833"><ele>581.0</ele><time>2026-03-22T09:19:53.563Z</time></trkpt><trkpt lat="43.7993133" lon="12.25586"><ele>584.0</ele><time>2026-03-22T09:19:54.563Z</time></trkpt><trkpt lat="43.799155" lon="12.2557383"><ele>587.0</ele><time>2026-03-22T09:19:55.563Z</time></trkpt><trkpt lat="43.7990067" lon="12.25563"><ele>585.25</ele><time>2026-03-22T09:19:56.563Z</time></trkpt><trkpt lat="43.798875" lon="12.25553"><ele>583.5</ele><time>2026-03-22T09:19:57.563Z</time></trkpt><trkpt lat="43.7987483" lon="12.25544"><ele>581.75</ele><time>2026-03-22T09:19:58.563Z</time></trkpt><trkpt lat="43.7986317" lon="12.2553417"><ele>580.0</ele><time>2026-03-22T09:19:59.563Z</time></trkpt><trkpt lat="43.7985283" lon="12.2552333"><ele>583.25</ele><time>2026-03-22T09:20:00.563Z</time></trkpt><trkpt lat="43.7984383" lon="12.255095"><ele>586.5</ele><time>2026-03-22T09:20:01.562Z</time></trkpt><trkpt lat="43.7983667" lon="12.25493"><ele>589.75</ele><time>2026-03-22T09:20:02.563Z</time></trkpt><trkpt lat="43.7983233" lon="12.2547433"><ele>593.0</ele><time>2026-03-22T09:20:03.563Z</time></trkpt><trkpt lat="43.7982867" lon="12.2545733"><ele>593.0</ele><time>2026-03-22T09:20:04.563Z</time></trkpt><trkpt lat="43.7982267" lon="12.254425"><ele>593.0</ele><time>2026-03-22T09:20:05.563Z</time></trkpt><trkpt lat="43.798135" lon="12.2543"><ele>593.0</ele><time>2026-03-22T09:20:06.562Z</time></trkpt><trkpt lat="43.79802" lon="12.2542167"><ele>593.0</ele><time>2026-03-22T09:20:07.563Z</time></trkpt><trkpt lat="43.797875" lon="12.2541733"><ele>593.0</ele><time>2026-03-22T09:20:08.563Z</time></trkpt><trkpt lat="43.797705" lon="12.2541517"><ele>593.0</ele><time>2026-03-22T09:20:09.562Z</time></trkpt><trkpt lat="43.7975067" lon="12.2541333"><ele>593.0</ele><time>2026-03-22T09:20:10.563Z</time></trkpt><trkpt lat="43.7973133" lon="12.2541317"><ele>596.3333333333333</ele><time>2026-03-22T09:20:11.562Z</time></trkpt><trkpt lat="43.7971317" lon="12.2541217"><ele>599.6666666666666</ele><time>2026-03-22T09:20:12.563Z</time></trkpt><trkpt lat="43.7969483" lon="12.2541133"><ele>603.0</ele><time>2026-03-22T09:20:13.562Z</time></trkpt><trkpt lat="43.7967633" lon="12.2540767"><ele>606.0</ele><time>2026-03-22T09:20:14.563Z</time></trkpt><trkpt lat="43.796585" lon="12.2540467"><ele>609.0</ele><time>2026-03-22T09:20:15.563Z</time></trkpt><trkpt lat="43.7964233" lon="12.2540183"><ele>612.0</ele><time>2026-03-22T09:20:16.562Z</time></trkpt><trkpt lat="43.796295" lon="12.2539833"><ele>613.0</ele><time>2026-03-22T09:20:17.562Z</time></trkpt><trkpt lat="43.79619" lon="12.253935"><ele>614.0</ele><time>2026-03-22T09:20:18.563Z</time></trkpt><trkpt lat="43.7960933" lon="12.253865"><ele>615.0</ele><time>2026-03-22T09:20:19.562Z</time></trkpt><trkpt lat="43.79603" lon="12.253755"><ele>616.0</ele><time>2026-03-22T09:20:20.562Z</time></trkpt><trkpt lat="43.7959933" lon="12.2535883"><ele>617.0</ele><time>2026-03-22T09:20:21.563Z</time></trkpt><trkpt lat="43.7959717" lon="12.25338"><ele>617.0</ele><time>2026-03-22T09:20:22.563Z</time></trkpt><trkpt lat="43.7959367" lon="12.2531533"><ele>617.0</ele><time>2026-03-22T09:20:23.563Z</time></trkpt><trkpt lat="43.7959133" lon="12.2529417"><ele>617.0</ele><time>2026-03-22T09:20:24.562Z</time></trkpt><trkpt lat="43.7959" lon="12.2527483"><ele>617.8000000000001</ele><time>2026-03-22T09:20:25.563Z</time></trkpt><trkpt lat="43.7959033" lon="12.2525817"><ele>618.6</ele><time>2026-03-22T09:20:26.563Z</time></trkpt><trkpt lat="43.795905" lon="12.25244"><ele>619.4000000000001</ele><time>2026-03-22T09:20:27.562Z</time></trkpt><trkpt lat="43.795905" lon="12.2523233"><ele>620.2</ele><time>2026-03-22T09:20:28.563Z</time></trkpt><trkpt lat="43.7959033" lon="12.2522317"><ele>621.0</ele><time>2026-03-22T09:20:29.562Z</time></trkpt><trkpt lat="43.7958917" lon="12.252125"><ele>621.75</ele><time>2026-03-22T09:20:31.563Z</time></trkpt><trkpt lat="43.7958633" lon="12.2519733"><ele>622.5</ele><time>2026-03-22T09:23:43.569Z</time></trkpt><trkpt lat="43.7958417" lon="12.2518217"><ele>623.25</ele><time>2026-03-22T09:23:44.57Z</time></trkpt><trkpt lat="43.7958217" lon="12.251665"><ele>624.0</ele><time>2026-03-22T09:23:45.57Z</time></trkpt><trkpt lat="43.7957983" lon="12.2514983"><ele>624.3333333333334</ele><time>2026-03-22T09:23:46.569Z</time></trkpt><trkpt lat="43.7957817" lon="12.2513133"><ele>624.6666666666667</ele><time>2026-03-22T09:23:47.57Z</time></trkpt><trkpt lat="43.7957717" lon="12.2510917"><ele>625.0</ele><time>2026-03-22T09:23:48.57Z</time></trkpt><trkpt lat="43.7957717" lon="12.2508517"><ele>628.3333333333334</ele><time>2026-03-22T09:23:49.57Z</time></trkpt><trkpt lat="43.79578" lon="12.250595"><ele>631.6666666666666</ele><time>2026-03-22T09:23:50.57Z</time></trkpt><trkpt lat="43.7957983" lon="12.25034"><ele>635.0</ele><time>2026-03-22T09:23:51.57Z</time></trkpt><trkpt lat="43.79581" lon="12.2500983"><ele>635.0</ele><time>2026-03-22T09:23:52.57Z</time></trkpt><trkpt lat="43.795815" lon="12.2498733"><ele>635.0</ele><time>2026-03-22T09:23:53.569Z</time></trkpt><trkpt lat="43.795825" lon="12.2496767"><ele>635.0</ele><time>2026-03-22T09:23:54.57Z</time></trkpt><trkpt lat="43.7958333" lon="12.24949"><ele>635.0</ele><time>2026-03-22T09:23:55.569Z</time></trkpt><trkpt lat="43.79585" lon="12.2492967"><ele>636.5</ele><time>2026-03-22T09:23:56.569Z</time></trkpt><trkpt lat="43.7958767" lon="12.2490883"><ele>638.0</ele><time>2026-03-22T09:23:57.57Z</time></trkpt><trkpt lat="43.7959083" lon="12.2488817"><ele>639.5</ele><time>2026-03-22T09:23:58.57Z</time></trkpt><trkpt lat="43.7959367" lon="12.2486917"><ele>641.0</ele><time>2026-03-22T09:23:59.57Z</time></trkpt><trkpt lat="43.79596" lon="12.248525"><ele>639.25</ele><time>2026-03-22T09:24:00.57Z</time></trkpt><trkpt lat="43.7959867" lon="12.2483733"><ele>637.5</ele><time>2026-03-22T09:24:01.57Z</time></trkpt><trkpt lat="43.7960233" lon="12.2482367"><ele>635.75</ele><time>2026-03-22T09:24:02.57Z</time></trkpt><trkpt lat="43.7960933" lon="12.2481167"><ele>634.0</ele><time>2026-03-22T09:24:03.569Z</time></trkpt><trkpt lat="43.7962" lon="12.2480033"><ele>644.0</ele><time>2026-03-22T09:24:04.57Z</time></trkpt><trkpt lat="43.7963467" lon="12.2479017"><ele>654.0</ele><time>2026-03-22T09:24:05.57Z</time></trkpt><trkpt lat="43.79651" lon="12.2477983"><ele>664.0</ele><time>2026-03-22T09:24:06.57Z</time></trkpt><trkpt lat="43.7966833" lon="12.2476767"><ele>658.6666666666667</ele><time>2026-03-22T09:24:07.57Z</time></trkpt><trkpt lat="43.7968567" lon="12.247585"><ele>653.3333333333334</ele><time>2026-03-22T09:24:08.569Z</time></trkpt><trkpt lat="43.7970067" lon="12.2475117"><ele>648.0</ele><time>2026-03-22T09:24:09.57Z</time></trkpt><trkpt lat="43.7971333" lon="12.2474567"><ele>648.0</ele><time>2026-03-22T09:24:10.57Z</time></trkpt><trkpt lat="43.797245" lon="12.2473867"><ele>648.0</ele><time>2026-03-22T09:24:11.57Z</time></trkpt><trkpt lat="43.797335" lon="12.2473083"><ele>648.0</ele><time>2026-03-22T09:24:12.57Z</time></trkpt><trkpt lat="43.7973933" lon="12.24719"><ele>648.0</ele><time>2026-03-22T09:24:13.57Z</time></trkpt><trkpt lat="43.79743" lon="12.247045"><ele>648.0</ele><time>2026-03-22T09:24:14.57Z</time></trkpt><trkpt lat="43.7974333" lon="12.2468833"><ele>647.75</ele><time>2026-03-22T09:24:15.57Z</time></trkpt><trkpt lat="43.7974083" lon="12.24672"><ele>647.5</ele><time>2026-03-22T09:24:16.57Z</time></trkpt><trkpt lat="43.797335" lon="12.246555"><ele>647.25</ele><time>2026-03-22T09:24:17.569Z</time></trkpt><trkpt lat="43.797235" lon="12.2464067"><ele>647.0</ele><time>2026-03-22T09:24:18.57Z</time></trkpt><trkpt lat="43.7971267" lon="12.246305"><ele>647.0</ele><time>2026-03-22T09:24:19.57Z</time></trkpt><trkpt lat="43.7970317" lon="12.2462333"><ele>647.0</ele><time>2026-03-22T09:24:20.569Z</time></trkpt><trkpt lat="43.79696" lon="12.2461667"><ele>647.0</ele><time>2026-03-22T09:24:21.57Z</time></trkpt><trkpt lat="43.7968983" lon="12.2460767"><ele>647.0</ele><time>2026-03-22T09:24:22.569Z</time></trkpt><trkpt lat="43.7968667" lon="12.2459533"><ele>647.0</ele><time>2026-03-22T09:24:23.569Z</time></trkpt><trkpt lat="43.7968667" lon="12.245785"><ele>645.75</ele><time>2026-03-22T09:24:24.57Z</time></trkpt><trkpt lat="43.7969017" lon="12.2455817"><ele>644.5</ele><time>2026-03-22T09:24:25.57Z</time></trkpt><trkpt lat="43.7969317" lon="12.2454117"><ele>643.25</ele><time>2026-03-22T09:24:26.57Z</time></trkpt><trkpt lat="43.7969383" lon="12.245255"><ele>642.0</ele><time>2026-03-22T09:24:27.569Z</time></trkpt><trkpt lat="43.7969317" lon="12.2451017"><ele>642.0</ele><time>2026-03-22T09:24:28.57Z</time></trkpt><trkpt lat="43.7968983" lon="12.2449767"><ele>642.0</ele><time>2026-03-22T09:24:29.57Z</time></trkpt><trkpt lat="43.7968183" lon="12.2448633"><ele>642.0</ele><time>2026-03-22T09:24:30.57Z</time></trkpt><trkpt lat="43.7967" lon="12.2447733"><ele>642.0</ele><time>2026-03-22T09:24:31.57Z</time></trkpt><trkpt lat="43.7965567" lon="12.2447267"><ele>645.3333333333334</ele><time>2026-03-22T09:24:32.57Z</time></trkpt><trkpt lat="43.79641" lon="12.2447017"><ele>648.6666666666667</ele><time>2026-03-22T09:24:33.57Z</time></trkpt><trkpt lat="43.7962517" lon="12.2446317"><ele>652.0</ele><time>2026-03-22T09:24:34.569Z</time></trkpt><trkpt lat="43.7961033" lon="12.244525"><ele>659.6666666666667</ele><time>2026-03-22T09:24:35.569Z</time></trkpt><trkpt lat="43.7959433" lon="12.2444233"><ele>667.3333333333334</ele><time>2026-03-22T09:24:36.57Z</time></trkpt><trkpt lat="43.7957667" lon="12.2443417"><ele>675.0</ele><time>2026-03-22T09:24:37.57Z</time></trkpt><trkpt lat="43.7955733" lon="12.2442683"><ele>675.0</ele><time>2026-03-22T09:24:38.57Z</time></trkpt><trkpt lat="43.79537" lon="12.244195"><ele>675.0</ele><time>2026-03-22T09:24:39.569Z</time></trkpt><trkpt lat="43.79518" lon="12.244125"><ele>675.0</ele><time>2026-03-22T09:24:40.569Z</time></trkpt><trkpt lat="43.7950133" lon="12.2440633"><ele>675.5</ele><time>2026-03-22T09:24:41.57Z</time></trkpt><trkpt lat="43.794865" lon="12.2439967"><ele>676.0</ele><time>2026-03-22T09:24:42.57Z</time></trkpt><trkpt lat="43.794735" lon="12.243925"><ele>676.5</ele><time>2026-03-22T09:24:43.569Z</time></trkpt><trkpt lat="43.7946233" lon="12.2438483"><ele>677.0</ele><time>2026-03-22T09:24:44.571Z</time></trkpt><trkpt lat="43.7944733" lon="12.2437433"><ele>677.0</ele><time>2026-03-22T09:24:45.57Z</time></trkpt><trkpt lat="43.7943767" lon="12.243625"><ele>677.0</ele><time>2026-03-22T09:24:46.571Z</time></trkpt><trkpt lat="43.7943267" lon="12.2434867"><ele>677.0</ele><time>2026-03-22T09:24:47.571Z</time></trkpt><trkpt lat="43.7943083" lon="12.2433067"><ele>677.0</ele><time>2026-03-22T09:24:48.571Z</time></trkpt><trkpt lat="43.7943067" lon="12.2431183"><ele>683.75</ele><time>2026-03-22T09:24:49.571Z</time></trkpt><trkpt lat="43.7942983" lon="12.24294"><ele>690.5</ele><time>2026-03-22T09:24:50.57Z</time></trkpt><trkpt lat="43.7942767" lon="12.2427367"><ele>697.25</ele><time>2026-03-22T09:24:51.57Z</time></trkpt><trkpt lat="43.7942183" lon="12.2425517"><ele>704.0</ele><time>2026-03-22T09:24:52.571Z</time></trkpt><trkpt lat="43.7941183" lon="12.2423883"><ele>703.0</ele><time>2026-03-22T09:24:53.57Z</time></trkpt><trkpt lat="43.7939783" lon="12.24224"><ele>702.0</ele><time>2026-03-22T09:24:54.571Z</time></trkpt><trkpt lat="43.7938233" lon="12.2421017"><ele>701.0</ele><time>2026-03-22T09:24:55.571Z</time></trkpt><trkpt lat="43.7936783" lon="12.2419567"><ele>701.0</ele><time>2026-03-22T09:24:56.571Z</time></trkpt><trkpt lat="43.7935633" lon="12.2418083"><ele>701.0</ele><time>2026-03-22T09:24:57.571Z</time></trkpt><trkpt lat="43.79348" lon="12.2416283"><ele>701.0</ele><time>2026-03-22T09:24:58.57Z</time></trkpt><trkpt lat="43.7934317" lon="12.2414167"><ele>706.5</ele><time>2026-03-22T09:24:59.57Z</time></trkpt><trkpt lat="43.7934067" lon="12.2412017"><ele>712.0</ele><time>2026-03-22T09:25:00.571Z</time></trkpt><trkpt lat="43.7933933" lon="12.2410083"><ele>717.5</ele><time>2026-03-22T09:25:01.571Z</time></trkpt><trkpt lat="43.7934083" lon="12.2408267"><ele>723.0</ele><time>2026-03-22T09:25:02.57Z</time></trkpt><trkpt lat="43.7934583" lon="12.240665"><ele>722.8333333333334</ele><time>2026-03-22T09:25:03.571Z</time></trkpt><trkpt lat="43.7935033" lon="12.2405233"><ele>722.6666666666666</ele><time>2026-03-22T09:25:04.571Z</time></trkpt><trkpt lat="43.79353" lon="12.2403967"><ele>722.5</ele><time>2026-03-22T09:25:05.57Z</time></trkpt><trkpt lat="43.7935317" lon="12.2402583"><ele>722.3333333333333</ele><time>2026-03-22T09:25:06.57Z</time></trkpt><trkpt lat="43.7935083" lon="12.2401617"><ele>722.1666666666666</ele><time>2026-03-22T09:25:07.571Z</time></trkpt><trkpt lat="43.7934567" lon="12.2401117"><ele>722.0</ele><time>2026-03-22T09:25:08.571Z</time></trkpt><trkpt lat="43.793305" lon="12.2401567"><ele>727.75</ele><time>2026-03-22T09:25:10.571Z</time></trkpt><trkpt lat="43.7931717" lon="12.2402567"><ele>733.5</ele><time>2026-03-22T09:25:11.571Z</time></trkpt><trkpt lat="43.7930383" lon="12.2403717"><ele>739.25</ele><time>2026-03-22T09:25:12.571Z</time></trkpt><trkpt lat="43.7929167" lon="12.2404617"><ele>745.0</ele><time>2026-03-22T09:25:13.571Z</time></trkpt><trkpt lat="43.792805" lon="12.2405783"><ele>745.6666666666667</ele><time>2026-03-22T09:25:14.57Z</time></trkpt><trkpt lat="43.7927117" lon="12.2407617"><ele>746.3333333333334</ele><time>2026-03-22T09:25:15.571Z</time></trkpt><trkpt lat="43.792665" lon="12.2409817"><ele>747.0</ele><time>2026-03-22T09:25:16.571Z</time></trkpt><trkpt lat="43.79267" lon="12.24125"><ele>737.3333333333334</ele><time>2026-03-22T09:25:17.571Z</time></trkpt><trkpt lat="43.79269" lon="12.2415233"><ele>727.6666666666667</ele><time>2026-03-22T09:25:18.57Z</time></trkpt><trkpt lat="43.7927217" lon="12.2417817"><ele>718.0</ele><time>2026-03-22T09:25:19.571Z</time></trkpt><trkpt lat="43.7927533" lon="12.242"><ele>718.0</ele><time>2026-03-22T09:25:20.57Z</time></trkpt><trkpt lat="43.792825" lon="12.2421733"><ele>718.0</ele><time>2026-03-22T09:25:21.571Z</time></trkpt><trkpt lat="43.79292" lon="12.2423167"><ele>718.0</ele><time>2026-03-22T09:25:22.571Z</time></trkpt><trkpt lat="43.7930483" lon="12.2423983"><ele>718.0</ele><time>2026-03-22T09:25:23.571Z</time></trkpt><trkpt lat="43.79317" lon="12.2424683"><ele>720.2</ele><time>2026-03-22T09:25:24.571Z</time></trkpt><trkpt lat="43.7932833" lon="12.2425667"><ele>722.4</ele><time>2026-03-22T09:25:25.571Z</time></trkpt><trkpt lat="43.79334" lon="12.2426967"><ele>724.6</ele><time>2026-03-22T09:25:26.571Z</time></trkpt><trkpt lat="43.793335" lon="12.242815"><ele>726.8000000000001</ele><time>2026-03-22T09:25:27.57Z</time></trkpt><trkpt lat="43.7932883" lon="12.2429283"><ele>729.0</ele><time>2026-03-22T09:25:28.571Z</time></trkpt><trkpt lat="43.7932267" lon="12.2430417"><ele>730.25</ele><time>2026-03-22T09:25:29.57Z</time></trkpt><trkpt lat="43.793175" lon="12.2431583"><ele>731.5</ele><time>2026-03-22T09:25:30.57Z</time></trkpt><trkpt lat="43.7931433" lon="12.2433017"><ele>732.75</ele><time>2026-03-22T09:25:31.571Z</time></trkpt><trkpt lat="43.7931433" lon="12.24348"><ele>734.0</ele><time>2026-03-22T09:25:32.571Z</time></trkpt><trkpt lat="43.7931717" lon="12.24366"><ele>734.0</ele><time>2026-03-22T09:25:33.571Z</time></trkpt><trkpt lat="43.79322" lon="12.2438083"><ele>734.0</ele><time>2026-03-22T09:25:34.571Z</time></trkpt><trkpt lat="43.7932783" lon="12.2439317"><ele>734.0</ele><time>2026-03-22T09:25:35.571Z</time></trkpt><trkpt lat="43.79332" lon="12.2440467"><ele>734.0</ele><time>2026-03-22T09:25:36.571Z</time></trkpt><trkpt lat="43.7933317" lon="12.2441683"><ele>734.0</ele><time>2026-03-22T09:25:37.57Z</time></trkpt><trkpt lat="43.7933" lon="12.2443117"><ele>736.0</ele><time>2026-03-22T09:25:38.571Z</time></trkpt><trkpt lat="43.7932333" lon="12.2444617"><ele>738.0</ele><time>2026-03-22T09:25:39.57Z</time></trkpt><trkpt lat="43.793135" lon="12.2446217"><ele>740.0</ele><time>2026-03-22T09:25:40.57Z</time></trkpt><trkpt lat="43.7930183" lon="12.2448033"><ele>740.6666666666666</ele><time>2026-03-22T09:25:41.571Z</time></trkpt><trkpt lat="43.792895" lon="12.2450133"><ele>741.3333333333334</ele><time>2026-03-22T09:25:42.571Z</time></trkpt><trkpt lat="43.7927767" lon="12.2452183"><ele>742.0</ele><time>2026-03-22T09:25:43.57Z</time></trkpt><trkpt lat="43.7926683" lon="12.2453967"><ele>744.8</ele><time>2026-03-22T09:25:44.57Z</time></trkpt><trkpt lat="43.792575" lon="12.2455533"><ele>747.6</ele><time>2026-03-22T09:25:45.571Z</time></trkpt><trkpt lat="43.7925033" lon="12.2456717"><ele>750.4</ele><time>2026-03-22T09:25:46.571Z</time></trkpt><trkpt lat="43.7924317" lon="12.24576"><ele>753.1999999999999</ele><time>2026-03-22T09:25:47.571Z</time></trkpt><trkpt lat="43.7923467" lon="12.2458167"><ele>756.0</ele><time>2026-03-22T09:25:48.57Z</time></trkpt><trkpt lat="43.7922567" lon="12.24582"><ele>756.0</ele><time>2026-03-22T09:25:49.571Z</time></trkpt><trkpt lat="43.7921783" lon="12.2457633"><ele>756.0</ele><time>2026-03-22T09:25:50.571Z</time></trkpt><trkpt lat="43.79212" lon="12.2456517"><ele>756.0</ele><time>2026-03-22T09:25:51.571Z</time></trkpt><trkpt lat="43.7920867" lon="12.2455117"><ele>756.0</ele><time>2026-03-22T09:25:52.571Z</time></trkpt><trkpt lat="43.7920933" lon="12.2453517"><ele>756.0</ele><time>2026-03-22T09:25:53.571Z</time></trkpt><trkpt lat="43.7921467" lon="12.2451733"><ele>757.75</ele><time>2026-03-22T09:25:54.57Z</time></trkpt><trkpt lat="43.7922367" lon="12.245"><ele>759.5</ele><time>2026-03-22T09:25:55.571Z</time></trkpt><trkpt lat="43.7923417" lon="12.2448533"><ele>761.25</ele><time>2026-03-22T09:25:56.57Z</time></trkpt><trkpt lat="43.79243" lon="12.244725"><ele>763.0</ele><time>2026-03-22T09:25:57.571Z</time></trkpt><trkpt lat="43.7925033" lon="12.244615"><ele>763.6666666666667</ele><time>2026-03-22T09:25:58.571Z</time></trkpt><trkpt lat="43.79254" lon="12.2445"><ele>764.3333333333334</ele><time>2026-03-22T09:25:59.57Z</time></trkpt><trkpt lat="43.7925433" lon="12.2443733"><ele>765.0</ele><time>2026-03-22T09:26:00.571Z</time></trkpt><trkpt lat="43.7925233" lon="12.24427"><ele>765.6666666666666</ele><time>2026-03-22T09:26:01.571Z</time></trkpt><trkpt lat="43.7924617" lon="12.2441917"><ele>766.3333333333333</ele><time>2026-03-22T09:26:02.57Z</time></trkpt><trkpt lat="43.7923767" lon="12.244155"><ele>767.0</ele><time>2026-03-22T09:26:03.571Z</time></trkpt><trkpt lat="43.7922817" lon="12.244175"><ele>767.0</ele><time>2026-03-22T09:26:04.571Z</time></trkpt><trkpt lat="43.7921817" lon="12.2442867"><ele>767.0</ele><time>2026-03-22T09:26:05.571Z</time></trkpt><trkpt lat="43.79208" lon="12.2444433"><ele>767.0</ele><time>2026-03-22T09:26:06.571Z</time></trkpt><trkpt lat="43.7919817" lon="12.24463"><ele>767.0</ele><time>2026-03-22T09:26:07.57Z</time></trkpt><trkpt lat="43.7918783" lon="12.2448483"><ele>771.0</ele><time>2026-03-22T09:26:08.57Z</time></trkpt><trkpt lat="43.7917683" lon="12.2450933"><ele>775.0</ele><time>2026-03-22T09:26:09.571Z</time></trkpt><trkpt lat="43.7916633" lon="12.24534"><ele>779.0</ele><time>2026-03-22T09:26:10.571Z</time></trkpt><trkpt lat="43.7915633" lon="12.2455517"><ele>777.0</ele><time>2026-03-22T09:26:11.57Z</time></trkpt><trkpt lat="43.7914783" lon="12.2457467"><ele>775.0</ele><time>2026-03-22T09:26:12.57Z</time></trkpt><trkpt lat="43.791395" lon="12.2459217"><ele>773.0</ele><time>2026-03-22T09:26:13.57Z</time></trkpt><trkpt lat="43.7912967" lon="12.24608"><ele>773.0</ele><time>2026-03-22T09:26:14.571Z</time></trkpt><trkpt lat="43.791175" lon="12.24623"><ele>773.0</ele><time>2026-03-22T09:26:15.571Z</time></trkpt><trkpt lat="43.7910117" lon="12.246385"><ele>773.0</ele><time>2026-03-22T09:26:16.571Z</time></trkpt><trkpt lat="43.7908367" lon="12.246565"><ele>777.5</ele><time>2026-03-22T09:26:17.57Z</time></trkpt><trkpt lat="43.7906517" lon="12.2467683"><ele>782.0</ele><time>2026-03-22T09:26:18.571Z</time></trkpt><trkpt lat="43.7904717" lon="12.2469767"><ele>782.0</ele><time>2026-03-22T09:26:19.571Z</time></trkpt><trkpt lat="43.7903133" lon="12.2471733"><ele>782.0</ele><time>2026-03-22T09:26:20.571Z</time></trkpt><trkpt lat="43.7901733" lon="12.2473367"><ele>782.0</ele><time>2026-03-22T09:26:21.57Z</time></trkpt><trkpt lat="43.7900567" lon="12.2474733"><ele>784.5</ele><time>2026-03-22T09:26:22.57Z</time></trkpt><trkpt lat="43.7899583" lon="12.2475967"><ele>787.0</ele><time>2026-03-22T09:26:23.571Z</time></trkpt><trkpt lat="43.7898383" lon="12.247685"><ele>789.5</ele><time>2026-03-22T09:26:24.57Z</time></trkpt><trkpt lat="43.7897083" lon="12.2477367"><ele>792.0</ele><time>2026-03-22T09:26:25.57Z</time></trkpt><trkpt lat="43.7895633" lon="12.24774"><ele>792.0</ele><time>2026-03-22T09:26:26.571Z</time></trkpt><trkpt lat="43.789405" lon="12.2477133"><ele>792.0</ele><time>2026-03-22T09:26:27.571Z</time></trkpt><trkpt lat="43.789225" lon="12.247645"><ele>792.0</ele><time>2026-03-22T09:26:28.571Z</time></trkpt><trkpt lat="43.7890417" lon="12.2475767"><ele>795.0</ele><time>2026-03-22T09:26:29.571Z</time></trkpt><trkpt lat="43.7888517" lon="12.2474883"><ele>798.0</ele><time>2026-03-22T09:26:30.571Z</time></trkpt><trkpt lat="43.7886683" lon="12.2473767"><ele>801.0</ele><time>2026-03-22T09:26:31.57Z</time></trkpt><trkpt lat="43.788475" lon="12.24724"><ele>804.6666666666667</ele><time>2026-03-22T09:26:32.571Z</time></trkpt><trkpt lat="43.78829" lon="12.2470817"><ele>808.3333333333334</ele><time>2026-03-22T09:26:33.571Z</time></trkpt><trkpt lat="43.788115" lon="12.246925"><ele>812.0</ele><time>2026-03-22T09:26:34.571Z</time></trkpt><trkpt lat="43.78795" lon="12.24678"><ele>812.0</ele><time>2026-03-22T09:26:35.571Z</time></trkpt><trkpt lat="43.7878033" lon="12.2466467"><ele>812.0</ele><time>2026-03-22T09:26:36.571Z</time></trkpt><trkpt lat="43.7876533" lon="12.24655"><ele>812.0</ele><time>2026-03-22T09:26:37.57Z</time></trkpt><trkpt lat="43.7874933" lon="12.246475"><ele>813.3333333333334</ele><time>2026-03-22T09:26:38.571Z</time></trkpt><trkpt lat="43.7873217" lon="12.2464483"><ele>814.6666666666667</ele><time>2026-03-22T09:26:39.571Z</time></trkpt><trkpt lat="43.78715" lon="12.2464683"><ele>816.0</ele><time>2026-03-22T09:26:40.57Z</time></trkpt><trkpt lat="43.78699" lon="12.2464783"><ele>822.3333333333333</ele><time>2026-03-22T09:26:41.571Z</time></trkpt><trkpt lat="43.786825" lon="12.2464433"><ele>828.6666666666666</ele><time>2026-03-22T09:26:42.571Z</time></trkpt><trkpt lat="43.7866583" lon="12.2463767"><ele>835.0</ele><time>2026-03-22T09:26:43.571Z</time></trkpt><trkpt lat="43.7864917" lon="12.2462667"><ele>835.0</ele><time>2026-03-22T09:26:44.57Z</time></trkpt><trkpt lat="43.78632" lon="12.2461683"><ele>835.0</ele><time>2026-03-22T09:26:45.571Z</time></trkpt><trkpt lat="43.7861683" lon="12.246065"><ele>835.0</ele><time>2026-03-22T09:26:46.571Z</time></trkpt><trkpt lat="43.7860267" lon="12.2459667"><ele>833.25</ele><time>2026-03-22T09:26:47.571Z</time></trkpt><trkpt lat="43.7858983" lon="12.2458883"><ele>831.5</ele><time>2026-03-22T09:26:48.57Z</time></trkpt><trkpt lat="43.7857767" lon="12.24585"><ele>829.75</ele><time>2026-03-22T09:26:49.571Z</time></trkpt><trkpt lat="43.7856517" lon="12.2458433"><ele>828.0</ele><time>2026-03-22T09:26:50.571Z</time></trkpt><trkpt lat="43.7855133" lon="12.2458817"><ele>828.0</ele><time>2026-03-22T09:26:51.571Z</time></trkpt><trkpt lat="43.785365" lon="12.2459567"><ele>828.0</ele><time>2026-03-22T09:26:52.571Z</time></trkpt><trkpt lat="43.7852017" lon="12.2460667"><ele>828.0</ele><time>2026-03-22T09:26:53.571Z</time></trkpt><trkpt lat="43.785025" lon="12.2461833"><ele>830.0</ele><time>2026-03-22T09:26:54.571Z</time></trkpt><trkpt lat="43.7848467" lon="12.2462917"><ele>832.0</ele><time>2026-03-22T09:26:55.57Z</time></trkpt><trkpt lat="43.7846833" lon="12.2463883"><ele>834.0</ele><time>2026-03-22T09:26:56.571Z</time></trkpt><trkpt lat="43.7845283" lon="12.246475"><ele>833.6666666666667</ele><time>2026-03-22T09:26:57.571Z</time></trkpt><trkpt lat="43.7843817" lon="12.2465683"><ele>833.3333333333334</ele><time>2026-03-22T09:26:58.571Z</time></trkpt><trkpt lat="43.7842317" lon="12.2466917"><ele>833.0</ele><time>2026-03-22T09:26:59.571Z</time></trkpt><trkpt lat="43.7840917" lon="12.2468583"><ele>833.0</ele><time>2026-03-22T09:27:00.57Z</time></trkpt><trkpt lat="43.7839567" lon="12.2470483"><ele>833.0</ele><time>2026-03-22T09:27:01.571Z</time></trkpt><trkpt lat="43.7838133" lon="12.2472633"><ele>833.0</ele><time>2026-03-22T09:27:02.571Z</time></trkpt><trkpt lat="43.78366" lon="12.2474917"><ele>831.0</ele><time>2026-03-22T09:27:03.571Z</time></trkpt><trkpt lat="43.7835017" lon="12.24773"><ele>829.0</ele><time>2026-03-22T09:27:04.571Z</time></trkpt><trkpt lat="43.78334" lon="12.247975"><ele>830.5</ele><time>2026-03-22T09:27:05.571Z</time></trkpt><trkpt lat="43.7831817" lon="12.2482167"><ele>832.0</ele><time>2026-03-22T09:27:06.571Z</time></trkpt><trkpt lat="43.7830333" lon="12.2484517"><ele>832.0</ele><time>2026-03-22T09:27:07.57Z</time></trkpt><trkpt lat="43.7828883" lon="12.2486867"><ele>832.0</ele><time>2026-03-22T09:27:08.571Z</time></trkpt><trkpt lat="43.782755" lon="12.2489167"><ele>832.0</ele><time>2026-03-22T09:27:09.57Z</time></trkpt><trkpt lat="43.78262" lon="12.2491267"><ele>832.6666666666666</ele><time>2026-03-22T09:27:10.57Z</time></trkpt><trkpt lat="43.7824867" lon="12.2493067"><ele>833.3333333333333</ele><time>2026-03-22T09:27:11.57Z</time></trkpt><trkpt lat="43.7823517" lon="12.24946"><ele>834.0</ele><time>2026-03-22T09:27:12.571Z</time></trkpt><trkpt lat="43.7822217" lon="12.24961"><ele>834.0</ele><time>2026-03-22T09:27:13.571Z</time></trkpt><trkpt lat="43.7821133" lon="12.2497633"><ele>834.0</ele><time>2026-03-22T09:27:14.57Z</time></trkpt><trkpt lat="43.7820267" lon="12.2499417"><ele>834.0</ele><time>2026-03-22T09:27:15.571Z</time></trkpt><trkpt lat="43.7819683" lon="12.25017"><ele>834.0</ele><time>2026-03-22T09:27:16.571Z</time></trkpt><trkpt lat="43.7819317" lon="12.2504083"><ele>834.0</ele><time>2026-03-22T09:27:17.57Z</time></trkpt><trkpt lat="43.7818783" lon="12.2506433"><ele>834.0</ele><time>2026-03-22T09:27:18.57Z</time></trkpt><trkpt lat="43.7818183" lon="12.250885"><ele>834.0</ele><time>2026-03-22T09:27:19.57Z</time></trkpt><trkpt lat="43.7817433" lon="12.25113"><ele>834.0</ele><time>2026-03-22T09:27:20.571Z</time></trkpt><trkpt lat="43.7816617" lon="12.25136"><ele>834.0</ele><time>2026-03-22T09:27:21.571Z</time></trkpt><trkpt lat="43.7815867" lon="12.2515783"><ele>836.0</ele><time>2026-03-22T09:27:22.57Z</time></trkpt><trkpt lat="43.781535" lon="12.2517917"><ele>838.0</ele><time>2026-03-22T09:27:23.571Z</time></trkpt><trkpt lat="43.7815067" lon="12.2520133"><ele>840.0</ele><time>2026-03-22T09:27:24.571Z</time></trkpt><trkpt lat="43.7815033" lon="12.2522483"><ele>839.3333333333333</ele><time>2026-03-22T09:27:25.571Z</time></trkpt><trkpt lat="43.781515" lon="12.25248"><ele>838.6666666666666</ele><time>2026-03-22T09:27:26.57Z</time></trkpt><trkpt lat="43.7815283" lon="12.252695"><ele>838.0</ele><time>2026-03-22T09:27:27.57Z</time></trkpt><trkpt lat="43.781535" lon="12.2528967"><ele>838.0</ele><time>2026-03-22T09:27:28.571Z</time></trkpt><trkpt lat="43.7815117" lon="12.2531017"><ele>838.0</ele><time>2026-03-22T09:27:29.571Z</time></trkpt><trkpt lat="43.781435" lon="12.2533067"><ele>838.0</ele><time>2026-03-22T09:27:30.571Z</time></trkpt><trkpt lat="43.7813283" lon="12.2535267"><ele>838.6666666666666</ele><time>2026-03-22T09:27:31.571Z</time></trkpt><trkpt lat="43.7811967" lon="12.2537567"><ele>839.3333333333333</ele><time>2026-03-22T09:27:32.571Z</time></trkpt><trkpt lat="43.7810533" lon="12.2540083"><ele>840.0</ele><time>2026-03-22T09:27:33.571Z</time></trkpt><trkpt lat="43.7809033" lon="12.2542767"><ele>837.0</ele><time>2026-03-22T09:27:34.571Z</time></trkpt><trkpt lat="43.7807633" lon="12.2545617"><ele>834.0</ele><time>2026-03-22T09:27:35.571Z</time></trkpt><trkpt lat="43.7806217" lon="12.2548417"><ele>834.0</ele><time>2026-03-22T09:27:36.571Z</time></trkpt><trkpt lat="43.780495" lon="12.255105"><ele>834.0</ele><time>2026-03-22T09:27:37.571Z</time></trkpt><trkpt lat="43.78036" lon="12.2553517"><ele>834.0</ele><time>2026-03-22T09:27:38.571Z</time></trkpt><trkpt lat="43.7802167" lon="12.2555883"><ele>834.0</ele><time>2026-03-22T09:27:39.571Z</time></trkpt><trkpt lat="43.7800583" lon="12.2558033"><ele>834.0</ele><time>2026-03-22T09:27:40.571Z</time></trkpt><trkpt lat="43.7799017" lon="12.2559983"><ele>834.6666666666667</ele><time>2026-03-22T09:27:41.57Z</time></trkpt><trkpt lat="43.7797483" lon="12.2561783"><ele>835.3333333333334</ele><time>2026-03-22T09:27:42.571Z</time></trkpt><trkpt lat="43.77961" lon="12.25636"><ele>836.0</ele><time>2026-03-22T09:27:43.571Z</time></trkpt><trkpt lat="43.77947" lon="12.25653"><ele>831.6666666666667</ele><time>2026-03-22T09:27:44.571Z</time></trkpt><trkpt lat="43.77931" lon="12.2566883"><ele>827.3333333333333</ele><time>2026-03-22T09:27:45.571Z</time></trkpt><trkpt lat="43.7791267" lon="12.2568417"><ele>823.0</ele><time>2026-03-22T09:27:46.57Z</time></trkpt><trkpt lat="43.7789283" lon="12.2569933"><ele>823.0</ele><time>2026-03-22T09:27:47.571Z</time></trkpt><trkpt lat="43.7787267" lon="12.2571533"><ele>823.0</ele><time>2026-03-22T09:27:48.571Z</time></trkpt><trkpt lat="43.7785283" lon="12.2573083"><ele>820.6666666666666</ele><time>2026-03-22T09:27:49.571Z</time></trkpt><trkpt lat="43.7783283" lon="12.257465"><ele>818.3333333333333</ele><time>2026-03-22T09:27:50.57Z</time></trkpt><trkpt lat="43.7781367" lon="12.25761"><ele>816.0</ele><time>2026-03-22T09:27:51.571Z</time></trkpt><trkpt lat="43.7779567" lon="12.2577483"><ele>816.0</ele><time>2026-03-22T09:27:52.571Z</time></trkpt><trkpt lat="43.7777867" lon="12.257885"><ele>816.0</ele><time>2026-03-22T09:27:53.571Z</time></trkpt><trkpt lat="43.7776183" lon="12.25802"><ele>816.0</ele><time>2026-03-22T09:27:54.571Z</time></trkpt><trkpt lat="43.7774667" lon="12.258135"><ele>816.0</ele><time>2026-03-22T09:27:55.571Z</time></trkpt><trkpt lat="43.7773417" lon="12.2582733"><ele>816.0</ele><time>2026-03-22T09:27:56.571Z</time></trkpt><trkpt lat="43.7772383" lon="12.2584333"><ele>816.0</ele><time>2026-03-22T09:27:57.57Z</time></trkpt><trkpt lat="43.777165" lon="12.2586333"><ele>816.0</ele><time>2026-03-22T09:27:58.571Z</time></trkpt><trkpt lat="43.7771067" lon="12.258855"><ele>816.0</ele><time>2026-03-22T09:27:59.57Z</time></trkpt><trkpt lat="43.7770617" lon="12.2590783"><ele>816.0</ele><time>2026-03-22T09:28:00.571Z</time></trkpt><trkpt lat="43.7770167" lon="12.2592817"><ele>814.5</ele><time>2026-03-22T09:28:01.571Z</time></trkpt><trkpt lat="43.7769567" lon="12.2594533"><ele>813.0</ele><time>2026-03-22T09:28:02.571Z</time></trkpt><trkpt lat="43.77687" lon="12.2595917"><ele>811.5</ele><time>2026-03-22T09:28:03.57Z</time></trkpt><trkpt lat="43.776755" lon="12.2596917"><ele>810.0</ele><time>2026-03-22T09:28:04.571Z</time></trkpt><trkpt lat="43.7766133" lon="12.25976"><ele>812.6666666666667</ele><time>2026-03-22T09:28:05.571Z</time></trkpt><trkpt lat="43.77645" lon="12.25981"><ele>815.3333333333334</ele><time>2026-03-22T09:28:06.571Z</time></trkpt><trkpt lat="43.77627" lon="12.259855"><ele>818.0</ele><time>2026-03-22T09:28:07.571Z</time></trkpt><trkpt lat="43.77609" lon="12.2599017"><ele>817.3333333333334</ele><time>2026-03-22T09:28:08.571Z</time></trkpt><trkpt lat="43.7759183" lon="12.2599483"><ele>816.6666666666667</ele><time>2026-03-22T09:28:09.57Z</time></trkpt><trkpt lat="43.77575" lon="12.259985"><ele>816.0</ele><time>2026-03-22T09:28:10.571Z</time></trkpt><trkpt lat="43.7755833" lon="12.2599867"><ele>816.0</ele><time>2026-03-22T09:28:11.57Z</time></trkpt><trkpt lat="43.775415" lon="12.25995"><ele>816.0</ele><time>2026-03-22T09:28:12.57Z</time></trkpt><trkpt lat="43.7752433" lon="12.2598833"><ele>816.0</ele><time>2026-03-22T09:28:13.571Z</time></trkpt><trkpt lat="43.7750583" lon="12.2598083"><ele>813.0</ele><time>2026-03-22T09:28:14.571Z</time></trkpt><trkpt lat="43.774865" lon="12.2597317"><ele>810.0</ele><time>2026-03-22T09:28:15.571Z</time></trkpt><trkpt lat="43.774665" lon="12.25965"><ele>807.0</ele><time>2026-03-22T09:28:16.57Z</time></trkpt><trkpt lat="43.7744617" lon="12.25958"><ele>808.6666666666667</ele><time>2026-03-22T09:28:17.57Z</time></trkpt><trkpt lat="43.7742617" lon="12.2595133"><ele>810.3333333333334</ele><time>2026-03-22T09:28:18.571Z</time></trkpt><trkpt lat="43.7740733" lon="12.2594283"><ele>812.0</ele><time>2026-03-22T09:28:19.571Z</time></trkpt><trkpt lat="43.7738867" lon="12.2593433"><ele>812.0</ele><time>2026-03-22T09:28:20.571Z</time></trkpt><trkpt lat="43.7737" lon="12.25926"><ele>812.0</ele><time>2026-03-22T09:28:21.571Z</time></trkpt><trkpt lat="43.7735167" lon="12.2591767"><ele>812.0</ele><time>2026-03-22T09:28:22.571Z</time></trkpt><trkpt lat="43.7733283" lon="12.259095"><ele>811.6666666666667</ele><time>2026-03-22T09:28:23.571Z</time></trkpt><trkpt lat="43.7731533" lon="12.2590033"><ele>811.3333333333333</ele><time>2026-03-22T09:28:24.571Z</time></trkpt><trkpt lat="43.772995" lon="12.2589017"><ele>811.0</ele><time>2026-03-22T09:28:25.572Z</time></trkpt><trkpt lat="43.7728417" lon="12.258785"><ele>811.0</ele><time>2026-03-22T09:28:26.572Z</time></trkpt><trkpt lat="43.7727" lon="12.2586683"><ele>811.0</ele><time>2026-03-22T09:28:27.572Z</time></trkpt><trkpt lat="43.772575" lon="12.258525"><ele>811.0</ele><time>2026-03-22T09:28:28.571Z</time></trkpt><trkpt lat="43.7724583" lon="12.25837"><ele>811.3333333333333</ele><time>2026-03-22T09:28:29.572Z</time></trkpt><trkpt lat="43.7723417" lon="12.2582267"><ele>811.6666666666667</ele><time>2026-03-22T09:28:30.571Z</time></trkpt><trkpt lat="43.7722167" lon="12.2581067"><ele>812.0</ele><time>2026-03-22T09:28:31.571Z</time></trkpt><trkpt lat="43.7720683" lon="12.2580017"><ele>812.0</ele><time>2026-03-22T09:28:32.572Z</time></trkpt><trkpt lat="43.7719033" lon="12.25789"><ele>812.0</ele><time>2026-03-22T09:28:33.572Z</time></trkpt><trkpt lat="43.77175" lon="12.2577967"><ele>812.0</ele><time>2026-03-22T09:28:34.572Z</time></trkpt><trkpt lat="43.7716167" lon="12.257735"><ele>814.0</ele><time>2026-03-22T09:28:35.572Z</time></trkpt><trkpt lat="43.7714883" lon="12.2576917"><ele>816.0</ele><time>2026-03-22T09:28:36.571Z</time></trkpt><trkpt lat="43.771345" lon="12.2576833"><ele>818.0</ele><time>2026-03-22T09:28:37.572Z</time></trkpt><trkpt lat="43.7711833" lon="12.257675"><ele>820.0</ele><time>2026-03-22T09:28:38.572Z</time></trkpt><trkpt lat="43.77102" lon="12.25761"><ele>822.6666666666666</ele><time>2026-03-22T09:28:39.572Z</time></trkpt><trkpt lat="43.77086" lon="12.2575133"><ele>825.3333333333333</ele><time>2026-03-22T09:28:40.571Z</time></trkpt><trkpt lat="43.7707167" lon="12.2574067"><ele>828.0</ele><time>2026-03-22T09:28:41.572Z</time></trkpt><trkpt lat="43.770595" lon="12.25729"><ele>824.0</ele><time>2026-03-22T09:28:42.572Z</time></trkpt><trkpt lat="43.77048" lon="12.2571417"><ele>820.0</ele><time>2026-03-22T09:28:43.571Z</time></trkpt><trkpt lat="43.7703783" lon="12.256955"><ele>816.0</ele><time>2026-03-22T09:28:44.572Z</time></trkpt><trkpt lat="43.7702917" lon="12.2567567"><ele>816.0</ele><time>2026-03-22T09:28:45.572Z</time></trkpt><trkpt lat="43.7702283" lon="12.2565433"><ele>816.0</ele><time>2026-03-22T09:28:46.572Z</time></trkpt><trkpt lat="43.7701883" lon="12.25629"><ele>816.0</ele><time>2026-03-22T09:28:47.572Z</time></trkpt><trkpt lat="43.7701667" lon="12.25604"><ele>818.0</ele><time>2026-03-22T09:28:48.572Z</time></trkpt><trkpt lat="43.7701483" lon="12.2558167"><ele>820.0</ele><time>2026-03-22T09:28:49.572Z</time></trkpt><trkpt lat="43.7701067" lon="12.25559"><ele>822.0</ele><time>2026-03-22T09:28:50.572Z</time></trkpt><trkpt lat="43.7700317" lon="12.255355"><ele>822.0</ele><time>2026-03-22T09:28:51.572Z</time></trkpt><trkpt lat="43.7699333" lon="12.25512"><ele>822.0</ele><time>2026-03-22T09:28:52.572Z</time></trkpt><trkpt lat="43.76983" lon="12.2549067"><ele>822.0</ele><time>2026-03-22T09:28:53.572Z</time></trkpt><trkpt lat="43.7697333" lon="12.25472"><ele>820.5</ele><time>2026-03-22T09:28:54.572Z</time></trkpt><trkpt lat="43.7696367" lon="12.2545583"><ele>819.0</ele><time>2026-03-22T09:28:55.571Z</time></trkpt><trkpt lat="43.7695383" lon="12.2544333"><ele>817.5</ele><time>2026-03-22T09:28:56.572Z</time></trkpt><trkpt lat="43.7694267" lon="12.2543317"><ele>816.0</ele><time>2026-03-22T09:28:57.571Z</time></trkpt><trkpt lat="43.7692867" lon="12.254265"><ele>816.0</ele><time>2026-03-22T09:28:58.572Z</time></trkpt><trkpt lat="43.76912" lon="12.254235"><ele>816.0</ele><time>2026-03-22T09:28:59.572Z</time></trkpt><trkpt lat="43.7689333" lon="12.254245"><ele>816.0</ele><time>2026-03-22T09:29:00.572Z</time></trkpt><trkpt lat="43.7687517" lon="12.2542867"><ele>816.0</ele><time>2026-03-22T09:29:01.571Z</time></trkpt><trkpt lat="43.7685717" lon="12.2543317"><ele>816.0</ele><time>2026-03-22T09:29:02.571Z</time></trkpt><trkpt lat="43.7683933" lon="12.2543583"><ele>816.0</ele><time>2026-03-22T09:29:03.572Z</time></trkpt><trkpt lat="43.7682" lon="12.2543483"><ele>815.3333333333333</ele><time>2026-03-22T09:29:04.572Z</time></trkpt><trkpt lat="43.76801" lon="12.2543283"><ele>814.6666666666666</ele><time>2026-03-22T09:29:05.572Z</time></trkpt><trkpt lat="43.7678317" lon="12.2543033"><ele>814.0</ele><time>2026-03-22T09:29:06.571Z</time></trkpt><trkpt lat="43.76766" lon="12.2543083"><ele>813.5</ele><time>2026-03-22T09:29:07.572Z</time></trkpt><trkpt lat="43.7675" lon="12.2543383"><ele>813.0</ele><time>2026-03-22T09:29:08.572Z</time></trkpt><trkpt lat="43.7673633" lon="12.2543583"><ele>812.5</ele><time>2026-03-22T09:29:09.572Z</time></trkpt><trkpt lat="43.7672583" lon="12.2543683"><ele>812.0</ele><time>2026-03-22T09:29:10.572Z</time></trkpt><trkpt lat="43.7671617" lon="12.25435"><ele>812.0</ele><time>2026-03-22T09:29:11.572Z</time></trkpt><trkpt lat="43.76708" lon="12.254285"><ele>812.0</ele><time>2026-03-22T09:29:12.572Z</time></trkpt><trkpt lat="43.7670283" lon="12.2541683"><ele>812.0</ele><time>2026-03-22T09:29:13.572Z</time></trkpt><trkpt lat="43.767005" lon="12.25401"><ele>812.0</ele><time>2026-03-22T09:29:14.572Z</time></trkpt><trkpt lat="43.76701" lon="12.2538083"><ele>809.0</ele><time>2026-03-22T09:29:15.572Z</time></trkpt><trkpt lat="43.7670233" lon="12.2535867"><ele>806.0</ele><time>2026-03-22T09:29:16.571Z</time></trkpt><trkpt lat="43.7670183" lon="12.25336"><ele>803.0</ele><time>2026-03-22T09:29:17.572Z</time></trkpt><trkpt lat="43.7669983" lon="12.25313"><ele>801.6666666666667</ele><time>2026-03-22T09:29:18.571Z</time></trkpt><trkpt lat="43.76696" lon="12.2528767"><ele>800.3333333333333</ele><time>2026-03-22T09:29:19.572Z</time></trkpt><trkpt lat="43.76691" lon="12.2526233"><ele>799.0</ele><time>2026-03-22T09:29:20.571Z</time></trkpt><trkpt lat="43.766855" lon="12.252385"><ele>802.6666666666666</ele><time>2026-03-22T09:29:21.571Z</time></trkpt><trkpt lat="43.7668267" lon="12.25216"><ele>806.3333333333333</ele><time>2026-03-22T09:29:22.571Z</time></trkpt><trkpt lat="43.7668083" lon="12.251945"><ele>810.0</ele><time>2026-03-22T09:29:23.572Z</time></trkpt><trkpt lat="43.7667967" lon="12.25173"><ele>810.0</ele><time>2026-03-22T09:29:24.572Z</time></trkpt><trkpt lat="43.7667833" lon="12.2515267"><ele>810.0</ele><time>2026-03-22T09:29:25.572Z</time></trkpt><trkpt lat="43.7667483" lon="12.251335"><ele>810.0</ele><time>2026-03-22T09:29:26.572Z</time></trkpt><trkpt lat="43.7666983" lon="12.2511267"><ele>810.0</ele><time>2026-03-22T09:29:27.571Z</time></trkpt><trkpt lat="43.7666133" lon="12.2509033"><ele>809.0</ele><time>2026-03-22T09:29:28.572Z</time></trkpt><trkpt lat="43.7665117" lon="12.2506817"><ele>808.0</ele><time>2026-03-22T09:29:29.572Z</time></trkpt><trkpt lat="43.7664067" lon="12.2504833"><ele>807.0</ele><time>2026-03-22T09:29:30.571Z</time></trkpt><trkpt lat="43.76632" lon="12.2503033"><ele>806.75</ele><time>2026-03-22T09:29:31.572Z</time></trkpt><trkpt lat="43.7662533" lon="12.2501417"><ele>806.5</ele><time>2026-03-22T09:29:32.572Z</time></trkpt><trkpt lat="43.7661967" lon="12.249995"><ele>806.25</ele><time>2026-03-22T09:29:33.571Z</time></trkpt><trkpt lat="43.7661733" lon="12.2498383"><ele>806.0</ele><time>2026-03-22T09:29:34.572Z</time></trkpt><trkpt lat="43.7661867" lon="12.2496617"><ele>806.6666666666667</ele><time>2026-03-22T09:29:35.571Z</time></trkpt><trkpt lat="43.7662433" lon="12.249495"><ele>807.3333333333333</ele><time>2026-03-22T09:29:36.572Z</time></trkpt><trkpt lat="43.7663433" lon="12.2493517"><ele>808.0</ele><time>2026-03-22T09:29:37.572Z</time></trkpt><trkpt lat="43.76648" lon="12.2492033"><ele>808.0</ele><time>2026-03-22T09:29:38.572Z</time></trkpt><trkpt lat="43.766645" lon="12.249035"><ele>808.0</ele><time>2026-03-22T09:29:39.572Z</time></trkpt><trkpt lat="43.76682" lon="12.248855"><ele>808.0</ele><time>2026-03-22T09:29:40.571Z</time></trkpt><trkpt lat="43.7669867" lon="12.2486817"><ele>808.0</ele><time>2026-03-22T09:29:41.572Z</time></trkpt><trkpt lat="43.7671367" lon="12.2485283"><ele>808.0</ele><time>2026-03-22T09:29:42.571Z</time></trkpt><trkpt lat="43.767265" lon="12.2483867"><ele>808.0</ele><time>2026-03-22T09:29:43.572Z</time></trkpt><trkpt lat="43.7673667" lon="12.248245"><ele>810.3333333333333</ele><time>2026-03-22T09:29:44.572Z</time></trkpt><trkpt lat="43.76745" lon="12.2480433"><ele>812.6666666666667</ele><time>2026-03-22T09:29:45.572Z</time></trkpt><trkpt lat="43.767525" lon="12.2477983"><ele>815.0</ele><time>2026-03-22T09:29:46.572Z</time></trkpt><trkpt lat="43.7675933" lon="12.247525"><ele>811.3333333333334</ele><time>2026-03-22T09:29:47.572Z</time></trkpt><trkpt lat="43.76766" lon="12.24726"><ele>807.6666666666667</ele><time>2026-03-22T09:29:48.571Z</time></trkpt><trkpt lat="43.76773" lon="12.247015"><ele>804.0</ele><time>2026-03-22T09:29:49.572Z</time></trkpt><trkpt lat="43.767795" lon="12.2468067"><ele>804.0</ele><time>2026-03-22T09:29:50.572Z</time></trkpt><trkpt lat="43.76785" lon="12.2466217"><ele>804.0</ele><time>2026-03-22T09:29:51.571Z</time></trkpt><trkpt lat="43.7678883" lon="12.2464417"><ele>804.0</ele><time>2026-03-22T09:29:52.572Z</time></trkpt><trkpt lat="43.7679083" lon="12.2462667"><ele>804.0</ele><time>2026-03-22T09:29:53.571Z</time></trkpt><trkpt lat="43.7679033" lon="12.2460767"><ele>807.0</ele><time>2026-03-22T09:29:54.571Z</time></trkpt><trkpt lat="43.7678917" lon="12.2458717"><ele>810.0</ele><time>2026-03-22T09:29:55.572Z</time></trkpt><trkpt lat="43.76786" lon="12.2456283"><ele>813.0</ele><time>2026-03-22T09:29:56.572Z</time></trkpt><trkpt lat="43.7678217" lon="12.2453767"><ele>812.0</ele><time>2026-03-22T09:29:57.571Z</time></trkpt><trkpt lat="43.7677883" lon="12.24511"><ele>811.0</ele><time>2026-03-22T09:29:58.571Z</time></trkpt><trkpt lat="43.7677583" lon="12.2448467"><ele>810.0</ele><time>2026-03-22T09:29:59.571Z</time></trkpt><trkpt lat="43.7677367" lon="12.2446133"><ele>810.0</ele><time>2026-03-22T09:30:00.572Z</time></trkpt><trkpt lat="43.767705" lon="12.2443967"><ele>810.0</ele><time>2026-03-22T09:30:01.572Z</time></trkpt><trkpt lat="43.7676583" lon="12.24419"><ele>810.0</ele><time>2026-03-22T09:30:02.572Z</time></trkpt><trkpt lat="43.7675833" lon="12.244005"><ele>810.0</ele><time>2026-03-22T09:30:03.571Z</time></trkpt><trkpt lat="43.767465" lon="12.24383"><ele>810.0</ele><time>2026-03-22T09:30:04.572Z</time></trkpt><trkpt lat="43.7673083" lon="12.243665"><ele>810.0</ele><time>2026-03-22T09:30:05.571Z</time></trkpt><trkpt lat="43.7671233" lon="12.243495"><ele>810.0</ele><time>2026-03-22T09:30:06.572Z</time></trkpt><trkpt lat="43.76693" lon="12.2433183"><ele>810.0</ele><time>2026-03-22T09:30:07.572Z</time></trkpt><trkpt lat="43.7667517" lon="12.24314"><ele>809.6666666666667</ele><time>2026-03-22T09:30:08.572Z</time></trkpt><trkpt lat="43.7665717" lon="12.2429867"><ele>809.3333333333334</ele><time>2026-03-22T09:30:09.572Z</time></trkpt><trkpt lat="43.76641" lon="12.2428333"><ele>809.0</ele><time>2026-03-22T09:30:10.572Z</time></trkpt><trkpt lat="43.766275" lon="12.2426733"><ele>809.0</ele><time>2026-03-22T09:30:11.572Z</time></trkpt><trkpt lat="43.7661533" lon="12.2425133"><ele>809.0</ele><time>2026-03-22T09:30:12.571Z</time></trkpt><trkpt lat="43.766055" lon="12.2423167"><ele>809.0</ele><time>2026-03-22T09:30:13.572Z</time></trkpt><trkpt lat="43.7659983" lon="12.242085"><ele>812.6666666666667</ele><time>2026-03-22T09:30:14.572Z</time></trkpt><trkpt lat="43.765965" lon="12.2418333"><ele>816.3333333333333</ele><time>2026-03-22T09:30:15.572Z</time></trkpt><trkpt lat="43.7659383" lon="12.2415467"><ele>820.0</ele><time>2026-03-22T09:30:16.572Z</time></trkpt><trkpt lat="43.7659283" lon="12.2412817"><ele>820.0</ele><time>2026-03-22T09:30:17.571Z</time></trkpt><trkpt lat="43.765915" lon="12.2410483"><ele>820.0</ele><time>2026-03-22T09:30:18.571Z</time></trkpt><trkpt lat="43.7658783" lon="12.2408683"><ele>820.0</ele><time>2026-03-22T09:30:19.572Z</time></trkpt><trkpt lat="43.76582" lon="12.2406933"><ele>820.0</ele><time>2026-03-22T09:30:20.572Z</time></trkpt><trkpt lat="43.7657333" lon="12.240525"><ele>817.75</ele><time>2026-03-22T09:30:21.572Z</time></trkpt><trkpt lat="43.7656333" lon="12.240385"><ele>815.5</ele><time>2026-03-22T09:30:22.572Z</time></trkpt><trkpt lat="43.7655633" lon="12.24025"><ele>813.25</ele><time>2026-03-22T09:30:23.572Z</time></trkpt><trkpt lat="43.7655183" lon="12.2401017"><ele>811.0</ele><time>2026-03-22T09:30:24.572Z</time></trkpt><trkpt lat="43.7655033" lon="12.2399433"><ele>809.0</ele><time>2026-03-22T09:30:25.571Z</time></trkpt><trkpt lat="43.76552" lon="12.2397633"><ele>807.0</ele><time>2026-03-22T09:30:26.572Z</time></trkpt><trkpt lat="43.7655383" lon="12.2395967"><ele>805.0</ele><time>2026-03-22T09:30:27.571Z</time></trkpt><trkpt lat="43.765535" lon="12.23943"><ele>803.0</ele><time>2026-03-22T09:30:28.572Z</time></trkpt><trkpt lat="43.7654967" lon="12.2392933"><ele>803.0</ele><time>2026-03-22T09:30:29.572Z</time></trkpt><trkpt lat="43.76543" lon="12.239175"><ele>803.0</ele><time>2026-03-22T09:30:30.572Z</time></trkpt><trkpt lat="43.7653283" lon="12.2390767"><ele>803.0</ele><time>2026-03-22T09:30:31.572Z</time></trkpt><trkpt lat="43.7651983" lon="12.2390117"><ele>803.0</ele><time>2026-03-22T09:30:32.571Z</time></trkpt><trkpt lat="43.7650617" lon="12.2389767"><ele>806.0</ele><time>2026-03-22T09:30:33.572Z</time></trkpt><trkpt lat="43.7649383" lon="12.2389367"><ele>809.0</ele><time>2026-03-22T09:30:34.571Z</time></trkpt><trkpt lat="43.7648267" lon="12.2388817"><ele>812.0</ele><time>2026-03-22T09:30:35.572Z</time></trkpt><trkpt lat="43.7647333" lon="12.23878"><ele>815.0</ele><time>2026-03-22T09:30:36.572Z</time></trkpt><trkpt lat="43.764655" lon="12.2386317"><ele>815.0</ele><time>2026-03-22T09:30:37.571Z</time></trkpt><trkpt lat="43.7646083" lon="12.2384483"><ele>815.0</ele><time>2026-03-22T09:30:38.572Z</time></trkpt><trkpt lat="43.7645683" lon="12.2382367"><ele>815.0</ele><time>2026-03-22T09:30:39.571Z</time></trkpt><trkpt lat="43.76454" lon="12.2380367"><ele>815.0</ele><time>2026-03-22T09:30:40.571Z</time></trkpt><trkpt lat="43.7644967" lon="12.2378667"><ele>812.6666666666667</ele><time>2026-03-22T09:30:41.571Z</time></trkpt><trkpt lat="43.7644233" lon="12.2377133"><ele>810.3333333333333</ele><time>2026-03-22T09:30:42.572Z</time></trkpt><trkpt lat="43.7643117" lon="12.2375417"><ele>808.0</ele><time>2026-03-22T09:30:43.572Z</time></trkpt><trkpt lat="43.76419" lon="12.2373567"><ele>810.25</ele><time>2026-03-22T09:30:44.572Z</time></trkpt><trkpt lat="43.764085" lon="12.2371883"><ele>812.5</ele><time>2026-03-22T09:30:45.572Z</time></trkpt><trkpt lat="43.7639933" lon="12.2370383"><ele>814.75</ele><time>2026-03-22T09:30:46.571Z</time></trkpt><trkpt lat="43.7639133" lon="12.2369133"><ele>817.0</ele><time>2026-03-22T09:30:47.572Z</time></trkpt><trkpt lat="43.7638383" lon="12.2368333"><ele>817.0</ele><time>2026-03-22T09:30:48.572Z</time></trkpt><trkpt lat="43.76378" lon="12.2367833"><ele>817.0</ele><time>2026-03-22T09:30:49.572Z</time></trkpt><trkpt lat="43.7637083" lon="12.2367517"><ele>817.0</ele><time>2026-03-22T09:30:50.571Z</time></trkpt><trkpt lat="43.7636117" lon="12.2367683"><ele>817.0</ele><time>2026-03-22T09:30:51.571Z</time></trkpt><trkpt lat="43.7634917" lon="12.236855"><ele>817.0</ele><time>2026-03-22T09:30:52.572Z</time></trkpt><trkpt lat="43.7633633" lon="12.2369467"><ele>818.0</ele><time>2026-03-22T09:30:53.571Z</time></trkpt><trkpt lat="43.763245" lon="12.2370367"><ele>819.0</ele><time>2026-03-22T09:30:54.572Z</time></trkpt><trkpt lat="43.7631417" lon="12.2371117"><ele>820.0</ele><time>2026-03-22T09:30:55.572Z</time></trkpt><trkpt lat="43.7630533" lon="12.2371767"><ele>821.0</ele><time>2026-03-22T09:30:56.572Z</time></trkpt><trkpt lat="43.7629733" lon="12.2372433"><ele>822.0</ele><time>2026-03-22T09:30:57.571Z</time></trkpt><trkpt lat="43.7629033" lon="12.237335"><ele>824.75</ele><time>2026-03-22T09:30:58.572Z</time></trkpt><trkpt lat="43.7628383" lon="12.2374517"><ele>827.5</ele><time>2026-03-22T09:30:59.571Z</time></trkpt><trkpt lat="43.76279" lon="12.2376017"><ele>830.25</ele><time>2026-03-22T09:31:00.572Z</time></trkpt><trkpt lat="43.7627533" lon="12.2377667"><ele>833.0</ele><time>2026-03-22T09:31:01.571Z</time></trkpt><trkpt lat="43.762725" lon="12.237935"><ele>831.25</ele><time>2026-03-22T09:31:02.572Z</time></trkpt><trkpt lat="43.762695" lon="12.2380983"><ele>829.5</ele><time>2026-03-22T09:31:03.572Z</time></trkpt><trkpt lat="43.7626683" lon="12.2382767"><ele>827.75</ele><time>2026-03-22T09:31:04.571Z</time></trkpt><trkpt lat="43.7626567" lon="12.2384817"><ele>826.0</ele><time>2026-03-22T09:31:05.572Z</time></trkpt><trkpt lat="43.762655" lon="12.2387183"><ele>825.3333333333333</ele><time>2026-03-22T09:31:06.572Z</time></trkpt><trkpt lat="43.762645" lon="12.238965"><ele>824.6666666666667</ele><time>2026-03-22T09:31:07.572Z</time></trkpt><trkpt lat="43.7626367" lon="12.2392267"><ele>824.0</ele><time>2026-03-22T09:31:08.572Z</time></trkpt><trkpt lat="43.7626367" lon="12.239475"><ele>823.3333333333334</ele><time>2026-03-22T09:31:09.571Z</time></trkpt><trkpt lat="43.7626317" lon="12.23972"><ele>822.6666666666667</ele><time>2026-03-22T09:31:10.572Z</time></trkpt><trkpt lat="43.762625" lon="12.23997"><ele>822.0</ele><time>2026-03-22T09:31:11.572Z</time></trkpt><trkpt lat="43.7626233" lon="12.2402183"><ele>822.0</ele><time>2026-03-22T09:31:12.572Z</time></trkpt><trkpt lat="43.7626233" lon="12.240475"><ele>822.0</ele><time>2026-03-22T09:31:13.571Z</time></trkpt><trkpt lat="43.7626217" lon="12.240725"><ele>822.0</ele><time>2026-03-22T09:31:14.571Z</time></trkpt><trkpt lat="43.76262" lon="12.2409717"><ele>822.3333333333333</ele><time>2026-03-22T09:31:15.572Z</time></trkpt><trkpt lat="43.7626017" lon="12.2412167"><ele>822.6666666666666</ele><time>2026-03-22T09:31:16.572Z</time></trkpt><trkpt lat="43.7625883" lon="12.24146"><ele>823.0</ele><time>2026-03-22T09:31:17.572Z</time></trkpt><trkpt lat="43.762555" lon="12.24169"><ele>823.3333333333333</ele><time>2026-03-22T09:31:18.571Z</time></trkpt><trkpt lat="43.7624933" lon="12.2418967"><ele>823.6666666666667</ele><time>2026-03-22T09:31:19.572Z</time></trkpt><trkpt lat="43.7624217" lon="12.2420883"><ele>824.0</ele><time>2026-03-22T09:31:20.572Z</time></trkpt><trkpt lat="43.7623433" lon="12.242245"><ele>825.0</ele><time>2026-03-22T09:31:21.572Z</time></trkpt><trkpt lat="43.76227" lon="12.2423883"><ele>826.0</ele><time>2026-03-22T09:31:22.571Z</time></trkpt><trkpt lat="43.7621883" lon="12.242505"><ele>827.0</ele><time>2026-03-22T09:31:23.572Z</time></trkpt><trkpt lat="43.7621183" lon="12.24261"><ele>828.0</ele><time>2026-03-22T09:31:24.572Z</time></trkpt><trkpt lat="43.7620533" lon="12.2427017"><ele>829.0</ele><time>2026-03-22T09:31:25.572Z</time></trkpt><trkpt lat="43.761985" lon="12.24279"><ele>828.9999999999999</ele><time>2026-03-22T09:31:26.572Z</time></trkpt><trkpt lat="43.761925" lon="12.2428833"><ele>829.0</ele><time>2026-03-22T09:31:27.571Z</time></trkpt><trkpt lat="43.7618733" lon="12.24297"><ele>829.0</ele><time>2026-03-22T09:31:28.571Z</time></trkpt><trkpt lat="43.7618183" lon="12.243065"><ele>829.0</ele><time>2026-03-22T09:31:29.572Z</time></trkpt><trkpt lat="43.7617683" lon="12.24317"><ele>828.9999999999999</ele><time>2026-03-22T09:31:30.572Z</time></trkpt><trkpt lat="43.7617267" lon="12.24329"><ele>829.0</ele><time>2026-03-22T09:31:31.572Z</time></trkpt><trkpt lat="43.761675" lon="12.24343"><ele>828.5</ele><time>2026-03-22T09:31:32.572Z</time></trkpt><trkpt lat="43.7616233" lon="12.2435867"><ele>828.0</ele><time>2026-03-22T09:31:33.571Z</time></trkpt><trkpt lat="43.76156" lon="12.243755"><ele>827.5</ele><time>2026-03-22T09:31:34.571Z</time></trkpt><trkpt lat="43.761505" lon="12.24391"><ele>827.0</ele><time>2026-03-22T09:31:35.572Z</time></trkpt><trkpt lat="43.761435" lon="12.244045"><ele>828.5</ele><time>2026-03-22T09:31:36.572Z</time></trkpt><trkpt lat="43.761355" lon="12.2441717"><ele>830.0</ele><time>2026-03-22T09:31:37.571Z</time></trkpt><trkpt lat="43.761265" lon="12.244285"><ele>831.5</ele><time>2026-03-22T09:31:38.572Z</time></trkpt><trkpt lat="43.76116" lon="12.244395"><ele>833.0</ele><time>2026-03-22T09:31:39.572Z</time></trkpt><trkpt lat="43.7610467" lon="12.2445"><ele>831.3333333333334</ele><time>2026-03-22T09:31:40.572Z</time></trkpt><trkpt lat="43.7609217" lon="12.2446"><ele>829.6666666666667</ele><time>2026-03-22T09:31:41.572Z</time></trkpt><trkpt lat="43.7607867" lon="12.2447"><ele>828.0</ele><time>2026-03-22T09:31:42.572Z</time></trkpt><trkpt lat="43.7606417" lon="12.2447983"><ele>828.0</ele><time>2026-03-22T09:31:43.571Z</time></trkpt><trkpt lat="43.7604733" lon="12.2448883"><ele>828.0</ele><time>2026-03-22T09:31:44.571Z</time></trkpt><trkpt lat="43.7602967" lon="12.24498"><ele>828.0</ele><time>2026-03-22T09:31:45.571Z</time></trkpt><trkpt lat="43.7601133" lon="12.2450717"><ele>824.0</ele><time>2026-03-22T09:31:46.573Z</time></trkpt><trkpt lat="43.7599283" lon="12.2451483"><ele>820.0</ele><time>2026-03-22T09:31:47.572Z</time></trkpt><trkpt lat="43.759755" lon="12.2452133"><ele>816.0</ele><time>2026-03-22T09:31:48.573Z</time></trkpt><trkpt lat="43.7596033" lon="12.2452667"><ele>816.0</ele><time>2026-03-22T09:31:49.573Z</time></trkpt><trkpt lat="43.7594767" lon="12.2453233"><ele>816.0</ele><time>2026-03-22T09:31:50.573Z</time></trkpt><trkpt lat="43.75936" lon="12.245395"><ele>816.0</ele><time>2026-03-22T09:31:51.573Z</time></trkpt><trkpt lat="43.7592517" lon="12.245505"><ele>816.0</ele><time>2026-03-22T09:31:52.573Z</time></trkpt><trkpt lat="43.7591433" lon="12.2456633"><ele>815.0</ele><time>2026-03-22T09:31:53.572Z</time></trkpt><trkpt lat="43.7590367" lon="12.2458667"><ele>814.0</ele><time>2026-03-22T09:31:54.572Z</time></trkpt><trkpt lat="43.7589317" lon="12.2460667"><ele>813.0</ele><time>2026-03-22T09:31:55.573Z</time></trkpt><trkpt lat="43.7588333" lon="12.2462583"><ele>813.0</ele><time>2026-03-22T09:31:56.573Z</time></trkpt><trkpt lat="43.758725" lon="12.2464317"><ele>813.0</ele><time>2026-03-22T09:31:57.572Z</time></trkpt><trkpt lat="43.758615" lon="12.2465767"><ele>813.0</ele><time>2026-03-22T09:31:58.572Z</time></trkpt><trkpt lat="43.7584867" lon="12.2466967"><ele>810.3333333333333</ele><time>2026-03-22T09:31:59.572Z</time></trkpt><trkpt lat="43.758355" lon="12.2468167"><ele>807.6666666666666</ele><time>2026-03-22T09:32:00.572Z</time></trkpt><trkpt lat="43.7582133" lon="12.246955"><ele>805.0</ele><time>2026-03-22T09:32:01.573Z</time></trkpt><trkpt lat="43.7580917" lon="12.247115"><ele>805.0</ele><time>2026-03-22T09:32:02.573Z</time></trkpt><trkpt lat="43.7579933" lon="12.2472633"><ele>805.0</ele><time>2026-03-22T09:32:03.572Z</time></trkpt><trkpt lat="43.75791" lon="12.2474067"><ele>805.0</ele><time>2026-03-22T09:32:04.573Z</time></trkpt><trkpt lat="43.7578267" lon="12.2475283"><ele>805.0</ele><time>2026-03-22T09:32:05.573Z</time></trkpt><trkpt lat="43.7577367" lon="12.2476233"><ele>804.5</ele><time>2026-03-22T09:32:06.573Z</time></trkpt><trkpt lat="43.757635" lon="12.247675"><ele>804.0</ele><time>2026-03-22T09:32:07.573Z</time></trkpt><trkpt lat="43.7575267" lon="12.24767"><ele>803.5</ele><time>2026-03-22T09:32:08.573Z</time></trkpt><trkpt lat="43.7574017" lon="12.247605"><ele>803.0</ele><time>2026-03-22T09:32:09.573Z</time></trkpt><trkpt lat="43.7572633" lon="12.2475017"><ele>803.0</ele><time>2026-03-22T09:32:10.573Z</time></trkpt><trkpt lat="43.7571183" lon="12.247375"><ele>803.0</ele><time>2026-03-22T09:32:11.573Z</time></trkpt><trkpt lat="43.75698" lon="12.2472417"><ele>803.0</ele><time>2026-03-22T09:32:12.573Z</time></trkpt><trkpt lat="43.7568467" lon="12.247125"><ele>802.5</ele><time>2026-03-22T09:32:13.572Z</time></trkpt><trkpt lat="43.7567083" lon="12.2470267"><ele>802.0</ele><time>2026-03-22T09:32:14.573Z</time></trkpt><trkpt lat="43.75658" lon="12.2469417"><ele>801.5</ele><time>2026-03-22T09:32:15.573Z</time></trkpt><trkpt lat="43.7564667" lon="12.2468783"><ele>801.0</ele><time>2026-03-22T09:32:16.573Z</time></trkpt><trkpt lat="43.7563583" lon="12.246835"><ele>801.0</ele><time>2026-03-22T09:32:17.573Z</time></trkpt><trkpt lat="43.7562617" lon="12.2468233"><ele>801.0</ele><time>2026-03-22T09:32:18.572Z</time></trkpt><trkpt lat="43.7561617" lon="12.2468533"><ele>801.0</ele><time>2026-03-22T09:32:19.573Z</time></trkpt><trkpt lat="43.75606" lon="12.2469267"><ele>801.0</ele><time>2026-03-22T09:32:20.573Z</time></trkpt><trkpt lat="43.755975" lon="12.24705"><ele>801.0</ele><time>2026-03-22T09:32:21.573Z</time></trkpt><trkpt lat="43.7559017" lon="12.2471883"><ele>802.6666666666667</ele><time>2026-03-22T09:32:22.573Z</time></trkpt><trkpt lat="43.755795" lon="12.2473017"><ele>804.3333333333334</ele><time>2026-03-22T09:32:23.572Z</time></trkpt><trkpt lat="43.7556633" lon="12.2473833"><ele>806.0</ele><time>2026-03-22T09:32:24.573Z</time></trkpt><trkpt lat="43.755495" lon="12.2474283"><ele>806.0</ele><time>2026-03-22T09:32:25.573Z</time></trkpt><trkpt lat="43.7553217" lon="12.2474583"><ele>806.0</ele><time>2026-03-22T09:32:26.572Z</time></trkpt><trkpt lat="43.7551617" lon="12.24748"><ele>806.0</ele><time>2026-03-22T09:32:27.572Z</time></trkpt><trkpt lat="43.7550133" lon="12.24752"><ele>804.75</ele><time>2026-03-22T09:32:28.572Z</time></trkpt><trkpt lat="43.754865" lon="12.2475667"><ele>803.5</ele><time>2026-03-22T09:32:29.573Z</time></trkpt><trkpt lat="43.7547283" lon="12.2476183"><ele>802.25</ele><time>2026-03-22T09:32:30.573Z</time></trkpt><trkpt lat="43.7546" lon="12.2476933"><ele>801.0</ele><time>2026-03-22T09:32:31.573Z</time></trkpt><trkpt lat="43.7544817" lon="12.2477783"><ele>800.0</ele><time>2026-03-22T09:32:32.573Z</time></trkpt><trkpt lat="43.7543683" lon="12.2478967"><ele>799.0</ele><time>2026-03-22T09:32:33.572Z</time></trkpt><trkpt lat="43.75427" lon="12.2480583"><ele>798.0</ele><time>2026-03-22T09:32:34.572Z</time></trkpt><trkpt lat="43.7541917" lon="12.2482617"><ele>798.0</ele><time>2026-03-22T09:32:35.573Z</time></trkpt><trkpt lat="43.7541167" lon="12.248455"><ele>798.0</ele><time>2026-03-22T09:32:36.572Z</time></trkpt><trkpt lat="43.75404" lon="12.2486267"><ele>798.0</ele><time>2026-03-22T09:32:37.573Z</time></trkpt><trkpt lat="43.7539683" lon="12.2487733"><ele>798.0</ele><time>2026-03-22T09:32:38.573Z</time></trkpt><trkpt lat="43.7539117" lon="12.2489"><ele>798.4</ele><time>2026-03-22T09:32:39.573Z</time></trkpt><trkpt lat="43.75386" lon="12.2489917"><ele>798.8</ele><time>2026-03-22T09:32:40.573Z</time></trkpt><trkpt lat="43.75379" lon="12.2490517"><ele>799.2</ele><time>2026-03-22T09:32:41.572Z</time></trkpt><trkpt lat="43.7537017" lon="12.2490767"><ele>799.6</ele><time>2026-03-22T09:32:42.573Z</time></trkpt><trkpt lat="43.7535833" lon="12.249035"><ele>800.0</ele><time>2026-03-22T09:32:43.572Z</time></trkpt><trkpt lat="43.7534567" lon="12.2489417"><ele>798.3333333333334</ele><time>2026-03-22T09:32:44.573Z</time></trkpt><trkpt lat="43.7533" lon="12.248815"><ele>796.6666666666667</ele><time>2026-03-22T09:32:45.572Z</time></trkpt><trkpt lat="43.7531417" lon="12.2486967"><ele>795.0</ele><time>2026-03-22T09:32:46.573Z</time></trkpt><trkpt lat="43.7529833" lon="12.248595"><ele>795.0</ele><time>2026-03-22T09:32:47.573Z</time></trkpt><trkpt lat="43.7528317" lon="12.248485"><ele>795.0</ele><time>2026-03-22T09:32:48.573Z</time></trkpt><trkpt lat="43.7526967" lon="12.2483433"><ele>795.0</ele><time>2026-03-22T09:32:49.573Z</time></trkpt><trkpt lat="43.752575" lon="12.2482083"><ele>795.0</ele><time>2026-03-22T09:32:50.572Z</time></trkpt><trkpt lat="43.7524583" lon="12.2480933"><ele>795.0</ele><time>2026-03-22T09:32:51.573Z</time></trkpt><trkpt lat="43.7523433" lon="12.2479917"><ele>795.0</ele><time>2026-03-22T09:32:52.573Z</time></trkpt><trkpt lat="43.7522417" lon="12.24793"><ele>795.0</ele><time>2026-03-22T09:32:53.573Z</time></trkpt><trkpt lat="43.75215" lon="12.2478583"><ele>795.0</ele><time>2026-03-22T09:32:54.573Z</time></trkpt><trkpt lat="43.752075" lon="12.2477517"><ele>795.0</ele><time>2026-03-22T09:32:55.572Z</time></trkpt><trkpt lat="43.7520233" lon="12.2475967"><ele>795.0</ele><time>2026-03-22T09:32:56.573Z</time></trkpt><trkpt lat="43.7519867" lon="12.247425"><ele>795.0</ele><time>2026-03-22T09:32:57.572Z</time></trkpt><trkpt lat="43.751965" lon="12.24728"><ele>796.25</ele><time>2026-03-22T09:32:58.573Z</time></trkpt><trkpt lat="43.75192" lon="12.2471667"><ele>797.5</ele><time>2026-03-22T09:32:59.573Z</time></trkpt><trkpt lat="43.751845" lon="12.24705"><ele>798.75</ele><time>2026-03-22T09:33:00.572Z</time></trkpt><trkpt lat="43.7517367" lon="12.2469417"><ele>800.0</ele><time>2026-03-22T09:33:01.572Z</time></trkpt><trkpt lat="43.7516367" lon="12.2468533"><ele>800.0</ele><time>2026-03-22T09:33:02.573Z</time></trkpt><trkpt lat="43.7515517" lon="12.2467933"><ele>800.0</ele><time>2026-03-22T09:33:03.573Z</time></trkpt><trkpt lat="43.75147" lon="12.2467467"><ele>800.0</ele><time>2026-03-22T09:33:04.572Z</time></trkpt><trkpt lat="43.75138" lon="12.2467217"><ele>800.0</ele><time>2026-03-22T09:33:05.572Z</time></trkpt><trkpt lat="43.7512783" lon="12.2467383"><ele>800.0</ele><time>2026-03-22T09:33:06.573Z</time></trkpt><trkpt lat="43.7511533" lon="12.24682"><ele>800.3333333333334</ele><time>2026-03-22T09:33:07.573Z</time></trkpt><trkpt lat="43.7510133" lon="12.246985"><ele>800.6666666666667</ele><time>2026-03-22T09:33:08.573Z</time></trkpt><trkpt lat="43.7508717" lon="12.2471567"><ele>801.0</ele><time>2026-03-22T09:33:09.573Z</time></trkpt><trkpt lat="43.7507533" lon="12.2473083"><ele>801.0</ele><time>2026-03-22T09:33:10.573Z</time></trkpt><trkpt lat="43.7506583" lon="12.24743"><ele>801.0</ele><time>2026-03-22T09:33:11.573Z</time></trkpt><trkpt lat="43.75058" lon="12.2475517"><ele>801.0</ele><time>2026-03-22T09:33:12.573Z</time></trkpt><trkpt lat="43.75052" lon="12.2476883"><ele>801.0</ele><time>2026-03-22T09:33:13.573Z</time></trkpt><trkpt lat="43.750475" lon="12.247885"><ele>801.0</ele><time>2026-03-22T09:33:14.572Z</time></trkpt><trkpt lat="43.750455" lon="12.2481083"><ele>801.0</ele><time>2026-03-22T09:33:15.572Z</time></trkpt><trkpt lat="43.7504267" lon="12.2483467"><ele>801.0</ele><time>2026-03-22T09:33:16.572Z</time></trkpt><trkpt lat="43.7504" lon="12.2485733"><ele>803.0</ele><time>2026-03-22T09:33:17.573Z</time></trkpt><trkpt lat="43.750355" lon="12.2487883"><ele>805.0</ele><time>2026-03-22T09:33:18.573Z</time></trkpt><trkpt lat="43.7502783" lon="12.2489983"><ele>807.0</ele><time>2026-03-22T09:33:19.573Z</time></trkpt><trkpt lat="43.75017" lon="12.2492067"><ele>803.0</ele><time>2026-03-22T09:33:20.572Z</time></trkpt><trkpt lat="43.750055" lon="12.2494033"><ele>799.0</ele><time>2026-03-22T09:33:21.573Z</time></trkpt><trkpt lat="43.7499333" lon="12.2495617"><ele>795.0</ele><time>2026-03-22T09:33:22.573Z</time></trkpt><trkpt lat="43.7498183" lon="12.2496967"><ele>798.25</ele><time>2026-03-22T09:33:23.572Z</time></trkpt><trkpt lat="43.7497167" lon="12.2498183"><ele>801.5</ele><time>2026-03-22T09:33:24.573Z</time></trkpt><trkpt lat="43.749645" lon="12.2499483"><ele>804.75</ele><time>2026-03-22T09:33:25.572Z</time></trkpt><trkpt lat="43.7495933" lon="12.2501283"><ele>808.0</ele><time>2026-03-22T09:33:26.572Z</time></trkpt><trkpt lat="43.7495483" lon="12.2503267"><ele>808.0</ele><time>2026-03-22T09:33:27.572Z</time></trkpt><trkpt lat="43.749525" lon="12.25051"><ele>808.0</ele><time>2026-03-22T09:33:28.573Z</time></trkpt><trkpt lat="43.7495167" lon="12.2506967"><ele>808.0</ele><time>2026-03-22T09:33:29.573Z</time></trkpt><trkpt lat="43.749535" lon="12.2508933"><ele>808.0</ele><time>2026-03-22T09:33:30.573Z</time></trkpt><trkpt lat="43.7495917" lon="12.2511233"><ele>810.3333333333333</ele><time>2026-03-22T09:33:31.573Z</time></trkpt><trkpt lat="43.7496583" lon="12.2513417"><ele>812.6666666666667</ele><time>2026-03-22T09:33:32.573Z</time></trkpt><trkpt lat="43.7497133" lon="12.251545"><ele>815.0</ele><time>2026-03-22T09:33:33.572Z</time></trkpt><trkpt lat="43.7497517" lon="12.2517417"><ele>815.5</ele><time>2026-03-22T09:33:34.573Z</time></trkpt><trkpt lat="43.7497583" lon="12.2519417"><ele>816.0</ele><time>2026-03-22T09:33:35.572Z</time></trkpt><trkpt lat="43.749735" lon="12.252135"><ele>816.5</ele><time>2026-03-22T09:33:36.573Z</time></trkpt><trkpt lat="43.7496767" lon="12.2523167"><ele>817.0</ele><time>2026-03-22T09:33:37.572Z</time></trkpt><trkpt lat="43.749605" lon="12.2524933"><ele>818.5</ele><time>2026-03-22T09:33:38.573Z</time></trkpt><trkpt lat="43.7495417" lon="12.2526533"><ele>820.0</ele><time>2026-03-22T09:33:39.572Z</time></trkpt><trkpt lat="43.7494883" lon="12.252815"><ele>821.5</ele><time>2026-03-22T09:33:40.572Z</time></trkpt><trkpt lat="43.7494717" lon="12.2529833"><ele>823.0</ele><time>2026-03-22T09:33:41.572Z</time></trkpt><trkpt lat="43.7494683" lon="12.2531717"><ele>824.3333333333333</ele><time>2026-03-22T09:33:42.573Z</time></trkpt><trkpt lat="43.7495033" lon="12.2533733"><ele>825.6666666666667</ele><time>2026-03-22T09:33:43.573Z</time></trkpt><trkpt lat="43.7495817" lon="12.2536033"><ele>827.0</ele><time>2026-03-22T09:33:44.572Z</time></trkpt><trkpt lat="43.7496483" lon="12.25384"><ele>826.6666666666667</ele><time>2026-03-22T09:33:45.572Z</time></trkpt><trkpt lat="43.7497033" lon="12.25408"><ele>826.3333333333333</ele><time>2026-03-22T09:33:46.573Z</time></trkpt><trkpt lat="43.7497533" lon="12.25431"><ele>826.0</ele><time>2026-03-22T09:33:47.572Z</time></trkpt><trkpt lat="43.749785" lon="12.2545317"><ele>826.0</ele><time>2026-03-22T09:33:48.572Z</time></trkpt><trkpt lat="43.7497967" lon="12.25475"><ele>826.0</ele><time>2026-03-22T09:33:49.572Z</time></trkpt><trkpt lat="43.7497733" lon="12.2549883"><ele>826.0</ele><time>2026-03-22T09:33:50.573Z</time></trkpt><trkpt lat="43.7497183" lon="12.2552467"><ele>826.0</ele><time>2026-03-22T09:33:51.573Z</time></trkpt><trkpt lat="43.7496533" lon="12.2555217"><ele>826.0</ele><time>2026-03-22T09:33:52.573Z</time></trkpt><trkpt lat="43.749595" lon="12.25581"><ele>826.0</ele><time>2026-03-22T09:33:53.573Z</time></trkpt><trkpt lat="43.74954" lon="12.2560817"><ele>827.0</ele><time>2026-03-22T09:33:54.573Z</time></trkpt><trkpt lat="43.7494917" lon="12.2563533"><ele>828.0</ele><time>2026-03-22T09:33:55.573Z</time></trkpt><trkpt lat="43.7494667" lon="12.256655"><ele>829.0</ele><time>2026-03-22T09:33:56.573Z</time></trkpt><trkpt lat="43.749465" lon="12.2569833"><ele>830.0</ele><time>2026-03-22T09:33:57.572Z</time></trkpt><trkpt lat="43.749485" lon="12.2573"><ele>831.0</ele><time>2026-03-22T09:33:58.573Z</time></trkpt><trkpt lat="43.7494983" lon="12.2575667"><ele>832.0</ele><time>2026-03-22T09:33:59.573Z</time></trkpt><trkpt lat="43.7495167" lon="12.2577733"><ele>832.0</ele><time>2026-03-22T09:34:00.573Z</time></trkpt><trkpt lat="43.7495333" lon="12.2579467"><ele>832.0</ele><time>2026-03-22T09:34:01.573Z</time></trkpt><trkpt lat="43.74954" lon="12.2580783"><ele>832.0</ele><time>2026-03-22T09:34:02.572Z</time></trkpt><trkpt lat="43.749525" lon="12.2581883"><ele>832.0</ele><time>2026-03-22T09:34:03.573Z</time></trkpt><trkpt lat="43.7494733" lon="12.2582867"><ele>832.0</ele><time>2026-03-22T09:34:04.573Z</time></trkpt><trkpt lat="43.7493917" lon="12.2583983"><ele>831.3333333333333</ele><time>2026-03-22T09:34:05.572Z</time></trkpt><trkpt lat="43.7492683" lon="12.2585267"><ele>830.6666666666667</ele><time>2026-03-22T09:34:06.572Z</time></trkpt><trkpt lat="43.74912" lon="12.2586783"><ele>830.0</ele><time>2026-03-22T09:34:07.573Z</time></trkpt><trkpt lat="43.748955" lon="12.2588617"><ele>832.0</ele><time>2026-03-22T09:34:08.573Z</time></trkpt><trkpt lat="43.7487917" lon="12.259045"><ele>834.0</ele><time>2026-03-22T09:34:09.572Z</time></trkpt><trkpt lat="43.7486367" lon="12.2592083"><ele>836.0</ele><time>2026-03-22T09:34:10.573Z</time></trkpt><trkpt lat="43.7484967" lon="12.259355"><ele>836.0</ele><time>2026-03-22T09:34:11.572Z</time></trkpt><trkpt lat="43.748375" lon="12.2594883"><ele>836.0</ele><time>2026-03-22T09:34:12.572Z</time></trkpt><trkpt lat="43.7482667" lon="12.2596117"><ele>836.0</ele><time>2026-03-22T09:34:13.573Z</time></trkpt><trkpt lat="43.748175" lon="12.2597483"><ele>836.0</ele><time>2026-03-22T09:34:14.573Z</time></trkpt><trkpt lat="43.7480967" lon="12.2599033"><ele>838.0</ele><time>2026-03-22T09:34:15.573Z</time></trkpt><trkpt lat="43.748025" lon="12.2600817"><ele>840.0</ele><time>2026-03-22T09:34:16.573Z</time></trkpt><trkpt lat="43.747955" lon="12.260275"><ele>842.0</ele><time>2026-03-22T09:34:17.572Z</time></trkpt><trkpt lat="43.74789" lon="12.2604517"><ele>844.0</ele><time>2026-03-22T09:34:18.572Z</time></trkpt><trkpt lat="43.7478367" lon="12.2606167"><ele>845.75</ele><time>2026-03-22T09:34:19.572Z</time></trkpt><trkpt lat="43.7478083" lon="12.2607733"><ele>847.5</ele><time>2026-03-22T09:34:20.573Z</time></trkpt><trkpt lat="43.7478183" lon="12.2609267"><ele>849.25</ele><time>2026-03-22T09:34:21.573Z</time></trkpt><trkpt lat="43.7478683" lon="12.2610833"><ele>851.0</ele><time>2026-03-22T09:34:22.573Z</time></trkpt><trkpt lat="43.7479533" lon="12.2612517"><ele>851.0</ele><time>2026-03-22T09:34:23.573Z</time></trkpt><trkpt lat="43.7480617" lon="12.2614433"><ele>851.0</ele><time>2026-03-22T09:34:24.573Z</time></trkpt><trkpt lat="43.7481767" lon="12.2616583"><ele>851.0</ele><time>2026-03-22T09:34:25.573Z</time></trkpt><trkpt lat="43.7483" lon="12.2618783"><ele>852.0</ele><time>2026-03-22T09:34:26.573Z</time></trkpt><trkpt lat="43.74842" lon="12.2621033"><ele>853.0</ele><time>2026-03-22T09:34:27.572Z</time></trkpt><trkpt lat="43.7485317" lon="12.2623117"><ele>854.0</ele><time>2026-03-22T09:34:28.572Z</time></trkpt><trkpt lat="43.7486417" lon="12.26252"><ele>857.0</ele><time>2026-03-22T09:34:29.573Z</time></trkpt><trkpt lat="43.74878" lon="12.2627367"><ele>860.0</ele><time>2026-03-22T09:34:30.573Z</time></trkpt><trkpt lat="43.7489333" lon="12.2629483"><ele>863.0</ele><time>2026-03-22T09:34:31.573Z</time></trkpt><trkpt lat="43.749065" lon="12.2631317"><ele>863.0</ele><time>2026-03-22T09:34:32.573Z</time></trkpt><trkpt lat="43.7491883" lon="12.2632967"><ele>863.0</ele><time>2026-03-22T09:34:33.573Z</time></trkpt><trkpt lat="43.749285" lon="12.2634383"><ele>863.0</ele><time>2026-03-22T09:34:34.572Z</time></trkpt><trkpt lat="43.749355" lon="12.2635633"><ele>863.0</ele><time>2026-03-22T09:34:35.572Z</time></trkpt><trkpt lat="43.7493867" lon="12.2636883"><ele>864.25</ele><time>2026-03-22T09:34:36.573Z</time></trkpt><trkpt lat="43.7493833" lon="12.2638283"><ele>865.5</ele><time>2026-03-22T09:34:37.573Z</time></trkpt><trkpt lat="43.7493467" lon="12.2639667"><ele>866.75</ele><time>2026-03-22T09:34:38.572Z</time></trkpt><trkpt lat="43.74926" lon="12.2640917"><ele>868.0</ele><time>2026-03-22T09:34:39.573Z</time></trkpt><trkpt lat="43.74914" lon="12.2642083"><ele>868.0</ele><time>2026-03-22T09:34:40.572Z</time></trkpt><trkpt lat="43.749025" lon="12.26432"><ele>868.0</ele><time>2026-03-22T09:34:41.573Z</time></trkpt><trkpt lat="43.7489267" lon="12.2644433"><ele>868.0</ele><time>2026-03-22T09:34:42.572Z</time></trkpt><trkpt lat="43.748845" lon="12.2646"><ele>868.0</ele><time>2026-03-22T09:34:43.573Z</time></trkpt><trkpt lat="43.7487867" lon="12.2648017"><ele>871.0</ele><time>2026-03-22T09:34:44.573Z</time></trkpt><trkpt lat="43.7487233" lon="12.265055"><ele>874.0</ele><time>2026-03-22T09:34:45.573Z</time></trkpt><trkpt lat="43.748645" lon="12.26531"><ele>877.0</ele><time>2026-03-22T09:34:46.573Z</time></trkpt><trkpt lat="43.74855" lon="12.2655533"><ele>878.3333333333333</ele><time>2026-03-22T09:34:47.573Z</time></trkpt><trkpt lat="43.7484467" lon="12.265775"><ele>879.6666666666667</ele><time>2026-03-22T09:34:48.572Z</time></trkpt><trkpt lat="43.7483433" lon="12.2659667"><ele>881.0</ele><time>2026-03-22T09:34:49.573Z</time></trkpt><trkpt lat="43.7482483" lon="12.2661333"><ele>881.0</ele><time>2026-03-22T09:34:50.573Z</time></trkpt><trkpt lat="43.7481683" lon="12.2662917"><ele>881.0</ele><time>2026-03-22T09:34:51.573Z</time></trkpt><trkpt lat="43.7481083" lon="12.2664683"><ele>881.0</ele><time>2026-03-22T09:34:52.573Z</time></trkpt><trkpt lat="43.7480767" lon="12.266685"><ele>881.0</ele><time>2026-03-22T09:34:53.572Z</time></trkpt><trkpt lat="43.7480483" lon="12.2669167"><ele>883.3333333333334</ele><time>2026-03-22T09:34:54.573Z</time></trkpt><trkpt lat="43.7479967" lon="12.2671467"><ele>885.6666666666667</ele><time>2026-03-22T09:34:55.572Z</time></trkpt><trkpt lat="43.74792" lon="12.2673833"><ele>888.0</ele><time>2026-03-22T09:34:56.573Z</time></trkpt><trkpt lat="43.7478383" lon="12.2676067"><ele>889.0</ele><time>2026-03-22T09:34:57.572Z</time></trkpt><trkpt lat="43.7477717" lon="12.2678183"><ele>890.0</ele><time>2026-03-22T09:34:58.574Z</time></trkpt><trkpt lat="43.7476883" lon="12.2679983"><ele>891.0</ele><time>2026-03-22T09:34:59.573Z</time></trkpt><trkpt lat="43.7475883" lon="12.2681683"><ele>893.0</ele><time>2026-03-22T09:35:00.574Z</time></trkpt><trkpt lat="43.7474617" lon="12.2683167"><ele>895.0</ele><time>2026-03-22T09:35:01.574Z</time></trkpt><trkpt lat="43.7473383" lon="12.268435"><ele>897.0</ele><time>2026-03-22T09:35:02.574Z</time></trkpt><trkpt lat="43.7472333" lon="12.2685533"><ele>897.0</ele><time>2026-03-22T09:35:03.573Z</time></trkpt><trkpt lat="43.7471633" lon="12.2687117"><ele>897.0</ele><time>2026-03-22T09:35:04.573Z</time></trkpt><trkpt lat="43.7471183" lon="12.26892"><ele>897.0</ele><time>2026-03-22T09:35:05.574Z</time></trkpt><trkpt lat="43.7470867" lon="12.2691733"><ele>899.3333333333333</ele><time>2026-03-22T09:35:06.574Z</time></trkpt><trkpt lat="43.7470483" lon="12.269415"><ele>901.6666666666666</ele><time>2026-03-22T09:35:07.574Z</time></trkpt><trkpt lat="43.747" lon="12.2696383"><ele>904.0</ele><time>2026-03-22T09:35:08.574Z</time></trkpt><trkpt lat="43.74694" lon="12.269855"><ele>904.25</ele><time>2026-03-22T09:35:09.574Z</time></trkpt><trkpt lat="43.746875" lon="12.270055"><ele>904.5</ele><time>2026-03-22T09:35:10.574Z</time></trkpt><trkpt lat="43.7468033" lon="12.2702383"><ele>904.75</ele><time>2026-03-22T09:35:11.573Z</time></trkpt><trkpt lat="43.7467317" lon="12.2704"><ele>905.0</ele><time>2026-03-22T09:35:12.573Z</time></trkpt><trkpt lat="43.7466517" lon="12.2705283"><ele>907.5</ele><time>2026-03-22T09:35:13.573Z</time></trkpt><trkpt lat="43.746555" lon="12.2706267"><ele>910.0</ele><time>2026-03-22T09:35:14.573Z</time></trkpt><trkpt lat="43.74643" lon="12.27069"><ele>912.5</ele><time>2026-03-22T09:35:15.574Z</time></trkpt><trkpt lat="43.7462783" lon="12.270715"><ele>915.0</ele><time>2026-03-22T09:35:16.573Z</time></trkpt><trkpt lat="43.7461117" lon="12.27071"><ele>915.0</ele><time>2026-03-22T09:35:17.574Z</time></trkpt><trkpt lat="43.7459367" lon="12.2706967"><ele>915.0</ele><time>2026-03-22T09:35:18.574Z</time></trkpt><trkpt lat="43.7457683" lon="12.2706667"><ele>915.0</ele><time>2026-03-22T09:35:19.574Z</time></trkpt><trkpt lat="43.7456183" lon="12.2706433"><ele>915.0</ele><time>2026-03-22T09:35:20.574Z</time></trkpt><trkpt lat="43.7454833" lon="12.2706283"><ele>915.0</ele><time>2026-03-22T09:35:21.574Z</time></trkpt><trkpt lat="43.74537" lon="12.2706183"><ele>915.0</ele><time>2026-03-22T09:35:22.574Z</time></trkpt><trkpt lat="43.7452733" lon="12.2705717"><ele>915.0</ele><time>2026-03-22T09:35:23.573Z</time></trkpt><trkpt lat="43.7451867" lon="12.27048"><ele>916.6666666666667</ele><time>2026-03-22T09:35:24.573Z</time></trkpt><trkpt lat="43.7451083" lon="12.270325"><ele>918.3333333333334</ele><time>2026-03-22T09:35:25.573Z</time></trkpt><trkpt lat="43.7450433" lon="12.2701017"><ele>920.0</ele><time>2026-03-22T09:35:26.574Z</time></trkpt><trkpt lat="43.7449817" lon="12.2698417"><ele>921.0</ele><time>2026-03-22T09:35:27.573Z</time></trkpt><trkpt lat="43.744905" lon="12.2695783"><ele>922.0</ele><time>2026-03-22T09:35:28.574Z</time></trkpt><trkpt lat="43.7448367" lon="12.2693483"><ele>923.0</ele><time>2026-03-22T09:35:29.574Z</time></trkpt><trkpt lat="43.74479" lon="12.2691367"><ele>923.0</ele><time>2026-03-22T09:35:30.574Z</time></trkpt><trkpt lat="43.74477" lon="12.26895"><ele>923.0</ele><time>2026-03-22T09:35:31.574Z</time></trkpt><trkpt lat="43.7447467" lon="12.2687883"><ele>923.0</ele><time>2026-03-22T09:35:32.574Z</time></trkpt><trkpt lat="43.7446767" lon="12.2686383"><ele>923.0</ele><time>2026-03-22T09:35:33.574Z</time></trkpt><trkpt lat="43.7445633" lon="12.2684783"><ele>923.0</ele><time>2026-03-22T09:35:34.573Z</time></trkpt><trkpt lat="43.7444367" lon="12.2683117"><ele>923.0</ele><time>2026-03-22T09:35:35.574Z</time></trkpt><trkpt lat="43.7443217" lon="12.2681417"><ele>923.0</ele><time>2026-03-22T09:35:36.574Z</time></trkpt><trkpt lat="43.74422" lon="12.2679817"><ele>926.25</ele><time>2026-03-22T09:35:37.574Z</time></trkpt><trkpt lat="43.7441283" lon="12.2678433"><ele>929.5</ele><time>2026-03-22T09:35:38.574Z</time></trkpt><trkpt lat="43.7440417" lon="12.2677133"><ele>932.75</ele><time>2026-03-22T09:35:39.573Z</time></trkpt><trkpt lat="43.743965" lon="12.2676183"><ele>936.0</ele><time>2026-03-22T09:35:40.573Z</time></trkpt><trkpt lat="43.743885" lon="12.2675467"><ele>936.0</ele><time>2026-03-22T09:35:41.574Z</time></trkpt><trkpt lat="43.743795" lon="12.2675067"><ele>936.0</ele><time>2026-03-22T09:35:42.574Z</time></trkpt><trkpt lat="43.7436917" lon="12.26751"><ele>936.0</ele><time>2026-03-22T09:35:43.573Z</time></trkpt><trkpt lat="43.743575" lon="12.2675517"><ele>936.0</ele><time>2026-03-22T09:35:44.573Z</time></trkpt><trkpt lat="43.7434367" lon="12.2676433"><ele>935.6666666666667</ele><time>2026-03-22T09:35:45.574Z</time></trkpt><trkpt lat="43.7432983" lon="12.26778"><ele>935.3333333333334</ele><time>2026-03-22T09:35:46.573Z</time></trkpt><trkpt lat="43.7431567" lon="12.267935"><ele>935.0</ele><time>2026-03-22T09:35:47.574Z</time></trkpt><trkpt lat="43.743005" lon="12.26809"><ele>934.6666666666667</ele><time>2026-03-22T09:35:48.574Z</time></trkpt><trkpt lat="43.7428483" lon="12.2682383"><ele>934.3333333333333</ele><time>2026-03-22T09:35:49.574Z</time></trkpt><trkpt lat="43.7426917" lon="12.2683867"><ele>934.0</ele><time>2026-03-22T09:35:50.574Z</time></trkpt><trkpt lat="43.7425233" lon="12.2685083"><ele>934.0</ele><time>2026-03-22T09:35:51.574Z</time></trkpt><trkpt lat="43.7423317" lon="12.26862"><ele>934.0</ele><time>2026-03-22T09:35:52.574Z</time></trkpt><trkpt lat="43.7421333" lon="12.268715"><ele>934.0</ele><time>2026-03-22T09:35:53.574Z</time></trkpt><trkpt lat="43.741935" lon="12.268785"><ele>934.0</ele><time>2026-03-22T09:35:54.574Z</time></trkpt><trkpt lat="43.74176" lon="12.2688383"><ele>934.0</ele><time>2026-03-22T09:35:55.574Z</time></trkpt><trkpt lat="43.7416067" lon="12.2688783"><ele>934.0</ele><time>2026-03-22T09:35:56.574Z</time></trkpt><trkpt lat="43.741455" lon="12.26888"><ele>934.0</ele><time>2026-03-22T09:35:57.573Z</time></trkpt><trkpt lat="43.7412933" lon="12.268835"><ele>934.0</ele><time>2026-03-22T09:35:58.573Z</time></trkpt><trkpt lat="43.74112" lon="12.2687517"><ele>934.0</ele><time>2026-03-22T09:35:59.574Z</time></trkpt><trkpt lat="43.740945" lon="12.26867"><ele>934.6666666666666</ele><time>2026-03-22T09:36:00.574Z</time></trkpt><trkpt lat="43.7407817" lon="12.2686"><ele>935.3333333333333</ele><time>2026-03-22T09:36:01.573Z</time></trkpt><trkpt lat="43.7406133" lon="12.2685283"><ele>936.0</ele><time>2026-03-22T09:36:02.573Z</time></trkpt><trkpt lat="43.7404533" lon="12.268445"><ele>936.0</ele><time>2026-03-22T09:36:03.574Z</time></trkpt><trkpt lat="43.7403" lon="12.2683417"><ele>936.0</ele><time>2026-03-22T09:36:04.574Z</time></trkpt><trkpt lat="43.7401517" lon="12.26821"><ele>936.0</ele><time>2026-03-22T09:36:05.573Z</time></trkpt><trkpt lat="43.7400267" lon="12.268065"><ele>936.75</ele><time>2026-03-22T09:36:06.574Z</time></trkpt><trkpt lat="43.7399217" lon="12.2679233"><ele>937.5</ele><time>2026-03-22T09:36:07.574Z</time></trkpt><trkpt lat="43.739835" lon="12.2677983"><ele>938.25</ele><time>2026-03-22T09:36:08.574Z</time></trkpt><trkpt lat="43.7397617" lon="12.2676967"><ele>939.0</ele><time>2026-03-22T09:36:09.574Z</time></trkpt><trkpt lat="43.739695" lon="12.2676233"><ele>939.0</ele><time>2026-03-22T09:36:10.574Z</time></trkpt><trkpt lat="43.7396217" lon="12.2675683"><ele>939.0</ele><time>2026-03-22T09:36:11.573Z</time></trkpt><trkpt lat="43.7395167" lon="12.2675517"><ele>939.0</ele><time>2026-03-22T09:36:12.573Z</time></trkpt><trkpt lat="43.739375" lon="12.26758"><ele>939.0</ele><time>2026-03-22T09:36:13.573Z</time></trkpt><trkpt lat="43.739195" lon="12.2676367"><ele>938.3333333333333</ele><time>2026-03-22T09:36:14.574Z</time></trkpt><trkpt lat="43.73899" lon="12.2677183"><ele>937.6666666666666</ele><time>2026-03-22T09:36:15.574Z</time></trkpt><trkpt lat="43.738805" lon="12.2677683"><ele>937.0</ele><time>2026-03-22T09:36:16.573Z</time></trkpt><trkpt lat="43.738655" lon="12.267805"><ele>937.25</ele><time>2026-03-22T09:36:17.573Z</time></trkpt><trkpt lat="43.7385267" lon="12.2678017"><ele>937.5</ele><time>2026-03-22T09:36:18.574Z</time></trkpt><trkpt lat="43.7384" lon="12.2677517"><ele>937.75</ele><time>2026-03-22T09:36:19.574Z</time></trkpt><trkpt lat="43.738255" lon="12.2676533"><ele>938.0</ele><time>2026-03-22T09:36:20.574Z</time></trkpt><trkpt lat="43.7380867" lon="12.2675367"><ele>938.0</ele><time>2026-03-22T09:36:21.573Z</time></trkpt><trkpt lat="43.737905" lon="12.2674217"><ele>938.0</ele><time>2026-03-22T09:36:22.573Z</time></trkpt><trkpt lat="43.7377333" lon="12.2673283"><ele>938.0</ele><time>2026-03-22T09:36:23.573Z</time></trkpt><trkpt lat="43.7375883" lon="12.267235"><ele>939.75</ele><time>2026-03-22T09:36:24.574Z</time></trkpt><trkpt lat="43.7374633" lon="12.26715"><ele>941.5</ele><time>2026-03-22T09:36:25.573Z</time></trkpt><trkpt lat="43.7373633" lon="12.2671"><ele>943.25</ele><time>2026-03-22T09:36:26.573Z</time></trkpt><trkpt lat="43.7372617" lon="12.267075"><ele>945.0</ele><time>2026-03-22T09:36:27.573Z</time></trkpt><trkpt lat="43.7371467" lon="12.2670767"><ele>945.0</ele><time>2026-03-22T09:36:28.574Z</time></trkpt><trkpt lat="43.737005" lon="12.26708"><ele>945.0</ele><time>2026-03-22T09:36:29.574Z</time></trkpt><trkpt lat="43.7368583" lon="12.267085"><ele>945.0</ele><time>2026-03-22T09:36:30.573Z</time></trkpt><trkpt lat="43.73673" lon="12.2670983"><ele>945.0</ele><time>2026-03-22T09:36:31.574Z</time></trkpt><trkpt lat="43.7366367" lon="12.2671117"><ele>944.3333333333334</ele><time>2026-03-22T09:36:32.574Z</time></trkpt><trkpt lat="43.7365517" lon="12.2671583"><ele>943.6666666666667</ele><time>2026-03-22T09:36:33.574Z</time></trkpt><trkpt lat="43.7364783" lon="12.2672483"><ele>943.0</ele><time>2026-03-22T09:36:34.574Z</time></trkpt><trkpt lat="43.7364233" lon="12.2673367"><ele>942.3333333333334</ele><time>2026-03-22T09:36:35.574Z</time></trkpt><trkpt lat="43.7363683" lon="12.2673933"><ele>941.6666666666667</ele><time>2026-03-22T09:36:36.574Z</time></trkpt><trkpt lat="43.7363017" lon="12.267415"><ele>941.0</ele><time>2026-03-22T09:36:37.574Z</time></trkpt><trkpt lat="43.736215" lon="12.267365"><ele>940.75</ele><time>2026-03-22T09:36:38.574Z</time></trkpt><trkpt lat="43.7361167" lon="12.2672667"><ele>940.5</ele><time>2026-03-22T09:36:39.574Z</time></trkpt><trkpt lat="43.7360017" lon="12.2671517"><ele>940.25</ele><time>2026-03-22T09:36:40.574Z</time></trkpt><trkpt lat="43.7358517" lon="12.267055"><ele>940.0</ele><time>2026-03-22T09:36:41.574Z</time></trkpt><trkpt lat="43.7356583" lon="12.2669867"><ele>936.3333333333333</ele><time>2026-03-22T09:36:42.573Z</time></trkpt><trkpt lat="43.7354783" lon="12.26692"><ele>932.6666666666667</ele><time>2026-03-22T09:36:43.574Z</time></trkpt><trkpt lat="43.7353017" lon="12.2668317"><ele>929.0</ele><time>2026-03-22T09:36:44.573Z</time></trkpt><trkpt lat="43.73513" lon="12.2667483"><ele>925.6666666666667</ele><time>2026-03-22T09:36:45.573Z</time></trkpt><trkpt lat="43.7349517" lon="12.26668"><ele>922.3333333333333</ele><time>2026-03-22T09:36:46.574Z</time></trkpt><trkpt lat="43.73476" lon="12.2666267"><ele>919.0</ele><time>2026-03-22T09:36:47.574Z</time></trkpt><trkpt lat="43.7345583" lon="12.26658"><ele>916.0</ele><time>2026-03-22T09:36:48.573Z</time></trkpt><trkpt lat="43.7343433" lon="12.2665317"><ele>913.0</ele><time>2026-03-22T09:36:49.573Z</time></trkpt><trkpt lat="43.7341233" lon="12.266485"><ele>910.0</ele><time>2026-03-22T09:36:50.574Z</time></trkpt><trkpt lat="43.733905" lon="12.266425"><ele>910.0</ele><time>2026-03-22T09:36:51.574Z</time></trkpt><trkpt lat="43.7337083" lon="12.2663717"><ele>910.0</ele><time>2026-03-22T09:36:52.573Z</time></trkpt><trkpt lat="43.7335167" lon="12.2663233"><ele>910.0</ele><time>2026-03-22T09:36:53.574Z</time></trkpt><trkpt lat="43.733325" lon="12.2662933"><ele>907.0</ele><time>2026-03-22T09:36:54.574Z</time></trkpt><trkpt lat="43.73314" lon="12.2662817"><ele>904.0</ele><time>2026-03-22T09:36:55.574Z</time></trkpt><trkpt lat="43.7329683" lon="12.2662783"><ele>901.0</ele><time>2026-03-22T09:36:56.574Z</time></trkpt><trkpt lat="43.732815" lon="12.26626"><ele>898.0</ele><time>2026-03-22T09:36:57.573Z</time></trkpt><trkpt lat="43.7326733" lon="12.2662"><ele>895.0</ele><time>2026-03-22T09:36:58.574Z</time></trkpt><trkpt lat="43.7325183" lon="12.2661067"><ele>892.0</ele><time>2026-03-22T09:36:59.574Z</time></trkpt><trkpt lat="43.732345" lon="12.265995"><ele>892.0</ele><time>2026-03-22T09:37:00.574Z</time></trkpt><trkpt lat="43.732155" lon="12.265885"><ele>892.0</ele><time>2026-03-22T09:37:01.574Z</time></trkpt><trkpt lat="43.731975" lon="12.2657733"><ele>892.0</ele><time>2026-03-22T09:37:02.573Z</time></trkpt><trkpt lat="43.7318" lon="12.2656683"><ele>890.6666666666666</ele><time>2026-03-22T09:37:03.573Z</time></trkpt><trkpt lat="43.7316283" lon="12.265555"><ele>889.3333333333333</ele><time>2026-03-22T09:37:04.574Z</time></trkpt><trkpt lat="43.7314617" lon="12.2654233"><ele>888.0</ele><time>2026-03-22T09:37:05.573Z</time></trkpt><trkpt lat="43.7313017" lon="12.2652783"><ele>888.0</ele><time>2026-03-22T09:37:06.574Z</time></trkpt><trkpt lat="43.73116" lon="12.26513"><ele>888.0</ele><time>2026-03-22T09:37:07.574Z</time></trkpt><trkpt lat="43.7310283" lon="12.264995"><ele>888.0</ele><time>2026-03-22T09:37:08.573Z</time></trkpt><trkpt lat="43.7309067" lon="12.2648717"><ele>886.25</ele><time>2026-03-22T09:37:09.574Z</time></trkpt><trkpt lat="43.7307883" lon="12.2647633"><ele>884.5</ele><time>2026-03-22T09:37:10.573Z</time></trkpt><trkpt lat="43.7306583" lon="12.2646683"><ele>882.75</ele><time>2026-03-22T09:37:11.574Z</time></trkpt><trkpt lat="43.7305267" lon="12.2645667"><ele>881.0</ele><time>2026-03-22T09:37:12.574Z</time></trkpt><trkpt lat="43.7304017" lon="12.26447"><ele>881.0</ele><time>2026-03-22T09:37:13.573Z</time></trkpt><trkpt lat="43.730275" lon="12.264405"><ele>881.0</ele><time>2026-03-22T09:37:14.574Z</time></trkpt><trkpt lat="43.7301433" lon="12.264365"><ele>881.0</ele><time>2026-03-22T09:37:15.573Z</time></trkpt><trkpt lat="43.7299933" lon="12.264375"><ele>881.0</ele><time>2026-03-22T09:37:16.573Z</time></trkpt><trkpt lat="43.72982" lon="12.264415"><ele>877.3333333333334</ele><time>2026-03-22T09:37:17.574Z</time></trkpt><trkpt lat="43.7296383" lon="12.26446"><ele>873.6666666666667</ele><time>2026-03-22T09:37:18.574Z</time></trkpt><trkpt lat="43.72947" lon="12.2645017"><ele>870.0</ele><time>2026-03-22T09:37:19.574Z</time></trkpt><trkpt lat="43.729305" lon="12.26455"><ele>868.0</ele><time>2026-03-22T09:37:20.573Z</time></trkpt><trkpt lat="43.7291367" lon="12.2646333"><ele>866.0</ele><time>2026-03-22T09:37:21.574Z</time></trkpt><trkpt lat="43.728975" lon="12.264765"><ele>864.0</ele><time>2026-03-22T09:37:22.574Z</time></trkpt><trkpt lat="43.728795" lon="12.2649"><ele>864.0</ele><time>2026-03-22T09:37:23.574Z</time></trkpt><trkpt lat="43.7286083" lon="12.2650333"><ele>864.0</ele><time>2026-03-22T09:37:24.573Z</time></trkpt><trkpt lat="43.7284217" lon="12.2651517"><ele>864.0</ele><time>2026-03-22T09:37:25.574Z</time></trkpt><trkpt lat="43.728255" lon="12.265265"><ele>861.6666666666667</ele><time>2026-03-22T09:37:26.574Z</time></trkpt><trkpt lat="43.72809" lon="12.2653633"><ele>859.3333333333334</ele><time>2026-03-22T09:37:27.574Z</time></trkpt><trkpt lat="43.727925" lon="12.26544"><ele>857.0</ele><time>2026-03-22T09:37:28.574Z</time></trkpt><trkpt lat="43.72775" lon="12.2654867"><ele>854.0</ele><time>2026-03-22T09:37:29.574Z</time></trkpt><trkpt lat="43.727565" lon="12.2655"><ele>851.0</ele><time>2026-03-22T09:37:30.574Z</time></trkpt><trkpt lat="43.7273883" lon="12.26552"><ele>848.0</ele><time>2026-03-22T09:37:31.573Z</time></trkpt><trkpt lat="43.7272167" lon="12.2655617"><ele>847.6666666666667</ele><time>2026-03-22T09:37:32.574Z</time></trkpt><trkpt lat="43.7270433" lon="12.265645"><ele>847.3333333333333</ele><time>2026-03-22T09:37:33.574Z</time></trkpt><trkpt lat="43.726885" lon="12.265755"><ele>847.0</ele><time>2026-03-22T09:37:34.573Z</time></trkpt><trkpt lat="43.7267383" lon="12.2658733"><ele>845.0</ele><time>2026-03-22T09:37:35.574Z</time></trkpt><trkpt lat="43.7266067" lon="12.265985"><ele>843.0</ele><time>2026-03-22T09:37:36.574Z</time></trkpt><trkpt lat="43.7264883" lon="12.2661017"><ele>841.0</ele><time>2026-03-22T09:37:37.574Z</time></trkpt><trkpt lat="43.7263667" lon="12.2662133"><ele>839.0</ele><time>2026-03-22T09:37:38.574Z</time></trkpt><trkpt lat="43.7262317" lon="12.26631"><ele>839.0</ele><time>2026-03-22T09:37:39.574Z</time></trkpt><trkpt lat="43.7260817" lon="12.2663817"><ele>839.0</ele><time>2026-03-22T09:37:40.574Z</time></trkpt><trkpt lat="43.725935" lon="12.266455"><ele>839.0</ele><time>2026-03-22T09:37:41.573Z</time></trkpt><trkpt lat="43.72579" lon="12.2665317"><ele>836.6666666666667</ele><time>2026-03-22T09:37:42.574Z</time></trkpt><trkpt lat="43.72565" lon="12.2666433"><ele>834.3333333333333</ele><time>2026-03-22T09:37:43.574Z</time></trkpt><trkpt lat="43.7255217" lon="12.26678"><ele>832.0</ele><time>2026-03-22T09:37:44.574Z</time></trkpt><trkpt lat="43.7254" lon="12.26694"><ele>832.0</ele><time>2026-03-22T09:37:45.574Z</time></trkpt><trkpt lat="43.725295" lon="12.267105"><ele>832.0</ele><time>2026-03-22T09:37:46.574Z</time></trkpt><trkpt lat="43.7251883" lon="12.267275"><ele>832.0</ele><time>2026-03-22T09:37:47.574Z</time></trkpt><trkpt lat="43.725085" lon="12.2674417"><ele>829.5</ele><time>2026-03-22T09:37:48.573Z</time></trkpt><trkpt lat="43.72498" lon="12.2675917"><ele>827.0</ele><time>2026-03-22T09:37:49.573Z</time></trkpt><trkpt lat="43.7248733" lon="12.267715"><ele>824.5</ele><time>2026-03-22T09:37:50.574Z</time></trkpt><trkpt lat="43.724775" lon="12.2678017"><ele>822.0</ele><time>2026-03-22T09:37:51.574Z</time></trkpt><trkpt lat="43.724685" lon="12.2678783"><ele>822.0</ele><time>2026-03-22T09:37:52.573Z</time></trkpt><trkpt lat="43.72461" lon="12.2679367"><ele>822.0</ele><time>2026-03-22T09:37:53.574Z</time></trkpt><trkpt lat="43.7245217" lon="12.267975"><ele>822.0</ele><time>2026-03-22T09:37:54.573Z</time></trkpt><trkpt lat="43.7244333" lon="12.26799"><ele>822.0</ele><time>2026-03-22T09:37:55.574Z</time></trkpt><trkpt lat="43.7243333" lon="12.267965"><ele>822.0</ele><time>2026-03-22T09:37:56.574Z</time></trkpt><trkpt lat="43.72424" lon="12.2679233"><ele>820.0</ele><time>2026-03-22T09:37:57.574Z</time></trkpt><trkpt lat="43.7241667" lon="12.2678733"><ele>818.0</ele><time>2026-03-22T09:37:58.574Z</time></trkpt><trkpt lat="43.724115" lon="12.2678133"><ele>816.0</ele><time>2026-03-22T09:37:59.573Z</time></trkpt><trkpt lat="43.7240917" lon="12.2677267"><ele>814.0</ele><time>2026-03-22T09:38:00.574Z</time></trkpt><trkpt lat="43.7241067" lon="12.2676233"><ele>812.0</ele><time>2026-03-22T09:38:01.573Z</time></trkpt><trkpt lat="43.7241533" lon="12.2675083"><ele>810.0</ele><time>2026-03-22T09:38:02.574Z</time></trkpt><trkpt lat="43.7242183" lon="12.2673833"><ele>812.5</ele><time>2026-03-22T09:38:03.573Z</time></trkpt><trkpt lat="43.7242917" lon="12.2672217"><ele>815.0</ele><time>2026-03-22T09:38:04.574Z</time></trkpt><trkpt lat="43.7243417" lon="12.2670533"><ele>817.5</ele><time>2026-03-22T09:38:05.574Z</time></trkpt><trkpt lat="43.7243917" lon="12.2669117"><ele>820.0</ele><time>2026-03-22T09:38:06.575Z</time></trkpt><trkpt lat="43.7244433" lon="12.2667783"><ele>820.0</ele><time>2026-03-22T09:38:07.574Z</time></trkpt><trkpt lat="43.7244917" lon="12.26665"><ele>820.0</ele><time>2026-03-22T09:38:08.574Z</time></trkpt><trkpt lat="43.7245383" lon="12.2665283"><ele>820.0</ele><time>2026-03-22T09:38:09.574Z</time></trkpt><trkpt lat="43.724585" lon="12.26641"><ele>820.0</ele><time>2026-03-22T09:38:10.575Z</time></trkpt><trkpt lat="43.7246483" lon="12.2663"><ele>820.0</ele><time>2026-03-22T09:38:11.574Z</time></trkpt><trkpt lat="43.7247417" lon="12.266185"><ele>815.0</ele><time>2026-03-22T09:38:12.574Z</time></trkpt><trkpt lat="43.724865" lon="12.2660683"><ele>810.0</ele><time>2026-03-22T09:38:13.575Z</time></trkpt><trkpt lat="43.7249967" lon="12.2659483"><ele>805.0</ele><time>2026-03-22T09:38:14.574Z</time></trkpt><trkpt lat="43.7251233" lon="12.2658383"><ele>805.25</ele><time>2026-03-22T09:38:15.574Z</time></trkpt><trkpt lat="43.7252383" lon="12.265735"><ele>805.5</ele><time>2026-03-22T09:38:16.575Z</time></trkpt><trkpt lat="43.7253433" lon="12.2656317"><ele>805.75</ele><time>2026-03-22T09:38:17.575Z</time></trkpt><trkpt lat="43.72544" lon="12.2655017"><ele>806.0</ele><time>2026-03-22T09:38:18.575Z</time></trkpt><trkpt lat="43.7255267" lon="12.2653433"><ele>806.0</ele><time>2026-03-22T09:38:19.575Z</time></trkpt><trkpt lat="43.7255867" lon="12.2651583"><ele>806.0</ele><time>2026-03-22T09:38:20.574Z</time></trkpt><trkpt lat="43.72564" lon="12.2649733"><ele>806.0</ele><time>2026-03-22T09:38:21.575Z</time></trkpt><trkpt lat="43.7256767" lon="12.2648"><ele>806.0</ele><time>2026-03-22T09:38:22.575Z</time></trkpt><trkpt lat="43.7257167" lon="12.26466"><ele>803.6666666666667</ele><time>2026-03-22T09:38:23.574Z</time></trkpt><trkpt lat="43.72576" lon="12.26454"><ele>801.3333333333334</ele><time>2026-03-22T09:38:24.575Z</time></trkpt><trkpt lat="43.7257933" lon="12.2644433"><ele>799.0</ele><time>2026-03-22T09:38:25.575Z</time></trkpt><trkpt lat="43.7258167" lon="12.2643467"><ele>796.6666666666667</ele><time>2026-03-22T09:38:26.574Z</time></trkpt><trkpt lat="43.725785" lon="12.2642533"><ele>794.3333333333334</ele><time>2026-03-22T09:38:27.575Z</time></trkpt><trkpt lat="43.7256983" lon="12.2641783"><ele>792.0</ele><time>2026-03-22T09:38:28.575Z</time></trkpt><trkpt lat="43.7255967" lon="12.26412"><ele>792.0</ele><time>2026-03-22T09:38:29.574Z</time></trkpt><trkpt lat="43.7254967" lon="12.2640817"><ele>792.0</ele><time>2026-03-22T09:38:30.575Z</time></trkpt><trkpt lat="43.72539" lon="12.264065"><ele>792.0</ele><time>2026-03-22T09:38:31.575Z</time></trkpt><trkpt lat="43.7252817" lon="12.264105"><ele>792.0</ele><time>2026-03-22T09:38:32.574Z</time></trkpt><trkpt lat="43.7251683" lon="12.2641883"><ele>790.25</ele><time>2026-03-22T09:38:33.575Z</time></trkpt><trkpt lat="43.7250567" lon="12.2643083"><ele>788.5</ele><time>2026-03-22T09:38:34.574Z</time></trkpt><trkpt lat="43.7249467" lon="12.2644283"><ele>786.75</ele><time>2026-03-22T09:38:35.575Z</time></trkpt><trkpt lat="43.7248267" lon="12.26456"><ele>785.0</ele><time>2026-03-22T09:38:36.575Z</time></trkpt><trkpt lat="43.7247233" lon="12.2646533"><ele>785.0</ele><time>2026-03-22T09:38:37.575Z</time></trkpt><trkpt lat="43.7246283" lon="12.2647583"><ele>785.0</ele><time>2026-03-22T09:38:38.574Z</time></trkpt><trkpt lat="43.724525" lon="12.2648533"><ele>785.0</ele><time>2026-03-22T09:38:39.575Z</time></trkpt><trkpt lat="43.7244067" lon="12.2649467"><ele>785.0</ele><time>2026-03-22T09:38:40.574Z</time></trkpt><trkpt lat="43.7242667" lon="12.265055"><ele>785.6666666666667</ele><time>2026-03-22T09:38:41.575Z</time></trkpt><trkpt lat="43.7241183" lon="12.2651667"><ele>786.3333333333333</ele><time>2026-03-22T09:38:42.575Z</time></trkpt><trkpt lat="43.7239633" lon="12.26529"><ele>787.0</ele><time>2026-03-22T09:38:43.575Z</time></trkpt><trkpt lat="43.7238183" lon="12.26541"><ele>787.0</ele><time>2026-03-22T09:38:44.575Z</time></trkpt><trkpt lat="43.7236767" lon="12.2655283"><ele>787.0</ele><time>2026-03-22T09:38:45.575Z</time></trkpt><trkpt lat="43.723535" lon="12.265625"><ele>787.0</ele><time>2026-03-22T09:38:46.575Z</time></trkpt><trkpt lat="43.7234017" lon="12.2657167"><ele>785.5</ele><time>2026-03-22T09:38:47.575Z</time></trkpt><trkpt lat="43.723265" lon="12.26579"><ele>784.0</ele><time>2026-03-22T09:38:48.575Z</time></trkpt><trkpt lat="43.72314" lon="12.26585"><ele>782.5</ele><time>2026-03-22T09:38:49.575Z</time></trkpt><trkpt lat="43.7230183" lon="12.2659167"><ele>781.0</ele><time>2026-03-22T09:38:50.575Z</time></trkpt><trkpt lat="43.7228883" lon="12.2659883"><ele>781.0</ele><time>2026-03-22T09:38:51.574Z</time></trkpt><trkpt lat="43.7227533" lon="12.2660683"><ele>781.0</ele><time>2026-03-22T09:38:52.575Z</time></trkpt><trkpt lat="43.722625" lon="12.2661383"><ele>781.0</ele><time>2026-03-22T09:38:53.574Z</time></trkpt><trkpt lat="43.7224967" lon="12.26621"><ele>781.0</ele><time>2026-03-22T09:38:54.574Z</time></trkpt><trkpt lat="43.7223733" lon="12.2662733"><ele>780.5</ele><time>2026-03-22T09:38:55.574Z</time></trkpt><trkpt lat="43.7222517" lon="12.2663367"><ele>780.0</ele><time>2026-03-22T09:38:56.575Z</time></trkpt><trkpt lat="43.7221367" lon="12.26639"><ele>779.5</ele><time>2026-03-22T09:38:57.574Z</time></trkpt><trkpt lat="43.7220067" lon="12.26643"><ele>779.0</ele><time>2026-03-22T09:38:58.575Z</time></trkpt><trkpt lat="43.721855" lon="12.26647"><ele>774.0</ele><time>2026-03-22T09:38:59.575Z</time></trkpt><trkpt lat="43.7217017" lon="12.2665183"><ele>769.0</ele><time>2026-03-22T09:39:00.574Z</time></trkpt><trkpt lat="43.7215583" lon="12.266565"><ele>764.0</ele><time>2026-03-22T09:39:01.575Z</time></trkpt><trkpt lat="43.72142" lon="12.2666433"><ele>764.0</ele><time>2026-03-22T09:39:02.574Z</time></trkpt><trkpt lat="43.7212933" lon="12.26676"><ele>764.0</ele><time>2026-03-22T09:39:03.574Z</time></trkpt><trkpt lat="43.7211733" lon="12.2669017"><ele>764.0</ele><time>2026-03-22T09:39:04.575Z</time></trkpt><trkpt lat="43.7210667" lon="12.26703"><ele>765.0</ele><time>2026-03-22T09:39:05.575Z</time></trkpt><trkpt lat="43.7209683" lon="12.2671483"><ele>766.0</ele><time>2026-03-22T09:39:06.574Z</time></trkpt><trkpt lat="43.7208883" lon="12.2672417"><ele>767.0</ele><time>2026-03-22T09:39:07.575Z</time></trkpt><trkpt lat="43.7208067" lon="12.267315"><ele>768.0</ele><time>2026-03-22T09:39:08.575Z</time></trkpt><trkpt lat="43.720715" lon="12.2673567"><ele>769.0</ele><time>2026-03-22T09:39:09.575Z</time></trkpt><trkpt lat="43.7206083" lon="12.2673733"><ele>764.5</ele><time>2026-03-22T09:39:10.575Z</time></trkpt><trkpt lat="43.7205033" lon="12.2673983"><ele>760.0</ele><time>2026-03-22T09:39:11.575Z</time></trkpt><trkpt lat="43.72038" lon="12.26747"><ele>755.5</ele><time>2026-03-22T09:39:12.575Z</time></trkpt><trkpt lat="43.720275" lon="12.2675683"><ele>751.0</ele><time>2026-03-22T09:39:13.574Z</time></trkpt><trkpt lat="43.7201867" lon="12.2676667"><ele>751.0</ele><time>2026-03-22T09:39:14.575Z</time></trkpt><trkpt lat="43.720085" lon="12.267735"><ele>751.0</ele><time>2026-03-22T09:39:15.574Z</time></trkpt><trkpt lat="43.719975" lon="12.2677667"><ele>751.0</ele><time>2026-03-22T09:39:16.575Z</time></trkpt><trkpt lat="43.719845" lon="12.2677683"><ele>751.0</ele><time>2026-03-22T09:39:17.575Z</time></trkpt><trkpt lat="43.7197283" lon="12.26776"><ele>751.0</ele><time>2026-03-22T09:39:18.575Z</time></trkpt><trkpt lat="43.719615" lon="12.2677733"><ele>751.0</ele><time>2026-03-22T09:39:19.575Z</time></trkpt><trkpt lat="43.71951" lon="12.267845"><ele>751.0</ele><time>2026-03-22T09:39:20.575Z</time></trkpt><trkpt lat="43.71941" lon="12.2679683"><ele>751.0</ele><time>2026-03-22T09:39:21.575Z</time></trkpt><trkpt lat="43.7193167" lon="12.26811"><ele>745.75</ele><time>2026-03-22T09:39:22.574Z</time></trkpt><trkpt lat="43.7192267" lon="12.2682433"><ele>740.5</ele><time>2026-03-22T09:39:23.574Z</time></trkpt><trkpt lat="43.71913" lon="12.2683783"><ele>735.25</ele><time>2026-03-22T09:39:24.575Z</time></trkpt><trkpt lat="43.7190383" lon="12.2685033"><ele>730.0</ele><time>2026-03-22T09:39:25.575Z</time></trkpt><trkpt lat="43.71894" lon="12.2686167"><ele>730.0</ele><time>2026-03-22T09:39:26.574Z</time></trkpt><trkpt lat="43.71882" lon="12.268715"><ele>730.0</ele><time>2026-03-22T09:39:27.575Z</time></trkpt><trkpt lat="43.7187033" lon="12.2688033"><ele>730.0</ele><time>2026-03-22T09:39:28.575Z</time></trkpt><trkpt lat="43.7185933" lon="12.268895"><ele>730.0</ele><time>2026-03-22T09:39:29.575Z</time></trkpt><trkpt lat="43.718485" lon="12.2689917"><ele>726.75</ele><time>2026-03-22T09:39:30.575Z</time></trkpt><trkpt lat="43.7183767" lon="12.26909"><ele>723.5</ele><time>2026-03-22T09:39:31.575Z</time></trkpt><trkpt lat="43.7182783" lon="12.2691783"><ele>720.25</ele><time>2026-03-22T09:39:32.574Z</time></trkpt><trkpt lat="43.718175" lon="12.2692533"><ele>717.0</ele><time>2026-03-22T09:39:33.574Z</time></trkpt><trkpt lat="43.71807" lon="12.269335"><ele>717.0</ele><time>2026-03-22T09:39:34.574Z</time></trkpt><trkpt lat="43.71798" lon="12.2694233"><ele>717.0</ele><time>2026-03-22T09:39:35.575Z</time></trkpt><trkpt lat="43.7179" lon="12.269495"><ele>717.0</ele><time>2026-03-22T09:39:36.574Z</time></trkpt><trkpt lat="43.71783" lon="12.2695733"><ele>717.0</ele><time>2026-03-22T09:39:37.575Z</time></trkpt><trkpt lat="43.71778" lon="12.2696567"><ele>717.0</ele><time>2026-03-22T09:39:38.575Z</time></trkpt><trkpt lat="43.7177483" lon="12.2697567"><ele>716.0</ele><time>2026-03-22T09:39:39.575Z</time></trkpt><trkpt lat="43.7177417" lon="12.2698783"><ele>715.0</ele><time>2026-03-22T09:39:40.574Z</time></trkpt><trkpt lat="43.717755" lon="12.2700083"><ele>714.0</ele><time>2026-03-22T09:39:41.574Z</time></trkpt><trkpt lat="43.7177733" lon="12.27014"><ele>713.0</ele><time>2026-03-22T09:39:42.575Z</time></trkpt><trkpt lat="43.717785" lon="12.2702733"><ele>712.0</ele><time>2026-03-22T09:39:43.575Z</time></trkpt><trkpt lat="43.7177833" lon="12.2704083"><ele>712.0</ele><time>2026-03-22T09:39:44.574Z</time></trkpt><trkpt lat="43.7177833" lon="12.2705533"><ele>712.0</ele><time>2026-03-22T09:39:45.574Z</time></trkpt><trkpt lat="43.7177667" lon="12.270695"><ele>712.0</ele><time>2026-03-22T09:39:46.575Z</time></trkpt><trkpt lat="43.7177467" lon="12.2708183"><ele>712.0</ele><time>2026-03-22T09:39:47.574Z</time></trkpt><trkpt lat="43.71775" lon="12.2709217"><ele>712.0</ele><time>2026-03-22T09:39:48.575Z</time></trkpt><trkpt lat="43.71778" lon="12.2710183"><ele>709.2</ele><time>2026-03-22T09:39:49.575Z</time></trkpt><trkpt lat="43.71783" lon="12.2711017"><ele>706.4000000000001</ele><time>2026-03-22T09:39:50.575Z</time></trkpt><trkpt lat="43.7178817" lon="12.27116"><ele>703.5999999999999</ele><time>2026-03-22T09:39:51.575Z</time></trkpt><trkpt lat="43.7179417" lon="12.2713067"><ele>700.8</ele><time>2026-03-22T09:39:53.575Z</time></trkpt><trkpt lat="43.7179133" lon="12.27142"><ele>698.0</ele><time>2026-03-22T09:39:54.574Z</time></trkpt><trkpt lat="43.7178417" lon="12.2715283"><ele>694.0</ele><time>2026-03-22T09:39:55.574Z</time></trkpt><trkpt lat="43.717755" lon="12.27162"><ele>690.0</ele><time>2026-03-22T09:39:56.574Z</time></trkpt><trkpt lat="43.71766" lon="12.2716867"><ele>686.0</ele><time>2026-03-22T09:39:57.574Z</time></trkpt><trkpt lat="43.7175617" lon="12.2717233"><ele>682.0</ele><time>2026-03-22T09:39:58.574Z</time></trkpt><trkpt lat="43.7174433" lon="12.27172"><ele>678.0</ele><time>2026-03-22T09:39:59.575Z</time></trkpt><trkpt lat="43.717335" lon="12.2717133"><ele>678.0</ele><time>2026-03-22T09:40:00.575Z</time></trkpt><trkpt lat="43.7172417" lon="12.271695"><ele>678.0</ele><time>2026-03-22T09:40:01.574Z</time></trkpt><trkpt lat="43.7171567" lon="12.2716867"><ele>678.0</ele><time>2026-03-22T09:40:02.574Z</time></trkpt><trkpt lat="43.7170817" lon="12.2717033"><ele>678.0</ele><time>2026-03-22T09:40:03.575Z</time></trkpt><trkpt lat="43.7170217" lon="12.271765"><ele>678.0</ele><time>2026-03-22T09:40:04.574Z</time></trkpt><trkpt lat="43.716985" lon="12.2718883"><ele>678.0</ele><time>2026-03-22T09:40:05.575Z</time></trkpt><trkpt lat="43.7169633" lon="12.2720667"><ele>673.0</ele><time>2026-03-22T09:40:06.575Z</time></trkpt><trkpt lat="43.716925" lon="12.2722733"><ele>668.0</ele><time>2026-03-22T09:40:07.575Z</time></trkpt><trkpt lat="43.7168683" lon="12.2725"><ele>663.0</ele><time>2026-03-22T09:40:08.574Z</time></trkpt><trkpt lat="43.7168033" lon="12.2727217"><ele>660.6666666666666</ele><time>2026-03-22T09:40:09.574Z</time></trkpt><trkpt lat="43.7167367" lon="12.272935"><ele>658.3333333333333</ele><time>2026-03-22T09:40:10.575Z</time></trkpt><trkpt lat="43.7166717" lon="12.2731317"><ele>656.0</ele><time>2026-03-22T09:40:11.575Z</time></trkpt><trkpt lat="43.716595" lon="12.2733083"><ele>653.0</ele><time>2026-03-22T09:40:12.575Z</time></trkpt><trkpt lat="43.7165" lon="12.273465"><ele>650.0</ele><time>2026-03-22T09:40:13.575Z</time></trkpt><trkpt lat="43.7163833" lon="12.2736267"><ele>647.0</ele><time>2026-03-22T09:40:14.574Z</time></trkpt><trkpt lat="43.71625" lon="12.2737833"><ele>647.0</ele><time>2026-03-22T09:40:15.574Z</time></trkpt><trkpt lat="43.7161117" lon="12.2739283"><ele>647.0</ele><time>2026-03-22T09:40:16.575Z</time></trkpt><trkpt lat="43.71597" lon="12.27407"><ele>647.0</ele><time>2026-03-22T09:40:17.575Z</time></trkpt><trkpt lat="43.71583" lon="12.2742"><ele>642.6666666666666</ele><time>2026-03-22T09:40:18.574Z</time></trkpt><trkpt lat="43.7157067" lon="12.2743467"><ele>638.3333333333334</ele><time>2026-03-22T09:40:19.574Z</time></trkpt><trkpt lat="43.7155983" lon="12.2744967"><ele>634.0</ele><time>2026-03-22T09:40:20.575Z</time></trkpt><trkpt lat="43.715495" lon="12.2746317"><ele>634.0</ele><time>2026-03-22T09:40:21.575Z</time></trkpt><trkpt lat="43.7153933" lon="12.274745"><ele>634.0</ele><time>2026-03-22T09:40:22.575Z</time></trkpt><trkpt lat="43.71531" lon="12.2748383"><ele>634.0</ele><time>2026-03-22T09:40:23.574Z</time></trkpt><trkpt lat="43.7152467" lon="12.274925"><ele>634.0</ele><time>2026-03-22T09:40:24.574Z</time></trkpt><trkpt lat="43.7151733" lon="12.2749767"><ele>634.0</ele><time>2026-03-22T09:40:25.575Z</time></trkpt><trkpt lat="43.71509" lon="12.2749833"><ele>631.6</ele><time>2026-03-22T09:40:26.575Z</time></trkpt><trkpt lat="43.7149933" lon="12.2749583"><ele>629.2</ele><time>2026-03-22T09:40:27.575Z</time></trkpt><trkpt lat="43.7148917" lon="12.2749267"><ele>626.8000000000001</ele><time>2026-03-22T09:40:28.575Z</time></trkpt><trkpt lat="43.71479" lon="12.2749283"><ele>624.4</ele><time>2026-03-22T09:40:29.575Z</time></trkpt><trkpt lat="43.7146817" lon="12.2749833"><ele>622.0</ele><time>2026-03-22T09:40:30.574Z</time></trkpt><trkpt lat="43.7145633" lon="12.2750417"><ele>622.0</ele><time>2026-03-22T09:40:31.574Z</time></trkpt><trkpt lat="43.71443" lon="12.2750783"><ele>622.0</ele><time>2026-03-22T09:40:32.574Z</time></trkpt><trkpt lat="43.7142867" lon="12.2750817"><ele>622.0</ele><time>2026-03-22T09:40:33.575Z</time></trkpt><trkpt lat="43.7141483" lon="12.275055"><ele>622.0</ele><time>2026-03-22T09:40:34.575Z</time></trkpt><trkpt lat="43.7140233" lon="12.27501"><ele>621.0</ele><time>2026-03-22T09:40:35.575Z</time></trkpt><trkpt lat="43.713925" lon="12.27496"><ele>620.0</ele><time>2026-03-22T09:40:36.574Z</time></trkpt><trkpt lat="43.713825" lon="12.27494"><ele>619.0</ele><time>2026-03-22T09:40:37.575Z</time></trkpt><trkpt lat="43.713715" lon="12.2749433"><ele>618.0</ele><time>2026-03-22T09:40:38.575Z</time></trkpt><trkpt lat="43.7135933" lon="12.2749767"><ele>617.0</ele><time>2026-03-22T09:40:39.575Z</time></trkpt><trkpt lat="43.7134683" lon="12.2750217"><ele>615.25</ele><time>2026-03-22T09:40:40.574Z</time></trkpt><trkpt lat="43.7133367" lon="12.2750817"><ele>613.5</ele><time>2026-03-22T09:40:41.575Z</time></trkpt><trkpt lat="43.7132017" lon="12.2751533"><ele>611.75</ele><time>2026-03-22T09:40:42.575Z</time></trkpt><trkpt lat="43.7130817" lon="12.2752367"><ele>610.0</ele><time>2026-03-22T09:40:43.575Z</time></trkpt><trkpt lat="43.71299" lon="12.275315"><ele>610.0</ele><time>2026-03-22T09:40:44.574Z</time></trkpt><trkpt lat="43.7129167" lon="12.2754167"><ele>610.0</ele><time>2026-03-22T09:40:45.575Z</time></trkpt><trkpt lat="43.7128683" lon="12.275525"><ele>610.0</ele><time>2026-03-22T09:40:46.575Z</time></trkpt><trkpt lat="43.712835" lon="12.2756567"><ele>610.0</ele><time>2026-03-22T09:40:47.575Z</time></trkpt><trkpt lat="43.7128267" lon="12.2758067"><ele>610.0</ele><time>2026-03-22T09:40:48.574Z</time></trkpt><trkpt lat="43.7128383" lon="12.2759767"><ele>610.8</ele><time>2026-03-22T09:40:49.575Z</time></trkpt><trkpt lat="43.7128883" lon="12.2761383"><ele>611.6</ele><time>2026-03-22T09:40:50.574Z</time></trkpt><trkpt lat="43.7129283" lon="12.2762617"><ele>612.4</ele><time>2026-03-22T09:40:51.574Z</time></trkpt><trkpt lat="43.7129467" lon="12.276355"><ele>613.2</ele><time>2026-03-22T09:40:52.575Z</time></trkpt><trkpt lat="43.712915" lon="12.2764883"><ele>614.0</ele><time>2026-03-22T09:40:54.575Z</time></trkpt><trkpt lat="43.712805" lon="12.2764633"><ele>614.0</ele><time>2026-03-22T09:40:56.575Z</time></trkpt><trkpt lat="43.7127567" lon="12.27639"><ele>614.0</ele><time>2026-03-22T09:40:57.575Z</time></trkpt><trkpt lat="43.7127167" lon="12.27625"><ele>614.0</ele><time>2026-03-22T09:40:58.575Z</time></trkpt><trkpt lat="43.7126867" lon="12.2761133"><ele>614.0</ele><time>2026-03-22T09:40:59.575Z</time></trkpt><trkpt lat="43.7126733" lon="12.2760117"><ele>614.0</ele><time>2026-03-22T09:41:00.574Z</time></trkpt><trkpt lat="43.7126233" lon="12.2758917"><ele>608.8</ele><time>2026-03-22T09:41:02.575Z</time></trkpt><trkpt lat="43.7125433" lon="12.2759117"><ele>603.5999999999999</ele><time>2026-03-22T09:41:04.575Z</time></trkpt><trkpt lat="43.7125183" lon="12.2760083"><ele>598.4</ele><time>2026-03-22T09:41:05.574Z</time></trkpt><trkpt lat="43.7125033" lon="12.276165"><ele>593.1999999999999</ele><time>2026-03-22T09:41:06.575Z</time></trkpt><trkpt lat="43.7125" lon="12.2763667"><ele>588.0</ele><time>2026-03-22T09:41:07.574Z</time></trkpt><trkpt lat="43.7125083" lon="12.2765833"><ele>586.5</ele><time>2026-03-22T09:41:08.574Z</time></trkpt><trkpt lat="43.7124883" lon="12.2767483"><ele>585.0</ele><time>2026-03-22T09:41:09.575Z</time></trkpt><trkpt lat="43.7124317" lon="12.2768917"><ele>583.5</ele><time>2026-03-22T09:41:10.574Z</time></trkpt><trkpt lat="43.712345" lon="12.2770133"><ele>582.0</ele><time>2026-03-22T09:41:11.575Z</time></trkpt><trkpt lat="43.7122283" lon="12.277125"><ele>582.0</ele><time>2026-03-22T09:41:12.574Z</time></trkpt><trkpt lat="43.7120933" lon="12.277235"><ele>582.0</ele><time>2026-03-22T09:41:13.575Z</time></trkpt><trkpt lat="43.7119633" lon="12.277345"><ele>582.0</ele><time>2026-03-22T09:41:14.575Z</time></trkpt><trkpt lat="43.71184" lon="12.2774533"><ele>578.0</ele><time>2026-03-22T09:41:15.575Z</time></trkpt><trkpt lat="43.7117317" lon="12.2775767"><ele>574.0</ele><time>2026-03-22T09:41:16.575Z</time></trkpt><trkpt lat="43.7116383" lon="12.2777267"><ele>570.0</ele><time>2026-03-22T09:41:17.574Z</time></trkpt><trkpt lat="43.7115667" lon="12.2779083"><ele>566.0</ele><time>2026-03-22T09:41:18.574Z</time></trkpt><trkpt lat="43.7115083" lon="12.2780867"><ele>562.0</ele><time>2026-03-22T09:41:19.575Z</time></trkpt><trkpt lat="43.7114417" lon="12.2782583"><ele>558.0</ele><time>2026-03-22T09:41:20.574Z</time></trkpt><trkpt lat="43.7113583" lon="12.2784183"><ele>554.0</ele><time>2026-03-22T09:41:21.574Z</time></trkpt><trkpt lat="43.7112517" lon="12.278595"><ele>554.0</ele><time>2026-03-22T09:41:22.575Z</time></trkpt><trkpt lat="43.711145" lon="12.278755"><ele>554.0</ele><time>2026-03-22T09:41:23.576Z</time></trkpt><trkpt lat="43.7110433" lon="12.2789"><ele>554.0</ele><time>2026-03-22T09:41:24.576Z</time></trkpt><trkpt lat="43.7109367" lon="12.2790483"><ele>554.25</ele><time>2026-03-22T09:41:25.575Z</time></trkpt><trkpt lat="43.7108417" lon="12.2792033"><ele>554.5</ele><time>2026-03-22T09:41:26.575Z</time></trkpt><trkpt lat="43.7107517" lon="12.27937"><ele>554.75</ele><time>2026-03-22T09:41:27.576Z</time></trkpt><trkpt lat="43.71067" lon="12.279545"><ele>555.0</ele><time>2026-03-22T09:41:28.576Z</time></trkpt><trkpt lat="43.7105917" lon="12.2797133"><ele>548.75</ele><time>2026-03-22T09:41:29.575Z</time></trkpt><trkpt lat="43.7105083" lon="12.2798867"><ele>542.5</ele><time>2026-03-22T09:41:30.576Z</time></trkpt><trkpt lat="43.7104233" lon="12.28006"><ele>536.25</ele><time>2026-03-22T09:41:31.575Z</time></trkpt><trkpt lat="43.7103483" lon="12.280235"><ele>530.0</ele><time>2026-03-22T09:41:32.575Z</time></trkpt><trkpt lat="43.710265" lon="12.28039"><ele>530.8</ele><time>2026-03-22T09:41:33.575Z</time></trkpt><trkpt lat="43.7102017" lon="12.280525"><ele>531.6</ele><time>2026-03-22T09:41:34.576Z</time></trkpt><trkpt lat="43.7101583" lon="12.280655"><ele>532.4</ele><time>2026-03-22T09:41:35.576Z</time></trkpt><trkpt lat="43.710115" lon="12.2807733"><ele>533.2</ele><time>2026-03-22T09:41:36.575Z</time></trkpt><trkpt lat="43.7100617" lon="12.2808767"><ele>534.0</ele><time>2026-03-22T09:41:37.576Z</time></trkpt><trkpt lat="43.7099933" lon="12.2809567"><ele>534.0</ele><time>2026-03-22T09:41:38.576Z</time></trkpt><trkpt lat="43.7099033" lon="12.28102"><ele>534.0</ele><time>2026-03-22T09:41:39.575Z</time></trkpt><trkpt lat="43.7097817" lon="12.2810733"><ele>534.0</ele><time>2026-03-22T09:41:40.575Z</time></trkpt><trkpt lat="43.7096533" lon="12.2811283"><ele>534.0</ele><time>2026-03-22T09:41:41.576Z</time></trkpt><trkpt lat="43.7095267" lon="12.2812017"><ele>534.0</ele><time>2026-03-22T09:41:42.576Z</time></trkpt><trkpt lat="43.7094217" lon="12.2812667"><ele>534.0</ele><time>2026-03-22T09:41:43.576Z</time></trkpt><trkpt lat="43.7093433" lon="12.2813167"><ele>534.0</ele><time>2026-03-22T09:41:44.576Z</time></trkpt><trkpt lat="43.7092783" lon="12.28137"><ele>534.0</ele><time>2026-03-22T09:41:45.576Z</time></trkpt><trkpt lat="43.709245" lon="12.2814733"><ele>534.0</ele><time>2026-03-22T09:41:47.576Z</time></trkpt><trkpt lat="43.70934" lon="12.281575"><ele>530.8</ele><time>2026-03-22T09:41:49.575Z</time></trkpt><trkpt lat="43.7094667" lon="12.281595"><ele>527.5999999999999</ele><time>2026-03-22T09:41:50.575Z</time></trkpt><trkpt lat="43.7095833" lon="12.2815933"><ele>524.4</ele><time>2026-03-22T09:41:51.576Z</time></trkpt><trkpt lat="43.7096667" lon="12.2815967"><ele>521.1999999999999</ele><time>2026-03-22T09:41:52.576Z</time></trkpt><trkpt lat="43.7097417" lon="12.2816783"><ele>518.0</ele><time>2026-03-22T09:41:54.576Z</time></trkpt><trkpt lat="43.7096917" lon="12.281815"><ele>518.0</ele><time>2026-03-22T09:41:56.576Z</time></trkpt><trkpt lat="43.7096117" lon="12.2818783"><ele>518.0</ele><time>2026-03-22T09:41:57.576Z</time></trkpt><trkpt lat="43.7095" lon="12.28192"><ele>518.0</ele><time>2026-03-22T09:41:58.576Z</time></trkpt><trkpt lat="43.7093667" lon="12.281925"><ele>518.0</ele><time>2026-03-22T09:41:59.576Z</time></trkpt><trkpt lat="43.70923" lon="12.28195"><ele>517.75</ele><time>2026-03-22T09:42:00.576Z</time></trkpt><trkpt lat="43.7091" lon="12.2820333"><ele>517.5</ele><time>2026-03-22T09:42:01.576Z</time></trkpt><trkpt lat="43.708975" lon="12.2821033"><ele>517.25</ele><time>2026-03-22T09:42:02.576Z</time></trkpt><trkpt lat="43.7088517" lon="12.2821633"><ele>517.0</ele><time>2026-03-22T09:42:03.575Z</time></trkpt><trkpt lat="43.708735" lon="12.282255"><ele>515.5</ele><time>2026-03-22T09:42:04.576Z</time></trkpt><trkpt lat="43.7086567" lon="12.2823617"><ele>514.0</ele><time>2026-03-22T09:42:05.575Z</time></trkpt><trkpt lat="43.7085917" lon="12.2825217"><ele>512.5</ele><time>2026-03-22T09:42:06.575Z</time></trkpt><trkpt lat="43.708535" lon="12.282685"><ele>511.0</ele><time>2026-03-22T09:42:07.576Z</time></trkpt><trkpt lat="43.7084783" lon="12.2828283"><ele>510.6</ele><time>2026-03-22T09:42:08.576Z</time></trkpt><trkpt lat="43.708405" lon="12.28296"><ele>510.20000000000005</ele><time>2026-03-22T09:42:09.576Z</time></trkpt><trkpt lat="43.70834" lon="12.2830733"><ele>509.79999999999995</ele><time>2026-03-22T09:42:10.576Z</time></trkpt><trkpt lat="43.70829" lon="12.2831617"><ele>509.4</ele><time>2026-03-22T09:42:11.576Z</time></trkpt><trkpt lat="43.7082217" lon="12.283255"><ele>509.0</ele><time>2026-03-22T09:42:13.575Z</time></trkpt><trkpt lat="43.7081567" lon="12.28324"><ele>509.0</ele><time>2026-03-22T09:42:15.576Z</time></trkpt><trkpt lat="43.7081383" lon="12.28314"><ele>509.0</ele><time>2026-03-22T09:42:17.575Z</time></trkpt><trkpt lat="43.7082217" lon="12.28299"><ele>509.0</ele><time>2026-03-22T09:42:19.575Z</time></trkpt><trkpt lat="43.7083" lon="12.28292"><ele>509.0</ele><time>2026-03-22T09:42:20.576Z</time></trkpt><trkpt lat="43.7083867" lon="12.2828383"><ele>509.0</ele><time>2026-03-22T09:42:21.576Z</time></trkpt><trkpt lat="43.7084517" lon="12.28272"><ele>509.0</ele><time>2026-03-22T09:42:22.575Z</time></trkpt><trkpt lat="43.7084817" lon="12.28254"><ele>509.0</ele><time>2026-03-22T09:42:23.576Z</time></trkpt><trkpt lat="43.7084933" lon="12.2823233"><ele>509.0</ele><time>2026-03-22T09:42:24.576Z</time></trkpt><trkpt lat="43.708495" lon="12.2820967"><ele>511.5</ele><time>2026-03-22T09:42:25.576Z</time></trkpt><trkpt lat="43.7085" lon="12.2818833"><ele>514.0</ele><time>2026-03-22T09:42:26.575Z</time></trkpt><trkpt lat="43.7085067" lon="12.2817067"><ele>516.5</ele><time>2026-03-22T09:42:27.575Z</time></trkpt><trkpt lat="43.7085" lon="12.281565"><ele>519.0</ele><time>2026-03-22T09:42:28.575Z</time></trkpt><trkpt lat="43.7084567" lon="12.2814617"><ele>519.0</ele><time>2026-03-22T09:42:29.576Z</time></trkpt><trkpt lat="43.7083867" lon="12.2814"><ele>519.0</ele><time>2026-03-22T09:42:30.576Z</time></trkpt><trkpt lat="43.708305" lon="12.2813917"><ele>519.0</ele><time>2026-03-22T09:42:31.576Z</time></trkpt><trkpt lat="43.708205" lon="12.2814633"><ele>519.0</ele><time>2026-03-22T09:42:32.575Z</time></trkpt><trkpt lat="43.7081017" lon="12.2815983"><ele>519.0</ele><time>2026-03-22T09:42:33.575Z</time></trkpt><trkpt lat="43.7080133" lon="12.2817383"><ele>519.0</ele><time>2026-03-22T09:42:34.576Z</time></trkpt><trkpt lat="43.70794" lon="12.2818517"><ele>519.0</ele><time>2026-03-22T09:42:35.575Z</time></trkpt><trkpt lat="43.70786" lon="12.2819067"><ele>519.0</ele><time>2026-03-22T09:42:36.576Z</time></trkpt><trkpt lat="43.7077817" lon="12.2818967"><ele>519.0</ele><time>2026-03-22T09:42:37.576Z</time></trkpt><trkpt lat="43.707725" lon="12.281845"><ele>519.0</ele><time>2026-03-22T09:42:38.576Z</time></trkpt><trkpt lat="43.7076983" lon="12.2817583"><ele>519.0</ele><time>2026-03-22T09:42:39.576Z</time></trkpt><trkpt lat="43.707725" lon="12.2816133"><ele>519.0</ele><time>2026-03-22T09:42:40.575Z</time></trkpt><trkpt lat="43.7077667" lon="12.2814367"><ele>519.0</ele><time>2026-03-22T09:42:41.576Z</time></trkpt><trkpt lat="43.7077883" lon="12.2812367"><ele>519.0</ele><time>2026-03-22T09:42:42.575Z</time></trkpt><trkpt lat="43.7077683" lon="12.2810217"><ele>519.0</ele><time>2026-03-22T09:42:43.576Z</time></trkpt><trkpt lat="43.7077267" lon="12.2808283"><ele>521.25</ele><time>2026-03-22T09:42:44.576Z</time></trkpt><trkpt lat="43.7077" lon="12.2806417"><ele>523.5</ele><time>2026-03-22T09:42:45.576Z</time></trkpt><trkpt lat="43.707705" lon="12.2804333"><ele>525.75</ele><time>2026-03-22T09:42:46.575Z</time></trkpt><trkpt lat="43.7077417" lon="12.2802483"><ele>528.0</ele><time>2026-03-22T09:42:47.575Z</time></trkpt><trkpt lat="43.707775" lon="12.2800867"><ele>528.0</ele><time>2026-03-22T09:42:48.575Z</time></trkpt><trkpt lat="43.7077783" lon="12.2799367"><ele>528.0</ele><time>2026-03-22T09:42:49.576Z</time></trkpt><trkpt lat="43.7077383" lon="12.2797933"><ele>528.0</ele><time>2026-03-22T09:42:50.576Z</time></trkpt><trkpt lat="43.7076433" lon="12.2796533"><ele>528.0</ele><time>2026-03-22T09:42:51.576Z</time></trkpt><trkpt lat="43.7075067" lon="12.2795183"><ele>534.25</ele><time>2026-03-22T09:42:52.576Z</time></trkpt><trkpt lat="43.7073833" lon="12.2793867"><ele>540.5</ele><time>2026-03-22T09:42:53.575Z</time></trkpt><trkpt lat="43.70729" lon="12.2792617"><ele>546.75</ele><time>2026-03-22T09:42:54.576Z</time></trkpt><trkpt lat="43.7072133" lon="12.27911"><ele>553.0</ele><time>2026-03-22T09:42:55.576Z</time></trkpt><trkpt lat="43.7071533" lon="12.2789233"><ele>556.0</ele><time>2026-03-22T09:42:56.575Z</time></trkpt><trkpt lat="43.7071183" lon="12.2787317"><ele>559.0</ele><time>2026-03-22T09:42:57.575Z</time></trkpt><trkpt lat="43.7071167" lon="12.278565"><ele>562.0</ele><time>2026-03-22T09:42:58.576Z</time></trkpt><trkpt lat="43.7071517" lon="12.2784033"><ele>565.0</ele><time>2026-03-22T09:42:59.576Z</time></trkpt><trkpt lat="43.7072283" lon="12.278255"><ele>565.0</ele><time>2026-03-22T09:43:00.575Z</time></trkpt><trkpt lat="43.7073333" lon="12.2781017"><ele>565.0</ele><time>2026-03-22T09:43:01.576Z</time></trkpt><trkpt lat="43.707445" lon="12.2779133"><ele>565.0</ele><time>2026-03-22T09:43:02.576Z</time></trkpt><trkpt lat="43.7075333" lon="12.2776733"><ele>569.0</ele><time>2026-03-22T09:43:03.576Z</time></trkpt><trkpt lat="43.707605" lon="12.27741"><ele>573.0</ele><time>2026-03-22T09:43:04.576Z</time></trkpt><trkpt lat="43.7076733" lon="12.277125"><ele>577.0</ele><time>2026-03-22T09:43:05.576Z</time></trkpt><trkpt lat="43.707735" lon="12.2768383"><ele>576.0</ele><time>2026-03-22T09:43:06.576Z</time></trkpt><trkpt lat="43.7077917" lon="12.2765667"><ele>575.0</ele><time>2026-03-22T09:43:07.576Z</time></trkpt><trkpt lat="43.7078483" lon="12.27631"><ele>574.0</ele><time>2026-03-22T09:43:08.575Z</time></trkpt><trkpt lat="43.707915" lon="12.27607"><ele>576.25</ele><time>2026-03-22T09:43:09.575Z</time></trkpt><trkpt lat="43.707975" lon="12.2758517"><ele>578.5</ele><time>2026-03-22T09:43:10.576Z</time></trkpt><trkpt lat="43.7080317" lon="12.2756617"><ele>580.75</ele><time>2026-03-22T09:43:11.575Z</time></trkpt><trkpt lat="43.7080883" lon="12.2755"><ele>583.0</ele><time>2026-03-22T09:43:12.576Z</time></trkpt><trkpt lat="43.708125" lon="12.2753567"><ele>585.5</ele><time>2026-03-22T09:43:13.576Z</time></trkpt><trkpt lat="43.708145" lon="12.2752033"><ele>588.0</ele><time>2026-03-22T09:43:14.575Z</time></trkpt><trkpt lat="43.7081383" lon="12.27504"><ele>590.5</ele><time>2026-03-22T09:43:15.576Z</time></trkpt><trkpt lat="43.7080967" lon="12.274875"><ele>593.0</ele><time>2026-03-22T09:43:16.576Z</time></trkpt><trkpt lat="43.7080433" lon="12.2747167"><ele>594.5</ele><time>2026-03-22T09:43:17.575Z</time></trkpt><trkpt lat="43.7079917" lon="12.274545"><ele>596.0</ele><time>2026-03-22T09:43:18.576Z</time></trkpt><trkpt lat="43.7079783" lon="12.2743533"><ele>597.5</ele><time>2026-03-22T09:43:19.575Z</time></trkpt><trkpt lat="43.7080017" lon="12.274155"><ele>599.0</ele><time>2026-03-22T09:43:20.575Z</time></trkpt><trkpt lat="43.7080067" lon="12.27394"><ele>600.25</ele><time>2026-03-22T09:43:21.576Z</time></trkpt><trkpt lat="43.70798" lon="12.2737283"><ele>601.5</ele><time>2026-03-22T09:43:22.576Z</time></trkpt><trkpt lat="43.7079467" lon="12.2735517"><ele>602.75</ele><time>2026-03-22T09:43:23.576Z</time></trkpt><trkpt lat="43.70791" lon="12.273405"><ele>604.0</ele><time>2026-03-22T09:43:24.576Z</time></trkpt><trkpt lat="43.7078683" lon="12.2733033"><ele>604.0</ele><time>2026-03-22T09:43:25.575Z</time></trkpt><trkpt lat="43.7078183" lon="12.2732333"><ele>604.0</ele><time>2026-03-22T09:43:26.576Z</time></trkpt><trkpt lat="43.7077367" lon="12.27323"><ele>604.0</ele><time>2026-03-22T09:43:27.576Z</time></trkpt><trkpt lat="43.707655" lon="12.273275"><ele>604.0</ele><time>2026-03-22T09:43:28.576Z</time></trkpt><trkpt lat="43.707595" lon="12.2733733"><ele>604.0</ele><time>2026-03-22T09:43:29.576Z</time></trkpt><trkpt lat="43.70755" lon="12.273545"><ele>607.5</ele><time>2026-03-22T09:43:30.575Z</time></trkpt><trkpt lat="43.70753" lon="12.273775"><ele>611.0</ele><time>2026-03-22T09:43:31.576Z</time></trkpt><trkpt lat="43.7075217" lon="12.273985"><ele>614.5</ele><time>2026-03-22T09:43:32.576Z</time></trkpt><trkpt lat="43.7075033" lon="12.274145"><ele>618.0</ele><time>2026-03-22T09:43:33.576Z</time></trkpt><trkpt lat="43.7074567" lon="12.2742683"><ele>618.0</ele><time>2026-03-22T09:43:34.576Z</time></trkpt><trkpt lat="43.7073883" lon="12.27435"><ele>618.0</ele><time>2026-03-22T09:43:35.576Z</time></trkpt><trkpt lat="43.7073033" lon="12.2743967"><ele>618.0</ele><time>2026-03-22T09:43:36.576Z</time></trkpt><trkpt lat="43.7072033" lon="12.2743983"><ele>618.0</ele><time>2026-03-22T09:43:37.576Z</time></trkpt><trkpt lat="43.7070933" lon="12.274345"><ele>618.0</ele><time>2026-03-22T09:43:38.576Z</time></trkpt><trkpt lat="43.7069767" lon="12.27421"><ele>620.3333333333334</ele><time>2026-03-22T09:43:39.575Z</time></trkpt><trkpt lat="43.706855" lon="12.2740317"><ele>622.6666666666667</ele><time>2026-03-22T09:43:40.575Z</time></trkpt><trkpt lat="43.7067167" lon="12.2738333"><ele>625.0</ele><time>2026-03-22T09:43:41.575Z</time></trkpt><trkpt lat="43.70656" lon="12.2736083"><ele>627.5</ele><time>2026-03-22T09:43:42.576Z</time></trkpt><trkpt lat="43.7063917" lon="12.2733567"><ele>630.0</ele><time>2026-03-22T09:43:43.575Z</time></trkpt><trkpt lat="43.7062167" lon="12.2730833"><ele>632.0</ele><time>2026-03-22T09:43:44.576Z</time></trkpt><trkpt lat="43.70603" lon="12.272805"><ele>634.0</ele><time>2026-03-22T09:43:45.576Z</time></trkpt><trkpt lat="43.7058483" lon="12.27253"><ele>637.0</ele><time>2026-03-22T09:43:46.575Z</time></trkpt><trkpt lat="43.70568" lon="12.2722667"><ele>640.0</ele><time>2026-03-22T09:43:47.576Z</time></trkpt><trkpt lat="43.705525" lon="12.2720267"><ele>640.0</ele><time>2026-03-22T09:43:48.576Z</time></trkpt><trkpt lat="43.70538" lon="12.2718017"><ele>640.0</ele><time>2026-03-22T09:43:49.576Z</time></trkpt><trkpt lat="43.7052433" lon="12.2715917"><ele>640.0</ele><time>2026-03-22T09:43:50.576Z</time></trkpt><trkpt lat="43.7051167" lon="12.2713967"><ele>642.25</ele><time>2026-03-22T09:43:51.576Z</time></trkpt><trkpt lat="43.7050017" lon="12.2712217"><ele>644.5</ele><time>2026-03-22T09:43:52.576Z</time></trkpt><trkpt lat="43.7049033" lon="12.2710733"><ele>646.75</ele><time>2026-03-22T09:43:53.576Z</time></trkpt><trkpt lat="43.7048333" lon="12.27094"><ele>649.0</ele><time>2026-03-22T09:43:54.575Z</time></trkpt><trkpt lat="43.704785" lon="12.2707783"><ele>650.75</ele><time>2026-03-22T09:43:55.576Z</time></trkpt><trkpt lat="43.70477" lon="12.2705933"><ele>652.5</ele><time>2026-03-22T09:43:56.575Z</time></trkpt><trkpt lat="43.7047933" lon="12.2703967"><ele>654.25</ele><time>2026-03-22T09:43:57.575Z</time></trkpt><trkpt lat="43.7048283" lon="12.2701883"><ele>656.0</ele><time>2026-03-22T09:43:58.576Z</time></trkpt><trkpt lat="43.704865" lon="12.2699933"><ele>656.0</ele><time>2026-03-22T09:43:59.575Z</time></trkpt><trkpt lat="43.70489" lon="12.2698317"><ele>656.0</ele><time>2026-03-22T09:44:00.575Z</time></trkpt><trkpt lat="43.704925" lon="12.2696933"><ele>656.0</ele><time>2026-03-22T09:44:01.575Z</time></trkpt><trkpt lat="43.704975" lon="12.2695717"><ele>656.0</ele><time>2026-03-22T09:44:02.576Z</time></trkpt><trkpt lat="43.7050533" lon="12.2694867"><ele>656.0</ele><time>2026-03-22T09:44:03.576Z</time></trkpt><trkpt lat="43.7051533" lon="12.26946"><ele>659.0</ele><time>2026-03-22T09:44:04.575Z</time></trkpt><trkpt lat="43.7052567" lon="12.2695067"><ele>662.0</ele><time>2026-03-22T09:44:05.576Z</time></trkpt><trkpt lat="43.7053583" lon="12.269615"><ele>665.0</ele><time>2026-03-22T09:44:06.576Z</time></trkpt><trkpt lat="43.7054483" lon="12.2697633"><ele>668.0</ele><time>2026-03-22T09:44:07.576Z</time></trkpt><trkpt lat="43.7055367" lon="12.2699183"><ele>668.0</ele><time>2026-03-22T09:44:08.576Z</time></trkpt><trkpt lat="43.7056567" lon="12.2700367"><ele>668.0</ele><time>2026-03-22T09:44:09.576Z</time></trkpt><trkpt lat="43.7057917" lon="12.2701283"><ele>668.0</ele><time>2026-03-22T09:44:10.575Z</time></trkpt><trkpt lat="43.70592" lon="12.2702"><ele>668.0</ele><time>2026-03-22T09:44:11.576Z</time></trkpt><trkpt lat="43.706045" lon="12.270235"><ele>668.5</ele><time>2026-03-22T09:44:12.575Z</time></trkpt><trkpt lat="43.7061683" lon="12.2702217"><ele>669.0</ele><time>2026-03-22T09:44:13.575Z</time></trkpt><trkpt lat="43.706295" lon="12.27014"><ele>669.5</ele><time>2026-03-22T09:44:14.576Z</time></trkpt><trkpt lat="43.7064283" lon="12.27002"><ele>670.0</ele><time>2026-03-22T09:44:15.575Z</time></trkpt><trkpt lat="43.7065683" lon="12.2698783"><ele>669.6666666666667</ele><time>2026-03-22T09:44:16.576Z</time></trkpt><trkpt lat="43.7067217" lon="12.2697117"><ele>669.3333333333334</ele><time>2026-03-22T09:44:17.575Z</time></trkpt><trkpt lat="43.7068733" lon="12.2695467"><ele>669.0</ele><time>2026-03-22T09:44:18.575Z</time></trkpt><trkpt lat="43.7070183" lon="12.2693967"><ele>669.0</ele><time>2026-03-22T09:44:19.576Z</time></trkpt><trkpt lat="43.7071283" lon="12.2692783"><ele>669.0</ele><time>2026-03-22T09:44:20.576Z</time></trkpt><trkpt lat="43.7072133" lon="12.269155"><ele>669.0</ele><time>2026-03-22T09:44:21.575Z</time></trkpt><trkpt lat="43.707265" lon="12.269005"><ele>669.0</ele><time>2026-03-22T09:44:22.576Z</time></trkpt><trkpt lat="43.7072783" lon="12.2688333"><ele>672.25</ele><time>2026-03-22T09:44:23.575Z</time></trkpt><trkpt lat="43.7072583" lon="12.26866"><ele>675.5</ele><time>2026-03-22T09:44:24.576Z</time></trkpt><trkpt lat="43.70719" lon="12.268525"><ele>678.75</ele><time>2026-03-22T09:44:25.575Z</time></trkpt><trkpt lat="43.70708" lon="12.2684333"><ele>682.0</ele><time>2026-03-22T09:44:26.575Z</time></trkpt><trkpt lat="43.7069367" lon="12.2683733"><ele>685.3333333333334</ele><time>2026-03-22T09:44:27.576Z</time></trkpt><trkpt lat="43.706765" lon="12.2683217"><ele>688.6666666666666</ele><time>2026-03-22T09:44:28.575Z</time></trkpt><trkpt lat="43.706575" lon="12.26826"><ele>692.0</ele><time>2026-03-22T09:44:29.576Z</time></trkpt><trkpt lat="43.7063917" lon="12.2681933"><ele>692.0</ele><time>2026-03-22T09:44:30.575Z</time></trkpt><trkpt lat="43.706235" lon="12.268135"><ele>692.0</ele><time>2026-03-22T09:44:31.576Z</time></trkpt><trkpt lat="43.7061117" lon="12.268085"><ele>692.0</ele><time>2026-03-22T09:44:32.576Z</time></trkpt><trkpt lat="43.7060033" lon="12.2680367"><ele>692.0</ele><time>2026-03-22T09:44:33.576Z</time></trkpt><trkpt lat="43.7059217" lon="12.2679567"><ele>693.0</ele><time>2026-03-22T09:44:34.576Z</time></trkpt><trkpt lat="43.705865" lon="12.2678333"><ele>694.0</ele><time>2026-03-22T09:44:35.576Z</time></trkpt><trkpt lat="43.70584" lon="12.2676867"><ele>695.0</ele><time>2026-03-22T09:44:36.576Z</time></trkpt><trkpt lat="43.7058517" lon="12.2675367"><ele>696.0</ele><time>2026-03-22T09:44:37.576Z</time></trkpt><trkpt lat="43.7059067" lon="12.2673933"><ele>697.0</ele><time>2026-03-22T09:44:38.576Z</time></trkpt><trkpt lat="43.7060067" lon="12.2672717"><ele>701.6666666666667</ele><time>2026-03-22T09:44:39.575Z</time></trkpt><trkpt lat="43.706125" lon="12.2671517"><ele>706.3333333333334</ele><time>2026-03-22T09:44:40.576Z</time></trkpt><trkpt lat="43.7062333" lon="12.267015"><ele>711.0</ele><time>2026-03-22T09:44:41.575Z</time></trkpt><trkpt lat="43.7063283" lon="12.26683"><ele>711.0</ele><time>2026-03-22T09:44:42.576Z</time></trkpt><trkpt lat="43.7063983" lon="12.2666367"><ele>711.0</ele><time>2026-03-22T09:44:43.575Z</time></trkpt><trkpt lat="43.70645" lon="12.2664683"><ele>711.0</ele><time>2026-03-22T09:44:44.576Z</time></trkpt><trkpt lat="43.7064833" lon="12.26632"><ele>711.0</ele><time>2026-03-22T09:44:45.576Z</time></trkpt><trkpt lat="43.706495" lon="12.26617"><ele>711.5</ele><time>2026-03-22T09:44:46.576Z</time></trkpt><trkpt lat="43.70648" lon="12.2660283"><ele>712.0</ele><time>2026-03-22T09:44:47.576Z</time></trkpt><trkpt lat="43.7064467" lon="12.2658767"><ele>712.5</ele><time>2026-03-22T09:44:48.575Z</time></trkpt><trkpt lat="43.7063817" lon="12.2657033"><ele>713.0</ele><time>2026-03-22T09:44:49.576Z</time></trkpt><trkpt lat="43.7063167" lon="12.2655083"><ele>713.0</ele><time>2026-03-22T09:44:50.576Z</time></trkpt><trkpt lat="43.706255" lon="12.2652717"><ele>713.0</ele><time>2026-03-22T09:44:51.576Z</time></trkpt><trkpt lat="43.7062167" lon="12.264995"><ele>713.0</ele><time>2026-03-22T09:44:52.576Z</time></trkpt><trkpt lat="43.7062083" lon="12.2646867"><ele>714.3333333333333</ele><time>2026-03-22T09:44:53.575Z</time></trkpt><trkpt lat="43.7062067" lon="12.26438"><ele>715.6666666666666</ele><time>2026-03-22T09:44:54.576Z</time></trkpt><trkpt lat="43.7062083" lon="12.2640967"><ele>717.0</ele><time>2026-03-22T09:44:55.576Z</time></trkpt><trkpt lat="43.706225" lon="12.263815"><ele>720.5</ele><time>2026-03-22T09:44:56.576Z</time></trkpt><trkpt lat="43.7062667" lon="12.2635167"><ele>724.0</ele><time>2026-03-22T09:44:57.576Z</time></trkpt><trkpt lat="43.70633" lon="12.2632017"><ele>726.0</ele><time>2026-03-22T09:44:58.577Z</time></trkpt><trkpt lat="43.7063933" lon="12.2628583"><ele>728.0</ele><time>2026-03-22T09:44:59.577Z</time></trkpt><trkpt lat="43.7064583" lon="12.2625133"><ele>729.6666666666666</ele><time>2026-03-22T09:45:00.576Z</time></trkpt><trkpt lat="43.7065167" lon="12.2621933"><ele>731.3333333333334</ele><time>2026-03-22T09:45:01.577Z</time></trkpt><trkpt lat="43.7065633" lon="12.2619133"><ele>733.0</ele><time>2026-03-22T09:45:02.577Z</time></trkpt><trkpt lat="43.706605" lon="12.2616767"><ele>733.0</ele><time>2026-03-22T09:45:03.576Z</time></trkpt><trkpt lat="43.7066367" lon="12.2614883"><ele>733.0</ele><time>2026-03-22T09:45:04.577Z</time></trkpt><trkpt lat="43.7066783" lon="12.2613317"><ele>733.0</ele><time>2026-03-22T09:45:05.576Z</time></trkpt><trkpt lat="43.70673" lon="12.2612017"><ele>733.0</ele><time>2026-03-22T09:45:06.576Z</time></trkpt><trkpt lat="43.7068167" lon="12.2611017"><ele>737.0</ele><time>2026-03-22T09:45:07.577Z</time></trkpt><trkpt lat="43.7069367" lon="12.26105"><ele>741.0</ele><time>2026-03-22T09:45:08.577Z</time></trkpt><trkpt lat="43.7070867" lon="12.2610333"><ele>745.0</ele><time>2026-03-22T09:45:09.576Z</time></trkpt><trkpt lat="43.70724" lon="12.2610233"><ele>749.0</ele><time>2026-03-22T09:45:10.576Z</time></trkpt><trkpt lat="43.7073867" lon="12.2610033"><ele>749.0</ele><time>2026-03-22T09:45:11.576Z</time></trkpt><trkpt lat="43.707505" lon="12.2609967"><ele>749.0</ele><time>2026-03-22T09:45:12.576Z</time></trkpt><trkpt lat="43.7076117" lon="12.2610317"><ele>749.0</ele><time>2026-03-22T09:45:13.577Z</time></trkpt><trkpt lat="43.707695" lon="12.26112"><ele>749.0</ele><time>2026-03-22T09:45:14.577Z</time></trkpt><trkpt lat="43.70776" lon="12.26127"><ele>753.3333333333333</ele><time>2026-03-22T09:45:15.576Z</time></trkpt><trkpt lat="43.7078167" lon="12.2614733"><ele>757.6666666666666</ele><time>2026-03-22T09:45:16.577Z</time></trkpt><trkpt lat="43.7078583" lon="12.261705"><ele>762.0</ele><time>2026-03-22T09:45:17.577Z</time></trkpt><trkpt lat="43.7078833" lon="12.2619533"><ele>762.0</ele><time>2026-03-22T09:45:18.577Z</time></trkpt><trkpt lat="43.7078867" lon="12.2621917"><ele>762.0</ele><time>2026-03-22T09:45:19.577Z</time></trkpt><trkpt lat="43.7078783" lon="12.262395"><ele>762.0</ele><time>2026-03-22T09:45:20.577Z</time></trkpt><trkpt lat="43.707885" lon="12.262555"><ele>762.0</ele><time>2026-03-22T09:45:21.576Z</time></trkpt><trkpt lat="43.70792" lon="12.26267"><ele>761.2</ele><time>2026-03-22T09:45:22.577Z</time></trkpt><trkpt lat="43.7079633" lon="12.2627633"><ele>760.4000000000001</ele><time>2026-03-22T09:45:23.577Z</time></trkpt><trkpt lat="43.7080467" lon="12.2627883"><ele>759.5999999999999</ele><time>2026-03-22T09:45:24.577Z</time></trkpt><trkpt lat="43.708135" lon="12.2627433"><ele>758.8</ele><time>2026-03-22T09:45:25.576Z</time></trkpt><trkpt lat="43.70821" lon="12.2626583"><ele>758.0</ele><time>2026-03-22T09:45:26.577Z</time></trkpt><trkpt lat="43.70824" lon="12.262465"><ele>759.3333333333333</ele><time>2026-03-22T09:45:27.576Z</time></trkpt><trkpt lat="43.7082483" lon="12.26223"><ele>760.6666666666666</ele><time>2026-03-22T09:45:28.576Z</time></trkpt><trkpt lat="43.70825" lon="12.2619633"><ele>762.0</ele><time>2026-03-22T09:45:29.576Z</time></trkpt><trkpt lat="43.708245" lon="12.261675"><ele>763.6666666666666</ele><time>2026-03-22T09:45:30.576Z</time></trkpt><trkpt lat="43.7082383" lon="12.2613717"><ele>765.3333333333333</ele><time>2026-03-22T09:45:31.576Z</time></trkpt><trkpt lat="43.7082283" lon="12.2610733"><ele>767.0</ele><time>2026-03-22T09:45:32.577Z</time></trkpt><trkpt lat="43.7082317" lon="12.2608083"><ele>767.6666666666666</ele><time>2026-03-22T09:45:33.576Z</time></trkpt><trkpt lat="43.708225" lon="12.26056"><ele>768.3333333333333</ele><time>2026-03-22T09:45:34.576Z</time></trkpt><trkpt lat="43.7082" lon="12.2603133"><ele>769.0</ele><time>2026-03-22T09:45:35.576Z</time></trkpt><trkpt lat="43.7081483" lon="12.2600633"><ele>769.0</ele><time>2026-03-22T09:45:36.576Z</time></trkpt><trkpt lat="43.7080667" lon="12.25981"><ele>769.0</ele><time>2026-03-22T09:45:37.577Z</time></trkpt><trkpt lat="43.707965" lon="12.25952"><ele>769.0</ele><time>2026-03-22T09:45:38.576Z</time></trkpt><trkpt lat="43.70786" lon="12.25922"><ele>771.0</ele><time>2026-03-22T09:45:39.577Z</time></trkpt><trkpt lat="43.707755" lon="12.2589233"><ele>773.0</ele><time>2026-03-22T09:45:40.576Z</time></trkpt><trkpt lat="43.7076633" lon="12.2586483"><ele>773.0</ele><time>2026-03-22T09:45:41.577Z</time></trkpt><trkpt lat="43.7075833" lon="12.2584"><ele>773.0</ele><time>2026-03-22T09:45:42.577Z</time></trkpt><trkpt lat="43.707495" lon="12.258145"><ele>773.0</ele><time>2026-03-22T09:45:43.576Z</time></trkpt><trkpt lat="43.7074117" lon="12.257895"><ele>775.3333333333334</ele><time>2026-03-22T09:45:44.576Z</time></trkpt><trkpt lat="43.7073317" lon="12.25765"><ele>777.6666666666667</ele><time>2026-03-22T09:45:45.577Z</time></trkpt><trkpt lat="43.7072567" lon="12.2574217"><ele>780.0</ele><time>2026-03-22T09:45:46.577Z</time></trkpt><trkpt lat="43.7071817" lon="12.2572"><ele>780.0</ele><time>2026-03-22T09:45:47.577Z</time></trkpt><trkpt lat="43.7070883" lon="12.2569883"><ele>780.0</ele><time>2026-03-22T09:45:48.577Z</time></trkpt><trkpt lat="43.7069783" lon="12.2567817"><ele>780.0</ele><time>2026-03-22T09:45:49.577Z</time></trkpt><trkpt lat="43.7068467" lon="12.256615"><ele>780.0</ele><time>2026-03-22T09:45:50.577Z</time></trkpt><trkpt lat="43.7067067" lon="12.2564667"><ele>780.0</ele><time>2026-03-22T09:45:51.577Z</time></trkpt><trkpt lat="43.706575" lon="12.25634"><ele>780.0</ele><time>2026-03-22T09:45:52.576Z</time></trkpt><trkpt lat="43.7064533" lon="12.2562383"><ele>781.6666666666666</ele><time>2026-03-22T09:45:53.577Z</time></trkpt><trkpt lat="43.7063767" lon="12.2561533"><ele>783.3333333333333</ele><time>2026-03-22T09:45:54.577Z</time></trkpt><trkpt lat="43.70632" lon="12.2560583"><ele>785.0</ele><time>2026-03-22T09:45:55.576Z</time></trkpt><trkpt lat="43.706305" lon="12.2559433"><ele>786.6666666666666</ele><time>2026-03-22T09:45:56.577Z</time></trkpt><trkpt lat="43.7063333" lon="12.2558317"><ele>788.3333333333333</ele><time>2026-03-22T09:45:57.577Z</time></trkpt><trkpt lat="43.7064" lon="12.255765"><ele>790.0</ele><time>2026-03-22T09:45:58.577Z</time></trkpt><trkpt lat="43.7065267" lon="12.25578"><ele>790.0</ele><time>2026-03-22T09:45:59.576Z</time></trkpt><trkpt lat="43.70668" lon="12.2558417"><ele>790.0</ele><time>2026-03-22T09:46:00.577Z</time></trkpt><trkpt lat="43.7068467" lon="12.2559033"><ele>790.0</ele><time>2026-03-22T09:46:01.577Z</time></trkpt><trkpt lat="43.707" lon="12.2559417"><ele>790.75</ele><time>2026-03-22T09:46:02.577Z</time></trkpt><trkpt lat="43.7071367" lon="12.255955"><ele>791.5</ele><time>2026-03-22T09:46:03.576Z</time></trkpt><trkpt lat="43.7072617" lon="12.2559"><ele>792.25</ele><time>2026-03-22T09:46:04.577Z</time></trkpt><trkpt lat="43.7074033" lon="12.25579"><ele>793.0</ele><time>2026-03-22T09:46:05.577Z</time></trkpt><trkpt lat="43.7075633" lon="12.255665"><ele>797.0</ele><time>2026-03-22T09:46:06.576Z</time></trkpt><trkpt lat="43.70772" lon="12.2555417"><ele>801.0</ele><time>2026-03-22T09:46:07.577Z</time></trkpt><trkpt lat="43.7078633" lon="12.2554433"><ele>805.0</ele><time>2026-03-22T09:46:08.576Z</time></trkpt><trkpt lat="43.7079833" lon="12.2553667"><ele>805.1666666666666</ele><time>2026-03-22T09:46:09.577Z</time></trkpt><trkpt lat="43.70807" lon="12.2553083"><ele>805.3333333333333</ele><time>2026-03-22T09:46:10.577Z</time></trkpt><trkpt lat="43.708135" lon="12.2552367"><ele>805.5</ele><time>2026-03-22T09:46:11.577Z</time></trkpt><trkpt lat="43.7081683" lon="12.25515"><ele>805.6666666666667</ele><time>2026-03-22T09:46:12.577Z</time></trkpt><trkpt lat="43.708155" lon="12.2550567"><ele>805.8333333333334</ele><time>2026-03-22T09:46:13.577Z</time></trkpt><trkpt lat="43.7081017" lon="12.2549783"><ele>806.0</ele><time>2026-03-22T09:46:14.577Z</time></trkpt><trkpt lat="43.707995" lon="12.2549617"><ele>806.0</ele><time>2026-03-22T09:46:15.577Z</time></trkpt><trkpt lat="43.7078583" lon="12.25498"><ele>806.0</ele><time>2026-03-22T09:46:16.577Z</time></trkpt><trkpt lat="43.7077183" lon="12.2550133"><ele>806.0</ele><time>2026-03-22T09:46:17.577Z</time></trkpt><trkpt lat="43.707565" lon="12.25503"><ele>806.0</ele><time>2026-03-22T09:46:18.577Z</time></trkpt><trkpt lat="43.7073967" lon="12.2549783"><ele>805.6666666666667</ele><time>2026-03-22T09:46:19.576Z</time></trkpt><trkpt lat="43.7072183" lon="12.2548983"><ele>805.3333333333333</ele><time>2026-03-22T09:46:20.576Z</time></trkpt><trkpt lat="43.7070183" lon="12.2547867"><ele>805.0</ele><time>2026-03-22T09:46:21.577Z</time></trkpt><trkpt lat="43.706835" lon="12.2546767"><ele>807.2</ele><time>2026-03-22T09:46:22.577Z</time></trkpt><trkpt lat="43.706685" lon="12.2545933"><ele>809.4</ele><time>2026-03-22T09:46:23.576Z</time></trkpt><trkpt lat="43.7065783" lon="12.2545183"><ele>811.5999999999999</ele><time>2026-03-22T09:46:24.577Z</time></trkpt><trkpt lat="43.7065" lon="12.2544667"><ele>813.8</ele><time>2026-03-22T09:46:25.576Z</time></trkpt><trkpt lat="43.7064483" lon="12.2544167"><ele>816.0</ele><time>2026-03-22T09:46:26.577Z</time></trkpt><trkpt lat="43.7064267" lon="12.254255"><ele>816.0</ele><time>2026-03-22T09:46:28.577Z</time></trkpt><trkpt lat="43.7064783" lon="12.2541767"><ele>816.0</ele><time>2026-03-22T09:46:29.577Z</time></trkpt><trkpt lat="43.7066" lon="12.25413"><ele>816.0</ele><time>2026-03-22T09:46:30.577Z</time></trkpt><trkpt lat="43.7067517" lon="12.25412"><ele>816.0</ele><time>2026-03-22T09:46:31.577Z</time></trkpt><trkpt lat="43.7069283" lon="12.254105"><ele>816.3333333333333</ele><time>2026-03-22T09:46:32.576Z</time></trkpt><trkpt lat="43.7071283" lon="12.2540783"><ele>816.6666666666666</ele><time>2026-03-22T09:46:33.576Z</time></trkpt><trkpt lat="43.7073317" lon="12.2540467"><ele>817.0</ele><time>2026-03-22T09:46:34.577Z</time></trkpt><trkpt lat="43.707515" lon="12.2540267"><ele>817.0</ele><time>2026-03-22T09:46:35.576Z</time></trkpt><trkpt lat="43.7076667" lon="12.254005"><ele>817.0</ele><time>2026-03-22T09:46:36.576Z</time></trkpt><trkpt lat="43.7077967" lon="12.2539817"><ele>817.0</ele><time>2026-03-22T09:46:37.577Z</time></trkpt><trkpt lat="43.7078883" lon="12.2539383"><ele>817.0</ele><time>2026-03-22T09:46:38.577Z</time></trkpt><trkpt lat="43.7079483" lon="12.253845"><ele>819.5</ele><time>2026-03-22T09:46:39.577Z</time></trkpt><trkpt lat="43.707965" lon="12.25372"><ele>822.0</ele><time>2026-03-22T09:46:40.577Z</time></trkpt><trkpt lat="43.70794" lon="12.2535833"><ele>824.5</ele><time>2026-03-22T09:46:41.577Z</time></trkpt><trkpt lat="43.707865" lon="12.2534617"><ele>827.0</ele><time>2026-03-22T09:46:42.576Z</time></trkpt><trkpt lat="43.7077383" lon="12.253375"><ele>827.0</ele><time>2026-03-22T09:46:43.577Z</time></trkpt><trkpt lat="43.7075717" lon="12.2533133"><ele>827.0</ele><time>2026-03-22T09:46:44.576Z</time></trkpt><trkpt lat="43.70738" lon="12.253295"><ele>827.0</ele><time>2026-03-22T09:46:45.576Z</time></trkpt><trkpt lat="43.7071617" lon="12.2533333"><ele>827.0</ele><time>2026-03-22T09:46:46.577Z</time></trkpt><trkpt lat="43.70697" lon="12.253375"><ele>827.0</ele><time>2026-03-22T09:46:47.576Z</time></trkpt><trkpt lat="43.7068017" lon="12.2533967"><ele>827.0</ele><time>2026-03-22T09:46:48.577Z</time></trkpt><trkpt lat="43.706665" lon="12.253415"><ele>827.75</ele><time>2026-03-22T09:46:49.577Z</time></trkpt><trkpt lat="43.7065367" lon="12.2534083"><ele>828.5</ele><time>2026-03-22T09:46:50.577Z</time></trkpt><trkpt lat="43.706415" lon="12.2533483"><ele>829.25</ele><time>2026-03-22T09:46:51.577Z</time></trkpt><trkpt lat="43.7063" lon="12.2532233"><ele>830.0</ele><time>2026-03-22T09:46:52.576Z</time></trkpt><trkpt lat="43.706195" lon="12.2530567"><ele>833.3333333333334</ele><time>2026-03-22T09:46:53.576Z</time></trkpt><trkpt lat="43.7060817" lon="12.25285"><ele>836.6666666666667</ele><time>2026-03-22T09:46:54.577Z</time></trkpt><trkpt lat="43.70597" lon="12.2526217"><ele>840.0</ele><time>2026-03-22T09:46:55.577Z</time></trkpt><trkpt lat="43.7058733" lon="12.2524267"><ele>843.25</ele><time>2026-03-22T09:46:56.577Z</time></trkpt><trkpt lat="43.7057817" lon="12.2522717"><ele>846.5</ele><time>2026-03-22T09:46:57.577Z</time></trkpt><trkpt lat="43.7056783" lon="12.2521533"><ele>849.75</ele><time>2026-03-22T09:46:58.576Z</time></trkpt><trkpt lat="43.7055367" lon="12.2520683"><ele>853.0</ele><time>2026-03-22T09:46:59.577Z</time></trkpt><trkpt lat="43.7053717" lon="12.2520317"><ele>852.6666666666666</ele><time>2026-03-22T09:47:00.577Z</time></trkpt><trkpt lat="43.7052" lon="12.2520367"><ele>852.3333333333333</ele><time>2026-03-22T09:47:01.577Z</time></trkpt><trkpt lat="43.7050383" lon="12.2520833"><ele>852.0</ele><time>2026-03-22T09:47:02.577Z</time></trkpt><trkpt lat="43.7049017" lon="12.25218"><ele>852.0</ele><time>2026-03-22T09:47:03.577Z</time></trkpt><trkpt lat="43.7047867" lon="12.25228"><ele>852.0</ele><time>2026-03-22T09:47:04.577Z</time></trkpt><trkpt lat="43.7046633" lon="12.2523567"><ele>852.0</ele><time>2026-03-22T09:47:05.577Z</time></trkpt><trkpt lat="43.7045167" lon="12.252395"><ele>852.0</ele><time>2026-03-22T09:47:06.576Z</time></trkpt><trkpt lat="43.70437" lon="12.2523933"><ele>852.25</ele><time>2026-03-22T09:47:07.576Z</time></trkpt><trkpt lat="43.704245" lon="12.2523483"><ele>852.5</ele><time>2026-03-22T09:47:08.577Z</time></trkpt><trkpt lat="43.7041417" lon="12.2522767"><ele>852.75</ele><time>2026-03-22T09:47:09.577Z</time></trkpt><trkpt lat="43.7040617" lon="12.25218"><ele>853.0</ele><time>2026-03-22T09:47:10.577Z</time></trkpt><trkpt lat="43.704025" lon="12.252045"><ele>853.0</ele><time>2026-03-22T09:47:11.576Z</time></trkpt><trkpt lat="43.7040333" lon="12.2518933"><ele>853.0</ele><time>2026-03-22T09:47:12.577Z</time></trkpt><trkpt lat="43.7040917" lon="12.2517333"><ele>853.0</ele><time>2026-03-22T09:47:13.577Z</time></trkpt><trkpt lat="43.7041967" lon="12.2515867"><ele>853.0</ele><time>2026-03-22T09:47:14.577Z</time></trkpt><trkpt lat="43.70433" lon="12.2514483"><ele>857.0</ele><time>2026-03-22T09:47:15.577Z</time></trkpt><trkpt lat="43.7044767" lon="12.251295"><ele>861.0</ele><time>2026-03-22T09:47:16.577Z</time></trkpt><trkpt lat="43.704635" lon="12.2511617"><ele>865.0</ele><time>2026-03-22T09:47:17.577Z</time></trkpt><trkpt lat="43.7048067" lon="12.2510533"><ele>865.0</ele><time>2026-03-22T09:47:18.577Z</time></trkpt><trkpt lat="43.7049817" lon="12.2509767"><ele>865.0</ele><time>2026-03-22T09:47:19.576Z</time></trkpt><trkpt lat="43.705165" lon="12.25094"><ele>865.0</ele><time>2026-03-22T09:47:20.577Z</time></trkpt><trkpt lat="43.7053667" lon="12.2509417"><ele>868.3333333333333</ele><time>2026-03-22T09:47:21.577Z</time></trkpt><trkpt lat="43.70558" lon="12.2509567"><ele>871.6666666666667</ele><time>2026-03-22T09:47:22.577Z</time></trkpt><trkpt lat="43.7057817" lon="12.2509917"><ele>875.0</ele><time>2026-03-22T09:47:23.577Z</time></trkpt><trkpt lat="43.7059533" lon="12.25105"><ele>874.0</ele><time>2026-03-22T09:47:24.576Z</time></trkpt><trkpt lat="43.7061" lon="12.2511167"><ele>873.0</ele><time>2026-03-22T09:47:25.577Z</time></trkpt><trkpt lat="43.7062267" lon="12.25116"><ele>872.0</ele><time>2026-03-22T09:47:26.577Z</time></trkpt><trkpt lat="43.70634" lon="12.2511767"><ele>871.0</ele><time>2026-03-22T09:47:27.577Z</time></trkpt><trkpt lat="43.7064467" lon="12.2511133"><ele>871.0</ele><time>2026-03-22T09:47:28.577Z</time></trkpt><trkpt lat="43.7065633" lon="12.2509967"><ele>871.0</ele><time>2026-03-22T09:47:29.577Z</time></trkpt><trkpt lat="43.7066833" lon="12.2508517"><ele>871.0</ele><time>2026-03-22T09:47:30.576Z</time></trkpt><trkpt lat="43.7068133" lon="12.250675"><ele>871.6666666666666</ele><time>2026-03-22T09:47:31.577Z</time></trkpt><trkpt lat="43.706935" lon="12.25049"><ele>872.3333333333333</ele><time>2026-03-22T09:47:32.577Z</time></trkpt><trkpt lat="43.7070233" lon="12.2502933"><ele>873.0</ele><time>2026-03-22T09:47:33.577Z</time></trkpt><trkpt lat="43.7070933" lon="12.250105"><ele>873.0</ele><time>2026-03-22T09:47:34.576Z</time></trkpt><trkpt lat="43.707165" lon="12.2499333"><ele>873.0</ele><time>2026-03-22T09:47:35.577Z</time></trkpt><trkpt lat="43.70725" lon="12.249785"><ele>873.0</ele><time>2026-03-22T09:47:36.576Z</time></trkpt><trkpt lat="43.707355" lon="12.2496833"><ele>873.0</ele><time>2026-03-22T09:47:37.576Z</time></trkpt><trkpt lat="43.7074883" lon="12.24962"><ele>877.6666666666667</ele><time>2026-03-22T09:47:38.577Z</time></trkpt><trkpt lat="43.707655" lon="12.2495933"><ele>882.3333333333334</ele><time>2026-03-22T09:47:39.576Z</time></trkpt><trkpt lat="43.70784" lon="12.2495733"><ele>887.0</ele><time>2026-03-22T09:47:40.577Z</time></trkpt><trkpt lat="43.708035" lon="12.24952"><ele>887.0</ele><time>2026-03-22T09:47:41.577Z</time></trkpt><trkpt lat="43.7082167" lon="12.2494567"><ele>887.0</ele><time>2026-03-22T09:47:42.577Z</time></trkpt><trkpt lat="43.7083683" lon="12.249395"><ele>887.0</ele><time>2026-03-22T09:47:43.577Z</time></trkpt><trkpt lat="43.70848" lon="12.2493217"><ele>887.0</ele><time>2026-03-22T09:47:44.577Z</time></trkpt><trkpt lat="43.7085733" lon="12.2492333"><ele>887.0</ele><time>2026-03-22T09:47:45.577Z</time></trkpt><trkpt lat="43.7086367" lon="12.249095"><ele>887.0</ele><time>2026-03-22T09:47:46.576Z</time></trkpt><trkpt lat="43.7086933" lon="12.248895"><ele>887.0</ele><time>2026-03-22T09:47:47.577Z</time></trkpt><trkpt lat="43.7087483" lon="12.248665"><ele>886.3333333333334</ele><time>2026-03-22T09:47:48.577Z</time></trkpt><trkpt lat="43.7088233" lon="12.2484433"><ele>885.6666666666667</ele><time>2026-03-22T09:47:49.577Z</time></trkpt><trkpt lat="43.7089433" lon="12.248225"><ele>885.0</ele><time>2026-03-22T09:47:50.576Z</time></trkpt><trkpt lat="43.70908" lon="12.247995"><ele>890.5</ele><time>2026-03-22T09:47:51.576Z</time></trkpt><trkpt lat="43.70923" lon="12.24775"><ele>896.0</ele><time>2026-03-22T09:47:52.577Z</time></trkpt><trkpt lat="43.70939" lon="12.2474983"><ele>897.0</ele><time>2026-03-22T09:47:53.577Z</time></trkpt><trkpt lat="43.7095383" lon="12.247275"><ele>898.0</ele><time>2026-03-22T09:47:54.577Z</time></trkpt><trkpt lat="43.709675" lon="12.2470617"><ele>899.0</ele><time>2026-03-22T09:47:55.577Z</time></trkpt><trkpt lat="43.7097983" lon="12.2468483"><ele>899.0</ele><time>2026-03-22T09:47:56.576Z</time></trkpt><trkpt lat="43.709915" lon="12.2466633"><ele>899.0</ele><time>2026-03-22T09:47:57.577Z</time></trkpt><trkpt lat="43.7100183" lon="12.2464883"><ele>899.0</ele><time>2026-03-22T09:47:58.576Z</time></trkpt><trkpt lat="43.7101433" lon="12.246355"><ele>901.6666666666667</ele><time>2026-03-22T09:47:59.576Z</time></trkpt><trkpt lat="43.7102733" lon="12.2462683"><ele>904.3333333333333</ele><time>2026-03-22T09:48:00.576Z</time></trkpt><trkpt lat="43.71042" lon="12.2462083"><ele>907.0</ele><time>2026-03-22T09:48:01.577Z</time></trkpt><trkpt lat="43.7105783" lon="12.24617"><ele>907.0</ele><time>2026-03-22T09:48:02.577Z</time></trkpt><trkpt lat="43.71074" lon="12.2461583"><ele>907.0</ele><time>2026-03-22T09:48:03.577Z</time></trkpt><trkpt lat="43.71091" lon="12.2461683"><ele>907.0</ele><time>2026-03-22T09:48:04.577Z</time></trkpt><trkpt lat="43.7110833" lon="12.2462117"><ele>911.3333333333333</ele><time>2026-03-22T09:48:05.576Z</time></trkpt><trkpt lat="43.71126" lon="12.2462867"><ele>915.6666666666667</ele><time>2026-03-22T09:48:06.577Z</time></trkpt><trkpt lat="43.711445" lon="12.246355"><ele>920.0</ele><time>2026-03-22T09:48:07.577Z</time></trkpt><trkpt lat="43.7116483" lon="12.2464217"><ele>917.3333333333334</ele><time>2026-03-22T09:48:08.577Z</time></trkpt><trkpt lat="43.71185" lon="12.2464667"><ele>914.6666666666667</ele><time>2026-03-22T09:48:09.577Z</time></trkpt><trkpt lat="43.7120467" lon="12.2465117"><ele>912.0</ele><time>2026-03-22T09:48:10.576Z</time></trkpt><trkpt lat="43.7122467" lon="12.2465733"><ele>912.0</ele><time>2026-03-22T09:48:11.577Z</time></trkpt><trkpt lat="43.7124483" lon="12.24668"><ele>912.0</ele><time>2026-03-22T09:48:12.577Z</time></trkpt><trkpt lat="43.712645" lon="12.2467983"><ele>912.0</ele><time>2026-03-22T09:48:13.577Z</time></trkpt><trkpt lat="43.712815" lon="12.246925"><ele>912.0</ele><time>2026-03-22T09:48:14.577Z</time></trkpt><trkpt lat="43.712965" lon="12.247065"><ele>912.0</ele><time>2026-03-22T09:48:15.577Z</time></trkpt><trkpt lat="43.7130967" lon="12.2471983"><ele>912.0</ele><time>2026-03-22T09:48:16.576Z</time></trkpt><trkpt lat="43.713195" lon="12.24731"><ele>912.0</ele><time>2026-03-22T09:48:17.576Z</time></trkpt><trkpt lat="43.713295" lon="12.2473833"><ele>912.0</ele><time>2026-03-22T09:48:18.576Z</time></trkpt><trkpt lat="43.713415" lon="12.24741"><ele>912.0</ele><time>2026-03-22T09:48:19.576Z</time></trkpt><trkpt lat="43.7135517" lon="12.2473633"><ele>912.0</ele><time>2026-03-22T09:48:20.576Z</time></trkpt><trkpt lat="43.7137017" lon="12.2472567"><ele>914.0</ele><time>2026-03-22T09:48:21.576Z</time></trkpt><trkpt lat="43.7138733" lon="12.24707"><ele>916.0</ele><time>2026-03-22T09:48:22.577Z</time></trkpt><trkpt lat="43.714065" lon="12.24687"><ele>916.0</ele><time>2026-03-22T09:48:23.577Z</time></trkpt><trkpt lat="43.7142733" lon="12.246675"><ele>916.0</ele><time>2026-03-22T09:48:24.577Z</time></trkpt><trkpt lat="43.7144733" lon="12.2465033"><ele>916.3333333333333</ele><time>2026-03-22T09:48:25.577Z</time></trkpt><trkpt lat="43.7146533" lon="12.2463583"><ele>916.6666666666667</ele><time>2026-03-22T09:48:26.577Z</time></trkpt><trkpt lat="43.714815" lon="12.2462267"><ele>917.0</ele><time>2026-03-22T09:48:27.577Z</time></trkpt><trkpt lat="43.7149633" lon="12.2461083"><ele>917.0</ele><time>2026-03-22T09:48:28.577Z</time></trkpt><trkpt lat="43.7150917" lon="12.246015"><ele>917.0</ele><time>2026-03-22T09:48:29.577Z</time></trkpt><trkpt lat="43.7152017" lon="12.245955"><ele>917.0</ele><time>2026-03-22T09:48:30.577Z</time></trkpt><trkpt lat="43.715325" lon="12.2459267"><ele>917.0</ele><time>2026-03-22T09:48:31.577Z</time></trkpt><trkpt lat="43.715465" lon="12.245925"><ele>917.0</ele><time>2026-03-22T09:48:32.577Z</time></trkpt><trkpt lat="43.7156183" lon="12.24596"><ele>917.0</ele><time>2026-03-22T09:48:33.578Z</time></trkpt><trkpt lat="43.71577" lon="12.2460117"><ele>917.0</ele><time>2026-03-22T09:48:34.578Z</time></trkpt><trkpt lat="43.715915" lon="12.24605"><ele>917.6666666666667</ele><time>2026-03-22T09:48:35.577Z</time></trkpt><trkpt lat="43.7160783" lon="12.2460467"><ele>918.3333333333333</ele><time>2026-03-22T09:48:36.578Z</time></trkpt><trkpt lat="43.716255" lon="12.2460167"><ele>919.0</ele><time>2026-03-22T09:48:37.578Z</time></trkpt><trkpt lat="43.7164267" lon="12.2459633"><ele>919.0</ele><time>2026-03-22T09:48:38.578Z</time></trkpt><trkpt lat="43.7165917" lon="12.2459183"><ele>919.0</ele><time>2026-03-22T09:48:39.578Z</time></trkpt><trkpt lat="43.7167483" lon="12.2458733"><ele>919.0</ele><time>2026-03-22T09:48:40.578Z</time></trkpt><trkpt lat="43.7168933" lon="12.2458267"><ele>919.0</ele><time>2026-03-22T09:48:41.578Z</time></trkpt><trkpt lat="43.7170267" lon="12.245745"><ele>919.0</ele><time>2026-03-22T09:48:42.577Z</time></trkpt><trkpt lat="43.7171717" lon="12.2456517"><ele>919.0</ele><time>2026-03-22T09:48:43.577Z</time></trkpt><trkpt lat="43.7172883" lon="12.2455183"><ele>919.0</ele><time>2026-03-22T09:48:44.578Z</time></trkpt><trkpt lat="43.7173933" lon="12.2453783"><ele>919.0</ele><time>2026-03-22T09:48:45.578Z</time></trkpt><trkpt lat="43.717465" lon="12.2452367"><ele>919.0</ele><time>2026-03-22T09:48:46.578Z</time></trkpt><trkpt lat="43.7175217" lon="12.2450883"><ele>919.0</ele><time>2026-03-22T09:48:47.578Z</time></trkpt><trkpt lat="43.7175433" lon="12.244905"><ele>918.0</ele><time>2026-03-22T09:48:48.578Z</time></trkpt><trkpt lat="43.717525" lon="12.2447217"><ele>917.0</ele><time>2026-03-22T09:48:49.577Z</time></trkpt><trkpt lat="43.7174567" lon="12.2445283"><ele>916.0</ele><time>2026-03-22T09:48:50.578Z</time></trkpt><trkpt lat="43.7173517" lon="12.24434"><ele>916.0</ele><time>2026-03-22T09:48:51.578Z</time></trkpt><trkpt lat="43.7172583" lon="12.2441717"><ele>916.0</ele><time>2026-03-22T09:48:52.577Z</time></trkpt><trkpt lat="43.7171783" lon="12.24401"><ele>916.0</ele><time>2026-03-22T09:48:53.577Z</time></trkpt><trkpt lat="43.7171283" lon="12.2438517"><ele>916.0</ele><time>2026-03-22T09:48:54.577Z</time></trkpt><trkpt lat="43.71711" lon="12.24369"><ele>915.75</ele><time>2026-03-22T09:48:55.578Z</time></trkpt><trkpt lat="43.7171267" lon="12.2435133"><ele>915.5</ele><time>2026-03-22T09:48:56.578Z</time></trkpt><trkpt lat="43.7171883" lon="12.243335"><ele>915.25</ele><time>2026-03-22T09:48:57.577Z</time></trkpt><trkpt lat="43.7172683" lon="12.2431717"><ele>915.0</ele><time>2026-03-22T09:48:58.578Z</time></trkpt><trkpt lat="43.717325" lon="12.24302"><ele>915.0</ele><time>2026-03-22T09:48:59.577Z</time></trkpt><trkpt lat="43.7173467" lon="12.2428483"><ele>915.0</ele><time>2026-03-22T09:49:00.578Z</time></trkpt><trkpt lat="43.717345" lon="12.2426717"><ele>915.0</ele><time>2026-03-22T09:49:01.578Z</time></trkpt><trkpt lat="43.7172933" lon="12.2424917"><ele>915.0</ele><time>2026-03-22T09:49:02.578Z</time></trkpt><trkpt lat="43.7172083" lon="12.24233"><ele>913.0</ele><time>2026-03-22T09:49:03.578Z</time></trkpt><trkpt lat="43.7171467" lon="12.2421767"><ele>911.0</ele><time>2026-03-22T09:49:04.578Z</time></trkpt><trkpt lat="43.7171183" lon="12.2420117"><ele>909.0</ele><time>2026-03-22T09:49:05.578Z</time></trkpt><trkpt lat="43.71713" lon="12.2418267"><ele>907.0</ele><time>2026-03-22T09:49:06.578Z</time></trkpt><trkpt lat="43.7171717" lon="12.2416483"><ele>907.0</ele><time>2026-03-22T09:49:07.578Z</time></trkpt><trkpt lat="43.7172517" lon="12.2414983"><ele>907.0</ele><time>2026-03-22T09:49:08.578Z</time></trkpt><trkpt lat="43.7173567" lon="12.2413833"><ele>907.0</ele><time>2026-03-22T09:49:09.578Z</time></trkpt><trkpt lat="43.71748" lon="12.241295"><ele>907.0</ele><time>2026-03-22T09:49:10.578Z</time></trkpt><trkpt lat="43.717635" lon="12.241255"><ele>901.0</ele><time>2026-03-22T09:49:11.578Z</time></trkpt><trkpt lat="43.7178033" lon="12.2412617"><ele>895.0</ele><time>2026-03-22T09:49:12.577Z</time></trkpt><trkpt lat="43.7179783" lon="12.2413017"><ele>889.0</ele><time>2026-03-22T09:49:13.577Z</time></trkpt><trkpt lat="43.7181267" lon="12.2413317"><ele>889.0</ele><time>2026-03-22T09:49:14.578Z</time></trkpt><trkpt lat="43.7182483" lon="12.2413483"><ele>889.0000000000001</ele><time>2026-03-22T09:49:15.577Z</time></trkpt><trkpt lat="43.7183367" lon="12.24132"><ele>889.0000000000001</ele><time>2026-03-22T09:49:16.578Z</time></trkpt><trkpt lat="43.7184167" lon="12.2412517"><ele>889.0</ele><time>2026-03-22T09:49:17.578Z</time></trkpt><trkpt lat="43.7184733" lon="12.2411433"><ele>889.0</ele><time>2026-03-22T09:49:18.578Z</time></trkpt><trkpt lat="43.7184883" lon="12.2410167"><ele>889.0</ele><time>2026-03-22T09:49:19.578Z</time></trkpt><trkpt lat="43.718465" lon="12.2408967"><ele>889.0000000000001</ele><time>2026-03-22T09:49:20.578Z</time></trkpt><trkpt lat="43.7183883" lon="12.2408133"><ele>889.0000000000001</ele><time>2026-03-22T09:49:21.577Z</time></trkpt><trkpt lat="43.71827" lon="12.2407783"><ele>889.0</ele><time>2026-03-22T09:49:22.577Z</time></trkpt><trkpt lat="43.7181467" lon="12.2407817"><ele>889.0</ele><time>2026-03-22T09:49:23.578Z</time></trkpt><trkpt lat="43.7180083" lon="12.2407967"><ele>889.0</ele><time>2026-03-22T09:49:24.578Z</time></trkpt><trkpt lat="43.71784" lon="12.240805"><ele>889.0</ele><time>2026-03-22T09:49:25.578Z</time></trkpt><trkpt lat="43.7176667" lon="12.2407883"><ele>889.0</ele><time>2026-03-22T09:49:26.578Z</time></trkpt><trkpt lat="43.7175" lon="12.2407467"><ele>889.0</ele><time>2026-03-22T09:49:27.578Z</time></trkpt><trkpt lat="43.7173333" lon="12.2407067"><ele>889.0</ele><time>2026-03-22T09:49:28.578Z</time></trkpt><trkpt lat="43.71716" lon="12.24069"><ele>889.0</ele><time>2026-03-22T09:49:29.578Z</time></trkpt><trkpt lat="43.716975" lon="12.2407183"><ele>885.6666666666666</ele><time>2026-03-22T09:49:30.578Z</time></trkpt><trkpt lat="43.716805" lon="12.2407817"><ele>882.3333333333333</ele><time>2026-03-22T09:49:31.578Z</time></trkpt><trkpt lat="43.7166483" lon="12.2408517"><ele>879.0</ele><time>2026-03-22T09:49:32.577Z</time></trkpt><trkpt lat="43.716515" lon="12.2409183"><ele>879.0</ele><time>2026-03-22T09:49:33.577Z</time></trkpt><trkpt lat="43.7164" lon="12.2409883"><ele>879.0</ele><time>2026-03-22T09:49:34.578Z</time></trkpt><trkpt lat="43.7163067" lon="12.24108"><ele>879.0</ele><time>2026-03-22T09:49:35.577Z</time></trkpt><trkpt lat="43.7162417" lon="12.2412267"><ele>879.0</ele><time>2026-03-22T09:49:36.577Z</time></trkpt><trkpt lat="43.7162233" lon="12.2414183"><ele>882.0</ele><time>2026-03-22T09:49:37.578Z</time></trkpt><trkpt lat="43.7162433" lon="12.24163"><ele>885.0</ele><time>2026-03-22T09:49:38.578Z</time></trkpt><trkpt lat="43.7163133" lon="12.2418267"><ele>888.0</ele><time>2026-03-22T09:49:39.578Z</time></trkpt><trkpt lat="43.7163817" lon="12.242"><ele>888.0</ele><time>2026-03-22T09:49:40.577Z</time></trkpt><trkpt lat="43.71642" lon="12.2421633"><ele>888.0</ele><time>2026-03-22T09:49:41.578Z</time></trkpt><trkpt lat="43.716405" lon="12.2423283"><ele>888.0</ele><time>2026-03-22T09:49:42.577Z</time></trkpt><trkpt lat="43.7163433" lon="12.2425017"><ele>888.0</ele><time>2026-03-22T09:49:43.578Z</time></trkpt><trkpt lat="43.7162417" lon="12.2426667"><ele>888.25</ele><time>2026-03-22T09:49:44.578Z</time></trkpt><trkpt lat="43.716115" lon="12.242795"><ele>888.5</ele><time>2026-03-22T09:49:45.578Z</time></trkpt><trkpt lat="43.7159983" lon="12.2428983"><ele>888.75</ele><time>2026-03-22T09:49:46.578Z</time></trkpt><trkpt lat="43.7158883" lon="12.24297"><ele>889.0</ele><time>2026-03-22T09:49:47.578Z</time></trkpt><trkpt lat="43.7157817" lon="12.2429867"><ele>884.0</ele><time>2026-03-22T09:49:48.577Z</time></trkpt><trkpt lat="43.715675" lon="12.242945"><ele>879.0</ele><time>2026-03-22T09:49:49.577Z</time></trkpt><trkpt lat="43.715585" lon="12.2428417"><ele>874.0</ele><time>2026-03-22T09:49:50.577Z</time></trkpt><trkpt lat="43.7155233" lon="12.2426967"><ele>869.0</ele><time>2026-03-22T09:49:51.577Z</time></trkpt><trkpt lat="43.7155067" lon="12.2424983"><ele>867.3333333333334</ele><time>2026-03-22T09:49:52.578Z</time></trkpt><trkpt lat="43.7155317" lon="12.24228"><ele>865.6666666666667</ele><time>2026-03-22T09:49:53.577Z</time></trkpt><trkpt lat="43.715585" lon="12.2420233"><ele>864.0</ele><time>2026-03-22T09:49:54.578Z</time></trkpt><trkpt lat="43.7156733" lon="12.2417217"><ele>862.0</ele><time>2026-03-22T09:49:55.578Z</time></trkpt><trkpt lat="43.715735" lon="12.241415"><ele>860.0</ele><time>2026-03-22T09:49:56.577Z</time></trkpt><trkpt lat="43.7157817" lon="12.2411417"><ele>858.0</ele><time>2026-03-22T09:49:57.577Z</time></trkpt><trkpt lat="43.7158167" lon="12.2408717"><ele>854.3333333333333</ele><time>2026-03-22T09:49:58.578Z</time></trkpt><trkpt lat="43.7158433" lon="12.2405983"><ele>850.6666666666666</ele><time>2026-03-22T09:49:59.578Z</time></trkpt><trkpt lat="43.7158617" lon="12.2403167"><ele>847.0</ele><time>2026-03-22T09:50:00.578Z</time></trkpt><trkpt lat="43.7158583" lon="12.2400467"><ele>847.0</ele><time>2026-03-22T09:50:01.578Z</time></trkpt><trkpt lat="43.7158483" lon="12.2398167"><ele>847.0</ele><time>2026-03-22T09:50:02.578Z</time></trkpt><trkpt lat="43.7158317" lon="12.2396183"><ele>847.0</ele><time>2026-03-22T09:50:03.578Z</time></trkpt><trkpt lat="43.7158267" lon="12.2394433"><ele>847.0</ele><time>2026-03-22T09:50:04.577Z</time></trkpt><trkpt lat="43.7158467" lon="12.2392733"><ele>846.5</ele><time>2026-03-22T09:50:05.578Z</time></trkpt><trkpt lat="43.7159117" lon="12.2391283"><ele>846.0</ele><time>2026-03-22T09:50:06.578Z</time></trkpt><trkpt lat="43.7160083" lon="12.2390317"><ele>845.5</ele><time>2026-03-22T09:50:07.577Z</time></trkpt><trkpt lat="43.7161367" lon="12.2389733"><ele>845.0</ele><time>2026-03-22T09:50:08.577Z</time></trkpt><trkpt lat="43.7162967" lon="12.2389567"><ele>839.3333333333334</ele><time>2026-03-22T09:50:09.578Z</time></trkpt><trkpt lat="43.7164817" lon="12.2389467"><ele>833.6666666666667</ele><time>2026-03-22T09:50:10.578Z</time></trkpt><trkpt lat="43.7166617" lon="12.23894"><ele>828.0</ele><time>2026-03-22T09:50:11.578Z</time></trkpt><trkpt lat="43.7168267" lon="12.2389417"><ele>830.5</ele><time>2026-03-22T09:50:12.578Z</time></trkpt><trkpt lat="43.7169633" lon="12.2388933"><ele>833.0</ele><time>2026-03-22T09:50:13.578Z</time></trkpt><trkpt lat="43.717075" lon="12.238785"><ele>835.5</ele><time>2026-03-22T09:50:14.577Z</time></trkpt><trkpt lat="43.7171633" lon="12.2386133"><ele>838.0</ele><time>2026-03-22T09:50:15.578Z</time></trkpt><trkpt lat="43.7172433" lon="12.2384067"><ele>838.0</ele><time>2026-03-22T09:50:16.578Z</time></trkpt><trkpt lat="43.717295" lon="12.2381983"><ele>838.0</ele><time>2026-03-22T09:50:17.577Z</time></trkpt><trkpt lat="43.7173733" lon="12.2380383"><ele>838.0</ele><time>2026-03-22T09:50:18.578Z</time></trkpt><trkpt lat="43.7174783" lon="12.2379167"><ele>838.0</ele><time>2026-03-22T09:50:19.577Z</time></trkpt><trkpt lat="43.71762" lon="12.2378583"><ele>836.5</ele><time>2026-03-22T09:50:20.578Z</time></trkpt><trkpt lat="43.7177667" lon="12.2378333"><ele>835.0</ele><time>2026-03-22T09:50:21.578Z</time></trkpt><trkpt lat="43.7179" lon="12.2378233"><ele>833.5</ele><time>2026-03-22T09:50:22.578Z</time></trkpt><trkpt lat="43.718005" lon="12.2377967"><ele>832.0</ele><time>2026-03-22T09:50:23.577Z</time></trkpt><trkpt lat="43.7180883" lon="12.2377217"><ele>832.0</ele><time>2026-03-22T09:50:24.577Z</time></trkpt><trkpt lat="43.718145" lon="12.2376033"><ele>832.0</ele><time>2026-03-22T09:50:25.577Z</time></trkpt><trkpt lat="43.7181517" lon="12.2374683"><ele>832.0</ele><time>2026-03-22T09:50:26.578Z</time></trkpt><trkpt lat="43.718115" lon="12.237345"><ele>832.0</ele><time>2026-03-22T09:50:27.578Z</time></trkpt><trkpt lat="43.7180217" lon="12.23724"><ele>832.0</ele><time>2026-03-22T09:50:28.578Z</time></trkpt><trkpt lat="43.7179133" lon="12.2372017"><ele>830.25</ele><time>2026-03-22T09:50:29.578Z</time></trkpt><trkpt lat="43.71779" lon="12.2372233"><ele>828.5</ele><time>2026-03-22T09:50:30.578Z</time></trkpt><trkpt lat="43.7176467" lon="12.237295"><ele>826.75</ele><time>2026-03-22T09:50:31.578Z</time></trkpt><trkpt lat="43.7175167" lon="12.2373867"><ele>825.0</ele><time>2026-03-22T09:50:32.578Z</time></trkpt><trkpt lat="43.7174" lon="12.2374633"><ele>825.0</ele><time>2026-03-22T09:50:33.577Z</time></trkpt><trkpt lat="43.717295" lon="12.2374883"><ele>825.0</ele><time>2026-03-22T09:50:34.578Z</time></trkpt><trkpt lat="43.717195" lon="12.2374667"><ele>825.0</ele><time>2026-03-22T09:50:35.577Z</time></trkpt><trkpt lat="43.7171117" lon="12.2374033"><ele>825.0</ele><time>2026-03-22T09:50:36.577Z</time></trkpt><trkpt lat="43.7170533" lon="12.2372883"><ele>825.0</ele><time>2026-03-22T09:50:37.578Z</time></trkpt><trkpt lat="43.7170333" lon="12.237135"><ele>821.75</ele><time>2026-03-22T09:50:38.578Z</time></trkpt><trkpt lat="43.7170667" lon="12.236985"><ele>818.5</ele><time>2026-03-22T09:50:39.578Z</time></trkpt><trkpt lat="43.71715" lon="12.23686"><ele>815.25</ele><time>2026-03-22T09:50:40.578Z</time></trkpt><trkpt lat="43.7172783" lon="12.23675"><ele>812.0</ele><time>2026-03-22T09:50:41.578Z</time></trkpt><trkpt lat="43.71743" lon="12.2366433"><ele>812.0</ele><time>2026-03-22T09:50:42.578Z</time></trkpt><trkpt lat="43.7175917" lon="12.23653"><ele>812.0</ele><time>2026-03-22T09:50:43.578Z</time></trkpt><trkpt lat="43.7177383" lon="12.2364117"><ele>812.0</ele><time>2026-03-22T09:50:44.578Z</time></trkpt><trkpt lat="43.717885" lon="12.2363"><ele>811.6666666666667</ele><time>2026-03-22T09:50:45.578Z</time></trkpt><trkpt lat="43.7180267" lon="12.2361833"><ele>811.3333333333333</ele><time>2026-03-22T09:50:46.577Z</time></trkpt><trkpt lat="43.7181533" lon="12.2360483"><ele>811.0</ele><time>2026-03-22T09:50:47.577Z</time></trkpt><trkpt lat="43.7182683" lon="12.2358583"><ele>808.3333333333333</ele><time>2026-03-22T09:50:48.578Z</time></trkpt><trkpt lat="43.7183517" lon="12.2356217"><ele>805.6666666666667</ele><time>2026-03-22T09:50:49.578Z</time></trkpt><trkpt lat="43.7184133" lon="12.23539"><ele>803.0</ele><time>2026-03-22T09:50:50.577Z</time></trkpt><trkpt lat="43.7184633" lon="12.2351683"><ele>803.0</ele><time>2026-03-22T09:50:51.577Z</time></trkpt><trkpt lat="43.7185317" lon="12.2349583"><ele>803.0</ele><time>2026-03-22T09:50:52.578Z</time></trkpt><trkpt lat="43.7186233" lon="12.2347533"><ele>803.0</ele><time>2026-03-22T09:50:53.577Z</time></trkpt><trkpt lat="43.71874" lon="12.2345633"><ele>804.3333333333334</ele><time>2026-03-22T09:50:54.578Z</time></trkpt><trkpt lat="43.7188733" lon="12.234395"><ele>805.6666666666667</ele><time>2026-03-22T09:50:55.578Z</time></trkpt><trkpt lat="43.718995" lon="12.2342517"><ele>807.0</ele><time>2026-03-22T09:50:56.578Z</time></trkpt><trkpt lat="43.7191083" lon="12.23412"><ele>807.0</ele><time>2026-03-22T09:50:57.578Z</time></trkpt><trkpt lat="43.7192317" lon="12.234015"><ele>807.0</ele><time>2026-03-22T09:50:58.578Z</time></trkpt><trkpt lat="43.7193633" lon="12.2339567"><ele>807.0</ele><time>2026-03-22T09:50:59.578Z</time></trkpt><trkpt lat="43.7195117" lon="12.2339417"><ele>807.0</ele><time>2026-03-22T09:51:00.578Z</time></trkpt><trkpt lat="43.7196867" lon="12.233985"><ele>806.3333333333333</ele><time>2026-03-22T09:51:01.578Z</time></trkpt><trkpt lat="43.7198683" lon="12.2340583"><ele>805.6666666666666</ele><time>2026-03-22T09:51:02.578Z</time></trkpt><trkpt lat="43.7200783" lon="12.2341333"><ele>805.0</ele><time>2026-03-22T09:51:03.578Z</time></trkpt><trkpt lat="43.7202983" lon="12.23419"><ele>805.0</ele><time>2026-03-22T09:51:04.578Z</time></trkpt><trkpt lat="43.7204967" lon="12.2342467"><ele>805.0</ele><time>2026-03-22T09:51:05.578Z</time></trkpt><trkpt lat="43.7206867" lon="12.2343033"><ele>805.0</ele><time>2026-03-22T09:51:06.578Z</time></trkpt><trkpt lat="43.7208533" lon="12.23436"><ele>805.0</ele><time>2026-03-22T09:51:07.578Z</time></trkpt><trkpt lat="43.7209983" lon="12.2344117"><ele>805.0</ele><time>2026-03-22T09:51:08.577Z</time></trkpt><trkpt lat="43.721115" lon="12.2344883"><ele>805.0</ele><time>2026-03-22T09:51:09.577Z</time></trkpt><trkpt lat="43.72121" lon="12.234585"><ele>805.0</ele><time>2026-03-22T09:51:10.578Z</time></trkpt><trkpt lat="43.7212867" lon="12.2346783"><ele>802.5</ele><time>2026-03-22T09:51:11.578Z</time></trkpt><trkpt lat="43.7213833" lon="12.2347417"><ele>800.0</ele><time>2026-03-22T09:51:12.578Z</time></trkpt><trkpt lat="43.7215083" lon="12.2347417"><ele>797.5</ele><time>2026-03-22T09:51:13.577Z</time></trkpt><trkpt lat="43.7216267" lon="12.2346917"><ele>795.0</ele><time>2026-03-22T09:51:14.578Z</time></trkpt><trkpt lat="43.72174" lon="12.2346733"><ele>795.0</ele><time>2026-03-22T09:51:15.577Z</time></trkpt><trkpt lat="43.7218583" lon="12.2347"><ele>795.0</ele><time>2026-03-22T09:51:16.578Z</time></trkpt><trkpt lat="43.7219867" lon="12.234785"><ele>795.0</ele><time>2026-03-22T09:51:17.577Z</time></trkpt><trkpt lat="43.7221067" lon="12.2349233"><ele>795.0</ele><time>2026-03-22T09:51:18.577Z</time></trkpt><trkpt lat="43.7222133" lon="12.235065"><ele>797.5</ele><time>2026-03-22T09:51:19.578Z</time></trkpt><trkpt lat="43.7223117" lon="12.2351833"><ele>800.0</ele><time>2026-03-22T09:51:20.577Z</time></trkpt><trkpt lat="43.7224283" lon="12.2352483"><ele>802.5</ele><time>2026-03-22T09:51:21.578Z</time></trkpt><trkpt lat="43.7225533" lon="12.2352717"><ele>805.0</ele><time>2026-03-22T09:51:22.578Z</time></trkpt><trkpt lat="43.7226783" lon="12.2352167"><ele>806.3333333333333</ele><time>2026-03-22T09:51:23.578Z</time></trkpt><trkpt lat="43.7227817" lon="12.235095"><ele>807.6666666666667</ele><time>2026-03-22T09:51:24.578Z</time></trkpt><trkpt lat="43.72287" lon="12.234915"><ele>809.0</ele><time>2026-03-22T09:51:25.578Z</time></trkpt><trkpt lat="43.7229433" lon="12.234665"><ele>809.0</ele><time>2026-03-22T09:51:26.578Z</time></trkpt><trkpt lat="43.7230117" lon="12.2343717"><ele>809.0</ele><time>2026-03-22T09:51:27.578Z</time></trkpt><trkpt lat="43.7230767" lon="12.2340533"><ele>807.5</ele><time>2026-03-22T09:51:28.577Z</time></trkpt><trkpt lat="43.723145" lon="12.2337367"><ele>806.0</ele><time>2026-03-22T09:51:29.578Z</time></trkpt><trkpt lat="43.7232233" lon="12.23345"><ele>806.0</ele><time>2026-03-22T09:51:30.577Z</time></trkpt><trkpt lat="43.7232967" lon="12.23319"><ele>806.0</ele><time>2026-03-22T09:51:31.578Z</time></trkpt><trkpt lat="43.7233617" lon="12.2329467"><ele>806.0</ele><time>2026-03-22T09:51:32.577Z</time></trkpt><trkpt lat="43.723415" lon="12.23271"><ele>804.3333333333334</ele><time>2026-03-22T09:51:33.578Z</time></trkpt><trkpt lat="43.7234433" lon="12.2324783"><ele>802.6666666666667</ele><time>2026-03-22T09:51:34.578Z</time></trkpt><trkpt lat="43.7234367" lon="12.23224"><ele>801.0</ele><time>2026-03-22T09:51:35.577Z</time></trkpt><trkpt lat="43.72339" lon="12.2320167"><ele>800.75</ele><time>2026-03-22T09:51:36.577Z</time></trkpt><trkpt lat="43.7233467" lon="12.23181"><ele>800.5</ele><time>2026-03-22T09:51:37.578Z</time></trkpt><trkpt lat="43.7233267" lon="12.2316083"><ele>800.25</ele><time>2026-03-22T09:51:38.578Z</time></trkpt><trkpt lat="43.7233467" lon="12.23141"><ele>800.0</ele><time>2026-03-22T09:51:39.578Z</time></trkpt><trkpt lat="43.7234117" lon="12.2312167"><ele>798.6666666666667</ele><time>2026-03-22T09:51:40.578Z</time></trkpt><trkpt lat="43.7235117" lon="12.2310183"><ele>797.3333333333333</ele><time>2026-03-22T09:51:41.577Z</time></trkpt><trkpt lat="43.723625" lon="12.2308133"><ele>796.0</ele><time>2026-03-22T09:51:42.577Z</time></trkpt><trkpt lat="43.7237417" lon="12.230605"><ele>799.0</ele><time>2026-03-22T09:51:43.578Z</time></trkpt><trkpt lat="43.7238533" lon="12.2304367"><ele>802.0</ele><time>2026-03-22T09:51:44.578Z</time></trkpt><trkpt lat="43.7239483" lon="12.230255"><ele>805.0</ele><time>2026-03-22T09:51:45.577Z</time></trkpt><trkpt lat="43.7240233" lon="12.23004"><ele>805.3333333333333</ele><time>2026-03-22T09:51:46.578Z</time></trkpt><trkpt lat="43.7240783" lon="12.2297917"><ele>805.6666666666667</ele><time>2026-03-22T09:51:47.577Z</time></trkpt><trkpt lat="43.72411" lon="12.2295133"><ele>806.0</ele><time>2026-03-22T09:51:48.579Z</time></trkpt><trkpt lat="43.7241333" lon="12.2291967"><ele>805.3333333333334</ele><time>2026-03-22T09:51:49.578Z</time></trkpt><trkpt lat="43.7241617" lon="12.2288817"><ele>804.6666666666667</ele><time>2026-03-22T09:51:50.578Z</time></trkpt><trkpt lat="43.7241917" lon="12.2285833"><ele>804.0</ele><time>2026-03-22T09:51:51.579Z</time></trkpt><trkpt lat="43.7242133" lon="12.228315"><ele>803.3333333333333</ele><time>2026-03-22T09:51:52.579Z</time></trkpt><trkpt lat="43.7242417" lon="12.2280717"><ele>802.6666666666666</ele><time>2026-03-22T09:51:53.579Z</time></trkpt><trkpt lat="43.7242567" lon="12.2278383"><ele>802.0</ele><time>2026-03-22T09:51:54.578Z</time></trkpt><trkpt lat="43.72425" lon="12.2276067"><ele>802.0</ele><time>2026-03-22T09:51:55.578Z</time></trkpt><trkpt lat="43.72422" lon="12.2273683"><ele>802.0</ele><time>2026-03-22T09:51:56.579Z</time></trkpt><trkpt lat="43.7241417" lon="12.2271"><ele>802.0</ele><time>2026-03-22T09:51:57.579Z</time></trkpt><trkpt lat="43.72405" lon="12.2268317"><ele>803.6666666666666</ele><time>2026-03-22T09:51:58.578Z</time></trkpt><trkpt lat="43.7239667" lon="12.22659"><ele>805.3333333333333</ele><time>2026-03-22T09:51:59.579Z</time></trkpt><trkpt lat="43.72388" lon="12.22635"><ele>807.0</ele><time>2026-03-22T09:52:00.579Z</time></trkpt><trkpt lat="43.7237617" lon="12.2261417"><ele>805.6666666666667</ele><time>2026-03-22T09:52:01.579Z</time></trkpt><trkpt lat="43.72362" lon="12.2259383"><ele>804.3333333333334</ele><time>2026-03-22T09:52:02.578Z</time></trkpt><trkpt lat="43.723475" lon="12.2257767"><ele>803.0</ele><time>2026-03-22T09:52:03.578Z</time></trkpt><trkpt lat="43.72333" lon="12.2256467"><ele>806.75</ele><time>2026-03-22T09:52:04.579Z</time></trkpt><trkpt lat="43.7232083" lon="12.2255233"><ele>810.5</ele><time>2026-03-22T09:52:05.579Z</time></trkpt><trkpt lat="43.723095" lon="12.2254133"><ele>814.25</ele><time>2026-03-22T09:52:06.579Z</time></trkpt><trkpt lat="43.7229967" lon="12.22529"><ele>818.0</ele><time>2026-03-22T09:52:07.578Z</time></trkpt><trkpt lat="43.7229133" lon="12.2251167"><ele>818.0</ele><time>2026-03-22T09:52:08.579Z</time></trkpt><trkpt lat="43.7228517" lon="12.2249083"><ele>818.0</ele><time>2026-03-22T09:52:09.578Z</time></trkpt><trkpt lat="43.7227983" lon="12.2246633"><ele>818.0</ele><time>2026-03-22T09:52:10.578Z</time></trkpt><trkpt lat="43.7227433" lon="12.2244"><ele>813.0</ele><time>2026-03-22T09:52:11.579Z</time></trkpt><trkpt lat="43.7226883" lon="12.2241383"><ele>808.0</ele><time>2026-03-22T09:52:12.579Z</time></trkpt><trkpt lat="43.722635" lon="12.2238917"><ele>803.0</ele><time>2026-03-22T09:52:13.579Z</time></trkpt><trkpt lat="43.7225817" lon="12.2236517"><ele>803.0</ele><time>2026-03-22T09:52:14.579Z</time></trkpt><trkpt lat="43.72253" lon="12.2234433"><ele>803.0</ele><time>2026-03-22T09:52:15.579Z</time></trkpt><trkpt lat="43.7224567" lon="12.223245"><ele>803.0</ele><time>2026-03-22T09:52:16.578Z</time></trkpt><trkpt lat="43.72236" lon="12.223085"><ele>803.6666666666667</ele><time>2026-03-22T09:52:17.579Z</time></trkpt><trkpt lat="43.72223" lon="12.2229633"><ele>804.3333333333333</ele><time>2026-03-22T09:52:18.579Z</time></trkpt><trkpt lat="43.7220883" lon="12.22288"><ele>805.0</ele><time>2026-03-22T09:52:19.579Z</time></trkpt><trkpt lat="43.7219233" lon="12.222825"><ele>803.6666666666666</ele><time>2026-03-22T09:52:20.579Z</time></trkpt><trkpt lat="43.7217467" lon="12.2227783"><ele>802.3333333333333</ele><time>2026-03-22T09:52:21.579Z</time></trkpt><trkpt lat="43.7215617" lon="12.2227317"><ele>801.0</ele><time>2026-03-22T09:52:22.579Z</time></trkpt><trkpt lat="43.721365" lon="12.2226817"><ele>801.0</ele><time>2026-03-22T09:52:23.578Z</time></trkpt><trkpt lat="43.7211833" lon="12.2226367"><ele>801.0</ele><time>2026-03-22T09:52:24.579Z</time></trkpt><trkpt lat="43.721005" lon="12.2225817"><ele>801.0</ele><time>2026-03-22T09:52:25.579Z</time></trkpt><trkpt lat="43.7208417" lon="12.22254"><ele>799.0</ele><time>2026-03-22T09:52:26.579Z</time></trkpt><trkpt lat="43.7206983" lon="12.2225067"><ele>797.0</ele><time>2026-03-22T09:52:27.579Z</time></trkpt><trkpt lat="43.72056" lon="12.222515"><ele>795.0</ele><time>2026-03-22T09:52:28.578Z</time></trkpt><trkpt lat="43.7204217" lon="12.2225867"><ele>793.0</ele><time>2026-03-22T09:52:29.579Z</time></trkpt><trkpt lat="43.72029" lon="12.2226817"><ele>791.4</ele><time>2026-03-22T09:52:30.579Z</time></trkpt><trkpt lat="43.7201717" lon="12.222765"><ele>789.8</ele><time>2026-03-22T09:52:31.578Z</time></trkpt><trkpt lat="43.720065" lon="12.2228083"><ele>788.2</ele><time>2026-03-22T09:52:32.579Z</time></trkpt><trkpt lat="43.7199617" lon="12.2228183"><ele>786.6</ele><time>2026-03-22T09:52:33.579Z</time></trkpt><trkpt lat="43.7198817" lon="12.2227783"><ele>785.0</ele><time>2026-03-22T09:52:34.578Z</time></trkpt><trkpt lat="43.71982" lon="12.2227183"><ele>785.0</ele><time>2026-03-22T09:52:35.579Z</time></trkpt><trkpt lat="43.719795" lon="12.2226133"><ele>785.0</ele><time>2026-03-22T09:52:36.578Z</time></trkpt><trkpt lat="43.71981" lon="12.2224967"><ele>785.0</ele><time>2026-03-22T09:52:37.578Z</time></trkpt><trkpt lat="43.7198633" lon="12.2223717"><ele>785.0</ele><time>2026-03-22T09:52:38.579Z</time></trkpt><trkpt lat="43.719955" lon="12.222245"><ele>785.0</ele><time>2026-03-22T09:52:39.579Z</time></trkpt><trkpt lat="43.7200833" lon="12.222105"><ele>785.6666666666667</ele><time>2026-03-22T09:52:40.579Z</time></trkpt><trkpt lat="43.7202183" lon="12.221955"><ele>786.3333333333333</ele><time>2026-03-22T09:52:41.579Z</time></trkpt><trkpt lat="43.72034" lon="12.2217933"><ele>787.0</ele><time>2026-03-22T09:52:42.578Z</time></trkpt><trkpt lat="43.7204617" lon="12.2216533"><ele>787.0</ele><time>2026-03-22T09:52:43.578Z</time></trkpt><trkpt lat="43.7205867" lon="12.2215283"><ele>787.0</ele><time>2026-03-22T09:52:44.579Z</time></trkpt><trkpt lat="43.7207183" lon="12.2214217"><ele>787.0</ele><time>2026-03-22T09:52:45.579Z</time></trkpt><trkpt lat="43.7208617" lon="12.221325"><ele>787.25</ele><time>2026-03-22T09:52:46.578Z</time></trkpt><trkpt lat="43.7210083" lon="12.2212567"><ele>787.5</ele><time>2026-03-22T09:52:47.579Z</time></trkpt><trkpt lat="43.7211467" lon="12.2211967"><ele>787.75</ele><time>2026-03-22T09:52:48.579Z</time></trkpt><trkpt lat="43.7212733" lon="12.2211117"><ele>788.0</ele><time>2026-03-22T09:52:49.579Z</time></trkpt><trkpt lat="43.72139" lon="12.2210017"><ele>788.0</ele><time>2026-03-22T09:52:50.579Z</time></trkpt><trkpt lat="43.7214633" lon="12.22085"><ele>788.0</ele><time>2026-03-22T09:52:51.578Z</time></trkpt><trkpt lat="43.721525" lon="12.2206833"><ele>788.0</ele><time>2026-03-22T09:52:52.578Z</time></trkpt><trkpt lat="43.7215433" lon="12.2205033"><ele>788.0</ele><time>2026-03-22T09:52:53.579Z</time></trkpt><trkpt lat="43.7215267" lon="12.220305"><ele>785.75</ele><time>2026-03-22T09:52:54.578Z</time></trkpt><trkpt lat="43.7214783" lon="12.2201283"><ele>783.5</ele><time>2026-03-22T09:52:55.579Z</time></trkpt><trkpt lat="43.7214433" lon="12.2199533"><ele>781.25</ele><time>2026-03-22T09:52:56.578Z</time></trkpt><trkpt lat="43.7214283" lon="12.2197817"><ele>779.0</ele><time>2026-03-22T09:52:57.578Z</time></trkpt><trkpt lat="43.721465" lon="12.219605"><ele>776.75</ele><time>2026-03-22T09:52:58.579Z</time></trkpt><trkpt lat="43.7215333" lon="12.219415"><ele>774.5</ele><time>2026-03-22T09:52:59.579Z</time></trkpt><trkpt lat="43.7216083" lon="12.21924"><ele>772.25</ele><time>2026-03-22T09:53:00.579Z</time></trkpt><trkpt lat="43.72168" lon="12.2191"><ele>770.0</ele><time>2026-03-22T09:53:01.578Z</time></trkpt><trkpt lat="43.7217617" lon="12.219005"><ele>769.75</ele><time>2026-03-22T09:53:02.578Z</time></trkpt><trkpt lat="43.72186" lon="12.2189517"><ele>769.5</ele><time>2026-03-22T09:53:03.578Z</time></trkpt><trkpt lat="43.72197" lon="12.2189367"><ele>769.25</ele><time>2026-03-22T09:53:04.579Z</time></trkpt><trkpt lat="43.72209" lon="12.2189817"><ele>769.0</ele><time>2026-03-22T09:53:05.578Z</time></trkpt><trkpt lat="43.7222133" lon="12.2190783"><ele>768.3333333333333</ele><time>2026-03-22T09:53:06.578Z</time></trkpt><trkpt lat="43.72234" lon="12.219205"><ele>767.6666666666666</ele><time>2026-03-22T09:53:07.578Z</time></trkpt><trkpt lat="43.722475" lon="12.2193083"><ele>767.0</ele><time>2026-03-22T09:53:08.579Z</time></trkpt><trkpt lat="43.7226183" lon="12.2193817"><ele>767.0</ele><time>2026-03-22T09:53:09.579Z</time></trkpt><trkpt lat="43.72276" lon="12.219415"><ele>767.0</ele><time>2026-03-22T09:53:10.578Z</time></trkpt><trkpt lat="43.722895" lon="12.2194167"><ele>767.0</ele><time>2026-03-22T09:53:11.578Z</time></trkpt><trkpt lat="43.7230267" lon="12.219385"><ele>767.0</ele><time>2026-03-22T09:53:12.579Z</time></trkpt><trkpt lat="43.72316" lon="12.2193017"><ele>767.0</ele><time>2026-03-22T09:53:13.579Z</time></trkpt><trkpt lat="43.723285" lon="12.2191767"><ele>767.0</ele><time>2026-03-22T09:53:14.579Z</time></trkpt><trkpt lat="43.7234117" lon="12.2190317"><ele>767.0</ele><time>2026-03-22T09:53:15.578Z</time></trkpt><trkpt lat="43.7235017" lon="12.218885"><ele>767.6666666666666</ele><time>2026-03-22T09:53:16.578Z</time></trkpt><trkpt lat="43.72356" lon="12.218715"><ele>768.3333333333333</ele><time>2026-03-22T09:53:17.579Z</time></trkpt><trkpt lat="43.7235933" lon="12.2185017"><ele>769.0</ele><time>2026-03-22T09:53:18.578Z</time></trkpt><trkpt lat="43.7236033" lon="12.218255"><ele>767.6666666666666</ele><time>2026-03-22T09:53:19.579Z</time></trkpt><trkpt lat="43.7236067" lon="12.217995"><ele>766.3333333333333</ele><time>2026-03-22T09:53:20.579Z</time></trkpt><trkpt lat="43.72361" lon="12.217745"><ele>765.0</ele><time>2026-03-22T09:53:21.579Z</time></trkpt><trkpt lat="43.72362" lon="12.2175067"><ele>762.0</ele><time>2026-03-22T09:53:22.579Z</time></trkpt><trkpt lat="43.72365" lon="12.2172783"><ele>759.0</ele><time>2026-03-22T09:53:23.579Z</time></trkpt><trkpt lat="43.723695" lon="12.2170517"><ele>756.0</ele><time>2026-03-22T09:53:24.579Z</time></trkpt><trkpt lat="43.7237467" lon="12.21684"><ele>756.0</ele><time>2026-03-22T09:53:25.579Z</time></trkpt><trkpt lat="43.7238" lon="12.216635"><ele>756.0</ele><time>2026-03-22T09:53:26.579Z</time></trkpt><trkpt lat="43.7238567" lon="12.2164633"><ele>756.0</ele><time>2026-03-22T09:53:27.578Z</time></trkpt><trkpt lat="43.7239183" lon="12.2163117"><ele>756.0</ele><time>2026-03-22T09:53:28.579Z</time></trkpt><trkpt lat="43.7240033" lon="12.2161667"><ele>752.3333333333334</ele><time>2026-03-22T09:53:29.579Z</time></trkpt><trkpt lat="43.7241217" lon="12.2160267"><ele>748.6666666666667</ele><time>2026-03-22T09:53:30.579Z</time></trkpt><trkpt lat="43.7242483" lon="12.21586"><ele>745.0</ele><time>2026-03-22T09:53:31.579Z</time></trkpt><trkpt lat="43.7243617" lon="12.2156567"><ele>745.0</ele><time>2026-03-22T09:53:32.579Z</time></trkpt><trkpt lat="43.7244433" lon="12.2154417"><ele>745.0</ele><time>2026-03-22T09:53:33.579Z</time></trkpt><trkpt lat="43.7245233" lon="12.21523"><ele>745.0</ele><time>2026-03-22T09:53:34.579Z</time></trkpt><trkpt lat="43.7245983" lon="12.2150383"><ele>745.0</ele><time>2026-03-22T09:53:35.579Z</time></trkpt><trkpt lat="43.7246883" lon="12.2148767"><ele>745.0</ele><time>2026-03-22T09:53:36.578Z</time></trkpt><trkpt lat="43.7248167" lon="12.214725"><ele>745.0</ele><time>2026-03-22T09:53:37.579Z</time></trkpt><trkpt lat="43.7249783" lon="12.2145767"><ele>743.0</ele><time>2026-03-22T09:53:38.579Z</time></trkpt><trkpt lat="43.7251433" lon="12.2144383"><ele>741.0</ele><time>2026-03-22T09:53:39.579Z</time></trkpt><trkpt lat="43.7253017" lon="12.2143017"><ele>739.0</ele><time>2026-03-22T09:53:40.579Z</time></trkpt><trkpt lat="43.725445" lon="12.21418"><ele>739.0</ele><time>2026-03-22T09:53:41.578Z</time></trkpt><trkpt lat="43.725555" lon="12.2140567"><ele>739.0</ele><time>2026-03-22T09:53:42.579Z</time></trkpt><trkpt lat="43.72564" lon="12.2139083"><ele>739.0</ele><time>2026-03-22T09:53:43.579Z</time></trkpt><trkpt lat="43.7256817" lon="12.21373"><ele>739.0</ele><time>2026-03-22T09:53:44.579Z</time></trkpt><trkpt lat="43.7256817" lon="12.2135367"><ele>735.0</ele><time>2026-03-22T09:53:45.578Z</time></trkpt><trkpt lat="43.7256267" lon="12.21335"><ele>731.0</ele><time>2026-03-22T09:53:46.578Z</time></trkpt><trkpt lat="43.7255133" lon="12.21317"><ele>727.0</ele><time>2026-03-22T09:53:47.579Z</time></trkpt><trkpt lat="43.7253567" lon="12.2129883"><ele>724.6666666666667</ele><time>2026-03-22T09:53:48.579Z</time></trkpt><trkpt lat="43.7251883" lon="12.2128117"><ele>722.3333333333334</ele><time>2026-03-22T09:53:49.579Z</time></trkpt><trkpt lat="43.7250083" lon="12.2126417"><ele>720.0</ele><time>2026-03-22T09:53:50.579Z</time></trkpt><trkpt lat="43.7248283" lon="12.2124767"><ele>720.0</ele><time>2026-03-22T09:53:51.579Z</time></trkpt><trkpt lat="43.7246533" lon="12.2123283"><ele>720.0</ele><time>2026-03-22T09:53:52.579Z</time></trkpt><trkpt lat="43.7244867" lon="12.212185"><ele>720.0</ele><time>2026-03-22T09:53:53.579Z</time></trkpt><trkpt lat="43.72431" lon="12.21205"><ele>717.0</ele><time>2026-03-22T09:53:54.578Z</time></trkpt><trkpt lat="43.7241383" lon="12.2119217"><ele>714.0</ele><time>2026-03-22T09:53:55.579Z</time></trkpt><trkpt lat="43.7239867" lon="12.2118217"><ele>711.0</ele><time>2026-03-22T09:53:56.578Z</time></trkpt><trkpt lat="43.72385" lon="12.2117367"><ele>711.0</ele><time>2026-03-22T09:53:57.579Z</time></trkpt><trkpt lat="43.7237233" lon="12.2116883"><ele>711.0</ele><time>2026-03-22T09:53:58.579Z</time></trkpt><trkpt lat="43.7235967" lon="12.2116833"><ele>711.0</ele><time>2026-03-22T09:53:59.578Z</time></trkpt><trkpt lat="43.7234683" lon="12.211735"><ele>711.0</ele><time>2026-03-22T09:54:00.579Z</time></trkpt><trkpt lat="43.7233467" lon="12.2118517"><ele>713.0</ele><time>2026-03-22T09:54:01.579Z</time></trkpt><trkpt lat="43.7232117" lon="12.2120333"><ele>715.0</ele><time>2026-03-22T09:54:02.579Z</time></trkpt><trkpt lat="43.72309" lon="12.2122367"><ele>717.0</ele><time>2026-03-22T09:54:03.579Z</time></trkpt><trkpt lat="43.72297" lon="12.21243"><ele>717.0</ele><time>2026-03-22T09:54:04.579Z</time></trkpt><trkpt lat="43.7228583" lon="12.2126183"><ele>717.0</ele><time>2026-03-22T09:54:05.579Z</time></trkpt><trkpt lat="43.7227767" lon="12.2128"><ele>717.0</ele><time>2026-03-22T09:54:06.578Z</time></trkpt><trkpt lat="43.7227283" lon="12.2129983"><ele>712.75</ele><time>2026-03-22T09:54:07.579Z</time></trkpt><trkpt lat="43.7226783" lon="12.213165"><ele>708.5</ele><time>2026-03-22T09:54:08.578Z</time></trkpt><trkpt lat="43.72261" lon="12.2132983"><ele>704.25</ele><time>2026-03-22T09:54:09.579Z</time></trkpt><trkpt lat="43.72252" lon="12.2133817"><ele>700.0</ele><time>2026-03-22T09:54:10.578Z</time></trkpt><trkpt lat="43.7224067" lon="12.2134133"><ele>700.0</ele><time>2026-03-22T09:54:11.578Z</time></trkpt><trkpt lat="43.72227" lon="12.2133733"><ele>700.0</ele><time>2026-03-22T09:54:12.579Z</time></trkpt><trkpt lat="43.7221217" lon="12.21328"><ele>700.0</ele><time>2026-03-22T09:54:13.579Z</time></trkpt><trkpt lat="43.72196" lon="12.2131583"><ele>696.3333333333334</ele><time>2026-03-22T09:54:14.579Z</time></trkpt><trkpt lat="43.7217667" lon="12.21301"><ele>692.6666666666666</ele><time>2026-03-22T09:54:15.578Z</time></trkpt><trkpt lat="43.7215817" lon="12.21288"><ele>689.0</ele><time>2026-03-22T09:54:16.578Z</time></trkpt><trkpt lat="43.7213967" lon="12.21275"><ele>689.0</ele><time>2026-03-22T09:54:17.579Z</time></trkpt><trkpt lat="43.7212383" lon="12.2126283"><ele>689.0</ele><time>2026-03-22T09:54:18.579Z</time></trkpt><trkpt lat="43.72109" lon="12.2125217"><ele>689.0</ele><time>2026-03-22T09:54:19.578Z</time></trkpt><trkpt lat="43.7209533" lon="12.2124017"><ele>686.0</ele><time>2026-03-22T09:54:20.579Z</time></trkpt><trkpt lat="43.720835" lon="12.2122417"><ele>683.0</ele><time>2026-03-22T09:54:21.579Z</time></trkpt><trkpt lat="43.7207333" lon="12.2120133"><ele>680.0</ele><time>2026-03-22T09:54:22.578Z</time></trkpt><trkpt lat="43.72065" lon="12.2117833"><ele>680.0</ele><time>2026-03-22T09:54:23.579Z</time></trkpt><trkpt lat="43.7205617" lon="12.211565"><ele>680.0</ele><time>2026-03-22T09:54:24.578Z</time></trkpt><trkpt lat="43.7204867" lon="12.2113883"><ele>680.0</ele><time>2026-03-22T09:54:25.579Z</time></trkpt><trkpt lat="43.7204217" lon="12.2112483"><ele>680.0</ele><time>2026-03-22T09:54:26.579Z</time></trkpt><trkpt lat="43.720345" lon="12.211145"><ele>678.25</ele><time>2026-03-22T09:54:27.579Z</time></trkpt><trkpt lat="43.72024" lon="12.2110917"><ele>676.5</ele><time>2026-03-22T09:54:28.579Z</time></trkpt><trkpt lat="43.7201" lon="12.2110867"><ele>674.75</ele><time>2026-03-22T09:54:29.579Z</time></trkpt><trkpt lat="43.7199617" lon="12.2111333"><ele>673.0</ele><time>2026-03-22T09:54:30.579Z</time></trkpt><trkpt lat="43.7198317" lon="12.2112133"><ele>673.0</ele><time>2026-03-22T09:54:31.579Z</time></trkpt><trkpt lat="43.719715" lon="12.2113333"><ele>673.0</ele><time>2026-03-22T09:54:32.578Z</time></trkpt><trkpt lat="43.7196167" lon="12.2115"><ele>673.0</ele><time>2026-03-22T09:54:33.579Z</time></trkpt><trkpt lat="43.7195417" lon="12.2116883"><ele>674.25</ele><time>2026-03-22T09:54:34.579Z</time></trkpt><trkpt lat="43.7194517" lon="12.2118533"><ele>675.5</ele><time>2026-03-22T09:54:35.578Z</time></trkpt><trkpt lat="43.7193533" lon="12.211985"><ele>676.75</ele><time>2026-03-22T09:54:36.578Z</time></trkpt><trkpt lat="43.7192267" lon="12.2120733"><ele>678.0</ele><time>2026-03-22T09:54:37.578Z</time></trkpt><trkpt lat="43.71907" lon="12.2121117"><ele>673.6666666666666</ele><time>2026-03-22T09:54:38.579Z</time></trkpt><trkpt lat="43.71889" lon="12.2121167"><ele>669.3333333333333</ele><time>2026-03-22T09:54:39.579Z</time></trkpt><trkpt lat="43.718705" lon="12.2121"><ele>665.0</ele><time>2026-03-22T09:54:40.579Z</time></trkpt><trkpt lat="43.718535" lon="12.2120617"><ele>662.6666666666666</ele><time>2026-03-22T09:54:41.579Z</time></trkpt><trkpt lat="43.7183567" lon="12.21199"><ele>660.3333333333334</ele><time>2026-03-22T09:54:42.579Z</time></trkpt><trkpt lat="43.7181767" lon="12.2118983"><ele>658.0</ele><time>2026-03-22T09:54:43.578Z</time></trkpt><trkpt lat="43.71801" lon="12.2118017"><ele>658.0</ele><time>2026-03-22T09:54:44.579Z</time></trkpt><trkpt lat="43.7178517" lon="12.2117167"><ele>658.0</ele><time>2026-03-22T09:54:45.578Z</time></trkpt><trkpt lat="43.7177117" lon="12.2116383"><ele>658.0</ele><time>2026-03-22T09:54:46.579Z</time></trkpt><trkpt lat="43.717585" lon="12.2115883"><ele>657.5</ele><time>2026-03-22T09:54:47.578Z</time></trkpt><trkpt lat="43.7174683" lon="12.2115817"><ele>657.0</ele><time>2026-03-22T09:54:48.579Z</time></trkpt><trkpt lat="43.717355" lon="12.2116217"><ele>656.5</ele><time>2026-03-22T09:54:49.578Z</time></trkpt><trkpt lat="43.7172567" lon="12.21172"><ele>656.0</ele><time>2026-03-22T09:54:50.578Z</time></trkpt><trkpt lat="43.7171833" lon="12.2118683"><ele>656.0</ele><time>2026-03-22T09:54:51.579Z</time></trkpt><trkpt lat="43.717145" lon="12.2120983"><ele>656.0</ele><time>2026-03-22T09:54:52.579Z</time></trkpt><trkpt lat="43.7171217" lon="12.2123417"><ele>656.0</ele><time>2026-03-22T09:54:53.579Z</time></trkpt><trkpt lat="43.7170867" lon="12.2125433"><ele>654.5</ele><time>2026-03-22T09:54:54.579Z</time></trkpt><trkpt lat="43.7170483" lon="12.212715"><ele>653.0</ele><time>2026-03-22T09:54:55.578Z</time></trkpt><trkpt lat="43.7169983" lon="12.21285"><ele>651.5</ele><time>2026-03-22T09:54:56.579Z</time></trkpt><trkpt lat="43.7169283" lon="12.21295"><ele>650.0</ele><time>2026-03-22T09:54:57.579Z</time></trkpt><trkpt lat="43.7168233" lon="12.2130117"><ele>650.0</ele><time>2026-03-22T09:54:58.579Z</time></trkpt><trkpt lat="43.7166933" lon="12.2130333"><ele>650.0</ele><time>2026-03-22T09:54:59.58Z</time></trkpt><trkpt lat="43.7165617" lon="12.2130117"><ele>650.0</ele><time>2026-03-22T09:55:00.58Z</time></trkpt><trkpt lat="43.7164383" lon="12.212925"><ele>650.0</ele><time>2026-03-22T09:55:01.579Z</time></trkpt><trkpt lat="43.716315" lon="12.2127767"><ele>650.0</ele><time>2026-03-22T09:55:02.579Z</time></trkpt><trkpt lat="43.7161917" lon="12.2126083"><ele>650.0</ele><time>2026-03-22T09:55:03.58Z</time></trkpt><trkpt lat="43.71607" lon="12.21245"><ele>650.0</ele><time>2026-03-22T09:55:04.58Z</time></trkpt><trkpt lat="43.71595" lon="12.2123167"><ele>645.0</ele><time>2026-03-22T09:55:05.58Z</time></trkpt><trkpt lat="43.715815" lon="12.212225"><ele>640.0</ele><time>2026-03-22T09:55:06.58Z</time></trkpt><trkpt lat="43.7156617" lon="12.2121767"><ele>635.0</ele><time>2026-03-22T09:55:07.579Z</time></trkpt><trkpt lat="43.7155067" lon="12.2121783"><ele>635.0</ele><time>2026-03-22T09:55:08.58Z</time></trkpt><trkpt lat="43.7153483" lon="12.212155"><ele>635.0</ele><time>2026-03-22T09:55:09.58Z</time></trkpt><trkpt lat="43.7151917" lon="12.2120817"><ele>635.0</ele><time>2026-03-22T09:55:10.58Z</time></trkpt><trkpt lat="43.7150367" lon="12.2119817"><ele>635.0</ele><time>2026-03-22T09:55:11.579Z</time></trkpt><trkpt lat="43.7148817" lon="12.2118417"><ele>635.0</ele><time>2026-03-22T09:55:12.58Z</time></trkpt><trkpt lat="43.71471" lon="12.21168"><ele>635.0</ele><time>2026-03-22T09:55:13.579Z</time></trkpt><trkpt lat="43.7145467" lon="12.2115267"><ele>633.3333333333333</ele><time>2026-03-22T09:55:14.58Z</time></trkpt><trkpt lat="43.7143967" lon="12.2113783"><ele>631.6666666666666</ele><time>2026-03-22T09:55:15.58Z</time></trkpt><trkpt lat="43.7142567" lon="12.2112383"><ele>630.0</ele><time>2026-03-22T09:55:16.579Z</time></trkpt><trkpt lat="43.714125" lon="12.2111183"><ele>630.0</ele><time>2026-03-22T09:55:17.58Z</time></trkpt><trkpt lat="43.714" lon="12.2109733"><ele>630.0</ele><time>2026-03-22T09:55:18.579Z</time></trkpt><trkpt lat="43.7138967" lon="12.210795"><ele>630.0</ele><time>2026-03-22T09:55:19.58Z</time></trkpt><trkpt lat="43.7138183" lon="12.2105717"><ele>626.6666666666666</ele><time>2026-03-22T09:55:20.58Z</time></trkpt><trkpt lat="43.7137483" lon="12.2103167"><ele>623.3333333333333</ele><time>2026-03-22T09:55:21.579Z</time></trkpt><trkpt lat="43.7136867" lon="12.2100733"><ele>620.0</ele><time>2026-03-22T09:55:22.579Z</time></trkpt><trkpt lat="43.7136217" lon="12.20985"><ele>620.3333333333333</ele><time>2026-03-22T09:55:23.58Z</time></trkpt><trkpt lat="43.7135483" lon="12.2096317"><ele>620.6666666666666</ele><time>2026-03-22T09:55:24.58Z</time></trkpt><trkpt lat="43.71345" lon="12.2094267"><ele>621.0</ele><time>2026-03-22T09:55:25.579Z</time></trkpt><trkpt lat="43.713315" lon="12.2092267"><ele>621.0</ele><time>2026-03-22T09:55:26.58Z</time></trkpt><trkpt lat="43.7131567" lon="12.2090183"><ele>621.0</ele><time>2026-03-22T09:55:27.58Z</time></trkpt><trkpt lat="43.7130033" lon="12.2088217"><ele>621.0</ele><time>2026-03-22T09:55:28.58Z</time></trkpt><trkpt lat="43.712865" lon="12.20862"><ele>619.0</ele><time>2026-03-22T09:55:29.579Z</time></trkpt><trkpt lat="43.712735" lon="12.20844"><ele>617.0</ele><time>2026-03-22T09:55:30.579Z</time></trkpt><trkpt lat="43.712625" lon="12.2082883"><ele>615.0</ele><time>2026-03-22T09:55:31.58Z</time></trkpt><trkpt lat="43.7125283" lon="12.2081533"><ele>615.0</ele><time>2026-03-22T09:55:32.579Z</time></trkpt><trkpt lat="43.71243" lon="12.208075"><ele>615.0</ele><time>2026-03-22T09:55:33.579Z</time></trkpt><trkpt lat="43.7123317" lon="12.2080417"><ele>615.0</ele><time>2026-03-22T09:55:34.58Z</time></trkpt><trkpt lat="43.7122317" lon="12.2080667"><ele>615.0</ele><time>2026-03-22T09:55:35.58Z</time></trkpt><trkpt lat="43.7121383" lon="12.2081633"><ele>615.0</ele><time>2026-03-22T09:55:36.58Z</time></trkpt><trkpt lat="43.71206" lon="12.2083283"><ele>615.0</ele><time>2026-03-22T09:55:37.58Z</time></trkpt><trkpt lat="43.7119883" lon="12.2085467"><ele>615.0</ele><time>2026-03-22T09:55:38.58Z</time></trkpt><trkpt lat="43.7119167" lon="12.2087733"><ele>615.0</ele><time>2026-03-22T09:55:39.579Z</time></trkpt><trkpt lat="43.7118467" lon="12.20898"><ele>613.25</ele><time>2026-03-22T09:55:40.58Z</time></trkpt><trkpt lat="43.7117833" lon="12.2091683"><ele>611.5</ele><time>2026-03-22T09:55:41.579Z</time></trkpt><trkpt lat="43.71172" lon="12.20934"><ele>609.75</ele><time>2026-03-22T09:55:42.58Z</time></trkpt><trkpt lat="43.7116517" lon="12.2095017"><ele>608.0</ele><time>2026-03-22T09:55:43.58Z</time></trkpt><trkpt lat="43.7115667" lon="12.2096317"><ele>608.0</ele><time>2026-03-22T09:55:44.58Z</time></trkpt><trkpt lat="43.7114533" lon="12.2097183"><ele>608.0</ele><time>2026-03-22T09:55:45.579Z</time></trkpt><trkpt lat="43.7113117" lon="12.209765"><ele>608.0</ele><time>2026-03-22T09:55:46.579Z</time></trkpt><trkpt lat="43.7111517" lon="12.2097667"><ele>608.0</ele><time>2026-03-22T09:55:47.579Z</time></trkpt><trkpt lat="43.7109833" lon="12.2097417"><ele>604.3333333333333</ele><time>2026-03-22T09:55:48.579Z</time></trkpt><trkpt lat="43.71082" lon="12.2097367"><ele>600.6666666666666</ele><time>2026-03-22T09:55:49.579Z</time></trkpt><trkpt lat="43.7106633" lon="12.2097367"><ele>597.0</ele><time>2026-03-22T09:55:50.58Z</time></trkpt><trkpt lat="43.7105183" lon="12.20975"><ele>597.0</ele><time>2026-03-22T09:55:51.579Z</time></trkpt><trkpt lat="43.7103683" lon="12.2097317"><ele>597.0</ele><time>2026-03-22T09:55:52.579Z</time></trkpt><trkpt lat="43.71021" lon="12.2096867"><ele>597.0</ele><time>2026-03-22T09:55:53.579Z</time></trkpt><trkpt lat="43.7100533" lon="12.209615"><ele>596.3333333333334</ele><time>2026-03-22T09:55:54.579Z</time></trkpt><trkpt lat="43.70988" lon="12.2095383"><ele>595.6666666666667</ele><time>2026-03-22T09:55:55.58Z</time></trkpt><trkpt lat="43.7096983" lon="12.2094783"><ele>595.0</ele><time>2026-03-22T09:55:56.579Z</time></trkpt><trkpt lat="43.709535" lon="12.209415"><ele>593.75</ele><time>2026-03-22T09:55:57.579Z</time></trkpt><trkpt lat="43.7093817" lon="12.2093583"><ele>592.5</ele><time>2026-03-22T09:55:58.58Z</time></trkpt><trkpt lat="43.70925" lon="12.2093"><ele>591.25</ele><time>2026-03-22T09:55:59.579Z</time></trkpt><trkpt lat="43.709135" lon="12.209255"><ele>590.0</ele><time>2026-03-22T09:56:00.58Z</time></trkpt><trkpt lat="43.7090333" lon="12.2091933"><ele>590.0</ele><time>2026-03-22T09:56:01.58Z</time></trkpt><trkpt lat="43.7089583" lon="12.209105"><ele>590.0</ele><time>2026-03-22T09:56:02.58Z</time></trkpt><trkpt lat="43.7089167" lon="12.20899"><ele>590.0</ele><time>2026-03-22T09:56:03.579Z</time></trkpt><trkpt lat="43.7089017" lon="12.208845"><ele>590.0</ele><time>2026-03-22T09:56:04.58Z</time></trkpt><trkpt lat="43.70894" lon="12.2087017"><ele>590.0</ele><time>2026-03-22T09:56:05.58Z</time></trkpt><trkpt lat="43.7090183" lon="12.20856"><ele>587.6666666666666</ele><time>2026-03-22T09:56:06.58Z</time></trkpt><trkpt lat="43.7091267" lon="12.2084067"><ele>585.3333333333334</ele><time>2026-03-22T09:56:07.58Z</time></trkpt><trkpt lat="43.7092517" lon="12.208235"><ele>583.0</ele><time>2026-03-22T09:56:08.579Z</time></trkpt><trkpt lat="43.7093733" lon="12.20805"><ele>582.6666666666667</ele><time>2026-03-22T09:56:09.579Z</time></trkpt><trkpt lat="43.70949" lon="12.2078617"><ele>582.3333333333334</ele><time>2026-03-22T09:56:10.58Z</time></trkpt><trkpt lat="43.7096" lon="12.2076917"><ele>582.0</ele><time>2026-03-22T09:56:11.579Z</time></trkpt><trkpt lat="43.709705" lon="12.2075367"><ele>582.0</ele><time>2026-03-22T09:56:12.58Z</time></trkpt><trkpt lat="43.70981" lon="12.207395"><ele>582.0</ele><time>2026-03-22T09:56:13.58Z</time></trkpt><trkpt lat="43.7098967" lon="12.2072183"><ele>582.0</ele><time>2026-03-22T09:56:14.579Z</time></trkpt><trkpt lat="43.7099767" lon="12.2069917"><ele>580.0</ele><time>2026-03-22T09:56:15.58Z</time></trkpt><trkpt lat="43.7100517" lon="12.206755"><ele>578.0</ele><time>2026-03-22T09:56:16.58Z</time></trkpt><trkpt lat="43.7101233" lon="12.206535"><ele>576.0</ele><time>2026-03-22T09:56:17.58Z</time></trkpt><trkpt lat="43.710185" lon="12.2063583"><ele>574.4</ele><time>2026-03-22T09:56:18.58Z</time></trkpt><trkpt lat="43.7102317" lon="12.2062133"><ele>572.8</ele><time>2026-03-22T09:56:19.58Z</time></trkpt><trkpt lat="43.7102783" lon="12.2061083"><ele>571.1999999999999</ele><time>2026-03-22T09:56:20.579Z</time></trkpt><trkpt lat="43.71035" lon="12.206025"><ele>569.6</ele><time>2026-03-22T09:56:21.579Z</time></trkpt><trkpt lat="43.71045" lon="12.2059767"><ele>568.0</ele><time>2026-03-22T09:56:22.579Z</time></trkpt><trkpt lat="43.7105817" lon="12.2059633"><ele>568.0</ele><time>2026-03-22T09:56:23.579Z</time></trkpt><trkpt lat="43.71072" lon="12.20598"><ele>568.0</ele><time>2026-03-22T09:56:24.58Z</time></trkpt><trkpt lat="43.7108767" lon="12.2059633"><ele>568.0</ele><time>2026-03-22T09:56:25.58Z</time></trkpt><trkpt lat="43.7110433" lon="12.205875"><ele>569.0</ele><time>2026-03-22T09:56:26.579Z</time></trkpt><trkpt lat="43.7112" lon="12.20573"><ele>570.0</ele><time>2026-03-22T09:56:27.58Z</time></trkpt><trkpt lat="43.7113217" lon="12.205565"><ele>571.0</ele><time>2026-03-22T09:56:28.58Z</time></trkpt><trkpt lat="43.71141" lon="12.2053917"><ele>568.3333333333334</ele><time>2026-03-22T09:56:29.58Z</time></trkpt><trkpt lat="43.7114817" lon="12.2052017"><ele>565.6666666666666</ele><time>2026-03-22T09:56:30.58Z</time></trkpt><trkpt lat="43.7115117" lon="12.20494"><ele>563.0</ele><time>2026-03-22T09:56:31.58Z</time></trkpt><trkpt lat="43.71153" lon="12.2046633"><ele>560.6666666666666</ele><time>2026-03-22T09:56:32.58Z</time></trkpt><trkpt lat="43.7115467" lon="12.20439"><ele>558.3333333333334</ele><time>2026-03-22T09:56:33.58Z</time></trkpt><trkpt lat="43.7115683" lon="12.2041433"><ele>556.0</ele><time>2026-03-22T09:56:34.58Z</time></trkpt><trkpt lat="43.71158" lon="12.2039133"><ele>555.0</ele><time>2026-03-22T09:56:35.58Z</time></trkpt><trkpt lat="43.7115917" lon="12.2037267"><ele>554.0</ele><time>2026-03-22T09:56:36.579Z</time></trkpt><trkpt lat="43.7116083" lon="12.2035567"><ele>553.0</ele><time>2026-03-22T09:56:37.579Z</time></trkpt><trkpt lat="43.7116583" lon="12.2033983"><ele>552.0</ele><time>2026-03-22T09:56:38.58Z</time></trkpt><trkpt lat="43.7117283" lon="12.2032333"><ele>550.3333333333334</ele><time>2026-03-22T09:56:39.58Z</time></trkpt><trkpt lat="43.7118283" lon="12.2030517"><ele>548.6666666666667</ele><time>2026-03-22T09:56:40.58Z</time></trkpt><trkpt lat="43.7119283" lon="12.2028817"><ele>547.0</ele><time>2026-03-22T09:56:41.58Z</time></trkpt><trkpt lat="43.712025" lon="12.2027283"><ele>547.0</ele><time>2026-03-22T09:56:42.579Z</time></trkpt><trkpt lat="43.7121367" lon="12.20261"><ele>547.0</ele><time>2026-03-22T09:56:43.58Z</time></trkpt><trkpt lat="43.712265" lon="12.2025517"><ele>547.0</ele><time>2026-03-22T09:56:44.58Z</time></trkpt><trkpt lat="43.712415" lon="12.2025417"><ele>547.0</ele><time>2026-03-22T09:56:45.579Z</time></trkpt><trkpt lat="43.7125633" lon="12.2025683"><ele>547.0</ele><time>2026-03-22T09:56:46.58Z</time></trkpt><trkpt lat="43.712695" lon="12.2026083"><ele>547.0</ele><time>2026-03-22T09:56:47.58Z</time></trkpt><trkpt lat="43.7128167" lon="12.2026283"><ele>547.0</ele><time>2026-03-22T09:56:48.58Z</time></trkpt><trkpt lat="43.7129283" lon="12.20259"><ele>547.0</ele><time>2026-03-22T09:56:49.58Z</time></trkpt><trkpt lat="43.713" lon="12.2024967"><ele>547.75</ele><time>2026-03-22T09:56:50.58Z</time></trkpt><trkpt lat="43.713035" lon="12.2023617"><ele>548.5</ele><time>2026-03-22T09:56:51.579Z</time></trkpt><trkpt lat="43.7130417" lon="12.20219"><ele>549.25</ele><time>2026-03-22T09:56:52.579Z</time></trkpt><trkpt lat="43.7129817" lon="12.2020083"><ele>550.0</ele><time>2026-03-22T09:56:53.58Z</time></trkpt><trkpt lat="43.7128817" lon="12.20185"><ele>550.0</ele><time>2026-03-22T09:56:54.58Z</time></trkpt><trkpt lat="43.71275" lon="12.2017283"><ele>550.0</ele><time>2026-03-22T09:56:55.58Z</time></trkpt><trkpt lat="43.712615" lon="12.2016467"><ele>550.0</ele><time>2026-03-22T09:56:56.58Z</time></trkpt><trkpt lat="43.7124917" lon="12.2015833"><ele>550.0</ele><time>2026-03-22T09:56:57.579Z</time></trkpt><trkpt lat="43.7123867" lon="12.20149"><ele>549.0</ele><time>2026-03-22T09:56:58.579Z</time></trkpt><trkpt lat="43.7123133" lon="12.201395"><ele>548.0</ele><time>2026-03-22T09:56:59.58Z</time></trkpt><trkpt lat="43.712265" lon="12.2012917"><ele>547.0</ele><time>2026-03-22T09:57:00.58Z</time></trkpt><trkpt lat="43.712245" lon="12.201165"><ele>546.0</ele><time>2026-03-22T09:57:01.58Z</time></trkpt><trkpt lat="43.7122517" lon="12.20104"><ele>545.0</ele><time>2026-03-22T09:57:02.579Z</time></trkpt><trkpt lat="43.7122917" lon="12.2009083"><ele>545.0</ele><time>2026-03-22T09:57:03.579Z</time></trkpt><trkpt lat="43.7123433" lon="12.2007783"><ele>545.0</ele><time>2026-03-22T09:57:04.579Z</time></trkpt><trkpt lat="43.7124" lon="12.2006483"><ele>545.0</ele><time>2026-03-22T09:57:05.58Z</time></trkpt><trkpt lat="43.7124533" lon="12.2005317"><ele>545.0</ele><time>2026-03-22T09:57:06.58Z</time></trkpt><trkpt lat="43.7124967" lon="12.200415"><ele>545.0</ele><time>2026-03-22T09:57:07.58Z</time></trkpt><trkpt lat="43.7125417" lon="12.2003117"><ele>545.1666666666666</ele><time>2026-03-22T09:57:08.579Z</time></trkpt><trkpt lat="43.7125867" lon="12.2002167"><ele>545.3333333333333</ele><time>2026-03-22T09:57:09.58Z</time></trkpt><trkpt lat="43.7126467" lon="12.2001383"><ele>545.5</ele><time>2026-03-22T09:57:10.58Z</time></trkpt><trkpt lat="43.7127167" lon="12.200085"><ele>545.6666666666666</ele><time>2026-03-22T09:57:11.58Z</time></trkpt><trkpt lat="43.7128017" lon="12.2000583"><ele>545.8333333333334</ele><time>2026-03-22T09:57:12.58Z</time></trkpt><trkpt lat="43.7128967" lon="12.2000433"><ele>546.0</ele><time>2026-03-22T09:57:13.58Z</time></trkpt><trkpt lat="43.7129983" lon="12.2000333"><ele>546.0</ele><time>2026-03-22T09:57:14.58Z</time></trkpt><trkpt lat="43.7130933" lon="12.1999833"><ele>546.0</ele><time>2026-03-22T09:57:15.58Z</time></trkpt><trkpt lat="43.7131883" lon="12.19989"><ele>546.0</ele><time>2026-03-22T09:57:16.58Z</time></trkpt><trkpt lat="43.7132833" lon="12.1997567"><ele>546.0</ele><time>2026-03-22T09:57:17.58Z</time></trkpt><trkpt lat="43.713375" lon="12.1995917"><ele>546.0</ele><time>2026-03-22T09:57:18.58Z</time></trkpt><trkpt lat="43.7134567" lon="12.1994217"><ele>546.0</ele><time>2026-03-22T09:57:19.58Z</time></trkpt><trkpt lat="43.71354" lon="12.1992617"><ele>546.0</ele><time>2026-03-22T09:57:20.58Z</time></trkpt><trkpt lat="43.7136367" lon="12.1991133"><ele>546.0</ele><time>2026-03-22T09:57:21.58Z</time></trkpt><trkpt lat="43.7137167" lon="12.1989617"><ele>546.0</ele><time>2026-03-22T09:57:22.58Z</time></trkpt><trkpt lat="43.7137967" lon="12.1988233"><ele>546.0</ele><time>2026-03-22T09:57:23.58Z</time></trkpt><trkpt lat="43.7138717" lon="12.1986767"><ele>546.0</ele><time>2026-03-22T09:57:24.58Z</time></trkpt><trkpt lat="43.7139383" lon="12.1985283"><ele>546.0</ele><time>2026-03-22T09:57:25.58Z</time></trkpt><trkpt lat="43.7140117" lon="12.1983867"><ele>546.0</ele><time>2026-03-22T09:57:26.579Z</time></trkpt><trkpt lat="43.714105" lon="12.1982717"><ele>546.0</ele><time>2026-03-22T09:57:27.58Z</time></trkpt><trkpt lat="43.71421" lon="12.1981467"><ele>546.0</ele><time>2026-03-22T09:57:28.58Z</time></trkpt><trkpt lat="43.71432" lon="12.198025"><ele>546.0</ele><time>2026-03-22T09:57:29.579Z</time></trkpt><trkpt lat="43.7144533" lon="12.1979133"><ele>546.3333333333334</ele><time>2026-03-22T09:57:30.579Z</time></trkpt><trkpt lat="43.7145933" lon="12.197795"><ele>546.6666666666667</ele><time>2026-03-22T09:57:31.58Z</time></trkpt><trkpt lat="43.71473" lon="12.1976817"><ele>547.0</ele><time>2026-03-22T09:57:32.579Z</time></trkpt><trkpt lat="43.7148633" lon="12.1975667"><ele>547.0</ele><time>2026-03-22T09:57:33.58Z</time></trkpt><trkpt lat="43.7149933" lon="12.197455"><ele>547.0</ele><time>2026-03-22T09:57:34.58Z</time></trkpt><trkpt lat="43.7151217" lon="12.19734"><ele>547.0</ele><time>2026-03-22T09:57:35.579Z</time></trkpt><trkpt lat="43.7152483" lon="12.1972333"><ele>547.75</ele><time>2026-03-22T09:57:36.58Z</time></trkpt><trkpt lat="43.7153783" lon="12.1971283"><ele>548.5</ele><time>2026-03-22T09:57:37.579Z</time></trkpt><trkpt lat="43.7155067" lon="12.1970317"><ele>549.25</ele><time>2026-03-22T09:57:38.58Z</time></trkpt><trkpt lat="43.7156267" lon="12.196945"><ele>550.0</ele><time>2026-03-22T09:57:39.579Z</time></trkpt><trkpt lat="43.71575" lon="12.1968783"><ele>550.0</ele><time>2026-03-22T09:57:40.58Z</time></trkpt><trkpt lat="43.71588" lon="12.1968383"><ele>550.0</ele><time>2026-03-22T09:57:41.58Z</time></trkpt><trkpt lat="43.716005" lon="12.1968333"><ele>550.0</ele><time>2026-03-22T09:57:42.58Z</time></trkpt><trkpt lat="43.7161133" lon="12.19685"><ele>550.0</ele><time>2026-03-22T09:57:43.579Z</time></trkpt><trkpt lat="43.7162067" lon="12.19685"><ele>550.6</ele><time>2026-03-22T09:57:44.58Z</time></trkpt><trkpt lat="43.7162917" lon="12.1968233"><ele>551.2</ele><time>2026-03-22T09:57:45.58Z</time></trkpt><trkpt lat="43.71636" lon="12.1967417"><ele>551.8</ele><time>2026-03-22T09:57:46.58Z</time></trkpt><trkpt lat="43.7163983" lon="12.19661"><ele>552.4</ele><time>2026-03-22T09:57:47.58Z</time></trkpt><trkpt lat="43.7164233" lon="12.19648"><ele>553.0</ele><time>2026-03-22T09:57:48.58Z</time></trkpt><trkpt lat="43.71645" lon="12.19638"><ele>553.0</ele><time>2026-03-22T09:57:49.58Z</time></trkpt><trkpt lat="43.7164767" lon="12.1963"><ele>553.0</ele><time>2026-03-22T09:57:50.579Z</time></trkpt><trkpt lat="43.7165483" lon="12.1961767"><ele>553.0</ele><time>2026-03-22T09:57:52.58Z</time></trkpt><trkpt lat="43.7166167" lon="12.1961233"><ele>553.0</ele><time>2026-03-22T09:57:53.58Z</time></trkpt><trkpt lat="43.716705" lon="12.19608"><ele>553.0</ele><time>2026-03-22T09:57:54.58Z</time></trkpt><trkpt lat="43.7168083" lon="12.1960367"><ele>554.5</ele><time>2026-03-22T09:57:55.58Z</time></trkpt><trkpt lat="43.71692" lon="12.1959883"><ele>556.0</ele><time>2026-03-22T09:57:56.579Z</time></trkpt><trkpt lat="43.717045" lon="12.1959317"><ele>557.5</ele><time>2026-03-22T09:57:57.58Z</time></trkpt><trkpt lat="43.71717" lon="12.195885"><ele>559.0</ele><time>2026-03-22T09:57:58.579Z</time></trkpt><trkpt lat="43.7173033" lon="12.1958183"><ele>559.0</ele><time>2026-03-22T09:57:59.58Z</time></trkpt><trkpt lat="43.7174417" lon="12.1957467"><ele>559.0</ele><time>2026-03-22T09:58:00.58Z</time></trkpt><trkpt lat="43.7175833" lon="12.195695"><ele>559.0</ele><time>2026-03-22T09:58:01.58Z</time></trkpt><trkpt lat="43.7177333" lon="12.1956333"><ele>557.3333333333334</ele><time>2026-03-22T09:58:02.58Z</time></trkpt><trkpt lat="43.7178783" lon="12.1955767"><ele>555.6666666666666</ele><time>2026-03-22T09:58:03.579Z</time></trkpt><trkpt lat="43.7180333" lon="12.195525"><ele>554.0</ele><time>2026-03-22T09:58:04.58Z</time></trkpt><trkpt lat="43.71819" lon="12.1954667"><ele>554.0</ele><time>2026-03-22T09:58:05.58Z</time></trkpt><trkpt lat="43.7183533" lon="12.1954033"><ele>554.0</ele><time>2026-03-22T09:58:06.58Z</time></trkpt><trkpt lat="43.7185167" lon="12.195325"><ele>554.0</ele><time>2026-03-22T09:58:07.579Z</time></trkpt><trkpt lat="43.7186867" lon="12.1952417"><ele>555.6666666666666</ele><time>2026-03-22T09:58:08.579Z</time></trkpt><trkpt lat="43.71886" lon="12.1951783"><ele>557.3333333333334</ele><time>2026-03-22T09:58:09.58Z</time></trkpt><trkpt lat="43.7190367" lon="12.195095"><ele>559.0</ele><time>2026-03-22T09:58:10.58Z</time></trkpt><trkpt lat="43.7192133" lon="12.1950283"><ele>559.0</ele><time>2026-03-22T09:58:11.58Z</time></trkpt><trkpt lat="43.7194" lon="12.19496"><ele>559.0</ele><time>2026-03-22T09:58:12.579Z</time></trkpt><trkpt lat="43.7195633" lon="12.1948917"><ele>559.0</ele><time>2026-03-22T09:58:13.58Z</time></trkpt><trkpt lat="43.7197333" lon="12.1948133"><ele>558.3333333333334</ele><time>2026-03-22T09:58:14.581Z</time></trkpt><trkpt lat="43.7199133" lon="12.19472"><ele>557.6666666666666</ele><time>2026-03-22T09:58:15.58Z</time></trkpt><trkpt lat="43.720095" lon="12.19461"><ele>557.0</ele><time>2026-03-22T09:58:16.581Z</time></trkpt><trkpt lat="43.72026" lon="12.1945"><ele>557.0</ele><time>2026-03-22T09:58:17.58Z</time></trkpt><trkpt lat="43.7204217" lon="12.194395"><ele>557.0</ele><time>2026-03-22T09:58:18.58Z</time></trkpt><trkpt lat="43.7205867" lon="12.1942967"><ele>557.0</ele><time>2026-03-22T09:58:19.581Z</time></trkpt><trkpt lat="43.7207567" lon="12.1942167"><ele>557.0</ele><time>2026-03-22T09:58:20.581Z</time></trkpt><trkpt lat="43.7209317" lon="12.1941667"><ele>557.0</ele><time>2026-03-22T09:58:21.58Z</time></trkpt><trkpt lat="43.7211017" lon="12.1941283"><ele>557.0</ele><time>2026-03-22T09:58:22.581Z</time></trkpt><trkpt lat="43.72128" lon="12.1941167"><ele>556.3333333333333</ele><time>2026-03-22T09:58:23.58Z</time></trkpt><trkpt lat="43.7214633" lon="12.1941117"><ele>555.6666666666666</ele><time>2026-03-22T09:58:24.58Z</time></trkpt><trkpt lat="43.7216367" lon="12.1941"><ele>555.0</ele><time>2026-03-22T09:58:25.581Z</time></trkpt><trkpt lat="43.7218033" lon="12.1940933"><ele>553.75</ele><time>2026-03-22T09:58:26.581Z</time></trkpt><trkpt lat="43.72196" lon="12.194085"><ele>552.5</ele><time>2026-03-22T09:58:27.58Z</time></trkpt><trkpt lat="43.7221" lon="12.1940817"><ele>551.25</ele><time>2026-03-22T09:58:28.581Z</time></trkpt><trkpt lat="43.7222333" lon="12.1941283"><ele>550.0</ele><time>2026-03-22T09:58:29.58Z</time></trkpt><trkpt lat="43.7223667" lon="12.1942217"><ele>550.0</ele><time>2026-03-22T09:58:30.581Z</time></trkpt><trkpt lat="43.7224883" lon="12.1943867"><ele>550.0</ele><time>2026-03-22T09:58:31.581Z</time></trkpt><trkpt lat="43.7225967" lon="12.1945567"><ele>550.0</ele><time>2026-03-22T09:58:32.581Z</time></trkpt><trkpt lat="43.7227183" lon="12.1946933"><ele>549.6666666666667</ele><time>2026-03-22T09:58:33.581Z</time></trkpt><trkpt lat="43.7228833" lon="12.19479"><ele>549.3333333333334</ele><time>2026-03-22T09:58:34.581Z</time></trkpt><trkpt lat="43.7230817" lon="12.1948583"><ele>549.0</ele><time>2026-03-22T09:58:35.58Z</time></trkpt><trkpt lat="43.72327" lon="12.19493"><ele>549.0</ele><time>2026-03-22T09:58:36.581Z</time></trkpt><trkpt lat="43.723455" lon="12.1949867"><ele>549.0</ele><time>2026-03-22T09:58:37.58Z</time></trkpt><trkpt lat="43.7236533" lon="12.1949967"><ele>549.0</ele><time>2026-03-22T09:58:38.581Z</time></trkpt><trkpt lat="43.7238617" lon="12.19496"><ele>551.0</ele><time>2026-03-22T09:58:39.581Z</time></trkpt><trkpt lat="43.7240633" lon="12.1948967"><ele>553.0</ele><time>2026-03-22T09:58:40.58Z</time></trkpt><trkpt lat="43.724245" lon="12.1948267"><ele>555.0</ele><time>2026-03-22T09:58:41.581Z</time></trkpt><trkpt lat="43.7244017" lon="12.194745"><ele>555.0</ele><time>2026-03-22T09:58:42.58Z</time></trkpt><trkpt lat="43.7245483" lon="12.1946467"><ele>555.0</ele><time>2026-03-22T09:58:43.58Z</time></trkpt><trkpt lat="43.7246767" lon="12.1944883"><ele>555.0</ele><time>2026-03-22T09:58:44.581Z</time></trkpt><trkpt lat="43.7247717" lon="12.1943167"><ele>555.0</ele><time>2026-03-22T09:58:45.58Z</time></trkpt><trkpt lat="43.7248467" lon="12.1941517"><ele>555.0</ele><time>2026-03-22T09:58:46.58Z</time></trkpt><trkpt lat="43.7249117" lon="12.19403"><ele>555.0</ele><time>2026-03-22T09:58:47.581Z</time></trkpt><trkpt lat="43.7249917" lon="12.1939533"><ele>555.0</ele><time>2026-03-22T09:58:48.581Z</time></trkpt><trkpt lat="43.7251017" lon="12.1939483"><ele>555.0</ele><time>2026-03-22T09:58:49.58Z</time></trkpt><trkpt lat="43.7252167" lon="12.19403"><ele>555.0</ele><time>2026-03-22T09:58:50.581Z</time></trkpt><trkpt lat="43.7253267" lon="12.194175"><ele>555.0</ele><time>2026-03-22T09:58:51.58Z</time></trkpt><trkpt lat="43.7254267" lon="12.1943717"><ele>556.6666666666666</ele><time>2026-03-22T09:58:52.581Z</time></trkpt><trkpt lat="43.725535" lon="12.194605"><ele>558.3333333333333</ele><time>2026-03-22T09:58:53.581Z</time></trkpt><trkpt lat="43.7256567" lon="12.19483"><ele>560.0</ele><time>2026-03-22T09:58:54.581Z</time></trkpt><trkpt lat="43.7257917" lon="12.1950333"><ele>562.6666666666666</ele><time>2026-03-22T09:58:55.58Z</time></trkpt><trkpt lat="43.7259533" lon="12.1951967"><ele>565.3333333333334</ele><time>2026-03-22T09:58:56.581Z</time></trkpt><trkpt lat="43.7261367" lon="12.1953367"><ele>568.0</ele><time>2026-03-22T09:58:57.58Z</time></trkpt><trkpt lat="43.726335" lon="12.1954617"><ele>568.0</ele><time>2026-03-22T09:58:58.581Z</time></trkpt><trkpt lat="43.72656" lon="12.19558"><ele>568.0</ele><time>2026-03-22T09:58:59.581Z</time></trkpt><trkpt lat="43.72679" lon="12.1956967"><ele>562.0</ele><time>2026-03-22T09:59:00.58Z</time></trkpt><trkpt lat="43.7270283" lon="12.1958217"><ele>556.0</ele><time>2026-03-22T09:59:01.581Z</time></trkpt><trkpt lat="43.7272617" lon="12.1959533"><ele>556.0</ele><time>2026-03-22T09:59:02.58Z</time></trkpt><trkpt lat="43.7274783" lon="12.1960983"><ele>556.0</ele><time>2026-03-22T09:59:03.581Z</time></trkpt><trkpt lat="43.727685" lon="12.1962433"><ele>557.3333333333334</ele><time>2026-03-22T09:59:04.58Z</time></trkpt><trkpt lat="43.7278833" lon="12.19637"><ele>558.6666666666666</ele><time>2026-03-22T09:59:05.581Z</time></trkpt><trkpt lat="43.72808" lon="12.1964767"><ele>560.0</ele><time>2026-03-22T09:59:06.581Z</time></trkpt><trkpt lat="43.7282767" lon="12.19656"><ele>560.0</ele><time>2026-03-22T09:59:07.581Z</time></trkpt><trkpt lat="43.72846" lon="12.19662"><ele>560.0</ele><time>2026-03-22T09:59:08.581Z</time></trkpt><trkpt lat="43.7286317" lon="12.19667"><ele>560.0</ele><time>2026-03-22T09:59:09.581Z</time></trkpt><trkpt lat="43.728805" lon="12.1967367"><ele>555.0</ele><time>2026-03-22T09:59:10.581Z</time></trkpt><trkpt lat="43.7289717" lon="12.1968517"><ele>550.0</ele><time>2026-03-22T09:59:11.581Z</time></trkpt><trkpt lat="43.7291333" lon="12.19699"><ele>545.0</ele><time>2026-03-22T09:59:12.581Z</time></trkpt><trkpt lat="43.7292917" lon="12.19715"><ele>543.0</ele><time>2026-03-22T09:59:13.58Z</time></trkpt><trkpt lat="43.72943" lon="12.197315"><ele>541.0</ele><time>2026-03-22T09:59:14.581Z</time></trkpt><trkpt lat="43.7295567" lon="12.1974933"><ele>539.0</ele><time>2026-03-22T09:59:15.58Z</time></trkpt><trkpt lat="43.729675" lon="12.1976817"><ele>539.0</ele><time>2026-03-22T09:59:16.581Z</time></trkpt><trkpt lat="43.7297633" lon="12.1978767"><ele>539.0</ele><time>2026-03-22T09:59:17.58Z</time></trkpt><trkpt lat="43.7298567" lon="12.1980567"><ele>539.0</ele><time>2026-03-22T09:59:18.58Z</time></trkpt><trkpt lat="43.7299867" lon="12.1982017"><ele>539.3333333333333</ele><time>2026-03-22T09:59:19.58Z</time></trkpt><trkpt lat="43.73016" lon="12.198335"><ele>539.6666666666666</ele><time>2026-03-22T09:59:20.58Z</time></trkpt><trkpt lat="43.7303383" lon="12.1984583"><ele>540.0</ele><time>2026-03-22T09:59:21.581Z</time></trkpt><trkpt lat="43.7305083" lon="12.1985667"><ele>540.0</ele><time>2026-03-22T09:59:22.581Z</time></trkpt><trkpt lat="43.7306667" lon="12.19865"><ele>540.0</ele><time>2026-03-22T09:59:23.58Z</time></trkpt><trkpt lat="43.73084" lon="12.1986967"><ele>540.0</ele><time>2026-03-22T09:59:24.581Z</time></trkpt><trkpt lat="43.7310283" lon="12.1986733"><ele>538.6666666666666</ele><time>2026-03-22T09:59:25.581Z</time></trkpt><trkpt lat="43.731205" lon="12.1986167"><ele>537.3333333333333</ele><time>2026-03-22T09:59:26.58Z</time></trkpt><trkpt lat="43.7313633" lon="12.1985583"><ele>536.0</ele><time>2026-03-22T09:59:27.58Z</time></trkpt><trkpt lat="43.7314933" lon="12.198535"><ele>536.0</ele><time>2026-03-22T09:59:28.581Z</time></trkpt><trkpt lat="43.7316167" lon="12.1985567"><ele>536.0</ele><time>2026-03-22T09:59:29.58Z</time></trkpt><trkpt lat="43.73174" lon="12.198635"><ele>536.0</ele><time>2026-03-22T09:59:30.58Z</time></trkpt><trkpt lat="43.731855" lon="12.198765"><ele>536.0</ele><time>2026-03-22T09:59:31.581Z</time></trkpt><trkpt lat="43.7319583" lon="12.1989233"><ele>539.0</ele><time>2026-03-22T09:59:32.58Z</time></trkpt><trkpt lat="43.7320583" lon="12.19905"><ele>542.0</ele><time>2026-03-22T09:59:33.581Z</time></trkpt><trkpt lat="43.7321667" lon="12.199135"><ele>545.0</ele><time>2026-03-22T09:59:34.581Z</time></trkpt><trkpt lat="43.7322867" lon="12.1991733"><ele>548.0</ele><time>2026-03-22T09:59:35.58Z</time></trkpt><trkpt lat="43.7324133" lon="12.1991717"><ele>548.0</ele><time>2026-03-22T09:59:36.581Z</time></trkpt><trkpt lat="43.7325333" lon="12.1991233"><ele>548.0</ele><time>2026-03-22T09:59:37.58Z</time></trkpt><trkpt lat="43.732655" lon="12.199065"><ele>548.0</ele><time>2026-03-22T09:59:38.581Z</time></trkpt><trkpt lat="43.7327733" lon="12.1990267"><ele>548.0</ele><time>2026-03-22T09:59:39.581Z</time></trkpt><trkpt lat="43.732905" lon="12.1990267"><ele>546.25</ele><time>2026-03-22T09:59:40.581Z</time></trkpt><trkpt lat="43.7330433" lon="12.1990617"><ele>544.5</ele><time>2026-03-22T09:59:41.58Z</time></trkpt><trkpt lat="43.7331817" lon="12.1991383"><ele>542.75</ele><time>2026-03-22T09:59:42.581Z</time></trkpt><trkpt lat="43.7333067" lon="12.19923"><ele>541.0</ele><time>2026-03-22T09:59:43.58Z</time></trkpt><trkpt lat="43.733425" lon="12.19933"><ele>541.0</ele><time>2026-03-22T09:59:44.58Z</time></trkpt><trkpt lat="43.7335517" lon="12.199405"><ele>541.0</ele><time>2026-03-22T09:59:45.581Z</time></trkpt><trkpt lat="43.7336883" lon="12.199485"><ele>541.0</ele><time>2026-03-22T09:59:46.581Z</time></trkpt><trkpt lat="43.733855" lon="12.1995367"><ele>535.3333333333334</ele><time>2026-03-22T09:59:47.581Z</time></trkpt><trkpt lat="43.7340533" lon="12.1995767"><ele>529.6666666666666</ele><time>2026-03-22T09:59:48.581Z</time></trkpt><trkpt lat="43.734245" lon="12.1995967"><ele>524.0</ele><time>2026-03-22T09:59:49.581Z</time></trkpt><trkpt lat="43.7344317" lon="12.1996367"><ele>530.0</ele><time>2026-03-22T09:59:50.581Z</time></trkpt><trkpt lat="43.73462" lon="12.1997017"><ele>536.0</ele><time>2026-03-22T09:59:51.581Z</time></trkpt><trkpt lat="43.7348167" lon="12.1998067"><ele>542.0</ele><time>2026-03-22T09:59:52.581Z</time></trkpt><trkpt lat="43.7350117" lon="12.1999433"><ele>542.0</ele><time>2026-03-22T09:59:53.58Z</time></trkpt><trkpt lat="43.7351983" lon="12.2000933"><ele>542.0</ele><time>2026-03-22T09:59:54.581Z</time></trkpt><trkpt lat="43.7353767" lon="12.200225"><ele>542.0</ele><time>2026-03-22T09:59:55.58Z</time></trkpt><trkpt lat="43.7355283" lon="12.2003433"><ele>540.5</ele><time>2026-03-22T09:59:56.581Z</time></trkpt><trkpt lat="43.73566" lon="12.2004567"><ele>539.0</ele><time>2026-03-22T09:59:57.58Z</time></trkpt><trkpt lat="43.73576" lon="12.2005883"><ele>537.5</ele><time>2026-03-22T09:59:58.581Z</time></trkpt><trkpt lat="43.735825" lon="12.20076"><ele>536.0</ele><time>2026-03-22T09:59:59.581Z</time></trkpt><trkpt lat="43.7358517" lon="12.2009683"><ele>536.0</ele><time>2026-03-22T10:00:00.581Z</time></trkpt><trkpt lat="43.7358567" lon="12.2011767"><ele>536.0</ele><time>2026-03-22T10:00:01.58Z</time></trkpt><trkpt lat="43.735865" lon="12.2013467"><ele>536.0</ele><time>2026-03-22T10:00:02.581Z</time></trkpt><trkpt lat="43.735905" lon="12.201505"><ele>536.0</ele><time>2026-03-22T10:00:03.581Z</time></trkpt><trkpt lat="43.7360083" lon="12.2016233"><ele>537.3333333333333</ele><time>2026-03-22T10:00:04.581Z</time></trkpt><trkpt lat="43.7361433" lon="12.2017"><ele>538.6666666666666</ele><time>2026-03-22T10:00:05.58Z</time></trkpt><trkpt lat="43.736315" lon="12.2017217"><ele>540.0</ele><time>2026-03-22T10:00:06.58Z</time></trkpt><trkpt lat="43.7365117" lon="12.2016783"><ele>540.0</ele><time>2026-03-22T10:00:07.58Z</time></trkpt><trkpt lat="43.7367267" lon="12.2016"><ele>540.0</ele><time>2026-03-22T10:00:08.58Z</time></trkpt><trkpt lat="43.7369433" lon="12.2014867"><ele>530.0</ele><time>2026-03-22T10:00:09.581Z</time></trkpt><trkpt lat="43.7371583" lon="12.2013417"><ele>520.0</ele><time>2026-03-22T10:00:10.58Z</time></trkpt><trkpt lat="43.7373683" lon="12.2011933"><ele>520.0</ele><time>2026-03-22T10:00:11.581Z</time></trkpt><trkpt lat="43.7375567" lon="12.2010533"><ele>520.0</ele><time>2026-03-22T10:00:12.581Z</time></trkpt><trkpt lat="43.7377317" lon="12.2009167"><ele>520.0</ele><time>2026-03-22T10:00:13.581Z</time></trkpt><trkpt lat="43.7378717" lon="12.2007867"><ele>522.5</ele><time>2026-03-22T10:00:14.581Z</time></trkpt><trkpt lat="43.7379867" lon="12.2006717"><ele>525.0</ele><time>2026-03-22T10:00:15.58Z</time></trkpt><trkpt lat="43.73808" lon="12.2005767"><ele>527.5</ele><time>2026-03-22T10:00:16.58Z</time></trkpt><trkpt lat="43.7381817" lon="12.200515"><ele>530.0</ele><time>2026-03-22T10:00:17.58Z</time></trkpt><trkpt lat="43.7383033" lon="12.2005133"><ele>522.75</ele><time>2026-03-22T10:00:18.58Z</time></trkpt><trkpt lat="43.73844" lon="12.2005817"><ele>515.5</ele><time>2026-03-22T10:00:19.581Z</time></trkpt><trkpt lat="43.7385667" lon="12.2006967"><ele>508.25</ele><time>2026-03-22T10:00:20.58Z</time></trkpt><trkpt lat="43.7386583" lon="12.2008433"><ele>501.0</ele><time>2026-03-22T10:00:21.581Z</time></trkpt><trkpt lat="43.7387283" lon="12.2010317"><ele>501.0</ele><time>2026-03-22T10:00:22.58Z</time></trkpt><trkpt lat="43.7387767" lon="12.20126"><ele>501.0</ele><time>2026-03-22T10:00:23.581Z</time></trkpt><trkpt lat="43.738795" lon="12.2014717"><ele>501.0</ele><time>2026-03-22T10:00:24.581Z</time></trkpt><trkpt lat="43.7388233" lon="12.2016383"><ele>507.5</ele><time>2026-03-22T10:00:25.58Z</time></trkpt><trkpt lat="43.738895" lon="12.2017583"><ele>514.0</ele><time>2026-03-22T10:00:26.581Z</time></trkpt><trkpt lat="43.739015" lon="12.2018233"><ele>520.5</ele><time>2026-03-22T10:00:27.58Z</time></trkpt><trkpt lat="43.7391717" lon="12.2018367"><ele>527.0</ele><time>2026-03-22T10:00:28.581Z</time></trkpt><trkpt lat="43.73935" lon="12.2017883"><ele>522.0</ele><time>2026-03-22T10:00:29.581Z</time></trkpt><trkpt lat="43.7395667" lon="12.201725"><ele>517.0</ele><time>2026-03-22T10:00:30.581Z</time></trkpt><trkpt lat="43.7398083" lon="12.2016767"><ele>517.0</ele><time>2026-03-22T10:00:31.58Z</time></trkpt><trkpt lat="43.7400467" lon="12.2016467"><ele>517.0</ele><time>2026-03-22T10:00:32.581Z</time></trkpt><trkpt lat="43.7402667" lon="12.2016233"><ele>514.0</ele><time>2026-03-22T10:00:33.581Z</time></trkpt><trkpt lat="43.74047" lon="12.2015933"><ele>511.0</ele><time>2026-03-22T10:00:34.58Z</time></trkpt><trkpt lat="43.7406567" lon="12.20157"><ele>508.0</ele><time>2026-03-22T10:00:35.58Z</time></trkpt><trkpt lat="43.740805" lon="12.2015467"><ele>508.0</ele><time>2026-03-22T10:00:36.581Z</time></trkpt><trkpt lat="43.74093" lon="12.2015267"><ele>508.0</ele><time>2026-03-22T10:00:37.58Z</time></trkpt><trkpt lat="43.7410383" lon="12.20154"><ele>508.0</ele><time>2026-03-22T10:00:38.581Z</time></trkpt><trkpt lat="43.7411367" lon="12.201615"><ele>508.0</ele><time>2026-03-22T10:00:39.581Z</time></trkpt><trkpt lat="43.7412067" lon="12.20176"><ele>505.33333333333337</ele><time>2026-03-22T10:00:40.581Z</time></trkpt><trkpt lat="43.7412583" lon="12.2019617"><ele>502.66666666666663</ele><time>2026-03-22T10:00:41.581Z</time></trkpt><trkpt lat="43.74129" lon="12.2021817"><ele>500.0</ele><time>2026-03-22T10:00:42.58Z</time></trkpt><trkpt lat="43.7413267" lon="12.20237"><ele>500.0</ele><time>2026-03-22T10:00:43.581Z</time></trkpt><trkpt lat="43.7413767" lon="12.2025333"><ele>500.0</ele><time>2026-03-22T10:00:44.58Z</time></trkpt><trkpt lat="43.7414467" lon="12.2026683"><ele>500.0</ele><time>2026-03-22T10:00:45.581Z</time></trkpt><trkpt lat="43.741555" lon="12.202765"><ele>500.0</ele><time>2026-03-22T10:00:46.581Z</time></trkpt><trkpt lat="43.7416617" lon="12.2028283"><ele>500.0</ele><time>2026-03-22T10:00:47.581Z</time></trkpt><trkpt lat="43.74177" lon="12.2028533"><ele>500.0</ele><time>2026-03-22T10:00:48.581Z</time></trkpt><trkpt lat="43.7418633" lon="12.2028117"><ele>500.0</ele><time>2026-03-22T10:00:49.581Z</time></trkpt><trkpt lat="43.7419417" lon="12.20271"><ele>500.0</ele><time>2026-03-22T10:00:50.581Z</time></trkpt><trkpt lat="43.7420033" lon="12.2025683"><ele>500.0</ele><time>2026-03-22T10:00:51.58Z</time></trkpt><trkpt lat="43.7420567" lon="12.2024083"><ele>497.6</ele><time>2026-03-22T10:00:52.581Z</time></trkpt><trkpt lat="43.7420867" lon="12.2022583"><ele>495.2</ele><time>2026-03-22T10:00:53.581Z</time></trkpt><trkpt lat="43.74212" lon="12.202125"><ele>492.79999999999995</ele><time>2026-03-22T10:00:54.581Z</time></trkpt><trkpt lat="43.7421583" lon="12.2019967"><ele>490.4</ele><time>2026-03-22T10:00:55.581Z</time></trkpt><trkpt lat="43.7422167" lon="12.20189"><ele>488.0</ele><time>2026-03-22T10:00:56.581Z</time></trkpt><trkpt lat="43.742315" lon="12.2018383"><ele>488.0</ele><time>2026-03-22T10:00:57.581Z</time></trkpt><trkpt lat="43.7424217" lon="12.2018433"><ele>488.0</ele><time>2026-03-22T10:00:58.58Z</time></trkpt><trkpt lat="43.7425317" lon="12.2018883"><ele>488.0</ele><time>2026-03-22T10:00:59.581Z</time></trkpt><trkpt lat="43.742645" lon="12.2019517"><ele>488.0</ele><time>2026-03-22T10:01:00.58Z</time></trkpt><trkpt lat="43.7427717" lon="12.2020067"><ele>486.66666666666663</ele><time>2026-03-22T10:01:01.58Z</time></trkpt><trkpt lat="43.7429283" lon="12.2020267"><ele>485.33333333333337</ele><time>2026-03-22T10:01:02.58Z</time></trkpt><trkpt lat="43.7431233" lon="12.2020367"><ele>484.0</ele><time>2026-03-22T10:01:03.581Z</time></trkpt><trkpt lat="43.7433383" lon="12.2020383"><ele>484.0</ele><time>2026-03-22T10:01:04.58Z</time></trkpt><trkpt lat="43.7435417" lon="12.2020367"><ele>484.0</ele><time>2026-03-22T10:01:05.58Z</time></trkpt><trkpt lat="43.743715" lon="12.201995"><ele>484.0</ele><time>2026-03-22T10:01:06.581Z</time></trkpt><trkpt lat="43.7438733" lon="12.2019"><ele>483.0</ele><time>2026-03-22T10:01:07.58Z</time></trkpt><trkpt lat="43.7440067" lon="12.20173"><ele>482.0</ele><time>2026-03-22T10:01:08.581Z</time></trkpt><trkpt lat="43.7441317" lon="12.2015367"><ele>481.0</ele><time>2026-03-22T10:01:09.581Z</time></trkpt><trkpt lat="43.7442483" lon="12.20136"><ele>481.0</ele><time>2026-03-22T10:01:10.581Z</time></trkpt><trkpt lat="43.7443567" lon="12.20117"><ele>481.0</ele><time>2026-03-22T10:01:11.58Z</time></trkpt><trkpt lat="43.7444567" lon="12.2009383"><ele>481.0</ele><time>2026-03-22T10:01:12.581Z</time></trkpt><trkpt lat="43.7445633" lon="12.200675"><ele>485.33333333333337</ele><time>2026-03-22T10:01:13.58Z</time></trkpt><trkpt lat="43.7446633" lon="12.2004167"><ele>489.66666666666663</ele><time>2026-03-22T10:01:14.581Z</time></trkpt><trkpt lat="43.74476" lon="12.2001883"><ele>494.0</ele><time>2026-03-22T10:01:15.581Z</time></trkpt><trkpt lat="43.7448733" lon="12.1999733"><ele>497.3333333333333</ele><time>2026-03-22T10:01:16.581Z</time></trkpt><trkpt lat="43.7450017" lon="12.1997583"><ele>500.66666666666663</ele><time>2026-03-22T10:01:17.58Z</time></trkpt><trkpt lat="43.7451383" lon="12.199515"><ele>504.0</ele><time>2026-03-22T10:01:18.581Z</time></trkpt><trkpt lat="43.745285" lon="12.1992933"><ele>504.0</ele><time>2026-03-22T10:01:19.581Z</time></trkpt><trkpt lat="43.7454333" lon="12.1991033"><ele>504.0</ele><time>2026-03-22T10:01:20.581Z</time></trkpt><trkpt lat="43.74557" lon="12.19893"><ele>504.0</ele><time>2026-03-22T10:01:21.581Z</time></trkpt><trkpt lat="43.7457067" lon="12.1987583"><ele>503.33333333333337</ele><time>2026-03-22T10:01:22.581Z</time></trkpt><trkpt lat="43.7458433" lon="12.1986017"><ele>502.6666666666667</ele><time>2026-03-22T10:01:23.581Z</time></trkpt><trkpt lat="43.745995" lon="12.1984567"><ele>502.0</ele><time>2026-03-22T10:01:24.58Z</time></trkpt><trkpt lat="43.746175" lon="12.198325"><ele>502.0</ele><time>2026-03-22T10:01:25.58Z</time></trkpt><trkpt lat="43.7463683" lon="12.1981933"><ele>502.0</ele><time>2026-03-22T10:01:26.58Z</time></trkpt><trkpt lat="43.7465483" lon="12.198085"><ele>502.0</ele><time>2026-03-22T10:01:27.581Z</time></trkpt><trkpt lat="43.7467067" lon="12.1979817"><ele>494.0</ele><time>2026-03-22T10:01:28.581Z</time></trkpt><trkpt lat="43.7468517" lon="12.1978983"><ele>486.0</ele><time>2026-03-22T10:01:29.581Z</time></trkpt><trkpt lat="43.747005" lon="12.1978483"><ele>478.0</ele><time>2026-03-22T10:01:30.581Z</time></trkpt><trkpt lat="43.7471517" lon="12.197825"><ele>478.0</ele><time>2026-03-22T10:01:31.581Z</time></trkpt><trkpt lat="43.74732" lon="12.1978583"><ele>478.0</ele><time>2026-03-22T10:01:32.582Z</time></trkpt><trkpt lat="43.7474983" lon="12.1979267"><ele>478.0</ele><time>2026-03-22T10:01:33.582Z</time></trkpt><trkpt lat="43.7476783" lon="12.1980083"><ele>481.33333333333337</ele><time>2026-03-22T10:01:34.582Z</time></trkpt><trkpt lat="43.74785" lon="12.1981117"><ele>484.66666666666663</ele><time>2026-03-22T10:01:35.582Z</time></trkpt><trkpt lat="43.7480083" lon="12.19825"><ele>488.0</ele><time>2026-03-22T10:01:36.581Z</time></trkpt><trkpt lat="43.74816" lon="12.1984333"><ele>488.0</ele><time>2026-03-22T10:01:37.582Z</time></trkpt><trkpt lat="43.7482933" lon="12.1986383"><ele>488.0</ele><time>2026-03-22T10:01:38.582Z</time></trkpt><trkpt lat="43.74842" lon="12.1988317"><ele>488.0</ele><time>2026-03-22T10:01:39.581Z</time></trkpt><trkpt lat="43.7485567" lon="12.198995"><ele>492.66666666666663</ele><time>2026-03-22T10:01:40.582Z</time></trkpt><trkpt lat="43.748705" lon="12.1991183"><ele>497.33333333333337</ele><time>2026-03-22T10:01:41.581Z</time></trkpt><trkpt lat="43.7488867" lon="12.1991967"><ele>502.0</ele><time>2026-03-22T10:01:42.581Z</time></trkpt><trkpt lat="43.7490917" lon="12.1992317"><ele>502.0</ele><time>2026-03-22T10:01:43.582Z</time></trkpt><trkpt lat="43.7493133" lon="12.1992383"><ele>502.0</ele><time>2026-03-22T10:01:44.582Z</time></trkpt><trkpt lat="43.749555" lon="12.1992217"><ele>500.0</ele><time>2026-03-22T10:01:45.581Z</time></trkpt><trkpt lat="43.7498017" lon="12.1992033"><ele>498.0</ele><time>2026-03-22T10:01:46.582Z</time></trkpt><trkpt lat="43.7500267" lon="12.19916"><ele>494.33333333333337</ele><time>2026-03-22T10:01:47.581Z</time></trkpt><trkpt lat="43.7502333" lon="12.1991067"><ele>490.6666666666667</ele><time>2026-03-22T10:01:48.582Z</time></trkpt><trkpt lat="43.750425" lon="12.19903"><ele>487.0</ele><time>2026-03-22T10:01:49.582Z</time></trkpt><trkpt lat="43.7505867" lon="12.198955"><ele>487.0</ele><time>2026-03-22T10:01:50.582Z</time></trkpt><trkpt lat="43.7507333" lon="12.1988617"><ele>487.0</ele><time>2026-03-22T10:01:51.582Z</time></trkpt><trkpt lat="43.7508667" lon="12.1987217"><ele>487.0</ele><time>2026-03-22T10:01:52.582Z</time></trkpt><trkpt lat="43.750995" lon="12.198545"><ele>487.0</ele><time>2026-03-22T10:01:53.582Z</time></trkpt><trkpt lat="43.751115" lon="12.198365"><ele>487.0</ele><time>2026-03-22T10:01:54.582Z</time></trkpt><trkpt lat="43.75124" lon="12.1982"><ele>487.0</ele><time>2026-03-22T10:01:55.582Z</time></trkpt><trkpt lat="43.7513733" lon="12.198055"><ele>487.0</ele><time>2026-03-22T10:01:56.582Z</time></trkpt><trkpt lat="43.7515317" lon="12.1979583"><ele>487.0</ele><time>2026-03-22T10:01:57.581Z</time></trkpt><trkpt lat="43.7517033" lon="12.1978917"><ele>487.0</ele><time>2026-03-22T10:01:58.582Z</time></trkpt><trkpt lat="43.7518983" lon="12.197875"><ele>488.33333333333337</ele><time>2026-03-22T10:01:59.582Z</time></trkpt><trkpt lat="43.7520933" lon="12.1978983"><ele>489.66666666666663</ele><time>2026-03-22T10:02:00.582Z</time></trkpt><trkpt lat="43.752275" lon="12.1979433"><ele>491.0</ele><time>2026-03-22T10:02:01.582Z</time></trkpt><trkpt lat="43.752455" lon="12.1979583"><ele>491.0</ele><time>2026-03-22T10:02:02.582Z</time></trkpt><trkpt lat="43.7526333" lon="12.1979283"><ele>491.0</ele><time>2026-03-22T10:02:03.582Z</time></trkpt><trkpt lat="43.7528" lon="12.197845"><ele>491.0</ele><time>2026-03-22T10:02:04.582Z</time></trkpt><trkpt lat="43.7529633" lon="12.1977117"><ele>494.0</ele><time>2026-03-22T10:02:05.582Z</time></trkpt><trkpt lat="43.75311" lon="12.19755"><ele>497.0</ele><time>2026-03-22T10:02:06.582Z</time></trkpt><trkpt lat="43.7532533" lon="12.1973783"><ele>500.0</ele><time>2026-03-22T10:02:07.582Z</time></trkpt><trkpt lat="43.7534083" lon="12.1972383"><ele>493.0</ele><time>2026-03-22T10:02:08.581Z</time></trkpt><trkpt lat="43.75359" lon="12.19714"><ele>486.0</ele><time>2026-03-22T10:02:09.581Z</time></trkpt><trkpt lat="43.75378" lon="12.1970933"><ele>479.0</ele><time>2026-03-22T10:02:10.581Z</time></trkpt><trkpt lat="43.7539717" lon="12.197085"><ele>479.0</ele><time>2026-03-22T10:02:11.582Z</time></trkpt><trkpt lat="43.7541667" lon="12.19714"><ele>479.0</ele><time>2026-03-22T10:02:12.582Z</time></trkpt><trkpt lat="43.75435" lon="12.19722"><ele>479.0</ele><time>2026-03-22T10:02:13.582Z</time></trkpt><trkpt lat="43.75452" lon="12.1972967"><ele>482.0</ele><time>2026-03-22T10:02:14.582Z</time></trkpt><trkpt lat="43.7546967" lon="12.197315"><ele>485.0</ele><time>2026-03-22T10:02:15.582Z</time></trkpt><trkpt lat="43.7548767" lon="12.1972867"><ele>488.0</ele><time>2026-03-22T10:02:16.582Z</time></trkpt><trkpt lat="43.7550517" lon="12.197205"><ele>494.66666666666663</ele><time>2026-03-22T10:02:17.582Z</time></trkpt><trkpt lat="43.7552183" lon="12.1970517"><ele>501.33333333333337</ele><time>2026-03-22T10:02:18.582Z</time></trkpt><trkpt lat="43.755395" lon="12.1968317"><ele>508.0</ele><time>2026-03-22T10:02:19.581Z</time></trkpt><trkpt lat="43.75556" lon="12.1965983"><ele>499.0</ele><time>2026-03-22T10:02:20.582Z</time></trkpt><trkpt lat="43.7557033" lon="12.1963833"><ele>490.0</ele><time>2026-03-22T10:02:21.582Z</time></trkpt><trkpt lat="43.7558383" lon="12.1961867"><ele>481.0</ele><time>2026-03-22T10:02:22.581Z</time></trkpt><trkpt lat="43.7559683" lon="12.196025"><ele>483.6666666666667</ele><time>2026-03-22T10:02:23.581Z</time></trkpt><trkpt lat="43.7560767" lon="12.1958617"><ele>486.33333333333337</ele><time>2026-03-22T10:02:24.582Z</time></trkpt><trkpt lat="43.7561867" lon="12.195725"><ele>489.0</ele><time>2026-03-22T10:02:25.582Z</time></trkpt><trkpt lat="43.7563183" lon="12.1956283"><ele>489.0</ele><time>2026-03-22T10:02:26.582Z</time></trkpt><trkpt lat="43.7564583" lon="12.1955883"><ele>489.0</ele><time>2026-03-22T10:02:27.582Z</time></trkpt><trkpt lat="43.756605" lon="12.1956117"><ele>489.0</ele><time>2026-03-22T10:02:28.582Z</time></trkpt><trkpt lat="43.756745" lon="12.1956867"><ele>489.0</ele><time>2026-03-22T10:02:29.582Z</time></trkpt><trkpt lat="43.7568633" lon="12.1958217"><ele>483.66666666666663</ele><time>2026-03-22T10:02:30.581Z</time></trkpt><trkpt lat="43.756965" lon="12.1960033"><ele>478.3333333333333</ele><time>2026-03-22T10:02:31.581Z</time></trkpt><trkpt lat="43.7570383" lon="12.1962233"><ele>473.0</ele><time>2026-03-22T10:02:32.581Z</time></trkpt><trkpt lat="43.7570933" lon="12.1964467"><ele>475.66666666666663</ele><time>2026-03-22T10:02:33.582Z</time></trkpt><trkpt lat="43.757145" lon="12.1966583"><ele>478.33333333333337</ele><time>2026-03-22T10:02:34.582Z</time></trkpt><trkpt lat="43.7572067" lon="12.1968733"><ele>481.0</ele><time>2026-03-22T10:02:35.582Z</time></trkpt><trkpt lat="43.75731" lon="12.19705"><ele>481.0</ele><time>2026-03-22T10:02:36.582Z</time></trkpt><trkpt lat="43.7574533" lon="12.1971833"><ele>481.0</ele><time>2026-03-22T10:02:37.582Z</time></trkpt><trkpt lat="43.757615" lon="12.19728"><ele>481.0</ele><time>2026-03-22T10:02:38.582Z</time></trkpt><trkpt lat="43.7577717" lon="12.1973617"><ele>478.0</ele><time>2026-03-22T10:02:39.582Z</time></trkpt><trkpt lat="43.7579233" lon="12.1974767"><ele>475.0</ele><time>2026-03-22T10:02:40.581Z</time></trkpt><trkpt lat="43.7580633" lon="12.19767"><ele>472.0</ele><time>2026-03-22T10:02:41.582Z</time></trkpt><trkpt lat="43.758195" lon="12.1979"><ele>472.0</ele><time>2026-03-22T10:02:42.582Z</time></trkpt><trkpt lat="43.7583367" lon="12.19816"><ele>472.0</ele><time>2026-03-22T10:02:43.582Z</time></trkpt><trkpt lat="43.7584767" lon="12.198425"><ele>469.0</ele><time>2026-03-22T10:02:44.581Z</time></trkpt><trkpt lat="43.7586133" lon="12.1986783"><ele>466.0</ele><time>2026-03-22T10:02:45.581Z</time></trkpt><trkpt lat="43.7587367" lon="12.1989167"><ele>463.0</ele><time>2026-03-22T10:02:46.582Z</time></trkpt><trkpt lat="43.7588583" lon="12.199145"><ele>463.0</ele><time>2026-03-22T10:02:47.581Z</time></trkpt><trkpt lat="43.7589783" lon="12.1993567"><ele>463.0</ele><time>2026-03-22T10:02:48.581Z</time></trkpt><trkpt lat="43.7590983" lon="12.1995383"><ele>463.0</ele><time>2026-03-22T10:02:49.582Z</time></trkpt><trkpt lat="43.759235" lon="12.199695"><ele>463.33333333333337</ele><time>2026-03-22T10:02:50.581Z</time></trkpt><trkpt lat="43.7594033" lon="12.1998183"><ele>463.66666666666663</ele><time>2026-03-22T10:02:51.582Z</time></trkpt><trkpt lat="43.7595933" lon="12.1999233"><ele>464.0</ele><time>2026-03-22T10:02:52.582Z</time></trkpt><trkpt lat="43.7598133" lon="12.20001"><ele>464.0</ele><time>2026-03-22T10:02:53.582Z</time></trkpt><trkpt lat="43.7600417" lon="12.200075"><ele>464.0</ele><time>2026-03-22T10:02:54.581Z</time></trkpt><trkpt lat="43.7602533" lon="12.2001117"><ele>464.0</ele><time>2026-03-22T10:02:55.582Z</time></trkpt><trkpt lat="43.7604517" lon="12.2001483"><ele>462.0</ele><time>2026-03-22T10:02:56.582Z</time></trkpt><trkpt lat="43.76063" lon="12.20017"><ele>460.0</ele><time>2026-03-22T10:02:57.582Z</time></trkpt><trkpt lat="43.7607983" lon="12.2001817"><ele>458.0</ele><time>2026-03-22T10:02:58.582Z</time></trkpt><trkpt lat="43.76096" lon="12.20013"><ele>459.0</ele><time>2026-03-22T10:02:59.581Z</time></trkpt><trkpt lat="43.7611133" lon="12.2000133"><ele>460.0</ele><time>2026-03-22T10:03:00.581Z</time></trkpt><trkpt lat="43.76125" lon="12.19987"><ele>461.0</ele><time>2026-03-22T10:03:01.582Z</time></trkpt><trkpt lat="43.761365" lon="12.19972"><ele>455.0</ele><time>2026-03-22T10:03:02.581Z</time></trkpt><trkpt lat="43.761485" lon="12.1996083"><ele>449.0</ele><time>2026-03-22T10:03:03.582Z</time></trkpt><trkpt lat="43.7616233" lon="12.1995367"><ele>443.0</ele><time>2026-03-22T10:03:04.582Z</time></trkpt><trkpt lat="43.761785" lon="12.1994983"><ele>444.0</ele><time>2026-03-22T10:03:05.582Z</time></trkpt><trkpt lat="43.7619717" lon="12.1995067"><ele>445.0</ele><time>2026-03-22T10:03:06.582Z</time></trkpt><trkpt lat="43.7621767" lon="12.1995383"><ele>446.0</ele><time>2026-03-22T10:03:07.582Z</time></trkpt><trkpt lat="43.7623733" lon="12.1995683"><ele>446.0</ele><time>2026-03-22T10:03:08.581Z</time></trkpt><trkpt lat="43.7625583" lon="12.1995817"><ele>446.0</ele><time>2026-03-22T10:03:09.582Z</time></trkpt><trkpt lat="43.7627367" lon="12.199555"><ele>446.0</ele><time>2026-03-22T10:03:10.582Z</time></trkpt><trkpt lat="43.7629083" lon="12.1995133"><ele>446.66666666666663</ele><time>2026-03-22T10:03:11.582Z</time></trkpt><trkpt lat="43.7630767" lon="12.1994433"><ele>447.33333333333337</ele><time>2026-03-22T10:03:12.581Z</time></trkpt><trkpt lat="43.7632333" lon="12.1993433"><ele>448.0</ele><time>2026-03-22T10:03:13.582Z</time></trkpt><trkpt lat="43.7633733" lon="12.199195"><ele>448.0</ele><time>2026-03-22T10:03:14.582Z</time></trkpt><trkpt lat="43.7635117" lon="12.1990317"><ele>448.0</ele><time>2026-03-22T10:03:15.582Z</time></trkpt><trkpt lat="43.76364" lon="12.1988567"><ele>448.0</ele><time>2026-03-22T10:03:16.581Z</time></trkpt><trkpt lat="43.7637583" lon="12.1987033"><ele>447.0</ele><time>2026-03-22T10:03:17.582Z</time></trkpt><trkpt lat="43.7638717" lon="12.1985667"><ele>446.0</ele><time>2026-03-22T10:03:18.581Z</time></trkpt><trkpt lat="43.7639917" lon="12.198475"><ele>445.0</ele><time>2026-03-22T10:03:19.581Z</time></trkpt><trkpt lat="43.7641317" lon="12.19842"><ele>444.0</ele><time>2026-03-22T10:03:20.582Z</time></trkpt><trkpt lat="43.764275" lon="12.19841"><ele>442.25</ele><time>2026-03-22T10:03:21.581Z</time></trkpt><trkpt lat="43.764425" lon="12.1984417"><ele>440.5</ele><time>2026-03-22T10:03:22.582Z</time></trkpt><trkpt lat="43.7645583" lon="12.1985017"><ele>438.75</ele><time>2026-03-22T10:03:23.582Z</time></trkpt><trkpt lat="43.764685" lon="12.1985617"><ele>437.0</ele><time>2026-03-22T10:03:24.582Z</time></trkpt><trkpt lat="43.764805" lon="12.19863"><ele>437.0</ele><time>2026-03-22T10:03:25.581Z</time></trkpt><trkpt lat="43.7649167" lon="12.1986733"><ele>437.00000000000006</ele><time>2026-03-22T10:03:26.582Z</time></trkpt><trkpt lat="43.7650267" lon="12.1987133"><ele>437.00000000000006</ele><time>2026-03-22T10:03:27.582Z</time></trkpt><trkpt lat="43.7651283" lon="12.1987567"><ele>437.0</ele><time>2026-03-22T10:03:28.582Z</time></trkpt><trkpt lat="43.76523" lon="12.19879"><ele>437.0</ele><time>2026-03-22T10:03:29.582Z</time></trkpt><trkpt lat="43.7653383" lon="12.19884"><ele>435.75</ele><time>2026-03-22T10:03:30.581Z</time></trkpt><trkpt lat="43.7654417" lon="12.1988933"><ele>434.5</ele><time>2026-03-22T10:03:31.581Z</time></trkpt><trkpt lat="43.76553" lon="12.1989733"><ele>433.25</ele><time>2026-03-22T10:03:32.582Z</time></trkpt><trkpt lat="43.7656233" lon="12.199085"><ele>432.0</ele><time>2026-03-22T10:03:33.582Z</time></trkpt><trkpt lat="43.7657083" lon="12.19921"><ele>432.0</ele><time>2026-03-22T10:03:34.582Z</time></trkpt><trkpt lat="43.7657817" lon="12.1993467"><ele>432.0</ele><time>2026-03-22T10:03:35.582Z</time></trkpt><trkpt lat="43.7658617" lon="12.1995"><ele>432.0</ele><time>2026-03-22T10:03:36.582Z</time></trkpt><trkpt lat="43.7659317" lon="12.199665"><ele>432.0</ele><time>2026-03-22T10:03:37.582Z</time></trkpt><trkpt lat="43.7660117" lon="12.1998217"><ele>431.75</ele><time>2026-03-22T10:03:38.582Z</time></trkpt><trkpt lat="43.76608" lon="12.1999617"><ele>431.5</ele><time>2026-03-22T10:03:39.582Z</time></trkpt><trkpt lat="43.766145" lon="12.2000967"><ele>431.25</ele><time>2026-03-22T10:03:40.582Z</time></trkpt><trkpt lat="43.76622" lon="12.2002117"><ele>431.0</ele><time>2026-03-22T10:03:41.581Z</time></trkpt><trkpt lat="43.7663133" lon="12.2003083"><ele>431.0</ele><time>2026-03-22T10:03:42.581Z</time></trkpt><trkpt lat="43.766435" lon="12.2003767"><ele>431.0</ele><time>2026-03-22T10:03:43.582Z</time></trkpt><trkpt lat="43.76658" lon="12.20042"><ele>431.0</ele><time>2026-03-22T10:03:44.582Z</time></trkpt><trkpt lat="43.76673" lon="12.20046"><ele>431.0</ele><time>2026-03-22T10:03:45.582Z</time></trkpt><trkpt lat="43.766875" lon="12.2004817"><ele>431.25</ele><time>2026-03-22T10:03:46.581Z</time></trkpt><trkpt lat="43.76701" lon="12.2004967"><ele>431.5</ele><time>2026-03-22T10:03:47.582Z</time></trkpt><trkpt lat="43.767135" lon="12.2005017"><ele>431.75</ele><time>2026-03-22T10:03:48.582Z</time></trkpt><trkpt lat="43.7672617" lon="12.20048"><ele>432.0</ele><time>2026-03-22T10:03:49.582Z</time></trkpt><trkpt lat="43.7674067" lon="12.2004317"><ele>432.0</ele><time>2026-03-22T10:03:50.581Z</time></trkpt><trkpt lat="43.7675667" lon="12.2003567"><ele>432.0</ele><time>2026-03-22T10:03:51.582Z</time></trkpt><trkpt lat="43.7677333" lon="12.2002617"><ele>432.0</ele><time>2026-03-22T10:03:52.582Z</time></trkpt><trkpt lat="43.76789" lon="12.2001867"><ele>432.66666666666663</ele><time>2026-03-22T10:03:53.581Z</time></trkpt><trkpt lat="43.76806" lon="12.2001367"><ele>433.3333333333333</ele><time>2026-03-22T10:03:54.582Z</time></trkpt><trkpt lat="43.7682417" lon="12.2001267"><ele>434.0</ele><time>2026-03-22T10:03:55.582Z</time></trkpt><trkpt lat="43.768435" lon="12.200155"><ele>431.66666666666663</ele><time>2026-03-22T10:03:56.582Z</time></trkpt><trkpt lat="43.768625" lon="12.200205"><ele>429.33333333333337</ele><time>2026-03-22T10:03:57.582Z</time></trkpt><trkpt lat="43.7688083" lon="12.2002733"><ele>427.0</ele><time>2026-03-22T10:03:58.582Z</time></trkpt><trkpt lat="43.7689817" lon="12.2003667"><ele>427.0</ele><time>2026-03-22T10:03:59.581Z</time></trkpt><trkpt lat="43.7691433" lon="12.20048"><ele>427.0</ele><time>2026-03-22T10:04:00.582Z</time></trkpt><trkpt lat="43.7693" lon="12.2005983"><ele>427.0</ele><time>2026-03-22T10:04:01.582Z</time></trkpt><trkpt lat="43.769455" lon="12.2006817"><ele>430.33333333333337</ele><time>2026-03-22T10:04:02.582Z</time></trkpt><trkpt lat="43.769625" lon="12.2007333"><ele>433.66666666666663</ele><time>2026-03-22T10:04:03.582Z</time></trkpt><trkpt lat="43.7698133" lon="12.200735"><ele>437.0</ele><time>2026-03-22T10:04:04.582Z</time></trkpt><trkpt lat="43.770015" lon="12.2007133"><ele>436.0</ele><time>2026-03-22T10:04:05.582Z</time></trkpt><trkpt lat="43.770205" lon="12.200685"><ele>435.0</ele><time>2026-03-22T10:04:06.582Z</time></trkpt><trkpt lat="43.7703967" lon="12.2006717"><ele>434.0</ele><time>2026-03-22T10:04:07.582Z</time></trkpt><trkpt lat="43.7705883" lon="12.200675"><ele>434.0</ele><time>2026-03-22T10:04:08.582Z</time></trkpt><trkpt lat="43.770775" lon="12.20069"><ele>434.0</ele><time>2026-03-22T10:04:09.582Z</time></trkpt><trkpt lat="43.770955" lon="12.2007333"><ele>434.0</ele><time>2026-03-22T10:04:10.581Z</time></trkpt><trkpt lat="43.7711317" lon="12.2008367"><ele>431.3333333333333</ele><time>2026-03-22T10:04:11.582Z</time></trkpt><trkpt lat="43.7712933" lon="12.2009683"><ele>428.66666666666663</ele><time>2026-03-22T10:04:12.582Z</time></trkpt><trkpt lat="43.7714633" lon="12.2011117"><ele>426.0</ele><time>2026-03-22T10:04:13.582Z</time></trkpt><trkpt lat="43.77162" lon="12.2012417"><ele>426.0</ele><time>2026-03-22T10:04:14.581Z</time></trkpt><trkpt lat="43.7718017" lon="12.201335"><ele>426.0</ele><time>2026-03-22T10:04:15.582Z</time></trkpt><trkpt lat="43.7719783" lon="12.2013883"><ele>426.0</ele><time>2026-03-22T10:04:16.582Z</time></trkpt><trkpt lat="43.7721567" lon="12.2013967"><ele>426.0</ele><time>2026-03-22T10:04:17.582Z</time></trkpt><trkpt lat="43.7723517" lon="12.20137"><ele>426.0</ele><time>2026-03-22T10:04:18.582Z</time></trkpt><trkpt lat="43.7725617" lon="12.2013483"><ele>426.0</ele><time>2026-03-22T10:04:19.581Z</time></trkpt><trkpt lat="43.7727483" lon="12.2013283"><ele>424.66666666666663</ele><time>2026-03-22T10:04:20.581Z</time></trkpt><trkpt lat="43.7729383" lon="12.2013383"><ele>423.3333333333333</ele><time>2026-03-22T10:04:21.582Z</time></trkpt><trkpt lat="43.773125" lon="12.20137"><ele>422.0</ele><time>2026-03-22T10:04:22.582Z</time></trkpt><trkpt lat="43.7733117" lon="12.201425"><ele>422.0</ele><time>2026-03-22T10:04:23.582Z</time></trkpt><trkpt lat="43.7734967" lon="12.2014967"><ele>422.0</ele><time>2026-03-22T10:04:24.582Z</time></trkpt><trkpt lat="43.7736717" lon="12.20159"><ele>422.0</ele><time>2026-03-22T10:04:25.582Z</time></trkpt><trkpt lat="43.7738483" lon="12.2017017"><ele>424.66666666666663</ele><time>2026-03-22T10:04:26.581Z</time></trkpt><trkpt lat="43.774005" lon="12.2018267"><ele>427.33333333333337</ele><time>2026-03-22T10:04:27.582Z</time></trkpt><trkpt lat="43.7741583" lon="12.201945"><ele>430.0</ele><time>2026-03-22T10:04:28.581Z</time></trkpt><trkpt lat="43.7743183" lon="12.20204"><ele>429.33333333333337</ele><time>2026-03-22T10:04:29.582Z</time></trkpt><trkpt lat="43.7744883" lon="12.2020933"><ele>428.66666666666663</ele><time>2026-03-22T10:04:30.581Z</time></trkpt><trkpt lat="43.7746567" lon="12.2021117"><ele>428.0</ele><time>2026-03-22T10:04:31.582Z</time></trkpt><trkpt lat="43.7748067" lon="12.202155"><ele>428.0</ele><time>2026-03-22T10:04:32.582Z</time></trkpt><trkpt lat="43.774955" lon="12.20223"><ele>428.0</ele><time>2026-03-22T10:04:33.581Z</time></trkpt><trkpt lat="43.775095" lon="12.2023583"><ele>428.0</ele><time>2026-03-22T10:04:34.582Z</time></trkpt><trkpt lat="43.7752383" lon="12.2025267"><ele>426.3333333333333</ele><time>2026-03-22T10:04:35.581Z</time></trkpt><trkpt lat="43.7753683" lon="12.20269"><ele>424.66666666666663</ele><time>2026-03-22T10:04:36.582Z</time></trkpt><trkpt lat="43.7754933" lon="12.2028333"><ele>423.0</ele><time>2026-03-22T10:04:37.582Z</time></trkpt><trkpt lat="43.775625" lon="12.202945"><ele>423.0</ele><time>2026-03-22T10:04:38.581Z</time></trkpt><trkpt lat="43.7757583" lon="12.2030483"><ele>423.0</ele><time>2026-03-22T10:04:39.581Z</time></trkpt><trkpt lat="43.77589" lon="12.2031483"><ele>423.0</ele><time>2026-03-22T10:04:40.582Z</time></trkpt><trkpt lat="43.7760167" lon="12.2032467"><ele>423.0</ele><time>2026-03-22T10:04:41.582Z</time></trkpt><trkpt lat="43.7761367" lon="12.2033433"><ele>424.0</ele><time>2026-03-22T10:04:42.581Z</time></trkpt><trkpt lat="43.7762583" lon="12.203435"><ele>425.0</ele><time>2026-03-22T10:04:43.582Z</time></trkpt><trkpt lat="43.77637" lon="12.2035167"><ele>426.0</ele><time>2026-03-22T10:04:44.581Z</time></trkpt><trkpt lat="43.7764833" lon="12.203595"><ele>427.0</ele><time>2026-03-22T10:04:45.581Z</time></trkpt><trkpt lat="43.7765933" lon="12.203685"><ele>427.0</ele><time>2026-03-22T10:04:46.581Z</time></trkpt><trkpt lat="43.7767017" lon="12.203775"><ele>427.0</ele><time>2026-03-22T10:04:47.582Z</time></trkpt><trkpt lat="43.776805" lon="12.2038617"><ele>427.0</ele><time>2026-03-22T10:04:48.582Z</time></trkpt><trkpt lat="43.776905" lon="12.2039317"><ele>427.0</ele><time>2026-03-22T10:04:49.582Z</time></trkpt><trkpt lat="43.777" lon="12.204005"><ele>427.6</ele><time>2026-03-22T10:04:50.582Z</time></trkpt><trkpt lat="43.7770933" lon="12.2040783"><ele>428.20000000000005</ele><time>2026-03-22T10:04:51.581Z</time></trkpt><trkpt lat="43.7771883" lon="12.2041533"><ele>428.8</ele><time>2026-03-22T10:04:52.581Z</time></trkpt><trkpt lat="43.7772833" lon="12.2042217"><ele>429.4</ele><time>2026-03-22T10:04:53.582Z</time></trkpt><trkpt lat="43.7773833" lon="12.2042933"><ele>430.0</ele><time>2026-03-22T10:04:54.581Z</time></trkpt><trkpt lat="43.7774917" lon="12.204365"><ele>430.0</ele><time>2026-03-22T10:04:55.582Z</time></trkpt><trkpt lat="43.7776017" lon="12.2044467"><ele>430.0</ele><time>2026-03-22T10:04:56.583Z</time></trkpt><trkpt lat="43.7777183" lon="12.2045283"><ele>430.0</ele><time>2026-03-22T10:04:57.582Z</time></trkpt><trkpt lat="43.7778283" lon="12.2046183"><ele>430.0</ele><time>2026-03-22T10:04:58.583Z</time></trkpt><trkpt lat="43.777945" lon="12.204705"><ele>431.25</ele><time>2026-03-22T10:04:59.583Z</time></trkpt><trkpt lat="43.7780733" lon="12.2047967"><ele>432.5</ele><time>2026-03-22T10:05:00.583Z</time></trkpt><trkpt lat="43.7781983" lon="12.204885"><ele>433.75</ele><time>2026-03-22T10:05:01.583Z</time></trkpt><trkpt lat="43.77832" lon="12.2049783"><ele>435.0</ele><time>2026-03-22T10:05:02.583Z</time></trkpt><trkpt lat="43.7784483" lon="12.205045"><ele>433.66666666666663</ele><time>2026-03-22T10:05:03.582Z</time></trkpt><trkpt lat="43.7785883" lon="12.20509"><ele>432.3333333333333</ele><time>2026-03-22T10:05:04.582Z</time></trkpt><trkpt lat="43.7787433" lon="12.20509"><ele>431.0</ele><time>2026-03-22T10:05:05.582Z</time></trkpt><trkpt lat="43.778895" lon="12.2050533"><ele>431.0</ele><time>2026-03-22T10:05:06.582Z</time></trkpt><trkpt lat="43.7790383" lon="12.20502"><ele>431.0</ele><time>2026-03-22T10:05:07.582Z</time></trkpt><trkpt lat="43.77919" lon="12.2049817"><ele>431.0</ele><time>2026-03-22T10:05:08.582Z</time></trkpt><trkpt lat="43.779335" lon="12.2049733"><ele>431.0</ele><time>2026-03-22T10:05:09.583Z</time></trkpt><trkpt lat="43.77948" lon="12.2050017"><ele>427.75</ele><time>2026-03-22T10:05:10.583Z</time></trkpt><trkpt lat="43.7796283" lon="12.2050717"><ele>424.5</ele><time>2026-03-22T10:05:11.583Z</time></trkpt><trkpt lat="43.779765" lon="12.2051467"><ele>421.25</ele><time>2026-03-22T10:05:12.583Z</time></trkpt><trkpt lat="43.7798883" lon="12.205215"><ele>418.0</ele><time>2026-03-22T10:05:13.583Z</time></trkpt><trkpt lat="43.78" lon="12.2053117"><ele>418.0</ele><time>2026-03-22T10:05:14.583Z</time></trkpt><trkpt lat="43.780085" lon="12.2054417"><ele>418.0</ele><time>2026-03-22T10:05:15.583Z</time></trkpt><trkpt lat="43.78015" lon="12.2056"><ele>418.0</ele><time>2026-03-22T10:05:16.582Z</time></trkpt><trkpt lat="43.7801933" lon="12.2058133"><ele>418.0</ele><time>2026-03-22T10:05:17.582Z</time></trkpt><trkpt lat="43.7802333" lon="12.20604"><ele>417.6666666666667</ele><time>2026-03-22T10:05:18.582Z</time></trkpt><trkpt lat="43.7802967" lon="12.2062733"><ele>417.33333333333337</ele><time>2026-03-22T10:05:19.583Z</time></trkpt><trkpt lat="43.7803883" lon="12.20651"><ele>417.0</ele><time>2026-03-22T10:05:20.582Z</time></trkpt><trkpt lat="43.780515" lon="12.20676"><ele>417.0</ele><time>2026-03-22T10:05:21.582Z</time></trkpt><trkpt lat="43.7806467" lon="12.20701"><ele>417.0</ele><time>2026-03-22T10:05:22.583Z</time></trkpt><trkpt lat="43.78078" lon="12.207245"><ele>417.0</ele><time>2026-03-22T10:05:23.583Z</time></trkpt><trkpt lat="43.7809117" lon="12.20746"><ele>413.0</ele><time>2026-03-22T10:05:24.583Z</time></trkpt><trkpt lat="43.7810383" lon="12.20766"><ele>409.0</ele><time>2026-03-22T10:05:25.582Z</time></trkpt><trkpt lat="43.7811683" lon="12.2078467"><ele>405.0</ele><time>2026-03-22T10:05:26.583Z</time></trkpt><trkpt lat="43.78129" lon="12.208035"><ele>407.66666666666663</ele><time>2026-03-22T10:05:27.583Z</time></trkpt><trkpt lat="43.7813917" lon="12.2082283"><ele>410.3333333333333</ele><time>2026-03-22T10:05:28.583Z</time></trkpt><trkpt lat="43.7814733" lon="12.2084383"><ele>413.0</ele><time>2026-03-22T10:05:29.583Z</time></trkpt><trkpt lat="43.7815417" lon="12.2086783"><ele>413.0</ele><time>2026-03-22T10:05:30.583Z</time></trkpt><trkpt lat="43.7815767" lon="12.2089617"><ele>413.0</ele><time>2026-03-22T10:05:31.583Z</time></trkpt><trkpt lat="43.78161" lon="12.2092533"><ele>413.0</ele><time>2026-03-22T10:05:32.583Z</time></trkpt><trkpt lat="43.7816467" lon="12.2095183"><ele>412.66666666666663</ele><time>2026-03-22T10:05:33.583Z</time></trkpt><trkpt lat="43.7816767" lon="12.2097617"><ele>412.33333333333337</ele><time>2026-03-22T10:05:34.583Z</time></trkpt><trkpt lat="43.7817133" lon="12.2099667"><ele>412.0</ele><time>2026-03-22T10:05:35.583Z</time></trkpt><trkpt lat="43.7817533" lon="12.21015"><ele>412.0</ele><time>2026-03-22T10:05:36.583Z</time></trkpt><trkpt lat="43.7818117" lon="12.2102967"><ele>412.0</ele><time>2026-03-22T10:05:37.583Z</time></trkpt><trkpt lat="43.7819017" lon="12.2104133"><ele>412.0</ele><time>2026-03-22T10:05:38.583Z</time></trkpt><trkpt lat="43.7820367" lon="12.210485"><ele>412.0</ele><time>2026-03-22T10:05:39.582Z</time></trkpt><trkpt lat="43.7821983" lon="12.2105183"><ele>412.0</ele><time>2026-03-22T10:05:40.583Z</time></trkpt><trkpt lat="43.7823767" lon="12.2105383"><ele>412.0</ele><time>2026-03-22T10:05:41.583Z</time></trkpt><trkpt lat="43.7825567" lon="12.2105617"><ele>412.0</ele><time>2026-03-22T10:05:42.583Z</time></trkpt><trkpt lat="43.7827333" lon="12.2105867"><ele>412.0</ele><time>2026-03-22T10:05:43.583Z</time></trkpt><trkpt lat="43.7829033" lon="12.2106217"><ele>412.0</ele><time>2026-03-22T10:05:44.583Z</time></trkpt><trkpt lat="43.7830767" lon="12.2106717"><ele>412.0</ele><time>2026-03-22T10:05:45.582Z</time></trkpt><trkpt lat="43.7832483" lon="12.2107433"><ele>415.0</ele><time>2026-03-22T10:05:46.583Z</time></trkpt><trkpt lat="43.783445" lon="12.210815"><ele>418.0</ele><time>2026-03-22T10:05:47.582Z</time></trkpt><trkpt lat="43.7836467" lon="12.2109"><ele>421.0</ele><time>2026-03-22T10:05:48.583Z</time></trkpt><trkpt lat="43.78384" lon="12.2109817"><ele>421.0</ele><time>2026-03-22T10:05:49.583Z</time></trkpt><trkpt lat="43.7840217" lon="12.21105"><ele>421.0</ele><time>2026-03-22T10:05:50.583Z</time></trkpt><trkpt lat="43.7841817" lon="12.2111083"><ele>421.0</ele><time>2026-03-22T10:05:51.582Z</time></trkpt><trkpt lat="43.7843383" lon="12.21114"><ele>422.25</ele><time>2026-03-22T10:05:52.583Z</time></trkpt><trkpt lat="43.784485" lon="12.2111117"><ele>423.5</ele><time>2026-03-22T10:05:53.583Z</time></trkpt><trkpt lat="43.784625" lon="12.2110517"><ele>424.75</ele><time>2026-03-22T10:05:54.583Z</time></trkpt><trkpt lat="43.7847467" lon="12.2109483"><ele>426.0</ele><time>2026-03-22T10:05:55.583Z</time></trkpt><trkpt lat="43.7848367" lon="12.2108017"><ele>423.75</ele><time>2026-03-22T10:05:56.583Z</time></trkpt><trkpt lat="43.7849067" lon="12.210615"><ele>421.5</ele><time>2026-03-22T10:05:57.582Z</time></trkpt><trkpt lat="43.7849683" lon="12.210425"><ele>419.25</ele><time>2026-03-22T10:05:58.583Z</time></trkpt><trkpt lat="43.7850317" lon="12.21026"><ele>417.0</ele><time>2026-03-22T10:05:59.583Z</time></trkpt><trkpt lat="43.7851133" lon="12.2101283"><ele>419.25</ele><time>2026-03-22T10:06:00.582Z</time></trkpt><trkpt lat="43.78522" lon="12.2100317"><ele>421.5</ele><time>2026-03-22T10:06:01.583Z</time></trkpt><trkpt lat="43.785355" lon="12.209985"><ele>423.75</ele><time>2026-03-22T10:06:02.583Z</time></trkpt><trkpt lat="43.7855117" lon="12.209975"><ele>426.0</ele><time>2026-03-22T10:06:03.583Z</time></trkpt><trkpt lat="43.7856917" lon="12.209975"><ele>426.0</ele><time>2026-03-22T10:06:04.583Z</time></trkpt><trkpt lat="43.7858717" lon="12.2100083"><ele>426.0</ele><time>2026-03-22T10:06:05.583Z</time></trkpt><trkpt lat="43.786035" lon="12.210065"><ele>426.0</ele><time>2026-03-22T10:06:06.583Z</time></trkpt><trkpt lat="43.7861967" lon="12.2100983"><ele>427.33333333333337</ele><time>2026-03-22T10:06:07.583Z</time></trkpt><trkpt lat="43.7863717" lon="12.21007"><ele>428.6666666666667</ele><time>2026-03-22T10:06:08.583Z</time></trkpt><trkpt lat="43.78654" lon="12.21002"><ele>430.0</ele><time>2026-03-22T10:06:09.582Z</time></trkpt><trkpt lat="43.7867117" lon="12.2099383"><ele>429.0</ele><time>2026-03-22T10:06:10.583Z</time></trkpt><trkpt lat="43.7868567" lon="12.209865"><ele>428.0</ele><time>2026-03-22T10:06:11.583Z</time></trkpt><trkpt lat="43.7869933" lon="12.2098217"><ele>427.0</ele><time>2026-03-22T10:06:12.583Z</time></trkpt><trkpt lat="43.7871367" lon="12.2098183"><ele>426.0</ele><time>2026-03-22T10:06:13.583Z</time></trkpt><trkpt lat="43.7872867" lon="12.209875"><ele>426.0</ele><time>2026-03-22T10:06:14.582Z</time></trkpt><trkpt lat="43.7874383" lon="12.2099917"><ele>426.0</ele><time>2026-03-22T10:06:15.583Z</time></trkpt><trkpt lat="43.787595" lon="12.210145"><ele>426.0</ele><time>2026-03-22T10:06:16.582Z</time></trkpt><trkpt lat="43.78776" lon="12.2102817"><ele>425.33333333333337</ele><time>2026-03-22T10:06:17.583Z</time></trkpt><trkpt lat="43.7879167" lon="12.21038"><ele>424.6666666666667</ele><time>2026-03-22T10:06:18.583Z</time></trkpt><trkpt lat="43.7880633" lon="12.210465"><ele>424.0</ele><time>2026-03-22T10:06:19.582Z</time></trkpt><trkpt lat="43.788215" lon="12.2105133"><ele>424.0</ele><time>2026-03-22T10:06:20.583Z</time></trkpt><trkpt lat="43.788375" lon="12.210495"><ele>424.0</ele><time>2026-03-22T10:06:21.582Z</time></trkpt><trkpt lat="43.78855" lon="12.2104183"><ele>424.0</ele><time>2026-03-22T10:06:22.583Z</time></trkpt><trkpt lat="43.7887167" lon="12.2102883"><ele>427.6666666666667</ele><time>2026-03-22T10:06:23.582Z</time></trkpt><trkpt lat="43.78887" lon="12.2101467"><ele>431.33333333333337</ele><time>2026-03-22T10:06:24.583Z</time></trkpt><trkpt lat="43.7890017" lon="12.2100033"><ele>435.0</ele><time>2026-03-22T10:06:25.583Z</time></trkpt><trkpt lat="43.7891467" lon="12.20987"><ele>431.33333333333337</ele><time>2026-03-22T10:06:26.583Z</time></trkpt><trkpt lat="43.7893033" lon="12.2097667"><ele>427.6666666666667</ele><time>2026-03-22T10:06:27.582Z</time></trkpt><trkpt lat="43.7894817" lon="12.20969"><ele>424.0</ele><time>2026-03-22T10:06:28.583Z</time></trkpt><trkpt lat="43.789665" lon="12.2096183"><ele>424.0</ele><time>2026-03-22T10:06:29.583Z</time></trkpt><trkpt lat="43.7898633" lon="12.2095633"><ele>424.0</ele><time>2026-03-22T10:06:30.582Z</time></trkpt><trkpt lat="43.7900767" lon="12.2095283"><ele>424.0</ele><time>2026-03-22T10:06:31.583Z</time></trkpt><trkpt lat="43.7902933" lon="12.2095117"><ele>424.0</ele><time>2026-03-22T10:06:32.582Z</time></trkpt><trkpt lat="43.7905017" lon="12.2095083"><ele>424.0</ele><time>2026-03-22T10:06:33.582Z</time></trkpt><trkpt lat="43.790685" lon="12.2095267"><ele>424.0</ele><time>2026-03-22T10:06:34.582Z</time></trkpt><trkpt lat="43.7908667" lon="12.2095383"><ele>421.6666666666667</ele><time>2026-03-22T10:06:35.582Z</time></trkpt><trkpt lat="43.7910283" lon="12.2095617"><ele>419.33333333333337</ele><time>2026-03-22T10:06:36.582Z</time></trkpt><trkpt lat="43.79118" lon="12.2095833"><ele>417.0</ele><time>2026-03-22T10:06:37.583Z</time></trkpt><trkpt lat="43.7913267" lon="12.20962"><ele>417.0</ele><time>2026-03-22T10:06:38.582Z</time></trkpt><trkpt lat="43.7914533" lon="12.209685"><ele>417.0</ele><time>2026-03-22T10:06:39.583Z</time></trkpt><trkpt lat="43.791565" lon="12.2097583"><ele>417.0</ele><time>2026-03-22T10:06:40.582Z</time></trkpt><trkpt lat="43.7916467" lon="12.209885"><ele>417.0</ele><time>2026-03-22T10:06:41.583Z</time></trkpt><trkpt lat="43.7916983" lon="12.21005"><ele>421.66666666666663</ele><time>2026-03-22T10:06:42.582Z</time></trkpt><trkpt lat="43.7917183" lon="12.21025"><ele>426.3333333333333</ele><time>2026-03-22T10:06:43.582Z</time></trkpt><trkpt lat="43.791715" lon="12.2104867"><ele>431.0</ele><time>2026-03-22T10:06:44.583Z</time></trkpt><trkpt lat="43.7917033" lon="12.2107517"><ele>431.0</ele><time>2026-03-22T10:06:45.583Z</time></trkpt><trkpt lat="43.7916967" lon="12.2110233"><ele>431.0</ele><time>2026-03-22T10:06:46.583Z</time></trkpt><trkpt lat="43.7916917" lon="12.211255"><ele>431.0</ele><time>2026-03-22T10:06:47.583Z</time></trkpt><trkpt lat="43.7916817" lon="12.2114483"><ele>432.25</ele><time>2026-03-22T10:06:48.583Z</time></trkpt><trkpt lat="43.7917067" lon="12.2116167"><ele>433.5</ele><time>2026-03-22T10:06:49.582Z</time></trkpt><trkpt lat="43.7917617" lon="12.2117667"><ele>434.75</ele><time>2026-03-22T10:06:50.583Z</time></trkpt><trkpt lat="43.7918633" lon="12.2118817"><ele>436.0</ele><time>2026-03-22T10:06:51.583Z</time></trkpt><trkpt lat="43.7920017" lon="12.21195"><ele>432.33333333333337</ele><time>2026-03-22T10:06:52.583Z</time></trkpt><trkpt lat="43.7921617" lon="12.2119783"><ele>428.66666666666663</ele><time>2026-03-22T10:06:53.583Z</time></trkpt><trkpt lat="43.7923517" lon="12.2119633"><ele>425.0</ele><time>2026-03-22T10:06:54.582Z</time></trkpt><trkpt lat="43.7925633" lon="12.211925"><ele>431.0</ele><time>2026-03-22T10:06:55.583Z</time></trkpt><trkpt lat="43.79278" lon="12.2118417"><ele>437.0</ele><time>2026-03-22T10:06:56.582Z</time></trkpt><trkpt lat="43.79301" lon="12.2117233"><ele>437.0</ele><time>2026-03-22T10:06:57.582Z</time></trkpt><trkpt lat="43.793255" lon="12.2115983"><ele>437.0</ele><time>2026-03-22T10:06:58.583Z</time></trkpt><trkpt lat="43.7934717" lon="12.2114683"><ele>434.0</ele><time>2026-03-22T10:06:59.582Z</time></trkpt><trkpt lat="43.793665" lon="12.2113517"><ele>431.0</ele><time>2026-03-22T10:07:00.583Z</time></trkpt><trkpt lat="43.7938433" lon="12.2112467"><ele>428.0</ele><time>2026-03-22T10:07:01.583Z</time></trkpt><trkpt lat="43.7940133" lon="12.2111417"><ele>428.0</ele><time>2026-03-22T10:07:02.583Z</time></trkpt><trkpt lat="43.7941833" lon="12.2110417"><ele>428.0</ele><time>2026-03-22T10:07:03.583Z</time></trkpt><trkpt lat="43.7943583" lon="12.21096"><ele>428.0</ele><time>2026-03-22T10:07:04.583Z</time></trkpt><trkpt lat="43.7945517" lon="12.210915"><ele>428.66666666666663</ele><time>2026-03-22T10:07:05.582Z</time></trkpt><trkpt lat="43.7947633" lon="12.2108983"><ele>429.33333333333337</ele><time>2026-03-22T10:07:06.582Z</time></trkpt><trkpt lat="43.7949767" lon="12.21091"><ele>430.0</ele><time>2026-03-22T10:07:07.583Z</time></trkpt><trkpt lat="43.7951967" lon="12.2109633"><ele>426.0</ele><time>2026-03-22T10:07:08.583Z</time></trkpt><trkpt lat="43.7954217" lon="12.2110567"><ele>422.0</ele><time>2026-03-22T10:07:09.583Z</time></trkpt><trkpt lat="43.7956417" lon="12.2111667"><ele>422.0</ele><time>2026-03-22T10:07:10.583Z</time></trkpt><trkpt lat="43.79585" lon="12.2113017"><ele>422.0</ele><time>2026-03-22T10:07:11.583Z</time></trkpt><trkpt lat="43.7960567" lon="12.21143"><ele>424.0</ele><time>2026-03-22T10:07:12.583Z</time></trkpt><trkpt lat="43.7962367" lon="12.211555"><ele>426.0</ele><time>2026-03-22T10:07:13.582Z</time></trkpt><trkpt lat="43.796425" lon="12.2116967"><ele>428.0</ele><time>2026-03-22T10:07:14.583Z</time></trkpt><trkpt lat="43.796605" lon="12.2118433"><ele>428.0</ele><time>2026-03-22T10:07:15.582Z</time></trkpt><trkpt lat="43.7967567" lon="12.212005"><ele>428.0</ele><time>2026-03-22T10:07:16.583Z</time></trkpt><trkpt lat="43.7968967" lon="12.212175"><ele>428.0</ele><time>2026-03-22T10:07:17.583Z</time></trkpt><trkpt lat="43.797035" lon="12.212355"><ele>429.0</ele><time>2026-03-22T10:07:18.582Z</time></trkpt><trkpt lat="43.797165" lon="12.2125567"><ele>430.0</ele><time>2026-03-22T10:07:19.583Z</time></trkpt><trkpt lat="43.79728" lon="12.212765"><ele>431.0</ele><time>2026-03-22T10:07:20.583Z</time></trkpt><trkpt lat="43.79737" lon="12.2129667"><ele>431.0</ele><time>2026-03-22T10:07:21.583Z</time></trkpt><trkpt lat="43.797475" lon="12.21314"><ele>431.0</ele><time>2026-03-22T10:07:22.582Z</time></trkpt><trkpt lat="43.7975967" lon="12.21329"><ele>431.0</ele><time>2026-03-22T10:07:23.582Z</time></trkpt><trkpt lat="43.7977283" lon="12.213395"><ele>428.3333333333333</ele><time>2026-03-22T10:07:24.582Z</time></trkpt><trkpt lat="43.7978567" lon="12.2134967"><ele>425.66666666666663</ele><time>2026-03-22T10:07:25.583Z</time></trkpt><trkpt lat="43.7979633" lon="12.2136233"><ele>423.0</ele><time>2026-03-22T10:07:26.582Z</time></trkpt><trkpt lat="43.798045" lon="12.2138167"><ele>427.33333333333337</ele><time>2026-03-22T10:07:27.583Z</time></trkpt><trkpt lat="43.7981117" lon="12.21405"><ele>431.6666666666667</ele><time>2026-03-22T10:07:28.582Z</time></trkpt><trkpt lat="43.7981783" lon="12.214305"><ele>436.0</ele><time>2026-03-22T10:07:29.582Z</time></trkpt><trkpt lat="43.7982617" lon="12.2145583"><ele>436.0</ele><time>2026-03-22T10:07:30.582Z</time></trkpt><trkpt lat="43.7983783" lon="12.2147967"><ele>436.0</ele><time>2026-03-22T10:07:31.582Z</time></trkpt><trkpt lat="43.7985033" lon="12.21501"><ele>436.0</ele><time>2026-03-22T10:07:32.583Z</time></trkpt><trkpt lat="43.798625" lon="12.2151833"><ele>435.0</ele><time>2026-03-22T10:07:33.582Z</time></trkpt><trkpt lat="43.79873" lon="12.2153317"><ele>434.0</ele><time>2026-03-22T10:07:34.583Z</time></trkpt><trkpt lat="43.79882" lon="12.2154583"><ele>433.0</ele><time>2026-03-22T10:07:35.583Z</time></trkpt><trkpt lat="43.7989667" lon="12.2156883"><ele>433.0</ele><time>2026-03-22T10:07:37.288Z</time></trkpt><trkpt lat="43.7989383" lon="12.21588"><ele>433.0</ele><time>2026-03-22T10:07:38.257Z</time></trkpt><trkpt lat="43.79892" lon="12.2159783"><ele>433.0</ele><time>2026-03-22T10:07:39.558Z</time></trkpt><trkpt lat="43.798925" lon="12.2161233"><ele>433.0</ele><time>2026-03-22T10:07:40.558Z</time></trkpt><trkpt lat="43.7989917" lon="12.2163267"><ele>433.33333333333337</ele><time>2026-03-22T10:07:42.057Z</time></trkpt><trkpt lat="43.79917" lon="12.2164883"><ele>433.66666666666663</ele><time>2026-03-22T10:07:43.558Z</time></trkpt><trkpt lat="43.7993383" lon="12.2165283"><ele>434.0</ele><time>2026-03-22T10:07:44.557Z</time></trkpt><trkpt lat="43.7995233" lon="12.2165617"><ele>434.0</ele><time>2026-03-22T10:07:45.558Z</time></trkpt><trkpt lat="43.7996983" lon="12.2166283"><ele>434.0</ele><time>2026-03-22T10:07:46.558Z</time></trkpt><trkpt lat="43.7998567" lon="12.2167267"><ele>434.0</ele><time>2026-03-22T10:07:47.557Z</time></trkpt><trkpt lat="43.80001" lon="12.2168583"><ele>434.0</ele><time>2026-03-22T10:07:48.558Z</time></trkpt><trkpt lat="43.800155" lon="12.217035"><ele>434.0</ele><time>2026-03-22T10:07:49.558Z</time></trkpt><trkpt lat="43.8002817" lon="12.2172183"><ele>434.0</ele><time>2026-03-22T10:07:50.558Z</time></trkpt><trkpt lat="43.8003933" lon="12.2173783"><ele>429.3333333333333</ele><time>2026-03-22T10:07:51.558Z</time></trkpt><trkpt lat="43.8005133" lon="12.2175183"><ele>424.66666666666663</ele><time>2026-03-22T10:07:52.558Z</time></trkpt><trkpt lat="43.8006367" lon="12.2176683"><ele>420.0</ele><time>2026-03-22T10:07:53.557Z</time></trkpt><trkpt lat="43.8007567" lon="12.2178267"><ele>420.0</ele><time>2026-03-22T10:07:54.558Z</time></trkpt><trkpt lat="43.80086" lon="12.2180083"><ele>420.0</ele><time>2026-03-22T10:07:55.558Z</time></trkpt><trkpt lat="43.8009333" lon="12.2181867"><ele>420.0</ele><time>2026-03-22T10:07:56.558Z</time></trkpt><trkpt lat="43.8009717" lon="12.218385"><ele>425.75</ele><time>2026-03-22T10:07:57.558Z</time></trkpt><trkpt lat="43.80098" lon="12.2185933"><ele>431.5</ele><time>2026-03-22T10:07:58.558Z</time></trkpt><trkpt lat="43.8009483" lon="12.2188083"><ele>437.25</ele><time>2026-03-22T10:07:59.558Z</time></trkpt><trkpt lat="43.8009167" lon="12.2189917"><ele>443.0</ele><time>2026-03-22T10:08:00.557Z</time></trkpt><trkpt lat="43.8009133" lon="12.21917"><ele>444.75</ele><time>2026-03-22T10:08:01.558Z</time></trkpt><trkpt lat="43.800945" lon="12.2193233"><ele>446.5</ele><time>2026-03-22T10:08:02.558Z</time></trkpt><trkpt lat="43.8010067" lon="12.219435"><ele>448.25</ele><time>2026-03-22T10:08:03.558Z</time></trkpt><trkpt lat="43.8011117" lon="12.219485"><ele>450.0</ele><time>2026-03-22T10:08:04.557Z</time></trkpt><trkpt lat="43.801245" lon="12.2195017"><ele>445.5</ele><time>2026-03-22T10:08:05.557Z</time></trkpt><trkpt lat="43.8013833" lon="12.2194967"><ele>441.0</ele><time>2026-03-22T10:08:06.558Z</time></trkpt><trkpt lat="43.80151" lon="12.219505"><ele>436.5</ele><time>2026-03-22T10:08:07.558Z</time></trkpt><trkpt lat="43.801625" lon="12.2195667"><ele>432.0</ele><time>2026-03-22T10:08:08.557Z</time></trkpt><trkpt lat="43.8017233" lon="12.219695"><ele>438.0</ele><time>2026-03-22T10:08:09.557Z</time></trkpt><trkpt lat="43.8018117" lon="12.2198817"><ele>444.0</ele><time>2026-03-22T10:08:10.557Z</time></trkpt><trkpt lat="43.801905" lon="12.2200917"><ele>450.0</ele><time>2026-03-22T10:08:11.558Z</time></trkpt><trkpt lat="43.8020183" lon="12.22031"><ele>442.66666666666663</ele><time>2026-03-22T10:08:12.558Z</time></trkpt><trkpt lat="43.8021133" lon="12.2205417"><ele>435.3333333333333</ele><time>2026-03-22T10:08:13.558Z</time></trkpt><trkpt lat="43.8021983" lon="12.2208"><ele>428.0</ele><time>2026-03-22T10:08:14.557Z</time></trkpt><trkpt lat="43.80228" lon="12.2210717"><ele>428.0</ele><time>2026-03-22T10:08:15.557Z</time></trkpt><trkpt lat="43.80235" lon="12.2213267"><ele>428.0</ele><time>2026-03-22T10:08:16.558Z</time></trkpt><trkpt lat="43.80241" lon="12.221555"><ele>428.0</ele><time>2026-03-22T10:08:17.557Z</time></trkpt><trkpt lat="43.80248" lon="12.22177"><ele>434.3333333333333</ele><time>2026-03-22T10:08:18.557Z</time></trkpt><trkpt lat="43.802565" lon="12.221965"><ele>440.66666666666663</ele><time>2026-03-22T10:08:19.558Z</time></trkpt><trkpt lat="43.8026733" lon="12.2221233"><ele>447.0</ele><time>2026-03-22T10:08:20.557Z</time></trkpt><trkpt lat="43.802795" lon="12.22226"><ele>440.0</ele><time>2026-03-22T10:08:21.558Z</time></trkpt><trkpt lat="43.802905" lon="12.2223983"><ele>433.0</ele><time>2026-03-22T10:08:22.558Z</time></trkpt><trkpt lat="43.80299" lon="12.22253"><ele>426.0</ele><time>2026-03-22T10:08:23.558Z</time></trkpt><trkpt lat="43.803055" lon="12.22267"><ele>419.0</ele><time>2026-03-22T10:08:24.557Z</time></trkpt><trkpt lat="43.80309" lon="12.2228333"><ele>419.0</ele><time>2026-03-22T10:08:25.558Z</time></trkpt><trkpt lat="43.8031" lon="12.2230133"><ele>419.0</ele><time>2026-03-22T10:08:26.558Z</time></trkpt><trkpt lat="43.80307" lon="12.2232133"><ele>419.0</ele><time>2026-03-22T10:08:27.558Z</time></trkpt><trkpt lat="43.80301" lon="12.2234317"><ele>419.0</ele><time>2026-03-22T10:08:28.558Z</time></trkpt><trkpt lat="43.8029333" lon="12.2236583"><ele>420.25</ele><time>2026-03-22T10:08:29.558Z</time></trkpt><trkpt lat="43.8028633" lon="12.2238533"><ele>421.5</ele><time>2026-03-22T10:08:30.558Z</time></trkpt><trkpt lat="43.802805" lon="12.2240233"><ele>422.75</ele><time>2026-03-22T10:08:31.558Z</time></trkpt><trkpt lat="43.802785" lon="12.2242"><ele>424.0</ele><time>2026-03-22T10:08:32.558Z</time></trkpt><trkpt lat="43.8028033" lon="12.2243883"><ele>424.6666666666667</ele><time>2026-03-22T10:08:33.557Z</time></trkpt><trkpt lat="43.8028533" lon="12.224595"><ele>425.33333333333337</ele><time>2026-03-22T10:08:34.557Z</time></trkpt><trkpt lat="43.8029283" lon="12.224825"><ele>426.0</ele><time>2026-03-22T10:08:35.558Z</time></trkpt><trkpt lat="43.803" lon="12.225035"><ele>429.75</ele><time>2026-03-22T10:08:36.557Z</time></trkpt><trkpt lat="43.8030683" lon="12.2251967"><ele>433.5</ele><time>2026-03-22T10:08:37.558Z</time></trkpt><trkpt lat="43.80315" lon="12.2253167"><ele>437.25</ele><time>2026-03-22T10:08:38.558Z</time></trkpt><trkpt lat="43.803245" lon="12.2253883"><ele>441.0</ele><time>2026-03-22T10:08:39.558Z</time></trkpt><trkpt lat="43.8033667" lon="12.2253867"><ele>442.0</ele><time>2026-03-22T10:08:40.558Z</time></trkpt><trkpt lat="43.8035083" lon="12.2253417"><ele>443.0</ele><time>2026-03-22T10:08:41.557Z</time></trkpt><trkpt lat="43.8036617" lon="12.2252817"><ele>444.0</ele><time>2026-03-22T10:08:42.558Z</time></trkpt><trkpt lat="43.8038317" lon="12.2252267"><ele>444.0</ele><time>2026-03-22T10:08:43.558Z</time></trkpt><trkpt lat="43.8040033" lon="12.2251767"><ele>444.0</ele><time>2026-03-22T10:08:44.558Z</time></trkpt><trkpt lat="43.80416" lon="12.2251183"><ele>444.0</ele><time>2026-03-22T10:08:45.557Z</time></trkpt><trkpt lat="43.80429" lon="12.2250417"><ele>440.25</ele><time>2026-03-22T10:08:46.558Z</time></trkpt><trkpt lat="43.8044033" lon="12.2249667"><ele>436.5</ele><time>2026-03-22T10:08:47.557Z</time></trkpt><trkpt lat="43.8045067" lon="12.2249283"><ele>432.75</ele><time>2026-03-22T10:08:48.559Z</time></trkpt><trkpt lat="43.8045867" lon="12.2249267"><ele>429.0</ele><time>2026-03-22T10:08:49.559Z</time></trkpt><trkpt lat="43.8047017" lon="12.22503"><ele>429.0</ele><time>2026-03-22T10:08:50.559Z</time></trkpt><trkpt lat="43.80483" lon="12.2251783"><ele>429.0</ele><time>2026-03-22T10:08:51.558Z</time></trkpt><trkpt lat="43.8049733" lon="12.225335"><ele>429.0</ele><time>2026-03-22T10:08:52.559Z</time></trkpt><trkpt lat="43.80513" lon="12.22548"><ele>427.75</ele><time>2026-03-22T10:08:53.558Z</time></trkpt><trkpt lat="43.8052583" lon="12.22559"><ele>426.5</ele><time>2026-03-22T10:08:54.558Z</time></trkpt><trkpt lat="43.80536" lon="12.2256583"><ele>425.25</ele><time>2026-03-22T10:08:55.559Z</time></trkpt><trkpt lat="43.805435" lon="12.22575"><ele>424.0</ele><time>2026-03-22T10:08:56.558Z</time></trkpt><trkpt lat="43.8054783" lon="12.2258817"><ele>424.0</ele><time>2026-03-22T10:08:57.558Z</time></trkpt><trkpt lat="43.805485" lon="12.2260567"><ele>424.0</ele><time>2026-03-22T10:08:58.559Z</time></trkpt><trkpt lat="43.805455" lon="12.22625"><ele>424.0</ele><time>2026-03-22T10:08:59.559Z</time></trkpt><trkpt lat="43.8053983" lon="12.2264717"><ele>424.0</ele><time>2026-03-22T10:09:00.559Z</time></trkpt><trkpt lat="43.8053467" lon="12.2266717"><ele>425.79999999999995</ele><time>2026-03-22T10:09:01.559Z</time></trkpt><trkpt lat="43.80531" lon="12.2268283"><ele>427.59999999999997</ele><time>2026-03-22T10:09:02.558Z</time></trkpt><trkpt lat="43.8052933" lon="12.2269617"><ele>429.4</ele><time>2026-03-22T10:09:03.558Z</time></trkpt><trkpt lat="43.805305" lon="12.2270917"><ele>431.2</ele><time>2026-03-22T10:09:04.558Z</time></trkpt><trkpt lat="43.8053533" lon="12.2271867"><ele>433.0</ele><time>2026-03-22T10:09:05.558Z</time></trkpt><trkpt lat="43.805455" lon="12.227245"><ele>433.0</ele><time>2026-03-22T10:09:06.558Z</time></trkpt><trkpt lat="43.8055967" lon="12.227255"><ele>433.0</ele><time>2026-03-22T10:09:07.559Z</time></trkpt><trkpt lat="43.8057667" lon="12.2272083"><ele>433.0</ele><time>2026-03-22T10:09:08.559Z</time></trkpt><trkpt lat="43.8059617" lon="12.22715"><ele>431.6666666666667</ele><time>2026-03-22T10:09:09.558Z</time></trkpt><trkpt lat="43.80617" lon="12.2270833"><ele>430.33333333333337</ele><time>2026-03-22T10:09:10.558Z</time></trkpt><trkpt lat="43.8063717" lon="12.2269933"><ele>429.0</ele><time>2026-03-22T10:09:11.558Z</time></trkpt><trkpt lat="43.8065517" lon="12.226885"><ele>429.0</ele><time>2026-03-22T10:09:12.558Z</time></trkpt><trkpt lat="43.8067117" lon="12.226785"><ele>429.0</ele><time>2026-03-22T10:09:13.559Z</time></trkpt><trkpt lat="43.8068583" lon="12.2267"><ele>429.0</ele><time>2026-03-22T10:09:14.559Z</time></trkpt><trkpt lat="43.8070083" lon="12.226645"><ele>428.66666666666663</ele><time>2026-03-22T10:09:15.558Z</time></trkpt><trkpt lat="43.8071617" lon="12.2266317"><ele>428.3333333333333</ele><time>2026-03-22T10:09:16.558Z</time></trkpt><trkpt lat="43.807325" lon="12.2266833"><ele>428.0</ele><time>2026-03-22T10:09:17.559Z</time></trkpt><trkpt lat="43.8074933" lon="12.2267667"><ele>422.0</ele><time>2026-03-22T10:09:18.558Z</time></trkpt><trkpt lat="43.8076633" lon="12.2268617"><ele>416.0</ele><time>2026-03-22T10:09:19.559Z</time></trkpt><trkpt lat="43.8078167" lon="12.22695"><ele>410.0</ele><time>2026-03-22T10:09:20.559Z</time></trkpt><trkpt lat="43.8079783" lon="12.227045"><ele>410.0</ele><time>2026-03-22T10:09:21.559Z</time></trkpt><trkpt lat="43.80813" lon="12.2271617"><ele>410.0</ele><time>2026-03-22T10:09:22.558Z</time></trkpt><trkpt lat="43.8082733" lon="12.2273067"><ele>410.0</ele><time>2026-03-22T10:09:23.559Z</time></trkpt><trkpt lat="43.808425" lon="12.2274883"><ele>404.0</ele><time>2026-03-22T10:09:24.558Z</time></trkpt><trkpt lat="43.808585" lon="12.22771"><ele>398.0</ele><time>2026-03-22T10:09:25.559Z</time></trkpt><trkpt lat="43.80874" lon="12.22795"><ele>404.66666666666663</ele><time>2026-03-22T10:09:26.559Z</time></trkpt><trkpt lat="43.8089" lon="12.2281883"><ele>411.33333333333337</ele><time>2026-03-22T10:09:27.558Z</time></trkpt><trkpt lat="43.8090467" lon="12.228405"><ele>418.0</ele><time>2026-03-22T10:09:28.559Z</time></trkpt><trkpt lat="43.8091817" lon="12.2285967"><ele>418.0</ele><time>2026-03-22T10:09:29.559Z</time></trkpt><trkpt lat="43.8092967" lon="12.22878"><ele>418.0</ele><time>2026-03-22T10:09:30.559Z</time></trkpt><trkpt lat="43.809405" lon="12.2289417"><ele>418.0</ele><time>2026-03-22T10:09:31.558Z</time></trkpt><trkpt lat="43.8094867" lon="12.2290967"><ele>409.6666666666667</ele><time>2026-03-22T10:09:32.559Z</time></trkpt><trkpt lat="43.8095383" lon="12.2292817"><ele>401.33333333333337</ele><time>2026-03-22T10:09:33.559Z</time></trkpt><trkpt lat="43.8095567" lon="12.229505"><ele>393.0</ele><time>2026-03-22T10:09:34.559Z</time></trkpt><trkpt lat="43.8095567" lon="12.2297467"><ele>392.33333333333337</ele><time>2026-03-22T10:09:35.559Z</time></trkpt><trkpt lat="43.8095183" lon="12.229985"><ele>391.6666666666667</ele><time>2026-03-22T10:09:36.559Z</time></trkpt><trkpt lat="43.8094433" lon="12.2302267"><ele>391.0</ele><time>2026-03-22T10:09:37.559Z</time></trkpt><trkpt lat="43.809355" lon="12.2304817"><ele>412.0</ele><time>2026-03-22T10:09:38.559Z</time></trkpt><trkpt lat="43.80926" lon="12.2307717"><ele>433.0</ele><time>2026-03-22T10:09:39.559Z</time></trkpt><trkpt lat="43.8092033" lon="12.2310933"><ele>433.0</ele><time>2026-03-22T10:09:40.559Z</time></trkpt><trkpt lat="43.8091667" lon="12.2314283"><ele>433.0</ele><time>2026-03-22T10:09:41.559Z</time></trkpt><trkpt lat="43.8091283" lon="12.231735"><ele>429.0</ele><time>2026-03-22T10:09:42.558Z</time></trkpt><trkpt lat="43.8090917" lon="12.2320133"><ele>425.0</ele><time>2026-03-22T10:09:43.559Z</time></trkpt><trkpt lat="43.8090467" lon="12.2322633"><ele>421.0</ele><time>2026-03-22T10:09:44.558Z</time></trkpt><trkpt lat="43.809015" lon="12.232495"><ele>420.33333333333337</ele><time>2026-03-22T10:09:45.559Z</time></trkpt><trkpt lat="43.8089917" lon="12.2327183"><ele>419.66666666666663</ele><time>2026-03-22T10:09:46.558Z</time></trkpt><trkpt lat="43.8090183" lon="12.2329383"><ele>419.0</ele><time>2026-03-22T10:09:47.558Z</time></trkpt><trkpt lat="43.8090767" lon="12.23315"><ele>419.0</ele><time>2026-03-22T10:09:48.558Z</time></trkpt><trkpt lat="43.809175" lon="12.2333483"><ele>419.0</ele><time>2026-03-22T10:09:49.559Z</time></trkpt><trkpt lat="43.8092817" lon="12.23352"><ele>419.0</ele><time>2026-03-22T10:09:50.558Z</time></trkpt><trkpt lat="43.8093883" lon="12.23368"><ele>411.3333333333333</ele><time>2026-03-22T10:09:51.559Z</time></trkpt><trkpt lat="43.8094667" lon="12.23385"><ele>403.66666666666663</ele><time>2026-03-22T10:09:52.559Z</time></trkpt><trkpt lat="43.8095167" lon="12.2340483"><ele>396.0</ele><time>2026-03-22T10:09:53.558Z</time></trkpt><trkpt lat="43.8095383" lon="12.2342783"><ele>396.0</ele><time>2026-03-22T10:09:54.558Z</time></trkpt><trkpt lat="43.8095367" lon="12.2345383"><ele>396.0</ele><time>2026-03-22T10:09:55.559Z</time></trkpt><trkpt lat="43.8095333" lon="12.2348167"><ele>396.0</ele><time>2026-03-22T10:09:56.559Z</time></trkpt><trkpt lat="43.809535" lon="12.235105"><ele>396.0</ele><time>2026-03-22T10:09:57.559Z</time></trkpt><trkpt lat="43.8095367" lon="12.2353783"><ele>396.0</ele><time>2026-03-22T10:09:58.559Z</time></trkpt><trkpt lat="43.80954" lon="12.2356317"><ele>396.0</ele><time>2026-03-22T10:09:59.558Z</time></trkpt><trkpt lat="43.8095433" lon="12.2358617"><ele>396.0</ele><time>2026-03-22T10:10:00.559Z</time></trkpt><trkpt lat="43.809595" lon="12.23608"><ele>396.0</ele><time>2026-03-22T10:10:01.559Z</time></trkpt><trkpt lat="43.8096867" lon="12.2362833"><ele>396.0</ele><time>2026-03-22T10:10:02.558Z</time></trkpt><trkpt lat="43.80981" lon="12.2364567"><ele>399.0</ele><time>2026-03-22T10:10:03.558Z</time></trkpt><trkpt lat="43.8099583" lon="12.236585"><ele>402.0</ele><time>2026-03-22T10:10:04.559Z</time></trkpt><trkpt lat="43.8101033" lon="12.2366867"><ele>405.0</ele><time>2026-03-22T10:10:05.558Z</time></trkpt><trkpt lat="43.8102333" lon="12.2367817"><ele>401.75</ele><time>2026-03-22T10:10:06.559Z</time></trkpt><trkpt lat="43.8103367" lon="12.2369"><ele>398.5</ele><time>2026-03-22T10:10:07.559Z</time></trkpt><trkpt lat="43.8104183" lon="12.2370533"><ele>395.25</ele><time>2026-03-22T10:10:08.559Z</time></trkpt><trkpt lat="43.810465" lon="12.237225"><ele>392.0</ele><time>2026-03-22T10:10:09.558Z</time></trkpt><trkpt lat="43.810465" lon="12.2374067"><ele>392.0</ele><time>2026-03-22T10:10:10.559Z</time></trkpt><trkpt lat="43.8104117" lon="12.2375817"><ele>392.0</ele><time>2026-03-22T10:10:11.559Z</time></trkpt><trkpt lat="43.8103133" lon="12.2377317"><ele>392.0</ele><time>2026-03-22T10:10:12.558Z</time></trkpt><trkpt lat="43.8101583" lon="12.23788"><ele>394.0</ele><time>2026-03-22T10:10:13.559Z</time></trkpt><trkpt lat="43.8099733" lon="12.2380283"><ele>396.0</ele><time>2026-03-22T10:10:14.559Z</time></trkpt><trkpt lat="43.80978" lon="12.2381767"><ele>398.0</ele><time>2026-03-22T10:10:15.559Z</time></trkpt><trkpt lat="43.809595" lon="12.23833"><ele>398.0</ele><time>2026-03-22T10:10:16.559Z</time></trkpt><trkpt lat="43.80943" lon="12.2384867"><ele>398.0</ele><time>2026-03-22T10:10:17.559Z</time></trkpt><trkpt lat="43.809275" lon="12.2386733"><ele>398.0</ele><time>2026-03-22T10:10:18.559Z</time></trkpt><trkpt lat="43.80914" lon="12.23888"><ele>398.3333333333333</ele><time>2026-03-22T10:10:19.558Z</time></trkpt><trkpt lat="43.8090417" lon="12.239115"><ele>398.66666666666663</ele><time>2026-03-22T10:10:20.558Z</time></trkpt><trkpt lat="43.8089733" lon="12.2393633"><ele>399.0</ele><time>2026-03-22T10:10:21.558Z</time></trkpt><trkpt lat="43.80893" lon="12.2396267"><ele>397.33333333333337</ele><time>2026-03-22T10:10:22.559Z</time></trkpt><trkpt lat="43.808915" lon="12.2398967"><ele>395.6666666666667</ele><time>2026-03-22T10:10:23.558Z</time></trkpt><trkpt lat="43.8089267" lon="12.24017"><ele>394.0</ele><time>2026-03-22T10:10:24.559Z</time></trkpt><trkpt lat="43.8089633" lon="12.24044"><ele>395.0</ele><time>2026-03-22T10:10:25.559Z</time></trkpt><trkpt lat="43.8090283" lon="12.2406817"><ele>396.0</ele><time>2026-03-22T10:10:26.558Z</time></trkpt><trkpt lat="43.8091283" lon="12.2409083"><ele>397.0</ele><time>2026-03-22T10:10:27.559Z</time></trkpt><trkpt lat="43.8092767" lon="12.2410933"><ele>392.0</ele><time>2026-03-22T10:10:28.558Z</time></trkpt><trkpt lat="43.8094483" lon="12.2412617"><ele>387.0</ele><time>2026-03-22T10:10:29.558Z</time></trkpt><trkpt lat="43.809665" lon="12.241405"><ele>387.0</ele><time>2026-03-22T10:10:30.558Z</time></trkpt><trkpt lat="43.8099133" lon="12.2415267"><ele>387.0</ele><time>2026-03-22T10:10:31.559Z</time></trkpt><trkpt lat="43.810185" lon="12.2416417"><ele>387.0</ele><time>2026-03-22T10:10:32.558Z</time></trkpt><trkpt lat="43.8104633" lon="12.2417683"><ele>387.0</ele><time>2026-03-22T10:10:33.559Z</time></trkpt><trkpt lat="43.8107367" lon="12.2418933"><ele>386.5</ele><time>2026-03-22T10:10:34.558Z</time></trkpt><trkpt lat="43.8109933" lon="12.24201"><ele>386.0</ele><time>2026-03-22T10:10:35.559Z</time></trkpt><trkpt lat="43.81124" lon="12.2421183"><ele>386.0</ele><time>2026-03-22T10:10:36.559Z</time></trkpt><trkpt lat="43.8114683" lon="12.242215"><ele>386.0</ele><time>2026-03-22T10:10:37.559Z</time></trkpt><trkpt lat="43.811675" lon="12.2423067"><ele>388.3333333333333</ele><time>2026-03-22T10:10:38.559Z</time></trkpt><trkpt lat="43.8118583" lon="12.2423783"><ele>390.66666666666663</ele><time>2026-03-22T10:10:39.559Z</time></trkpt><trkpt lat="43.81204" lon="12.24242"><ele>393.0</ele><time>2026-03-22T10:10:40.559Z</time></trkpt><trkpt lat="43.81223" lon="12.2424217"><ele>393.0</ele><time>2026-03-22T10:10:41.559Z</time></trkpt><trkpt lat="43.8124" lon="12.2423633"><ele>393.0</ele><time>2026-03-22T10:10:42.558Z</time></trkpt><trkpt lat="43.8125583" lon="12.24227"><ele>393.0</ele><time>2026-03-22T10:10:43.559Z</time></trkpt><trkpt lat="43.8126983" lon="12.2421583"><ele>390.66666666666663</ele><time>2026-03-22T10:10:44.559Z</time></trkpt><trkpt lat="43.81284" lon="12.2420283"><ele>388.3333333333333</ele><time>2026-03-22T10:10:45.559Z</time></trkpt><trkpt lat="43.812995" lon="12.241925"><ele>386.0</ele><time>2026-03-22T10:10:46.559Z</time></trkpt><trkpt lat="43.8131683" lon="12.2418517"><ele>386.0</ele><time>2026-03-22T10:10:47.559Z</time></trkpt><trkpt lat="43.8133567" lon="12.2418367"><ele>386.0</ele><time>2026-03-22T10:10:48.559Z</time></trkpt><trkpt lat="43.81355" lon="12.2418433"><ele>386.0</ele><time>2026-03-22T10:10:49.559Z</time></trkpt><trkpt lat="43.8137517" lon="12.2419083"><ele>383.0</ele><time>2026-03-22T10:10:50.559Z</time></trkpt><trkpt lat="43.8139667" lon="12.2420367"><ele>380.0</ele><time>2026-03-22T10:10:51.558Z</time></trkpt><trkpt lat="43.8141967" lon="12.24219"><ele>381.0</ele><time>2026-03-22T10:10:52.558Z</time></trkpt><trkpt lat="43.814455" lon="12.242355"><ele>382.0</ele><time>2026-03-22T10:10:53.559Z</time></trkpt><trkpt lat="43.81472" lon="12.2425167"><ele>382.0</ele><time>2026-03-22T10:10:54.558Z</time></trkpt><trkpt lat="43.81499" lon="12.2426833"><ele>382.0</ele><time>2026-03-22T10:10:55.559Z</time></trkpt><trkpt lat="43.8152567" lon="12.242855"><ele>383.0</ele><time>2026-03-22T10:10:56.559Z</time></trkpt><trkpt lat="43.8155183" lon="12.2430167"><ele>384.0</ele><time>2026-03-22T10:10:57.558Z</time></trkpt><trkpt lat="43.81577" lon="12.243175"><ele>380.0</ele><time>2026-03-22T10:10:58.559Z</time></trkpt><trkpt lat="43.8160083" lon="12.2433367"><ele>376.0</ele><time>2026-03-22T10:10:59.558Z</time></trkpt><trkpt lat="43.8162333" lon="12.2434767"><ele>376.0</ele><time>2026-03-22T10:11:00.558Z</time></trkpt><trkpt lat="43.8164517" lon="12.2436117"><ele>376.0</ele><time>2026-03-22T10:11:01.559Z</time></trkpt><trkpt lat="43.8166567" lon="12.2437433"><ele>375.0</ele><time>2026-03-22T10:11:02.558Z</time></trkpt><trkpt lat="43.8168583" lon="12.2438767"><ele>374.0</ele><time>2026-03-22T10:11:03.559Z</time></trkpt><trkpt lat="43.8170533" lon="12.2439967"><ele>373.0</ele><time>2026-03-22T10:11:04.558Z</time></trkpt><trkpt lat="43.8172417" lon="12.2441133"><ele>373.0</ele><time>2026-03-22T10:11:05.559Z</time></trkpt><trkpt lat="43.81742" lon="12.2442333"><ele>373.0</ele><time>2026-03-22T10:11:06.559Z</time></trkpt><trkpt lat="43.81759" lon="12.2443383"><ele>373.0</ele><time>2026-03-22T10:11:07.559Z</time></trkpt><trkpt lat="43.81775" lon="12.2444433"><ele>370.66666666666663</ele><time>2026-03-22T10:11:08.558Z</time></trkpt><trkpt lat="43.81791" lon="12.2445417"><ele>368.3333333333333</ele><time>2026-03-22T10:11:09.559Z</time></trkpt><trkpt lat="43.8180517" lon="12.2446433"><ele>366.0</ele><time>2026-03-22T10:11:10.559Z</time></trkpt><trkpt lat="43.8181833" lon="12.2447567"><ele>365.3333333333333</ele><time>2026-03-22T10:11:11.558Z</time></trkpt><trkpt lat="43.818315" lon="12.2448867"><ele>364.66666666666663</ele><time>2026-03-22T10:11:12.559Z</time></trkpt><trkpt lat="43.8184417" lon="12.2450283"><ele>364.0</ele><time>2026-03-22T10:11:13.559Z</time></trkpt><trkpt lat="43.8185583" lon="12.2451783"><ele>364.0</ele><time>2026-03-22T10:11:14.558Z</time></trkpt><trkpt lat="43.8186617" lon="12.2453483"><ele>364.0</ele><time>2026-03-22T10:11:15.559Z</time></trkpt><trkpt lat="43.8187667" lon="12.2455133"><ele>364.0</ele><time>2026-03-22T10:11:16.559Z</time></trkpt><trkpt lat="43.8188583" lon="12.24569"><ele>365.0</ele><time>2026-03-22T10:11:17.559Z</time></trkpt><trkpt lat="43.81895" lon="12.2458617"><ele>366.0</ele><time>2026-03-22T10:11:18.559Z</time></trkpt><trkpt lat="43.8190317" lon="12.246025"><ele>367.0</ele><time>2026-03-22T10:11:19.558Z</time></trkpt><trkpt lat="43.8191117" lon="12.24619"><ele>368.0</ele><time>2026-03-22T10:11:20.559Z</time></trkpt><trkpt lat="43.8191967" lon="12.246345"><ele>367.5</ele><time>2026-03-22T10:11:21.559Z</time></trkpt><trkpt lat="43.81928" lon="12.2464933"><ele>367.0</ele><time>2026-03-22T10:11:22.558Z</time></trkpt><trkpt lat="43.8193533" lon="12.2466333"><ele>366.5</ele><time>2026-03-22T10:11:23.558Z</time></trkpt><trkpt lat="43.8194183" lon="12.2467767"><ele>366.0</ele><time>2026-03-22T10:11:24.559Z</time></trkpt><trkpt lat="43.8194817" lon="12.2469233"><ele>365.75</ele><time>2026-03-22T10:11:25.559Z</time></trkpt><trkpt lat="43.8195483" lon="12.2470583"><ele>365.5</ele><time>2026-03-22T10:11:26.559Z</time></trkpt><trkpt lat="43.8196167" lon="12.24719"><ele>365.25</ele><time>2026-03-22T10:11:27.559Z</time></trkpt><trkpt lat="43.81968" lon="12.2473133"><ele>365.0</ele><time>2026-03-22T10:11:28.559Z</time></trkpt><trkpt lat="43.8197433" lon="12.24743"><ele>365.0</ele><time>2026-03-22T10:11:29.558Z</time></trkpt><trkpt lat="43.819805" lon="12.2475433"><ele>365.0</ele><time>2026-03-22T10:11:30.558Z</time></trkpt><trkpt lat="43.8198667" lon="12.2476617"><ele>365.0</ele><time>2026-03-22T10:11:31.559Z</time></trkpt><trkpt lat="43.8199283" lon="12.24778"><ele>365.0</ele><time>2026-03-22T10:11:32.559Z</time></trkpt><trkpt lat="43.81999" lon="12.2478917"><ele>365.0</ele><time>2026-03-22T10:11:33.559Z</time></trkpt><trkpt lat="43.8200483" lon="12.24799"><ele>365.0</ele><time>2026-03-22T10:11:34.559Z</time></trkpt><trkpt lat="43.820105" lon="12.2480667"><ele>365.0</ele><time>2026-03-22T10:11:35.558Z</time></trkpt><trkpt lat="43.8201767" lon="12.2480933"><ele>365.0</ele><time>2026-03-22T10:11:36.559Z</time></trkpt><trkpt lat="43.8202683" lon="12.24809"><ele>365.0</ele><time>2026-03-22T10:11:37.558Z</time></trkpt><trkpt lat="43.8203817" lon="12.248055"><ele>365.0</ele><time>2026-03-22T10:11:38.559Z</time></trkpt><trkpt lat="43.8204983" lon="12.2479983"><ele>364.6666666666667</ele><time>2026-03-22T10:11:39.559Z</time></trkpt><trkpt lat="43.8206417" lon="12.2479333"><ele>364.3333333333333</ele><time>2026-03-22T10:11:40.558Z</time></trkpt><trkpt lat="43.820785" lon="12.2478567"><ele>364.0</ele><time>2026-03-22T10:11:41.559Z</time></trkpt><trkpt lat="43.820925" lon="12.2477883"><ele>364.75</ele><time>2026-03-22T10:11:42.559Z</time></trkpt><trkpt lat="43.821045" lon="12.24769"><ele>365.5</ele><time>2026-03-22T10:11:43.559Z</time></trkpt><trkpt lat="43.82118" lon="12.2476267"><ele>366.25</ele><time>2026-03-22T10:11:44.559Z</time></trkpt><trkpt lat="43.82131" lon="12.247565"><ele>367.0</ele><time>2026-03-22T10:11:45.559Z</time></trkpt><trkpt lat="43.8214267" lon="12.247495"><ele>367.0</ele><time>2026-03-22T10:11:46.559Z</time></trkpt><trkpt lat="43.8215467" lon="12.2474433"><ele>367.0</ele><time>2026-03-22T10:11:47.558Z</time></trkpt><trkpt lat="43.8216617" lon="12.2474083"><ele>367.0</ele><time>2026-03-22T10:11:48.559Z</time></trkpt><trkpt lat="43.821785" lon="12.2473833"><ele>367.0</ele><time>2026-03-22T10:11:49.559Z</time></trkpt><trkpt lat="43.8219183" lon="12.2473683"><ele>365.75</ele><time>2026-03-22T10:11:50.559Z</time></trkpt><trkpt lat="43.8220617" lon="12.247385"><ele>364.5</ele><time>2026-03-22T10:11:51.559Z</time></trkpt><trkpt lat="43.8222" lon="12.2474067"><ele>363.25</ele><time>2026-03-22T10:11:52.558Z</time></trkpt><trkpt lat="43.8223433" lon="12.2474367"><ele>362.0</ele><time>2026-03-22T10:11:53.558Z</time></trkpt><trkpt lat="43.8224783" lon="12.247475"><ele>362.0</ele><time>2026-03-22T10:11:54.559Z</time></trkpt><trkpt lat="43.8226233" lon="12.24751"><ele>362.0</ele><time>2026-03-22T10:11:55.559Z</time></trkpt><trkpt lat="43.8227517" lon="12.2475417"><ele>362.0</ele><time>2026-03-22T10:11:56.558Z</time></trkpt><trkpt lat="43.8228833" lon="12.2475733"><ele>362.0</ele><time>2026-03-22T10:11:57.559Z</time></trkpt><trkpt lat="43.8230083" lon="12.2475917"><ele>360.25</ele><time>2026-03-22T10:11:58.559Z</time></trkpt><trkpt lat="43.8231317" lon="12.2476167"><ele>358.5</ele><time>2026-03-22T10:11:59.559Z</time></trkpt><trkpt lat="43.8232567" lon="12.2476483"><ele>356.75</ele><time>2026-03-22T10:12:00.559Z</time></trkpt><trkpt lat="43.8233733" lon="12.247675"><ele>355.0</ele><time>2026-03-22T10:12:01.558Z</time></trkpt><trkpt lat="43.823495" lon="12.2477067"><ele>354.0</ele><time>2026-03-22T10:12:02.559Z</time></trkpt><trkpt lat="43.8236117" lon="12.2477433"><ele>353.0</ele><time>2026-03-22T10:12:03.559Z</time></trkpt><trkpt lat="43.823735" lon="12.2477967"><ele>352.0</ele><time>2026-03-22T10:12:04.559Z</time></trkpt><trkpt lat="43.823855" lon="12.2478867"><ele>351.0</ele><time>2026-03-22T10:12:05.559Z</time></trkpt><trkpt lat="43.82397" lon="12.24798"><ele>351.0</ele><time>2026-03-22T10:12:06.559Z</time></trkpt><trkpt lat="43.82409" lon="12.2480767"><ele>351.0</ele><time>2026-03-22T10:12:07.559Z</time></trkpt><trkpt lat="43.82419" lon="12.2481967"><ele>351.0</ele><time>2026-03-22T10:12:08.559Z</time></trkpt><trkpt lat="43.8242917" lon="12.2483317"><ele>351.0</ele><time>2026-03-22T10:12:09.559Z</time></trkpt><trkpt lat="43.8243883" lon="12.24848"><ele>348.75</ele><time>2026-03-22T10:12:10.559Z</time></trkpt><trkpt lat="43.824485" lon="12.24863"><ele>346.5</ele><time>2026-03-22T10:12:11.558Z</time></trkpt><trkpt lat="43.8245783" lon="12.2487867"><ele>344.25</ele><time>2026-03-22T10:12:12.56Z</time></trkpt><trkpt lat="43.82467" lon="12.2489567"><ele>342.0</ele><time>2026-03-22T10:12:13.559Z</time></trkpt><trkpt lat="43.82476" lon="12.24913"><ele>342.0</ele><time>2026-03-22T10:12:14.56Z</time></trkpt><trkpt lat="43.8248467" lon="12.2493117"><ele>342.0</ele><time>2026-03-22T10:12:15.56Z</time></trkpt><trkpt lat="43.8249517" lon="12.2495067"><ele>342.0</ele><time>2026-03-22T10:12:16.56Z</time></trkpt><trkpt lat="43.8250683" lon="12.24973"><ele>339.0</ele><time>2026-03-22T10:12:17.56Z</time></trkpt><trkpt lat="43.8251967" lon="12.2499717"><ele>336.0</ele><time>2026-03-22T10:12:18.559Z</time></trkpt><trkpt lat="43.825335" lon="12.25022"><ele>333.0</ele><time>2026-03-22T10:12:19.56Z</time></trkpt><trkpt lat="43.8254683" lon="12.2504817"><ele>333.5</ele><time>2026-03-22T10:12:20.56Z</time></trkpt><trkpt lat="43.8256133" lon="12.2507583"><ele>334.0</ele><time>2026-03-22T10:12:21.56Z</time></trkpt><trkpt lat="43.82576" lon="12.2510433"><ele>334.0</ele><time>2026-03-22T10:12:22.56Z</time></trkpt><trkpt lat="43.82592" lon="12.2513383"><ele>334.0</ele><time>2026-03-22T10:12:23.559Z</time></trkpt><trkpt lat="43.8260767" lon="12.2516433"><ele>333.0</ele><time>2026-03-22T10:12:24.56Z</time></trkpt><trkpt lat="43.8262467" lon="12.2519667"><ele>332.0</ele><time>2026-03-22T10:12:25.56Z</time></trkpt><trkpt lat="43.8264167" lon="12.2523"><ele>332.0</ele><time>2026-03-22T10:12:26.56Z</time></trkpt><trkpt lat="43.8265933" lon="12.2526317"><ele>332.0</ele><time>2026-03-22T10:12:27.559Z</time></trkpt><trkpt lat="43.8267717" lon="12.2529667"><ele>329.5</ele><time>2026-03-22T10:12:28.559Z</time></trkpt><trkpt lat="43.8269533" lon="12.2533083"><ele>327.0</ele><time>2026-03-22T10:12:29.56Z</time></trkpt><trkpt lat="43.8271383" lon="12.2536517"><ele>328.5</ele><time>2026-03-22T10:12:30.56Z</time></trkpt><trkpt lat="43.827325" lon="12.2540017"><ele>330.0</ele><time>2026-03-22T10:12:31.56Z</time></trkpt><trkpt lat="43.82751" lon="12.2543567"><ele>329.5</ele><time>2026-03-22T10:12:32.559Z</time></trkpt><trkpt lat="43.827695" lon="12.254715"><ele>329.0</ele><time>2026-03-22T10:12:33.56Z</time></trkpt><trkpt lat="43.82788" lon="12.2550783"><ele>329.0</ele><time>2026-03-22T10:12:34.56Z</time></trkpt><trkpt lat="43.8280567" lon="12.25543"><ele>329.0</ele><time>2026-03-22T10:12:35.56Z</time></trkpt><trkpt lat="43.8282217" lon="12.2557567"><ele>328.0</ele><time>2026-03-22T10:12:36.56Z</time></trkpt><trkpt lat="43.8283783" lon="12.2560667"><ele>327.0</ele><time>2026-03-22T10:12:37.56Z</time></trkpt><trkpt lat="43.8285333" lon="12.256355"><ele>331.0</ele><time>2026-03-22T10:12:38.56Z</time></trkpt><trkpt lat="43.8286683" lon="12.256625"><ele>335.0</ele><time>2026-03-22T10:12:39.56Z</time></trkpt><trkpt lat="43.82881" lon="12.2568867"><ele>335.0</ele><time>2026-03-22T10:12:40.56Z</time></trkpt><trkpt lat="43.8289467" lon="12.2571433"><ele>335.0</ele><time>2026-03-22T10:12:41.56Z</time></trkpt><trkpt lat="43.8290733" lon="12.257395"><ele>335.6666666666667</ele><time>2026-03-22T10:12:42.56Z</time></trkpt><trkpt lat="43.8291967" lon="12.25764"><ele>336.3333333333333</ele><time>2026-03-22T10:12:43.56Z</time></trkpt><trkpt lat="43.829315" lon="12.2578867"><ele>337.0</ele><time>2026-03-22T10:12:44.56Z</time></trkpt><trkpt lat="43.8294217" lon="12.2581267"><ele>337.0</ele><time>2026-03-22T10:12:45.559Z</time></trkpt><trkpt lat="43.8295183" lon="12.258385"><ele>337.0</ele><time>2026-03-22T10:12:46.559Z</time></trkpt><trkpt lat="43.8296167" lon="12.25865"><ele>337.0</ele><time>2026-03-22T10:12:47.559Z</time></trkpt><trkpt lat="43.8297" lon="12.2589333"><ele>337.0</ele><time>2026-03-22T10:12:48.56Z</time></trkpt><trkpt lat="43.829785" lon="12.2592233"><ele>337.0</ele><time>2026-03-22T10:12:49.56Z</time></trkpt><trkpt lat="43.8298467" lon="12.25952"><ele>337.0</ele><time>2026-03-22T10:12:50.559Z</time></trkpt><trkpt lat="43.8298983" lon="12.2598283"><ele>338.5</ele><time>2026-03-22T10:12:51.559Z</time></trkpt><trkpt lat="43.82994" lon="12.2601433"><ele>340.0</ele><time>2026-03-22T10:12:52.559Z</time></trkpt><trkpt lat="43.8299667" lon="12.2604533"><ele>341.66666666666663</ele><time>2026-03-22T10:12:53.56Z</time></trkpt><trkpt lat="43.8299883" lon="12.26075"><ele>343.3333333333333</ele><time>2026-03-22T10:12:54.56Z</time></trkpt><trkpt lat="43.830005" lon="12.2610217"><ele>345.0</ele><time>2026-03-22T10:12:55.56Z</time></trkpt><trkpt lat="43.8300267" lon="12.2612833"><ele>344.3333333333333</ele><time>2026-03-22T10:12:56.56Z</time></trkpt><trkpt lat="43.8300633" lon="12.261535"><ele>343.66666666666663</ele><time>2026-03-22T10:12:57.56Z</time></trkpt><trkpt lat="43.8301317" lon="12.2617733"><ele>343.0</ele><time>2026-03-22T10:12:58.56Z</time></trkpt><trkpt lat="43.8302383" lon="12.2619733"><ele>343.0</ele><time>2026-03-22T10:12:59.56Z</time></trkpt><trkpt lat="43.8303683" lon="12.2621333"><ele>343.0</ele><time>2026-03-22T10:13:00.56Z</time></trkpt><trkpt lat="43.8305283" lon="12.2622383"><ele>343.0</ele><time>2026-03-22T10:13:01.56Z</time></trkpt><trkpt lat="43.8307083" lon="12.2622933"><ele>345.3333333333333</ele><time>2026-03-22T10:13:02.56Z</time></trkpt><trkpt lat="43.8309033" lon="12.2622867"><ele>347.6666666666667</ele><time>2026-03-22T10:13:03.56Z</time></trkpt><trkpt lat="43.8310917" lon="12.262235"><ele>350.0</ele><time>2026-03-22T10:13:04.559Z</time></trkpt><trkpt lat="43.8312633" lon="12.262145"><ele>350.0</ele><time>2026-03-22T10:13:05.56Z</time></trkpt><trkpt lat="43.8314283" lon="12.262065"><ele>350.0</ele><time>2026-03-22T10:13:06.56Z</time></trkpt><trkpt lat="43.831585" lon="12.2619983"><ele>350.0</ele><time>2026-03-22T10:13:07.56Z</time></trkpt><trkpt lat="43.8317283" lon="12.2619333"><ele>350.5</ele><time>2026-03-22T10:13:08.56Z</time></trkpt><trkpt lat="43.8318567" lon="12.2618833"><ele>351.0</ele><time>2026-03-22T10:13:09.56Z</time></trkpt><trkpt lat="43.8319683" lon="12.2618417"><ele>351.5</ele><time>2026-03-22T10:13:10.56Z</time></trkpt><trkpt lat="43.832085" lon="12.261805"><ele>352.0</ele><time>2026-03-22T10:13:11.56Z</time></trkpt><trkpt lat="43.8321967" lon="12.261775"><ele>352.0</ele><time>2026-03-22T10:13:12.56Z</time></trkpt><trkpt lat="43.83233" lon="12.261755"><ele>352.0</ele><time>2026-03-22T10:13:13.559Z</time></trkpt><trkpt lat="43.83247" lon="12.261745"><ele>352.0</ele><time>2026-03-22T10:13:14.559Z</time></trkpt><trkpt lat="43.83262" lon="12.2617467"><ele>352.0</ele><time>2026-03-22T10:13:15.559Z</time></trkpt><trkpt lat="43.83278" lon="12.2617733"><ele>352.3333333333333</ele><time>2026-03-22T10:13:16.56Z</time></trkpt><trkpt lat="43.8329383" lon="12.261805"><ele>352.6666666666667</ele><time>2026-03-22T10:13:17.56Z</time></trkpt><trkpt lat="43.8330917" lon="12.261845"><ele>353.0</ele><time>2026-03-22T10:13:18.559Z</time></trkpt><trkpt lat="43.83325" lon="12.2618783"><ele>353.0</ele><time>2026-03-22T10:13:19.559Z</time></trkpt><trkpt lat="43.8334133" lon="12.2619083"><ele>353.0</ele><time>2026-03-22T10:13:20.559Z</time></trkpt><trkpt lat="43.8335767" lon="12.26193"><ele>353.0</ele><time>2026-03-22T10:13:21.559Z</time></trkpt><trkpt lat="43.83374" lon="12.2619583"><ele>353.0</ele><time>2026-03-22T10:13:22.56Z</time></trkpt><trkpt lat="43.8339083" lon="12.26199"><ele>353.0</ele><time>2026-03-22T10:13:23.56Z</time></trkpt><trkpt lat="43.834075" lon="12.2620333"><ele>353.0</ele><time>2026-03-22T10:13:24.559Z</time></trkpt><trkpt lat="43.83425" lon="12.262075"><ele>352.6666666666667</ele><time>2026-03-22T10:13:25.56Z</time></trkpt><trkpt lat="43.8344267" lon="12.2621217"><ele>352.3333333333333</ele><time>2026-03-22T10:13:26.56Z</time></trkpt><trkpt lat="43.8346" lon="12.2621683"><ele>352.0</ele><time>2026-03-22T10:13:27.56Z</time></trkpt><trkpt lat="43.8347767" lon="12.2622"><ele>352.0</ele><time>2026-03-22T10:13:28.559Z</time></trkpt><trkpt lat="43.8349783" lon="12.2622033"><ele>352.0</ele><time>2026-03-22T10:13:29.559Z</time></trkpt><trkpt lat="43.8352033" lon="12.2621633"><ele>352.0</ele><time>2026-03-22T10:13:30.56Z</time></trkpt><trkpt lat="43.8354467" lon="12.262115"><ele>354.5</ele><time>2026-03-22T10:13:31.56Z</time></trkpt><trkpt lat="43.8356883" lon="12.26207"><ele>357.0</ele><time>2026-03-22T10:13:32.559Z</time></trkpt><trkpt lat="43.8359283" lon="12.2620567"><ele>354.5</ele><time>2026-03-22T10:13:33.56Z</time></trkpt><trkpt lat="43.8361717" lon="12.2620683"><ele>352.0</ele><time>2026-03-22T10:13:34.56Z</time></trkpt><trkpt lat="43.8364233" lon="12.2621083"><ele>352.0</ele><time>2026-03-22T10:13:35.56Z</time></trkpt><trkpt lat="43.83666" lon="12.2621967"><ele>352.0</ele><time>2026-03-22T10:13:36.56Z</time></trkpt><trkpt lat="43.8368917" lon="12.26232"><ele>352.5</ele><time>2026-03-22T10:13:37.559Z</time></trkpt><trkpt lat="43.837115" lon="12.2624833"><ele>353.0</ele><time>2026-03-22T10:13:38.56Z</time></trkpt><trkpt lat="43.83732" lon="12.2626767"><ele>353.0</ele><time>2026-03-22T10:13:39.559Z</time></trkpt><trkpt lat="43.837525" lon="12.2629183"><ele>353.0</ele><time>2026-03-22T10:13:40.559Z</time></trkpt><trkpt lat="43.8377367" lon="12.2631917"><ele>353.0</ele><time>2026-03-22T10:13:41.559Z</time></trkpt><trkpt lat="43.8379483" lon="12.2635083"><ele>353.0</ele><time>2026-03-22T10:13:42.56Z</time></trkpt><trkpt lat="43.83817" lon="12.2638217"><ele>354.0</ele><time>2026-03-22T10:13:43.559Z</time></trkpt><trkpt lat="43.8383933" lon="12.2641367"><ele>355.0</ele><time>2026-03-22T10:13:44.56Z</time></trkpt><trkpt lat="43.8386233" lon="12.2644633"><ele>352.5</ele><time>2026-03-22T10:13:45.56Z</time></trkpt><trkpt lat="43.838865" lon="12.2648017"><ele>350.0</ele><time>2026-03-22T10:13:46.56Z</time></trkpt><trkpt lat="43.8390967" lon="12.2651283"><ele>347.5</ele><time>2026-03-22T10:13:47.559Z</time></trkpt><trkpt lat="43.8393133" lon="12.2654433"><ele>345.0</ele><time>2026-03-22T10:13:48.56Z</time></trkpt><trkpt lat="43.8395033" lon="12.265745"><ele>345.0</ele><time>2026-03-22T10:13:49.559Z</time></trkpt><trkpt lat="43.8396933" lon="12.26602"><ele>345.0</ele><time>2026-03-22T10:13:50.559Z</time></trkpt><trkpt lat="43.8398767" lon="12.2662733"><ele>342.0</ele><time>2026-03-22T10:13:51.56Z</time></trkpt><trkpt lat="43.8400467" lon="12.2665133"><ele>339.0</ele><time>2026-03-22T10:13:52.559Z</time></trkpt><trkpt lat="43.8402017" lon="12.2667483"><ele>339.0</ele><time>2026-03-22T10:13:53.56Z</time></trkpt><trkpt lat="43.840345" lon="12.2669683"><ele>339.0</ele><time>2026-03-22T10:13:54.56Z</time></trkpt><trkpt lat="43.8404667" lon="12.267185"><ele>339.0</ele><time>2026-03-22T10:13:55.56Z</time></trkpt><trkpt lat="43.840575" lon="12.2674183"><ele>342.0</ele><time>2026-03-22T10:13:56.56Z</time></trkpt><trkpt lat="43.840665" lon="12.2676933"><ele>345.0</ele><time>2026-03-22T10:13:57.56Z</time></trkpt><trkpt lat="43.8407533" lon="12.267975"><ele>348.0</ele><time>2026-03-22T10:13:58.559Z</time></trkpt><trkpt lat="43.8408267" lon="12.2682117"><ele>347.3333333333333</ele><time>2026-03-22T10:13:59.559Z</time></trkpt><trkpt lat="43.8409083" lon="12.2684233"><ele>346.66666666666663</ele><time>2026-03-22T10:14:00.559Z</time></trkpt><trkpt lat="43.8410017" lon="12.2686067"><ele>346.0</ele><time>2026-03-22T10:14:01.56Z</time></trkpt><trkpt lat="43.8411283" lon="12.2687367"><ele>346.0</ele><time>2026-03-22T10:14:02.56Z</time></trkpt><trkpt lat="43.8412817" lon="12.26884"><ele>346.0</ele><time>2026-03-22T10:14:03.56Z</time></trkpt><trkpt lat="43.8414617" lon="12.2688983"><ele>346.0</ele><time>2026-03-22T10:14:04.56Z</time></trkpt><trkpt lat="43.8416533" lon="12.26892"><ele>344.66666666666663</ele><time>2026-03-22T10:14:05.56Z</time></trkpt><trkpt lat="43.8418467" lon="12.26888"><ele>343.3333333333333</ele><time>2026-03-22T10:14:06.56Z</time></trkpt><trkpt lat="43.8420267" lon="12.2688017"><ele>342.0</ele><time>2026-03-22T10:14:07.56Z</time></trkpt><trkpt lat="43.8421933" lon="12.26872"><ele>342.0</ele><time>2026-03-22T10:14:08.56Z</time></trkpt><trkpt lat="43.8423517" lon="12.2686683"><ele>342.0</ele><time>2026-03-22T10:14:09.56Z</time></trkpt><trkpt lat="43.842505" lon="12.2686467"><ele>342.0</ele><time>2026-03-22T10:14:10.56Z</time></trkpt><trkpt lat="43.8426517" lon="12.2686917"><ele>338.25</ele><time>2026-03-22T10:14:11.56Z</time></trkpt><trkpt lat="43.842785" lon="12.268785"><ele>334.5</ele><time>2026-03-22T10:14:12.56Z</time></trkpt><trkpt lat="43.842885" lon="12.2689317"><ele>330.75</ele><time>2026-03-22T10:14:13.56Z</time></trkpt><trkpt lat="43.8429433" lon="12.26911"><ele>327.0</ele><time>2026-03-22T10:14:14.56Z</time></trkpt><trkpt lat="43.8429783" lon="12.2693167"><ele>327.0</ele><time>2026-03-22T10:14:15.56Z</time></trkpt><trkpt lat="43.8429733" lon="12.2695367"><ele>327.0</ele><time>2026-03-22T10:14:16.56Z</time></trkpt><trkpt lat="43.84292" lon="12.2697667"><ele>327.0</ele><time>2026-03-22T10:14:17.559Z</time></trkpt><trkpt lat="43.8428333" lon="12.2699967"><ele>328.6666666666667</ele><time>2026-03-22T10:14:18.56Z</time></trkpt><trkpt lat="43.8427233" lon="12.27023"><ele>330.33333333333337</ele><time>2026-03-22T10:14:19.56Z</time></trkpt><trkpt lat="43.8426033" lon="12.270445"><ele>332.0</ele><time>2026-03-22T10:14:20.56Z</time></trkpt><trkpt lat="43.8424833" lon="12.27064"><ele>340.6666666666667</ele><time>2026-03-22T10:14:21.56Z</time></trkpt><trkpt lat="43.8423817" lon="12.2708367"><ele>349.3333333333333</ele><time>2026-03-22T10:14:22.56Z</time></trkpt><trkpt lat="43.8423083" lon="12.271085"><ele>358.0</ele><time>2026-03-22T10:14:23.56Z</time></trkpt><trkpt lat="43.8422533" lon="12.2713717"><ele>353.5</ele><time>2026-03-22T10:14:24.559Z</time></trkpt><trkpt lat="43.8422117" lon="12.2717"><ele>349.0</ele><time>2026-03-22T10:14:25.56Z</time></trkpt><trkpt lat="43.84218" lon="12.2720317"><ele>348.3333333333333</ele><time>2026-03-22T10:14:26.56Z</time></trkpt><trkpt lat="43.842145" lon="12.2723267"><ele>347.6666666666667</ele><time>2026-03-22T10:14:27.56Z</time></trkpt><trkpt lat="43.8421117" lon="12.2726083"><ele>347.0</ele><time>2026-03-22T10:14:28.559Z</time></trkpt><trkpt lat="43.842085" lon="12.2728783"><ele>347.0</ele><time>2026-03-22T10:14:29.56Z</time></trkpt><trkpt lat="43.842055" lon="12.2731317"><ele>347.0</ele><time>2026-03-22T10:14:30.559Z</time></trkpt><trkpt lat="43.8420283" lon="12.2733717"><ele>347.0</ele><time>2026-03-22T10:14:31.559Z</time></trkpt><trkpt lat="43.8420167" lon="12.2735967"><ele>347.0</ele><time>2026-03-22T10:14:32.56Z</time></trkpt><trkpt lat="43.842055" lon="12.2738233"><ele>347.0</ele><time>2026-03-22T10:14:33.559Z</time></trkpt><trkpt lat="43.84214" lon="12.27404"><ele>347.0</ele><time>2026-03-22T10:14:34.559Z</time></trkpt><trkpt lat="43.8422433" lon="12.2742517"><ele>348.33333333333337</ele><time>2026-03-22T10:14:35.56Z</time></trkpt><trkpt lat="43.8423633" lon="12.2744333"><ele>349.6666666666667</ele><time>2026-03-22T10:14:36.56Z</time></trkpt><trkpt lat="43.8424917" lon="12.27461"><ele>351.0</ele><time>2026-03-22T10:14:37.559Z</time></trkpt><trkpt lat="43.8426233" lon="12.2747783"><ele>351.6666666666667</ele><time>2026-03-22T10:14:38.56Z</time></trkpt><trkpt lat="43.84275" lon="12.27494"><ele>352.33333333333337</ele><time>2026-03-22T10:14:39.56Z</time></trkpt><trkpt lat="43.8428783" lon="12.2751167"><ele>353.0</ele><time>2026-03-22T10:14:40.559Z</time></trkpt><trkpt lat="43.8430117" lon="12.275295"><ele>353.0</ele><time>2026-03-22T10:14:41.56Z</time></trkpt><trkpt lat="43.8431433" lon="12.2754783"><ele>353.0</ele><time>2026-03-22T10:14:42.559Z</time></trkpt><trkpt lat="43.8432667" lon="12.275655"><ele>353.0</ele><time>2026-03-22T10:14:43.559Z</time></trkpt><trkpt lat="43.8433917" lon="12.2758067"><ele>351.33333333333337</ele><time>2026-03-22T10:14:44.559Z</time></trkpt><trkpt lat="43.8435483" lon="12.275945"><ele>349.6666666666667</ele><time>2026-03-22T10:14:45.56Z</time></trkpt><trkpt lat="43.84374" lon="12.2760583"><ele>348.0</ele><time>2026-03-22T10:14:46.56Z</time></trkpt><trkpt lat="43.8439483" lon="12.2761517"><ele>348.0</ele><time>2026-03-22T10:14:47.559Z</time></trkpt><trkpt lat="43.84415" lon="12.2762267"><ele>348.0</ele><time>2026-03-22T10:14:48.56Z</time></trkpt><trkpt lat="43.8443317" lon="12.2762983"><ele>348.0</ele><time>2026-03-22T10:14:49.56Z</time></trkpt><trkpt lat="43.8445" lon="12.2763733"><ele>347.3333333333333</ele><time>2026-03-22T10:14:50.56Z</time></trkpt><trkpt lat="43.8446633" lon="12.2764533"><ele>346.66666666666663</ele><time>2026-03-22T10:14:51.56Z</time></trkpt><trkpt lat="43.8448117" lon="12.2765567"><ele>346.0</ele><time>2026-03-22T10:14:52.56Z</time></trkpt><trkpt lat="43.8449433" lon="12.2767"><ele>346.0</ele><time>2026-03-22T10:14:53.56Z</time></trkpt><trkpt lat="43.8450517" lon="12.2768767"><ele>346.0</ele><time>2026-03-22T10:14:54.56Z</time></trkpt><trkpt lat="43.8451533" lon="12.2770817"><ele>346.0</ele><time>2026-03-22T10:14:55.56Z</time></trkpt><trkpt lat="43.84524" lon="12.2772917"><ele>343.3333333333333</ele><time>2026-03-22T10:14:56.56Z</time></trkpt><trkpt lat="43.845315" lon="12.2775167"><ele>340.6666666666667</ele><time>2026-03-22T10:14:57.559Z</time></trkpt><trkpt lat="43.84539" lon="12.277735"><ele>338.0</ele><time>2026-03-22T10:14:58.56Z</time></trkpt><trkpt lat="43.8454783" lon="12.277925"><ele>338.0</ele><time>2026-03-22T10:14:59.56Z</time></trkpt><trkpt lat="43.8456017" lon="12.27807"><ele>338.0</ele><time>2026-03-22T10:15:00.56Z</time></trkpt><trkpt lat="43.84574" lon="12.2782033"><ele>338.0</ele><time>2026-03-22T10:15:01.56Z</time></trkpt><trkpt lat="43.8459183" lon="12.278275"><ele>340.0</ele><time>2026-03-22T10:15:02.559Z</time></trkpt><trkpt lat="43.8461017" lon="12.2782983"><ele>342.0</ele><time>2026-03-22T10:15:03.56Z</time></trkpt><trkpt lat="43.846305" lon="12.2782867"><ele>344.0</ele><time>2026-03-22T10:15:04.56Z</time></trkpt><trkpt lat="43.8465267" lon="12.2782767"><ele>344.0</ele><time>2026-03-22T10:15:05.559Z</time></trkpt><trkpt lat="43.8467433" lon="12.2782617"><ele>344.0</ele><time>2026-03-22T10:15:06.56Z</time></trkpt><trkpt lat="43.8469467" lon="12.27825"><ele>344.0</ele><time>2026-03-22T10:15:07.56Z</time></trkpt><trkpt lat="43.84714" lon="12.2782367"><ele>344.0</ele><time>2026-03-22T10:15:08.559Z</time></trkpt><trkpt lat="43.8473283" lon="12.2781917"><ele>344.0</ele><time>2026-03-22T10:15:09.56Z</time></trkpt><trkpt lat="43.8475133" lon="12.2781"><ele>344.0</ele><time>2026-03-22T10:15:10.559Z</time></trkpt><trkpt lat="43.8476667" lon="12.277955"><ele>344.0</ele><time>2026-03-22T10:15:11.559Z</time></trkpt><trkpt lat="43.84782" lon="12.2777733"><ele>344.0</ele><time>2026-03-22T10:15:12.56Z</time></trkpt><trkpt lat="43.8479467" lon="12.2775767"><ele>344.0</ele><time>2026-03-22T10:15:13.56Z</time></trkpt><trkpt lat="43.8480667" lon="12.277405"><ele>339.6666666666667</ele><time>2026-03-22T10:15:14.56Z</time></trkpt><trkpt lat="43.8481967" lon="12.277265"><ele>335.3333333333333</ele><time>2026-03-22T10:15:15.559Z</time></trkpt><trkpt lat="43.848335" lon="12.277155"><ele>331.0</ele><time>2026-03-22T10:15:16.56Z</time></trkpt><trkpt lat="43.8484867" lon="12.277075"><ele>330.3333333333333</ele><time>2026-03-22T10:15:17.559Z</time></trkpt><trkpt lat="43.84866" lon="12.2770167"><ele>329.6666666666667</ele><time>2026-03-22T10:15:18.559Z</time></trkpt><trkpt lat="43.8488567" lon="12.2769933"><ele>329.0</ele><time>2026-03-22T10:15:19.559Z</time></trkpt><trkpt lat="43.8490717" lon="12.276995"><ele>329.0</ele><time>2026-03-22T10:15:20.56Z</time></trkpt><trkpt lat="43.84929" lon="12.2770033"><ele>329.0</ele><time>2026-03-22T10:15:21.56Z</time></trkpt><trkpt lat="43.849505" lon="12.2770133"><ele>329.0</ele><time>2026-03-22T10:15:22.559Z</time></trkpt><trkpt lat="43.8497083" lon="12.2770167"><ele>331.33333333333337</ele><time>2026-03-22T10:15:23.56Z</time></trkpt><trkpt lat="43.8498883" lon="12.2770133"><ele>333.6666666666667</ele><time>2026-03-22T10:15:24.559Z</time></trkpt><trkpt lat="43.8500767" lon="12.2769833"><ele>336.0</ele><time>2026-03-22T10:15:25.56Z</time></trkpt><trkpt lat="43.8502717" lon="12.2769033"><ele>339.0</ele><time>2026-03-22T10:15:26.56Z</time></trkpt><trkpt lat="43.85048" lon="12.2767417"><ele>342.0</ele><time>2026-03-22T10:15:27.56Z</time></trkpt><trkpt lat="43.8506917" lon="12.2765617"><ele>340.0</ele><time>2026-03-22T10:15:28.56Z</time></trkpt><trkpt lat="43.85089" lon="12.2764067"><ele>338.0</ele><time>2026-03-22T10:15:29.56Z</time></trkpt><trkpt lat="43.8510667" lon="12.2762767"><ele>336.0</ele><time>2026-03-22T10:15:30.56Z</time></trkpt><trkpt lat="43.8512283" lon="12.2761433"><ele>336.0</ele><time>2026-03-22T10:15:31.56Z</time></trkpt><trkpt lat="43.8513717" lon="12.276035"><ele>336.0</ele><time>2026-03-22T10:15:32.56Z</time></trkpt><trkpt lat="43.8515083" lon="12.27595"><ele>336.0</ele><time>2026-03-22T10:15:33.559Z</time></trkpt><trkpt lat="43.8516417" lon="12.2759"><ele>336.0</ele><time>2026-03-22T10:15:34.56Z</time></trkpt><trkpt lat="43.8517883" lon="12.2758783"><ele>336.0</ele><time>2026-03-22T10:15:35.559Z</time></trkpt><trkpt lat="43.851945" lon="12.27591"><ele>336.0</ele><time>2026-03-22T10:15:36.56Z</time></trkpt><trkpt lat="43.85211" lon="12.276005"><ele>333.3333333333333</ele><time>2026-03-22T10:15:37.56Z</time></trkpt><trkpt lat="43.85228" lon="12.2761417"><ele>330.66666666666663</ele><time>2026-03-22T10:15:38.56Z</time></trkpt><trkpt lat="43.8524617" lon="12.276295"><ele>328.0</ele><time>2026-03-22T10:15:39.561Z</time></trkpt><trkpt lat="43.8526567" lon="12.276475"><ele>328.0</ele><time>2026-03-22T10:15:40.561Z</time></trkpt><trkpt lat="43.85287" lon="12.2766683"><ele>328.0</ele><time>2026-03-22T10:15:41.561Z</time></trkpt><trkpt lat="43.8530767" lon="12.2768533"><ele>328.0</ele><time>2026-03-22T10:15:42.561Z</time></trkpt><trkpt lat="43.8532667" lon="12.2770267"><ele>328.0</ele><time>2026-03-22T10:15:43.561Z</time></trkpt><trkpt lat="43.8534517" lon="12.2771883"><ele>328.0</ele><time>2026-03-22T10:15:44.561Z</time></trkpt><trkpt lat="43.8536333" lon="12.2773383"><ele>327.3333333333333</ele><time>2026-03-22T10:15:45.561Z</time></trkpt><trkpt lat="43.853805" lon="12.2774933"><ele>326.6666666666667</ele><time>2026-03-22T10:15:46.561Z</time></trkpt><trkpt lat="43.85397" lon="12.2776367"><ele>326.0</ele><time>2026-03-22T10:15:47.56Z</time></trkpt><trkpt lat="43.8541117" lon="12.277765"><ele>326.0</ele><time>2026-03-22T10:15:48.56Z</time></trkpt><trkpt lat="43.8542517" lon="12.2778833"><ele>326.0</ele><time>2026-03-22T10:15:49.56Z</time></trkpt><trkpt lat="43.8543683" lon="12.27798"><ele>326.0</ele><time>2026-03-22T10:15:50.561Z</time></trkpt><trkpt lat="43.8544583" lon="12.2781133"><ele>326.0</ele><time>2026-03-22T10:15:51.561Z</time></trkpt><trkpt lat="43.8545367" lon="12.2782767"><ele>325.0</ele><time>2026-03-22T10:15:52.56Z</time></trkpt><trkpt lat="43.85459" lon="12.2784783"><ele>324.0</ele><time>2026-03-22T10:15:53.56Z</time></trkpt><trkpt lat="43.8546267" lon="12.2786967"><ele>323.0</ele><time>2026-03-22T10:15:54.56Z</time></trkpt><trkpt lat="43.8546483" lon="12.2789033"><ele>323.0</ele><time>2026-03-22T10:15:55.56Z</time></trkpt><trkpt lat="43.8546633" lon="12.27908"><ele>323.0</ele><time>2026-03-22T10:15:56.561Z</time></trkpt><trkpt lat="43.854655" lon="12.2792567"><ele>323.0</ele><time>2026-03-22T10:15:57.561Z</time></trkpt><trkpt lat="43.8546167" lon="12.2794367"><ele>323.0</ele><time>2026-03-22T10:15:58.56Z</time></trkpt><trkpt lat="43.8545533" lon="12.2796117"><ele>324.33333333333337</ele><time>2026-03-22T10:15:59.56Z</time></trkpt><trkpt lat="43.8544617" lon="12.2797717"><ele>325.6666666666667</ele><time>2026-03-22T10:16:00.56Z</time></trkpt><trkpt lat="43.8543467" lon="12.2799267"><ele>327.0</ele><time>2026-03-22T10:16:01.561Z</time></trkpt><trkpt lat="43.8542317" lon="12.280055"><ele>327.0</ele><time>2026-03-22T10:16:02.561Z</time></trkpt><trkpt lat="43.85413" lon="12.2801817"><ele>327.0</ele><time>2026-03-22T10:16:03.561Z</time></trkpt><trkpt lat="43.8540483" lon="12.280335"><ele>327.0</ele><time>2026-03-22T10:16:04.56Z</time></trkpt><trkpt lat="43.8539883" lon="12.2805383"><ele>327.0</ele><time>2026-03-22T10:16:05.561Z</time></trkpt><trkpt lat="43.8539467" lon="12.280775"><ele>325.3333333333333</ele><time>2026-03-22T10:16:06.561Z</time></trkpt><trkpt lat="43.85392" lon="12.281025"><ele>323.66666666666663</ele><time>2026-03-22T10:16:07.561Z</time></trkpt><trkpt lat="43.8538967" lon="12.28126"><ele>322.0</ele><time>2026-03-22T10:16:08.56Z</time></trkpt><trkpt lat="43.85387" lon="12.2814567"><ele>322.0</ele><time>2026-03-22T10:16:09.561Z</time></trkpt><trkpt lat="43.8538667" lon="12.28164"><ele>322.0</ele><time>2026-03-22T10:16:10.561Z</time></trkpt><trkpt lat="43.8538967" lon="12.28181"><ele>322.0</ele><time>2026-03-22T10:16:11.56Z</time></trkpt><trkpt lat="43.85397" lon="12.281975"><ele>322.0</ele><time>2026-03-22T10:16:12.561Z</time></trkpt><trkpt lat="43.8540683" lon="12.2821383"><ele>322.0</ele><time>2026-03-22T10:16:13.561Z</time></trkpt><trkpt lat="43.8541617" lon="12.28226"><ele>322.0</ele><time>2026-03-22T10:16:14.56Z</time></trkpt><trkpt lat="43.8542617" lon="12.2823417"><ele>322.0</ele><time>2026-03-22T10:16:15.561Z</time></trkpt><trkpt lat="43.8543967" lon="12.2823633"><ele>322.0</ele><time>2026-03-22T10:16:16.56Z</time></trkpt><trkpt lat="43.85454" lon="12.2823333"><ele>321.3333333333333</ele><time>2026-03-22T10:16:17.561Z</time></trkpt><trkpt lat="43.854695" lon="12.282265"><ele>320.6666666666667</ele><time>2026-03-22T10:16:18.561Z</time></trkpt><trkpt lat="43.85487" lon="12.28218"><ele>320.0</ele><time>2026-03-22T10:16:19.561Z</time></trkpt><trkpt lat="43.8550433" lon="12.2821067"><ele>323.6666666666667</ele><time>2026-03-22T10:16:20.56Z</time></trkpt><trkpt lat="43.8552217" lon="12.2820717"><ele>327.3333333333333</ele><time>2026-03-22T10:16:21.561Z</time></trkpt><trkpt lat="43.8553933" lon="12.2820433"><ele>331.0</ele><time>2026-03-22T10:16:22.561Z</time></trkpt><trkpt lat="43.85555" lon="12.282015"><ele>331.0</ele><time>2026-03-22T10:16:23.561Z</time></trkpt><trkpt lat="43.8556983" lon="12.281965"><ele>331.0</ele><time>2026-03-22T10:16:24.561Z</time></trkpt><trkpt lat="43.8558383" lon="12.281885"><ele>331.0</ele><time>2026-03-22T10:16:25.561Z</time></trkpt><trkpt lat="43.8559433" lon="12.2817583"><ele>331.0</ele><time>2026-03-22T10:16:26.561Z</time></trkpt><trkpt lat="43.856015" lon="12.28159"><ele>331.0</ele><time>2026-03-22T10:16:27.561Z</time></trkpt><trkpt lat="43.85607" lon="12.2813917"><ele>331.0</ele><time>2026-03-22T10:16:28.56Z</time></trkpt><trkpt lat="43.8561117" lon="12.2811867"><ele>331.0</ele><time>2026-03-22T10:16:29.561Z</time></trkpt><trkpt lat="43.8561583" lon="12.2810033"><ele>331.0</ele><time>2026-03-22T10:16:30.56Z</time></trkpt><trkpt lat="43.85623" lon="12.2808517"><ele>331.0</ele><time>2026-03-22T10:16:31.561Z</time></trkpt><trkpt lat="43.856335" lon="12.28074"><ele>331.0</ele><time>2026-03-22T10:16:32.561Z</time></trkpt><trkpt lat="43.8564667" lon="12.28066"><ele>331.0</ele><time>2026-03-22T10:16:33.561Z</time></trkpt><trkpt lat="43.8566333" lon="12.2805917"><ele>326.66666666666663</ele><time>2026-03-22T10:16:34.561Z</time></trkpt><trkpt lat="43.85682" lon="12.28052"><ele>322.3333333333333</ele><time>2026-03-22T10:16:35.561Z</time></trkpt><trkpt lat="43.85702" lon="12.2804417"><ele>318.0</ele><time>2026-03-22T10:16:36.56Z</time></trkpt><trkpt lat="43.8572167" lon="12.2803633"><ele>318.0</ele><time>2026-03-22T10:16:37.56Z</time></trkpt><trkpt lat="43.8573983" lon="12.2802783"><ele>318.0</ele><time>2026-03-22T10:16:38.561Z</time></trkpt><trkpt lat="43.8575667" lon="12.2801867"><ele>318.0</ele><time>2026-03-22T10:16:39.561Z</time></trkpt><trkpt lat="43.8577317" lon="12.280095"><ele>319.0</ele><time>2026-03-22T10:16:40.561Z</time></trkpt><trkpt lat="43.8578933" lon="12.2800217"><ele>320.0</ele><time>2026-03-22T10:16:41.561Z</time></trkpt><trkpt lat="43.85806" lon="12.27996"><ele>321.0</ele><time>2026-03-22T10:16:42.56Z</time></trkpt><trkpt lat="43.8582333" lon="12.279925"><ele>321.0</ele><time>2026-03-22T10:16:43.561Z</time></trkpt><trkpt lat="43.8584067" lon="12.2799383"><ele>321.0</ele><time>2026-03-22T10:16:44.56Z</time></trkpt><trkpt lat="43.8585733" lon="12.28002"><ele>321.0</ele><time>2026-03-22T10:16:45.561Z</time></trkpt><trkpt lat="43.8587283" lon="12.28015"><ele>321.3333333333333</ele><time>2026-03-22T10:16:46.56Z</time></trkpt><trkpt lat="43.8588717" lon="12.2803267"><ele>321.66666666666663</ele><time>2026-03-22T10:16:47.56Z</time></trkpt><trkpt lat="43.8590067" lon="12.280545"><ele>322.0</ele><time>2026-03-22T10:16:48.561Z</time></trkpt><trkpt lat="43.8591317" lon="12.280785"><ele>322.0</ele><time>2026-03-22T10:16:49.561Z</time></trkpt><trkpt lat="43.8592467" lon="12.2810433"><ele>322.0</ele><time>2026-03-22T10:16:50.56Z</time></trkpt><trkpt lat="43.8593617" lon="12.281295"><ele>322.0</ele><time>2026-03-22T10:16:51.56Z</time></trkpt><trkpt lat="43.8594817" lon="12.2815217"><ele>319.0</ele><time>2026-03-22T10:16:52.561Z</time></trkpt><trkpt lat="43.8596183" lon="12.2817467"><ele>316.0</ele><time>2026-03-22T10:16:53.561Z</time></trkpt><trkpt lat="43.85978" lon="12.2819533"><ele>313.0</ele><time>2026-03-22T10:16:54.561Z</time></trkpt><trkpt lat="43.8599583" lon="12.2821383"><ele>311.5</ele><time>2026-03-22T10:16:55.561Z</time></trkpt><trkpt lat="43.86015" lon="12.2823133"><ele>310.0</ele><time>2026-03-22T10:16:56.561Z</time></trkpt><trkpt lat="43.8603517" lon="12.2824733"><ele>310.0</ele><time>2026-03-22T10:16:57.561Z</time></trkpt><trkpt lat="43.8605517" lon="12.2826233"><ele>310.0</ele><time>2026-03-22T10:16:58.56Z</time></trkpt><trkpt lat="43.8607417" lon="12.2827717"><ele>310.0</ele><time>2026-03-22T10:16:59.561Z</time></trkpt><trkpt lat="43.86092" lon="12.2829267"><ele>311.0</ele><time>2026-03-22T10:17:00.561Z</time></trkpt><trkpt lat="43.8610933" lon="12.283095"><ele>312.0</ele><time>2026-03-22T10:17:01.561Z</time></trkpt><trkpt lat="43.8612467" lon="12.2832683"><ele>313.0</ele><time>2026-03-22T10:17:02.56Z</time></trkpt><trkpt lat="43.861385" lon="12.2834267"><ele>313.0</ele><time>2026-03-22T10:17:03.561Z</time></trkpt><trkpt lat="43.861515" lon="12.2835633"><ele>313.0</ele><time>2026-03-22T10:17:04.561Z</time></trkpt><trkpt lat="43.8616417" lon="12.2836617"><ele>313.0</ele><time>2026-03-22T10:17:05.561Z</time></trkpt><trkpt lat="43.8618067" lon="12.2837033"><ele>314.0</ele><time>2026-03-22T10:17:06.561Z</time></trkpt><trkpt lat="43.8619867" lon="12.2836783"><ele>315.0</ele><time>2026-03-22T10:17:07.561Z</time></trkpt><trkpt lat="43.8621633" lon="12.2836017"><ele>316.0</ele><time>2026-03-22T10:17:08.561Z</time></trkpt><trkpt lat="43.8623167" lon="12.2834883"><ele>316.0</ele><time>2026-03-22T10:17:09.56Z</time></trkpt><trkpt lat="43.8624517" lon="12.2833683"><ele>316.0</ele><time>2026-03-22T10:17:10.561Z</time></trkpt><trkpt lat="43.8626" lon="12.28326"><ele>316.0</ele><time>2026-03-22T10:17:11.56Z</time></trkpt><trkpt lat="43.8627583" lon="12.283195"><ele>315.75</ele><time>2026-03-22T10:17:12.561Z</time></trkpt><trkpt lat="43.862915" lon="12.283175"><ele>315.5</ele><time>2026-03-22T10:17:13.561Z</time></trkpt><trkpt lat="43.86306" lon="12.2831817"><ele>315.25</ele><time>2026-03-22T10:17:14.561Z</time></trkpt><trkpt lat="43.8631933" lon="12.28323"><ele>315.0</ele><time>2026-03-22T10:17:15.561Z</time></trkpt><trkpt lat="43.8633233" lon="12.2833183"><ele>313.5</ele><time>2026-03-22T10:17:16.561Z</time></trkpt><trkpt lat="43.8634583" lon="12.2834483"><ele>312.0</ele><time>2026-03-22T10:17:17.561Z</time></trkpt><trkpt lat="43.86357" lon="12.2835967"><ele>310.5</ele><time>2026-03-22T10:17:18.56Z</time></trkpt><trkpt lat="43.863665" lon="12.2837167"><ele>309.0</ele><time>2026-03-22T10:17:19.561Z</time></trkpt><trkpt lat="43.863775" lon="12.2837983"><ele>309.0</ele><time>2026-03-22T10:17:20.561Z</time></trkpt><trkpt lat="43.8638983" lon="12.28381"><ele>309.0</ele><time>2026-03-22T10:17:21.561Z</time></trkpt><trkpt lat="43.8640283" lon="12.2837633"><ele>309.0</ele><time>2026-03-22T10:17:22.56Z</time></trkpt><trkpt lat="43.8641433" lon="12.2836483"><ele>309.0</ele><time>2026-03-22T10:17:23.56Z</time></trkpt><trkpt lat="43.8642267" lon="12.2835933"><ele>306.5</ele><time>2026-03-22T10:17:24.561Z</time></trkpt><trkpt lat="43.8643367" lon="12.28346"><ele>304.0</ele><time>2026-03-22T10:17:25.561Z</time></trkpt><trkpt lat="43.8644733" lon="12.2834017"><ele>301.5</ele><time>2026-03-22T10:17:26.561Z</time></trkpt><trkpt lat="43.864625" lon="12.2834117"><ele>299.0</ele><time>2026-03-22T10:17:27.56Z</time></trkpt><trkpt lat="43.864775" lon="12.2834917"><ele>299.0</ele><time>2026-03-22T10:17:28.561Z</time></trkpt><trkpt lat="43.8649167" lon="12.2836033"><ele>299.0</ele><time>2026-03-22T10:17:29.561Z</time></trkpt><trkpt lat="43.8650367" lon="12.2837133"><ele>299.0</ele><time>2026-03-22T10:17:30.561Z</time></trkpt><trkpt lat="43.865175" lon="12.2837667"><ele>296.0</ele><time>2026-03-22T10:17:31.561Z</time></trkpt><trkpt lat="43.8653333" lon="12.2837867"><ele>293.0</ele><time>2026-03-22T10:17:32.561Z</time></trkpt><trkpt lat="43.8654883" lon="12.283735"><ele>290.0</ele><time>2026-03-22T10:17:33.561Z</time></trkpt><trkpt lat="43.8656317" lon="12.2836583"><ele>290.0</ele><time>2026-03-22T10:17:34.56Z</time></trkpt><trkpt lat="43.865765" lon="12.283585"><ele>290.0</ele><time>2026-03-22T10:17:35.56Z</time></trkpt><trkpt lat="43.8659083" lon="12.2835517"><ele>290.0</ele><time>2026-03-22T10:17:36.561Z</time></trkpt><trkpt lat="43.8660333" lon="12.283565"><ele>290.0</ele><time>2026-03-22T10:17:37.561Z</time></trkpt><trkpt lat="43.8661667" lon="12.2836217"><ele>289.0</ele><time>2026-03-22T10:17:38.56Z</time></trkpt><trkpt lat="43.8662983" lon="12.28374"><ele>288.0</ele><time>2026-03-22T10:17:39.561Z</time></trkpt><trkpt lat="43.866415" lon="12.2839017"><ele>287.0</ele><time>2026-03-22T10:17:40.561Z</time></trkpt><trkpt lat="43.8665283" lon="12.2840917"><ele>287.0</ele><time>2026-03-22T10:17:41.56Z</time></trkpt><trkpt lat="43.8666433" lon="12.2842867"><ele>287.0</ele><time>2026-03-22T10:17:42.561Z</time></trkpt><trkpt lat="43.866755" lon="12.2844733"><ele>287.0</ele><time>2026-03-22T10:17:43.561Z</time></trkpt><trkpt lat="43.8668683" lon="12.28465"><ele>286.5</ele><time>2026-03-22T10:17:44.561Z</time></trkpt><trkpt lat="43.8669683" lon="12.28481"><ele>286.0</ele><time>2026-03-22T10:17:45.56Z</time></trkpt><trkpt lat="43.8670567" lon="12.2849533"><ele>285.5</ele><time>2026-03-22T10:17:46.561Z</time></trkpt><trkpt lat="43.8671517" lon="12.2850667"><ele>285.0</ele><time>2026-03-22T10:17:47.561Z</time></trkpt><trkpt lat="43.86725" lon="12.2851583"><ele>285.0</ele><time>2026-03-22T10:17:48.561Z</time></trkpt><trkpt lat="43.86736" lon="12.285205"><ele>285.0</ele><time>2026-03-22T10:17:49.561Z</time></trkpt><trkpt lat="43.8674883" lon="12.2851983"><ele>285.0</ele><time>2026-03-22T10:17:50.56Z</time></trkpt><trkpt lat="43.8676367" lon="12.2851317"><ele>285.0</ele><time>2026-03-22T10:17:51.561Z</time></trkpt><trkpt lat="43.8677983" lon="12.2850283"><ele>283.0</ele><time>2026-03-22T10:17:52.561Z</time></trkpt><trkpt lat="43.8679717" lon="12.2849067"><ele>281.0</ele><time>2026-03-22T10:17:53.561Z</time></trkpt><trkpt lat="43.868155" lon="12.2847783"><ele>279.0</ele><time>2026-03-22T10:17:54.561Z</time></trkpt><trkpt lat="43.8683433" lon="12.2846383"><ele>281.3333333333333</ele><time>2026-03-22T10:17:55.56Z</time></trkpt><trkpt lat="43.8685217" lon="12.2845117"><ele>283.66666666666663</ele><time>2026-03-22T10:17:56.561Z</time></trkpt><trkpt lat="43.8686917" lon="12.284385"><ele>286.0</ele><time>2026-03-22T10:17:57.561Z</time></trkpt><trkpt lat="43.868855" lon="12.2842767"><ele>286.0</ele><time>2026-03-22T10:17:58.56Z</time></trkpt><trkpt lat="43.8690133" lon="12.2841817"><ele>286.0</ele><time>2026-03-22T10:17:59.561Z</time></trkpt><trkpt lat="43.86918" lon="12.2841117"><ele>286.0</ele><time>2026-03-22T10:18:00.561Z</time></trkpt><trkpt lat="43.8693683" lon="12.284085"><ele>286.3333333333333</ele><time>2026-03-22T10:18:01.561Z</time></trkpt><trkpt lat="43.8695717" lon="12.2840883"><ele>286.6666666666667</ele><time>2026-03-22T10:18:02.561Z</time></trkpt><trkpt lat="43.8697683" lon="12.2840933"><ele>287.0</ele><time>2026-03-22T10:18:03.561Z</time></trkpt><trkpt lat="43.8699633" lon="12.2840967"><ele>286.0</ele><time>2026-03-22T10:18:04.561Z</time></trkpt><trkpt lat="43.870155" lon="12.2840917"><ele>285.0</ele><time>2026-03-22T10:18:05.56Z</time></trkpt><trkpt lat="43.870335" lon="12.2840733"><ele>284.0</ele><time>2026-03-22T10:18:06.561Z</time></trkpt><trkpt lat="43.870525" lon="12.2840433"><ele>284.0</ele><time>2026-03-22T10:18:07.561Z</time></trkpt><trkpt lat="43.8707033" lon="12.284005"><ele>284.0</ele><time>2026-03-22T10:18:08.561Z</time></trkpt><trkpt lat="43.8708733" lon="12.2839617"><ele>284.0</ele><time>2026-03-22T10:18:09.561Z</time></trkpt><trkpt lat="43.87105" lon="12.2839033"><ele>287.33333333333337</ele><time>2026-03-22T10:18:10.56Z</time></trkpt><trkpt lat="43.8712367" lon="12.2838633"><ele>290.6666666666667</ele><time>2026-03-22T10:18:11.561Z</time></trkpt><trkpt lat="43.8714267" lon="12.2838133"><ele>294.0</ele><time>2026-03-22T10:18:12.561Z</time></trkpt><trkpt lat="43.87161" lon="12.2837583"><ele>292.6666666666667</ele><time>2026-03-22T10:18:13.561Z</time></trkpt><trkpt lat="43.8718" lon="12.2836983"><ele>291.33333333333337</ele><time>2026-03-22T10:18:14.561Z</time></trkpt><trkpt lat="43.8719967" lon="12.283625"><ele>290.0</ele><time>2026-03-22T10:18:15.561Z</time></trkpt><trkpt lat="43.872195" lon="12.2835467"><ele>290.0</ele><time>2026-03-22T10:18:16.561Z</time></trkpt><trkpt lat="43.8724033" lon="12.2834667"><ele>290.0</ele><time>2026-03-22T10:18:17.561Z</time></trkpt><trkpt lat="43.8725983" lon="12.2833917"><ele>290.0</ele><time>2026-03-22T10:18:18.561Z</time></trkpt><trkpt lat="43.8727933" lon="12.283305"><ele>290.0</ele><time>2026-03-22T10:18:19.561Z</time></trkpt><trkpt lat="43.8729817" lon="12.2832183"><ele>290.0</ele><time>2026-03-22T10:18:20.561Z</time></trkpt><trkpt lat="43.873165" lon="12.2831067"><ele>290.0</ele><time>2026-03-22T10:18:21.56Z</time></trkpt><trkpt lat="43.8733383" lon="12.2829833"><ele>293.6666666666667</ele><time>2026-03-22T10:18:22.561Z</time></trkpt><trkpt lat="43.8735067" lon="12.282855"><ele>297.3333333333333</ele><time>2026-03-22T10:18:23.56Z</time></trkpt><trkpt lat="43.87367" lon="12.2827383"><ele>301.0</ele><time>2026-03-22T10:18:24.561Z</time></trkpt><trkpt lat="43.87384" lon="12.2826533"><ele>301.0</ele><time>2026-03-22T10:18:25.561Z</time></trkpt><trkpt lat="43.8740233" lon="12.2826033"><ele>301.0</ele><time>2026-03-22T10:18:26.561Z</time></trkpt><trkpt lat="43.874225" lon="12.2825833"><ele>301.0</ele><time>2026-03-22T10:18:27.56Z</time></trkpt><trkpt lat="43.87443" lon="12.2825783"><ele>303.0</ele><time>2026-03-22T10:18:28.56Z</time></trkpt><trkpt lat="43.8746283" lon="12.2825667"><ele>305.0</ele><time>2026-03-22T10:18:29.561Z</time></trkpt><trkpt lat="43.8748133" lon="12.2825567"><ele>307.0</ele><time>2026-03-22T10:18:30.56Z</time></trkpt><trkpt lat="43.874975" lon="12.28257"><ele>306.66666666666663</ele><time>2026-03-22T10:18:31.561Z</time></trkpt><trkpt lat="43.8751317" lon="12.2826317"><ele>306.3333333333333</ele><time>2026-03-22T10:18:32.56Z</time></trkpt><trkpt lat="43.8752883" lon="12.28274"><ele>306.0</ele><time>2026-03-22T10:18:33.56Z</time></trkpt><trkpt lat="43.8754267" lon="12.2828717"><ele>306.0</ele><time>2026-03-22T10:18:34.561Z</time></trkpt><trkpt lat="43.875535" lon="12.2829933"><ele>306.0</ele><time>2026-03-22T10:18:35.561Z</time></trkpt><trkpt lat="43.8756317" lon="12.2830833"><ele>306.0</ele><time>2026-03-22T10:18:36.561Z</time></trkpt><trkpt lat="43.8757367" lon="12.28312"><ele>306.0</ele><time>2026-03-22T10:18:37.56Z</time></trkpt><trkpt lat="43.8758533" lon="12.2830867"><ele>305.0</ele><time>2026-03-22T10:18:38.561Z</time></trkpt><trkpt lat="43.8759533" lon="12.282985"><ele>304.0</ele><time>2026-03-22T10:18:39.56Z</time></trkpt><trkpt lat="43.876035" lon="12.2828117"><ele>303.0</ele><time>2026-03-22T10:18:40.56Z</time></trkpt><trkpt lat="43.8760983" lon="12.282605"><ele>302.0</ele><time>2026-03-22T10:18:41.561Z</time></trkpt><trkpt lat="43.8761683" lon="12.2823717"><ele>302.33333333333337</ele><time>2026-03-22T10:18:42.561Z</time></trkpt><trkpt lat="43.8762633" lon="12.282155"><ele>302.6666666666667</ele><time>2026-03-22T10:18:43.561Z</time></trkpt><trkpt lat="43.876395" lon="12.28197"><ele>303.0</ele><time>2026-03-22T10:18:44.561Z</time></trkpt><trkpt lat="43.8765483" lon="12.2818167"><ele>303.0</ele><time>2026-03-22T10:18:45.561Z</time></trkpt><trkpt lat="43.8766867" lon="12.2816733"><ele>303.0</ele><time>2026-03-22T10:18:46.56Z</time></trkpt><trkpt lat="43.8768133" lon="12.281535"><ele>303.0</ele><time>2026-03-22T10:18:47.561Z</time></trkpt><trkpt lat="43.8769133" lon="12.281395"><ele>303.75</ele><time>2026-03-22T10:18:48.561Z</time></trkpt><trkpt lat="43.87697" lon="12.2812133"><ele>304.5</ele><time>2026-03-22T10:18:49.56Z</time></trkpt><trkpt lat="43.8769883" lon="12.2810217"><ele>305.25</ele><time>2026-03-22T10:18:50.56Z</time></trkpt><trkpt lat="43.877" lon="12.2808433"><ele>306.0</ele><time>2026-03-22T10:18:51.56Z</time></trkpt><trkpt lat="43.8770367" lon="12.2806833"><ele>309.0</ele><time>2026-03-22T10:18:52.56Z</time></trkpt><trkpt lat="43.87712" lon="12.2805417"><ele>312.0</ele><time>2026-03-22T10:18:53.561Z</time></trkpt><trkpt lat="43.8772383" lon="12.280445"><ele>315.0</ele><time>2026-03-22T10:18:54.561Z</time></trkpt><trkpt lat="43.877385" lon="12.2803967"><ele>318.0</ele><time>2026-03-22T10:18:55.561Z</time></trkpt><trkpt lat="43.8775433" lon="12.2804"><ele>317.3333333333333</ele><time>2026-03-22T10:18:56.561Z</time></trkpt><trkpt lat="43.87771" lon="12.2804567"><ele>316.66666666666663</ele><time>2026-03-22T10:18:57.56Z</time></trkpt><trkpt lat="43.8778833" lon="12.280545"><ele>316.0</ele><time>2026-03-22T10:18:58.56Z</time></trkpt><trkpt lat="43.8780683" lon="12.2806633"><ele>316.0</ele><time>2026-03-22T10:18:59.561Z</time></trkpt><trkpt lat="43.8782617" lon="12.2808033"><ele>316.0</ele><time>2026-03-22T10:19:00.56Z</time></trkpt><trkpt lat="43.8784583" lon="12.2809417"><ele>316.0</ele><time>2026-03-22T10:19:01.561Z</time></trkpt><trkpt lat="43.8786617" lon="12.2810833"><ele>324.5</ele><time>2026-03-22T10:19:02.561Z</time></trkpt><trkpt lat="43.8788833" lon="12.2812"><ele>333.0</ele><time>2026-03-22T10:19:03.561Z</time></trkpt><trkpt lat="43.8791233" lon="12.281295"><ele>338.0</ele><time>2026-03-22T10:19:04.562Z</time></trkpt><trkpt lat="43.87936" lon="12.2814"><ele>343.0</ele><time>2026-03-22T10:19:05.562Z</time></trkpt><trkpt lat="43.8795917" lon="12.28148"><ele>341.66666666666663</ele><time>2026-03-22T10:19:06.562Z</time></trkpt><trkpt lat="43.8798033" lon="12.2815683"><ele>340.3333333333333</ele><time>2026-03-22T10:19:07.562Z</time></trkpt><trkpt lat="43.8800017" lon="12.2816517"><ele>339.0</ele><time>2026-03-22T10:19:08.561Z</time></trkpt><trkpt lat="43.8801933" lon="12.2817367"><ele>339.0</ele><time>2026-03-22T10:19:09.561Z</time></trkpt><trkpt lat="43.8803717" lon="12.2818417"><ele>339.0</ele><time>2026-03-22T10:19:10.561Z</time></trkpt><trkpt lat="43.8805317" lon="12.2819667"><ele>339.0</ele><time>2026-03-22T10:19:11.562Z</time></trkpt><trkpt lat="43.8806717" lon="12.28213"><ele>338.3333333333333</ele><time>2026-03-22T10:19:12.562Z</time></trkpt><trkpt lat="43.8807983" lon="12.28232"><ele>337.66666666666663</ele><time>2026-03-22T10:19:13.562Z</time></trkpt><trkpt lat="43.880945" lon="12.2825267"><ele>337.0</ele><time>2026-03-22T10:19:14.562Z</time></trkpt><trkpt lat="43.8810783" lon="12.2827533"><ele>337.0</ele><time>2026-03-22T10:19:15.562Z</time></trkpt><trkpt lat="43.881205" lon="12.2829733"><ele>337.0</ele><time>2026-03-22T10:19:16.562Z</time></trkpt><trkpt lat="43.881325" lon="12.2831667"><ele>337.0</ele><time>2026-03-22T10:19:17.561Z</time></trkpt><trkpt lat="43.8814317" lon="12.2833483"><ele>334.66666666666663</ele><time>2026-03-22T10:19:18.562Z</time></trkpt><trkpt lat="43.881545" lon="12.2835067"><ele>332.3333333333333</ele><time>2026-03-22T10:19:19.562Z</time></trkpt><trkpt lat="43.8816567" lon="12.2836483"><ele>330.0</ele><time>2026-03-22T10:19:20.562Z</time></trkpt><trkpt lat="43.88179" lon="12.2837533"><ele>330.0</ele><time>2026-03-22T10:19:21.561Z</time></trkpt><trkpt lat="43.8819467" lon="12.283835"><ele>330.0</ele><time>2026-03-22T10:19:22.562Z</time></trkpt><trkpt lat="43.882125" lon="12.2838833"><ele>330.0</ele><time>2026-03-22T10:19:23.561Z</time></trkpt><trkpt lat="43.8823183" lon="12.283895"><ele>330.0</ele><time>2026-03-22T10:19:24.562Z</time></trkpt><trkpt lat="43.8824983" lon="12.283895"><ele>330.0</ele><time>2026-03-22T10:19:25.562Z</time></trkpt><trkpt lat="43.882685" lon="12.2838367"><ele>330.0</ele><time>2026-03-22T10:19:26.562Z</time></trkpt><trkpt lat="43.882875" lon="12.28372"><ele>326.3333333333333</ele><time>2026-03-22T10:19:27.562Z</time></trkpt><trkpt lat="43.8830633" lon="12.283575"><ele>322.66666666666663</ele><time>2026-03-22T10:19:28.561Z</time></trkpt><trkpt lat="43.8832417" lon="12.28343"><ele>319.0</ele><time>2026-03-22T10:19:29.562Z</time></trkpt><trkpt lat="43.883405" lon="12.2832883"><ele>321.3333333333333</ele><time>2026-03-22T10:19:30.561Z</time></trkpt><trkpt lat="43.8835517" lon="12.2831767"><ele>323.6666666666667</ele><time>2026-03-22T10:19:31.562Z</time></trkpt><trkpt lat="43.8836967" lon="12.28309"><ele>326.0</ele><time>2026-03-22T10:19:32.561Z</time></trkpt><trkpt lat="43.8838583" lon="12.283055"><ele>326.0</ele><time>2026-03-22T10:19:33.562Z</time></trkpt><trkpt lat="43.8840367" lon="12.283085"><ele>326.0</ele><time>2026-03-22T10:19:34.562Z</time></trkpt><trkpt lat="43.884225" lon="12.2831583"><ele>326.0</ele><time>2026-03-22T10:19:35.562Z</time></trkpt><trkpt lat="43.8844033" lon="12.2832433"><ele>321.33333333333337</ele><time>2026-03-22T10:19:36.562Z</time></trkpt><trkpt lat="43.884575" lon="12.2833367"><ele>316.6666666666667</ele><time>2026-03-22T10:19:37.562Z</time></trkpt><trkpt lat="43.88473" lon="12.2834483"><ele>312.0</ele><time>2026-03-22T10:19:38.562Z</time></trkpt><trkpt lat="43.8848633" lon="12.28359"><ele>312.0</ele><time>2026-03-22T10:19:39.561Z</time></trkpt><trkpt lat="43.88497" lon="12.2837617"><ele>312.0</ele><time>2026-03-22T10:19:40.561Z</time></trkpt><trkpt lat="43.885055" lon="12.28394"><ele>312.0</ele><time>2026-03-22T10:19:41.562Z</time></trkpt><trkpt lat="43.885105" lon="12.28412"><ele>309.25</ele><time>2026-03-22T10:19:42.562Z</time></trkpt><trkpt lat="43.885155" lon="12.28429"><ele>306.5</ele><time>2026-03-22T10:19:43.561Z</time></trkpt><trkpt lat="43.8852283" lon="12.2844217"><ele>303.75</ele><time>2026-03-22T10:19:44.562Z</time></trkpt><trkpt lat="43.8853367" lon="12.2845083"><ele>301.0</ele><time>2026-03-22T10:19:45.562Z</time></trkpt><trkpt lat="43.88547" lon="12.28457"><ele>301.0</ele><time>2026-03-22T10:19:46.561Z</time></trkpt><trkpt lat="43.885615" lon="12.2845967"><ele>301.0</ele><time>2026-03-22T10:19:47.561Z</time></trkpt><trkpt lat="43.885755" lon="12.2846167"><ele>301.0</ele><time>2026-03-22T10:19:48.562Z</time></trkpt><trkpt lat="43.8858833" lon="12.2846483"><ele>301.0</ele><time>2026-03-22T10:19:49.562Z</time></trkpt><trkpt lat="43.8860267" lon="12.28473"><ele>298.3333333333333</ele><time>2026-03-22T10:19:50.561Z</time></trkpt><trkpt lat="43.88616" lon="12.2848567"><ele>295.6666666666667</ele><time>2026-03-22T10:19:51.561Z</time></trkpt><trkpt lat="43.886285" lon="12.2850233"><ele>293.0</ele><time>2026-03-22T10:19:52.562Z</time></trkpt><trkpt lat="43.8864083" lon="12.285185"><ele>293.0</ele><time>2026-03-22T10:19:53.562Z</time></trkpt><trkpt lat="43.8865317" lon="12.28532"><ele>293.0</ele><time>2026-03-22T10:19:54.562Z</time></trkpt><trkpt lat="43.88666" lon="12.2854183"><ele>293.0</ele><time>2026-03-22T10:19:55.561Z</time></trkpt><trkpt lat="43.8868033" lon="12.2854783"><ele>292.6666666666667</ele><time>2026-03-22T10:19:56.561Z</time></trkpt><trkpt lat="43.8869467" lon="12.2854883"><ele>292.3333333333333</ele><time>2026-03-22T10:19:57.562Z</time></trkpt><trkpt lat="43.8871117" lon="12.2854717"><ele>292.0</ele><time>2026-03-22T10:19:58.562Z</time></trkpt><trkpt lat="43.8872517" lon="12.285435"><ele>292.0</ele><time>2026-03-22T10:19:59.562Z</time></trkpt><trkpt lat="43.8873767" lon="12.285415"><ele>292.0</ele><time>2026-03-22T10:20:00.562Z</time></trkpt><trkpt lat="43.887505" lon="12.2854633"><ele>292.0</ele><time>2026-03-22T10:20:01.562Z</time></trkpt><trkpt lat="43.88764" lon="12.285565"><ele>292.0</ele><time>2026-03-22T10:20:02.562Z</time></trkpt><trkpt lat="43.8877767" lon="12.2857133"><ele>290.3333333333333</ele><time>2026-03-22T10:20:03.562Z</time></trkpt><trkpt lat="43.88791" lon="12.28589"><ele>288.6666666666667</ele><time>2026-03-22T10:20:04.562Z</time></trkpt><trkpt lat="43.8880333" lon="12.2860467"><ele>287.0</ele><time>2026-03-22T10:20:05.562Z</time></trkpt><trkpt lat="43.8881433" lon="12.2861817"><ele>287.0</ele><time>2026-03-22T10:20:06.562Z</time></trkpt><trkpt lat="43.8882333" lon="12.2863283"><ele>287.0</ele><time>2026-03-22T10:20:07.561Z</time></trkpt><trkpt lat="43.88831" lon="12.2864833"><ele>287.0</ele><time>2026-03-22T10:20:08.562Z</time></trkpt><trkpt lat="43.8883483" lon="12.28664"><ele>287.0</ele><time>2026-03-22T10:20:09.562Z</time></trkpt><trkpt lat="43.88836" lon="12.28679"><ele>286.75</ele><time>2026-03-22T10:20:10.561Z</time></trkpt><trkpt lat="43.88837" lon="12.2869333"><ele>286.5</ele><time>2026-03-22T10:20:11.561Z</time></trkpt><trkpt lat="43.8883933" lon="12.2870867"><ele>286.25</ele><time>2026-03-22T10:20:12.562Z</time></trkpt><trkpt lat="43.8884233" lon="12.2872583"><ele>286.0</ele><time>2026-03-22T10:20:13.561Z</time></trkpt><trkpt lat="43.8884683" lon="12.2874483"><ele>287.25</ele><time>2026-03-22T10:20:14.561Z</time></trkpt><trkpt lat="43.8885333" lon="12.2876167"><ele>288.5</ele><time>2026-03-22T10:20:15.562Z</time></trkpt><trkpt lat="43.8886183" lon="12.28775"><ele>289.75</ele><time>2026-03-22T10:20:16.561Z</time></trkpt><trkpt lat="43.8887333" lon="12.2878567"><ele>291.0</ele><time>2026-03-22T10:20:17.562Z</time></trkpt><trkpt lat="43.888855" lon="12.2879517"><ele>291.0</ele><time>2026-03-22T10:20:18.562Z</time></trkpt><trkpt lat="43.88899" lon="12.2880283"><ele>291.0</ele><time>2026-03-22T10:20:19.561Z</time></trkpt><trkpt lat="43.8891267" lon="12.2880867"><ele>291.0</ele><time>2026-03-22T10:20:20.561Z</time></trkpt><trkpt lat="43.8892717" lon="12.2881433"><ele>291.0</ele><time>2026-03-22T10:20:21.562Z</time></trkpt><trkpt lat="43.8894233" lon="12.2882017"><ele>290.75</ele><time>2026-03-22T10:20:22.561Z</time></trkpt><trkpt lat="43.889565" lon="12.2882467"><ele>290.5</ele><time>2026-03-22T10:20:23.562Z</time></trkpt><trkpt lat="43.8897083" lon="12.2882967"><ele>290.25</ele><time>2026-03-22T10:20:24.562Z</time></trkpt><trkpt lat="43.8898433" lon="12.28835"><ele>290.0</ele><time>2026-03-22T10:20:25.562Z</time></trkpt><trkpt lat="43.889975" lon="12.288385"><ele>291.25</ele><time>2026-03-22T10:20:26.562Z</time></trkpt><trkpt lat="43.8900967" lon="12.2884367"><ele>292.5</ele><time>2026-03-22T10:20:27.562Z</time></trkpt><trkpt lat="43.8902217" lon="12.2884717"><ele>293.75</ele><time>2026-03-22T10:20:28.562Z</time></trkpt><trkpt lat="43.89034" lon="12.2885233"><ele>295.0</ele><time>2026-03-22T10:20:29.562Z</time></trkpt><trkpt lat="43.8904633" lon="12.2885717"><ele>295.0</ele><time>2026-03-22T10:20:30.562Z</time></trkpt><trkpt lat="43.890575" lon="12.28861"><ele>295.0</ele><time>2026-03-22T10:20:31.562Z</time></trkpt><trkpt lat="43.8906917" lon="12.2886517"><ele>295.0</ele><time>2026-03-22T10:20:32.562Z</time></trkpt><trkpt lat="43.890815" lon="12.2887"><ele>295.0</ele><time>2026-03-22T10:20:33.561Z</time></trkpt><trkpt lat="43.89094" lon="12.2887483"><ele>296.0</ele><time>2026-03-22T10:20:34.561Z</time></trkpt><trkpt lat="43.8910583" lon="12.288795"><ele>297.0</ele><time>2026-03-22T10:20:35.562Z</time></trkpt><trkpt lat="43.891175" lon="12.288845"><ele>298.0</ele><time>2026-03-22T10:20:36.562Z</time></trkpt><trkpt lat="43.8912883" lon="12.2888783"><ele>299.0</ele><time>2026-03-22T10:20:37.562Z</time></trkpt><trkpt lat="43.891395" lon="12.2889217"><ele>297.8</ele><time>2026-03-22T10:20:38.562Z</time></trkpt><trkpt lat="43.8915033" lon="12.28896"><ele>296.59999999999997</ele><time>2026-03-22T10:20:39.561Z</time></trkpt><trkpt lat="43.8915983" lon="12.2890033"><ele>295.4</ele><time>2026-03-22T10:20:40.562Z</time></trkpt><trkpt lat="43.8916917" lon="12.2890367"><ele>294.2</ele><time>2026-03-22T10:20:41.562Z</time></trkpt><trkpt lat="43.8917817" lon="12.28906"><ele>293.0</ele><time>2026-03-22T10:20:42.562Z</time></trkpt><trkpt lat="43.8918683" lon="12.2890967"><ele>293.0</ele><time>2026-03-22T10:20:43.561Z</time></trkpt><trkpt lat="43.891965" lon="12.28912"><ele>293.0</ele><time>2026-03-22T10:20:44.562Z</time></trkpt><trkpt lat="43.8920633" lon="12.28916"><ele>293.0</ele><time>2026-03-22T10:20:45.562Z</time></trkpt><trkpt lat="43.8921717" lon="12.2891983"><ele>293.0</ele><time>2026-03-22T10:20:46.562Z</time></trkpt><trkpt lat="43.89229" lon="12.289235"><ele>293.0</ele><time>2026-03-22T10:20:47.562Z</time></trkpt><trkpt lat="43.8924017" lon="12.2892767"><ele>293.0</ele><time>2026-03-22T10:20:48.561Z</time></trkpt><trkpt lat="43.89251" lon="12.2893133"><ele>293.0</ele><time>2026-03-22T10:20:49.561Z</time></trkpt><trkpt lat="43.892615" lon="12.289355"><ele>293.0</ele><time>2026-03-22T10:20:50.562Z</time></trkpt><trkpt lat="43.892725" lon="12.2893933"><ele>293.0</ele><time>2026-03-22T10:20:51.561Z</time></trkpt><trkpt lat="43.892835" lon="12.2894333"><ele>293.0</ele><time>2026-03-22T10:20:52.562Z</time></trkpt><trkpt lat="43.8929517" lon="12.2894667"><ele>293.0</ele><time>2026-03-22T10:20:53.562Z</time></trkpt><trkpt lat="43.8930583" lon="12.2894967"><ele>293.0</ele><time>2026-03-22T10:20:54.562Z</time></trkpt><trkpt lat="43.8931467" lon="12.28952"><ele>293.0</ele><time>2026-03-22T10:20:55.562Z</time></trkpt><trkpt lat="43.89324" lon="12.2895133"><ele>293.0</ele><time>2026-03-22T10:20:56.562Z</time></trkpt><trkpt lat="43.8933267" lon="12.2894983"><ele>293.0</ele><time>2026-03-22T10:20:57.562Z</time></trkpt><trkpt lat="43.8934067" lon="12.2894783"><ele>292.5</ele><time>2026-03-22T10:20:58.562Z</time></trkpt><trkpt lat="43.8934817" lon="12.2894567"><ele>292.0</ele><time>2026-03-22T10:20:59.562Z</time></trkpt><trkpt lat="43.8935517" lon="12.2894367"><ele>291.5</ele><time>2026-03-22T10:21:00.562Z</time></trkpt><trkpt lat="43.89362" lon="12.2894167"><ele>291.0</ele><time>2026-03-22T10:21:01.562Z</time></trkpt><trkpt lat="43.89369" lon="12.2894033"><ele>290.5</ele><time>2026-03-22T10:21:02.562Z</time></trkpt><trkpt lat="43.8937567" lon="12.2893933"><ele>290.0</ele><time>2026-03-22T10:21:03.562Z</time></trkpt><trkpt lat="43.893865" lon="12.2893567"><ele>290.0</ele><time>2026-03-22T10:21:05.561Z</time></trkpt><trkpt lat="43.8939267" lon="12.2893317"><ele>290.0</ele><time>2026-03-22T10:21:06.562Z</time></trkpt><trkpt lat="43.8939883" lon="12.2893117"><ele>290.0</ele><time>2026-03-22T10:21:07.562Z</time></trkpt><trkpt lat="43.894055" lon="12.2893"><ele>290.0</ele><time>2026-03-22T10:21:08.561Z</time></trkpt><trkpt lat="43.894125" lon="12.2892783"><ele>290.0</ele><time>2026-03-22T10:21:09.561Z</time></trkpt><trkpt lat="43.8941983" lon="12.289265"><ele>290.0</ele><time>2026-03-22T10:21:10.562Z</time></trkpt><trkpt lat="43.8942633" lon="12.2892583"><ele>290.0</ele><time>2026-03-22T10:21:11.561Z</time></trkpt><trkpt lat="43.8943867" lon="12.289235"><ele>289.4</ele><time>2026-03-22T10:21:13.561Z</time></trkpt><trkpt lat="43.89451" lon="12.2891967"><ele>288.8</ele><time>2026-03-22T10:21:15.562Z</time></trkpt><trkpt lat="43.8945817" lon="12.2891617"><ele>288.2</ele><time>2026-03-22T10:21:16.561Z</time></trkpt><trkpt lat="43.8946683" lon="12.2891167"><ele>287.6</ele><time>2026-03-22T10:21:17.561Z</time></trkpt><trkpt lat="43.8947467" lon="12.2890533"><ele>287.0</ele><time>2026-03-22T10:21:18.561Z</time></trkpt><trkpt lat="43.8948217" lon="12.288985"><ele>287.2</ele><time>2026-03-22T10:21:19.561Z</time></trkpt><trkpt lat="43.8949" lon="12.288905"><ele>287.4</ele><time>2026-03-22T10:21:20.562Z</time></trkpt><trkpt lat="43.8949833" lon="12.2887967"><ele>287.6</ele><time>2026-03-22T10:21:21.561Z</time></trkpt><trkpt lat="43.8950467" lon="12.2886783"><ele>287.8</ele><time>2026-03-22T10:21:22.562Z</time></trkpt><trkpt lat="43.8950933" lon="12.288555"><ele>288.0</ele><time>2026-03-22T10:21:23.561Z</time></trkpt><trkpt lat="43.89514" lon="12.28842"><ele>287.0</ele><time>2026-03-22T10:21:24.562Z</time></trkpt><trkpt lat="43.89518" lon="12.2882983"><ele>286.0</ele><time>2026-03-22T10:21:25.562Z</time></trkpt><trkpt lat="43.8952017" lon="12.2881733"><ele>285.0</ele><time>2026-03-22T10:21:26.562Z</time></trkpt><trkpt lat="43.8952333" lon="12.2880767"><ele>284.0</ele><time>2026-03-22T10:21:27.562Z</time></trkpt><trkpt lat="43.895285" lon="12.28799"><ele>283.0</ele><time>2026-03-22T10:21:28.562Z</time></trkpt><trkpt lat="43.89535" lon="12.2879067"><ele>282.0</ele><time>2026-03-22T10:21:29.561Z</time></trkpt><trkpt lat="43.8954417" lon="12.2878233"><ele>282.0</ele><time>2026-03-22T10:21:30.562Z</time></trkpt><trkpt lat="43.89554" lon="12.2877417"><ele>282.0</ele><time>2026-03-22T10:21:31.562Z</time></trkpt><trkpt lat="43.8956367" lon="12.2876517"><ele>282.0</ele><time>2026-03-22T10:21:32.561Z</time></trkpt><trkpt lat="43.8957333" lon="12.287585"><ele>282.0</ele><time>2026-03-22T10:21:33.561Z</time></trkpt><trkpt lat="43.8958533" lon="12.2875783"><ele>281.75</ele><time>2026-03-22T10:21:34.561Z</time></trkpt><trkpt lat="43.89598" lon="12.2876167"><ele>281.5</ele><time>2026-03-22T10:21:35.561Z</time></trkpt><trkpt lat="43.8961067" lon="12.2876833"><ele>281.25</ele><time>2026-03-22T10:21:36.562Z</time></trkpt><trkpt lat="43.896225" lon="12.2877983"><ele>281.0</ele><time>2026-03-22T10:21:37.562Z</time></trkpt><trkpt lat="43.8963433" lon="12.2879117"><ele>281.0</ele><time>2026-03-22T10:21:38.562Z</time></trkpt><trkpt lat="43.89647" lon="12.28801"><ele>281.0</ele><time>2026-03-22T10:21:39.562Z</time></trkpt><trkpt lat="43.8965883" lon="12.2881183"><ele>281.0</ele><time>2026-03-22T10:21:40.561Z</time></trkpt><trkpt lat="43.896705" lon="12.28823"><ele>281.0</ele><time>2026-03-22T10:21:41.562Z</time></trkpt><trkpt lat="43.8968183" lon="12.2883417"><ele>280.25</ele><time>2026-03-22T10:21:42.562Z</time></trkpt><trkpt lat="43.89694" lon="12.2884417"><ele>279.5</ele><time>2026-03-22T10:21:43.562Z</time></trkpt><trkpt lat="43.8970583" lon="12.2885433"><ele>278.75</ele><time>2026-03-22T10:21:44.561Z</time></trkpt><trkpt lat="43.8971467" lon="12.2886467"><ele>278.0</ele><time>2026-03-22T10:21:45.561Z</time></trkpt><trkpt lat="43.8972433" lon="12.28874"><ele>278.0</ele><time>2026-03-22T10:21:46.562Z</time></trkpt><trkpt lat="43.8973367" lon="12.28882"><ele>278.0</ele><time>2026-03-22T10:21:47.562Z</time></trkpt><trkpt lat="43.8974233" lon="12.2888933"><ele>278.0</ele><time>2026-03-22T10:21:48.561Z</time></trkpt><trkpt lat="43.8974917" lon="12.2889617"><ele>278.0</ele><time>2026-03-22T10:21:49.562Z</time></trkpt><trkpt lat="43.897555" lon="12.2890117"><ele>278.0</ele><time>2026-03-22T10:21:50.562Z</time></trkpt><trkpt lat="43.8976117" lon="12.2890567"><ele>278.0</ele><time>2026-03-22T10:21:51.562Z</time></trkpt><trkpt lat="43.897725" lon="12.2890833"><ele>277.33333333333337</ele><time>2026-03-22T10:21:53.562Z</time></trkpt><trkpt lat="43.897785" lon="12.2890467"><ele>276.6666666666667</ele><time>2026-03-22T10:21:54.562Z</time></trkpt><trkpt lat="43.8978567" lon="12.2889967"><ele>276.0</ele><time>2026-03-22T10:21:55.561Z</time></trkpt><trkpt lat="43.8979333" lon="12.2889467"><ele>275.3333333333333</ele><time>2026-03-22T10:21:56.561Z</time></trkpt><trkpt lat="43.8980083" lon="12.2889067"><ele>274.66666666666663</ele><time>2026-03-22T10:21:57.562Z</time></trkpt><trkpt lat="43.8980983" lon="12.2889017"><ele>274.0</ele><time>2026-03-22T10:21:58.562Z</time></trkpt><trkpt lat="43.89819" lon="12.288895"><ele>274.0</ele><time>2026-03-22T10:21:59.562Z</time></trkpt><trkpt lat="43.898295" lon="12.2888917"><ele>274.0</ele><time>2026-03-22T10:22:00.562Z</time></trkpt><trkpt lat="43.8984033" lon="12.2888983"><ele>274.0</ele><time>2026-03-22T10:22:01.562Z</time></trkpt><trkpt lat="43.898515" lon="12.288925"><ele>274.0</ele><time>2026-03-22T10:22:02.562Z</time></trkpt><trkpt lat="43.8986267" lon="12.2889767"><ele>274.0</ele><time>2026-03-22T10:22:03.562Z</time></trkpt><trkpt lat="43.898745" lon="12.2890367"><ele>271.25</ele><time>2026-03-22T10:22:04.562Z</time></trkpt><trkpt lat="43.8988517" lon="12.28911"><ele>268.5</ele><time>2026-03-22T10:22:05.562Z</time></trkpt><trkpt lat="43.898945" lon="12.2891883"><ele>265.75</ele><time>2026-03-22T10:22:06.561Z</time></trkpt><trkpt lat="43.8990383" lon="12.2892817"><ele>263.0</ele><time>2026-03-22T10:22:07.561Z</time></trkpt><trkpt lat="43.8991183" lon="12.2893883"><ele>263.0</ele><time>2026-03-22T10:22:08.562Z</time></trkpt><trkpt lat="43.89919" lon="12.2894967"><ele>263.0</ele><time>2026-03-22T10:22:09.562Z</time></trkpt><trkpt lat="43.8992583" lon="12.2896083"><ele>263.0</ele><time>2026-03-22T10:22:10.562Z</time></trkpt><trkpt lat="43.899325" lon="12.2897217"><ele>263.0</ele><time>2026-03-22T10:22:11.561Z</time></trkpt><trkpt lat="43.8993917" lon="12.289835"><ele>263.0</ele><time>2026-03-22T10:22:12.562Z</time></trkpt><trkpt lat="43.8994567" lon="12.2899583"><ele>263.2</ele><time>2026-03-22T10:22:13.562Z</time></trkpt><trkpt lat="43.8995233" lon="12.29008"><ele>263.4</ele><time>2026-03-22T10:22:14.561Z</time></trkpt><trkpt lat="43.89959" lon="12.2901983"><ele>263.59999999999997</ele><time>2026-03-22T10:22:15.561Z</time></trkpt><trkpt lat="43.8996517" lon="12.2903117"><ele>263.8</ele><time>2026-03-22T10:22:16.562Z</time></trkpt><trkpt lat="43.8997183" lon="12.29042"><ele>264.0</ele><time>2026-03-22T10:22:17.562Z</time></trkpt><trkpt lat="43.8997917" lon="12.290535"><ele>262.75</ele><time>2026-03-22T10:22:18.561Z</time></trkpt><trkpt lat="43.8998717" lon="12.29065"><ele>261.5</ele><time>2026-03-22T10:22:19.561Z</time></trkpt><trkpt lat="43.8999417" lon="12.2907717"><ele>260.25</ele><time>2026-03-22T10:22:20.562Z</time></trkpt><trkpt lat="43.9000033" lon="12.2908967"><ele>259.0</ele><time>2026-03-22T10:22:21.562Z</time></trkpt><trkpt lat="43.9000683" lon="12.2910283"><ele>259.25</ele><time>2026-03-22T10:22:22.562Z</time></trkpt><trkpt lat="43.9001267" lon="12.2911583"><ele>259.5</ele><time>2026-03-22T10:22:23.562Z</time></trkpt><trkpt lat="43.9001667" lon="12.291305"><ele>259.75</ele><time>2026-03-22T10:22:24.561Z</time></trkpt><trkpt lat="43.9001967" lon="12.2914633"><ele>260.0</ele><time>2026-03-22T10:22:25.561Z</time></trkpt><trkpt lat="43.9002133" lon="12.2916467"><ele>260.0</ele><time>2026-03-22T10:22:26.562Z</time></trkpt><trkpt lat="43.900225" lon="12.29182"><ele>260.0</ele><time>2026-03-22T10:22:27.562Z</time></trkpt><trkpt lat="43.9002333" lon="12.29199"><ele>260.0</ele><time>2026-03-22T10:22:28.562Z</time></trkpt><trkpt lat="43.900245" lon="12.2921517"><ele>260.0</ele><time>2026-03-22T10:22:29.562Z</time></trkpt><trkpt lat="43.90026" lon="12.2923183"><ele>258.6666666666667</ele><time>2026-03-22T10:22:30.562Z</time></trkpt><trkpt lat="43.9002767" lon="12.292515"><ele>257.3333333333333</ele><time>2026-03-22T10:22:31.562Z</time></trkpt><trkpt lat="43.9002867" lon="12.2927467"><ele>256.0</ele><time>2026-03-22T10:22:32.561Z</time></trkpt><trkpt lat="43.9002983" lon="12.29297"><ele>254.66666666666666</ele><time>2026-03-22T10:22:33.562Z</time></trkpt><trkpt lat="43.9003133" lon="12.2931933"><ele>253.33333333333331</ele><time>2026-03-22T10:22:34.563Z</time></trkpt><trkpt lat="43.900365" lon="12.2934"><ele>252.0</ele><time>2026-03-22T10:22:35.562Z</time></trkpt><trkpt lat="43.9004733" lon="12.2936"><ele>252.0</ele><time>2026-03-22T10:22:36.562Z</time></trkpt><trkpt lat="43.9006183" lon="12.2937817"><ele>252.0</ele><time>2026-03-22T10:22:37.563Z</time></trkpt><trkpt lat="43.900795" lon="12.2939567"><ele>252.0</ele><time>2026-03-22T10:22:38.562Z</time></trkpt><trkpt lat="43.9009683" lon="12.29414"><ele>250.33333333333331</ele><time>2026-03-22T10:22:39.563Z</time></trkpt><trkpt lat="43.9011317" lon="12.294315"><ele>248.66666666666666</ele><time>2026-03-22T10:22:40.563Z</time></trkpt><trkpt lat="43.9012867" lon="12.294475"><ele>247.0</ele><time>2026-03-22T10:22:41.562Z</time></trkpt><trkpt lat="43.90144" lon="12.2946283"><ele>244.66666666666666</ele><time>2026-03-22T10:22:42.563Z</time></trkpt><trkpt lat="43.9015867" lon="12.294765"><ele>242.33333333333331</ele><time>2026-03-22T10:22:43.563Z</time></trkpt><trkpt lat="43.9017617" lon="12.2948733"><ele>240.0</ele><time>2026-03-22T10:22:44.562Z</time></trkpt><trkpt lat="43.9019633" lon="12.2949517"><ele>240.0</ele><time>2026-03-22T10:22:45.563Z</time></trkpt><trkpt lat="43.9021717" lon="12.295005"><ele>240.0</ele><time>2026-03-22T10:22:46.563Z</time></trkpt><trkpt lat="43.9023733" lon="12.29505"><ele>240.0</ele><time>2026-03-22T10:22:47.563Z</time></trkpt><trkpt lat="43.9025517" lon="12.2950883"><ele>239.33333333333331</ele><time>2026-03-22T10:22:48.563Z</time></trkpt><trkpt lat="43.9027217" lon="12.2951117"><ele>238.66666666666666</ele><time>2026-03-22T10:22:49.563Z</time></trkpt><trkpt lat="43.9028917" lon="12.2951217"><ele>238.0</ele><time>2026-03-22T10:22:50.562Z</time></trkpt><trkpt lat="43.9030517" lon="12.2950767"><ele>238.0</ele><time>2026-03-22T10:22:51.562Z</time></trkpt><trkpt lat="43.903195" lon="12.2949617"><ele>238.0</ele><time>2026-03-22T10:22:52.562Z</time></trkpt><trkpt lat="43.9033183" lon="12.294785"><ele>238.0</ele><time>2026-03-22T10:22:53.562Z</time></trkpt><trkpt lat="43.9034433" lon="12.29457"><ele>237.66666666666666</ele><time>2026-03-22T10:22:54.562Z</time></trkpt><trkpt lat="43.9035717" lon="12.2943217"><ele>237.33333333333331</ele><time>2026-03-22T10:22:55.562Z</time></trkpt><trkpt lat="43.9037133" lon="12.2940767"><ele>237.0</ele><time>2026-03-22T10:22:56.563Z</time></trkpt><trkpt lat="43.9038567" lon="12.2938667"><ele>238.0</ele><time>2026-03-22T10:22:57.562Z</time></trkpt><trkpt lat="43.9040033" lon="12.2936817"><ele>239.0</ele><time>2026-03-22T10:22:58.563Z</time></trkpt><trkpt lat="43.9041467" lon="12.2935283"><ele>240.0</ele><time>2026-03-22T10:22:59.563Z</time></trkpt><trkpt lat="43.9042967" lon="12.293405"><ele>240.0</ele><time>2026-03-22T10:23:00.563Z</time></trkpt><trkpt lat="43.9044567" lon="12.293335"><ele>240.0</ele><time>2026-03-22T10:23:01.562Z</time></trkpt><trkpt lat="43.9046333" lon="12.2932967"><ele>240.0</ele><time>2026-03-22T10:23:02.563Z</time></trkpt><trkpt lat="43.90482" lon="12.2933183"><ele>240.0</ele><time>2026-03-22T10:23:03.563Z</time></trkpt><trkpt lat="43.9049983" lon="12.2933783"><ele>240.0</ele><time>2026-03-22T10:23:04.563Z</time></trkpt><trkpt lat="43.9051667" lon="12.29345"><ele>240.0</ele><time>2026-03-22T10:23:05.563Z</time></trkpt><trkpt lat="43.9053333" lon="12.2935083"><ele>240.66666666666669</ele><time>2026-03-22T10:23:06.563Z</time></trkpt><trkpt lat="43.905495" lon="12.2935583"><ele>241.33333333333334</ele><time>2026-03-22T10:23:07.562Z</time></trkpt><trkpt lat="43.9056467" lon="12.2936017"><ele>242.0</ele><time>2026-03-22T10:23:08.562Z</time></trkpt><trkpt lat="43.9057883" lon="12.293635"><ele>241.75</ele><time>2026-03-22T10:23:09.563Z</time></trkpt><trkpt lat="43.9059317" lon="12.2936617"><ele>241.5</ele><time>2026-03-22T10:23:10.562Z</time></trkpt><trkpt lat="43.9060733" lon="12.2936817"><ele>241.25</ele><time>2026-03-22T10:23:11.562Z</time></trkpt><trkpt lat="43.9062083" lon="12.2937017"><ele>241.0</ele><time>2026-03-22T10:23:12.563Z</time></trkpt><trkpt lat="43.9063483" lon="12.293725"><ele>241.0</ele><time>2026-03-22T10:23:13.563Z</time></trkpt><trkpt lat="43.9064733" lon="12.2937483"><ele>241.0</ele><time>2026-03-22T10:23:14.563Z</time></trkpt><trkpt lat="43.9065967" lon="12.29378"><ele>241.0</ele><time>2026-03-22T10:23:15.563Z</time></trkpt><trkpt lat="43.9067233" lon="12.2938"><ele>241.0</ele><time>2026-03-22T10:23:16.563Z</time></trkpt><trkpt lat="43.906855" lon="12.2938267"><ele>240.25</ele><time>2026-03-22T10:23:17.563Z</time></trkpt><trkpt lat="43.9069683" lon="12.2938483"><ele>239.5</ele><time>2026-03-22T10:23:18.562Z</time></trkpt><trkpt lat="43.90708" lon="12.2938783"><ele>238.75</ele><time>2026-03-22T10:23:19.563Z</time></trkpt><trkpt lat="43.90719" lon="12.2939017"><ele>238.0</ele><time>2026-03-22T10:23:20.563Z</time></trkpt><trkpt lat="43.90731" lon="12.2939267"><ele>238.25</ele><time>2026-03-22T10:23:21.563Z</time></trkpt><trkpt lat="43.907445" lon="12.2939567"><ele>238.5</ele><time>2026-03-22T10:23:22.562Z</time></trkpt><trkpt lat="43.9075867" lon="12.2939833"><ele>238.75</ele><time>2026-03-22T10:23:23.563Z</time></trkpt><trkpt lat="43.9077117" lon="12.294015"><ele>239.0</ele><time>2026-03-22T10:23:24.562Z</time></trkpt><trkpt lat="43.9078267" lon="12.29404"><ele>239.0</ele><time>2026-03-22T10:23:25.563Z</time></trkpt><trkpt lat="43.907935" lon="12.294075"><ele>238.99999999999997</ele><time>2026-03-22T10:23:26.563Z</time></trkpt><trkpt lat="43.9080417" lon="12.2941033"><ele>238.99999999999997</ele><time>2026-03-22T10:23:27.562Z</time></trkpt><trkpt lat="43.908145" lon="12.2941517"><ele>239.0</ele><time>2026-03-22T10:23:28.563Z</time></trkpt><trkpt lat="43.9082417" lon="12.2942183"><ele>239.0</ele><time>2026-03-22T10:23:29.563Z</time></trkpt><trkpt lat="43.9083217" lon="12.294315"><ele>239.0</ele><time>2026-03-22T10:23:30.562Z</time></trkpt><trkpt lat="43.9083917" lon="12.29443"><ele>239.0</ele><time>2026-03-22T10:23:31.563Z</time></trkpt><trkpt lat="43.9084483" lon="12.2945633"><ele>239.0</ele><time>2026-03-22T10:23:32.563Z</time></trkpt><trkpt lat="43.9085" lon="12.2947067"><ele>239.0</ele><time>2026-03-22T10:23:33.563Z</time></trkpt><trkpt lat="43.9085517" lon="12.2948583"><ele>240.25</ele><time>2026-03-22T10:23:34.563Z</time></trkpt><trkpt lat="43.9085983" lon="12.2950033"><ele>241.5</ele><time>2026-03-22T10:23:35.563Z</time></trkpt><trkpt lat="43.9086483" lon="12.2951583"><ele>242.75</ele><time>2026-03-22T10:23:36.563Z</time></trkpt><trkpt lat="43.9086983" lon="12.295315"><ele>244.0</ele><time>2026-03-22T10:23:37.562Z</time></trkpt><trkpt lat="43.9087567" lon="12.295485"><ele>243.33333333333331</ele><time>2026-03-22T10:23:38.562Z</time></trkpt><trkpt lat="43.9088367" lon="12.2956717"><ele>242.66666666666669</ele><time>2026-03-22T10:23:39.562Z</time></trkpt><trkpt lat="43.908905" lon="12.2959083"><ele>242.0</ele><time>2026-03-22T10:23:40.563Z</time></trkpt><trkpt lat="43.9089833" lon="12.2961617"><ele>241.66666666666669</ele><time>2026-03-22T10:23:41.563Z</time></trkpt><trkpt lat="43.9090483" lon="12.2964317"><ele>241.33333333333331</ele><time>2026-03-22T10:23:42.562Z</time></trkpt><trkpt lat="43.909095" lon="12.29668"><ele>241.0</ele><time>2026-03-22T10:23:43.563Z</time></trkpt><trkpt lat="43.9091417" lon="12.296915"><ele>241.0</ele><time>2026-03-22T10:23:44.562Z</time></trkpt><trkpt lat="43.909225" lon="12.2971283"><ele>241.0</ele><time>2026-03-22T10:23:45.563Z</time></trkpt><trkpt lat="43.909335" lon="12.29735"><ele>241.0</ele><time>2026-03-22T10:23:46.563Z</time></trkpt><trkpt lat="43.9094567" lon="12.2975583"><ele>242.66666666666666</ele><time>2026-03-22T10:23:47.562Z</time></trkpt><trkpt lat="43.909585" lon="12.2977533"><ele>244.33333333333331</ele><time>2026-03-22T10:23:48.563Z</time></trkpt><trkpt lat="43.909725" lon="12.2979383"><ele>246.0</ele><time>2026-03-22T10:23:49.562Z</time></trkpt><trkpt lat="43.9098967" lon="12.2981133"><ele>246.66666666666669</ele><time>2026-03-22T10:23:50.563Z</time></trkpt><trkpt lat="43.9100683" lon="12.2982633"><ele>247.33333333333334</ele><time>2026-03-22T10:23:51.562Z</time></trkpt><trkpt lat="43.9102283" lon="12.2983883"><ele>248.0</ele><time>2026-03-22T10:23:52.562Z</time></trkpt><trkpt lat="43.91037" lon="12.2985067"><ele>248.0</ele><time>2026-03-22T10:23:53.563Z</time></trkpt><trkpt lat="43.9104833" lon="12.2986583"><ele>248.0</ele><time>2026-03-22T10:23:54.563Z</time></trkpt><trkpt lat="43.9105567" lon="12.2988617"><ele>248.0</ele><time>2026-03-22T10:23:55.563Z</time></trkpt><trkpt lat="43.9105917" lon="12.2991033"><ele>247.33333333333334</ele><time>2026-03-22T10:23:56.562Z</time></trkpt><trkpt lat="43.9106033" lon="12.2993833"><ele>246.66666666666669</ele><time>2026-03-22T10:23:57.563Z</time></trkpt><trkpt lat="43.9106033" lon="12.2996817"><ele>246.0</ele><time>2026-03-22T10:23:58.563Z</time></trkpt><trkpt lat="43.91058" lon="12.3000233"><ele>246.0</ele><time>2026-03-22T10:23:59.563Z</time></trkpt><trkpt lat="43.9105417" lon="12.300385"><ele>246.0</ele><time>2026-03-22T10:24:00.563Z</time></trkpt><trkpt lat="43.9104917" lon="12.3007333"><ele>247.0</ele><time>2026-03-22T10:24:01.563Z</time></trkpt><trkpt lat="43.9104417" lon="12.3010467"><ele>248.0</ele><time>2026-03-22T10:24:02.562Z</time></trkpt><trkpt lat="43.9103883" lon="12.301335"><ele>249.0</ele><time>2026-03-22T10:24:03.562Z</time></trkpt><trkpt lat="43.9103367" lon="12.3016267"><ele>249.33333333333331</ele><time>2026-03-22T10:24:04.562Z</time></trkpt><trkpt lat="43.9102933" lon="12.3018917"><ele>249.66666666666666</ele><time>2026-03-22T10:24:05.563Z</time></trkpt><trkpt lat="43.9102667" lon="12.3021383"><ele>250.0</ele><time>2026-03-22T10:24:06.563Z</time></trkpt><trkpt lat="43.910215" lon="12.3023517"><ele>248.75</ele><time>2026-03-22T10:24:07.562Z</time></trkpt><trkpt lat="43.9101467" lon="12.302525"><ele>247.5</ele><time>2026-03-22T10:24:08.563Z</time></trkpt><trkpt lat="43.910075" lon="12.3026783"><ele>246.25</ele><time>2026-03-22T10:24:09.562Z</time></trkpt><trkpt lat="43.910045" lon="12.302845"><ele>245.0</ele><time>2026-03-22T10:24:10.563Z</time></trkpt><trkpt lat="43.910065" lon="12.303015"><ele>243.66666666666669</ele><time>2026-03-22T10:24:11.563Z</time></trkpt><trkpt lat="43.91014" lon="12.30317"><ele>242.33333333333331</ele><time>2026-03-22T10:24:12.563Z</time></trkpt><trkpt lat="43.910265" lon="12.3033283"><ele>241.0</ele><time>2026-03-22T10:24:13.563Z</time></trkpt><trkpt lat="43.91041" lon="12.3034867"><ele>241.0</ele><time>2026-03-22T10:24:14.563Z</time></trkpt><trkpt lat="43.9105533" lon="12.3036617"><ele>241.0</ele><time>2026-03-22T10:24:15.562Z</time></trkpt><trkpt lat="43.910705" lon="12.30383"><ele>241.0</ele><time>2026-03-22T10:24:16.563Z</time></trkpt><trkpt lat="43.9108717" lon="12.303975"><ele>237.66666666666666</ele><time>2026-03-22T10:24:17.562Z</time></trkpt><trkpt lat="43.9110667" lon="12.3040717"><ele>234.33333333333331</ele><time>2026-03-22T10:24:18.563Z</time></trkpt><trkpt lat="43.911295" lon="12.30413"><ele>231.0</ele><time>2026-03-22T10:24:19.563Z</time></trkpt><trkpt lat="43.9115483" lon="12.3041717"><ele>231.0</ele><time>2026-03-22T10:24:20.563Z</time></trkpt><trkpt lat="43.9117833" lon="12.3041933"><ele>231.0</ele><time>2026-03-22T10:24:21.563Z</time></trkpt><trkpt lat="43.9120117" lon="12.3042133"><ele>231.0</ele><time>2026-03-22T10:24:22.563Z</time></trkpt><trkpt lat="43.91223" lon="12.3042367"><ele>231.0</ele><time>2026-03-22T10:24:23.563Z</time></trkpt><trkpt lat="43.912445" lon="12.3042967"><ele>231.0</ele><time>2026-03-22T10:24:24.563Z</time></trkpt><trkpt lat="43.9126667" lon="12.3043733"><ele>229.5</ele><time>2026-03-22T10:24:25.562Z</time></trkpt><trkpt lat="43.9128983" lon="12.3044833"><ele>228.0</ele><time>2026-03-22T10:24:26.562Z</time></trkpt><trkpt lat="43.9131483" lon="12.30461"><ele>229.5</ele><time>2026-03-22T10:24:27.563Z</time></trkpt><trkpt lat="43.913415" lon="12.3047533"><ele>231.0</ele><time>2026-03-22T10:24:28.562Z</time></trkpt><trkpt lat="43.913685" lon="12.3048967"><ele>231.0</ele><time>2026-03-22T10:24:29.562Z</time></trkpt><trkpt lat="43.91396" lon="12.305045"><ele>231.0</ele><time>2026-03-22T10:24:30.562Z</time></trkpt><trkpt lat="43.9142333" lon="12.3051933"><ele>231.5</ele><time>2026-03-22T10:24:31.562Z</time></trkpt><trkpt lat="43.9145" lon="12.3053333"><ele>232.0</ele><time>2026-03-22T10:24:32.563Z</time></trkpt><trkpt lat="43.914755" lon="12.3054667"><ele>232.0</ele><time>2026-03-22T10:24:33.562Z</time></trkpt><trkpt lat="43.9149983" lon="12.30559"><ele>232.0</ele><time>2026-03-22T10:24:34.563Z</time></trkpt><trkpt lat="43.915235" lon="12.3057183"><ele>232.0</ele><time>2026-03-22T10:24:35.562Z</time></trkpt><trkpt lat="43.9154633" lon="12.3058267"><ele>232.0</ele><time>2026-03-22T10:24:36.563Z</time></trkpt><trkpt lat="43.9156833" lon="12.30592"><ele>232.0</ele><time>2026-03-22T10:24:37.562Z</time></trkpt><trkpt lat="43.9158933" lon="12.3059967"><ele>232.0</ele><time>2026-03-22T10:24:38.563Z</time></trkpt><trkpt lat="43.9161017" lon="12.306065"><ele>232.0</ele><time>2026-03-22T10:24:39.563Z</time></trkpt><trkpt lat="43.916295" lon="12.30614"><ele>232.66666666666666</ele><time>2026-03-22T10:24:40.562Z</time></trkpt><trkpt lat="43.9164833" lon="12.3062317"><ele>233.33333333333331</ele><time>2026-03-22T10:24:41.563Z</time></trkpt><trkpt lat="43.916655" lon="12.3063467"><ele>234.0</ele><time>2026-03-22T10:24:42.563Z</time></trkpt><trkpt lat="43.9168117" lon="12.3065"><ele>232.66666666666669</ele><time>2026-03-22T10:24:43.563Z</time></trkpt><trkpt lat="43.9169617" lon="12.30668"><ele>231.33333333333334</ele><time>2026-03-22T10:24:44.563Z</time></trkpt><trkpt lat="43.9171017" lon="12.306865"><ele>230.0</ele><time>2026-03-22T10:24:45.563Z</time></trkpt><trkpt lat="43.9172283" lon="12.3070483"><ele>230.0</ele><time>2026-03-22T10:24:46.563Z</time></trkpt><trkpt lat="43.91735" lon="12.3072283"><ele>230.0</ele><time>2026-03-22T10:24:47.562Z</time></trkpt><trkpt lat="43.9174717" lon="12.3074033"><ele>230.0</ele><time>2026-03-22T10:24:48.563Z</time></trkpt><trkpt lat="43.917595" lon="12.307595"><ele>229.66666666666669</ele><time>2026-03-22T10:24:49.563Z</time></trkpt><trkpt lat="43.91772" lon="12.307785"><ele>229.33333333333331</ele><time>2026-03-22T10:24:50.562Z</time></trkpt><trkpt lat="43.9178533" lon="12.30797"><ele>229.0</ele><time>2026-03-22T10:24:51.563Z</time></trkpt><trkpt lat="43.917995" lon="12.3081617"><ele>228.33333333333331</ele><time>2026-03-22T10:24:52.563Z</time></trkpt><trkpt lat="43.9181367" lon="12.30836"><ele>227.66666666666669</ele><time>2026-03-22T10:24:53.563Z</time></trkpt><trkpt lat="43.918275" lon="12.3085583"><ele>227.0</ele><time>2026-03-22T10:24:54.563Z</time></trkpt><trkpt lat="43.918415" lon="12.3087567"><ele>226.0</ele><time>2026-03-22T10:24:55.563Z</time></trkpt><trkpt lat="43.91855" lon="12.3089517"><ele>225.0</ele><time>2026-03-22T10:24:56.563Z</time></trkpt><trkpt lat="43.9186817" lon="12.3091467"><ele>224.0</ele><time>2026-03-22T10:24:57.563Z</time></trkpt><trkpt lat="43.918825" lon="12.3093317"><ele>224.0</ele><time>2026-03-22T10:24:58.563Z</time></trkpt><trkpt lat="43.9189683" lon="12.3095283"><ele>224.0</ele><time>2026-03-22T10:24:59.563Z</time></trkpt><trkpt lat="43.9191083" lon="12.3097267"><ele>224.0</ele><time>2026-03-22T10:25:00.562Z</time></trkpt><trkpt lat="43.9192533" lon="12.3099217"><ele>224.0</ele><time>2026-03-22T10:25:01.562Z</time></trkpt><trkpt lat="43.9193933" lon="12.3101183"><ele>224.0</ele><time>2026-03-22T10:25:02.562Z</time></trkpt><trkpt lat="43.919525" lon="12.3103083"><ele>224.0</ele><time>2026-03-22T10:25:03.562Z</time></trkpt><trkpt lat="43.9196433" lon="12.310505"><ele>222.0</ele><time>2026-03-22T10:25:04.563Z</time></trkpt><trkpt lat="43.9197583" lon="12.3107033"><ele>220.0</ele><time>2026-03-22T10:25:05.563Z</time></trkpt><trkpt lat="43.9198583" lon="12.3109267"><ele>218.0</ele><time>2026-03-22T10:25:06.563Z</time></trkpt><trkpt lat="43.9199383" lon="12.311145"><ele>218.0</ele><time>2026-03-22T10:25:07.563Z</time></trkpt><trkpt lat="43.9200133" lon="12.3113533"><ele>218.0</ele><time>2026-03-22T10:25:08.562Z</time></trkpt><trkpt lat="43.920095" lon="12.31153"><ele>218.0</ele><time>2026-03-22T10:25:09.562Z</time></trkpt><trkpt lat="43.920195" lon="12.3116733"><ele>217.75</ele><time>2026-03-22T10:25:10.563Z</time></trkpt><trkpt lat="43.9203067" lon="12.3117833"><ele>217.5</ele><time>2026-03-22T10:25:11.563Z</time></trkpt><trkpt lat="43.9204133" lon="12.3118733"><ele>217.25</ele><time>2026-03-22T10:25:12.563Z</time></trkpt><trkpt lat="43.9205033" lon="12.31197"><ele>217.0</ele><time>2026-03-22T10:25:13.562Z</time></trkpt><trkpt lat="43.9205883" lon="12.3120617"><ele>217.0</ele><time>2026-03-22T10:25:14.563Z</time></trkpt><trkpt lat="43.9206883" lon="12.3121683"><ele>217.0</ele><time>2026-03-22T10:25:15.562Z</time></trkpt><trkpt lat="43.9208033" lon="12.3122767"><ele>217.0</ele><time>2026-03-22T10:25:16.563Z</time></trkpt><trkpt lat="43.9209267" lon="12.31239"><ele>217.0</ele><time>2026-03-22T10:25:17.563Z</time></trkpt><trkpt lat="43.921065" lon="12.3125017"><ele>214.0</ele><time>2026-03-22T10:25:18.563Z</time></trkpt><trkpt lat="43.9212033" lon="12.312635"><ele>211.0</ele><time>2026-03-22T10:25:19.563Z</time></trkpt><trkpt lat="43.9213333" lon="12.312765"><ele>208.0</ele><time>2026-03-22T10:25:20.563Z</time></trkpt><trkpt lat="43.9214567" lon="12.3128883"><ele>208.0</ele><time>2026-03-22T10:25:21.563Z</time></trkpt><trkpt lat="43.9215767" lon="12.313015"><ele>208.0</ele><time>2026-03-22T10:25:22.563Z</time></trkpt><trkpt lat="43.9216967" lon="12.31314"><ele>208.0</ele><time>2026-03-22T10:25:23.563Z</time></trkpt><trkpt lat="43.9218183" lon="12.31328"><ele>209.66666666666666</ele><time>2026-03-22T10:25:24.563Z</time></trkpt><trkpt lat="43.9219317" lon="12.3134383"><ele>211.33333333333331</ele><time>2026-03-22T10:25:25.563Z</time></trkpt><trkpt lat="43.922045" lon="12.3136167"><ele>213.0</ele><time>2026-03-22T10:25:26.562Z</time></trkpt><trkpt lat="43.9221517" lon="12.3138033"><ele>212.66666666666669</ele><time>2026-03-22T10:25:27.563Z</time></trkpt><trkpt lat="43.9222633" lon="12.3139717"><ele>212.33333333333334</ele><time>2026-03-22T10:25:28.563Z</time></trkpt><trkpt lat="43.922365" lon="12.314145"><ele>212.0</ele><time>2026-03-22T10:25:29.562Z</time></trkpt><trkpt lat="43.9224717" lon="12.3143133"><ele>213.25</ele><time>2026-03-22T10:25:30.562Z</time></trkpt><trkpt lat="43.922575" lon="12.3144717"><ele>214.5</ele><time>2026-03-22T10:25:31.562Z</time></trkpt><trkpt lat="43.9226667" lon="12.3146267"><ele>215.75</ele><time>2026-03-22T10:25:32.562Z</time></trkpt><trkpt lat="43.922755" lon="12.3147733"><ele>217.0</ele><time>2026-03-22T10:25:33.562Z</time></trkpt><trkpt lat="43.92283" lon="12.31492"><ele>217.0</ele><time>2026-03-22T10:25:34.563Z</time></trkpt><trkpt lat="43.9229033" lon="12.3150683"><ele>217.0</ele><time>2026-03-22T10:25:35.562Z</time></trkpt><trkpt lat="43.9229683" lon="12.3152033"><ele>217.0</ele><time>2026-03-22T10:25:36.563Z</time></trkpt><trkpt lat="43.9230133" lon="12.3153433"><ele>217.0</ele><time>2026-03-22T10:25:37.562Z</time></trkpt><trkpt lat="43.92306" lon="12.3154967"><ele>217.0</ele><time>2026-03-22T10:25:38.563Z</time></trkpt><trkpt lat="43.923105" lon="12.315665"><ele>217.0</ele><time>2026-03-22T10:25:39.563Z</time></trkpt><trkpt lat="43.9231517" lon="12.3158283"><ele>217.0</ele><time>2026-03-22T10:25:40.562Z</time></trkpt><trkpt lat="43.9231933" lon="12.315995"><ele>217.0</ele><time>2026-03-22T10:25:41.562Z</time></trkpt><trkpt lat="43.9232533" lon="12.3161567"><ele>217.0</ele><time>2026-03-22T10:25:42.563Z</time></trkpt><trkpt lat="43.92334" lon="12.316305"><ele>217.0</ele><time>2026-03-22T10:25:43.562Z</time></trkpt><trkpt lat="43.9234417" lon="12.3164467"><ele>217.0</ele><time>2026-03-22T10:25:44.563Z</time></trkpt><trkpt lat="43.9235483" lon="12.316585"><ele>217.0</ele><time>2026-03-22T10:25:45.563Z</time></trkpt><trkpt lat="43.9236617" lon="12.3167333"><ele>216.0</ele><time>2026-03-22T10:25:46.563Z</time></trkpt><trkpt lat="43.9237683" lon="12.3168767"><ele>215.0</ele><time>2026-03-22T10:25:47.563Z</time></trkpt><trkpt lat="43.9238733" lon="12.3170167"><ele>214.0</ele><time>2026-03-22T10:25:48.563Z</time></trkpt><trkpt lat="43.923975" lon="12.3171533"><ele>213.0</ele><time>2026-03-22T10:25:49.563Z</time></trkpt><trkpt lat="43.9240683" lon="12.3172917"><ele>213.0</ele><time>2026-03-22T10:25:50.563Z</time></trkpt><trkpt lat="43.9241717" lon="12.3174183"><ele>213.0</ele><time>2026-03-22T10:25:51.563Z</time></trkpt><trkpt lat="43.924275" lon="12.317545"><ele>213.0</ele><time>2026-03-22T10:25:52.563Z</time></trkpt><trkpt lat="43.92438" lon="12.3176617"><ele>213.0</ele><time>2026-03-22T10:25:53.563Z</time></trkpt><trkpt lat="43.9244933" lon="12.3177783"><ele>213.66666666666669</ele><time>2026-03-22T10:25:54.562Z</time></trkpt><trkpt lat="43.9246333" lon="12.31788"><ele>214.33333333333334</ele><time>2026-03-22T10:25:55.562Z</time></trkpt><trkpt lat="43.9247967" lon="12.31796"><ele>215.0</ele><time>2026-03-22T10:25:56.562Z</time></trkpt><trkpt lat="43.9249583" lon="12.3180283"><ele>214.0</ele><time>2026-03-22T10:25:57.563Z</time></trkpt><trkpt lat="43.92512" lon="12.3180983"><ele>213.0</ele><time>2026-03-22T10:25:58.563Z</time></trkpt><trkpt lat="43.9252717" lon="12.3181783"><ele>212.0</ele><time>2026-03-22T10:25:59.562Z</time></trkpt><trkpt lat="43.9254217" lon="12.3182767"><ele>212.0</ele><time>2026-03-22T10:26:00.563Z</time></trkpt><trkpt lat="43.9255483" lon="12.3184183"><ele>212.0</ele><time>2026-03-22T10:26:01.563Z</time></trkpt><trkpt lat="43.9256583" lon="12.3185983"><ele>212.0</ele><time>2026-03-22T10:26:02.563Z</time></trkpt><trkpt lat="43.9257717" lon="12.3187917"><ele>211.66666666666669</ele><time>2026-03-22T10:26:03.563Z</time></trkpt><trkpt lat="43.9258733" lon="12.3189817"><ele>211.33333333333331</ele><time>2026-03-22T10:26:04.563Z</time></trkpt><trkpt lat="43.9259733" lon="12.3191467"><ele>211.0</ele><time>2026-03-22T10:26:05.563Z</time></trkpt><trkpt lat="43.926065" lon="12.319315"><ele>211.0</ele><time>2026-03-22T10:26:06.563Z</time></trkpt><trkpt lat="43.9261583" lon="12.319495"><ele>211.0</ele><time>2026-03-22T10:26:07.563Z</time></trkpt><trkpt lat="43.92626" lon="12.3196633"><ele>211.0</ele><time>2026-03-22T10:26:08.562Z</time></trkpt><trkpt lat="43.9263633" lon="12.3198167"><ele>211.0</ele><time>2026-03-22T10:26:09.562Z</time></trkpt><trkpt lat="43.926455" lon="12.319975"><ele>211.0</ele><time>2026-03-22T10:26:10.563Z</time></trkpt><trkpt lat="43.92654" lon="12.3201133"><ele>211.0</ele><time>2026-03-22T10:26:11.563Z</time></trkpt><trkpt lat="43.9266233" lon="12.3202567"><ele>211.0</ele><time>2026-03-22T10:26:12.563Z</time></trkpt><trkpt lat="43.9267067" lon="12.320395"><ele>211.5</ele><time>2026-03-22T10:26:13.562Z</time></trkpt><trkpt lat="43.9267867" lon="12.3205467"><ele>212.0</ele><time>2026-03-22T10:26:14.563Z</time></trkpt><trkpt lat="43.9268683" lon="12.3206983"><ele>212.5</ele><time>2026-03-22T10:26:15.562Z</time></trkpt><trkpt lat="43.9269467" lon="12.3208417"><ele>213.0</ele><time>2026-03-22T10:26:16.563Z</time></trkpt><trkpt lat="43.9270317" lon="12.3209867"><ele>211.75</ele><time>2026-03-22T10:26:17.563Z</time></trkpt><trkpt lat="43.9271167" lon="12.3211267"><ele>210.5</ele><time>2026-03-22T10:26:18.563Z</time></trkpt><trkpt lat="43.9272033" lon="12.3212617"><ele>209.25</ele><time>2026-03-22T10:26:19.563Z</time></trkpt><trkpt lat="43.9272917" lon="12.3214083"><ele>208.0</ele><time>2026-03-22T10:26:20.563Z</time></trkpt><trkpt lat="43.9273733" lon="12.3215483"><ele>207.33333333333331</ele><time>2026-03-22T10:26:21.562Z</time></trkpt><trkpt lat="43.9274583" lon="12.3216967"><ele>206.66666666666669</ele><time>2026-03-22T10:26:22.563Z</time></trkpt><trkpt lat="43.9275667" lon="12.3218567"><ele>206.0</ele><time>2026-03-22T10:26:23.562Z</time></trkpt><trkpt lat="43.9277067" lon="12.322045"><ele>204.66666666666669</ele><time>2026-03-22T10:26:24.563Z</time></trkpt><trkpt lat="43.9278683" lon="12.3222467"><ele>203.33333333333331</ele><time>2026-03-22T10:26:25.563Z</time></trkpt><trkpt lat="43.9280217" lon="12.3224583"><ele>202.0</ele><time>2026-03-22T10:26:26.563Z</time></trkpt><trkpt lat="43.9281667" lon="12.3226467"><ele>202.0</ele><time>2026-03-22T10:26:27.563Z</time></trkpt><trkpt lat="43.9282933" lon="12.322805"><ele>202.0</ele><time>2026-03-22T10:26:28.563Z</time></trkpt><trkpt lat="43.9284017" lon="12.3229467"><ele>202.0</ele><time>2026-03-22T10:26:29.563Z</time></trkpt><trkpt lat="43.9284683" lon="12.3230867"><ele>202.0</ele><time>2026-03-22T10:26:30.564Z</time></trkpt><trkpt lat="43.9285317" lon="12.3232183"><ele>202.33333333333331</ele><time>2026-03-22T10:26:31.563Z</time></trkpt><trkpt lat="43.9286167" lon="12.3233383"><ele>202.66666666666669</ele><time>2026-03-22T10:26:32.564Z</time></trkpt><trkpt lat="43.9287467" lon="12.323435"><ele>203.0</ele><time>2026-03-22T10:26:33.564Z</time></trkpt><trkpt lat="43.928905" lon="12.3235617"><ele>203.0</ele><time>2026-03-22T10:26:34.563Z</time></trkpt><trkpt lat="43.92907" lon="12.3237317"><ele>203.0</ele><time>2026-03-22T10:26:35.563Z</time></trkpt><trkpt lat="43.9292333" lon="12.323935"><ele>203.0</ele><time>2026-03-22T10:26:36.564Z</time></trkpt><trkpt lat="43.9294067" lon="12.324145"><ele>202.33333333333334</ele><time>2026-03-22T10:26:37.564Z</time></trkpt><trkpt lat="43.9295767" lon="12.3243467"><ele>201.66666666666669</ele><time>2026-03-22T10:26:38.563Z</time></trkpt><trkpt lat="43.9297367" lon="12.3245433"><ele>201.0</ele><time>2026-03-22T10:26:39.564Z</time></trkpt><trkpt lat="43.92989" lon="12.32474"><ele>201.0</ele><time>2026-03-22T10:26:40.564Z</time></trkpt><trkpt lat="43.9300333" lon="12.32493"><ele>201.0</ele><time>2026-03-22T10:26:41.564Z</time></trkpt><trkpt lat="43.93017" lon="12.3251367"><ele>201.0</ele><time>2026-03-22T10:26:42.564Z</time></trkpt><trkpt lat="43.9303" lon="12.325365"><ele>200.33333333333331</ele><time>2026-03-22T10:26:43.563Z</time></trkpt><trkpt lat="43.930415" lon="12.3255867"><ele>199.66666666666666</ele><time>2026-03-22T10:26:44.564Z</time></trkpt><trkpt lat="43.9305217" lon="12.3257983"><ele>199.0</ele><time>2026-03-22T10:26:45.564Z</time></trkpt><trkpt lat="43.9306233" lon="12.3259967"><ele>199.0</ele><time>2026-03-22T10:26:46.564Z</time></trkpt><trkpt lat="43.9307217" lon="12.3261833"><ele>199.0</ele><time>2026-03-22T10:26:47.564Z</time></trkpt><trkpt lat="43.9308117" lon="12.326365"><ele>199.0</ele><time>2026-03-22T10:26:48.564Z</time></trkpt><trkpt lat="43.9308867" lon="12.326545"><ele>198.5</ele><time>2026-03-22T10:26:49.563Z</time></trkpt><trkpt lat="43.9309467" lon="12.3267333"><ele>198.0</ele><time>2026-03-22T10:26:50.564Z</time></trkpt><trkpt lat="43.9309933" lon="12.326925"><ele>197.5</ele><time>2026-03-22T10:26:51.564Z</time></trkpt><trkpt lat="43.9310417" lon="12.3271183"><ele>197.0</ele><time>2026-03-22T10:26:52.564Z</time></trkpt><trkpt lat="43.9310767" lon="12.3273083"><ele>197.0</ele><time>2026-03-22T10:26:53.563Z</time></trkpt><trkpt lat="43.9311083" lon="12.327495"><ele>197.0</ele><time>2026-03-22T10:26:54.564Z</time></trkpt><trkpt lat="43.9311383" lon="12.3276833"><ele>197.0</ele><time>2026-03-22T10:26:55.564Z</time></trkpt><trkpt lat="43.9311733" lon="12.3278833"><ele>197.0</ele><time>2026-03-22T10:26:56.563Z</time></trkpt><trkpt lat="43.9312083" lon="12.3281"><ele>196.33333333333334</ele><time>2026-03-22T10:26:57.564Z</time></trkpt><trkpt lat="43.9312533" lon="12.3283183"><ele>195.66666666666669</ele><time>2026-03-22T10:26:58.564Z</time></trkpt><trkpt lat="43.9312933" lon="12.3285617"><ele>195.0</ele><time>2026-03-22T10:26:59.564Z</time></trkpt><trkpt lat="43.9313383" lon="12.3288217"><ele>194.66666666666669</ele><time>2026-03-22T10:27:00.564Z</time></trkpt><trkpt lat="43.9313767" lon="12.3290883"><ele>194.33333333333334</ele><time>2026-03-22T10:27:01.564Z</time></trkpt><trkpt lat="43.9314183" lon="12.329325"><ele>194.0</ele><time>2026-03-22T10:27:02.563Z</time></trkpt><trkpt lat="43.93146" lon="12.32956"><ele>193.33333333333334</ele><time>2026-03-22T10:27:03.564Z</time></trkpt><trkpt lat="43.9315033" lon="12.3298067"><ele>192.66666666666669</ele><time>2026-03-22T10:27:04.564Z</time></trkpt><trkpt lat="43.9315417" lon="12.3300517"><ele>192.0</ele><time>2026-03-22T10:27:05.563Z</time></trkpt><trkpt lat="43.9315817" lon="12.3302983"><ele>192.0</ele><time>2026-03-22T10:27:06.564Z</time></trkpt><trkpt lat="43.9316233" lon="12.3305333"><ele>192.0</ele><time>2026-03-22T10:27:07.563Z</time></trkpt><trkpt lat="43.93166" lon="12.3307783"><ele>192.0</ele><time>2026-03-22T10:27:08.564Z</time></trkpt><trkpt lat="43.9316983" lon="12.3310283"><ele>190.0</ele><time>2026-03-22T10:27:09.564Z</time></trkpt><trkpt lat="43.931745" lon="12.3312667"><ele>188.0</ele><time>2026-03-22T10:27:10.563Z</time></trkpt><trkpt lat="43.931795" lon="12.3315033"><ele>186.0</ele><time>2026-03-22T10:27:11.564Z</time></trkpt><trkpt lat="43.931865" lon="12.3317267"><ele>185.0</ele><time>2026-03-22T10:27:12.564Z</time></trkpt><trkpt lat="43.9319717" lon="12.3319367"><ele>184.0</ele><time>2026-03-22T10:27:13.563Z</time></trkpt><trkpt lat="43.9321067" lon="12.3321317"><ele>183.0</ele><time>2026-03-22T10:27:14.564Z</time></trkpt><trkpt lat="43.9322517" lon="12.3323283"><ele>183.0</ele><time>2026-03-22T10:27:15.564Z</time></trkpt><trkpt lat="43.932405" lon="12.3325317"><ele>183.0</ele><time>2026-03-22T10:27:16.563Z</time></trkpt><trkpt lat="43.9325467" lon="12.332755"><ele>183.0</ele><time>2026-03-22T10:27:17.564Z</time></trkpt><trkpt lat="43.9326917" lon="12.33297"><ele>184.0</ele><time>2026-03-22T10:27:18.563Z</time></trkpt><trkpt lat="43.9328383" lon="12.3331783"><ele>185.0</ele><time>2026-03-22T10:27:19.563Z</time></trkpt><trkpt lat="43.9329783" lon="12.33338"><ele>186.0</ele><time>2026-03-22T10:27:20.564Z</time></trkpt><trkpt lat="43.9331233" lon="12.3335783"><ele>186.0</ele><time>2026-03-22T10:27:21.563Z</time></trkpt><trkpt lat="43.93328" lon="12.3338017"><ele>186.0</ele><time>2026-03-22T10:27:22.564Z</time></trkpt><trkpt lat="43.93345" lon="12.334025"><ele>184.66666666666666</ele><time>2026-03-22T10:27:23.563Z</time></trkpt><trkpt lat="43.9336033" lon="12.3342433"><ele>183.33333333333331</ele><time>2026-03-22T10:27:24.563Z</time></trkpt><trkpt lat="43.9337417" lon="12.3344533"><ele>182.0</ele><time>2026-03-22T10:27:25.563Z</time></trkpt><trkpt lat="43.9338767" lon="12.334665"><ele>181.66666666666666</ele><time>2026-03-22T10:27:26.564Z</time></trkpt><trkpt lat="43.9340133" lon="12.33487"><ele>181.33333333333334</ele><time>2026-03-22T10:27:27.564Z</time></trkpt><trkpt lat="43.9341433" lon="12.3350683"><ele>181.0</ele><time>2026-03-22T10:27:28.564Z</time></trkpt><trkpt lat="43.93427" lon="12.3352467"><ele>182.66666666666669</ele><time>2026-03-22T10:27:29.564Z</time></trkpt><trkpt lat="43.9344067" lon="12.3354283"><ele>184.33333333333334</ele><time>2026-03-22T10:27:30.564Z</time></trkpt><trkpt lat="43.9345533" lon="12.3356317"><ele>186.0</ele><time>2026-03-22T10:27:31.564Z</time></trkpt><trkpt lat="43.9347067" lon="12.33585"><ele>186.0</ele><time>2026-03-22T10:27:32.563Z</time></trkpt><trkpt lat="43.9348633" lon="12.3361017"><ele>186.0</ele><time>2026-03-22T10:27:33.564Z</time></trkpt><trkpt lat="43.9350433" lon="12.33637"><ele>191.0</ele><time>2026-03-22T10:27:34.563Z</time></trkpt><trkpt lat="43.93522" lon="12.3366267"><ele>196.0</ele><time>2026-03-22T10:27:35.563Z</time></trkpt><trkpt lat="43.9353833" lon="12.3368667"><ele>196.0</ele><time>2026-03-22T10:27:36.564Z</time></trkpt><trkpt lat="43.93553" lon="12.3371067"><ele>196.0</ele><time>2026-03-22T10:27:37.564Z</time></trkpt><trkpt lat="43.9356633" lon="12.337365"><ele>192.5</ele><time>2026-03-22T10:27:38.564Z</time></trkpt><trkpt lat="43.9357633" lon="12.3376583"><ele>189.0</ele><time>2026-03-22T10:27:39.564Z</time></trkpt><trkpt lat="43.9358233" lon="12.337985"><ele>187.0</ele><time>2026-03-22T10:27:40.564Z</time></trkpt><trkpt lat="43.9358367" lon="12.3383317"><ele>185.0</ele><time>2026-03-22T10:27:41.563Z</time></trkpt><trkpt lat="43.9358233" lon="12.3386633"><ele>185.33333333333331</ele><time>2026-03-22T10:27:42.564Z</time></trkpt><trkpt lat="43.9358083" lon="12.3389717"><ele>185.66666666666666</ele><time>2026-03-22T10:27:43.564Z</time></trkpt><trkpt lat="43.935795" lon="12.3392567"><ele>186.0</ele><time>2026-03-22T10:27:44.564Z</time></trkpt><trkpt lat="43.93581" lon="12.3395383"><ele>186.66666666666666</ele><time>2026-03-22T10:27:45.563Z</time></trkpt><trkpt lat="43.9358467" lon="12.3397917"><ele>187.33333333333331</ele><time>2026-03-22T10:27:46.564Z</time></trkpt><trkpt lat="43.9358933" lon="12.340035"><ele>188.0</ele><time>2026-03-22T10:27:47.564Z</time></trkpt><trkpt lat="43.9359383" lon="12.3402517"><ele>190.66666666666666</ele><time>2026-03-22T10:27:48.564Z</time></trkpt><trkpt lat="43.935985" lon="12.34046"><ele>193.33333333333331</ele><time>2026-03-22T10:27:49.564Z</time></trkpt><trkpt lat="43.9360333" lon="12.3406617"><ele>196.0</ele><time>2026-03-22T10:27:50.563Z</time></trkpt><trkpt lat="43.93607" lon="12.3408717"><ele>196.0</ele><time>2026-03-22T10:27:51.563Z</time></trkpt><trkpt lat="43.9361133" lon="12.3410817"><ele>196.0</ele><time>2026-03-22T10:27:52.564Z</time></trkpt><trkpt lat="43.936155" lon="12.34127"><ele>196.0</ele><time>2026-03-22T10:27:53.563Z</time></trkpt><trkpt lat="43.936185" lon="12.34146"><ele>196.0</ele><time>2026-03-22T10:27:54.564Z</time></trkpt><trkpt lat="43.9362133" lon="12.3416417"><ele>196.0</ele><time>2026-03-22T10:27:55.564Z</time></trkpt><trkpt lat="43.93621" lon="12.3418267"><ele>196.0</ele><time>2026-03-22T10:27:56.564Z</time></trkpt><trkpt lat="43.93618" lon="12.34201"><ele>196.0</ele><time>2026-03-22T10:27:57.564Z</time></trkpt><trkpt lat="43.9361333" lon="12.3421817"><ele>196.0</ele><time>2026-03-22T10:27:58.563Z</time></trkpt><trkpt lat="43.9360717" lon="12.3423333"><ele>196.0</ele><time>2026-03-22T10:27:59.563Z</time></trkpt><trkpt lat="43.9359817" lon="12.3424717"><ele>196.0</ele><time>2026-03-22T10:28:00.563Z</time></trkpt><trkpt lat="43.93588" lon="12.3425833"><ele>196.0</ele><time>2026-03-22T10:28:01.564Z</time></trkpt><trkpt lat="43.9357617" lon="12.3426933"><ele>196.0</ele><time>2026-03-22T10:28:02.564Z</time></trkpt><trkpt lat="43.9356283" lon="12.3428"><ele>191.66666666666666</ele><time>2026-03-22T10:28:03.563Z</time></trkpt><trkpt lat="43.9354667" lon="12.3428917"><ele>187.33333333333331</ele><time>2026-03-22T10:28:04.564Z</time></trkpt><trkpt lat="43.935305" lon="12.34299"><ele>183.0</ele><time>2026-03-22T10:28:05.564Z</time></trkpt><trkpt lat="43.9351567" lon="12.3430883"><ele>182.0</ele><time>2026-03-22T10:28:06.563Z</time></trkpt><trkpt lat="43.93502" lon="12.343175"><ele>181.0</ele><time>2026-03-22T10:28:07.563Z</time></trkpt><trkpt lat="43.9348883" lon="12.34325"><ele>180.0</ele><time>2026-03-22T10:28:08.564Z</time></trkpt><trkpt lat="43.9347767" lon="12.34336"><ele>179.0</ele><time>2026-03-22T10:28:09.563Z</time></trkpt><trkpt lat="43.934685" lon="12.34352"><ele>179.0</ele><time>2026-03-22T10:28:10.563Z</time></trkpt><trkpt lat="43.9346183" lon="12.3437267"><ele>179.0</ele><time>2026-03-22T10:28:11.563Z</time></trkpt><trkpt lat="43.934565" lon="12.3439633"><ele>179.0</ele><time>2026-03-22T10:28:12.564Z</time></trkpt><trkpt lat="43.9345417" lon="12.3441867"><ele>179.0</ele><time>2026-03-22T10:28:13.564Z</time></trkpt><trkpt lat="43.934535" lon="12.3444083"><ele>179.0</ele><time>2026-03-22T10:28:14.564Z</time></trkpt><trkpt lat="43.9345617" lon="12.3446333"><ele>179.0</ele><time>2026-03-22T10:28:15.564Z</time></trkpt><trkpt lat="43.9346083" lon="12.3448533"><ele>180.0</ele><time>2026-03-22T10:28:16.564Z</time></trkpt><trkpt lat="43.9347067" lon="12.3450733"><ele>181.0</ele><time>2026-03-22T10:28:17.564Z</time></trkpt><trkpt lat="43.9348217" lon="12.3453"><ele>182.0</ele><time>2026-03-22T10:28:18.563Z</time></trkpt><trkpt lat="43.9349317" lon="12.3455183"><ele>180.66666666666666</ele><time>2026-03-22T10:28:19.563Z</time></trkpt><trkpt lat="43.9350367" lon="12.34573"><ele>179.33333333333334</ele><time>2026-03-22T10:28:20.564Z</time></trkpt><trkpt lat="43.9351533" lon="12.345935"><ele>178.0</ele><time>2026-03-22T10:28:21.564Z</time></trkpt><trkpt lat="43.9352817" lon="12.346105"><ele>178.0</ele><time>2026-03-22T10:28:22.563Z</time></trkpt><trkpt lat="43.9354367" lon="12.346235"><ele>178.0</ele><time>2026-03-22T10:28:23.564Z</time></trkpt><trkpt lat="43.93562" lon="12.3463367"><ele>178.0</ele><time>2026-03-22T10:28:24.564Z</time></trkpt><trkpt lat="43.935835" lon="12.34644"><ele>180.5</ele><time>2026-03-22T10:28:25.563Z</time></trkpt><trkpt lat="43.9360667" lon="12.3465533"><ele>183.0</ele><time>2026-03-22T10:28:26.563Z</time></trkpt><trkpt lat="43.936285" lon="12.3466617"><ele>183.0</ele><time>2026-03-22T10:28:27.563Z</time></trkpt><trkpt lat="43.9364983" lon="12.3467733"><ele>183.0</ele><time>2026-03-22T10:28:28.564Z</time></trkpt><trkpt lat="43.9367033" lon="12.3468883"><ele>183.0</ele><time>2026-03-22T10:28:29.563Z</time></trkpt><trkpt lat="43.9369033" lon="12.3469967"><ele>183.33333333333334</ele><time>2026-03-22T10:28:30.563Z</time></trkpt><trkpt lat="43.9371017" lon="12.3471217"><ele>183.66666666666669</ele><time>2026-03-22T10:28:31.564Z</time></trkpt><trkpt lat="43.9372917" lon="12.3472717"><ele>184.0</ele><time>2026-03-22T10:28:32.564Z</time></trkpt><trkpt lat="43.9374717" lon="12.3474333"><ele>180.66666666666669</ele><time>2026-03-22T10:28:33.563Z</time></trkpt><trkpt lat="43.937635" lon="12.3476"><ele>177.33333333333334</ele><time>2026-03-22T10:28:34.564Z</time></trkpt><trkpt lat="43.937795" lon="12.3477517"><ele>174.0</ele><time>2026-03-22T10:28:35.563Z</time></trkpt><trkpt lat="43.9379467" lon="12.3478933"><ele>176.66666666666666</ele><time>2026-03-22T10:28:36.564Z</time></trkpt><trkpt lat="43.93807" lon="12.3480583"><ele>179.33333333333331</ele><time>2026-03-22T10:28:37.564Z</time></trkpt><trkpt lat="43.938175" lon="12.3482483"><ele>182.0</ele><time>2026-03-22T10:28:38.564Z</time></trkpt><trkpt lat="43.93826" lon="12.3484667"><ele>182.0</ele><time>2026-03-22T10:28:39.564Z</time></trkpt><trkpt lat="43.9383233" lon="12.3487167"><ele>182.0</ele><time>2026-03-22T10:28:40.563Z</time></trkpt><trkpt lat="43.9383433" lon="12.348995"><ele>182.0</ele><time>2026-03-22T10:28:41.563Z</time></trkpt><trkpt lat="43.93834" lon="12.3492867"><ele>182.33333333333331</ele><time>2026-03-22T10:28:42.563Z</time></trkpt><trkpt lat="43.9383117" lon="12.349595"><ele>182.66666666666666</ele><time>2026-03-22T10:28:43.564Z</time></trkpt><trkpt lat="43.9382817" lon="12.3498933"><ele>183.0</ele><time>2026-03-22T10:28:44.564Z</time></trkpt><trkpt lat="43.93825" lon="12.350175"><ele>181.66666666666666</ele><time>2026-03-22T10:28:45.564Z</time></trkpt><trkpt lat="43.93822" lon="12.3504417"><ele>180.33333333333331</ele><time>2026-03-22T10:28:46.564Z</time></trkpt><trkpt lat="43.9382" lon="12.3506983"><ele>179.0</ele><time>2026-03-22T10:28:47.564Z</time></trkpt><trkpt lat="43.9382133" lon="12.3509567"><ele>179.0</ele><time>2026-03-22T10:28:48.564Z</time></trkpt><trkpt lat="43.9382683" lon="12.3512067"><ele>179.0</ele><time>2026-03-22T10:28:49.564Z</time></trkpt><trkpt lat="43.9383667" lon="12.3514583"><ele>179.0</ele><time>2026-03-22T10:28:50.563Z</time></trkpt><trkpt lat="43.9385033" lon="12.3517117"><ele>175.0</ele><time>2026-03-22T10:28:51.564Z</time></trkpt><trkpt lat="43.9386683" lon="12.3519633"><ele>171.0</ele><time>2026-03-22T10:28:52.563Z</time></trkpt><trkpt lat="43.9388383" lon="12.3522183"><ele>171.0</ele><time>2026-03-22T10:28:53.564Z</time></trkpt><trkpt lat="43.939015" lon="12.3524683"><ele>171.0</ele><time>2026-03-22T10:28:54.564Z</time></trkpt><trkpt lat="43.9391883" lon="12.3527283"><ele>168.5</ele><time>2026-03-22T10:28:55.564Z</time></trkpt><trkpt lat="43.9393667" lon="12.35298"><ele>166.0</ele><time>2026-03-22T10:28:56.564Z</time></trkpt><trkpt lat="43.9395633" lon="12.3532283"><ele>166.0</ele><time>2026-03-22T10:28:57.564Z</time></trkpt><trkpt lat="43.9397767" lon="12.3534583"><ele>166.0</ele><time>2026-03-22T10:28:58.563Z</time></trkpt><trkpt lat="43.9400033" lon="12.353685"><ele>164.5</ele><time>2026-03-22T10:28:59.564Z</time></trkpt><trkpt lat="43.9402383" lon="12.3539167"><ele>163.0</ele><time>2026-03-22T10:29:00.564Z</time></trkpt><trkpt lat="43.94049" lon="12.3541433"><ele>163.0</ele><time>2026-03-22T10:29:01.564Z</time></trkpt><trkpt lat="43.9407467" lon="12.3543733"><ele>163.0</ele><time>2026-03-22T10:29:02.563Z</time></trkpt><trkpt lat="43.9410017" lon="12.3546017"><ele>163.0</ele><time>2026-03-22T10:29:03.563Z</time></trkpt><trkpt lat="43.941265" lon="12.35484"><ele>163.0</ele><time>2026-03-22T10:29:04.564Z</time></trkpt><trkpt lat="43.9415333" lon="12.3550883"><ele>162.0</ele><time>2026-03-22T10:29:05.563Z</time></trkpt><trkpt lat="43.9418067" lon="12.3553417"><ele>161.0</ele><time>2026-03-22T10:29:06.564Z</time></trkpt><trkpt lat="43.9420817" lon="12.3555933"><ele>161.0</ele><time>2026-03-22T10:29:07.564Z</time></trkpt><trkpt lat="43.9423467" lon="12.3558333"><ele>161.0</ele><time>2026-03-22T10:29:08.564Z</time></trkpt><trkpt lat="43.9426017" lon="12.356055"><ele>161.0</ele><time>2026-03-22T10:29:09.563Z</time></trkpt><trkpt lat="43.9428417" lon="12.3562667"><ele>161.0</ele><time>2026-03-22T10:29:10.564Z</time></trkpt><trkpt lat="43.9430683" lon="12.3564783"><ele>161.0</ele><time>2026-03-22T10:29:11.564Z</time></trkpt><trkpt lat="43.943275" lon="12.3567183"><ele>161.0</ele><time>2026-03-22T10:29:12.564Z</time></trkpt><trkpt lat="43.94347" lon="12.3569933"><ele>160.5</ele><time>2026-03-22T10:29:13.564Z</time></trkpt><trkpt lat="43.94366" lon="12.3573"><ele>160.0</ele><time>2026-03-22T10:29:14.563Z</time></trkpt><trkpt lat="43.9438567" lon="12.35762"><ele>160.0</ele><time>2026-03-22T10:29:15.564Z</time></trkpt><trkpt lat="43.9440617" lon="12.3579483"><ele>160.0</ele><time>2026-03-22T10:29:16.563Z</time></trkpt><trkpt lat="43.944265" lon="12.3582633"><ele>159.0</ele><time>2026-03-22T10:29:17.563Z</time></trkpt><trkpt lat="43.9444517" lon="12.3585667"><ele>158.0</ele><time>2026-03-22T10:29:18.563Z</time></trkpt><trkpt lat="43.944625" lon="12.35885"><ele>159.0</ele><time>2026-03-22T10:29:19.563Z</time></trkpt><trkpt lat="43.94479" lon="12.3591217"><ele>160.0</ele><time>2026-03-22T10:29:20.564Z</time></trkpt><trkpt lat="43.9449533" lon="12.3593733"><ele>160.0</ele><time>2026-03-22T10:29:21.564Z</time></trkpt><trkpt lat="43.94511" lon="12.359625"><ele>160.0</ele><time>2026-03-22T10:29:22.564Z</time></trkpt><trkpt lat="43.9452633" lon="12.3598733"><ele>160.0</ele><time>2026-03-22T10:29:23.564Z</time></trkpt><trkpt lat="43.9454333" lon="12.3601"><ele>160.0</ele><time>2026-03-22T10:29:24.564Z</time></trkpt><trkpt lat="43.9456183" lon="12.360315"><ele>160.0</ele><time>2026-03-22T10:29:25.564Z</time></trkpt><trkpt lat="43.9457983" lon="12.3604917"><ele>160.0</ele><time>2026-03-22T10:29:26.563Z</time></trkpt><trkpt lat="43.94598" lon="12.3606433"><ele>160.0</ele><time>2026-03-22T10:29:27.564Z</time></trkpt><trkpt lat="43.94616" lon="12.3607767"><ele>160.33333333333334</ele><time>2026-03-22T10:29:28.564Z</time></trkpt><trkpt lat="43.9463217" lon="12.3608917"><ele>160.66666666666666</ele><time>2026-03-22T10:29:29.564Z</time></trkpt><trkpt lat="43.946475" lon="12.3610017"><ele>161.0</ele><time>2026-03-22T10:29:30.564Z</time></trkpt><trkpt lat="43.9466233" lon="12.361125"><ele>161.66666666666666</ele><time>2026-03-22T10:29:31.564Z</time></trkpt><trkpt lat="43.94677" lon="12.3612533"><ele>162.33333333333334</ele><time>2026-03-22T10:29:32.563Z</time></trkpt><trkpt lat="43.9469067" lon="12.36138"><ele>163.0</ele><time>2026-03-22T10:29:33.564Z</time></trkpt><trkpt lat="43.9470317" lon="12.3615067"><ele>163.0</ele><time>2026-03-22T10:29:34.564Z</time></trkpt><trkpt lat="43.9471533" lon="12.361625"><ele>163.0</ele><time>2026-03-22T10:29:35.564Z</time></trkpt><trkpt lat="43.9472783" lon="12.3617483"><ele>163.0</ele><time>2026-03-22T10:29:36.563Z</time></trkpt><trkpt lat="43.9474083" lon="12.3618717"><ele>163.0</ele><time>2026-03-22T10:29:37.564Z</time></trkpt><trkpt lat="43.9475383" lon="12.3620017"><ele>163.0</ele><time>2026-03-22T10:29:38.564Z</time></trkpt><trkpt lat="43.94766" lon="12.3621367"><ele>163.0</ele><time>2026-03-22T10:29:39.564Z</time></trkpt><trkpt lat="43.9477733" lon="12.3622717"><ele>163.0</ele><time>2026-03-22T10:29:40.563Z</time></trkpt><trkpt lat="43.9478833" lon="12.3624133"><ele>163.0</ele><time>2026-03-22T10:29:41.564Z</time></trkpt><trkpt lat="43.947985" lon="12.362555"><ele>163.0</ele><time>2026-03-22T10:29:42.564Z</time></trkpt><trkpt lat="43.9480783" lon="12.36269"><ele>163.0</ele><time>2026-03-22T10:29:43.564Z</time></trkpt><trkpt lat="43.9481617" lon="12.362835"><ele>163.0</ele><time>2026-03-22T10:29:44.564Z</time></trkpt><trkpt lat="43.9482467" lon="12.36299"><ele>163.0</ele><time>2026-03-22T10:29:45.564Z</time></trkpt><trkpt lat="43.9483283" lon="12.36316"><ele>163.0</ele><time>2026-03-22T10:29:46.563Z</time></trkpt><trkpt lat="43.9484033" lon="12.3633517"><ele>163.0</ele><time>2026-03-22T10:29:47.564Z</time></trkpt><trkpt lat="43.948485" lon="12.3635583"><ele>162.33333333333334</ele><time>2026-03-22T10:29:48.564Z</time></trkpt><trkpt lat="43.94857" lon="12.3637867"><ele>161.66666666666666</ele><time>2026-03-22T10:29:49.564Z</time></trkpt><trkpt lat="43.948655" lon="12.3640183"><ele>161.0</ele><time>2026-03-22T10:29:50.564Z</time></trkpt><trkpt lat="43.9487333" lon="12.36423"><ele>161.0</ele><time>2026-03-22T10:29:51.563Z</time></trkpt><trkpt lat="43.948815" lon="12.3644317"><ele>161.0</ele><time>2026-03-22T10:29:52.563Z</time></trkpt><trkpt lat="43.9488883" lon="12.36462"><ele>161.0</ele><time>2026-03-22T10:29:53.563Z</time></trkpt><trkpt lat="43.9489633" lon="12.3648"><ele>163.0</ele><time>2026-03-22T10:29:54.563Z</time></trkpt><trkpt lat="43.9490467" lon="12.3649733"><ele>165.0</ele><time>2026-03-22T10:29:55.564Z</time></trkpt><trkpt lat="43.94914" lon="12.3651417"><ele>167.0</ele><time>2026-03-22T10:29:56.564Z</time></trkpt><trkpt lat="43.949235" lon="12.365305"><ele>167.0</ele><time>2026-03-22T10:29:57.564Z</time></trkpt><trkpt lat="43.94934" lon="12.3654517"><ele>167.0</ele><time>2026-03-22T10:29:58.564Z</time></trkpt><trkpt lat="43.949455" lon="12.3656183"><ele>167.0</ele><time>2026-03-22T10:29:59.563Z</time></trkpt><trkpt lat="43.949595" lon="12.3658"><ele>167.0</ele><time>2026-03-22T10:30:00.564Z</time></trkpt><trkpt lat="43.9497483" lon="12.366"><ele>167.0</ele><time>2026-03-22T10:30:01.564Z</time></trkpt><trkpt lat="43.949915" lon="12.3662067"><ele>167.0</ele><time>2026-03-22T10:30:02.563Z</time></trkpt><trkpt lat="43.9500867" lon="12.3664067"><ele>163.66666666666666</ele><time>2026-03-22T10:30:03.563Z</time></trkpt><trkpt lat="43.9502617" lon="12.3666033"><ele>160.33333333333334</ele><time>2026-03-22T10:30:04.564Z</time></trkpt><trkpt lat="43.950435" lon="12.3667867"><ele>157.0</ele><time>2026-03-22T10:30:05.564Z</time></trkpt><trkpt lat="43.9505933" lon="12.3669717"><ele>157.0</ele><time>2026-03-22T10:30:06.563Z</time></trkpt><trkpt lat="43.95074" lon="12.36715"><ele>157.0</ele><time>2026-03-22T10:30:07.564Z</time></trkpt><trkpt lat="43.95089" lon="12.3673183"><ele>157.0</ele><time>2026-03-22T10:30:08.564Z</time></trkpt><trkpt lat="43.9510433" lon="12.3674767"><ele>158.0</ele><time>2026-03-22T10:30:09.564Z</time></trkpt><trkpt lat="43.95119" lon="12.3676383"><ele>159.0</ele><time>2026-03-22T10:30:10.564Z</time></trkpt><trkpt lat="43.9513267" lon="12.3677883"><ele>160.0</ele><time>2026-03-22T10:30:11.564Z</time></trkpt><trkpt lat="43.9514583" lon="12.3679417"><ele>161.66666666666669</ele><time>2026-03-22T10:30:12.563Z</time></trkpt><trkpt lat="43.9515883" lon="12.3680933"><ele>163.33333333333334</ele><time>2026-03-22T10:30:13.563Z</time></trkpt><trkpt lat="43.9517167" lon="12.3682617"><ele>165.0</ele><time>2026-03-22T10:30:14.564Z</time></trkpt><trkpt lat="43.9518433" lon="12.3684517"><ele>165.0</ele><time>2026-03-22T10:30:15.564Z</time></trkpt><trkpt lat="43.9519767" lon="12.3686417"><ele>165.0</ele><time>2026-03-22T10:30:16.563Z</time></trkpt><trkpt lat="43.952105" lon="12.3688417"><ele>165.0</ele><time>2026-03-22T10:30:17.564Z</time></trkpt><trkpt lat="43.952225" lon="12.3690617"><ele>165.66666666666666</ele><time>2026-03-22T10:30:18.564Z</time></trkpt><trkpt lat="43.952325" lon="12.3693"><ele>166.33333333333331</ele><time>2026-03-22T10:30:19.564Z</time></trkpt><trkpt lat="43.9524167" lon="12.3695367"><ele>167.0</ele><time>2026-03-22T10:30:20.564Z</time></trkpt><trkpt lat="43.9524917" lon="12.3697767"><ele>165.33333333333331</ele><time>2026-03-22T10:30:21.564Z</time></trkpt><trkpt lat="43.952565" lon="12.3700067"><ele>163.66666666666666</ele><time>2026-03-22T10:30:22.563Z</time></trkpt><trkpt lat="43.9526283" lon="12.370235"><ele>162.0</ele><time>2026-03-22T10:30:23.563Z</time></trkpt><trkpt lat="43.9526883" lon="12.37046"><ele>162.66666666666666</ele><time>2026-03-22T10:30:24.564Z</time></trkpt><trkpt lat="43.9527567" lon="12.37068"><ele>163.33333333333331</ele><time>2026-03-22T10:30:25.563Z</time></trkpt><trkpt lat="43.95282" lon="12.3709033"><ele>164.0</ele><time>2026-03-22T10:30:26.564Z</time></trkpt><trkpt lat="43.9528833" lon="12.3711217"><ele>164.0</ele><time>2026-03-22T10:30:27.564Z</time></trkpt><trkpt lat="43.9529383" lon="12.3713467"><ele>164.0</ele><time>2026-03-22T10:30:28.563Z</time></trkpt><trkpt lat="43.9530033" lon="12.3715717"><ele>164.0</ele><time>2026-03-22T10:30:29.563Z</time></trkpt><trkpt lat="43.95307" lon="12.3717883"><ele>164.0</ele><time>2026-03-22T10:30:30.564Z</time></trkpt><trkpt lat="43.95313" lon="12.371995"><ele>164.0</ele><time>2026-03-22T10:30:31.564Z</time></trkpt><trkpt lat="43.9531883" lon="12.37218"><ele>164.0</ele><time>2026-03-22T10:30:32.564Z</time></trkpt><trkpt lat="43.9532433" lon="12.3723567"><ele>164.0</ele><time>2026-03-22T10:30:33.563Z</time></trkpt><trkpt lat="43.953285" lon="12.372525"><ele>164.2</ele><time>2026-03-22T10:30:34.564Z</time></trkpt><trkpt lat="43.9533133" lon="12.3726883"><ele>164.39999999999998</ele><time>2026-03-22T10:30:35.564Z</time></trkpt><trkpt lat="43.9533233" lon="12.372835"><ele>164.6</ele><time>2026-03-22T10:30:36.563Z</time></trkpt><trkpt lat="43.9533333" lon="12.372965"><ele>164.8</ele><time>2026-03-22T10:30:37.564Z</time></trkpt><trkpt lat="43.95337" lon="12.3730783"><ele>165.0</ele><time>2026-03-22T10:30:38.564Z</time></trkpt><trkpt lat="43.9534367" lon="12.373205"><ele>164.25</ele><time>2026-03-22T10:30:39.564Z</time></trkpt><trkpt lat="43.9535217" lon="12.3733483"><ele>163.5</ele><time>2026-03-22T10:30:40.564Z</time></trkpt><trkpt lat="43.953595" lon="12.3735283"><ele>162.75</ele><time>2026-03-22T10:30:41.563Z</time></trkpt><trkpt lat="43.9536567" lon="12.3737417"><ele>162.0</ele><time>2026-03-22T10:30:42.564Z</time></trkpt><trkpt lat="43.95372" lon="12.3739617"><ele>162.0</ele><time>2026-03-22T10:30:43.564Z</time></trkpt><trkpt lat="43.953785" lon="12.37418"><ele>162.0</ele><time>2026-03-22T10:30:44.563Z</time></trkpt><trkpt lat="43.95385" lon="12.37439"><ele>162.0</ele><time>2026-03-22T10:30:45.563Z</time></trkpt><trkpt lat="43.9539133" lon="12.3745917"><ele>162.33333333333334</ele><time>2026-03-22T10:30:46.564Z</time></trkpt><trkpt lat="43.9539767" lon="12.3747933"><ele>162.66666666666669</ele><time>2026-03-22T10:30:47.563Z</time></trkpt><trkpt lat="43.9540417" lon="12.375005"><ele>163.0</ele><time>2026-03-22T10:30:48.563Z</time></trkpt><trkpt lat="43.9541" lon="12.3752283"><ele>163.0</ele><time>2026-03-22T10:30:49.563Z</time></trkpt><trkpt lat="43.9541667" lon="12.3754467"><ele>163.0</ele><time>2026-03-22T10:30:50.563Z</time></trkpt><trkpt lat="43.95424" lon="12.3756717"><ele>163.0</ele><time>2026-03-22T10:30:51.564Z</time></trkpt><trkpt lat="43.9543033" lon="12.3759"><ele>161.0</ele><time>2026-03-22T10:30:52.564Z</time></trkpt><trkpt lat="43.954365" lon="12.3761183"><ele>159.0</ele><time>2026-03-22T10:30:53.564Z</time></trkpt><trkpt lat="43.9544333" lon="12.3763367"><ele>157.0</ele><time>2026-03-22T10:30:54.564Z</time></trkpt><trkpt lat="43.95451" lon="12.3765567"><ele>157.0</ele><time>2026-03-22T10:30:55.564Z</time></trkpt><trkpt lat="43.954585" lon="12.3767767"><ele>157.0</ele><time>2026-03-22T10:30:56.564Z</time></trkpt><trkpt lat="43.95467" lon="12.37699"><ele>157.0</ele><time>2026-03-22T10:30:57.563Z</time></trkpt><trkpt lat="43.954755" lon="12.3771967"><ele>158.33333333333334</ele><time>2026-03-22T10:30:58.564Z</time></trkpt><trkpt lat="43.9548383" lon="12.3774017"><ele>159.66666666666666</ele><time>2026-03-22T10:30:59.563Z</time></trkpt><trkpt lat="43.95493" lon="12.3776167"><ele>161.0</ele><time>2026-03-22T10:31:00.564Z</time></trkpt><trkpt lat="43.955025" lon="12.37783"><ele>157.66666666666666</ele><time>2026-03-22T10:31:01.564Z</time></trkpt><trkpt lat="43.955115" lon="12.3780633"><ele>154.33333333333334</ele><time>2026-03-22T10:31:02.564Z</time></trkpt><trkpt lat="43.955205" lon="12.378295"><ele>151.0</ele><time>2026-03-22T10:31:03.564Z</time></trkpt><trkpt lat="43.9553183" lon="12.3785417"><ele>151.0</ele><time>2026-03-22T10:31:04.564Z</time></trkpt><trkpt lat="43.95543" lon="12.3788167"><ele>151.0</ele><time>2026-03-22T10:31:05.564Z</time></trkpt><trkpt lat="43.95556" lon="12.3791167"><ele>152.0</ele><time>2026-03-22T10:31:06.564Z</time></trkpt><trkpt lat="43.9556817" lon="12.3794483"><ele>153.0</ele><time>2026-03-22T10:31:07.564Z</time></trkpt><trkpt lat="43.9558217" lon="12.379785"><ele>146.5</ele><time>2026-03-22T10:31:08.564Z</time></trkpt><trkpt lat="43.9559633" lon="12.3801383"><ele>140.0</ele><time>2026-03-22T10:31:09.564Z</time></trkpt><trkpt lat="43.9561067" lon="12.3805033"><ele>143.5</ele><time>2026-03-22T10:31:10.564Z</time></trkpt><trkpt lat="43.95625" lon="12.38086"><ele>147.0</ele><time>2026-03-22T10:31:11.563Z</time></trkpt><trkpt lat="43.9563883" lon="12.3812017"><ele>149.5</ele><time>2026-03-22T10:31:12.563Z</time></trkpt><trkpt lat="43.9565233" lon="12.381525"><ele>152.0</ele><time>2026-03-22T10:31:13.563Z</time></trkpt><trkpt lat="43.9566567" lon="12.38184"><ele>146.0</ele><time>2026-03-22T10:31:14.563Z</time></trkpt><trkpt lat="43.9567883" lon="12.3821483"><ele>140.0</ele><time>2026-03-22T10:31:15.563Z</time></trkpt><trkpt lat="43.9569167" lon="12.3824583"><ele>140.0</ele><time>2026-03-22T10:31:16.564Z</time></trkpt><trkpt lat="43.95705" lon="12.3827667"><ele>140.0</ele><time>2026-03-22T10:31:17.564Z</time></trkpt><trkpt lat="43.957185" lon="12.3830833"><ele>143.5</ele><time>2026-03-22T10:31:18.564Z</time></trkpt><trkpt lat="43.9573167" lon="12.3834033"><ele>147.0</ele><time>2026-03-22T10:31:19.565Z</time></trkpt><trkpt lat="43.9574417" lon="12.3837133"><ele>140.5</ele><time>2026-03-22T10:31:20.564Z</time></trkpt><trkpt lat="43.9575683" lon="12.384005"><ele>134.0</ele><time>2026-03-22T10:31:21.565Z</time></trkpt><trkpt lat="43.9576667" lon="12.3843017"><ele>134.0</ele><time>2026-03-22T10:31:22.565Z</time></trkpt><trkpt lat="43.95776" lon="12.3845967"><ele>134.0</ele><time>2026-03-22T10:31:23.565Z</time></trkpt><trkpt lat="43.9578333" lon="12.38491"><ele>134.5</ele><time>2026-03-22T10:31:24.565Z</time></trkpt><trkpt lat="43.9578817" lon="12.3852417"><ele>135.0</ele><time>2026-03-22T10:31:25.565Z</time></trkpt><trkpt lat="43.95791" lon="12.3855767"><ele>135.0</ele><time>2026-03-22T10:31:26.565Z</time></trkpt><trkpt lat="43.9579083" lon="12.38592"><ele>135.0</ele><time>2026-03-22T10:31:27.564Z</time></trkpt><trkpt lat="43.9578767" lon="12.3862717"><ele>134.5</ele><time>2026-03-22T10:31:28.565Z</time></trkpt><trkpt lat="43.957815" lon="12.38662"><ele>134.0</ele><time>2026-03-22T10:31:29.565Z</time></trkpt><trkpt lat="43.95774" lon="12.38695"><ele>131.5</ele><time>2026-03-22T10:31:30.565Z</time></trkpt><trkpt lat="43.9576567" lon="12.3872567"><ele>129.0</ele><time>2026-03-22T10:31:31.565Z</time></trkpt><trkpt lat="43.957575" lon="12.387545"><ele>130.66666666666666</ele><time>2026-03-22T10:31:32.565Z</time></trkpt><trkpt lat="43.9575017" lon="12.3878133"><ele>132.33333333333331</ele><time>2026-03-22T10:31:33.565Z</time></trkpt><trkpt lat="43.9574333" lon="12.38807"><ele>134.0</ele><time>2026-03-22T10:31:34.564Z</time></trkpt><trkpt lat="43.9573617" lon="12.38832"><ele>134.0</ele><time>2026-03-22T10:31:35.565Z</time></trkpt><trkpt lat="43.9572967" lon="12.38858"><ele>134.0</ele><time>2026-03-22T10:31:36.565Z</time></trkpt><trkpt lat="43.95723" lon="12.38885"><ele>134.0</ele><time>2026-03-22T10:31:37.565Z</time></trkpt><trkpt lat="43.9571667" lon="12.3891167"><ele>133.0</ele><time>2026-03-22T10:31:38.565Z</time></trkpt><trkpt lat="43.9571133" lon="12.3893717"><ele>132.0</ele><time>2026-03-22T10:31:39.565Z</time></trkpt><trkpt lat="43.9570717" lon="12.3896267"><ele>131.0</ele><time>2026-03-22T10:31:40.565Z</time></trkpt><trkpt lat="43.957045" lon="12.38987"><ele>131.0</ele><time>2026-03-22T10:31:41.565Z</time></trkpt><trkpt lat="43.95702" lon="12.3901067"><ele>131.0</ele><time>2026-03-22T10:31:42.564Z</time></trkpt><trkpt lat="43.9570033" lon="12.3903467"><ele>131.0</ele><time>2026-03-22T10:31:43.565Z</time></trkpt><trkpt lat="43.9569983" lon="12.3905783"><ele>130.66666666666666</ele><time>2026-03-22T10:31:44.564Z</time></trkpt><trkpt lat="43.9569967" lon="12.3908067"><ele>130.33333333333334</ele><time>2026-03-22T10:31:45.565Z</time></trkpt><trkpt lat="43.957005" lon="12.3910383"><ele>130.0</ele><time>2026-03-22T10:31:46.564Z</time></trkpt><trkpt lat="43.9570217" lon="12.3912617"><ele>130.0</ele><time>2026-03-22T10:31:47.565Z</time></trkpt><trkpt lat="43.9570433" lon="12.3914783"><ele>130.0</ele><time>2026-03-22T10:31:48.565Z</time></trkpt><trkpt lat="43.95707" lon="12.39168"><ele>130.0</ele><time>2026-03-22T10:31:49.564Z</time></trkpt><trkpt lat="43.95711" lon="12.3918667"><ele>130.0</ele><time>2026-03-22T10:31:50.565Z</time></trkpt><trkpt lat="43.9571533" lon="12.3920483"><ele>130.25</ele><time>2026-03-22T10:31:51.565Z</time></trkpt><trkpt lat="43.9571967" lon="12.3922283"><ele>130.5</ele><time>2026-03-22T10:31:52.564Z</time></trkpt><trkpt lat="43.9572433" lon="12.3924083"><ele>130.75</ele><time>2026-03-22T10:31:53.565Z</time></trkpt><trkpt lat="43.9573" lon="12.3925883"><ele>131.0</ele><time>2026-03-22T10:31:54.565Z</time></trkpt><trkpt lat="43.9573567" lon="12.3927667"><ele>131.0</ele><time>2026-03-22T10:31:55.565Z</time></trkpt><trkpt lat="43.9574233" lon="12.3929333"><ele>131.0</ele><time>2026-03-22T10:31:56.565Z</time></trkpt><trkpt lat="43.957485" lon="12.3930967"><ele>131.0</ele><time>2026-03-22T10:31:57.565Z</time></trkpt><trkpt lat="43.9575483" lon="12.393275"><ele>131.0</ele><time>2026-03-22T10:31:58.564Z</time></trkpt><trkpt lat="43.9576167" lon="12.393465"><ele>130.0</ele><time>2026-03-22T10:31:59.564Z</time></trkpt><trkpt lat="43.957685" lon="12.3936633"><ele>129.0</ele><time>2026-03-22T10:32:00.565Z</time></trkpt><trkpt lat="43.95776" lon="12.3938733"><ele>128.0</ele><time>2026-03-22T10:32:01.565Z</time></trkpt><trkpt lat="43.9578233" lon="12.3940683"><ele>128.0</ele><time>2026-03-22T10:32:02.565Z</time></trkpt><trkpt lat="43.95789" lon="12.3942617"><ele>128.0</ele><time>2026-03-22T10:32:03.565Z</time></trkpt><trkpt lat="43.9579583" lon="12.394455"><ele>128.0</ele><time>2026-03-22T10:32:04.564Z</time></trkpt><trkpt lat="43.958025" lon="12.3946467"><ele>129.33333333333331</ele><time>2026-03-22T10:32:05.565Z</time></trkpt><trkpt lat="43.9581033" lon="12.3948367"><ele>130.66666666666666</ele><time>2026-03-22T10:32:06.564Z</time></trkpt><trkpt lat="43.95818" lon="12.395065"><ele>132.0</ele><time>2026-03-22T10:32:07.565Z</time></trkpt><trkpt lat="43.9582817" lon="12.3953367"><ele>129.5</ele><time>2026-03-22T10:32:08.565Z</time></trkpt><trkpt lat="43.958385" lon="12.3956567"><ele>127.0</ele><time>2026-03-22T10:32:09.565Z</time></trkpt><trkpt lat="43.9584917" lon="12.395995"><ele>127.0</ele><time>2026-03-22T10:32:10.565Z</time></trkpt><trkpt lat="43.9585983" lon="12.3963233"><ele>127.0</ele><time>2026-03-22T10:32:11.564Z</time></trkpt><trkpt lat="43.958705" lon="12.3966433"><ele>128.5</ele><time>2026-03-22T10:32:12.564Z</time></trkpt><trkpt lat="43.9588117" lon="12.3969467"><ele>130.0</ele><time>2026-03-22T10:32:13.564Z</time></trkpt><trkpt lat="43.95892" lon="12.39723"><ele>130.66666666666669</ele><time>2026-03-22T10:32:14.565Z</time></trkpt><trkpt lat="43.959025" lon="12.3975"><ele>131.33333333333334</ele><time>2026-03-22T10:32:15.565Z</time></trkpt><trkpt lat="43.959135" lon="12.3977517"><ele>132.0</ele><time>2026-03-22T10:32:16.564Z</time></trkpt><trkpt lat="43.9592567" lon="12.398"><ele>132.0</ele><time>2026-03-22T10:32:17.565Z</time></trkpt><trkpt lat="43.959385" lon="12.39826"><ele>132.0</ele><time>2026-03-22T10:32:18.565Z</time></trkpt><trkpt lat="43.9595267" lon="12.3985383"><ele>128.5</ele><time>2026-03-22T10:32:19.564Z</time></trkpt><trkpt lat="43.9596817" lon="12.39884"><ele>125.0</ele><time>2026-03-22T10:32:20.565Z</time></trkpt><trkpt lat="43.9598433" lon="12.3991417"><ele>125.0</ele><time>2026-03-22T10:32:21.565Z</time></trkpt><trkpt lat="43.9600033" lon="12.39943"><ele>125.0</ele><time>2026-03-22T10:32:22.564Z</time></trkpt><trkpt lat="43.9601433" lon="12.3997117"><ele>125.0</ele><time>2026-03-22T10:32:23.564Z</time></trkpt><trkpt lat="43.9602783" lon="12.399975"><ele>125.0</ele><time>2026-03-22T10:32:24.565Z</time></trkpt><trkpt lat="43.960405" lon="12.4002133"><ele>125.0</ele><time>2026-03-22T10:32:25.565Z</time></trkpt><trkpt lat="43.96053" lon="12.400445"><ele>124.33333333333333</ele><time>2026-03-22T10:32:26.565Z</time></trkpt><trkpt lat="43.9606567" lon="12.40066"><ele>123.66666666666666</ele><time>2026-03-22T10:32:27.564Z</time></trkpt><trkpt lat="43.960785" lon="12.4008517"><ele>123.0</ele><time>2026-03-22T10:32:28.564Z</time></trkpt><trkpt lat="43.9609067" lon="12.4010183"><ele>123.0</ele><time>2026-03-22T10:32:29.565Z</time></trkpt><trkpt lat="43.9610267" lon="12.4011583"><ele>123.0</ele><time>2026-03-22T10:32:30.565Z</time></trkpt><trkpt lat="43.96113" lon="12.401275"><ele>123.0</ele><time>2026-03-22T10:32:31.565Z</time></trkpt><trkpt lat="43.9612083" lon="12.40136"><ele>123.0</ele><time>2026-03-22T10:32:32.565Z</time></trkpt><trkpt lat="43.96126" lon="12.401415"><ele>124.33333333333333</ele><time>2026-03-22T10:32:33.564Z</time></trkpt><trkpt lat="43.96131" lon="12.4015017"><ele>125.66666666666666</ele><time>2026-03-22T10:32:35.565Z</time></trkpt><trkpt lat="43.9613633" lon="12.401655"><ele>127.0</ele><time>2026-03-22T10:32:37.564Z</time></trkpt><trkpt lat="43.9613983" lon="12.401735"><ele>128.33333333333331</ele><time>2026-03-22T10:32:38.565Z</time></trkpt><trkpt lat="43.9614467" lon="12.401795"><ele>129.66666666666666</ele><time>2026-03-22T10:32:39.565Z</time></trkpt><trkpt lat="43.9615317" lon="12.401815"><ele>131.0</ele><time>2026-03-22T10:32:40.565Z</time></trkpt><trkpt lat="43.9616383" lon="12.4018117"><ele>130.5</ele><time>2026-03-22T10:32:41.564Z</time></trkpt><trkpt lat="43.9617633" lon="12.4018317"><ele>130.0</ele><time>2026-03-22T10:32:42.564Z</time></trkpt><trkpt lat="43.9619017" lon="12.4019"><ele>129.5</ele><time>2026-03-22T10:32:43.565Z</time></trkpt><trkpt lat="43.9620483" lon="12.401985"><ele>129.0</ele><time>2026-03-22T10:32:44.565Z</time></trkpt><trkpt lat="43.96222" lon="12.40209"><ele>129.0</ele><time>2026-03-22T10:32:45.565Z</time></trkpt><trkpt lat="43.9624067" lon="12.4022083"><ele>129.0</ele><time>2026-03-22T10:32:46.564Z</time></trkpt><trkpt lat="43.9625817" lon="12.4023217"><ele>129.0</ele><time>2026-03-22T10:32:47.564Z</time></trkpt><trkpt lat="43.9627567" lon="12.4024217"><ele>129.0</ele><time>2026-03-22T10:32:48.565Z</time></trkpt><trkpt lat="43.962925" lon="12.4025233"><ele>129.0</ele><time>2026-03-22T10:32:49.564Z</time></trkpt><trkpt lat="43.9630967" lon="12.4026283"><ele>129.0</ele><time>2026-03-22T10:32:50.564Z</time></trkpt><trkpt lat="43.96327" lon="12.402745"><ele>129.0</ele><time>2026-03-22T10:32:51.565Z</time></trkpt><trkpt lat="43.9634383" lon="12.402865"><ele>129.0</ele><time>2026-03-22T10:32:52.565Z</time></trkpt><trkpt lat="43.9636017" lon="12.4030017"><ele>129.0</ele><time>2026-03-22T10:32:53.564Z</time></trkpt><trkpt lat="43.9637633" lon="12.4031333"><ele>129.0</ele><time>2026-03-22T10:32:54.564Z</time></trkpt><trkpt lat="43.963915" lon="12.4032733"><ele>129.0</ele><time>2026-03-22T10:32:55.564Z</time></trkpt><trkpt lat="43.9640583" lon="12.4034267"><ele>129.0</ele><time>2026-03-22T10:32:56.564Z</time></trkpt><trkpt lat="43.964195" lon="12.4035983"><ele>126.33333333333334</ele><time>2026-03-22T10:32:57.565Z</time></trkpt><trkpt lat="43.9643217" lon="12.4037833"><ele>123.66666666666667</ele><time>2026-03-22T10:32:58.565Z</time></trkpt><trkpt lat="43.9644567" lon="12.4039717"><ele>121.0</ele><time>2026-03-22T10:32:59.565Z</time></trkpt><trkpt lat="43.9645933" lon="12.4041617"><ele>121.0</ele><time>2026-03-22T10:33:00.565Z</time></trkpt><trkpt lat="43.9647267" lon="12.4043467"><ele>121.0</ele><time>2026-03-22T10:33:01.565Z</time></trkpt><trkpt lat="43.9648517" lon="12.404525"><ele>121.0</ele><time>2026-03-22T10:33:02.565Z</time></trkpt><trkpt lat="43.9649783" lon="12.4047167"><ele>120.66666666666667</ele><time>2026-03-22T10:33:03.565Z</time></trkpt><trkpt lat="43.965115" lon="12.4049067"><ele>120.33333333333334</ele><time>2026-03-22T10:33:04.565Z</time></trkpt><trkpt lat="43.9652517" lon="12.4050933"><ele>120.0</ele><time>2026-03-22T10:33:05.565Z</time></trkpt><trkpt lat="43.96538" lon="12.405275"><ele>120.0</ele><time>2026-03-22T10:33:06.565Z</time></trkpt><trkpt lat="43.9655117" lon="12.4054567"><ele>120.0</ele><time>2026-03-22T10:33:07.564Z</time></trkpt><trkpt lat="43.9656433" lon="12.40563"><ele>120.0</ele><time>2026-03-22T10:33:08.564Z</time></trkpt><trkpt lat="43.9657783" lon="12.4058067"><ele>119.66666666666666</ele><time>2026-03-22T10:33:09.564Z</time></trkpt><trkpt lat="43.9659183" lon="12.4059933"><ele>119.33333333333333</ele><time>2026-03-22T10:33:10.564Z</time></trkpt><trkpt lat="43.9660483" lon="12.406195"><ele>119.0</ele><time>2026-03-22T10:33:11.564Z</time></trkpt><trkpt lat="43.9661717" lon="12.4064017"><ele>119.0</ele><time>2026-03-22T10:33:12.565Z</time></trkpt><trkpt lat="43.9662933" lon="12.40662"><ele>119.0</ele><time>2026-03-22T10:33:13.564Z</time></trkpt><trkpt lat="43.96642" lon="12.4068567"><ele>119.0</ele><time>2026-03-22T10:33:14.565Z</time></trkpt><trkpt lat="43.9665433" lon="12.407115"><ele>118.0</ele><time>2026-03-22T10:33:15.565Z</time></trkpt><trkpt lat="43.9666567" lon="12.4073733"><ele>117.0</ele><time>2026-03-22T10:33:16.565Z</time></trkpt><trkpt lat="43.9667583" lon="12.4076117"><ele>116.0</ele><time>2026-03-22T10:33:17.564Z</time></trkpt><trkpt lat="43.9668583" lon="12.4078467"><ele>116.33333333333333</ele><time>2026-03-22T10:33:18.565Z</time></trkpt><trkpt lat="43.9669633" lon="12.4080817"><ele>116.66666666666666</ele><time>2026-03-22T10:33:19.565Z</time></trkpt><trkpt lat="43.9670683" lon="12.4083083"><ele>117.0</ele><time>2026-03-22T10:33:20.565Z</time></trkpt><trkpt lat="43.9671683" lon="12.40853"><ele>117.0</ele><time>2026-03-22T10:33:21.565Z</time></trkpt><trkpt lat="43.9672617" lon="12.408735"><ele>117.0</ele><time>2026-03-22T10:33:22.564Z</time></trkpt><trkpt lat="43.9673483" lon="12.408925"><ele>117.0</ele><time>2026-03-22T10:33:23.565Z</time></trkpt><trkpt lat="43.967425" lon="12.409095"><ele>117.0</ele><time>2026-03-22T10:33:24.565Z</time></trkpt><trkpt lat="43.9674933" lon="12.4092533"><ele>117.0</ele><time>2026-03-22T10:33:25.565Z</time></trkpt><trkpt lat="43.9675567" lon="12.4093967"><ele>117.0</ele><time>2026-03-22T10:33:26.565Z</time></trkpt><trkpt lat="43.9676167" lon="12.4095367"><ele>117.0</ele><time>2026-03-22T10:33:27.565Z</time></trkpt><trkpt lat="43.967685" lon="12.4096767"><ele>116.25</ele><time>2026-03-22T10:33:28.565Z</time></trkpt><trkpt lat="43.9677583" lon="12.4098233"><ele>115.5</ele><time>2026-03-22T10:33:29.565Z</time></trkpt><trkpt lat="43.9678317" lon="12.409985"><ele>114.75</ele><time>2026-03-22T10:33:30.565Z</time></trkpt><trkpt lat="43.96791" lon="12.4101467"><ele>114.0</ele><time>2026-03-22T10:33:31.565Z</time></trkpt><trkpt lat="43.967995" lon="12.4103117"><ele>114.0</ele><time>2026-03-22T10:33:32.565Z</time></trkpt><trkpt lat="43.9680783" lon="12.41048"><ele>114.0</ele><time>2026-03-22T10:33:33.565Z</time></trkpt><trkpt lat="43.9681617" lon="12.41065"><ele>114.0</ele><time>2026-03-22T10:33:34.565Z</time></trkpt><trkpt lat="43.968255" lon="12.4108167"><ele>114.0</ele><time>2026-03-22T10:33:35.565Z</time></trkpt><trkpt lat="43.9683533" lon="12.4109817"><ele>114.0</ele><time>2026-03-22T10:33:36.565Z</time></trkpt><trkpt lat="43.9684683" lon="12.4111417"><ele>114.0</ele><time>2026-03-22T10:33:37.564Z</time></trkpt><trkpt lat="43.9685883" lon="12.4112933"><ele>114.0</ele><time>2026-03-22T10:33:38.564Z</time></trkpt><trkpt lat="43.9687117" lon="12.41144"><ele>115.33333333333334</ele><time>2026-03-22T10:33:39.565Z</time></trkpt><trkpt lat="43.9688383" lon="12.4115767"><ele>116.66666666666667</ele><time>2026-03-22T10:33:40.565Z</time></trkpt><trkpt lat="43.9689733" lon="12.4116983"><ele>118.0</ele><time>2026-03-22T10:33:41.565Z</time></trkpt><trkpt lat="43.9691317" lon="12.411815"><ele>116.66666666666667</ele><time>2026-03-22T10:33:42.565Z</time></trkpt><trkpt lat="43.9692933" lon="12.4119267"><ele>115.33333333333334</ele><time>2026-03-22T10:33:43.564Z</time></trkpt><trkpt lat="43.96948" lon="12.4120283"><ele>114.0</ele><time>2026-03-22T10:33:44.565Z</time></trkpt><trkpt lat="43.9696833" lon="12.4121283"><ele>114.5</ele><time>2026-03-22T10:33:45.565Z</time></trkpt><trkpt lat="43.9698967" lon="12.412215"><ele>115.0</ele><time>2026-03-22T10:33:46.565Z</time></trkpt><trkpt lat="43.9701333" lon="12.4122783"><ele>115.0</ele><time>2026-03-22T10:33:47.565Z</time></trkpt><trkpt lat="43.9703917" lon="12.4123217"><ele>115.0</ele><time>2026-03-22T10:33:48.565Z</time></trkpt><trkpt lat="43.9706633" lon="12.4123333"><ele>116.0</ele><time>2026-03-22T10:33:49.564Z</time></trkpt><trkpt lat="43.9709133" lon="12.4123183"><ele>117.0</ele><time>2026-03-22T10:33:50.565Z</time></trkpt><trkpt lat="43.9711583" lon="12.412275"><ele>117.0</ele><time>2026-03-22T10:33:51.564Z</time></trkpt><trkpt lat="43.971395" lon="12.4122133"><ele>117.0</ele><time>2026-03-22T10:33:52.564Z</time></trkpt><trkpt lat="43.971615" lon="12.4121317"><ele>118.33333333333334</ele><time>2026-03-22T10:33:53.564Z</time></trkpt><trkpt lat="43.9718167" lon="12.4120567"><ele>119.66666666666667</ele><time>2026-03-22T10:33:54.565Z</time></trkpt><trkpt lat="43.97199" lon="12.4119883"><ele>121.0</ele><time>2026-03-22T10:33:55.564Z</time></trkpt><trkpt lat="43.9721333" lon="12.411935"><ele>121.00000000000001</ele><time>2026-03-22T10:33:56.565Z</time></trkpt><trkpt lat="43.9722417" lon="12.41189"><ele>121.0</ele><time>2026-03-22T10:33:57.564Z</time></trkpt><trkpt lat="43.9723267" lon="12.4118667"><ele>121.0</ele><time>2026-03-22T10:33:58.564Z</time></trkpt><trkpt lat="43.97239" lon="12.4118817"><ele>121.0</ele><time>2026-03-22T10:33:59.564Z</time></trkpt><trkpt lat="43.9724433" lon="12.4119383"><ele>121.00000000000001</ele><time>2026-03-22T10:34:00.565Z</time></trkpt><trkpt lat="43.9724667" lon="12.4120267"><ele>121.0</ele><time>2026-03-22T10:34:01.565Z</time></trkpt><trkpt lat="43.9724617" lon="12.4121183"><ele>122.0</ele><time>2026-03-22T10:34:02.565Z</time></trkpt><trkpt lat="43.972425" lon="12.4122167"><ele>123.0</ele><time>2026-03-22T10:34:03.565Z</time></trkpt><trkpt lat="43.972355" lon="12.4123333"><ele>124.0</ele><time>2026-03-22T10:34:04.564Z</time></trkpt><trkpt lat="43.9723033" lon="12.4124633"><ele>125.0</ele><time>2026-03-22T10:34:05.564Z</time></trkpt><trkpt lat="43.97228" lon="12.4125983"><ele>126.0</ele><time>2026-03-22T10:34:06.564Z</time></trkpt><trkpt lat="43.9722983" lon="12.4127117"><ele>126.0</ele><time>2026-03-22T10:34:07.564Z</time></trkpt><trkpt lat="43.9723533" lon="12.4127767"><ele>126.0</ele><time>2026-03-22T10:34:08.564Z</time></trkpt><trkpt lat="43.9724333" lon="12.412795"><ele>126.0</ele><time>2026-03-22T10:34:09.565Z</time></trkpt><trkpt lat="43.97254" lon="12.4127517"><ele>126.0</ele><time>2026-03-22T10:34:10.565Z</time></trkpt><trkpt lat="43.972645" lon="12.4126683"><ele>126.0</ele><time>2026-03-22T10:34:11.565Z</time></trkpt><trkpt lat="43.972745" lon="12.4126"><ele>128.0</ele><time>2026-03-22T10:34:12.565Z</time></trkpt><trkpt lat="43.9728367" lon="12.412585"><ele>130.0</ele><time>2026-03-22T10:34:13.565Z</time></trkpt><trkpt lat="43.9729167" lon="12.412615"><ele>132.0</ele><time>2026-03-22T10:34:14.564Z</time></trkpt><trkpt lat="43.9729483" lon="12.4127933"><ele>134.0</ele><time>2026-03-22T10:34:16.565Z</time></trkpt><trkpt lat="43.9729233" lon="12.4129167"><ele>136.0</ele><time>2026-03-22T10:34:17.565Z</time></trkpt><trkpt lat="43.9728567" lon="12.4130933"><ele>138.33333333333334</ele><time>2026-03-22T10:34:18.565Z</time></trkpt><trkpt lat="43.9727933" lon="12.4133283"><ele>140.66666666666666</ele><time>2026-03-22T10:34:19.565Z</time></trkpt><trkpt lat="43.97276" lon="12.4136067"><ele>143.0</ele><time>2026-03-22T10:34:20.565Z</time></trkpt><trkpt lat="43.9727533" lon="12.4139183"><ele>148.5</ele><time>2026-03-22T10:34:21.565Z</time></trkpt><trkpt lat="43.9727717" lon="12.4142533"><ele>154.0</ele><time>2026-03-22T10:34:22.565Z</time></trkpt><trkpt lat="43.9728117" lon="12.414575"><ele>155.66666666666669</ele><time>2026-03-22T10:34:23.564Z</time></trkpt><trkpt lat="43.9728533" lon="12.4148783"><ele>157.33333333333334</ele><time>2026-03-22T10:34:24.565Z</time></trkpt><trkpt lat="43.9728767" lon="12.4151633"><ele>159.0</ele><time>2026-03-22T10:34:25.564Z</time></trkpt><trkpt lat="43.9729" lon="12.4154367"><ele>159.66666666666666</ele><time>2026-03-22T10:34:26.564Z</time></trkpt><trkpt lat="43.9729017" lon="12.4157017"><ele>160.33333333333331</ele><time>2026-03-22T10:34:27.565Z</time></trkpt><trkpt lat="43.9729033" lon="12.4159417"><ele>161.0</ele><time>2026-03-22T10:34:28.565Z</time></trkpt><trkpt lat="43.9728933" lon="12.416165"><ele>161.33333333333331</ele><time>2026-03-22T10:34:29.565Z</time></trkpt><trkpt lat="43.9728767" lon="12.41638"><ele>161.66666666666666</ele><time>2026-03-22T10:34:30.564Z</time></trkpt><trkpt lat="43.972845" lon="12.416605"><ele>162.0</ele><time>2026-03-22T10:34:31.564Z</time></trkpt><trkpt lat="43.9727933" lon="12.4168433"><ele>162.0</ele><time>2026-03-22T10:34:32.565Z</time></trkpt><trkpt lat="43.972725" lon="12.417085"><ele>162.0</ele><time>2026-03-22T10:34:33.564Z</time></trkpt><trkpt lat="43.9726433" lon="12.417295"><ele>162.0</ele><time>2026-03-22T10:34:34.564Z</time></trkpt><trkpt lat="43.972545" lon="12.4174867"><ele>161.0</ele><time>2026-03-22T10:34:35.565Z</time></trkpt><trkpt lat="43.9724117" lon="12.417665"><ele>160.0</ele><time>2026-03-22T10:34:36.564Z</time></trkpt><trkpt lat="43.9722617" lon="12.4178217"><ele>159.0</ele><time>2026-03-22T10:34:37.565Z</time></trkpt><trkpt lat="43.9721233" lon="12.417985"><ele>161.33333333333334</ele><time>2026-03-22T10:34:38.565Z</time></trkpt><trkpt lat="43.9719817" lon="12.4181767"><ele>163.66666666666669</ele><time>2026-03-22T10:34:39.565Z</time></trkpt><trkpt lat="43.971865" lon="12.4183717"><ele>166.0</ele><time>2026-03-22T10:34:40.565Z</time></trkpt><trkpt lat="43.97177" lon="12.418555"><ele>166.0</ele><time>2026-03-22T10:34:41.564Z</time></trkpt><trkpt lat="43.9717317" lon="12.4187517"><ele>166.0</ele><time>2026-03-22T10:34:42.565Z</time></trkpt><trkpt lat="43.971715" lon="12.4189467"><ele>166.0</ele><time>2026-03-22T10:34:43.564Z</time></trkpt><trkpt lat="43.971725" lon="12.4191217"><ele>166.0</ele><time>2026-03-22T10:34:44.565Z</time></trkpt><trkpt lat="43.9717567" lon="12.419275"><ele>167.20000000000002</ele><time>2026-03-22T10:34:45.565Z</time></trkpt><trkpt lat="43.9718133" lon="12.4194017"><ele>168.4</ele><time>2026-03-22T10:34:46.565Z</time></trkpt><trkpt lat="43.9719017" lon="12.4194783"><ele>169.6</ele><time>2026-03-22T10:34:47.564Z</time></trkpt><trkpt lat="43.9720183" lon="12.419495"><ele>170.8</ele><time>2026-03-22T10:34:48.564Z</time></trkpt><trkpt lat="43.9721317" lon="12.4195067"><ele>172.0</ele><time>2026-03-22T10:34:49.565Z</time></trkpt><trkpt lat="43.97223" lon="12.41956"><ele>172.5</ele><time>2026-03-22T10:34:50.565Z</time></trkpt><trkpt lat="43.9722983" lon="12.4196717"><ele>173.0</ele><time>2026-03-22T10:34:51.564Z</time></trkpt><trkpt lat="43.9723183" lon="12.419825"><ele>173.5</ele><time>2026-03-22T10:34:52.565Z</time></trkpt><trkpt lat="43.9722933" lon="12.4200133"><ele>174.0</ele><time>2026-03-22T10:34:53.565Z</time></trkpt><trkpt lat="43.9722233" lon="12.4202283"><ele>174.0</ele><time>2026-03-22T10:34:54.565Z</time></trkpt><trkpt lat="43.972135" lon="12.420465"><ele>174.0</ele><time>2026-03-22T10:34:55.564Z</time></trkpt><trkpt lat="43.97205" lon="12.4206783"><ele>174.0</ele><time>2026-03-22T10:34:56.564Z</time></trkpt><trkpt lat="43.9719733" lon="12.4208417"><ele>174.6</ele><time>2026-03-22T10:34:57.565Z</time></trkpt><trkpt lat="43.9719417" lon="12.420985"><ele>175.2</ele><time>2026-03-22T10:34:58.564Z</time></trkpt><trkpt lat="43.9719567" lon="12.421115"><ele>175.79999999999998</ele><time>2026-03-22T10:34:59.565Z</time></trkpt><trkpt lat="43.972025" lon="12.42122"><ele>176.39999999999998</ele><time>2026-03-22T10:35:00.564Z</time></trkpt><trkpt lat="43.9721467" lon="12.4212933"><ele>177.0</ele><time>2026-03-22T10:35:01.565Z</time></trkpt><trkpt lat="43.9723033" lon="12.42134"><ele>177.75</ele><time>2026-03-22T10:35:02.564Z</time></trkpt><trkpt lat="43.9724617" lon="12.4213883"><ele>178.5</ele><time>2026-03-22T10:35:03.565Z</time></trkpt><trkpt lat="43.9725917" lon="12.42145"><ele>179.25</ele><time>2026-03-22T10:35:04.565Z</time></trkpt><trkpt lat="43.972685" lon="12.42155"><ele>180.0</ele><time>2026-03-22T10:35:05.564Z</time></trkpt><trkpt lat="43.9727417" lon="12.4216867"><ele>182.25</ele><time>2026-03-22T10:35:06.565Z</time></trkpt><trkpt lat="43.9727567" lon="12.4218467"><ele>184.5</ele><time>2026-03-22T10:35:07.565Z</time></trkpt><trkpt lat="43.9727167" lon="12.4220067"><ele>186.75</ele><time>2026-03-22T10:35:08.565Z</time></trkpt><trkpt lat="43.972635" lon="12.4221533"><ele>189.0</ele><time>2026-03-22T10:35:09.565Z</time></trkpt><trkpt lat="43.97257" lon="12.4223067"><ele>190.0</ele><time>2026-03-22T10:35:10.565Z</time></trkpt><trkpt lat="43.97254" lon="12.4224917"><ele>191.0</ele><time>2026-03-22T10:35:11.565Z</time></trkpt><trkpt lat="43.972565" lon="12.4227033"><ele>192.0</ele><time>2026-03-22T10:35:12.565Z</time></trkpt><trkpt lat="43.972625" lon="12.42293"><ele>194.0</ele><time>2026-03-22T10:35:13.565Z</time></trkpt><trkpt lat="43.97271" lon="12.423165"><ele>196.0</ele><time>2026-03-22T10:35:14.565Z</time></trkpt><trkpt lat="43.9727817" lon="12.4233917"><ele>198.0</ele><time>2026-03-22T10:35:15.564Z</time></trkpt><trkpt lat="43.9728133" lon="12.4236033"><ele>198.0</ele><time>2026-03-22T10:35:16.564Z</time></trkpt><trkpt lat="43.9728133" lon="12.4237933"><ele>198.0</ele><time>2026-03-22T10:35:17.565Z</time></trkpt><trkpt lat="43.9728217" lon="12.423945"><ele>198.0</ele><time>2026-03-22T10:35:18.565Z</time></trkpt><trkpt lat="43.972855" lon="12.4240533"><ele>198.0</ele><time>2026-03-22T10:35:19.564Z</time></trkpt><trkpt lat="43.9729033" lon="12.4241283"><ele>198.0</ele><time>2026-03-22T10:35:20.565Z</time></trkpt><trkpt lat="43.972985" lon="12.4241567"><ele>198.0</ele><time>2026-03-22T10:35:21.565Z</time></trkpt><trkpt lat="43.9730683" lon="12.424135"><ele>198.0</ele><time>2026-03-22T10:35:22.565Z</time></trkpt><trkpt lat="43.973135" lon="12.424005"><ele>198.0</ele><time>2026-03-22T10:35:23.564Z</time></trkpt><trkpt lat="43.97319" lon="12.4238517"><ele>198.0</ele><time>2026-03-22T10:35:24.565Z</time></trkpt><trkpt lat="43.9732367" lon="12.423715"><ele>198.0</ele><time>2026-03-22T10:35:25.564Z</time></trkpt><trkpt lat="43.9732933" lon="12.4236133"><ele>199.8</ele><time>2026-03-22T10:35:26.565Z</time></trkpt><trkpt lat="43.973375" lon="12.4235633"><ele>201.60000000000002</ele><time>2026-03-22T10:35:27.565Z</time></trkpt><trkpt lat="43.9734633" lon="12.4235533"><ele>203.39999999999998</ele><time>2026-03-22T10:35:28.565Z</time></trkpt><trkpt lat="43.9735583" lon="12.423595"><ele>205.2</ele><time>2026-03-22T10:35:29.565Z</time></trkpt><trkpt lat="43.9736767" lon="12.4236717"><ele>207.0</ele><time>2026-03-22T10:35:30.565Z</time></trkpt><trkpt lat="43.9738" lon="12.423755"><ele>207.0</ele><time>2026-03-22T10:35:31.566Z</time></trkpt><trkpt lat="43.9739133" lon="12.4238033"><ele>207.0</ele><time>2026-03-22T10:35:32.566Z</time></trkpt><trkpt lat="43.9740183" lon="12.4238133"><ele>207.0</ele><time>2026-03-22T10:35:33.566Z</time></trkpt><trkpt lat="43.9741167" lon="12.4237583"><ele>207.0</ele><time>2026-03-22T10:35:34.566Z</time></trkpt><trkpt lat="43.9741867" lon="12.4236483"><ele>207.0</ele><time>2026-03-22T10:35:35.566Z</time></trkpt><trkpt lat="43.9742183" lon="12.4235233"><ele>209.83333333333334</ele><time>2026-03-22T10:35:36.565Z</time></trkpt><trkpt lat="43.9742267" lon="12.4234267"><ele>212.66666666666669</ele><time>2026-03-22T10:35:37.565Z</time></trkpt><trkpt lat="43.9742917" lon="12.4233067"><ele>215.5</ele><time>2026-03-22T10:35:39.566Z</time></trkpt><trkpt lat="43.97436" lon="12.4232883"><ele>218.33333333333334</ele><time>2026-03-22T10:35:40.566Z</time></trkpt><trkpt lat="43.9744417" lon="12.4233117"><ele>221.16666666666669</ele><time>2026-03-22T10:35:41.566Z</time></trkpt><trkpt lat="43.974525" lon="12.4234"><ele>224.0</ele><time>2026-03-22T10:35:42.565Z</time></trkpt><trkpt lat="43.97459" lon="12.4235317"><ele>224.0</ele><time>2026-03-22T10:35:43.565Z</time></trkpt><trkpt lat="43.974655" lon="12.4237067"><ele>224.0</ele><time>2026-03-22T10:35:44.565Z</time></trkpt><trkpt lat="43.9747267" lon="12.4239217"><ele>224.0</ele><time>2026-03-22T10:35:45.565Z</time></trkpt><trkpt lat="43.9748133" lon="12.42416"><ele>226.0</ele><time>2026-03-22T10:35:46.566Z</time></trkpt><trkpt lat="43.9748933" lon="12.4244133"><ele>228.0</ele><time>2026-03-22T10:35:47.566Z</time></trkpt><trkpt lat="43.9749617" lon="12.4246917"><ele>230.0</ele><time>2026-03-22T10:35:48.565Z</time></trkpt><trkpt lat="43.975005" lon="12.42496"><ele>240.0</ele><time>2026-03-22T10:35:49.565Z</time></trkpt><trkpt lat="43.9750317" lon="12.425205"><ele>250.0</ele><time>2026-03-22T10:35:50.566Z</time></trkpt><trkpt lat="43.97505" lon="12.4254283"><ele>260.0</ele><time>2026-03-22T10:35:51.565Z</time></trkpt><trkpt lat="43.975095" lon="12.4256433"><ele>260.0</ele><time>2026-03-22T10:35:52.566Z</time></trkpt><trkpt lat="43.97518" lon="12.4258467"><ele>260.0</ele><time>2026-03-22T10:35:53.565Z</time></trkpt><trkpt lat="43.9752967" lon="12.4260117"><ele>260.0</ele><time>2026-03-22T10:35:54.566Z</time></trkpt><trkpt lat="43.975415" lon="12.42615"><ele>260.0</ele><time>2026-03-22T10:35:55.566Z</time></trkpt><trkpt lat="43.9755017" lon="12.4263"><ele>260.0</ele><time>2026-03-22T10:35:56.565Z</time></trkpt><trkpt lat="43.975555" lon="12.426485"><ele>260.0</ele><time>2026-03-22T10:35:57.565Z</time></trkpt><trkpt lat="43.975585" lon="12.4266917"><ele>260.0</ele><time>2026-03-22T10:35:58.566Z</time></trkpt><trkpt lat="43.9756017" lon="12.426875"><ele>260.25</ele><time>2026-03-22T10:35:59.565Z</time></trkpt><trkpt lat="43.9756167" lon="12.4270367"><ele>260.5</ele><time>2026-03-22T10:36:00.566Z</time></trkpt><trkpt lat="43.9756633" lon="12.4271717"><ele>260.75</ele><time>2026-03-22T10:36:01.566Z</time></trkpt><trkpt lat="43.9757433" lon="12.4273083"><ele>261.0</ele><time>2026-03-22T10:36:02.566Z</time></trkpt><trkpt lat="43.975865" lon="12.4274567"><ele>265.3333333333333</ele><time>2026-03-22T10:36:03.565Z</time></trkpt><trkpt lat="43.975985" lon="12.4276083"><ele>269.66666666666663</ele><time>2026-03-22T10:36:04.566Z</time></trkpt><trkpt lat="43.976095" lon="12.427745"><ele>274.0</ele><time>2026-03-22T10:36:05.566Z</time></trkpt><trkpt lat="43.9762067" lon="12.427865"><ele>274.0</ele><time>2026-03-22T10:36:06.566Z</time></trkpt><trkpt lat="43.9763233" lon="12.4279533"><ele>274.0</ele><time>2026-03-22T10:36:07.566Z</time></trkpt><trkpt lat="43.976465" lon="12.4280117"><ele>274.0</ele><time>2026-03-22T10:36:08.565Z</time></trkpt><trkpt lat="43.9766067" lon="12.4280217"><ele>274.0</ele><time>2026-03-22T10:36:09.566Z</time></trkpt><trkpt lat="43.9767517" lon="12.427995"><ele>273.66666666666663</ele><time>2026-03-22T10:36:10.566Z</time></trkpt><trkpt lat="43.9768983" lon="12.4279217"><ele>273.3333333333333</ele><time>2026-03-22T10:36:11.566Z</time></trkpt><trkpt lat="43.977035" lon="12.4278183"><ele>273.0</ele><time>2026-03-22T10:36:12.565Z</time></trkpt><trkpt lat="43.9771717" lon="12.4277433"><ele>273.0</ele><time>2026-03-22T10:36:13.566Z</time></trkpt><trkpt lat="43.9773117" lon="12.42773"><ele>273.0</ele><time>2026-03-22T10:36:14.566Z</time></trkpt><trkpt lat="43.97747" lon="12.427745"><ele>273.0</ele><time>2026-03-22T10:36:15.566Z</time></trkpt><trkpt lat="43.9776633" lon="12.42779"><ele>277.0</ele><time>2026-03-22T10:36:16.566Z</time></trkpt><trkpt lat="43.9778333" lon="12.42782"><ele>281.0</ele><time>2026-03-22T10:36:17.566Z</time></trkpt><trkpt lat="43.97799" lon="12.427845"><ele>285.0</ele><time>2026-03-22T10:36:18.566Z</time></trkpt><trkpt lat="43.9781217" lon="12.4278967"><ele>285.0</ele><time>2026-03-22T10:36:19.566Z</time></trkpt><trkpt lat="43.97822" lon="12.427975"><ele>285.0</ele><time>2026-03-22T10:36:20.566Z</time></trkpt><trkpt lat="43.978295" lon="12.4280583"><ele>285.0</ele><time>2026-03-22T10:36:21.566Z</time></trkpt><trkpt lat="43.978355" lon="12.4281633"><ele>285.0</ele><time>2026-03-22T10:36:22.566Z</time></trkpt><trkpt lat="43.9784083" lon="12.4282883"><ele>285.0</ele><time>2026-03-22T10:36:23.566Z</time></trkpt><trkpt lat="43.9784717" lon="12.42844"><ele>283.6666666666667</ele><time>2026-03-22T10:36:24.565Z</time></trkpt><trkpt lat="43.97854" lon="12.4286217"><ele>282.33333333333337</ele><time>2026-03-22T10:36:25.566Z</time></trkpt><trkpt lat="43.9786217" lon="12.428835"><ele>281.0</ele><time>2026-03-22T10:36:26.566Z</time></trkpt><trkpt lat="43.9787083" lon="12.4290533"><ele>278.5</ele><time>2026-03-22T10:36:27.566Z</time></trkpt><trkpt lat="43.978795" lon="12.429255"><ele>276.0</ele><time>2026-03-22T10:36:28.566Z</time></trkpt><trkpt lat="43.978865" lon="12.4294333"><ele>273.5</ele><time>2026-03-22T10:36:29.566Z</time></trkpt><trkpt lat="43.9789383" lon="12.429585"><ele>271.0</ele><time>2026-03-22T10:36:30.565Z</time></trkpt><trkpt lat="43.9790283" lon="12.4297117"><ele>268.0</ele><time>2026-03-22T10:36:31.566Z</time></trkpt><trkpt lat="43.9791283" lon="12.4297983"><ele>265.0</ele><time>2026-03-22T10:36:32.565Z</time></trkpt><trkpt lat="43.9792467" lon="12.42984"><ele>262.0</ele><time>2026-03-22T10:36:33.566Z</time></trkpt><trkpt lat="43.979375" lon="12.4298367"><ele>259.0</ele><time>2026-03-22T10:36:34.566Z</time></trkpt><trkpt lat="43.9795217" lon="12.429785"><ele>256.3333333333333</ele><time>2026-03-22T10:36:35.566Z</time></trkpt><trkpt lat="43.979685" lon="12.4297267"><ele>253.66666666666669</ele><time>2026-03-22T10:36:36.565Z</time></trkpt><trkpt lat="43.979865" lon="12.4296767"><ele>251.0</ele><time>2026-03-22T10:36:37.565Z</time></trkpt><trkpt lat="43.9800333" lon="12.4296483"><ele>254.66666666666669</ele><time>2026-03-22T10:36:38.565Z</time></trkpt><trkpt lat="43.9802" lon="12.4296183"><ele>258.3333333333333</ele><time>2026-03-22T10:36:39.566Z</time></trkpt><trkpt lat="43.980355" lon="12.4295983"><ele>262.0</ele><time>2026-03-22T10:36:40.566Z</time></trkpt><trkpt lat="43.9805033" lon="12.4296133"><ele>258.3333333333333</ele><time>2026-03-22T10:36:41.565Z</time></trkpt><trkpt lat="43.9806583" lon="12.429675"><ele>254.66666666666669</ele><time>2026-03-22T10:36:42.566Z</time></trkpt><trkpt lat="43.9808067" lon="12.4297883"><ele>251.0</ele><time>2026-03-22T10:36:43.565Z</time></trkpt><trkpt lat="43.9809467" lon="12.429935"><ele>248.33333333333334</ele><time>2026-03-22T10:36:44.566Z</time></trkpt><trkpt lat="43.981065" lon="12.43012"><ele>245.66666666666669</ele><time>2026-03-22T10:36:45.566Z</time></trkpt><trkpt lat="43.9811783" lon="12.4302867"><ele>243.0</ele><time>2026-03-22T10:36:46.566Z</time></trkpt><trkpt lat="43.9812967" lon="12.4304367"><ele>243.0</ele><time>2026-03-22T10:36:47.566Z</time></trkpt><trkpt lat="43.98141" lon="12.4305833"><ele>243.0</ele><time>2026-03-22T10:36:48.565Z</time></trkpt><trkpt lat="43.9815117" lon="12.430735"><ele>243.0</ele><time>2026-03-22T10:36:49.566Z</time></trkpt><trkpt lat="43.981605" lon="12.4308883"><ele>243.0</ele><time>2026-03-22T10:36:50.565Z</time></trkpt><trkpt lat="43.981685" lon="12.43107"><ele>238.33333333333331</ele><time>2026-03-22T10:36:51.566Z</time></trkpt><trkpt lat="43.9817333" lon="12.4312767"><ele>233.66666666666666</ele><time>2026-03-22T10:36:52.566Z</time></trkpt><trkpt lat="43.9817533" lon="12.4315083"><ele>229.0</ele><time>2026-03-22T10:36:53.565Z</time></trkpt><trkpt lat="43.9817483" lon="12.4317583"><ele>229.0</ele><time>2026-03-22T10:36:54.566Z</time></trkpt><trkpt lat="43.9817367" lon="12.4319967"><ele>229.0</ele><time>2026-03-22T10:36:55.565Z</time></trkpt><trkpt lat="43.9817133" lon="12.4322367"><ele>229.0</ele><time>2026-03-22T10:36:56.566Z</time></trkpt><trkpt lat="43.981685" lon="12.4324883"><ele>231.0</ele><time>2026-03-22T10:36:57.566Z</time></trkpt><trkpt lat="43.98166" lon="12.4327533"><ele>233.0</ele><time>2026-03-22T10:36:58.565Z</time></trkpt><trkpt lat="43.9816383" lon="12.4330333"><ele>235.0</ele><time>2026-03-22T10:36:59.565Z</time></trkpt><trkpt lat="43.981615" lon="12.43332"><ele>235.0</ele><time>2026-03-22T10:37:00.566Z</time></trkpt><trkpt lat="43.9815883" lon="12.4336167"><ele>235.0</ele><time>2026-03-22T10:37:01.566Z</time></trkpt><trkpt lat="43.9815633" lon="12.433895"><ele>235.0</ele><time>2026-03-22T10:37:02.565Z</time></trkpt><trkpt lat="43.9815383" lon="12.4341667"><ele>235.33333333333331</ele><time>2026-03-22T10:37:03.566Z</time></trkpt><trkpt lat="43.981515" lon="12.4344317"><ele>235.66666666666669</ele><time>2026-03-22T10:37:04.565Z</time></trkpt><trkpt lat="43.9814883" lon="12.4346767"><ele>236.0</ele><time>2026-03-22T10:37:05.566Z</time></trkpt><trkpt lat="43.98147" lon="12.4349133"><ele>237.0</ele><time>2026-03-22T10:37:06.565Z</time></trkpt><trkpt lat="43.9814533" lon="12.435125"><ele>238.0</ele><time>2026-03-22T10:37:07.565Z</time></trkpt><trkpt lat="43.9814617" lon="12.435325"><ele>239.0</ele><time>2026-03-22T10:37:08.565Z</time></trkpt><trkpt lat="43.981505" lon="12.4355233"><ele>240.0</ele><time>2026-03-22T10:37:09.566Z</time></trkpt><trkpt lat="43.981565" lon="12.4357417"><ele>240.0</ele><time>2026-03-22T10:37:10.566Z</time></trkpt><trkpt lat="43.981645" lon="12.435965"><ele>240.0</ele><time>2026-03-22T10:37:11.566Z</time></trkpt><trkpt lat="43.981735" lon="12.4362017"><ele>240.0</ele><time>2026-03-22T10:37:12.566Z</time></trkpt><trkpt lat="43.9818233" lon="12.4364533"><ele>239.66666666666669</ele><time>2026-03-22T10:37:13.565Z</time></trkpt><trkpt lat="43.981905" lon="12.436725"><ele>239.33333333333334</ele><time>2026-03-22T10:37:14.565Z</time></trkpt><trkpt lat="43.9819767" lon="12.4370033"><ele>239.0</ele><time>2026-03-22T10:37:15.566Z</time></trkpt><trkpt lat="43.9820333" lon="12.4372767"><ele>238.0</ele><time>2026-03-22T10:37:16.566Z</time></trkpt><trkpt lat="43.9820867" lon="12.43755"><ele>237.0</ele><time>2026-03-22T10:37:17.566Z</time></trkpt><trkpt lat="43.982125" lon="12.4378183"><ele>236.0</ele><time>2026-03-22T10:37:18.566Z</time></trkpt><trkpt lat="43.9821533" lon="12.4380783"><ele>234.66666666666669</ele><time>2026-03-22T10:37:19.566Z</time></trkpt><trkpt lat="43.9821767" lon="12.43833"><ele>233.33333333333331</ele><time>2026-03-22T10:37:20.566Z</time></trkpt><trkpt lat="43.9821867" lon="12.4385783"><ele>232.0</ele><time>2026-03-22T10:37:21.566Z</time></trkpt><trkpt lat="43.9821933" lon="12.4388183"><ele>230.66666666666666</ele><time>2026-03-22T10:37:22.566Z</time></trkpt><trkpt lat="43.9821933" lon="12.4390517"><ele>229.33333333333331</ele><time>2026-03-22T10:37:23.565Z</time></trkpt><trkpt lat="43.9821733" lon="12.439295"><ele>228.0</ele><time>2026-03-22T10:37:24.566Z</time></trkpt><trkpt lat="43.9821333" lon="12.4395533"><ele>226.33333333333331</ele><time>2026-03-22T10:37:25.566Z</time></trkpt><trkpt lat="43.982075" lon="12.4398267"><ele>224.66666666666666</ele><time>2026-03-22T10:37:26.566Z</time></trkpt><trkpt lat="43.9820017" lon="12.4401133"><ele>223.0</ele><time>2026-03-22T10:37:27.566Z</time></trkpt><trkpt lat="43.981925" lon="12.440395"><ele>220.66666666666666</ele><time>2026-03-22T10:37:28.566Z</time></trkpt><trkpt lat="43.981855" lon="12.4406633"><ele>218.33333333333331</ele><time>2026-03-22T10:37:29.566Z</time></trkpt><trkpt lat="43.98178" lon="12.4409183"><ele>216.0</ele><time>2026-03-22T10:37:30.566Z</time></trkpt><trkpt lat="43.9817117" lon="12.4411617"><ele>221.0</ele><time>2026-03-22T10:37:31.566Z</time></trkpt><trkpt lat="43.9816433" lon="12.4413883"><ele>226.0</ele><time>2026-03-22T10:37:32.566Z</time></trkpt><trkpt lat="43.98158" lon="12.441595"><ele>231.0</ele><time>2026-03-22T10:37:33.566Z</time></trkpt><trkpt lat="43.9815267" lon="12.441775"><ele>231.0</ele><time>2026-03-22T10:37:34.566Z</time></trkpt><trkpt lat="43.98146" lon="12.4419333"><ele>231.0</ele><time>2026-03-22T10:37:35.565Z</time></trkpt><trkpt lat="43.9813817" lon="12.4420717"><ele>231.0</ele><time>2026-03-22T10:37:36.566Z</time></trkpt><trkpt lat="43.9812667" lon="12.4421983"><ele>231.0</ele><time>2026-03-22T10:37:37.566Z</time></trkpt><trkpt lat="43.98112" lon="12.442325"><ele>232.0</ele><time>2026-03-22T10:37:38.566Z</time></trkpt><trkpt lat="43.9809567" lon="12.4424467"><ele>233.0</ele><time>2026-03-22T10:37:39.566Z</time></trkpt><trkpt lat="43.9807883" lon="12.4425783"><ele>234.0</ele><time>2026-03-22T10:37:40.566Z</time></trkpt><trkpt lat="43.9806233" lon="12.44272"><ele>234.0</ele><time>2026-03-22T10:37:41.566Z</time></trkpt><trkpt lat="43.980475" lon="12.442865"><ele>234.0</ele><time>2026-03-22T10:37:42.566Z</time></trkpt><trkpt lat="43.98033" lon="12.4430067"><ele>234.0</ele><time>2026-03-22T10:37:43.566Z</time></trkpt><trkpt lat="43.9801833" lon="12.44314"><ele>232.33333333333331</ele><time>2026-03-22T10:37:44.566Z</time></trkpt><trkpt lat="43.9800633" lon="12.4433017"><ele>230.66666666666666</ele><time>2026-03-22T10:37:45.565Z</time></trkpt><trkpt lat="43.9799583" lon="12.4435067"><ele>229.0</ele><time>2026-03-22T10:37:46.566Z</time></trkpt><trkpt lat="43.9798683" lon="12.4437617"><ele>224.5</ele><time>2026-03-22T10:37:47.566Z</time></trkpt><trkpt lat="43.97976" lon="12.44405"><ele>220.0</ele><time>2026-03-22T10:37:48.565Z</time></trkpt><trkpt lat="43.9796467" lon="12.444355"><ele>216.5</ele><time>2026-03-22T10:37:49.566Z</time></trkpt><trkpt lat="43.9795333" lon="12.4446733"><ele>213.0</ele><time>2026-03-22T10:37:50.565Z</time></trkpt><trkpt lat="43.97942" lon="12.4450067"><ele>213.0</ele><time>2026-03-22T10:37:51.566Z</time></trkpt><trkpt lat="43.9793083" lon="12.4453317"><ele>213.0</ele><time>2026-03-22T10:37:52.565Z</time></trkpt><trkpt lat="43.979205" lon="12.4456483"><ele>214.5</ele><time>2026-03-22T10:37:53.565Z</time></trkpt><trkpt lat="43.9791" lon="12.445955"><ele>216.0</ele><time>2026-03-22T10:37:54.565Z</time></trkpt><trkpt lat="43.97899" lon="12.4462583"><ele>213.5</ele><time>2026-03-22T10:37:55.566Z</time></trkpt><trkpt lat="43.9788817" lon="12.4465633"><ele>211.0</ele><time>2026-03-22T10:37:56.565Z</time></trkpt><trkpt lat="43.9787783" lon="12.4468717"><ele>208.5</ele><time>2026-03-22T10:37:57.566Z</time></trkpt><trkpt lat="43.978675" lon="12.4471867"><ele>206.0</ele><time>2026-03-22T10:37:58.566Z</time></trkpt><trkpt lat="43.97858" lon="12.4475117"><ele>206.0</ele><time>2026-03-22T10:37:59.566Z</time></trkpt><trkpt lat="43.978485" lon="12.4478367"><ele>206.0</ele><time>2026-03-22T10:38:00.566Z</time></trkpt><trkpt lat="43.9784" lon="12.4481383"><ele>206.33333333333334</ele><time>2026-03-22T10:38:01.566Z</time></trkpt><trkpt lat="43.9783183" lon="12.4484233"><ele>206.66666666666669</ele><time>2026-03-22T10:38:02.565Z</time></trkpt><trkpt lat="43.9782383" lon="12.44869"><ele>207.0</ele><time>2026-03-22T10:38:03.565Z</time></trkpt><trkpt lat="43.9781583" lon="12.4489517"><ele>207.0</ele><time>2026-03-22T10:38:04.565Z</time></trkpt><trkpt lat="43.978055" lon="12.4491833"><ele>207.0</ele><time>2026-03-22T10:38:05.565Z</time></trkpt><trkpt lat="43.9779267" lon="12.4493967"><ele>207.0</ele><time>2026-03-22T10:38:06.566Z</time></trkpt><trkpt lat="43.9777683" lon="12.449595"><ele>205.5</ele><time>2026-03-22T10:38:07.566Z</time></trkpt><trkpt lat="43.9775867" lon="12.4498"><ele>204.0</ele><time>2026-03-22T10:38:08.566Z</time></trkpt><trkpt lat="43.9773983" lon="12.4500117"><ele>204.0</ele><time>2026-03-22T10:38:09.565Z</time></trkpt><trkpt lat="43.9772067" lon="12.4502267"><ele>204.0</ele><time>2026-03-22T10:38:10.565Z</time></trkpt><trkpt lat="43.9770217" lon="12.4504467"><ele>206.0</ele><time>2026-03-22T10:38:11.566Z</time></trkpt><trkpt lat="43.9768333" lon="12.4506667"><ele>208.0</ele><time>2026-03-22T10:38:12.565Z</time></trkpt><trkpt lat="43.9766517" lon="12.4508967"><ele>208.0</ele><time>2026-03-22T10:38:13.566Z</time></trkpt><trkpt lat="43.976475" lon="12.4511283"><ele>208.0</ele><time>2026-03-22T10:38:14.566Z</time></trkpt><trkpt lat="43.9763017" lon="12.45135"><ele>208.0</ele><time>2026-03-22T10:38:15.566Z</time></trkpt><trkpt lat="43.97613" lon="12.4515583"><ele>208.0</ele><time>2026-03-22T10:38:16.565Z</time></trkpt><trkpt lat="43.9759617" lon="12.4517533"><ele>208.0</ele><time>2026-03-22T10:38:17.565Z</time></trkpt><trkpt lat="43.9757983" lon="12.451935"><ele>208.33333333333331</ele><time>2026-03-22T10:38:18.566Z</time></trkpt><trkpt lat="43.975645" lon="12.4520917"><ele>208.66666666666669</ele><time>2026-03-22T10:38:19.566Z</time></trkpt><trkpt lat="43.97549" lon="12.45222"><ele>209.0</ele><time>2026-03-22T10:38:20.566Z</time></trkpt><trkpt lat="43.9753167" lon="12.4523017"><ele>209.0</ele><time>2026-03-22T10:38:21.566Z</time></trkpt><trkpt lat="43.9751183" lon="12.4523433"><ele>209.0</ele><time>2026-03-22T10:38:22.566Z</time></trkpt><trkpt lat="43.97491" lon="12.452355"><ele>209.0</ele><time>2026-03-22T10:38:23.565Z</time></trkpt><trkpt lat="43.9746883" lon="12.4523717"><ele>210.0</ele><time>2026-03-22T10:38:24.566Z</time></trkpt><trkpt lat="43.9744667" lon="12.45239"><ele>211.0</ele><time>2026-03-22T10:38:25.566Z</time></trkpt><trkpt lat="43.974265" lon="12.4524"><ele>212.0</ele><time>2026-03-22T10:38:26.566Z</time></trkpt><trkpt lat="43.9740867" lon="12.4523933"><ele>214.33333333333334</ele><time>2026-03-22T10:38:27.566Z</time></trkpt><trkpt lat="43.97391" lon="12.452335"><ele>216.66666666666669</ele><time>2026-03-22T10:38:28.566Z</time></trkpt><trkpt lat="43.973745" lon="12.45225"><ele>219.0</ele><time>2026-03-22T10:38:29.566Z</time></trkpt><trkpt lat="43.97359" lon="12.4521533"><ele>218.75</ele><time>2026-03-22T10:38:30.566Z</time></trkpt><trkpt lat="43.9734467" lon="12.452075"><ele>218.5</ele><time>2026-03-22T10:38:31.566Z</time></trkpt><trkpt lat="43.9733167" lon="12.4520283"><ele>218.25</ele><time>2026-03-22T10:38:32.566Z</time></trkpt><trkpt lat="43.9731717" lon="12.4520217"><ele>218.0</ele><time>2026-03-22T10:38:33.566Z</time></trkpt><trkpt lat="43.9730067" lon="12.45204"><ele>219.33333333333334</ele><time>2026-03-22T10:38:34.566Z</time></trkpt><trkpt lat="43.9728183" lon="12.4520583"><ele>220.66666666666669</ele><time>2026-03-22T10:38:35.566Z</time></trkpt><trkpt lat="43.9726233" lon="12.4520683"><ele>222.0</ele><time>2026-03-22T10:38:36.566Z</time></trkpt><trkpt lat="43.9724417" lon="12.45208"><ele>223.75</ele><time>2026-03-22T10:38:37.566Z</time></trkpt><trkpt lat="43.9722833" lon="12.4520833"><ele>225.5</ele><time>2026-03-22T10:38:38.566Z</time></trkpt><trkpt lat="43.9721467" lon="12.452085"><ele>227.25</ele><time>2026-03-22T10:38:39.566Z</time></trkpt><trkpt lat="43.972045" lon="12.4520867"><ele>229.0</ele><time>2026-03-22T10:38:40.565Z</time></trkpt><trkpt lat="43.9719633" lon="12.45211"><ele>230.33333333333331</ele><time>2026-03-22T10:38:41.566Z</time></trkpt><trkpt lat="43.9719083" lon="12.452155"><ele>231.66666666666666</ele><time>2026-03-22T10:38:42.566Z</time></trkpt><trkpt lat="43.9718717" lon="12.4522283"><ele>233.0</ele><time>2026-03-22T10:38:43.566Z</time></trkpt><trkpt lat="43.9718933" lon="12.452325"><ele>234.33333333333331</ele><time>2026-03-22T10:38:44.565Z</time></trkpt><trkpt lat="43.9719517" lon="12.4524117"><ele>235.66666666666666</ele><time>2026-03-22T10:38:45.566Z</time></trkpt><trkpt lat="43.9720533" lon="12.4524733"><ele>237.0</ele><time>2026-03-22T10:38:46.566Z</time></trkpt><trkpt lat="43.9721867" lon="12.452525"><ele>237.0</ele><time>2026-03-22T10:38:47.565Z</time></trkpt><trkpt lat="43.9723283" lon="12.4525867"><ele>237.0</ele><time>2026-03-22T10:38:48.566Z</time></trkpt><trkpt lat="43.9724517" lon="12.452655"><ele>237.0</ele><time>2026-03-22T10:38:49.566Z</time></trkpt><trkpt lat="43.972565" lon="12.4527317"><ele>237.0</ele><time>2026-03-22T10:38:50.566Z</time></trkpt><trkpt lat="43.9726617" lon="12.4528167"><ele>235.0</ele><time>2026-03-22T10:38:51.565Z</time></trkpt><trkpt lat="43.9727367" lon="12.4529267"><ele>233.0</ele><time>2026-03-22T10:38:52.566Z</time></trkpt><trkpt lat="43.972785" lon="12.453055"><ele>231.0</ele><time>2026-03-22T10:38:53.566Z</time></trkpt><trkpt lat="43.972815" lon="12.4532017"><ele>229.0</ele><time>2026-03-22T10:38:54.566Z</time></trkpt><trkpt lat="43.9728033" lon="12.4533683"><ele>227.0</ele><time>2026-03-22T10:38:55.566Z</time></trkpt><trkpt lat="43.9727533" lon="12.4535317"><ele>226.33333333333334</ele><time>2026-03-22T10:38:56.565Z</time></trkpt><trkpt lat="43.9726767" lon="12.453725"><ele>225.66666666666669</ele><time>2026-03-22T10:38:57.565Z</time></trkpt><trkpt lat="43.972595" lon="12.4539333"><ele>225.0</ele><time>2026-03-22T10:38:58.566Z</time></trkpt><trkpt lat="43.9725233" lon="12.4541367"><ele>227.0</ele><time>2026-03-22T10:38:59.566Z</time></trkpt><trkpt lat="43.9724783" lon="12.45434"><ele>229.0</ele><time>2026-03-22T10:39:00.565Z</time></trkpt><trkpt lat="43.97246" lon="12.4545633"><ele>231.0</ele><time>2026-03-22T10:39:01.566Z</time></trkpt><trkpt lat="43.9724983" lon="12.4547933"><ele>227.66666666666669</ele><time>2026-03-22T10:39:02.565Z</time></trkpt><trkpt lat="43.9725683" lon="12.4550467"><ele>224.33333333333334</ele><time>2026-03-22T10:39:03.565Z</time></trkpt><trkpt lat="43.9726683" lon="12.45529"><ele>221.0</ele><time>2026-03-22T10:39:04.565Z</time></trkpt><trkpt lat="43.9727583" lon="12.4555167"><ele>221.0</ele><time>2026-03-22T10:39:05.566Z</time></trkpt><trkpt lat="43.972825" lon="12.4557317"><ele>221.0</ele><time>2026-03-22T10:39:06.566Z</time></trkpt><trkpt lat="43.9728717" lon="12.45595"><ele>221.0</ele><time>2026-03-22T10:39:07.565Z</time></trkpt><trkpt lat="43.972895" lon="12.4561833"><ele>220.33333333333334</ele><time>2026-03-22T10:39:08.565Z</time></trkpt><trkpt lat="43.9728683" lon="12.4564367"><ele>219.66666666666669</ele><time>2026-03-22T10:39:09.566Z</time></trkpt><trkpt lat="43.9728167" lon="12.4566967"><ele>219.0</ele><time>2026-03-22T10:39:10.566Z</time></trkpt><trkpt lat="43.9727633" lon="12.45695"><ele>216.66666666666669</ele><time>2026-03-22T10:39:11.565Z</time></trkpt><trkpt lat="43.9727267" lon="12.4571917"><ele>214.33333333333334</ele><time>2026-03-22T10:39:12.565Z</time></trkpt><trkpt lat="43.972705" lon="12.4574467"><ele>212.0</ele><time>2026-03-22T10:39:13.566Z</time></trkpt><trkpt lat="43.9727233" lon="12.457715"><ele>210.33333333333334</ele><time>2026-03-22T10:39:14.566Z</time></trkpt><trkpt lat="43.9727633" lon="12.4579833"><ele>208.66666666666669</ele><time>2026-03-22T10:39:15.567Z</time></trkpt><trkpt lat="43.9728233" lon="12.4582567"><ele>207.0</ele><time>2026-03-22T10:39:16.566Z</time></trkpt><trkpt lat="43.9728967" lon="12.45854"><ele>209.0</ele><time>2026-03-22T10:39:17.567Z</time></trkpt><trkpt lat="43.9729783" lon="12.458835"><ele>211.0</ele><time>2026-03-22T10:39:18.567Z</time></trkpt><trkpt lat="43.9730583" lon="12.459155"><ele>211.0</ele><time>2026-03-22T10:39:19.567Z</time></trkpt><trkpt lat="43.9731733" lon="12.4594917"><ele>211.0</ele><time>2026-03-22T10:39:20.567Z</time></trkpt><trkpt lat="43.9733117" lon="12.4598383"><ele>211.0</ele><time>2026-03-22T10:39:21.567Z</time></trkpt><trkpt lat="43.9734567" lon="12.4601933"><ele>211.0</ele><time>2026-03-22T10:39:22.567Z</time></trkpt><trkpt lat="43.9736" lon="12.4605467"><ele>211.0</ele><time>2026-03-22T10:39:23.567Z</time></trkpt><trkpt lat="43.97374" lon="12.4608767"><ele>211.0</ele><time>2026-03-22T10:39:24.566Z</time></trkpt><trkpt lat="43.9738833" lon="12.46118"><ele>213.0</ele><time>2026-03-22T10:39:25.567Z</time></trkpt><trkpt lat="43.97401" lon="12.4614667"><ele>215.0</ele><time>2026-03-22T10:39:26.566Z</time></trkpt><trkpt lat="43.97413" lon="12.4617333"><ele>216.33333333333334</ele><time>2026-03-22T10:39:27.567Z</time></trkpt><trkpt lat="43.974235" lon="12.4619817"><ele>217.66666666666669</ele><time>2026-03-22T10:39:28.567Z</time></trkpt><trkpt lat="43.974325" lon="12.46221"><ele>219.0</ele><time>2026-03-22T10:39:29.567Z</time></trkpt><trkpt lat="43.9744083" lon="12.4624167"><ele>219.0</ele><time>2026-03-22T10:39:30.567Z</time></trkpt><trkpt lat="43.974505" lon="12.4625883"><ele>219.0</ele><time>2026-03-22T10:39:31.566Z</time></trkpt><trkpt lat="43.9746267" lon="12.46273"><ele>219.0</ele><time>2026-03-22T10:39:32.567Z</time></trkpt><trkpt lat="43.9747617" lon="12.46283"><ele>219.0</ele><time>2026-03-22T10:39:33.566Z</time></trkpt><trkpt lat="43.9748967" lon="12.46289"><ele>219.0</ele><time>2026-03-22T10:39:34.567Z</time></trkpt><trkpt lat="43.9750233" lon="12.462935"><ele>219.0</ele><time>2026-03-22T10:39:35.566Z</time></trkpt><trkpt lat="43.97516" lon="12.46298"><ele>219.0</ele><time>2026-03-22T10:39:36.567Z</time></trkpt><trkpt lat="43.9753" lon="12.4630183"><ele>219.33333333333331</ele><time>2026-03-22T10:39:37.567Z</time></trkpt><trkpt lat="43.97546" lon="12.46304"><ele>219.66666666666666</ele><time>2026-03-22T10:39:38.566Z</time></trkpt><trkpt lat="43.9756283" lon="12.46304"><ele>220.0</ele><time>2026-03-22T10:39:39.566Z</time></trkpt><trkpt lat="43.9757967" lon="12.4630167"><ele>217.75</ele><time>2026-03-22T10:39:40.567Z</time></trkpt><trkpt lat="43.9759483" lon="12.4629967"><ele>215.5</ele><time>2026-03-22T10:39:41.567Z</time></trkpt><trkpt lat="43.9760817" lon="12.4629883"><ele>213.25</ele><time>2026-03-22T10:39:42.567Z</time></trkpt><trkpt lat="43.9761983" lon="12.463"><ele>211.0</ele><time>2026-03-22T10:39:43.567Z</time></trkpt><trkpt lat="43.97631" lon="12.463055"><ele>211.0</ele><time>2026-03-22T10:39:44.567Z</time></trkpt><trkpt lat="43.97641" lon="12.4631483"><ele>211.0</ele><time>2026-03-22T10:39:45.566Z</time></trkpt><trkpt lat="43.97648" lon="12.463265"><ele>211.0</ele><time>2026-03-22T10:39:46.566Z</time></trkpt><trkpt lat="43.9765333" lon="12.46338"><ele>211.0</ele><time>2026-03-22T10:39:47.567Z</time></trkpt><trkpt lat="43.976575" lon="12.463465"><ele>211.0</ele><time>2026-03-22T10:39:48.567Z</time></trkpt><trkpt lat="43.9766867" lon="12.4635383"><ele>209.0</ele><time>2026-03-22T10:39:50.566Z</time></trkpt><trkpt lat="43.9767417" lon="12.46347"><ele>207.0</ele><time>2026-03-22T10:39:51.566Z</time></trkpt><trkpt lat="43.976775" lon="12.4633467"><ele>205.0</ele><time>2026-03-22T10:39:52.567Z</time></trkpt><trkpt lat="43.9767933" lon="12.4631683"><ele>203.0</ele><time>2026-03-22T10:39:53.567Z</time></trkpt><trkpt lat="43.9768" lon="12.4629667"><ele>201.0</ele><time>2026-03-22T10:39:54.567Z</time></trkpt><trkpt lat="43.9768117" lon="12.4627867"><ele>201.0</ele><time>2026-03-22T10:39:55.566Z</time></trkpt><trkpt lat="43.9768367" lon="12.462625"><ele>201.0</ele><time>2026-03-22T10:39:56.567Z</time></trkpt><trkpt lat="43.9768917" lon="12.4624883"><ele>201.0</ele><time>2026-03-22T10:39:57.567Z</time></trkpt><trkpt lat="43.9769617" lon="12.462375"><ele>201.0</ele><time>2026-03-22T10:39:58.567Z</time></trkpt><trkpt lat="43.9770667" lon="12.4622967"><ele>201.0</ele><time>2026-03-22T10:39:59.567Z</time></trkpt><trkpt lat="43.9772033" lon="12.4622633"><ele>201.0</ele><time>2026-03-22T10:40:00.567Z</time></trkpt><trkpt lat="43.9773633" lon="12.4622667"><ele>201.0</ele><time>2026-03-22T10:40:01.567Z</time></trkpt><trkpt lat="43.9775367" lon="12.462275"><ele>198.0</ele><time>2026-03-22T10:40:02.567Z</time></trkpt><trkpt lat="43.9777083" lon="12.4622783"><ele>195.0</ele><time>2026-03-22T10:40:03.567Z</time></trkpt><trkpt lat="43.97788" lon="12.462275"><ele>192.0</ele><time>2026-03-22T10:40:04.566Z</time></trkpt><trkpt lat="43.97806" lon="12.4622617"><ele>192.0</ele><time>2026-03-22T10:40:05.567Z</time></trkpt><trkpt lat="43.97825" lon="12.4622317"><ele>192.0</ele><time>2026-03-22T10:40:06.567Z</time></trkpt><trkpt lat="43.97846" lon="12.4621867"><ele>192.0</ele><time>2026-03-22T10:40:07.566Z</time></trkpt><trkpt lat="43.9786817" lon="12.4621383"><ele>191.0</ele><time>2026-03-22T10:40:08.567Z</time></trkpt><trkpt lat="43.9789" lon="12.462095"><ele>190.0</ele><time>2026-03-22T10:40:09.567Z</time></trkpt><trkpt lat="43.9791083" lon="12.462045"><ele>189.0</ele><time>2026-03-22T10:40:10.567Z</time></trkpt><trkpt lat="43.9793033" lon="12.4619983"><ele>187.66666666666666</ele><time>2026-03-22T10:40:11.566Z</time></trkpt><trkpt lat="43.9794933" lon="12.4619567"><ele>186.33333333333331</ele><time>2026-03-22T10:40:12.567Z</time></trkpt><trkpt lat="43.9796733" lon="12.4619117"><ele>185.0</ele><time>2026-03-22T10:40:13.566Z</time></trkpt><trkpt lat="43.9798467" lon="12.4618617"><ele>183.33333333333331</ele><time>2026-03-22T10:40:14.566Z</time></trkpt><trkpt lat="43.9800267" lon="12.4618017"><ele>181.66666666666666</ele><time>2026-03-22T10:40:15.566Z</time></trkpt><trkpt lat="43.9802067" lon="12.46171"><ele>180.0</ele><time>2026-03-22T10:40:16.567Z</time></trkpt><trkpt lat="43.98038" lon="12.461575"><ele>180.0</ele><time>2026-03-22T10:40:17.566Z</time></trkpt><trkpt lat="43.98055" lon="12.4614033"><ele>180.0</ele><time>2026-03-22T10:40:18.566Z</time></trkpt><trkpt lat="43.9807067" lon="12.4612167"><ele>180.0</ele><time>2026-03-22T10:40:19.567Z</time></trkpt><trkpt lat="43.9808517" lon="12.461045"><ele>180.33333333333334</ele><time>2026-03-22T10:40:20.567Z</time></trkpt><trkpt lat="43.98099" lon="12.4608883"><ele>180.66666666666669</ele><time>2026-03-22T10:40:21.567Z</time></trkpt><trkpt lat="43.9811317" lon="12.4607483"><ele>181.0</ele><time>2026-03-22T10:40:22.566Z</time></trkpt><trkpt lat="43.981265" lon="12.4606067"><ele>181.0</ele><time>2026-03-22T10:40:23.567Z</time></trkpt><trkpt lat="43.9813983" lon="12.4604867"><ele>181.0</ele><time>2026-03-22T10:40:24.566Z</time></trkpt><trkpt lat="43.98152" lon="12.4603917"><ele>181.0</ele><time>2026-03-22T10:40:25.567Z</time></trkpt><trkpt lat="43.9816633" lon="12.4603283"><ele>181.0</ele><time>2026-03-22T10:40:26.566Z</time></trkpt><trkpt lat="43.9818317" lon="12.460305"><ele>180.33333333333334</ele><time>2026-03-22T10:40:27.567Z</time></trkpt><trkpt lat="43.9820283" lon="12.4602917"><ele>179.66666666666666</ele><time>2026-03-22T10:40:28.566Z</time></trkpt><trkpt lat="43.9822417" lon="12.4602667"><ele>179.0</ele><time>2026-03-22T10:40:29.567Z</time></trkpt><trkpt lat="43.98247" lon="12.4602367"><ele>180.66666666666666</ele><time>2026-03-22T10:40:30.566Z</time></trkpt><trkpt lat="43.9826917" lon="12.4602167"><ele>182.33333333333334</ele><time>2026-03-22T10:40:31.566Z</time></trkpt><trkpt lat="43.9828933" lon="12.4602133"><ele>184.0</ele><time>2026-03-22T10:40:32.566Z</time></trkpt><trkpt lat="43.9830817" lon="12.4602017"><ele>184.0</ele><time>2026-03-22T10:40:33.567Z</time></trkpt><trkpt lat="43.983265" lon="12.4601967"><ele>184.0</ele><time>2026-03-22T10:40:34.567Z</time></trkpt><trkpt lat="43.98344" lon="12.4602133"><ele>184.0</ele><time>2026-03-22T10:40:35.567Z</time></trkpt><trkpt lat="43.9836283" lon="12.4602667"><ele>183.0</ele><time>2026-03-22T10:40:36.567Z</time></trkpt><trkpt lat="43.9838267" lon="12.4603433"><ele>182.0</ele><time>2026-03-22T10:40:37.566Z</time></trkpt><trkpt lat="43.9840333" lon="12.46043"><ele>181.0</ele><time>2026-03-22T10:40:38.567Z</time></trkpt><trkpt lat="43.9842333" lon="12.4605217"><ele>178.33333333333334</ele><time>2026-03-22T10:40:39.566Z</time></trkpt><trkpt lat="43.9844267" lon="12.460605"><ele>175.66666666666666</ele><time>2026-03-22T10:40:40.566Z</time></trkpt><trkpt lat="43.9846217" lon="12.4606683"><ele>173.0</ele><time>2026-03-22T10:40:41.567Z</time></trkpt><trkpt lat="43.98482" lon="12.4607033"><ele>172.33333333333331</ele><time>2026-03-22T10:40:42.567Z</time></trkpt><trkpt lat="43.9850133" lon="12.460735"><ele>171.66666666666666</ele><time>2026-03-22T10:40:43.566Z</time></trkpt><trkpt lat="43.9852117" lon="12.4607783"><ele>171.0</ele><time>2026-03-22T10:40:44.567Z</time></trkpt><trkpt lat="43.98542" lon="12.4608367"><ele>171.0</ele><time>2026-03-22T10:40:45.567Z</time></trkpt><trkpt lat="43.9856183" lon="12.460905"><ele>171.0</ele><time>2026-03-22T10:40:46.567Z</time></trkpt><trkpt lat="43.98581" lon="12.4609733"><ele>171.0</ele><time>2026-03-22T10:40:47.567Z</time></trkpt><trkpt lat="43.9859717" lon="12.4609933"><ele>171.0</ele><time>2026-03-22T10:40:48.611Z</time></trkpt><trkpt lat="43.986235" lon="12.4612217"><ele>171.0</ele><time>2026-03-22T10:40:49.992Z</time></trkpt><trkpt lat="43.9864717" lon="12.461325"><ele>174.0</ele><time>2026-03-22T10:40:51.058Z</time></trkpt><trkpt lat="43.986695" lon="12.4614367"><ele>177.0</ele><time>2026-03-22T10:40:52.058Z</time></trkpt><trkpt lat="43.9869033" lon="12.461535"><ele>177.0</ele><time>2026-03-22T10:40:53.058Z</time></trkpt><trkpt lat="43.987215" lon="12.4616833"><ele>177.0</ele><time>2026-03-22T10:40:54.558Z</time></trkpt><trkpt lat="43.9874117" lon="12.461775"><ele>179.0</ele><time>2026-03-22T10:40:55.558Z</time></trkpt><trkpt lat="43.9875983" lon="12.4618583"><ele>181.0</ele><time>2026-03-22T10:40:56.557Z</time></trkpt><trkpt lat="43.9877783" lon="12.4619333"><ele>183.0</ele><time>2026-03-22T10:40:57.557Z</time></trkpt><trkpt lat="43.987945" lon="12.462005"><ele>183.0</ele><time>2026-03-22T10:40:58.557Z</time></trkpt><trkpt lat="43.9881017" lon="12.4620733"><ele>183.0</ele><time>2026-03-22T10:40:59.558Z</time></trkpt><trkpt lat="43.988255" lon="12.4621267"><ele>183.0</ele><time>2026-03-22T10:41:00.557Z</time></trkpt><trkpt lat="43.9883983" lon="12.4621833"><ele>183.5</ele><time>2026-03-22T10:41:01.558Z</time></trkpt><trkpt lat="43.9885417" lon="12.4622567"><ele>184.0</ele><time>2026-03-22T10:41:02.557Z</time></trkpt><trkpt lat="43.988675" lon="12.462335"><ele>184.5</ele><time>2026-03-22T10:41:03.557Z</time></trkpt><trkpt lat="43.9887883" lon="12.4624083"><ele>185.0</ele><time>2026-03-22T10:41:04.557Z</time></trkpt><trkpt lat="43.9888867" lon="12.4624683"><ele>185.0</ele><time>2026-03-22T10:41:05.558Z</time></trkpt><trkpt lat="43.98897" lon="12.4625233"><ele>185.0</ele><time>2026-03-22T10:41:06.558Z</time></trkpt><trkpt lat="43.989045" lon="12.4625667"><ele>185.0</ele><time>2026-03-22T10:41:07.558Z</time></trkpt><trkpt lat="43.9891267" lon="12.4626083"><ele>185.0</ele><time>2026-03-22T10:41:08.558Z</time></trkpt><trkpt lat="43.9892233" lon="12.462665"><ele>185.0</ele><time>2026-03-22T10:41:09.558Z</time></trkpt><trkpt lat="43.9893283" lon="12.4627283"><ele>185.25</ele><time>2026-03-22T10:41:10.557Z</time></trkpt><trkpt lat="43.9894383" lon="12.4627917"><ele>185.5</ele><time>2026-03-22T10:41:11.558Z</time></trkpt><trkpt lat="43.98954" lon="12.46286"><ele>185.75</ele><time>2026-03-22T10:41:12.558Z</time></trkpt><trkpt lat="43.9896583" lon="12.4629267"><ele>186.0</ele><time>2026-03-22T10:41:13.558Z</time></trkpt><trkpt lat="43.9897633" lon="12.46301"><ele>185.25</ele><time>2026-03-22T10:41:14.558Z</time></trkpt><trkpt lat="43.989865" lon="12.4631"><ele>184.5</ele><time>2026-03-22T10:41:15.557Z</time></trkpt><trkpt lat="43.9899617" lon="12.4632067"><ele>183.75</ele><time>2026-03-22T10:41:16.558Z</time></trkpt><trkpt lat="43.990075" lon="12.4633217"><ele>183.0</ele><time>2026-03-22T10:41:17.557Z</time></trkpt><trkpt lat="43.9901983" lon="12.4634333"><ele>182.25</ele><time>2026-03-22T10:41:18.558Z</time></trkpt><trkpt lat="43.9903283" lon="12.4635483"><ele>181.5</ele><time>2026-03-22T10:41:19.557Z</time></trkpt><trkpt lat="43.9904517" lon="12.4636667"><ele>180.75</ele><time>2026-03-22T10:41:20.558Z</time></trkpt><trkpt lat="43.99056" lon="12.4637967"><ele>180.0</ele><time>2026-03-22T10:41:21.558Z</time></trkpt><trkpt lat="43.9906567" lon="12.46393"><ele>180.0</ele><time>2026-03-22T10:41:22.558Z</time></trkpt><trkpt lat="43.990765" lon="12.4640733"><ele>180.0</ele><time>2026-03-22T10:41:23.558Z</time></trkpt><trkpt lat="43.9908883" lon="12.4642317"><ele>180.0</ele><time>2026-03-22T10:41:24.557Z</time></trkpt><trkpt lat="43.9910217" lon="12.4644017"><ele>178.33333333333334</ele><time>2026-03-22T10:41:25.557Z</time></trkpt><trkpt lat="43.9911533" lon="12.4645817"><ele>176.66666666666669</ele><time>2026-03-22T10:41:26.558Z</time></trkpt><trkpt lat="43.991285" lon="12.46477"><ele>175.0</ele><time>2026-03-22T10:41:27.558Z</time></trkpt><trkpt lat="43.991425" lon="12.46497"><ele>175.0</ele><time>2026-03-22T10:41:28.557Z</time></trkpt><trkpt lat="43.99158" lon="12.4651917"><ele>175.0</ele><time>2026-03-22T10:41:29.558Z</time></trkpt><trkpt lat="43.9917283" lon="12.4654183"><ele>175.0</ele><time>2026-03-22T10:41:30.557Z</time></trkpt><trkpt lat="43.9918733" lon="12.4656367"><ele>175.66666666666669</ele><time>2026-03-22T10:41:31.558Z</time></trkpt><trkpt lat="43.992015" lon="12.4658467"><ele>176.33333333333334</ele><time>2026-03-22T10:41:32.558Z</time></trkpt><trkpt lat="43.9921583" lon="12.4660617"><ele>177.0</ele><time>2026-03-22T10:41:33.558Z</time></trkpt><trkpt lat="43.9923083" lon="12.4662767"><ele>177.0</ele><time>2026-03-22T10:41:34.558Z</time></trkpt><trkpt lat="43.992445" lon="12.46651"><ele>177.0</ele><time>2026-03-22T10:41:35.558Z</time></trkpt><trkpt lat="43.992585" lon="12.46674"><ele>177.0</ele><time>2026-03-22T10:41:36.557Z</time></trkpt><trkpt lat="43.992735" lon="12.46697"><ele>176.66666666666666</ele><time>2026-03-22T10:41:37.558Z</time></trkpt><trkpt lat="43.9928867" lon="12.4671967"><ele>176.33333333333331</ele><time>2026-03-22T10:41:38.557Z</time></trkpt><trkpt lat="43.993035" lon="12.4674183"><ele>176.0</ele><time>2026-03-22T10:41:39.558Z</time></trkpt><trkpt lat="43.99318" lon="12.4676333"><ele>176.0</ele><time>2026-03-22T10:41:40.558Z</time></trkpt><trkpt lat="43.9933183" lon="12.4678383"><ele>176.0</ele><time>2026-03-22T10:41:41.558Z</time></trkpt><trkpt lat="43.9934517" lon="12.46804"><ele>176.0</ele><time>2026-03-22T10:41:42.558Z</time></trkpt><trkpt lat="43.9935783" lon="12.46824"><ele>176.0</ele><time>2026-03-22T10:41:43.558Z</time></trkpt><trkpt lat="43.9937017" lon="12.46843"><ele>176.0</ele><time>2026-03-22T10:41:44.557Z</time></trkpt><trkpt lat="43.993825" lon="12.4686167"><ele>176.0</ele><time>2026-03-22T10:41:45.558Z</time></trkpt><trkpt lat="43.993945" lon="12.4688017"><ele>176.0</ele><time>2026-03-22T10:41:46.558Z</time></trkpt><trkpt lat="43.9940767" lon="12.4689833"><ele>176.0</ele><time>2026-03-22T10:41:47.558Z</time></trkpt><trkpt lat="43.9942133" lon="12.4691683"><ele>176.0</ele><time>2026-03-22T10:41:48.558Z</time></trkpt><trkpt lat="43.9943517" lon="12.4693633"><ele>175.66666666666666</ele><time>2026-03-22T10:41:49.558Z</time></trkpt><trkpt lat="43.9944983" lon="12.4695767"><ele>175.33333333333334</ele><time>2026-03-22T10:41:50.558Z</time></trkpt><trkpt lat="43.994645" lon="12.4698083"><ele>175.0</ele><time>2026-03-22T10:41:51.558Z</time></trkpt><trkpt lat="43.9947933" lon="12.470045"><ele>175.0</ele><time>2026-03-22T10:41:52.558Z</time></trkpt><trkpt lat="43.9949567" lon="12.4702867"><ele>175.0</ele><time>2026-03-22T10:41:53.557Z</time></trkpt><trkpt lat="43.99512" lon="12.4705167"><ele>175.0</ele><time>2026-03-22T10:41:54.558Z</time></trkpt><trkpt lat="43.99528" lon="12.4707417"><ele>175.0</ele><time>2026-03-22T10:41:55.557Z</time></trkpt><trkpt lat="43.9954383" lon="12.4709633"><ele>175.0</ele><time>2026-03-22T10:41:56.557Z</time></trkpt><trkpt lat="43.9956" lon="12.47119"><ele>175.0</ele><time>2026-03-22T10:41:57.557Z</time></trkpt><trkpt lat="43.9957683" lon="12.47141"><ele>175.5</ele><time>2026-03-22T10:41:58.558Z</time></trkpt><trkpt lat="43.9959417" lon="12.4716333"><ele>176.0</ele><time>2026-03-22T10:41:59.558Z</time></trkpt><trkpt lat="43.9961233" lon="12.4718583"><ele>176.0</ele><time>2026-03-22T10:42:00.557Z</time></trkpt><trkpt lat="43.99631" lon="12.4720933"><ele>176.0</ele><time>2026-03-22T10:42:01.558Z</time></trkpt><trkpt lat="43.996485" lon="12.47232"><ele>176.66666666666666</ele><time>2026-03-22T10:42:02.557Z</time></trkpt><trkpt lat="43.9966417" lon="12.4725417"><ele>177.33333333333334</ele><time>2026-03-22T10:42:03.558Z</time></trkpt><trkpt lat="43.996785" lon="12.472755"><ele>178.0</ele><time>2026-03-22T10:42:04.558Z</time></trkpt><trkpt lat="43.99692" lon="12.472965"><ele>181.0</ele><time>2026-03-22T10:42:05.558Z</time></trkpt><trkpt lat="43.9970417" lon="12.4731633"><ele>184.0</ele><time>2026-03-22T10:42:06.558Z</time></trkpt><trkpt lat="43.99716" lon="12.473345"><ele>187.0</ele><time>2026-03-22T10:42:07.558Z</time></trkpt><trkpt lat="43.997285" lon="12.4735033"><ele>187.0</ele><time>2026-03-22T10:42:08.558Z</time></trkpt><trkpt lat="43.9974167" lon="12.4736517"><ele>187.0</ele><time>2026-03-22T10:42:09.557Z</time></trkpt><trkpt lat="43.9975917" lon="12.4737767"><ele>187.0</ele><time>2026-03-22T10:42:10.557Z</time></trkpt><trkpt lat="43.9977917" lon="12.4739083"><ele>188.5</ele><time>2026-03-22T10:42:11.558Z</time></trkpt><trkpt lat="43.99801" lon="12.4740417"><ele>190.0</ele><time>2026-03-22T10:42:12.558Z</time></trkpt><trkpt lat="43.9982233" lon="12.474175"><ele>190.66666666666669</ele><time>2026-03-22T10:42:13.558Z</time></trkpt><trkpt lat="43.9984333" lon="12.4743"><ele>191.33333333333334</ele><time>2026-03-22T10:42:14.558Z</time></trkpt><trkpt lat="43.9986383" lon="12.474415"><ele>192.0</ele><time>2026-03-22T10:42:15.559Z</time></trkpt><trkpt lat="43.9988333" lon="12.47453"><ele>192.0</ele><time>2026-03-22T10:42:16.558Z</time></trkpt><trkpt lat="43.9990183" lon="12.4746333"><ele>192.0</ele><time>2026-03-22T10:42:17.559Z</time></trkpt><trkpt lat="43.9992017" lon="12.474745"><ele>192.0</ele><time>2026-03-22T10:42:18.558Z</time></trkpt><trkpt lat="43.9993733" lon="12.474845"><ele>194.33333333333331</ele><time>2026-03-22T10:42:19.559Z</time></trkpt><trkpt lat="43.9995367" lon="12.474945"><ele>196.66666666666666</ele><time>2026-03-22T10:42:20.559Z</time></trkpt><trkpt lat="43.9996867" lon="12.4750433"><ele>199.0</ele><time>2026-03-22T10:42:21.559Z</time></trkpt><trkpt lat="43.999825" lon="12.475145"><ele>199.0</ele><time>2026-03-22T10:42:22.559Z</time></trkpt><trkpt lat="43.9999617" lon="12.4752533"><ele>199.0</ele><time>2026-03-22T10:42:23.559Z</time></trkpt><trkpt lat="43.999945" lon="12.47554"><ele>199.0</ele><time>2026-03-22T10:42:25.093Z</time></trkpt><trkpt lat="44.0002067" lon="12.4756533"><ele>196.0</ele><time>2026-03-22T10:42:26.557Z</time></trkpt><trkpt lat="44.0003617" lon="12.47585"><ele>193.0</ele><time>2026-03-22T10:42:27.557Z</time></trkpt><trkpt lat="44.0005433" lon="12.47615"><ele>189.66666666666666</ele><time>2026-03-22T10:42:29.058Z</time></trkpt><trkpt lat="44.0006583" lon="12.4764417"><ele>186.33333333333331</ele><time>2026-03-22T10:42:30.557Z</time></trkpt><trkpt lat="44.0007283" lon="12.4766183"><ele>183.0</ele><time>2026-03-22T10:42:31.558Z</time></trkpt><trkpt lat="44.0007917" lon="12.4768117"><ele>184.33333333333334</ele><time>2026-03-22T10:42:32.558Z</time></trkpt><trkpt lat="44.000855" lon="12.477015"><ele>185.66666666666669</ele><time>2026-03-22T10:42:33.557Z</time></trkpt><trkpt lat="44.0008983" lon="12.477235"><ele>187.0</ele><time>2026-03-22T10:42:34.558Z</time></trkpt><trkpt lat="44.0009617" lon="12.4774617"><ele>187.0</ele><time>2026-03-22T10:42:35.557Z</time></trkpt><trkpt lat="44.0010033" lon="12.4776717"><ele>187.0</ele><time>2026-03-22T10:42:36.558Z</time></trkpt><trkpt lat="44.00105" lon="12.4778717"><ele>187.0</ele><time>2026-03-22T10:42:37.558Z</time></trkpt><trkpt lat="44.00109" lon="12.4780617"><ele>186.33333333333334</ele><time>2026-03-22T10:42:38.557Z</time></trkpt><trkpt lat="44.00113" lon="12.4782617"><ele>185.66666666666666</ele><time>2026-03-22T10:42:39.557Z</time></trkpt><trkpt lat="44.0011867" lon="12.4784617"><ele>185.0</ele><time>2026-03-22T10:42:40.558Z</time></trkpt><trkpt lat="44.00126" lon="12.4786667"><ele>185.33333333333331</ele><time>2026-03-22T10:42:41.557Z</time></trkpt><trkpt lat="44.0013733" lon="12.4788833"><ele>185.66666666666666</ele><time>2026-03-22T10:42:42.558Z</time></trkpt><trkpt lat="44.0015" lon="12.479105"><ele>186.0</ele><time>2026-03-22T10:42:43.558Z</time></trkpt><trkpt lat="44.0016183" lon="12.479305"><ele>185.25</ele><time>2026-03-22T10:42:44.558Z</time></trkpt><trkpt lat="44.001715" lon="12.4794833"><ele>184.5</ele><time>2026-03-22T10:42:45.558Z</time></trkpt><trkpt lat="44.0017933" lon="12.4796583"><ele>183.75</ele><time>2026-03-22T10:42:46.558Z</time></trkpt><trkpt lat="44.0018383" lon="12.4798317"><ele>183.0</ele><time>2026-03-22T10:42:47.557Z</time></trkpt><trkpt lat="44.00186" lon="12.479995"><ele>182.0</ele><time>2026-03-22T10:42:48.558Z</time></trkpt><trkpt lat="44.00183" lon="12.4801817"><ele>181.0</ele><time>2026-03-22T10:42:49.558Z</time></trkpt><trkpt lat="44.0017833" lon="12.4803733"><ele>180.0</ele><time>2026-03-22T10:42:50.557Z</time></trkpt><trkpt lat="44.0017467" lon="12.480535"><ele>179.0</ele><time>2026-03-22T10:42:51.558Z</time></trkpt><trkpt lat="44.0017317" lon="12.4806583"><ele>178.0</ele><time>2026-03-22T10:42:52.558Z</time></trkpt><trkpt lat="44.0017367" lon="12.4807683"><ele>177.0</ele><time>2026-03-22T10:42:53.558Z</time></trkpt><trkpt lat="44.0017667" lon="12.4808617"><ele>176.0</ele><time>2026-03-22T10:42:54.558Z</time></trkpt><trkpt lat="44.0018317" lon="12.480895"><ele>175.0</ele><time>2026-03-22T10:42:55.558Z</time></trkpt><trkpt lat="44.0019183" lon="12.4808767"><ele>174.0</ele><time>2026-03-22T10:42:56.558Z</time></trkpt><trkpt lat="44.0020117" lon="12.4807633"><ele>173.0</ele><time>2026-03-22T10:42:57.558Z</time></trkpt><trkpt lat="44.00213" lon="12.4805717"><ele>175.0</ele><time>2026-03-22T10:42:58.558Z</time></trkpt><trkpt lat="44.0022517" lon="12.48037"><ele>177.0</ele><time>2026-03-22T10:42:59.558Z</time></trkpt><trkpt lat="44.0023633" lon="12.4801983"><ele>179.0</ele><time>2026-03-22T10:43:00.558Z</time></trkpt><trkpt lat="44.0024617" lon="12.4800683"><ele>176.0</ele><time>2026-03-22T10:43:01.557Z</time></trkpt><trkpt lat="44.0025533" lon="12.4799917"><ele>173.0</ele><time>2026-03-22T10:43:02.558Z</time></trkpt><trkpt lat="44.0026533" lon="12.479975"><ele>170.0</ele><time>2026-03-22T10:43:03.557Z</time></trkpt><trkpt lat="44.0027383" lon="12.4800317"><ele>167.0</ele><time>2026-03-22T10:43:04.557Z</time></trkpt><trkpt lat="44.0027967" lon="12.4801533"><ele>164.0</ele><time>2026-03-22T10:43:05.558Z</time></trkpt><trkpt lat="44.0028217" lon="12.480305"><ele>163.5</ele><time>2026-03-22T10:43:06.557Z</time></trkpt><trkpt lat="44.0028267" lon="12.4804817"><ele>163.0</ele><time>2026-03-22T10:43:07.558Z</time></trkpt><trkpt lat="44.0028617" lon="12.48066"><ele>162.5</ele><time>2026-03-22T10:43:08.557Z</time></trkpt><trkpt lat="44.0029383" lon="12.4808217"><ele>162.0</ele><time>2026-03-22T10:43:09.558Z</time></trkpt><trkpt lat="44.0030717" lon="12.4809667"><ele>162.0</ele><time>2026-03-22T10:43:10.557Z</time></trkpt><trkpt lat="44.0032483" lon="12.481105"><ele>162.0</ele><time>2026-03-22T10:43:11.557Z</time></trkpt><trkpt lat="44.0034367" lon="12.4812533"><ele>162.0</ele><time>2026-03-22T10:43:12.557Z</time></trkpt><trkpt lat="44.003625" lon="12.481395"><ele>158.66666666666666</ele><time>2026-03-22T10:43:13.557Z</time></trkpt><trkpt lat="44.0038" lon="12.481535"><ele>155.33333333333331</ele><time>2026-03-22T10:43:14.558Z</time></trkpt><trkpt lat="44.0039633" lon="12.4816867"><ele>152.0</ele><time>2026-03-22T10:43:15.557Z</time></trkpt><trkpt lat="44.0041183" lon="12.48187"><ele>151.33333333333331</ele><time>2026-03-22T10:43:16.557Z</time></trkpt><trkpt lat="44.00426" lon="12.4820783"><ele>150.66666666666666</ele><time>2026-03-22T10:43:17.558Z</time></trkpt><trkpt lat="44.0043983" lon="12.482295"><ele>150.0</ele><time>2026-03-22T10:43:18.558Z</time></trkpt><trkpt lat="44.0045333" lon="12.48251"><ele>148.33333333333334</ele><time>2026-03-22T10:43:19.558Z</time></trkpt><trkpt lat="44.0046633" lon="12.482715"><ele>146.66666666666669</ele><time>2026-03-22T10:43:20.558Z</time></trkpt><trkpt lat="44.0047867" lon="12.4829117"><ele>145.0</ele><time>2026-03-22T10:43:21.558Z</time></trkpt><trkpt lat="44.0049083" lon="12.48309"><ele>144.0</ele><time>2026-03-22T10:43:22.558Z</time></trkpt><trkpt lat="44.00502" lon="12.48326"><ele>143.0</ele><time>2026-03-22T10:43:23.557Z</time></trkpt><trkpt lat="44.0051283" lon="12.4834267"><ele>142.0</ele><time>2026-03-22T10:43:24.557Z</time></trkpt><trkpt lat="44.0052333" lon="12.4835783"><ele>142.0</ele><time>2026-03-22T10:43:25.558Z</time></trkpt><trkpt lat="44.005335" lon="12.4837267"><ele>142.0</ele><time>2026-03-22T10:43:26.558Z</time></trkpt><trkpt lat="44.0054317" lon="12.4838617"><ele>142.0</ele><time>2026-03-22T10:43:27.558Z</time></trkpt><trkpt lat="44.00554" lon="12.4839917"><ele>142.0</ele><time>2026-03-22T10:43:28.558Z</time></trkpt><trkpt lat="44.0056583" lon="12.4841533"><ele>141.66666666666669</ele><time>2026-03-22T10:43:29.558Z</time></trkpt><trkpt lat="44.0057833" lon="12.484355"><ele>141.33333333333334</ele><time>2026-03-22T10:43:30.558Z</time></trkpt><trkpt lat="44.00592" lon="12.48458"><ele>141.0</ele><time>2026-03-22T10:43:31.558Z</time></trkpt><trkpt lat="44.0060567" lon="12.484815"><ele>141.0</ele><time>2026-03-22T10:43:32.558Z</time></trkpt><trkpt lat="44.006195" lon="12.48503"><ele>141.0</ele><time>2026-03-22T10:43:33.558Z</time></trkpt><trkpt lat="44.0063283" lon="12.4852283"><ele>141.0</ele><time>2026-03-22T10:43:34.558Z</time></trkpt><trkpt lat="44.00646" lon="12.4854133"><ele>140.66666666666666</ele><time>2026-03-22T10:43:35.558Z</time></trkpt><trkpt lat="44.0065883" lon="12.4855733"><ele>140.33333333333331</ele><time>2026-03-22T10:43:36.557Z</time></trkpt><trkpt lat="44.00673" lon="12.4857117"><ele>140.0</ele><time>2026-03-22T10:43:37.557Z</time></trkpt><trkpt lat="44.00688" lon="12.4858283"><ele>138.66666666666666</ele><time>2026-03-22T10:43:38.558Z</time></trkpt><trkpt lat="44.0070633" lon="12.4859217"><ele>137.33333333333334</ele><time>2026-03-22T10:43:39.558Z</time></trkpt><trkpt lat="44.00727" lon="12.4860217"><ele>136.0</ele><time>2026-03-22T10:43:40.558Z</time></trkpt><trkpt lat="44.0074833" lon="12.4861417"><ele>134.0</ele><time>2026-03-22T10:43:41.558Z</time></trkpt><trkpt lat="44.0076867" lon="12.4862767"><ele>132.0</ele><time>2026-03-22T10:43:42.558Z</time></trkpt><trkpt lat="44.00788" lon="12.4864233"><ele>130.0</ele><time>2026-03-22T10:43:43.557Z</time></trkpt><trkpt lat="44.0080733" lon="12.4865733"><ele>130.0</ele><time>2026-03-22T10:43:44.557Z</time></trkpt><trkpt lat="44.0082617" lon="12.4867217"><ele>130.0</ele><time>2026-03-22T10:43:45.558Z</time></trkpt><trkpt lat="44.00845" lon="12.48688"><ele>130.0</ele><time>2026-03-22T10:43:46.558Z</time></trkpt><trkpt lat="44.0086283" lon="12.4870433"><ele>132.0</ele><time>2026-03-22T10:43:47.558Z</time></trkpt><trkpt lat="44.0087917" lon="12.4872067"><ele>134.0</ele><time>2026-03-22T10:43:48.558Z</time></trkpt><trkpt lat="44.00894" lon="12.4873617"><ele>136.0</ele><time>2026-03-22T10:43:49.558Z</time></trkpt><trkpt lat="44.0090817" lon="12.487505"><ele>137.5</ele><time>2026-03-22T10:43:50.558Z</time></trkpt><trkpt lat="44.0092083" lon="12.48764"><ele>139.0</ele><time>2026-03-22T10:43:51.558Z</time></trkpt><trkpt lat="44.00932" lon="12.487765"><ele>140.5</ele><time>2026-03-22T10:43:52.557Z</time></trkpt><trkpt lat="44.0094167" lon="12.4878733"><ele>142.0</ele><time>2026-03-22T10:43:53.557Z</time></trkpt><trkpt lat="44.009485" lon="12.487955"><ele>142.0</ele><time>2026-03-22T10:43:54.557Z</time></trkpt><trkpt lat="44.0095417" lon="12.48802"><ele>142.0</ele><time>2026-03-22T10:43:55.558Z</time></trkpt><trkpt lat="44.0095917" lon="12.4880767"><ele>142.0</ele><time>2026-03-22T10:43:56.558Z</time></trkpt><trkpt lat="44.00966" lon="12.488135"><ele>142.0</ele><time>2026-03-22T10:43:57.558Z</time></trkpt><trkpt lat="44.009745" lon="12.48821"><ele>142.0</ele><time>2026-03-22T10:43:58.558Z</time></trkpt><trkpt lat="44.0098417" lon="12.4883067"><ele>142.0</ele><time>2026-03-22T10:43:59.558Z</time></trkpt><trkpt lat="44.0099667" lon="12.4884383"><ele>143.0</ele><time>2026-03-22T10:44:00.558Z</time></trkpt><trkpt lat="44.0101267" lon="12.4886"><ele>144.0</ele><time>2026-03-22T10:44:01.557Z</time></trkpt><trkpt lat="44.0102983" lon="12.4887717"><ele>145.0</ele><time>2026-03-22T10:44:02.557Z</time></trkpt><trkpt lat="44.0104733" lon="12.4889333"><ele>146.0</ele><time>2026-03-22T10:44:03.557Z</time></trkpt><trkpt lat="44.0106433" lon="12.4890783"><ele>147.0</ele><time>2026-03-22T10:44:04.557Z</time></trkpt><trkpt lat="44.0108033" lon="12.4892"><ele>148.0</ele><time>2026-03-22T10:44:05.558Z</time></trkpt><trkpt lat="44.0109567" lon="12.4893283"><ele>148.0</ele><time>2026-03-22T10:44:06.558Z</time></trkpt><trkpt lat="44.0111117" lon="12.489455"><ele>148.0</ele><time>2026-03-22T10:44:07.558Z</time></trkpt><trkpt lat="44.0112667" lon="12.4895733"><ele>148.0</ele><time>2026-03-22T10:44:08.557Z</time></trkpt><trkpt lat="44.0114133" lon="12.4896967"><ele>148.33333333333334</ele><time>2026-03-22T10:44:09.558Z</time></trkpt><trkpt lat="44.0115567" lon="12.48982"><ele>148.66666666666666</ele><time>2026-03-22T10:44:10.558Z</time></trkpt><trkpt lat="44.011695" lon="12.4899383"><ele>149.0</ele><time>2026-03-22T10:44:11.558Z</time></trkpt><trkpt lat="44.0118433" lon="12.4900583"><ele>146.0</ele><time>2026-03-22T10:44:12.558Z</time></trkpt><trkpt lat="44.012015" lon="12.49019"><ele>143.0</ele><time>2026-03-22T10:44:13.558Z</time></trkpt><trkpt lat="44.012205" lon="12.4903367"><ele>140.0</ele><time>2026-03-22T10:44:14.557Z</time></trkpt><trkpt lat="44.0124067" lon="12.4904883"><ele>136.5</ele><time>2026-03-22T10:44:15.558Z</time></trkpt><trkpt lat="44.0126067" lon="12.4906467"><ele>133.0</ele><time>2026-03-22T10:44:16.558Z</time></trkpt><trkpt lat="44.0128167" lon="12.4908133"><ele>133.0</ele><time>2026-03-22T10:44:17.558Z</time></trkpt><trkpt lat="44.013025" lon="12.49098"><ele>133.0</ele><time>2026-03-22T10:44:18.558Z</time></trkpt><trkpt lat="44.0132267" lon="12.49114"><ele>132.0</ele><time>2026-03-22T10:44:19.558Z</time></trkpt><trkpt lat="44.0134267" lon="12.49131"><ele>131.0</ele><time>2026-03-22T10:44:20.558Z</time></trkpt><trkpt lat="44.0136217" lon="12.4914917"><ele>131.0</ele><time>2026-03-22T10:44:21.558Z</time></trkpt><trkpt lat="44.0138167" lon="12.4916817"><ele>131.0</ele><time>2026-03-22T10:44:22.558Z</time></trkpt><trkpt lat="44.014005" lon="12.491875"><ele>129.5</ele><time>2026-03-22T10:44:23.558Z</time></trkpt><trkpt lat="44.014195" lon="12.4920683"><ele>128.0</ele><time>2026-03-22T10:44:24.558Z</time></trkpt><trkpt lat="44.01439" lon="12.4922617"><ele>131.5</ele><time>2026-03-22T10:44:25.558Z</time></trkpt><trkpt lat="44.0145883" lon="12.4924583"><ele>135.0</ele><time>2026-03-22T10:44:26.558Z</time></trkpt><trkpt lat="44.0147833" lon="12.4926567"><ele>135.0</ele><time>2026-03-22T10:44:27.558Z</time></trkpt><trkpt lat="44.01498" lon="12.49286"><ele>135.0</ele><time>2026-03-22T10:44:28.557Z</time></trkpt><trkpt lat="44.0151683" lon="12.49306"><ele>133.0</ele><time>2026-03-22T10:44:29.557Z</time></trkpt><trkpt lat="44.0153533" lon="12.493255"><ele>131.0</ele><time>2026-03-22T10:44:30.557Z</time></trkpt><trkpt lat="44.015525" lon="12.4934467"><ele>131.0</ele><time>2026-03-22T10:44:31.558Z</time></trkpt><trkpt lat="44.01569" lon="12.49365"><ele>131.0</ele><time>2026-03-22T10:44:32.558Z</time></trkpt><trkpt lat="44.015855" lon="12.49387"><ele>131.0</ele><time>2026-03-22T10:44:33.558Z</time></trkpt><trkpt lat="44.0160317" lon="12.4940967"><ele>128.0</ele><time>2026-03-22T10:44:34.558Z</time></trkpt><trkpt lat="44.0162133" lon="12.49432"><ele>125.0</ele><time>2026-03-22T10:44:35.558Z</time></trkpt><trkpt lat="44.016385" lon="12.4945367"><ele>125.66666666666666</ele><time>2026-03-22T10:44:36.558Z</time></trkpt><trkpt lat="44.01655" lon="12.4947417"><ele>126.33333333333334</ele><time>2026-03-22T10:44:37.558Z</time></trkpt><trkpt lat="44.01671" lon="12.4949533"><ele>127.0</ele><time>2026-03-22T10:44:38.558Z</time></trkpt><trkpt lat="44.0168667" lon="12.4951767"><ele>122.0</ele><time>2026-03-22T10:44:39.558Z</time></trkpt><trkpt lat="44.0170217" lon="12.4954217"><ele>117.0</ele><time>2026-03-22T10:44:40.557Z</time></trkpt><trkpt lat="44.0171717" lon="12.4956767"><ele>117.0</ele><time>2026-03-22T10:44:41.558Z</time></trkpt><trkpt lat="44.0173083" lon="12.4959233"><ele>117.0</ele><time>2026-03-22T10:44:42.557Z</time></trkpt><trkpt lat="44.0174317" lon="12.4961617"><ele>117.0</ele><time>2026-03-22T10:44:43.558Z</time></trkpt><trkpt lat="44.017545" lon="12.49638"><ele>119.66666666666666</ele><time>2026-03-22T10:44:44.558Z</time></trkpt><trkpt lat="44.017645" lon="12.496595"><ele>122.33333333333333</ele><time>2026-03-22T10:44:45.557Z</time></trkpt><trkpt lat="44.01774" lon="12.4967833"><ele>125.0</ele><time>2026-03-22T10:44:46.558Z</time></trkpt><trkpt lat="44.0178217" lon="12.4969467"><ele>125.0</ele><time>2026-03-22T10:44:47.558Z</time></trkpt><trkpt lat="44.0179" lon="12.497075"><ele>125.0</ele><time>2026-03-22T10:44:48.558Z</time></trkpt><trkpt lat="44.0179883" lon="12.49718"><ele>125.0</ele><time>2026-03-22T10:44:49.558Z</time></trkpt><trkpt lat="44.0180667" lon="12.497255"><ele>125.0</ele><time>2026-03-22T10:44:50.558Z</time></trkpt><trkpt lat="44.0181283" lon="12.4973017"><ele>125.0</ele><time>2026-03-22T10:44:51.558Z</time></trkpt><trkpt lat="44.01821" lon="12.4973383"><ele>124.66666666666666</ele><time>2026-03-22T10:44:53.558Z</time></trkpt><trkpt lat="44.018355" lon="12.497395"><ele>124.33333333333334</ele><time>2026-03-22T10:44:55.558Z</time></trkpt><trkpt lat="44.0184983" lon="12.4974467"><ele>124.0</ele><time>2026-03-22T10:44:56.558Z</time></trkpt><trkpt lat="44.0186717" lon="12.497495"><ele>124.0</ele><time>2026-03-22T10:44:57.557Z</time></trkpt><trkpt lat="44.0188417" lon="12.49754"><ele>124.0</ele><time>2026-03-22T10:44:58.558Z</time></trkpt><trkpt lat="44.018995" lon="12.49759"><ele>124.0</ele><time>2026-03-22T10:44:59.557Z</time></trkpt><trkpt lat="44.0191417" lon="12.49767"><ele>122.33333333333334</ele><time>2026-03-22T10:45:00.557Z</time></trkpt><trkpt lat="44.0192633" lon="12.4978033"><ele>120.66666666666666</ele><time>2026-03-22T10:45:01.558Z</time></trkpt><trkpt lat="44.01937" lon="12.49799"><ele>119.0</ele><time>2026-03-22T10:45:02.557Z</time></trkpt><trkpt lat="44.0194783" lon="12.4981933"><ele>117.0</ele><time>2026-03-22T10:45:03.557Z</time></trkpt><trkpt lat="44.0195767" lon="12.4984133"><ele>115.0</ele><time>2026-03-22T10:45:04.558Z</time></trkpt><trkpt lat="44.019685" lon="12.49863"><ele>113.0</ele><time>2026-03-22T10:45:05.558Z</time></trkpt><trkpt lat="44.01983" lon="12.4988333"><ele>112.0</ele><time>2026-03-22T10:45:06.558Z</time></trkpt><trkpt lat="44.0199983" lon="12.49902"><ele>111.0</ele><time>2026-03-22T10:45:07.558Z</time></trkpt><trkpt lat="44.020175" lon="12.4992033"><ele>110.0</ele><time>2026-03-22T10:45:08.557Z</time></trkpt><trkpt lat="44.0203433" lon="12.4993883"><ele>110.0</ele><time>2026-03-22T10:45:09.557Z</time></trkpt><trkpt lat="44.02051" lon="12.49958"><ele>110.0</ele><time>2026-03-22T10:45:10.558Z</time></trkpt><trkpt lat="44.02068" lon="12.4997717"><ele>110.0</ele><time>2026-03-22T10:45:11.558Z</time></trkpt><trkpt lat="44.0208483" lon="12.499975"><ele>107.5</ele><time>2026-03-22T10:45:12.557Z</time></trkpt><trkpt lat="44.02101" lon="12.5002"><ele>105.0</ele><time>2026-03-22T10:45:13.557Z</time></trkpt><trkpt lat="44.0211683" lon="12.5004217"><ele>105.0</ele><time>2026-03-22T10:45:14.558Z</time></trkpt><trkpt lat="44.0213233" lon="12.5006367"><ele>105.0</ele><time>2026-03-22T10:45:15.558Z</time></trkpt><trkpt lat="44.0214683" lon="12.5008533"><ele>105.0</ele><time>2026-03-22T10:45:16.557Z</time></trkpt><trkpt lat="44.02162" lon="12.50106"><ele>102.66666666666666</ele><time>2026-03-22T10:45:17.558Z</time></trkpt><trkpt lat="44.0217617" lon="12.5012583"><ele>100.33333333333333</ele><time>2026-03-22T10:45:18.557Z</time></trkpt><trkpt lat="44.0219033" lon="12.5014433"><ele>98.0</ele><time>2026-03-22T10:45:19.557Z</time></trkpt><trkpt lat="44.022035" lon="12.5016233"><ele>98.0</ele><time>2026-03-22T10:45:20.558Z</time></trkpt><trkpt lat="44.0221617" lon="12.5017933"><ele>98.0</ele><time>2026-03-22T10:45:21.557Z</time></trkpt><trkpt lat="44.0222783" lon="12.5019667"><ele>98.0</ele><time>2026-03-22T10:45:22.558Z</time></trkpt><trkpt lat="44.0223867" lon="12.5021283"><ele>96.33333333333333</ele><time>2026-03-22T10:45:23.558Z</time></trkpt><trkpt lat="44.0224833" lon="12.502315"><ele>94.66666666666666</ele><time>2026-03-22T10:45:24.557Z</time></trkpt><trkpt lat="44.0225683" lon="12.5025317"><ele>93.0</ele><time>2026-03-22T10:45:25.557Z</time></trkpt><trkpt lat="44.02265" lon="12.50277"><ele>92.33333333333333</ele><time>2026-03-22T10:45:26.558Z</time></trkpt><trkpt lat="44.022745" lon="12.5029967"><ele>91.66666666666666</ele><time>2026-03-22T10:45:27.557Z</time></trkpt><trkpt lat="44.022835" lon="12.5032133"><ele>91.0</ele><time>2026-03-22T10:45:28.558Z</time></trkpt><trkpt lat="44.02288" lon="12.5034683"><ele>91.0</ele><time>2026-03-22T10:45:29.557Z</time></trkpt><trkpt lat="44.0229" lon="12.50374"><ele>91.0</ele><time>2026-03-22T10:45:30.557Z</time></trkpt><trkpt lat="44.0228783" lon="12.5040267"><ele>91.0</ele><time>2026-03-22T10:45:31.558Z</time></trkpt><trkpt lat="44.022865" lon="12.5043"><ele>90.66666666666666</ele><time>2026-03-22T10:45:32.557Z</time></trkpt><trkpt lat="44.0228667" lon="12.5045683"><ele>90.33333333333333</ele><time>2026-03-22T10:45:33.558Z</time></trkpt><trkpt lat="44.02289" lon="12.5048583"><ele>90.0</ele><time>2026-03-22T10:45:34.558Z</time></trkpt><trkpt lat="44.0229367" lon="12.50515"><ele>90.5</ele><time>2026-03-22T10:45:35.558Z</time></trkpt><trkpt lat="44.0230083" lon="12.5054617"><ele>91.0</ele><time>2026-03-22T10:45:36.557Z</time></trkpt><trkpt lat="44.0230933" lon="12.5057883"><ele>91.0</ele><time>2026-03-22T10:45:37.558Z</time></trkpt><trkpt lat="44.0231783" lon="12.5061083"><ele>91.0</ele><time>2026-03-22T10:45:38.558Z</time></trkpt><trkpt lat="44.0232583" lon="12.50641"><ele>92.33333333333333</ele><time>2026-03-22T10:45:39.557Z</time></trkpt><trkpt lat="44.0233267" lon="12.5067017"><ele>93.66666666666667</ele><time>2026-03-22T10:45:40.557Z</time></trkpt><trkpt lat="44.023395" lon="12.5069883"><ele>95.0</ele><time>2026-03-22T10:45:41.557Z</time></trkpt><trkpt lat="44.0234667" lon="12.5072933"><ele>96.0</ele><time>2026-03-22T10:45:42.557Z</time></trkpt><trkpt lat="44.0235367" lon="12.507605"><ele>97.0</ele><time>2026-03-22T10:45:43.558Z</time></trkpt><trkpt lat="44.0235883" lon="12.5079"><ele>97.66666666666667</ele><time>2026-03-22T10:45:44.558Z</time></trkpt><trkpt lat="44.023635" lon="12.50818"><ele>98.33333333333334</ele><time>2026-03-22T10:45:45.558Z</time></trkpt><trkpt lat="44.0237183" lon="12.5084517"><ele>99.0</ele><time>2026-03-22T10:45:46.558Z</time></trkpt><trkpt lat="44.0238417" lon="12.508725"><ele>99.5</ele><time>2026-03-22T10:45:47.558Z</time></trkpt><trkpt lat="44.0239817" lon="12.5090117"><ele>100.0</ele><time>2026-03-22T10:45:48.557Z</time></trkpt><trkpt lat="44.0241117" lon="12.5092983"><ele>98.66666666666667</ele><time>2026-03-22T10:45:49.557Z</time></trkpt><trkpt lat="44.0242283" lon="12.5095767"><ele>97.33333333333334</ele><time>2026-03-22T10:45:50.558Z</time></trkpt><trkpt lat="44.02433" lon="12.5098417"><ele>96.0</ele><time>2026-03-22T10:45:51.557Z</time></trkpt><trkpt lat="44.0244417" lon="12.5100933"><ele>96.0</ele><time>2026-03-22T10:45:52.557Z</time></trkpt><trkpt lat="44.0245383" lon="12.5103333"><ele>96.0</ele><time>2026-03-22T10:45:53.558Z</time></trkpt><trkpt lat="44.0246533" lon="12.51055"><ele>96.0</ele><time>2026-03-22T10:45:54.557Z</time></trkpt><trkpt lat="44.0248017" lon="12.51074"><ele>93.33333333333333</ele><time>2026-03-22T10:45:55.558Z</time></trkpt><trkpt lat="44.024985" lon="12.5109083"><ele>90.66666666666666</ele><time>2026-03-22T10:45:56.558Z</time></trkpt><trkpt lat="44.025175" lon="12.5110767"><ele>88.0</ele><time>2026-03-22T10:45:57.557Z</time></trkpt><trkpt lat="44.0253617" lon="12.5112833"><ele>88.0</ele><time>2026-03-22T10:45:58.558Z</time></trkpt><trkpt lat="44.0255433" lon="12.5115317"><ele>88.0</ele><time>2026-03-22T10:45:59.558Z</time></trkpt><trkpt lat="44.0257283" lon="12.5117933"><ele>83.0</ele><time>2026-03-22T10:46:00.557Z</time></trkpt><trkpt lat="44.0259017" lon="12.51205"><ele>78.0</ele><time>2026-03-22T10:46:01.558Z</time></trkpt><trkpt lat="44.026055" lon="12.5122967"><ele>78.0</ele><time>2026-03-22T10:46:02.558Z</time></trkpt><trkpt lat="44.0261967" lon="12.5125317"><ele>78.0</ele><time>2026-03-22T10:46:03.557Z</time></trkpt><trkpt lat="44.0263217" lon="12.5127383"><ele>78.0</ele><time>2026-03-22T10:46:04.557Z</time></trkpt><trkpt lat="44.0264267" lon="12.51292"><ele>78.5</ele><time>2026-03-22T10:46:05.558Z</time></trkpt><trkpt lat="44.0265317" lon="12.5130483"><ele>79.0</ele><time>2026-03-22T10:46:06.558Z</time></trkpt><trkpt lat="44.0266533" lon="12.5131267"><ele>79.5</ele><time>2026-03-22T10:46:07.557Z</time></trkpt><trkpt lat="44.0267917" lon="12.5131367"><ele>80.0</ele><time>2026-03-22T10:46:08.558Z</time></trkpt><trkpt lat="44.02696" lon="12.5130917"><ele>80.0</ele><time>2026-03-22T10:46:09.557Z</time></trkpt><trkpt lat="44.0271633" lon="12.51302"><ele>80.0</ele><time>2026-03-22T10:46:10.557Z</time></trkpt><trkpt lat="44.02739" lon="12.5129333"><ele>80.0</ele><time>2026-03-22T10:46:11.557Z</time></trkpt><trkpt lat="44.027625" lon="12.51284"><ele>78.0</ele><time>2026-03-22T10:46:12.558Z</time></trkpt><trkpt lat="44.027865" lon="12.512755"><ele>76.0</ele><time>2026-03-22T10:46:13.558Z</time></trkpt><trkpt lat="44.0280933" lon="12.5126767"><ele>76.0</ele><time>2026-03-22T10:46:14.558Z</time></trkpt><trkpt lat="44.0283067" lon="12.51259"><ele>76.0</ele><time>2026-03-22T10:46:15.557Z</time></trkpt><trkpt lat="44.028505" lon="12.5125017"><ele>76.0</ele><time>2026-03-22T10:46:16.558Z</time></trkpt><trkpt lat="44.0286967" lon="12.5124317"><ele>76.0</ele><time>2026-03-22T10:46:17.558Z</time></trkpt><trkpt lat="44.0288783" lon="12.51237"><ele>76.0</ele><time>2026-03-22T10:46:18.558Z</time></trkpt><trkpt lat="44.0290467" lon="12.5123133"><ele>76.0</ele><time>2026-03-22T10:46:19.558Z</time></trkpt><trkpt lat="44.0292" lon="12.5122867"><ele>76.0</ele><time>2026-03-22T10:46:20.557Z</time></trkpt><trkpt lat="44.0293567" lon="12.5123267"><ele>76.0</ele><time>2026-03-22T10:46:21.558Z</time></trkpt><trkpt lat="44.0295183" lon="12.51241"><ele>76.0</ele><time>2026-03-22T10:46:22.558Z</time></trkpt><trkpt lat="44.0296983" lon="12.5125333"><ele>76.0</ele><time>2026-03-22T10:46:23.557Z</time></trkpt><trkpt lat="44.0299017" lon="12.51267"><ele>76.0</ele><time>2026-03-22T10:46:24.558Z</time></trkpt><trkpt lat="44.0301" lon="12.5127983"><ele>76.0</ele><time>2026-03-22T10:46:25.557Z</time></trkpt><trkpt lat="44.03028" lon="12.5129167"><ele>74.66666666666666</ele><time>2026-03-22T10:46:26.557Z</time></trkpt><trkpt lat="44.030445" lon="12.51306"><ele>73.33333333333333</ele><time>2026-03-22T10:46:27.558Z</time></trkpt><trkpt lat="44.0305983" lon="12.5132433"><ele>72.0</ele><time>2026-03-22T10:46:28.558Z</time></trkpt><trkpt lat="44.0307567" lon="12.5134567"><ele>69.66666666666667</ele><time>2026-03-22T10:46:29.558Z</time></trkpt><trkpt lat="44.0309083" lon="12.513685"><ele>67.33333333333334</ele><time>2026-03-22T10:46:30.557Z</time></trkpt><trkpt lat="44.03105" lon="12.5139017"><ele>65.0</ele><time>2026-03-22T10:46:31.558Z</time></trkpt><trkpt lat="44.0311833" lon="12.5141133"><ele>65.0</ele><time>2026-03-22T10:46:32.557Z</time></trkpt><trkpt lat="44.03132" lon="12.5143183"><ele>65.0</ele><time>2026-03-22T10:46:33.557Z</time></trkpt><trkpt lat="44.0314767" lon="12.5144983"><ele>65.0</ele><time>2026-03-22T10:46:34.558Z</time></trkpt><trkpt lat="44.0316583" lon="12.5146567"><ele>62.333333333333336</ele><time>2026-03-22T10:46:35.557Z</time></trkpt><trkpt lat="44.0318483" lon="12.5147867"><ele>59.66666666666667</ele><time>2026-03-22T10:46:36.558Z</time></trkpt><trkpt lat="44.0320283" lon="12.5149"><ele>57.0</ele><time>2026-03-22T10:46:37.557Z</time></trkpt><trkpt lat="44.0322" lon="12.514995"><ele>57.0</ele><time>2026-03-22T10:46:38.557Z</time></trkpt><trkpt lat="44.0323967" lon="12.5150433"><ele>57.0</ele><time>2026-03-22T10:46:39.558Z</time></trkpt><trkpt lat="44.032605" lon="12.51505"><ele>57.0</ele><time>2026-03-22T10:46:40.557Z</time></trkpt><trkpt lat="44.0328067" lon="12.5150283"><ele>55.33333333333333</ele><time>2026-03-22T10:46:41.557Z</time></trkpt><trkpt lat="44.0329883" lon="12.51499"><ele>53.666666666666664</ele><time>2026-03-22T10:46:42.558Z</time></trkpt><trkpt lat="44.03314" lon="12.5149533"><ele>52.0</ele><time>2026-03-22T10:46:43.557Z</time></trkpt><trkpt lat="44.0332683" lon="12.5148967"><ele>52.0</ele><time>2026-03-22T10:46:44.558Z</time></trkpt><trkpt lat="44.033385" lon="12.5147917"><ele>52.0</ele><time>2026-03-22T10:46:45.558Z</time></trkpt><trkpt lat="44.03349" lon="12.5146417"><ele>52.0</ele><time>2026-03-22T10:46:46.558Z</time></trkpt><trkpt lat="44.0335783" lon="12.51447"><ele>52.0</ele><time>2026-03-22T10:46:47.557Z</time></trkpt><trkpt lat="44.0336517" lon="12.51432"><ele>52.25</ele><time>2026-03-22T10:46:48.557Z</time></trkpt><trkpt lat="44.0337283" lon="12.5142033"><ele>52.5</ele><time>2026-03-22T10:46:49.558Z</time></trkpt><trkpt lat="44.0338167" lon="12.5141317"><ele>52.75</ele><time>2026-03-22T10:46:50.557Z</time></trkpt><trkpt lat="44.0339267" lon="12.5141283"><ele>53.0</ele><time>2026-03-22T10:46:51.558Z</time></trkpt><trkpt lat="44.034045" lon="12.5141833"><ele>52.333333333333336</ele><time>2026-03-22T10:46:52.558Z</time></trkpt><trkpt lat="44.03418" lon="12.5142967"><ele>51.66666666666667</ele><time>2026-03-22T10:46:53.557Z</time></trkpt><trkpt lat="44.0343217" lon="12.51445"><ele>51.0</ele><time>2026-03-22T10:46:54.558Z</time></trkpt><trkpt lat="44.0344667" lon="12.5146083"><ele>51.0</ele><time>2026-03-22T10:46:55.558Z</time></trkpt><trkpt lat="44.0345933" lon="12.5147483"><ele>51.0</ele><time>2026-03-22T10:46:56.557Z</time></trkpt><trkpt lat="44.03472" lon="12.5148633"><ele>51.0</ele><time>2026-03-22T10:46:57.557Z</time></trkpt><trkpt lat="44.03485" lon="12.5149367"><ele>48.666666666666664</ele><time>2026-03-22T10:46:58.557Z</time></trkpt><trkpt lat="44.0350217" lon="12.51495"><ele>46.33333333333333</ele><time>2026-03-22T10:46:59.557Z</time></trkpt><trkpt lat="44.0352083" lon="12.5149317"><ele>44.0</ele><time>2026-03-22T10:47:00.559Z</time></trkpt><trkpt lat="44.0353967" lon="12.51492"><ele>44.0</ele><time>2026-03-22T10:47:01.558Z</time></trkpt><trkpt lat="44.035585" lon="12.5149567"><ele>44.0</ele><time>2026-03-22T10:47:02.559Z</time></trkpt><trkpt lat="44.03578" lon="12.51502"><ele>44.0</ele><time>2026-03-22T10:47:03.559Z</time></trkpt><trkpt lat="44.03598" lon="12.5150967"><ele>42.33333333333333</ele><time>2026-03-22T10:47:04.558Z</time></trkpt><trkpt lat="44.036175" lon="12.515175"><ele>40.666666666666664</ele><time>2026-03-22T10:47:05.559Z</time></trkpt><trkpt lat="44.0363433" lon="12.515255"><ele>39.0</ele><time>2026-03-22T10:47:06.559Z</time></trkpt><trkpt lat="44.0364967" lon="12.51533"><ele>39.0</ele><time>2026-03-22T10:47:07.558Z</time></trkpt><trkpt lat="44.0366267" lon="12.5153933"><ele>39.0</ele><time>2026-03-22T10:47:08.559Z</time></trkpt><trkpt lat="44.036755" lon="12.5154333"><ele>39.0</ele><time>2026-03-22T10:47:09.558Z</time></trkpt><trkpt lat="44.0368783" lon="12.5154067"><ele>39.0</ele><time>2026-03-22T10:47:10.559Z</time></trkpt><trkpt lat="44.0369833" lon="12.5153183"><ele>37.8</ele><time>2026-03-22T10:47:11.559Z</time></trkpt><trkpt lat="44.03706" lon="12.5151767"><ele>36.599999999999994</ele><time>2026-03-22T10:47:12.559Z</time></trkpt><trkpt lat="44.0371083" lon="12.5150333"><ele>35.4</ele><time>2026-03-22T10:47:13.559Z</time></trkpt><trkpt lat="44.0371533" lon="12.5149233"><ele>34.199999999999996</ele><time>2026-03-22T10:47:14.559Z</time></trkpt><trkpt lat="44.0372283" lon="12.514855"><ele>33.0</ele><time>2026-03-22T10:47:15.559Z</time></trkpt><trkpt lat="44.0373217" lon="12.514855"><ele>33.0</ele><time>2026-03-22T10:47:16.558Z</time></trkpt><trkpt lat="44.0374183" lon="12.5149367"><ele>33.0</ele><time>2026-03-22T10:47:17.559Z</time></trkpt><trkpt lat="44.0375017" lon="12.515085"><ele>33.0</ele><time>2026-03-22T10:47:18.559Z</time></trkpt><trkpt lat="44.0375733" lon="12.5152817"><ele>33.0</ele><time>2026-03-22T10:47:19.559Z</time></trkpt><trkpt lat="44.0376533" lon="12.5155167"><ele>29.333333333333332</ele><time>2026-03-22T10:47:20.559Z</time></trkpt><trkpt lat="44.037735" lon="12.5157617"><ele>25.666666666666664</ele><time>2026-03-22T10:47:21.559Z</time></trkpt><trkpt lat="44.0378217" lon="12.51599"><ele>22.0</ele><time>2026-03-22T10:47:22.558Z</time></trkpt><trkpt lat="44.0379017" lon="12.51621"><ele>21.333333333333332</ele><time>2026-03-22T10:47:23.559Z</time></trkpt><trkpt lat="44.0379783" lon="12.5164133"><ele>20.666666666666668</ele><time>2026-03-22T10:47:24.559Z</time></trkpt><trkpt lat="44.0380617" lon="12.5166133"><ele>20.0</ele><time>2026-03-22T10:47:25.559Z</time></trkpt><trkpt lat="44.0381433" lon="12.5168117"><ele>20.0</ele><time>2026-03-22T10:47:26.558Z</time></trkpt><trkpt lat="44.0382417" lon="12.5170183"><ele>20.0</ele><time>2026-03-22T10:47:27.559Z</time></trkpt><trkpt lat="44.0383517" lon="12.5172117"><ele>20.0</ele><time>2026-03-22T10:47:28.559Z</time></trkpt><trkpt lat="44.038475" lon="12.5173817"><ele>18.333333333333336</ele><time>2026-03-22T10:47:29.559Z</time></trkpt><trkpt lat="44.0386117" lon="12.5175467"><ele>16.666666666666668</ele><time>2026-03-22T10:47:30.559Z</time></trkpt><trkpt lat="44.0387667" lon="12.5176983"><ele>15.0</ele><time>2026-03-22T10:47:31.559Z</time></trkpt><trkpt lat="44.0389233" lon="12.5178517"><ele>14.666666666666668</ele><time>2026-03-22T10:47:32.559Z</time></trkpt><trkpt lat="44.0390833" lon="12.5180067"><ele>14.333333333333334</ele><time>2026-03-22T10:47:33.559Z</time></trkpt><trkpt lat="44.0392417" lon="12.518165"><ele>14.0</ele><time>2026-03-22T10:47:34.559Z</time></trkpt><trkpt lat="44.039395" lon="12.5183367"><ele>14.0</ele><time>2026-03-22T10:47:35.559Z</time></trkpt><trkpt lat="44.0395383" lon="12.5185033"><ele>14.0</ele><time>2026-03-22T10:47:36.559Z</time></trkpt><trkpt lat="44.0396767" lon="12.5186817"><ele>14.0</ele><time>2026-03-22T10:47:37.558Z</time></trkpt><trkpt lat="44.03981" lon="12.5188567"><ele>14.0</ele><time>2026-03-22T10:47:38.559Z</time></trkpt><trkpt lat="44.03993" lon="12.5190433"><ele>14.0</ele><time>2026-03-22T10:47:39.559Z</time></trkpt><trkpt lat="44.0400483" lon="12.519235"><ele>14.0</ele><time>2026-03-22T10:47:40.559Z</time></trkpt><trkpt lat="44.04017" lon="12.51944"><ele>13.333333333333334</ele><time>2026-03-22T10:47:41.558Z</time></trkpt><trkpt lat="44.04029" lon="12.5196583"><ele>12.666666666666668</ele><time>2026-03-22T10:47:42.558Z</time></trkpt><trkpt lat="44.0404083" lon="12.51989"><ele>12.0</ele><time>2026-03-22T10:47:43.558Z</time></trkpt><trkpt lat="44.0405283" lon="12.52013"><ele>12.0</ele><time>2026-03-22T10:47:44.559Z</time></trkpt><trkpt lat="44.040645" lon="12.5203783"><ele>12.0</ele><time>2026-03-22T10:47:45.559Z</time></trkpt><trkpt lat="44.0407617" lon="12.52062"><ele>12.0</ele><time>2026-03-22T10:47:46.559Z</time></trkpt><trkpt lat="44.040875" lon="12.5208617"><ele>12.333333333333332</ele><time>2026-03-22T10:47:47.558Z</time></trkpt><trkpt lat="44.0409917" lon="12.5210967"><ele>12.666666666666666</ele><time>2026-03-22T10:47:48.559Z</time></trkpt><trkpt lat="44.0411133" lon="12.5213233"><ele>13.0</ele><time>2026-03-22T10:47:49.559Z</time></trkpt><trkpt lat="44.0412283" lon="12.5215333"><ele>13.333333333333332</ele><time>2026-03-22T10:47:50.559Z</time></trkpt><trkpt lat="44.0413467" lon="12.5217467"><ele>13.666666666666668</ele><time>2026-03-22T10:47:51.558Z</time></trkpt><trkpt lat="44.04147" lon="12.5219683"><ele>14.0</ele><time>2026-03-22T10:47:52.558Z</time></trkpt><trkpt lat="44.041585" lon="12.52218"><ele>13.666666666666668</ele><time>2026-03-22T10:47:53.559Z</time></trkpt><trkpt lat="44.0416933" lon="12.52238"><ele>13.333333333333332</ele><time>2026-03-22T10:47:54.558Z</time></trkpt><trkpt lat="44.0417983" lon="12.52257"><ele>13.0</ele><time>2026-03-22T10:47:55.559Z</time></trkpt><trkpt lat="44.0418933" lon="12.522745"><ele>12.75</ele><time>2026-03-22T10:47:56.558Z</time></trkpt><trkpt lat="44.0419667" lon="12.5229117"><ele>12.5</ele><time>2026-03-22T10:47:57.559Z</time></trkpt><trkpt lat="44.0420067" lon="12.523105"><ele>12.25</ele><time>2026-03-22T10:47:58.559Z</time></trkpt><trkpt lat="44.0420133" lon="12.5233233"><ele>12.0</ele><time>2026-03-22T10:47:59.559Z</time></trkpt><trkpt lat="44.04201" lon="12.52354"><ele>13.666666666666668</ele><time>2026-03-22T10:48:00.559Z</time></trkpt><trkpt lat="44.041985" lon="12.5237583"><ele>15.333333333333334</ele><time>2026-03-22T10:48:01.559Z</time></trkpt><trkpt lat="44.04194" lon="12.5239783"><ele>17.0</ele><time>2026-03-22T10:48:02.558Z</time></trkpt><trkpt lat="44.0418733" lon="12.5241983"><ele>17.0</ele><time>2026-03-22T10:48:03.558Z</time></trkpt><trkpt lat="44.0417867" lon="12.5244233"><ele>17.0</ele><time>2026-03-22T10:48:04.559Z</time></trkpt><trkpt lat="44.04169" lon="12.52464"><ele>17.0</ele><time>2026-03-22T10:48:05.559Z</time></trkpt><trkpt lat="44.0416083" lon="12.5248383"><ele>17.333333333333336</ele><time>2026-03-22T10:48:06.559Z</time></trkpt><trkpt lat="44.0415317" lon="12.5250317"><ele>17.666666666666668</ele><time>2026-03-22T10:48:07.559Z</time></trkpt><trkpt lat="44.0414767" lon="12.5252267"><ele>18.0</ele><time>2026-03-22T10:48:08.558Z</time></trkpt><trkpt lat="44.0414517" lon="12.52545"><ele>19.0</ele><time>2026-03-22T10:48:09.559Z</time></trkpt><trkpt lat="44.0414667" lon="12.5256983"><ele>20.0</ele><time>2026-03-22T10:48:10.559Z</time></trkpt><trkpt lat="44.0414983" lon="12.5259617"><ele>21.0</ele><time>2026-03-22T10:48:11.558Z</time></trkpt><trkpt lat="44.0415333" lon="12.526235"><ele>21.666666666666668</ele><time>2026-03-22T10:48:12.558Z</time></trkpt><trkpt lat="44.0415633" lon="12.5264967"><ele>22.333333333333336</ele><time>2026-03-22T10:48:13.559Z</time></trkpt><trkpt lat="44.0416083" lon="12.5267333"><ele>23.0</ele><time>2026-03-22T10:48:14.558Z</time></trkpt><trkpt lat="44.0416517" lon="12.5269633"><ele>20.333333333333336</ele><time>2026-03-22T10:48:15.559Z</time></trkpt><trkpt lat="44.0417033" lon="12.5271783"><ele>17.666666666666668</ele><time>2026-03-22T10:48:16.559Z</time></trkpt><trkpt lat="44.0417617" lon="12.5273817"><ele>15.0</ele><time>2026-03-22T10:48:17.559Z</time></trkpt><trkpt lat="44.041825" lon="12.527585"><ele>15.0</ele><time>2026-03-22T10:48:18.559Z</time></trkpt><trkpt lat="44.041885" lon="12.5277883"><ele>15.0</ele><time>2026-03-22T10:48:19.559Z</time></trkpt><trkpt lat="44.0419617" lon="12.5279617"><ele>15.0</ele><time>2026-03-22T10:48:20.558Z</time></trkpt><trkpt lat="44.042045" lon="12.52811"><ele>15.0</ele><time>2026-03-22T10:48:21.559Z</time></trkpt><trkpt lat="44.042135" lon="12.52825"><ele>16.25</ele><time>2026-03-22T10:48:22.558Z</time></trkpt><trkpt lat="44.0422217" lon="12.5283967"><ele>17.5</ele><time>2026-03-22T10:48:23.558Z</time></trkpt><trkpt lat="44.042305" lon="12.5285383"><ele>18.75</ele><time>2026-03-22T10:48:24.559Z</time></trkpt><trkpt lat="44.0423833" lon="12.5286767"><ele>20.0</ele><time>2026-03-22T10:48:25.559Z</time></trkpt><trkpt lat="44.0424617" lon="12.528805"><ele>19.8</ele><time>2026-03-22T10:48:26.559Z</time></trkpt><trkpt lat="44.0425333" lon="12.528925"><ele>19.6</ele><time>2026-03-22T10:48:27.559Z</time></trkpt><trkpt lat="44.0425967" lon="12.5290283"><ele>19.4</ele><time>2026-03-22T10:48:28.559Z</time></trkpt><trkpt lat="44.0426533" lon="12.52912"><ele>19.2</ele><time>2026-03-22T10:48:29.559Z</time></trkpt><trkpt lat="44.042705" lon="12.52923"><ele>19.0</ele><time>2026-03-22T10:48:30.559Z</time></trkpt><trkpt lat="44.0427533" lon="12.529345"><ele>19.0</ele><time>2026-03-22T10:48:31.558Z</time></trkpt><trkpt lat="44.0427833" lon="12.5294767"><ele>19.0</ele><time>2026-03-22T10:48:32.559Z</time></trkpt><trkpt lat="44.042805" lon="12.5296133"><ele>19.0</ele><time>2026-03-22T10:48:33.559Z</time></trkpt><trkpt lat="44.042825" lon="12.5297533"><ele>19.0</ele><time>2026-03-22T10:48:34.559Z</time></trkpt><trkpt lat="44.0428233" lon="12.5299067"><ele>19.0</ele><time>2026-03-22T10:48:35.558Z</time></trkpt><trkpt lat="44.0427983" lon="12.5300667"><ele>18.75</ele><time>2026-03-22T10:48:36.559Z</time></trkpt><trkpt lat="44.0427583" lon="12.53023"><ele>18.5</ele><time>2026-03-22T10:48:37.558Z</time></trkpt><trkpt lat="44.0427033" lon="12.5303967"><ele>18.25</ele><time>2026-03-22T10:48:38.559Z</time></trkpt><trkpt lat="44.0426383" lon="12.530575"><ele>18.0</ele><time>2026-03-22T10:48:39.559Z</time></trkpt><trkpt lat="44.0425767" lon="12.5307583"><ele>18.0</ele><time>2026-03-22T10:48:40.559Z</time></trkpt><trkpt lat="44.0425117" lon="12.5309417"><ele>18.0</ele><time>2026-03-22T10:48:41.558Z</time></trkpt><trkpt lat="44.0424467" lon="12.5311433"><ele>18.0</ele><time>2026-03-22T10:48:42.559Z</time></trkpt><trkpt lat="44.0423717" lon="12.5313767"><ele>18.0</ele><time>2026-03-22T10:48:43.559Z</time></trkpt><trkpt lat="44.0422767" lon="12.531635"><ele>18.0</ele><time>2026-03-22T10:48:44.558Z</time></trkpt><trkpt lat="44.042175" lon="12.53192"><ele>18.0</ele><time>2026-03-22T10:48:45.559Z</time></trkpt><trkpt lat="44.0420783" lon="12.5322067"><ele>17.0</ele><time>2026-03-22T10:48:46.558Z</time></trkpt><trkpt lat="44.0419733" lon="12.53251"><ele>16.0</ele><time>2026-03-22T10:48:47.559Z</time></trkpt><trkpt lat="44.0418667" lon="12.5328017"><ele>15.0</ele><time>2026-03-22T10:48:48.558Z</time></trkpt><trkpt lat="44.04177" lon="12.5330733"><ele>14.0</ele><time>2026-03-22T10:48:49.559Z</time></trkpt><trkpt lat="44.04168" lon="12.5333333"><ele>13.0</ele><time>2026-03-22T10:48:50.559Z</time></trkpt><trkpt lat="44.041595" lon="12.533585"><ele>15.0</ele><time>2026-03-22T10:48:51.559Z</time></trkpt><trkpt lat="44.041515" lon="12.5338233"><ele>17.0</ele><time>2026-03-22T10:48:52.559Z</time></trkpt><trkpt lat="44.0414617" lon="12.5340483"><ele>19.0</ele><time>2026-03-22T10:48:53.559Z</time></trkpt><trkpt lat="44.0414333" lon="12.5342683"><ele>19.0</ele><time>2026-03-22T10:48:54.559Z</time></trkpt><trkpt lat="44.0414583" lon="12.5344817"><ele>19.0</ele><time>2026-03-22T10:48:55.559Z</time></trkpt><trkpt lat="44.041505" lon="12.53469"><ele>19.0</ele><time>2026-03-22T10:48:56.559Z</time></trkpt><trkpt lat="44.0416017" lon="12.534875"><ele>17.333333333333332</ele><time>2026-03-22T10:48:57.558Z</time></trkpt><trkpt lat="44.0417167" lon="12.5350583"><ele>15.666666666666668</ele><time>2026-03-22T10:48:58.558Z</time></trkpt><trkpt lat="44.04184" lon="12.5352333"><ele>14.0</ele><time>2026-03-22T10:48:59.559Z</time></trkpt><trkpt lat="44.0419683" lon="12.53542"><ele>13.666666666666668</ele><time>2026-03-22T10:49:00.558Z</time></trkpt><trkpt lat="44.042115" lon="12.5356067"><ele>13.333333333333332</ele><time>2026-03-22T10:49:01.559Z</time></trkpt><trkpt lat="44.0422867" lon="12.5357933"><ele>13.0</ele><time>2026-03-22T10:49:02.558Z</time></trkpt><trkpt lat="44.0424667" lon="12.5359883"><ele>13.0</ele><time>2026-03-22T10:49:03.558Z</time></trkpt><trkpt lat="44.0426567" lon="12.5361917"><ele>13.0</ele><time>2026-03-22T10:49:04.559Z</time></trkpt><trkpt lat="44.0428383" lon="12.5363917"><ele>13.0</ele><time>2026-03-22T10:49:05.559Z</time></trkpt><trkpt lat="44.0430017" lon="12.5365833"><ele>13.0</ele><time>2026-03-22T10:49:06.558Z</time></trkpt><trkpt lat="44.0431633" lon="12.53676"><ele>13.0</ele><time>2026-03-22T10:49:07.559Z</time></trkpt><trkpt lat="44.0433133" lon="12.536925"><ele>13.333333333333332</ele><time>2026-03-22T10:49:08.558Z</time></trkpt><trkpt lat="44.0434767" lon="12.5370517"><ele>13.666666666666668</ele><time>2026-03-22T10:49:09.559Z</time></trkpt><trkpt lat="44.0436517" lon="12.5371333"><ele>14.0</ele><time>2026-03-22T10:49:10.558Z</time></trkpt><trkpt lat="44.04382" lon="12.5371767"><ele>16.5</ele><time>2026-03-22T10:49:11.558Z</time></trkpt><trkpt lat="44.043965" lon="12.5371933"><ele>19.0</ele><time>2026-03-22T10:49:12.559Z</time></trkpt><trkpt lat="44.0440783" lon="12.5372067"><ele>21.5</ele><time>2026-03-22T10:49:13.558Z</time></trkpt><trkpt lat="44.0441633" lon="12.5372717"><ele>24.0</ele><time>2026-03-22T10:49:14.559Z</time></trkpt><trkpt lat="44.0442233" lon="12.5373967"><ele>24.0</ele><time>2026-03-22T10:49:15.558Z</time></trkpt><trkpt lat="44.0442533" lon="12.5375717"><ele>24.0</ele><time>2026-03-22T10:49:16.559Z</time></trkpt><trkpt lat="44.0442733" lon="12.5377867"><ele>24.0</ele><time>2026-03-22T10:49:17.559Z</time></trkpt><trkpt lat="44.0443117" lon="12.5380067"><ele>24.0</ele><time>2026-03-22T10:49:18.559Z</time></trkpt><trkpt lat="44.044395" lon="12.538205"><ele>24.5</ele><time>2026-03-22T10:49:19.559Z</time></trkpt><trkpt lat="44.044495" lon="12.538375"><ele>25.0</ele><time>2026-03-22T10:49:20.559Z</time></trkpt><trkpt lat="44.0445867" lon="12.5385117"><ele>25.5</ele><time>2026-03-22T10:49:21.558Z</time></trkpt><trkpt lat="44.04466" lon="12.53864"><ele>26.0</ele><time>2026-03-22T10:49:22.559Z</time></trkpt><trkpt lat="44.0446917" lon="12.53878"><ele>24.5</ele><time>2026-03-22T10:49:23.558Z</time></trkpt><trkpt lat="44.0446833" lon="12.53893"><ele>23.0</ele><time>2026-03-22T10:49:24.558Z</time></trkpt><trkpt lat="44.0446133" lon="12.539085"><ele>21.5</ele><time>2026-03-22T10:49:25.559Z</time></trkpt><trkpt lat="44.0444917" lon="12.5392167"><ele>20.0</ele><time>2026-03-22T10:49:26.559Z</time></trkpt><trkpt lat="44.04437" lon="12.5393533"><ele>20.0</ele><time>2026-03-22T10:49:27.558Z</time></trkpt><trkpt lat="44.0442767" lon="12.53952"><ele>20.0</ele><time>2026-03-22T10:49:28.558Z</time></trkpt><trkpt lat="44.0442317" lon="12.539725"><ele>20.0</ele><time>2026-03-22T10:49:29.559Z</time></trkpt><trkpt lat="44.04421" lon="12.5399667"><ele>17.0</ele><time>2026-03-22T10:49:30.558Z</time></trkpt><trkpt lat="44.0442217" lon="12.5402433"><ele>14.0</ele><time>2026-03-22T10:49:31.559Z</time></trkpt><trkpt lat="44.04424" lon="12.5405333"><ele>11.0</ele><time>2026-03-22T10:49:32.559Z</time></trkpt><trkpt lat="44.04426" lon="12.5408233"><ele>11.0</ele><time>2026-03-22T10:49:33.558Z</time></trkpt><trkpt lat="44.0442833" lon="12.5411033"><ele>11.0</ele><time>2026-03-22T10:49:34.558Z</time></trkpt><trkpt lat="44.0443183" lon="12.541365"><ele>11.0</ele><time>2026-03-22T10:49:35.559Z</time></trkpt><trkpt lat="44.0443517" lon="12.5416167"><ele>11.0</ele><time>2026-03-22T10:49:36.559Z</time></trkpt><trkpt lat="44.0443817" lon="12.54185"><ele>11.0</ele><time>2026-03-22T10:49:37.558Z</time></trkpt><trkpt lat="44.04439" lon="12.5420767"><ele>11.0</ele><time>2026-03-22T10:49:38.559Z</time></trkpt><trkpt lat="44.0443783" lon="12.5423033"><ele>11.0</ele><time>2026-03-22T10:49:39.559Z</time></trkpt><trkpt lat="44.0443417" lon="12.5425317"><ele>11.0</ele><time>2026-03-22T10:49:40.559Z</time></trkpt><trkpt lat="44.0442717" lon="12.5427433"><ele>11.0</ele><time>2026-03-22T10:49:41.558Z</time></trkpt><trkpt lat="44.044165" lon="12.5429517"><ele>13.0</ele><time>2026-03-22T10:49:42.559Z</time></trkpt><trkpt lat="44.0440417" lon="12.543175"><ele>15.0</ele><time>2026-03-22T10:49:43.559Z</time></trkpt><trkpt lat="44.0439167" lon="12.5434217"><ele>17.0</ele><time>2026-03-22T10:49:44.559Z</time></trkpt><trkpt lat="44.043805" lon="12.5436867"><ele>14.0</ele><time>2026-03-22T10:49:45.559Z</time></trkpt><trkpt lat="44.043695" lon="12.5439667"><ele>11.0</ele><time>2026-03-22T10:49:46.558Z</time></trkpt><trkpt lat="44.0435833" lon="12.54427"><ele>10.333333333333332</ele><time>2026-03-22T10:49:47.559Z</time></trkpt><trkpt lat="44.0434817" lon="12.54456"><ele>9.666666666666666</ele><time>2026-03-22T10:49:48.559Z</time></trkpt><trkpt lat="44.0433867" lon="12.544825"><ele>9.0</ele><time>2026-03-22T10:49:49.558Z</time></trkpt><trkpt lat="44.0433017" lon="12.545065"><ele>10.666666666666668</ele><time>2026-03-22T10:49:50.558Z</time></trkpt><trkpt lat="44.04324" lon="12.5452783"><ele>12.333333333333334</ele><time>2026-03-22T10:49:51.558Z</time></trkpt><trkpt lat="44.0432017" lon="12.54548"><ele>14.0</ele><time>2026-03-22T10:49:52.559Z</time></trkpt><trkpt lat="44.043215" lon="12.5456867"><ele>15.0</ele><time>2026-03-22T10:49:53.558Z</time></trkpt><trkpt lat="44.0432717" lon="12.54589"><ele>16.0</ele><time>2026-03-22T10:49:54.559Z</time></trkpt><trkpt lat="44.0433667" lon="12.5460767"><ele>17.0</ele><time>2026-03-22T10:49:55.558Z</time></trkpt><trkpt lat="44.0434733" lon="12.54623"><ele>18.333333333333336</ele><time>2026-03-22T10:49:56.559Z</time></trkpt><trkpt lat="44.043565" lon="12.54639"><ele>19.666666666666668</ele><time>2026-03-22T10:49:57.559Z</time></trkpt><trkpt lat="44.0436383" lon="12.54659"><ele>21.0</ele><time>2026-03-22T10:49:58.558Z</time></trkpt><trkpt lat="44.0436967" lon="12.5468233"><ele>20.333333333333332</ele><time>2026-03-22T10:49:59.558Z</time></trkpt><trkpt lat="44.0437483" lon="12.5470983"><ele>19.666666666666664</ele><time>2026-03-22T10:50:00.559Z</time></trkpt><trkpt lat="44.0437917" lon="12.547405"><ele>19.0</ele><time>2026-03-22T10:50:01.559Z</time></trkpt><trkpt lat="44.0438283" lon="12.5477233"><ele>18.666666666666664</ele><time>2026-03-22T10:50:02.558Z</time></trkpt><trkpt lat="44.04385" lon="12.5480217"><ele>18.333333333333332</ele><time>2026-03-22T10:50:03.558Z</time></trkpt><trkpt lat="44.0438767" lon="12.5483017"><ele>18.0</ele><time>2026-03-22T10:50:04.559Z</time></trkpt><trkpt lat="44.0439" lon="12.54857"><ele>17.333333333333332</ele><time>2026-03-22T10:50:05.559Z</time></trkpt><trkpt lat="44.0439567" lon="12.5488333"><ele>16.666666666666664</ele><time>2026-03-22T10:50:06.559Z</time></trkpt><trkpt lat="44.0440433" lon="12.5490967"><ele>16.0</ele><time>2026-03-22T10:50:07.559Z</time></trkpt><trkpt lat="44.0441383" lon="12.5493367"><ele>17.333333333333332</ele><time>2026-03-22T10:50:08.559Z</time></trkpt><trkpt lat="44.0442333" lon="12.5495483"><ele>18.666666666666668</ele><time>2026-03-22T10:50:09.559Z</time></trkpt><trkpt lat="44.0443383" lon="12.5497483"><ele>20.0</ele><time>2026-03-22T10:50:10.559Z</time></trkpt><trkpt lat="44.0444733" lon="12.5499083"><ele>20.0</ele><time>2026-03-22T10:50:11.558Z</time></trkpt><trkpt lat="44.0446" lon="12.55003"><ele>20.0</ele><time>2026-03-22T10:50:12.558Z</time></trkpt><trkpt lat="44.044715" lon="12.5501367"><ele>20.0</ele><time>2026-03-22T10:50:13.558Z</time></trkpt><trkpt lat="44.0447933" lon="12.5502517"><ele>20.0</ele><time>2026-03-22T10:50:14.558Z</time></trkpt><trkpt lat="44.0448383" lon="12.5503783"><ele>20.833333333333336</ele><time>2026-03-22T10:50:15.559Z</time></trkpt><trkpt lat="44.0448517" lon="12.5504983"><ele>21.666666666666668</ele><time>2026-03-22T10:50:16.559Z</time></trkpt><trkpt lat="44.0448317" lon="12.550625"><ele>22.5</ele><time>2026-03-22T10:50:17.559Z</time></trkpt><trkpt lat="44.0447933" lon="12.5507367"><ele>23.333333333333336</ele><time>2026-03-22T10:50:18.559Z</time></trkpt><trkpt lat="44.0447633" lon="12.550845"><ele>24.166666666666668</ele><time>2026-03-22T10:50:19.559Z</time></trkpt><trkpt lat="44.0447683" lon="12.550955"><ele>25.0</ele><time>2026-03-22T10:50:20.559Z</time></trkpt><trkpt lat="44.04481" lon="12.5510667"><ele>25.0</ele><time>2026-03-22T10:50:21.558Z</time></trkpt><trkpt lat="44.04488" lon="12.5511733"><ele>25.0</ele><time>2026-03-22T10:50:22.558Z</time></trkpt><trkpt lat="44.0449617" lon="12.5513033"><ele>25.0</ele><time>2026-03-22T10:50:23.559Z</time></trkpt><trkpt lat="44.0450433" lon="12.551445"><ele>25.0</ele><time>2026-03-22T10:50:24.559Z</time></trkpt><trkpt lat="44.04512" lon="12.5515617"><ele>23.4</ele><time>2026-03-22T10:50:25.559Z</time></trkpt><trkpt lat="44.0452083" lon="12.5516583"><ele>21.8</ele><time>2026-03-22T10:50:26.559Z</time></trkpt><trkpt lat="44.0452983" lon="12.55175"><ele>20.2</ele><time>2026-03-22T10:50:27.559Z</time></trkpt><trkpt lat="44.0453917" lon="12.5518417"><ele>18.6</ele><time>2026-03-22T10:50:28.559Z</time></trkpt><trkpt lat="44.0454567" lon="12.5519117"><ele>17.0</ele><time>2026-03-22T10:50:29.558Z</time></trkpt><trkpt lat="44.0455433" lon="12.551985"><ele>16.166666666666668</ele><time>2026-03-22T10:50:31.559Z</time></trkpt><trkpt lat="44.04562" lon="12.5520633"><ele>15.333333333333334</ele><time>2026-03-22T10:50:33.559Z</time></trkpt><trkpt lat="44.045675" lon="12.5521283"><ele>14.5</ele><time>2026-03-22T10:50:34.559Z</time></trkpt><trkpt lat="44.0457267" lon="12.5522017"><ele>13.666666666666668</ele><time>2026-03-22T10:50:35.559Z</time></trkpt><trkpt lat="44.04578" lon="12.5522717"><ele>12.833333333333334</ele><time>2026-03-22T10:50:36.559Z</time></trkpt><trkpt lat="44.04583" lon="12.5523383"><ele>12.0</ele><time>2026-03-22T10:50:37.559Z</time></trkpt><trkpt lat="44.04588" lon="12.5524067"><ele>12.0</ele><time>2026-03-22T10:50:38.559Z</time></trkpt><trkpt lat="44.0459267" lon="12.552495"><ele>12.0</ele><time>2026-03-22T10:50:39.559Z</time></trkpt><trkpt lat="44.04596" lon="12.55258"><ele>12.0</ele><time>2026-03-22T10:50:40.559Z</time></trkpt><trkpt lat="44.0459967" lon="12.5526717"><ele>12.0</ele><time>2026-03-22T10:50:42.558Z</time></trkpt><trkpt lat="44.046005" lon="12.552795"><ele>12.0</ele><time>2026-03-22T10:50:44.559Z</time></trkpt><trkpt lat="44.04601" lon="12.55291"><ele>12.0</ele><time>2026-03-22T10:50:45.558Z</time></trkpt><trkpt lat="44.0460067" lon="12.5530433"><ele>11.25</ele><time>2026-03-22T10:50:46.558Z</time></trkpt><trkpt lat="44.046" lon="12.5531933"><ele>10.5</ele><time>2026-03-22T10:50:47.558Z</time></trkpt><trkpt lat="44.045965" lon="12.55336"><ele>9.75</ele><time>2026-03-22T10:50:48.559Z</time></trkpt><trkpt lat="44.0458967" lon="12.5535517"><ele>9.0</ele><time>2026-03-22T10:50:49.559Z</time></trkpt><trkpt lat="44.0458083" lon="12.553765"><ele>9.666666666666666</ele><time>2026-03-22T10:50:50.559Z</time></trkpt><trkpt lat="44.04571" lon="12.5540117"><ele>10.333333333333332</ele><time>2026-03-22T10:50:51.559Z</time></trkpt><trkpt lat="44.045615" lon="12.5542767"><ele>11.0</ele><time>2026-03-22T10:50:52.559Z</time></trkpt><trkpt lat="44.0455267" lon="12.5545633"><ele>11.0</ele><time>2026-03-22T10:50:53.559Z</time></trkpt><trkpt lat="44.0454383" lon="12.5548617"><ele>11.0</ele><time>2026-03-22T10:50:54.559Z</time></trkpt><trkpt lat="44.0453483" lon="12.5551683"><ele>10.5</ele><time>2026-03-22T10:50:55.559Z</time></trkpt><trkpt lat="44.0452617" lon="12.555485"><ele>10.0</ele><time>2026-03-22T10:50:56.559Z</time></trkpt><trkpt lat="44.0451733" lon="12.5558133"><ele>10.0</ele><time>2026-03-22T10:50:57.558Z</time></trkpt><trkpt lat="44.045085" lon="12.55615"><ele>10.0</ele><time>2026-03-22T10:50:58.559Z</time></trkpt><trkpt lat="44.0449983" lon="12.5564917"><ele>9.5</ele><time>2026-03-22T10:50:59.559Z</time></trkpt><trkpt lat="44.0449033" lon="12.5568383"><ele>9.0</ele><time>2026-03-22T10:51:00.558Z</time></trkpt><trkpt lat="44.044815" lon="12.5571683"><ele>10.0</ele><time>2026-03-22T10:51:01.558Z</time></trkpt><trkpt lat="44.0447383" lon="12.55748"><ele>11.0</ele><time>2026-03-22T10:51:02.559Z</time></trkpt><trkpt lat="44.0446583" lon="12.557775"><ele>11.0</ele><time>2026-03-22T10:51:03.559Z</time></trkpt><trkpt lat="44.044585" lon="12.5580467"><ele>11.0</ele><time>2026-03-22T10:51:04.559Z</time></trkpt><trkpt lat="44.0445183" lon="12.5583117"><ele>11.0</ele><time>2026-03-22T10:51:05.559Z</time></trkpt><trkpt lat="44.044455" lon="12.5585667"><ele>10.75</ele><time>2026-03-22T10:51:06.559Z</time></trkpt><trkpt lat="44.0443933" lon="12.5587917"><ele>10.5</ele><time>2026-03-22T10:51:07.559Z</time></trkpt><trkpt lat="44.0443417" lon="12.5589817"><ele>10.25</ele><time>2026-03-22T10:51:08.559Z</time></trkpt><trkpt lat="44.0443017" lon="12.559135"><ele>10.0</ele><time>2026-03-22T10:51:09.559Z</time></trkpt><trkpt lat="44.0442667" lon="12.559245"><ele>10.0</ele><time>2026-03-22T10:51:10.558Z</time></trkpt><trkpt lat="44.04422" lon="12.5593467"><ele>10.0</ele><time>2026-03-22T10:51:12.559Z</time></trkpt><trkpt lat="44.044175" lon="12.55942"><ele>10.0</ele><time>2026-03-22T10:51:15.559Z</time></trkpt><trkpt lat="44.044065" lon="12.5594717"><ele>10.0</ele><time>2026-03-22T10:51:17.559Z</time></trkpt><trkpt lat="44.0439817" lon="12.55951"><ele>10.0</ele><time>2026-03-22T10:51:18.558Z</time></trkpt><trkpt lat="44.0439117" lon="12.5595733"><ele>10.0</ele><time>2026-03-22T10:51:19.559Z</time></trkpt><trkpt lat="44.0438667" lon="12.5596717"><ele>10.333333333333334</ele><time>2026-03-22T10:51:20.559Z</time></trkpt><trkpt lat="44.0438567" lon="12.559795"><ele>10.666666666666668</ele><time>2026-03-22T10:51:21.558Z</time></trkpt><trkpt lat="44.0438883" lon="12.55992"><ele>11.0</ele><time>2026-03-22T10:51:22.558Z</time></trkpt><trkpt lat="44.0439433" lon="12.5600233"><ele>11.333333333333334</ele><time>2026-03-22T10:51:23.558Z</time></trkpt><trkpt lat="44.0440167" lon="12.560095"><ele>11.666666666666666</ele><time>2026-03-22T10:51:24.558Z</time></trkpt><trkpt lat="44.044095" lon="12.56012"><ele>12.0</ele><time>2026-03-22T10:51:25.559Z</time></trkpt><trkpt lat="44.0441633" lon="12.5601217"><ele>12.0</ele><time>2026-03-22T10:51:26.559Z</time></trkpt><trkpt lat="44.0442317" lon="12.5601217"><ele>12.0</ele><time>2026-03-22T10:51:27.559Z</time></trkpt><trkpt lat="44.0443117" lon="12.560135"><ele>12.0</ele><time>2026-03-22T10:51:28.559Z</time></trkpt><trkpt lat="44.0443967" lon="12.5601917"><ele>12.0</ele><time>2026-03-22T10:51:29.559Z</time></trkpt><trkpt lat="44.0444833" lon="12.56029"><ele>12.0</ele><time>2026-03-22T10:51:30.559Z</time></trkpt><trkpt lat="44.0445717" lon="12.5604117"><ele>12.0</ele><time>2026-03-22T10:51:31.558Z</time></trkpt><trkpt lat="44.04465" lon="12.5605283"><ele>12.0</ele><time>2026-03-22T10:51:32.559Z</time></trkpt><trkpt lat="44.0447283" lon="12.56063"><ele>12.0</ele><time>2026-03-22T10:51:33.558Z</time></trkpt><trkpt lat="44.0448017" lon="12.5607233"><ele>12.0</ele><time>2026-03-22T10:51:34.559Z</time></trkpt><trkpt lat="44.04487" lon="12.5608033"><ele>12.0</ele><time>2026-03-22T10:51:35.559Z</time></trkpt><trkpt lat="44.0449217" lon="12.5608717"><ele>12.0</ele><time>2026-03-22T10:51:36.559Z</time></trkpt><trkpt lat="44.0449667" lon="12.5610033"><ele>12.0</ele><time>2026-03-22T10:51:38.558Z</time></trkpt><trkpt lat="44.04486" lon="12.5611933"><ele>12.0</ele><time>2026-03-22T10:51:40.559Z</time></trkpt><trkpt lat="44.0447617" lon="12.56133"><ele>12.0</ele><time>2026-03-22T10:51:41.558Z</time></trkpt><trkpt lat="44.0446433" lon="12.5614767"><ele>11.75</ele><time>2026-03-22T10:51:42.559Z</time></trkpt><trkpt lat="44.04453" lon="12.5616117"><ele>11.5</ele><time>2026-03-22T10:51:43.558Z</time></trkpt><trkpt lat="44.0444383" lon="12.5617533"><ele>11.25</ele><time>2026-03-22T10:51:44.559Z</time></trkpt><trkpt lat="44.044355" lon="12.5618983"><ele>11.0</ele><time>2026-03-22T10:51:45.559Z</time></trkpt><trkpt lat="44.0442567" lon="12.5620333"><ele>10.75</ele><time>2026-03-22T10:51:46.559Z</time></trkpt><trkpt lat="44.0441683" lon="12.5621867"><ele>10.5</ele><time>2026-03-22T10:51:47.559Z</time></trkpt><trkpt lat="44.04406" lon="12.5623267"><ele>10.25</ele><time>2026-03-22T10:51:48.559Z</time></trkpt><trkpt lat="44.0439567" lon="12.5624733"><ele>10.0</ele><time>2026-03-22T10:51:49.559Z</time></trkpt><trkpt lat="44.0438633" lon="12.5626117"><ele>10.0</ele><time>2026-03-22T10:51:50.558Z</time></trkpt><trkpt lat="44.0437783" lon="12.56274"><ele>10.0</ele><time>2026-03-22T10:51:51.559Z</time></trkpt><trkpt lat="44.0437117" lon="12.5628367"><ele>10.0</ele><time>2026-03-22T10:51:52.559Z</time></trkpt><trkpt lat="44.04367" lon="12.5629167"><ele>10.0</ele><time>2026-03-22T10:51:53.558Z</time></trkpt><trkpt lat="44.0436733" lon="12.5630467"><ele>10.0</ele><time>2026-03-22T10:51:55.559Z</time></trkpt><trkpt lat="44.043735" lon="12.5631217"><ele>10.0</ele><time>2026-03-22T10:51:56.558Z</time></trkpt><trkpt lat="44.0438083" lon="12.563205"><ele>10.0</ele><time>2026-03-22T10:51:57.559Z</time></trkpt><trkpt lat="44.0438683" lon="12.56327"><ele>10.0</ele><time>2026-03-22T10:51:58.559Z</time></trkpt><trkpt lat="44.043925" lon="12.56339"><ele>10.0</ele><time>2026-03-22T10:52:00.559Z</time></trkpt><trkpt lat="44.0438683" lon="12.5635467"><ele>10.0</ele><time>2026-03-22T10:52:02.559Z</time></trkpt><trkpt lat="44.04384" lon="12.5636383"><ele>9.8</ele><time>2026-03-22T10:52:03.558Z</time></trkpt><trkpt lat="44.04384" lon="12.5637417"><ele>9.6</ele><time>2026-03-22T10:52:04.559Z</time></trkpt><trkpt lat="44.04387" lon="12.563845"><ele>9.4</ele><time>2026-03-22T10:52:05.559Z</time></trkpt><trkpt lat="44.043955" lon="12.563975"><ele>9.2</ele><time>2026-03-22T10:52:06.559Z</time></trkpt><trkpt lat="44.044055" lon="12.5640983"><ele>9.0</ele><time>2026-03-22T10:52:07.559Z</time></trkpt><trkpt lat="44.044155" lon="12.5642183"><ele>9.0</ele><time>2026-03-22T10:52:08.56Z</time></trkpt><trkpt lat="44.0442483" lon="12.5643567"><ele>9.0</ele><time>2026-03-22T10:52:09.56Z</time></trkpt><trkpt lat="44.0443433" lon="12.5644933"><ele>9.0</ele><time>2026-03-22T10:52:10.56Z</time></trkpt><trkpt lat="44.0444467" lon="12.5646217"><ele>9.0</ele><time>2026-03-22T10:52:11.56Z</time></trkpt><trkpt lat="44.0445467" lon="12.5647583"><ele>9.0</ele><time>2026-03-22T10:52:12.56Z</time></trkpt><trkpt lat="44.0446517" lon="12.5649133"><ele>9.0</ele><time>2026-03-22T10:52:13.56Z</time></trkpt><trkpt lat="44.0447633" lon="12.5650717"><ele>9.0</ele><time>2026-03-22T10:52:14.559Z</time></trkpt><trkpt lat="44.0448683" lon="12.565225"><ele>9.0</ele><time>2026-03-22T10:52:15.559Z</time></trkpt><trkpt lat="44.044965" lon="12.5653533"><ele>9.0</ele><time>2026-03-22T10:52:16.559Z</time></trkpt><trkpt lat="44.0450417" lon="12.5654683"><ele>9.0</ele><time>2026-03-22T10:52:17.56Z</time></trkpt><trkpt lat="44.0451033" lon="12.5655583"><ele>9.0</ele><time>2026-03-22T10:52:18.56Z</time></trkpt><trkpt lat="44.0451517" lon="12.565625"><ele>9.0</ele><time>2026-03-22T10:52:19.56Z</time></trkpt><trkpt lat="44.04518" lon="12.5657333"><ele>8.8</ele><time>2026-03-22T10:52:21.56Z</time></trkpt><trkpt lat="44.045155" lon="12.5658233"><ele>8.600000000000001</ele><time>2026-03-22T10:52:22.559Z</time></trkpt><trkpt lat="44.0451" lon="12.5659333"><ele>8.4</ele><time>2026-03-22T10:52:23.56Z</time></trkpt><trkpt lat="44.0450217" lon="12.5660667"><ele>8.200000000000001</ele><time>2026-03-22T10:52:24.56Z</time></trkpt><trkpt lat="44.044915" lon="12.5662217"><ele>8.0</ele><time>2026-03-22T10:52:25.559Z</time></trkpt><trkpt lat="44.0448" lon="12.56639"><ele>7.666666666666666</ele><time>2026-03-22T10:52:26.56Z</time></trkpt><trkpt lat="44.04467" lon="12.5665733"><ele>7.333333333333334</ele><time>2026-03-22T10:52:27.56Z</time></trkpt><trkpt lat="44.044555" lon="12.5667433"><ele>7.0</ele><time>2026-03-22T10:52:28.56Z</time></trkpt><trkpt lat="44.0444533" lon="12.5668883"><ele>7.0</ele><time>2026-03-22T10:52:29.56Z</time></trkpt><trkpt lat="44.044375" lon="12.5670067"><ele>7.0</ele><time>2026-03-22T10:52:30.56Z</time></trkpt><trkpt lat="44.0443033" lon="12.5671233"><ele>7.0</ele><time>2026-03-22T10:52:31.56Z</time></trkpt><trkpt lat="44.0442267" lon="12.5672367"><ele>7.0</ele><time>2026-03-22T10:52:32.559Z</time></trkpt><trkpt lat="44.044135" lon="12.56736"><ele>7.333333333333334</ele><time>2026-03-22T10:52:33.56Z</time></trkpt><trkpt lat="44.0440183" lon="12.5675117"><ele>7.666666666666666</ele><time>2026-03-22T10:52:34.559Z</time></trkpt><trkpt lat="44.0438917" lon="12.5676867"><ele>8.0</ele><time>2026-03-22T10:52:35.56Z</time></trkpt><trkpt lat="44.0437567" lon="12.56788"><ele>8.333333333333332</ele><time>2026-03-22T10:52:36.56Z</time></trkpt><trkpt lat="44.0436117" lon="12.5680883"><ele>8.666666666666666</ele><time>2026-03-22T10:52:37.56Z</time></trkpt><trkpt lat="44.0434633" lon="12.5683"><ele>9.0</ele><time>2026-03-22T10:52:38.56Z</time></trkpt><trkpt lat="44.04331" lon="12.56852"><ele>10.333333333333332</ele><time>2026-03-22T10:52:39.559Z</time></trkpt><trkpt lat="44.04317" lon="12.56874"><ele>11.666666666666666</ele><time>2026-03-22T10:52:40.559Z</time></trkpt><trkpt lat="44.0430367" lon="12.5689633"><ele>13.0</ele><time>2026-03-22T10:52:41.56Z</time></trkpt><trkpt lat="44.0429233" lon="12.5691983"><ele>13.0</ele><time>2026-03-22T10:52:42.56Z</time></trkpt><trkpt lat="44.0428283" lon="12.5694567"><ele>13.0</ele><time>2026-03-22T10:52:43.559Z</time></trkpt><trkpt lat="44.0427367" lon="12.5697367"><ele>13.0</ele><time>2026-03-22T10:52:44.559Z</time></trkpt><trkpt lat="44.04266" lon="12.5700167"><ele>13.0</ele><time>2026-03-22T10:52:45.56Z</time></trkpt><trkpt lat="44.042595" lon="12.5702983"><ele>13.0</ele><time>2026-03-22T10:52:46.56Z</time></trkpt><trkpt lat="44.0425333" lon="12.570575"><ele>13.0</ele><time>2026-03-22T10:52:47.56Z</time></trkpt><trkpt lat="44.0424783" lon="12.5708317"><ele>12.0</ele><time>2026-03-22T10:52:48.56Z</time></trkpt><trkpt lat="44.0424433" lon="12.5710933"><ele>11.0</ele><time>2026-03-22T10:52:49.559Z</time></trkpt><trkpt lat="44.042435" lon="12.5713533"><ele>10.0</ele><time>2026-03-22T10:52:50.56Z</time></trkpt><trkpt lat="44.042455" lon="12.57161"><ele>10.0</ele><time>2026-03-22T10:52:51.56Z</time></trkpt><trkpt lat="44.0424933" lon="12.571885"><ele>10.0</ele><time>2026-03-22T10:52:52.56Z</time></trkpt><trkpt lat="44.04257" lon="12.5721567"><ele>10.0</ele><time>2026-03-22T10:52:53.56Z</time></trkpt><trkpt lat="44.0426767" lon="12.572365"><ele>10.0</ele><time>2026-03-22T10:52:54.559Z</time></trkpt><trkpt lat="44.04283" lon="12.572555"><ele>10.0</ele><time>2026-03-22T10:52:55.56Z</time></trkpt><trkpt lat="44.0429833" lon="12.5727567"><ele>10.0</ele><time>2026-03-22T10:52:56.559Z</time></trkpt><trkpt lat="44.0431283" lon="12.5729617"><ele>10.0</ele><time>2026-03-22T10:52:57.56Z</time></trkpt><trkpt lat="44.043255" lon="12.573155"><ele>10.0</ele><time>2026-03-22T10:52:58.56Z</time></trkpt><trkpt lat="44.0433767" lon="12.5733317"><ele>10.0</ele><time>2026-03-22T10:52:59.559Z</time></trkpt><trkpt lat="44.0434933" lon="12.5734967"><ele>10.0</ele><time>2026-03-22T10:53:00.559Z</time></trkpt><trkpt lat="44.043605" lon="12.5736533"><ele>10.0</ele><time>2026-03-22T10:53:01.56Z</time></trkpt><trkpt lat="44.043715" lon="12.5738133"><ele>10.0</ele><time>2026-03-22T10:53:02.559Z</time></trkpt><trkpt lat="44.0438217" lon="12.57398"><ele>10.0</ele><time>2026-03-22T10:53:03.56Z</time></trkpt><trkpt lat="44.0439233" lon="12.5741433"><ele>10.0</ele><time>2026-03-22T10:53:04.559Z</time></trkpt><trkpt lat="44.0440233" lon="12.5742883"><ele>10.0</ele><time>2026-03-22T10:53:05.559Z</time></trkpt><trkpt lat="44.0441217" lon="12.5744217"><ele>10.0</ele><time>2026-03-22T10:53:06.559Z</time></trkpt><trkpt lat="44.0442183" lon="12.5745533"><ele>10.25</ele><time>2026-03-22T10:53:07.56Z</time></trkpt><trkpt lat="44.0443067" lon="12.5746833"><ele>10.5</ele><time>2026-03-22T10:53:08.559Z</time></trkpt><trkpt lat="44.04439" lon="12.5748183"><ele>10.75</ele><time>2026-03-22T10:53:09.56Z</time></trkpt><trkpt lat="44.0444733" lon="12.5749433"><ele>11.0</ele><time>2026-03-22T10:53:10.559Z</time></trkpt><trkpt lat="44.0445533" lon="12.57506"><ele>11.0</ele><time>2026-03-22T10:53:11.56Z</time></trkpt><trkpt lat="44.04462" lon="12.5751633"><ele>11.0</ele><time>2026-03-22T10:53:12.56Z</time></trkpt><trkpt lat="44.0446733" lon="12.5752433"><ele>11.0</ele><time>2026-03-22T10:53:13.56Z</time></trkpt><trkpt lat="44.0447183" lon="12.5753133"><ele>11.0</ele><time>2026-03-22T10:53:14.56Z</time></trkpt><trkpt lat="44.044765" lon="12.57546"><ele>11.0</ele><time>2026-03-22T10:53:16.56Z</time></trkpt><trkpt lat="44.0447667" lon="12.5756117"><ele>11.0</ele><time>2026-03-22T10:53:18.559Z</time></trkpt><trkpt lat="44.044815" lon="12.575735"><ele>11.0</ele><time>2026-03-22T10:53:20.559Z</time></trkpt><trkpt lat="44.04495" lon="12.5757917"><ele>11.0</ele><time>2026-03-22T10:53:22.56Z</time></trkpt><trkpt lat="44.0450317" lon="12.5758267"><ele>11.0</ele><time>2026-03-22T10:53:23.56Z</time></trkpt><trkpt lat="44.045115" lon="12.5758983"><ele>11.0</ele><time>2026-03-22T10:53:24.559Z</time></trkpt><trkpt lat="44.0452067" lon="12.5760033"><ele>10.666666666666666</ele><time>2026-03-22T10:53:25.56Z</time></trkpt><trkpt lat="44.0453033" lon="12.57614"><ele>10.333333333333334</ele><time>2026-03-22T10:53:26.559Z</time></trkpt><trkpt lat="44.045415" lon="12.5763083"><ele>10.0</ele><time>2026-03-22T10:53:27.56Z</time></trkpt><trkpt lat="44.0455383" lon="12.5764817"><ele>10.0</ele><time>2026-03-22T10:53:28.56Z</time></trkpt><trkpt lat="44.04567" lon="12.5766633"><ele>10.0</ele><time>2026-03-22T10:53:29.56Z</time></trkpt><trkpt lat="44.0458017" lon="12.5768483"><ele>10.0</ele><time>2026-03-22T10:53:30.56Z</time></trkpt><trkpt lat="44.045925" lon="12.5770333"><ele>9.333333333333334</ele><time>2026-03-22T10:53:31.56Z</time></trkpt><trkpt lat="44.04605" lon="12.57721"><ele>8.666666666666666</ele><time>2026-03-22T10:53:32.56Z</time></trkpt><trkpt lat="44.0461783" lon="12.577385"><ele>8.0</ele><time>2026-03-22T10:53:33.559Z</time></trkpt><trkpt lat="44.0463033" lon="12.5775633"><ele>8.0</ele><time>2026-03-22T10:53:34.559Z</time></trkpt><trkpt lat="44.0464283" lon="12.5777417"><ele>8.0</ele><time>2026-03-22T10:53:35.559Z</time></trkpt><trkpt lat="44.04655" lon="12.5779217"><ele>8.0</ele><time>2026-03-22T10:53:36.559Z</time></trkpt><trkpt lat="44.04667" lon="12.5781017"><ele>7.333333333333333</ele><time>2026-03-22T10:53:37.56Z</time></trkpt><trkpt lat="44.0467833" lon="12.5782817"><ele>6.666666666666666</ele><time>2026-03-22T10:53:38.559Z</time></trkpt><trkpt lat="44.046905" lon="12.5784533"><ele>6.0</ele><time>2026-03-22T10:53:39.559Z</time></trkpt><trkpt lat="44.0470383" lon="12.57862"><ele>6.0</ele><time>2026-03-22T10:53:40.56Z</time></trkpt><trkpt lat="44.047155" lon="12.5788067"><ele>6.0</ele><time>2026-03-22T10:53:41.56Z</time></trkpt><trkpt lat="44.047275" lon="12.5789933"><ele>6.0</ele><time>2026-03-22T10:53:42.56Z</time></trkpt><trkpt lat="44.0473983" lon="12.579175"><ele>5.666666666666667</ele><time>2026-03-22T10:53:43.56Z</time></trkpt><trkpt lat="44.0475167" lon="12.57934"><ele>5.333333333333334</ele><time>2026-03-22T10:53:44.559Z</time></trkpt><trkpt lat="44.0476283" lon="12.579495"><ele>5.0</ele><time>2026-03-22T10:53:45.56Z</time></trkpt><trkpt lat="44.047725" lon="12.5796433"><ele>5.4</ele><time>2026-03-22T10:53:46.559Z</time></trkpt><trkpt lat="44.04781" lon="12.579775"><ele>5.8</ele><time>2026-03-22T10:53:47.559Z</time></trkpt><trkpt lat="44.0478883" lon="12.5798767"><ele>6.199999999999999</ele><time>2026-03-22T10:53:48.559Z</time></trkpt><trkpt lat="44.0479467" lon="12.5799717"><ele>6.6</ele><time>2026-03-22T10:53:49.56Z</time></trkpt><trkpt lat="44.047995" lon="12.5800517"><ele>7.0</ele><time>2026-03-22T10:53:50.559Z</time></trkpt><trkpt lat="44.0480283" lon="12.58013"><ele>7.0</ele><time>2026-03-22T10:53:51.56Z</time></trkpt><trkpt lat="44.0480733" lon="12.5802"><ele>6.999999999999999</ele><time>2026-03-22T10:53:52.56Z</time></trkpt><trkpt lat="44.0481533" lon="12.5802683"><ele>6.999999999999999</ele><time>2026-03-22T10:53:53.56Z</time></trkpt><trkpt lat="44.0482617" lon="12.580355"><ele>7.0</ele><time>2026-03-22T10:53:54.559Z</time></trkpt><trkpt lat="44.0483783" lon="12.5804767"><ele>7.0</ele><time>2026-03-22T10:53:55.56Z</time></trkpt><trkpt lat="44.0485133" lon="12.5806233"><ele>6.333333333333334</ele><time>2026-03-22T10:53:56.56Z</time></trkpt><trkpt lat="44.0486517" lon="12.5807767"><ele>5.666666666666667</ele><time>2026-03-22T10:53:57.559Z</time></trkpt><trkpt lat="44.0487967" lon="12.5809183"><ele>5.0</ele><time>2026-03-22T10:53:58.56Z</time></trkpt><trkpt lat="44.04893" lon="12.5810483"><ele>5.0</ele><time>2026-03-22T10:53:59.56Z</time></trkpt><trkpt lat="44.0490483" lon="12.5811833"><ele>5.0</ele><time>2026-03-22T10:54:00.559Z</time></trkpt><trkpt lat="44.0491633" lon="12.581315"><ele>5.0</ele><time>2026-03-22T10:54:01.559Z</time></trkpt><trkpt lat="44.0492767" lon="12.5814533"><ele>4.5</ele><time>2026-03-22T10:54:02.56Z</time></trkpt><trkpt lat="44.0493883" lon="12.5815867"><ele>4.0</ele><time>2026-03-22T10:54:03.56Z</time></trkpt><trkpt lat="44.0495" lon="12.58172"><ele>3.5</ele><time>2026-03-22T10:54:04.56Z</time></trkpt><trkpt lat="44.0496083" lon="12.581855"><ele>3.0</ele><time>2026-03-22T10:54:05.56Z</time></trkpt><trkpt lat="44.0497183" lon="12.5819917"><ele>3.0</ele><time>2026-03-22T10:54:06.56Z</time></trkpt><trkpt lat="44.0498217" lon="12.582125"><ele>3.0</ele><time>2026-03-22T10:54:07.559Z</time></trkpt><trkpt lat="44.0499183" lon="12.58225"><ele>3.0</ele><time>2026-03-22T10:54:08.56Z</time></trkpt><trkpt lat="44.0500133" lon="12.5823683"><ele>3.0</ele><time>2026-03-22T10:54:09.559Z</time></trkpt><trkpt lat="44.0500967" lon="12.5824833"><ele>3.1666666666666665</ele><time>2026-03-22T10:54:10.56Z</time></trkpt><trkpt lat="44.0501717" lon="12.582575"><ele>3.333333333333333</ele><time>2026-03-22T10:54:11.56Z</time></trkpt><trkpt lat="44.0502433" lon="12.5826617"><ele>3.5</ele><time>2026-03-22T10:54:12.559Z</time></trkpt><trkpt lat="44.05031" lon="12.5827417"><ele>3.6666666666666665</ele><time>2026-03-22T10:54:13.56Z</time></trkpt><trkpt lat="44.0503733" lon="12.582815"><ele>3.833333333333333</ele><time>2026-03-22T10:54:14.56Z</time></trkpt><trkpt lat="44.0504283" lon="12.5828783"><ele>4.0</ele><time>2026-03-22T10:54:15.56Z</time></trkpt><trkpt lat="44.0504767" lon="12.5829383"><ele>3.9999999999999996</ele><time>2026-03-22T10:54:16.559Z</time></trkpt><trkpt lat="44.0505333" lon="12.5830017"><ele>4.0</ele><time>2026-03-22T10:54:17.56Z</time></trkpt><trkpt lat="44.0505917" lon="12.583065"><ele>4.0</ele><time>2026-03-22T10:54:18.56Z</time></trkpt><trkpt lat="44.0506583" lon="12.5831417"><ele>4.0</ele><time>2026-03-22T10:54:20.56Z</time></trkpt><trkpt lat="44.0507217" lon="12.583225"><ele>3.9999999999999996</ele><time>2026-03-22T10:54:23.56Z</time></trkpt><trkpt lat="44.05077" lon="12.583295"><ele>4.0</ele><time>2026-03-22T10:54:25.56Z</time></trkpt><trkpt lat="44.0508033" lon="12.58337"><ele>3.9999999999999996</ele><time>2026-03-22T10:54:27.559Z</time></trkpt><trkpt lat="44.0508383" lon="12.58347"><ele>4.0</ele><time>2026-03-22T10:54:31.559Z</time></trkpt><trkpt lat="44.0508683" lon="12.583555"><ele>4.0</ele><time>2026-03-22T10:54:33.56Z</time></trkpt><trkpt lat="44.0508783" lon="12.5837117"><ele>4.0</ele><time>2026-03-22T10:54:35.559Z</time></trkpt><trkpt lat="44.05087" lon="12.5838133"><ele>3.9999999999999996</ele><time>2026-03-22T10:54:36.559Z</time></trkpt><trkpt lat="44.05086" lon="12.5839383"><ele>4.0</ele><time>2026-03-22T10:54:37.559Z</time></trkpt><trkpt lat="44.0508317" lon="12.5840817"><ele>4.0</ele><time>2026-03-22T10:54:38.56Z</time></trkpt><trkpt lat="44.050785" lon="12.5842267"><ele>4.0</ele><time>2026-03-22T10:54:39.559Z</time></trkpt><trkpt lat="44.0507333" lon="12.5843917"><ele>4.0</ele><time>2026-03-22T10:54:40.56Z</time></trkpt><trkpt lat="44.050675" lon="12.5845617"><ele>4.0</ele><time>2026-03-22T10:54:41.559Z</time></trkpt><trkpt lat="44.0506167" lon="12.5847367"><ele>4.25</ele><time>2026-03-22T10:54:42.56Z</time></trkpt><trkpt lat="44.0505617" lon="12.5848967"><ele>4.5</ele><time>2026-03-22T10:54:43.559Z</time></trkpt><trkpt lat="44.0505133" lon="12.5850417"><ele>4.75</ele><time>2026-03-22T10:54:44.56Z</time></trkpt><trkpt lat="44.0504633" lon="12.585185"><ele>5.0</ele><time>2026-03-22T10:54:45.559Z</time></trkpt><trkpt lat="44.0504133" lon="12.5853133"><ele>4.8</ele><time>2026-03-22T10:54:46.559Z</time></trkpt><trkpt lat="44.0503617" lon="12.5854267"><ele>4.6</ele><time>2026-03-22T10:54:47.559Z</time></trkpt><trkpt lat="44.050315" lon="12.5855433"><ele>4.4</ele><time>2026-03-22T10:54:48.56Z</time></trkpt><trkpt lat="44.0502583" lon="12.585665"><ele>4.2</ele><time>2026-03-22T10:54:49.56Z</time></trkpt><trkpt lat="44.0501933" lon="12.5857983"><ele>4.0</ele><time>2026-03-22T10:54:50.559Z</time></trkpt><trkpt lat="44.0501083" lon="12.5859367"><ele>4.0</ele><time>2026-03-22T10:54:51.56Z</time></trkpt><trkpt lat="44.05003" lon="12.5860817"><ele>4.0</ele><time>2026-03-22T10:54:52.56Z</time></trkpt><trkpt lat="44.0499567" lon="12.5862317"><ele>4.0</ele><time>2026-03-22T10:54:53.559Z</time></trkpt><trkpt lat="44.0498833" lon="12.5863717"><ele>4.0</ele><time>2026-03-22T10:54:54.56Z</time></trkpt><trkpt lat="44.0498317" lon="12.5864883"><ele>4.333333333333333</ele><time>2026-03-22T10:54:55.56Z</time></trkpt><trkpt lat="44.0497867" lon="12.5865767"><ele>4.666666666666666</ele><time>2026-03-22T10:54:56.559Z</time></trkpt><trkpt lat="44.0497" lon="12.5866433"><ele>5.0</ele><time>2026-03-22T10:54:58.559Z</time></trkpt><trkpt lat="44.0496117" lon="12.5865717"><ele>5.333333333333333</ele><time>2026-03-22T10:55:00.559Z</time></trkpt><trkpt lat="44.0495617" lon="12.5865017"><ele>5.666666666666667</ele><time>2026-03-22T10:55:01.56Z</time></trkpt><trkpt lat="44.04951" lon="12.586405"><ele>6.0</ele><time>2026-03-22T10:55:02.56Z</time></trkpt><trkpt lat="44.04946" lon="12.5862983"><ele>6.0</ele><time>2026-03-22T10:55:03.559Z</time></trkpt><trkpt lat="44.049405" lon="12.5862033"><ele>6.0</ele><time>2026-03-22T10:55:04.559Z</time></trkpt><trkpt lat="44.049325" lon="12.5861167"><ele>6.0</ele><time>2026-03-22T10:55:06.56Z</time></trkpt><trkpt lat="44.04925" lon="12.5861283"><ele>6.0</ele><time>2026-03-22T10:55:08.56Z</time></trkpt><trkpt lat="44.049195" lon="12.58618"><ele>6.0</ele><time>2026-03-22T10:55:09.559Z</time></trkpt><trkpt lat="44.0491283" lon="12.5862617"><ele>6.0</ele><time>2026-03-22T10:55:10.56Z</time></trkpt><trkpt lat="44.049065" lon="12.5863517"><ele>5.6</ele><time>2026-03-22T10:55:11.56Z</time></trkpt><trkpt lat="44.0489933" lon="12.5864333"><ele>5.199999999999999</ele><time>2026-03-22T10:55:12.559Z</time></trkpt><trkpt lat="44.0489167" lon="12.58654"><ele>4.800000000000001</ele><time>2026-03-22T10:55:13.559Z</time></trkpt><trkpt lat="44.0488317" lon="12.58663"><ele>4.4</ele><time>2026-03-22T10:55:14.56Z</time></trkpt><trkpt lat="44.04876" lon="12.5867117"><ele>4.0</ele><time>2026-03-22T10:55:15.56Z</time></trkpt><trkpt lat="44.04871" lon="12.5867783"><ele>3.9999999999999996</ele><time>2026-03-22T10:55:16.56Z</time></trkpt><trkpt lat="44.048645" lon="12.5868417"><ele>4.0</ele><time>2026-03-22T10:55:18.56Z</time></trkpt><trkpt lat="44.04855" lon="12.5867833"><ele>4.0</ele><time>2026-03-22T10:55:21.56Z</time></trkpt><trkpt lat="44.0485" lon="12.58672"><ele>4.0</ele><time>2026-03-22T10:55:22.56Z</time></trkpt><trkpt lat="44.0484367" lon="12.5866183"><ele>3.9999999999999996</ele><time>2026-03-22T10:55:24.56Z</time></trkpt><trkpt lat="44.0484583" lon="12.5865167"><ele>4.0</ele><time>2026-03-22T10:55:26.56Z</time></trkpt><trkpt lat="44.048555" lon="12.58639"><ele>4.0</ele><time>2026-03-22T10:55:28.56Z</time></trkpt><trkpt lat="44.0486133" lon="12.5863317"><ele>4.0</ele><time>2026-03-22T10:55:29.559Z</time></trkpt><trkpt lat="44.048695" lon="12.5862667"><ele>4.0</ele><time>2026-03-22T10:55:31.56Z</time></trkpt><trkpt lat="44.0487583" lon="12.58632"><ele>4.0</ele><time>2026-03-22T10:55:34.56Z</time></trkpt><trkpt lat="44.048835" lon="12.58607"><ele>4.0</ele><time>2026-03-22T10:56:06.56Z</time></trkpt><trkpt lat="44.0487967" lon="12.5862667"><ele>4.0</ele><time>2026-03-22T10:56:11.341Z</time></trkpt><trkpt lat="44.04873" lon="12.5864033"><ele>4.0</ele><time>2026-03-22T10:56:38.559Z</time></trkpt><trkpt lat="44.0486617" lon="12.5863167"><ele>4.0</ele><time>2026-03-22T11:02:02.559Z</time></trkpt><trkpt lat="44.0486633" lon="12.5864083"><ele>4.0</ele><time>2026-03-22T11:04:40.56Z</time></trkpt><trkpt lat="44.04866" lon="12.586505"><ele>4.0</ele><time>2026-03-22T11:05:19.56Z</time></trkpt></trkseg></trk></gpx>